<?xml version="1.0" encoding="UTF-8"?>
<gpx version="1.1" creator="https://www.youtrack.es" xsi:schemaLocation="http://www.topografix.com/GPX/1/1 http://www.topografix.com/GPX/1/1/gpx.xsd http://www.garmin.com/xmlschemas/GpxExtensions/v3 http://www.garmin.com/xmlschemas/GpxExtensionsv3.xsd http://www.garmin.com/xmlschemas/TrackPointExtension/v1 http://www.garmin.com/xmlschemas/TrackPointExtensionv1.xsd" xmlns:gpxtpx="http://www.garmin.com/xmlschemas/TrackPointExtension/v1" xmlns:gpxx="http://www.garmin.com/xmlschemas/GpxExtensions/v3" xmlns:xsi="http://www.w3.org/2001/XMLSchema-instance">
  <metadata>
    <link href="https://www.youtrack.es">
      <text>YouTrack.es</text>
    </link>
    <time>2026-05-09T02:58:24Z</time>
  </metadata>
  <trk>
    <src>https://www.youtrack.es</src>
    <link href="https://www.youtrack.es/ruta/20454-agora">
      <text>YouTrack.es</text>
    </link>
    <trkseg>
      <trkpt lat="41.1930310" lon="-8.5749980">
        <ele>117.2</ele>
        <time>2021-03-20T11:00:31Z</time>
      </trkpt>
      <trkpt lat="41.1930310" lon="-8.5749980">
        <ele>117.2</ele>
        <time>2021-03-20T11:00:32Z</time>
      </trkpt>
      <trkpt lat="41.1930530" lon="-8.5749760">
        <ele>117.2</ele>
        <time>2021-03-20T11:00:33Z</time>
      </trkpt>
      <trkpt lat="41.1930760" lon="-8.5749400">
        <ele>117.2</ele>
        <time>2021-03-20T11:00:34Z</time>
      </trkpt>
      <trkpt lat="41.1931030" lon="-8.5749020">
        <ele>117.2</ele>
        <time>2021-03-20T11:00:35Z</time>
      </trkpt>
      <trkpt lat="41.1931250" lon="-8.5748720">
        <ele>117.2</ele>
        <time>2021-03-20T11:00:36Z</time>
      </trkpt>
      <trkpt lat="41.1931490" lon="-8.5748400">
        <ele>117.2</ele>
        <time>2021-03-20T11:00:37Z</time>
      </trkpt>
      <trkpt lat="41.1931790" lon="-8.5748060">
        <ele>117.2</ele>
        <time>2021-03-20T11:00:38Z</time>
      </trkpt>
      <trkpt lat="41.1932070" lon="-8.5747770">
        <ele>117.2</ele>
        <time>2021-03-20T11:00:39Z</time>
      </trkpt>
      <trkpt lat="41.1932320" lon="-8.5747450">
        <ele>117.2</ele>
        <time>2021-03-20T11:00:40Z</time>
      </trkpt>
      <trkpt lat="41.1932560" lon="-8.5747150">
        <ele>117.2</ele>
        <time>2021-03-20T11:00:41Z</time>
      </trkpt>
      <trkpt lat="41.1932820" lon="-8.5746780">
        <ele>117.2</ele>
        <time>2021-03-20T11:00:42Z</time>
      </trkpt>
      <trkpt lat="41.1933100" lon="-8.5746430">
        <ele>117.2</ele>
        <time>2021-03-20T11:00:43Z</time>
      </trkpt>
      <trkpt lat="41.1933360" lon="-8.5746040">
        <ele>117.2</ele>
        <time>2021-03-20T11:00:44Z</time>
      </trkpt>
      <trkpt lat="41.1933590" lon="-8.5745730">
        <ele>117.2</ele>
        <time>2021-03-20T11:00:45Z</time>
      </trkpt>
      <trkpt lat="41.1933700" lon="-8.5745430">
        <ele>117.2</ele>
        <time>2021-03-20T11:00:46Z</time>
      </trkpt>
      <trkpt lat="41.1933930" lon="-8.5744980">
        <ele>117.2</ele>
        <time>2021-03-20T11:00:47Z</time>
      </trkpt>
      <trkpt lat="41.1934140" lon="-8.5744560">
        <ele>117.2</ele>
        <time>2021-03-20T11:00:48Z</time>
      </trkpt>
      <trkpt lat="41.1934390" lon="-8.5744180">
        <ele>117.2</ele>
        <time>2021-03-20T11:00:49Z</time>
      </trkpt>
      <trkpt lat="41.1934680" lon="-8.5743740">
        <ele>117.2</ele>
        <time>2021-03-20T11:00:50Z</time>
      </trkpt>
      <trkpt lat="41.1934960" lon="-8.5743340">
        <ele>117.2</ele>
        <time>2021-03-20T11:00:51Z</time>
      </trkpt>
      <trkpt lat="41.1935220" lon="-8.5742970">
        <ele>117.2</ele>
        <time>2021-03-20T11:00:52Z</time>
      </trkpt>
      <trkpt lat="41.1935470" lon="-8.5742550">
        <ele>117.2</ele>
        <time>2021-03-20T11:00:53Z</time>
      </trkpt>
      <trkpt lat="41.1935730" lon="-8.5742130">
        <ele>117.2</ele>
        <time>2021-03-20T11:00:54Z</time>
      </trkpt>
      <trkpt lat="41.1936000" lon="-8.5741720">
        <ele>117.2</ele>
        <time>2021-03-20T11:00:55Z</time>
      </trkpt>
      <trkpt lat="41.1936280" lon="-8.5741290">
        <ele>117.0</ele>
        <time>2021-03-20T11:00:56Z</time>
      </trkpt>
      <trkpt lat="41.1936550" lon="-8.5740900">
        <ele>117.2</ele>
        <time>2021-03-20T11:00:57Z</time>
      </trkpt>
      <trkpt lat="41.1936780" lon="-8.5740540">
        <ele>117.6</ele>
        <time>2021-03-20T11:00:58Z</time>
      </trkpt>
      <trkpt lat="41.1937020" lon="-8.5740190">
        <ele>117.6</ele>
        <time>2021-03-20T11:00:59Z</time>
      </trkpt>
      <trkpt lat="41.1937050" lon="-8.5740030">
        <ele>117.6</ele>
        <time>2021-03-20T11:01:00Z</time>
      </trkpt>
      <trkpt lat="41.1937110" lon="-8.5739910">
        <ele>117.6</ele>
        <time>2021-03-20T11:01:01Z</time>
      </trkpt>
      <trkpt lat="41.1937160" lon="-8.5739870">
        <ele>117.8</ele>
        <time>2021-03-20T11:01:02Z</time>
      </trkpt>
      <trkpt lat="41.1937260" lon="-8.5739990">
        <ele>117.6</ele>
        <time>2021-03-20T11:01:03Z</time>
      </trkpt>
      <trkpt lat="41.1937440" lon="-8.5739440">
        <ele>117.6</ele>
        <time>2021-03-20T11:01:04Z</time>
      </trkpt>
      <trkpt lat="41.1937800" lon="-8.5739330">
        <ele>117.8</ele>
        <time>2021-03-20T11:01:05Z</time>
      </trkpt>
      <trkpt lat="41.1938000" lon="-8.5739230">
        <ele>117.8</ele>
        <time>2021-03-20T11:01:06Z</time>
      </trkpt>
      <trkpt lat="41.1938260" lon="-8.5739340">
        <ele>117.8</ele>
        <time>2021-03-20T11:01:07Z</time>
      </trkpt>
      <trkpt lat="41.1938670" lon="-8.5739250">
        <ele>118.0</ele>
        <time>2021-03-20T11:01:08Z</time>
      </trkpt>
      <trkpt lat="41.1938960" lon="-8.5739430">
        <ele>118.0</ele>
        <time>2021-03-20T11:01:09Z</time>
      </trkpt>
      <trkpt lat="41.1939250" lon="-8.5739260">
        <ele>118.2</ele>
        <time>2021-03-20T11:01:10Z</time>
      </trkpt>
      <trkpt lat="41.1939370" lon="-8.5739900">
        <ele>118.2</ele>
        <time>2021-03-20T11:01:11Z</time>
      </trkpt>
      <trkpt lat="41.1939470" lon="-8.5740380">
        <ele>118.4</ele>
        <time>2021-03-20T11:01:12Z</time>
      </trkpt>
      <trkpt lat="41.1939700" lon="-8.5740600">
        <ele>118.4</ele>
        <time>2021-03-20T11:01:13Z</time>
      </trkpt>
      <trkpt lat="41.1939960" lon="-8.5740980">
        <ele>118.6</ele>
        <time>2021-03-20T11:01:14Z</time>
      </trkpt>
      <trkpt lat="41.1940180" lon="-8.5741540">
        <ele>118.6</ele>
        <time>2021-03-20T11:01:15Z</time>
      </trkpt>
      <trkpt lat="41.1940600" lon="-8.5741630">
        <ele>118.8</ele>
        <time>2021-03-20T11:01:16Z</time>
      </trkpt>
      <trkpt lat="41.1940810" lon="-8.5742030">
        <ele>118.8</ele>
        <time>2021-03-20T11:01:17Z</time>
      </trkpt>
      <trkpt lat="41.1941120" lon="-8.5742480">
        <ele>119.0</ele>
        <time>2021-03-20T11:01:18Z</time>
      </trkpt>
      <trkpt lat="41.1941430" lon="-8.5742840">
        <ele>119.2</ele>
        <time>2021-03-20T11:01:19Z</time>
      </trkpt>
      <trkpt lat="41.1941750" lon="-8.5743060">
        <ele>119.2</ele>
        <time>2021-03-20T11:01:20Z</time>
      </trkpt>
      <trkpt lat="41.1941930" lon="-8.5743520">
        <ele>119.2</ele>
        <time>2021-03-20T11:01:21Z</time>
      </trkpt>
      <trkpt lat="41.1942150" lon="-8.5743920">
        <ele>119.4</ele>
        <time>2021-03-20T11:01:22Z</time>
      </trkpt>
      <trkpt lat="41.1942450" lon="-8.5744450">
        <ele>119.2</ele>
        <time>2021-03-20T11:01:23Z</time>
      </trkpt>
      <trkpt lat="41.1942650" lon="-8.5744910">
        <ele>119.0</ele>
        <time>2021-03-20T11:01:24Z</time>
      </trkpt>
      <trkpt lat="41.1943010" lon="-8.5745570">
        <ele>119.0</ele>
        <time>2021-03-20T11:01:25Z</time>
      </trkpt>
      <trkpt lat="41.1943120" lon="-8.5745790">
        <ele>119.2</ele>
        <time>2021-03-20T11:01:26Z</time>
      </trkpt>
      <trkpt lat="41.1943290" lon="-8.5746350">
        <ele>119.2</ele>
        <time>2021-03-20T11:01:27Z</time>
      </trkpt>
      <trkpt lat="41.1943410" lon="-8.5746850">
        <ele>119.6</ele>
        <time>2021-03-20T11:01:28Z</time>
      </trkpt>
      <trkpt lat="41.1943410" lon="-8.5746850">
        <ele>119.6</ele>
        <time>2021-03-20T11:01:29Z</time>
      </trkpt>
      <trkpt lat="41.1943410" lon="-8.5746850">
        <ele>119.6</ele>
        <time>2021-03-20T11:01:30Z</time>
      </trkpt>
      <trkpt lat="41.1943410" lon="-8.5746850">
        <ele>119.6</ele>
        <time>2021-03-20T11:01:31Z</time>
      </trkpt>
      <trkpt lat="41.1943410" lon="-8.5746850">
        <ele>119.8</ele>
        <time>2021-03-20T11:01:32Z</time>
      </trkpt>
      <trkpt lat="41.1943410" lon="-8.5746850">
        <ele>120.0</ele>
        <time>2021-03-20T11:01:33Z</time>
      </trkpt>
      <trkpt lat="41.1943990" lon="-8.5750520">
        <ele>120.0</ele>
        <time>2021-03-20T11:01:34Z</time>
      </trkpt>
      <trkpt lat="41.1944060" lon="-8.5751140">
        <ele>120.2</ele>
        <time>2021-03-20T11:01:35Z</time>
      </trkpt>
      <trkpt lat="41.1944120" lon="-8.5751710">
        <ele>120.2</ele>
        <time>2021-03-20T11:01:36Z</time>
      </trkpt>
      <trkpt lat="41.1944180" lon="-8.5752160">
        <ele>120.2</ele>
        <time>2021-03-20T11:01:37Z</time>
      </trkpt>
      <trkpt lat="41.1944340" lon="-8.5752730">
        <ele>120.2</ele>
        <time>2021-03-20T11:01:38Z</time>
      </trkpt>
      <trkpt lat="41.1944510" lon="-8.5753330">
        <ele>120.6</ele>
        <time>2021-03-20T11:01:39Z</time>
      </trkpt>
      <trkpt lat="41.1944520" lon="-8.5753980">
        <ele>120.8</ele>
        <time>2021-03-20T11:01:40Z</time>
      </trkpt>
      <trkpt lat="41.1944590" lon="-8.5754630">
        <ele>121.0</ele>
        <time>2021-03-20T11:01:41Z</time>
      </trkpt>
      <trkpt lat="41.1944660" lon="-8.5755260">
        <ele>121.2</ele>
        <time>2021-03-20T11:01:42Z</time>
      </trkpt>
      <trkpt lat="41.1944710" lon="-8.5755860">
        <ele>121.2</ele>
        <time>2021-03-20T11:01:43Z</time>
      </trkpt>
      <trkpt lat="41.1944810" lon="-8.5756480">
        <ele>121.2</ele>
        <time>2021-03-20T11:01:44Z</time>
      </trkpt>
      <trkpt lat="41.1944840" lon="-8.5757100">
        <ele>121.2</ele>
        <time>2021-03-20T11:01:45Z</time>
      </trkpt>
      <trkpt lat="41.1944890" lon="-8.5757690">
        <ele>121.4</ele>
        <time>2021-03-20T11:01:46Z</time>
      </trkpt>
      <trkpt lat="41.1944980" lon="-8.5758290">
        <ele>121.6</ele>
        <time>2021-03-20T11:01:47Z</time>
      </trkpt>
      <trkpt lat="41.1945110" lon="-8.5758870">
        <ele>121.6</ele>
        <time>2021-03-20T11:01:48Z</time>
      </trkpt>
      <trkpt lat="41.1945230" lon="-8.5759440">
        <ele>121.8</ele>
        <time>2021-03-20T11:01:49Z</time>
      </trkpt>
      <trkpt lat="41.1945230" lon="-8.5759440">
        <ele>121.8</ele>
        <time>2021-03-20T11:01:50Z</time>
      </trkpt>
      <trkpt lat="41.1945230" lon="-8.5759440">
        <ele>121.8</ele>
        <time>2021-03-20T11:01:51Z</time>
      </trkpt>
      <trkpt lat="41.1945230" lon="-8.5759440">
        <ele>122.0</ele>
        <time>2021-03-20T11:01:52Z</time>
      </trkpt>
      <trkpt lat="41.1945230" lon="-8.5759440">
        <ele>122.0</ele>
        <time>2021-03-20T11:01:53Z</time>
      </trkpt>
      <trkpt lat="41.1945230" lon="-8.5759440">
        <ele>122.2</ele>
        <time>2021-03-20T11:01:54Z</time>
      </trkpt>
      <trkpt lat="41.1946340" lon="-8.5762590">
        <ele>122.6</ele>
        <time>2021-03-20T11:01:55Z</time>
      </trkpt>
      <trkpt lat="41.1946560" lon="-8.5763060">
        <ele>122.6</ele>
        <time>2021-03-20T11:01:56Z</time>
      </trkpt>
      <trkpt lat="41.1946770" lon="-8.5763450">
        <ele>122.8</ele>
        <time>2021-03-20T11:01:57Z</time>
      </trkpt>
      <trkpt lat="41.1947000" lon="-8.5763830">
        <ele>122.8</ele>
        <time>2021-03-20T11:01:58Z</time>
      </trkpt>
      <trkpt lat="41.1947240" lon="-8.5764230">
        <ele>123.0</ele>
        <time>2021-03-20T11:01:59Z</time>
      </trkpt>
      <trkpt lat="41.1947540" lon="-8.5764810">
        <ele>123.0</ele>
        <time>2021-03-20T11:02:00Z</time>
      </trkpt>
      <trkpt lat="41.1947630" lon="-8.5765020">
        <ele>122.8</ele>
        <time>2021-03-20T11:02:01Z</time>
      </trkpt>
      <trkpt lat="41.1947810" lon="-8.5765530">
        <ele>122.8</ele>
        <time>2021-03-20T11:02:02Z</time>
      </trkpt>
      <trkpt lat="41.1948030" lon="-8.5765950">
        <ele>122.8</ele>
        <time>2021-03-20T11:02:03Z</time>
      </trkpt>
      <trkpt lat="41.1948320" lon="-8.5766390">
        <ele>122.6</ele>
        <time>2021-03-20T11:02:04Z</time>
      </trkpt>
      <trkpt lat="41.1948550" lon="-8.5766970">
        <ele>122.4</ele>
        <time>2021-03-20T11:02:05Z</time>
      </trkpt>
      <trkpt lat="41.1948800" lon="-8.5767450">
        <ele>122.4</ele>
        <time>2021-03-20T11:02:06Z</time>
      </trkpt>
      <trkpt lat="41.1949010" lon="-8.5767950">
        <ele>122.4</ele>
        <time>2021-03-20T11:02:07Z</time>
      </trkpt>
      <trkpt lat="41.1949220" lon="-8.5768250">
        <ele>122.2</ele>
        <time>2021-03-20T11:02:08Z</time>
      </trkpt>
      <trkpt lat="41.1949350" lon="-8.5768520">
        <ele>122.2</ele>
        <time>2021-03-20T11:02:09Z</time>
      </trkpt>
      <trkpt lat="41.1949550" lon="-8.5769360">
        <ele>122.2</ele>
        <time>2021-03-20T11:02:10Z</time>
      </trkpt>
      <trkpt lat="41.1949610" lon="-8.5769500">
        <ele>122.0</ele>
        <time>2021-03-20T11:02:11Z</time>
      </trkpt>
      <trkpt lat="41.1949760" lon="-8.5769730">
        <ele>122.0</ele>
        <time>2021-03-20T11:02:12Z</time>
      </trkpt>
      <trkpt lat="41.1949900" lon="-8.5769990">
        <ele>121.8</ele>
        <time>2021-03-20T11:02:13Z</time>
      </trkpt>
      <trkpt lat="41.1950160" lon="-8.5770170">
        <ele>121.8</ele>
        <time>2021-03-20T11:02:14Z</time>
      </trkpt>
      <trkpt lat="41.1950290" lon="-8.5770120">
        <ele>121.8</ele>
        <time>2021-03-20T11:02:15Z</time>
      </trkpt>
      <trkpt lat="41.1950540" lon="-8.5770020">
        <ele>121.6</ele>
        <time>2021-03-20T11:02:16Z</time>
      </trkpt>
      <trkpt lat="41.1951180" lon="-8.5769740">
        <ele>121.6</ele>
        <time>2021-03-20T11:02:17Z</time>
      </trkpt>
      <trkpt lat="41.1951350" lon="-8.5769690">
        <ele>121.6</ele>
        <time>2021-03-20T11:02:18Z</time>
      </trkpt>
      <trkpt lat="41.1951830" lon="-8.5769520">
        <ele>121.4</ele>
        <time>2021-03-20T11:02:19Z</time>
      </trkpt>
      <trkpt lat="41.1952470" lon="-8.5769230">
        <ele>121.0</ele>
        <time>2021-03-20T11:02:20Z</time>
      </trkpt>
      <trkpt lat="41.1952720" lon="-8.5769070">
        <ele>120.8</ele>
        <time>2021-03-20T11:02:21Z</time>
      </trkpt>
      <trkpt lat="41.1953020" lon="-8.5768840">
        <ele>120.8</ele>
        <time>2021-03-20T11:02:22Z</time>
      </trkpt>
      <trkpt lat="41.1953460" lon="-8.5768540">
        <ele>120.6</ele>
        <time>2021-03-20T11:02:23Z</time>
      </trkpt>
      <trkpt lat="41.1953460" lon="-8.5768540">
        <ele>120.6</ele>
        <time>2021-03-20T11:02:24Z</time>
      </trkpt>
      <trkpt lat="41.1953460" lon="-8.5768540">
        <ele>120.2</ele>
        <time>2021-03-20T11:02:25Z</time>
      </trkpt>
      <trkpt lat="41.1953460" lon="-8.5768540">
        <ele>120.4</ele>
        <time>2021-03-20T11:02:26Z</time>
      </trkpt>
      <trkpt lat="41.1953460" lon="-8.5768540">
        <ele>120.0</ele>
        <time>2021-03-20T11:02:27Z</time>
      </trkpt>
      <trkpt lat="41.1953460" lon="-8.5768540">
        <ele>119.8</ele>
        <time>2021-03-20T11:02:28Z</time>
      </trkpt>
      <trkpt lat="41.1956540" lon="-8.5766360">
        <ele>119.6</ele>
        <time>2021-03-20T11:02:29Z</time>
      </trkpt>
      <trkpt lat="41.1957110" lon="-8.5765940">
        <ele>119.4</ele>
        <time>2021-03-20T11:02:30Z</time>
      </trkpt>
      <trkpt lat="41.1958000" lon="-8.5765880">
        <ele>119.0</ele>
        <time>2021-03-20T11:02:31Z</time>
      </trkpt>
      <trkpt lat="41.1958720" lon="-8.5764990">
        <ele>118.8</ele>
        <time>2021-03-20T11:02:32Z</time>
      </trkpt>
      <trkpt lat="41.1958860" lon="-8.5764890">
        <ele>118.8</ele>
        <time>2021-03-20T11:02:33Z</time>
      </trkpt>
      <trkpt lat="41.1959580" lon="-8.5764620">
        <ele>118.6</ele>
        <time>2021-03-20T11:02:34Z</time>
      </trkpt>
      <trkpt lat="41.1960220" lon="-8.5764280">
        <ele>118.4</ele>
        <time>2021-03-20T11:02:35Z</time>
      </trkpt>
      <trkpt lat="41.1960880" lon="-8.5763950">
        <ele>118.2</ele>
        <time>2021-03-20T11:02:36Z</time>
      </trkpt>
      <trkpt lat="41.1961560" lon="-8.5763670">
        <ele>118.0</ele>
        <time>2021-03-20T11:02:37Z</time>
      </trkpt>
      <trkpt lat="41.1962250" lon="-8.5763410">
        <ele>117.8</ele>
        <time>2021-03-20T11:02:38Z</time>
      </trkpt>
      <trkpt lat="41.1963400" lon="-8.5763120">
        <ele>117.8</ele>
        <time>2021-03-20T11:02:39Z</time>
      </trkpt>
      <trkpt lat="41.1964160" lon="-8.5762970">
        <ele>117.8</ele>
        <time>2021-03-20T11:02:40Z</time>
      </trkpt>
      <trkpt lat="41.1964780" lon="-8.5762600">
        <ele>117.8</ele>
        <time>2021-03-20T11:02:41Z</time>
      </trkpt>
      <trkpt lat="41.1965360" lon="-8.5762470">
        <ele>117.8</ele>
        <time>2021-03-20T11:02:42Z</time>
      </trkpt>
      <trkpt lat="41.1966030" lon="-8.5762360">
        <ele>117.8</ele>
        <time>2021-03-20T11:02:43Z</time>
      </trkpt>
      <trkpt lat="41.1966620" lon="-8.5762160">
        <ele>118.0</ele>
        <time>2021-03-20T11:02:44Z</time>
      </trkpt>
      <trkpt lat="41.1967410" lon="-8.5761690">
        <ele>118.0</ele>
        <time>2021-03-20T11:02:45Z</time>
      </trkpt>
      <trkpt lat="41.1968250" lon="-8.5761630">
        <ele>118.0</ele>
        <time>2021-03-20T11:02:46Z</time>
      </trkpt>
      <trkpt lat="41.1968890" lon="-8.5761500">
        <ele>118.0</ele>
        <time>2021-03-20T11:02:47Z</time>
      </trkpt>
      <trkpt lat="41.1969290" lon="-8.5761500">
        <ele>118.0</ele>
        <time>2021-03-20T11:02:48Z</time>
      </trkpt>
      <trkpt lat="41.1969880" lon="-8.5761280">
        <ele>118.0</ele>
        <time>2021-03-20T11:02:49Z</time>
      </trkpt>
      <trkpt lat="41.1970480" lon="-8.5760780">
        <ele>118.0</ele>
        <time>2021-03-20T11:02:50Z</time>
      </trkpt>
      <trkpt lat="41.1971140" lon="-8.5760820">
        <ele>118.0</ele>
        <time>2021-03-20T11:02:51Z</time>
      </trkpt>
      <trkpt lat="41.1971670" lon="-8.5760590">
        <ele>118.0</ele>
        <time>2021-03-20T11:02:52Z</time>
      </trkpt>
      <trkpt lat="41.1972390" lon="-8.5760400">
        <ele>118.2</ele>
        <time>2021-03-20T11:02:53Z</time>
      </trkpt>
      <trkpt lat="41.1973130" lon="-8.5760200">
        <ele>118.0</ele>
        <time>2021-03-20T11:02:54Z</time>
      </trkpt>
      <trkpt lat="41.1973840" lon="-8.5760020">
        <ele>118.0</ele>
        <time>2021-03-20T11:02:55Z</time>
      </trkpt>
      <trkpt lat="41.1974470" lon="-8.5759860">
        <ele>118.0</ele>
        <time>2021-03-20T11:02:56Z</time>
      </trkpt>
      <trkpt lat="41.1974940" lon="-8.5759650">
        <ele>118.0</ele>
        <time>2021-03-20T11:02:57Z</time>
      </trkpt>
      <trkpt lat="41.1975490" lon="-8.5759650">
        <ele>118.2</ele>
        <time>2021-03-20T11:02:58Z</time>
      </trkpt>
      <trkpt lat="41.1976280" lon="-8.5759270">
        <ele>118.2</ele>
        <time>2021-03-20T11:02:59Z</time>
      </trkpt>
      <trkpt lat="41.1976930" lon="-8.5759300">
        <ele>118.2</ele>
        <time>2021-03-20T11:03:00Z</time>
      </trkpt>
      <trkpt lat="41.1977540" lon="-8.5759410">
        <ele>118.2</ele>
        <time>2021-03-20T11:03:01Z</time>
      </trkpt>
      <trkpt lat="41.1978410" lon="-8.5758990">
        <ele>118.0</ele>
        <time>2021-03-20T11:03:02Z</time>
      </trkpt>
      <trkpt lat="41.1979080" lon="-8.5758800">
        <ele>118.0</ele>
        <time>2021-03-20T11:03:03Z</time>
      </trkpt>
      <trkpt lat="41.1980160" lon="-8.5758720">
        <ele>117.8</ele>
        <time>2021-03-20T11:03:04Z</time>
      </trkpt>
      <trkpt lat="41.1980910" lon="-8.5758410">
        <ele>118.0</ele>
        <time>2021-03-20T11:03:05Z</time>
      </trkpt>
      <trkpt lat="41.1981570" lon="-8.5758100">
        <ele>117.8</ele>
        <time>2021-03-20T11:03:06Z</time>
      </trkpt>
      <trkpt lat="41.1982330" lon="-8.5757840">
        <ele>117.4</ele>
        <time>2021-03-20T11:03:07Z</time>
      </trkpt>
      <trkpt lat="41.1983070" lon="-8.5757630">
        <ele>117.4</ele>
        <time>2021-03-20T11:03:08Z</time>
      </trkpt>
      <trkpt lat="41.1983580" lon="-8.5757510">
        <ele>117.4</ele>
        <time>2021-03-20T11:03:09Z</time>
      </trkpt>
      <trkpt lat="41.1984160" lon="-8.5757360">
        <ele>117.2</ele>
        <time>2021-03-20T11:03:10Z</time>
      </trkpt>
      <trkpt lat="41.1984810" lon="-8.5757220">
        <ele>117.4</ele>
        <time>2021-03-20T11:03:11Z</time>
      </trkpt>
      <trkpt lat="41.1985510" lon="-8.5757060">
        <ele>117.6</ele>
        <time>2021-03-20T11:03:12Z</time>
      </trkpt>
      <trkpt lat="41.1986030" lon="-8.5756930">
        <ele>117.6</ele>
        <time>2021-03-20T11:03:13Z</time>
      </trkpt>
      <trkpt lat="41.1986760" lon="-8.5756700">
        <ele>117.6</ele>
        <time>2021-03-20T11:03:14Z</time>
      </trkpt>
      <trkpt lat="41.1987450" lon="-8.5756430">
        <ele>117.6</ele>
        <time>2021-03-20T11:03:15Z</time>
      </trkpt>
      <trkpt lat="41.1988020" lon="-8.5756200">
        <ele>117.6</ele>
        <time>2021-03-20T11:03:16Z</time>
      </trkpt>
      <trkpt lat="41.1988710" lon="-8.5755950">
        <ele>117.4</ele>
        <time>2021-03-20T11:03:17Z</time>
      </trkpt>
      <trkpt lat="41.1989330" lon="-8.5755590">
        <ele>117.6</ele>
        <time>2021-03-20T11:03:18Z</time>
      </trkpt>
      <trkpt lat="41.1989790" lon="-8.5755410">
        <ele>117.6</ele>
        <time>2021-03-20T11:03:19Z</time>
      </trkpt>
      <trkpt lat="41.1990400" lon="-8.5755120">
        <ele>117.4</ele>
        <time>2021-03-20T11:03:20Z</time>
      </trkpt>
      <trkpt lat="41.1991020" lon="-8.5754810">
        <ele>117.4</ele>
        <time>2021-03-20T11:03:21Z</time>
      </trkpt>
      <trkpt lat="41.1991630" lon="-8.5754450">
        <ele>117.4</ele>
        <time>2021-03-20T11:03:22Z</time>
      </trkpt>
      <trkpt lat="41.1992690" lon="-8.5753830">
        <ele>117.6</ele>
        <time>2021-03-20T11:03:23Z</time>
      </trkpt>
      <trkpt lat="41.1993300" lon="-8.5753520">
        <ele>117.8</ele>
        <time>2021-03-20T11:03:24Z</time>
      </trkpt>
      <trkpt lat="41.1993900" lon="-8.5753090">
        <ele>117.8</ele>
        <time>2021-03-20T11:03:25Z</time>
      </trkpt>
      <trkpt lat="41.1994490" lon="-8.5752680">
        <ele>118.0</ele>
        <time>2021-03-20T11:03:26Z</time>
      </trkpt>
      <trkpt lat="41.1994930" lon="-8.5752390">
        <ele>118.2</ele>
        <time>2021-03-20T11:03:27Z</time>
      </trkpt>
      <trkpt lat="41.1995550" lon="-8.5751840">
        <ele>118.2</ele>
        <time>2021-03-20T11:03:28Z</time>
      </trkpt>
      <trkpt lat="41.1996030" lon="-8.5751410">
        <ele>118.0</ele>
        <time>2021-03-20T11:03:29Z</time>
      </trkpt>
      <trkpt lat="41.1996680" lon="-8.5750970">
        <ele>118.0</ele>
        <time>2021-03-20T11:03:30Z</time>
      </trkpt>
      <trkpt lat="41.1997280" lon="-8.5750600">
        <ele>118.0</ele>
        <time>2021-03-20T11:03:31Z</time>
      </trkpt>
      <trkpt lat="41.1997700" lon="-8.5750320">
        <ele>118.0</ele>
        <time>2021-03-20T11:03:32Z</time>
      </trkpt>
      <trkpt lat="41.1998180" lon="-8.5749890">
        <ele>118.0</ele>
        <time>2021-03-20T11:03:33Z</time>
      </trkpt>
      <trkpt lat="41.1998770" lon="-8.5749450">
        <ele>118.0</ele>
        <time>2021-03-20T11:03:34Z</time>
      </trkpt>
      <trkpt lat="41.1999450" lon="-8.5748730">
        <ele>118.2</ele>
        <time>2021-03-20T11:03:35Z</time>
      </trkpt>
      <trkpt lat="41.1999960" lon="-8.5748490">
        <ele>118.2</ele>
        <time>2021-03-20T11:03:36Z</time>
      </trkpt>
      <trkpt lat="41.2000360" lon="-8.5748150">
        <ele>118.2</ele>
        <time>2021-03-20T11:03:37Z</time>
      </trkpt>
      <trkpt lat="41.2000960" lon="-8.5747780">
        <ele>118.2</ele>
        <time>2021-03-20T11:03:38Z</time>
      </trkpt>
      <trkpt lat="41.2001630" lon="-8.5747080">
        <ele>118.2</ele>
        <time>2021-03-20T11:03:39Z</time>
      </trkpt>
      <trkpt lat="41.2001900" lon="-8.5746830">
        <ele>117.8</ele>
        <time>2021-03-20T11:03:40Z</time>
      </trkpt>
      <trkpt lat="41.2002500" lon="-8.5746380">
        <ele>117.8</ele>
        <time>2021-03-20T11:03:41Z</time>
      </trkpt>
      <trkpt lat="41.2003350" lon="-8.5745690">
        <ele>117.8</ele>
        <time>2021-03-20T11:03:42Z</time>
      </trkpt>
      <trkpt lat="41.2003600" lon="-8.5745480">
        <ele>117.8</ele>
        <time>2021-03-20T11:03:43Z</time>
      </trkpt>
      <trkpt lat="41.2004200" lon="-8.5745020">
        <ele>117.6</ele>
        <time>2021-03-20T11:03:44Z</time>
      </trkpt>
      <trkpt lat="41.2004800" lon="-8.5744520">
        <ele>117.4</ele>
        <time>2021-03-20T11:03:45Z</time>
      </trkpt>
      <trkpt lat="41.2004800" lon="-8.5744520">
        <ele>117.4</ele>
        <time>2021-03-20T11:03:46Z</time>
      </trkpt>
      <trkpt lat="41.2004800" lon="-8.5744520">
        <ele>117.2</ele>
        <time>2021-03-20T11:03:47Z</time>
      </trkpt>
      <trkpt lat="41.2004800" lon="-8.5744520">
        <ele>117.2</ele>
        <time>2021-03-20T11:03:48Z</time>
      </trkpt>
      <trkpt lat="41.2004800" lon="-8.5744520">
        <ele>117.0</ele>
        <time>2021-03-20T11:03:49Z</time>
      </trkpt>
      <trkpt lat="41.2004800" lon="-8.5744520">
        <ele>117.0</ele>
        <time>2021-03-20T11:03:50Z</time>
      </trkpt>
      <trkpt lat="41.2008050" lon="-8.5741790">
        <ele>117.0</ele>
        <time>2021-03-20T11:03:51Z</time>
      </trkpt>
      <trkpt lat="41.2008870" lon="-8.5741050">
        <ele>116.8</ele>
        <time>2021-03-20T11:03:52Z</time>
      </trkpt>
      <trkpt lat="41.2009140" lon="-8.5740820">
        <ele>116.6</ele>
        <time>2021-03-20T11:03:53Z</time>
      </trkpt>
      <trkpt lat="41.2009710" lon="-8.5740310">
        <ele>116.4</ele>
        <time>2021-03-20T11:03:54Z</time>
      </trkpt>
      <trkpt lat="41.2010570" lon="-8.5739470">
        <ele>116.2</ele>
        <time>2021-03-20T11:03:55Z</time>
      </trkpt>
      <trkpt lat="41.2010850" lon="-8.5739180">
        <ele>115.8</ele>
        <time>2021-03-20T11:03:56Z</time>
      </trkpt>
      <trkpt lat="41.2011390" lon="-8.5738580">
        <ele>115.8</ele>
        <time>2021-03-20T11:03:57Z</time>
      </trkpt>
      <trkpt lat="41.2011900" lon="-8.5737980">
        <ele>115.8</ele>
        <time>2021-03-20T11:03:58Z</time>
      </trkpt>
      <trkpt lat="41.2011900" lon="-8.5737980">
        <ele>115.8</ele>
        <time>2021-03-20T11:03:59Z</time>
      </trkpt>
      <trkpt lat="41.2011900" lon="-8.5737980">
        <ele>115.8</ele>
        <time>2021-03-20T11:04:00Z</time>
      </trkpt>
      <trkpt lat="41.2011900" lon="-8.5737980">
        <ele>115.6</ele>
        <time>2021-03-20T11:04:01Z</time>
      </trkpt>
      <trkpt lat="41.2011900" lon="-8.5737980">
        <ele>115.4</ele>
        <time>2021-03-20T11:04:02Z</time>
      </trkpt>
      <trkpt lat="41.2011900" lon="-8.5737980">
        <ele>115.0</ele>
        <time>2021-03-20T11:04:03Z</time>
      </trkpt>
      <trkpt lat="41.2015960" lon="-8.5733460">
        <ele>114.8</ele>
        <time>2021-03-20T11:04:04Z</time>
      </trkpt>
      <trkpt lat="41.2016370" lon="-8.5733100">
        <ele>114.8</ele>
        <time>2021-03-20T11:04:05Z</time>
      </trkpt>
      <trkpt lat="41.2017020" lon="-8.5732220">
        <ele>114.6</ele>
        <time>2021-03-20T11:04:06Z</time>
      </trkpt>
      <trkpt lat="41.2017590" lon="-8.5731770">
        <ele>114.6</ele>
        <time>2021-03-20T11:04:07Z</time>
      </trkpt>
      <trkpt lat="41.2018270" lon="-8.5730820">
        <ele>114.4</ele>
        <time>2021-03-20T11:04:08Z</time>
      </trkpt>
      <trkpt lat="41.2018840" lon="-8.5730380">
        <ele>114.4</ele>
        <time>2021-03-20T11:04:09Z</time>
      </trkpt>
      <trkpt lat="41.2019490" lon="-8.5729370">
        <ele>114.2</ele>
        <time>2021-03-20T11:04:10Z</time>
      </trkpt>
      <trkpt lat="41.2019870" lon="-8.5729080">
        <ele>114.2</ele>
        <time>2021-03-20T11:04:11Z</time>
      </trkpt>
      <trkpt lat="41.2020510" lon="-8.5728410">
        <ele>114.2</ele>
        <time>2021-03-20T11:04:12Z</time>
      </trkpt>
      <trkpt lat="41.2021140" lon="-8.5727600">
        <ele>114.0</ele>
        <time>2021-03-20T11:04:13Z</time>
      </trkpt>
      <trkpt lat="41.2021770" lon="-8.5726850">
        <ele>113.6</ele>
        <time>2021-03-20T11:04:14Z</time>
      </trkpt>
      <trkpt lat="41.2022440" lon="-8.5726120">
        <ele>113.6</ele>
        <time>2021-03-20T11:04:15Z</time>
      </trkpt>
      <trkpt lat="41.2022950" lon="-8.5725590">
        <ele>113.4</ele>
        <time>2021-03-20T11:04:16Z</time>
      </trkpt>
      <trkpt lat="41.2023370" lon="-8.5725090">
        <ele>113.4</ele>
        <time>2021-03-20T11:04:17Z</time>
      </trkpt>
      <trkpt lat="41.2024000" lon="-8.5724360">
        <ele>113.4</ele>
        <time>2021-03-20T11:04:18Z</time>
      </trkpt>
      <trkpt lat="41.2024580" lon="-8.5723690">
        <ele>113.4</ele>
        <time>2021-03-20T11:04:19Z</time>
      </trkpt>
      <trkpt lat="41.2025030" lon="-8.5723340">
        <ele>113.2</ele>
        <time>2021-03-20T11:04:20Z</time>
      </trkpt>
      <trkpt lat="41.2025640" lon="-8.5722300">
        <ele>113.0</ele>
        <time>2021-03-20T11:04:21Z</time>
      </trkpt>
      <trkpt lat="41.2026020" lon="-8.5722210">
        <ele>113.2</ele>
        <time>2021-03-20T11:04:22Z</time>
      </trkpt>
      <trkpt lat="41.2026730" lon="-8.5721380">
        <ele>113.0</ele>
        <time>2021-03-20T11:04:23Z</time>
      </trkpt>
      <trkpt lat="41.2027400" lon="-8.5720390">
        <ele>113.0</ele>
        <time>2021-03-20T11:04:24Z</time>
      </trkpt>
      <trkpt lat="41.2027890" lon="-8.5719930">
        <ele>113.0</ele>
        <time>2021-03-20T11:04:25Z</time>
      </trkpt>
      <trkpt lat="41.2028440" lon="-8.5719300">
        <ele>113.0</ele>
        <time>2021-03-20T11:04:26Z</time>
      </trkpt>
      <trkpt lat="41.2028830" lon="-8.5718770">
        <ele>113.2</ele>
        <time>2021-03-20T11:04:27Z</time>
      </trkpt>
      <trkpt lat="41.2029390" lon="-8.5718130">
        <ele>113.2</ele>
        <time>2021-03-20T11:04:28Z</time>
      </trkpt>
      <trkpt lat="41.2029870" lon="-8.5717460">
        <ele>113.4</ele>
        <time>2021-03-20T11:04:29Z</time>
      </trkpt>
      <trkpt lat="41.2030300" lon="-8.5716860">
        <ele>113.2</ele>
        <time>2021-03-20T11:04:30Z</time>
      </trkpt>
      <trkpt lat="41.2030660" lon="-8.5716320">
        <ele>113.2</ele>
        <time>2021-03-20T11:04:31Z</time>
      </trkpt>
      <trkpt lat="41.2031120" lon="-8.5715670">
        <ele>113.2</ele>
        <time>2021-03-20T11:04:32Z</time>
      </trkpt>
      <trkpt lat="41.2031610" lon="-8.5715120">
        <ele>113.2</ele>
        <time>2021-03-20T11:04:33Z</time>
      </trkpt>
      <trkpt lat="41.2032090" lon="-8.5714540">
        <ele>113.6</ele>
        <time>2021-03-20T11:04:34Z</time>
      </trkpt>
      <trkpt lat="41.2032440" lon="-8.5714110">
        <ele>113.6</ele>
        <time>2021-03-20T11:04:35Z</time>
      </trkpt>
      <trkpt lat="41.2032870" lon="-8.5713580">
        <ele>113.6</ele>
        <time>2021-03-20T11:04:36Z</time>
      </trkpt>
      <trkpt lat="41.2033270" lon="-8.5712950">
        <ele>113.6</ele>
        <time>2021-03-20T11:04:37Z</time>
      </trkpt>
      <trkpt lat="41.2033680" lon="-8.5712420">
        <ele>113.8</ele>
        <time>2021-03-20T11:04:38Z</time>
      </trkpt>
      <trkpt lat="41.2034030" lon="-8.5711810">
        <ele>114.0</ele>
        <time>2021-03-20T11:04:39Z</time>
      </trkpt>
      <trkpt lat="41.2034250" lon="-8.5711430">
        <ele>113.8</ele>
        <time>2021-03-20T11:04:40Z</time>
      </trkpt>
      <trkpt lat="41.2034610" lon="-8.5711000">
        <ele>113.6</ele>
        <time>2021-03-20T11:04:41Z</time>
      </trkpt>
      <trkpt lat="41.2034940" lon="-8.5710370">
        <ele>113.6</ele>
        <time>2021-03-20T11:04:42Z</time>
      </trkpt>
      <trkpt lat="41.2035270" lon="-8.5709840">
        <ele>113.6</ele>
        <time>2021-03-20T11:04:43Z</time>
      </trkpt>
      <trkpt lat="41.2035520" lon="-8.5709390">
        <ele>113.6</ele>
        <time>2021-03-20T11:04:44Z</time>
      </trkpt>
      <trkpt lat="41.2035680" lon="-8.5709080">
        <ele>113.6</ele>
        <time>2021-03-20T11:04:45Z</time>
      </trkpt>
      <trkpt lat="41.2035880" lon="-8.5708710">
        <ele>113.6</ele>
        <time>2021-03-20T11:04:46Z</time>
      </trkpt>
      <trkpt lat="41.2035940" lon="-8.5708540">
        <ele>113.6</ele>
        <time>2021-03-20T11:04:47Z</time>
      </trkpt>
      <trkpt lat="41.2036120" lon="-8.5708310">
        <ele>113.6</ele>
        <time>2021-03-20T11:04:48Z</time>
      </trkpt>
      <trkpt lat="41.2036160" lon="-8.5708160">
        <ele>113.6</ele>
        <time>2021-03-20T11:04:49Z</time>
      </trkpt>
      <trkpt lat="41.2036270" lon="-8.5707980">
        <ele>113.4</ele>
        <time>2021-03-20T11:04:50Z</time>
      </trkpt>
      <trkpt lat="41.2036660" lon="-8.5707810">
        <ele>113.6</ele>
        <time>2021-03-20T11:04:51Z</time>
      </trkpt>
      <trkpt lat="41.2036940" lon="-8.5707390">
        <ele>113.6</ele>
        <time>2021-03-20T11:04:52Z</time>
      </trkpt>
      <trkpt lat="41.2036970" lon="-8.5707320">
        <ele>113.6</ele>
        <time>2021-03-20T11:04:53Z</time>
      </trkpt>
      <trkpt lat="41.2036990" lon="-8.5707280">
        <ele>113.6</ele>
        <time>2021-03-20T11:04:54Z</time>
      </trkpt>
      <trkpt lat="41.2037020" lon="-8.5706690">
        <ele>113.8</ele>
        <time>2021-03-20T11:04:55Z</time>
      </trkpt>
      <trkpt lat="41.2036980" lon="-8.5706800">
        <ele>113.8</ele>
        <time>2021-03-20T11:04:56Z</time>
      </trkpt>
      <trkpt lat="41.2037000" lon="-8.5706710">
        <ele>113.8</ele>
        <time>2021-03-20T11:04:57Z</time>
      </trkpt>
      <trkpt lat="41.2037040" lon="-8.5706750">
        <ele>113.8</ele>
        <time>2021-03-20T11:04:58Z</time>
      </trkpt>
      <trkpt lat="41.2037220" lon="-8.5707130">
        <ele>114.0</ele>
        <time>2021-03-20T11:04:59Z</time>
      </trkpt>
      <trkpt lat="41.2037330" lon="-8.5707320">
        <ele>113.8</ele>
        <time>2021-03-20T11:05:00Z</time>
      </trkpt>
      <trkpt lat="41.2037390" lon="-8.5707470">
        <ele>113.8</ele>
        <time>2021-03-20T11:05:01Z</time>
      </trkpt>
      <trkpt lat="41.2037510" lon="-8.5707480">
        <ele>113.8</ele>
        <time>2021-03-20T11:05:02Z</time>
      </trkpt>
      <trkpt lat="41.2037490" lon="-8.5707240">
        <ele>113.8</ele>
        <time>2021-03-20T11:05:03Z</time>
      </trkpt>
      <trkpt lat="41.2038020" lon="-8.5706970">
        <ele>113.6</ele>
        <time>2021-03-20T11:05:12Z</time>
      </trkpt>
      <trkpt lat="41.2038070" lon="-8.5706950">
        <ele>113.6</ele>
        <time>2021-03-20T11:05:13Z</time>
      </trkpt>
      <trkpt lat="41.2038170" lon="-8.5706960">
        <ele>113.4</ele>
        <time>2021-03-20T11:05:14Z</time>
      </trkpt>
      <trkpt lat="41.2038240" lon="-8.5706940">
        <ele>113.4</ele>
        <time>2021-03-20T11:05:15Z</time>
      </trkpt>
      <trkpt lat="41.2038350" lon="-8.5706600">
        <ele>113.6</ele>
        <time>2021-03-20T11:05:16Z</time>
      </trkpt>
      <trkpt lat="41.2038450" lon="-8.5706250">
        <ele>113.2</ele>
        <time>2021-03-20T11:05:17Z</time>
      </trkpt>
      <trkpt lat="41.2038500" lon="-8.5706040">
        <ele>113.6</ele>
        <time>2021-03-20T11:05:18Z</time>
      </trkpt>
      <trkpt lat="41.2038650" lon="-8.5705870">
        <ele>113.8</ele>
        <time>2021-03-20T11:05:19Z</time>
      </trkpt>
      <trkpt lat="41.2038860" lon="-8.5705450">
        <ele>113.6</ele>
        <time>2021-03-20T11:05:20Z</time>
      </trkpt>
      <trkpt lat="41.2039060" lon="-8.5704820">
        <ele>113.4</ele>
        <time>2021-03-20T11:05:21Z</time>
      </trkpt>
      <trkpt lat="41.2039270" lon="-8.5704370">
        <ele>112.8</ele>
        <time>2021-03-20T11:05:22Z</time>
      </trkpt>
      <trkpt lat="41.2039530" lon="-8.5703900">
        <ele>112.8</ele>
        <time>2021-03-20T11:05:23Z</time>
      </trkpt>
      <trkpt lat="41.2039700" lon="-8.5703570">
        <ele>112.8</ele>
        <time>2021-03-20T11:05:24Z</time>
      </trkpt>
      <trkpt lat="41.2040020" lon="-8.5703040">
        <ele>112.6</ele>
        <time>2021-03-20T11:05:25Z</time>
      </trkpt>
      <trkpt lat="41.2040320" lon="-8.5702430">
        <ele>112.6</ele>
        <time>2021-03-20T11:05:26Z</time>
      </trkpt>
      <trkpt lat="41.2040620" lon="-8.5701930">
        <ele>112.4</ele>
        <time>2021-03-20T11:05:27Z</time>
      </trkpt>
      <trkpt lat="41.2040920" lon="-8.5701510">
        <ele>112.6</ele>
        <time>2021-03-20T11:05:28Z</time>
      </trkpt>
      <trkpt lat="41.2041290" lon="-8.5700920">
        <ele>112.6</ele>
        <time>2021-03-20T11:05:29Z</time>
      </trkpt>
      <trkpt lat="41.2041670" lon="-8.5700340">
        <ele>112.6</ele>
        <time>2021-03-20T11:05:30Z</time>
      </trkpt>
      <trkpt lat="41.2042060" lon="-8.5699660">
        <ele>112.2</ele>
        <time>2021-03-20T11:05:31Z</time>
      </trkpt>
      <trkpt lat="41.2042400" lon="-8.5698990">
        <ele>112.0</ele>
        <time>2021-03-20T11:05:32Z</time>
      </trkpt>
      <trkpt lat="41.2042720" lon="-8.5698440">
        <ele>112.0</ele>
        <time>2021-03-20T11:05:33Z</time>
      </trkpt>
      <trkpt lat="41.2043100" lon="-8.5697660">
        <ele>112.0</ele>
        <time>2021-03-20T11:05:34Z</time>
      </trkpt>
      <trkpt lat="41.2043450" lon="-8.5697050">
        <ele>112.0</ele>
        <time>2021-03-20T11:05:35Z</time>
      </trkpt>
      <trkpt lat="41.2043960" lon="-8.5696360">
        <ele>111.8</ele>
        <time>2021-03-20T11:05:36Z</time>
      </trkpt>
      <trkpt lat="41.2044250" lon="-8.5695850">
        <ele>111.6</ele>
        <time>2021-03-20T11:05:37Z</time>
      </trkpt>
      <trkpt lat="41.2044570" lon="-8.5695340">
        <ele>111.2</ele>
        <time>2021-03-20T11:05:38Z</time>
      </trkpt>
      <trkpt lat="41.2045050" lon="-8.5694730">
        <ele>111.0</ele>
        <time>2021-03-20T11:05:39Z</time>
      </trkpt>
      <trkpt lat="41.2045510" lon="-8.5693820">
        <ele>110.8</ele>
        <time>2021-03-20T11:05:40Z</time>
      </trkpt>
      <trkpt lat="41.2045910" lon="-8.5693360">
        <ele>110.8</ele>
        <time>2021-03-20T11:05:41Z</time>
      </trkpt>
      <trkpt lat="41.2046370" lon="-8.5692990">
        <ele>110.4</ele>
        <time>2021-03-20T11:05:42Z</time>
      </trkpt>
      <trkpt lat="41.2046760" lon="-8.5692260">
        <ele>110.0</ele>
        <time>2021-03-20T11:05:43Z</time>
      </trkpt>
      <trkpt lat="41.2047300" lon="-8.5691170">
        <ele>110.0</ele>
        <time>2021-03-20T11:05:44Z</time>
      </trkpt>
      <trkpt lat="41.2047660" lon="-8.5690740">
        <ele>110.0</ele>
        <time>2021-03-20T11:05:45Z</time>
      </trkpt>
      <trkpt lat="41.2048160" lon="-8.5689820">
        <ele>110.0</ele>
        <time>2021-03-20T11:05:46Z</time>
      </trkpt>
      <trkpt lat="41.2048620" lon="-8.5689050">
        <ele>109.8</ele>
        <time>2021-03-20T11:05:47Z</time>
      </trkpt>
      <trkpt lat="41.2049060" lon="-8.5688160">
        <ele>109.4</ele>
        <time>2021-03-20T11:05:48Z</time>
      </trkpt>
      <trkpt lat="41.2049440" lon="-8.5687680">
        <ele>109.4</ele>
        <time>2021-03-20T11:05:49Z</time>
      </trkpt>
      <trkpt lat="41.2049910" lon="-8.5686840">
        <ele>109.4</ele>
        <time>2021-03-20T11:05:50Z</time>
      </trkpt>
      <trkpt lat="41.2050320" lon="-8.5686130">
        <ele>109.4</ele>
        <time>2021-03-20T11:05:51Z</time>
      </trkpt>
      <trkpt lat="41.2050960" lon="-8.5685080">
        <ele>109.4</ele>
        <time>2021-03-20T11:05:52Z</time>
      </trkpt>
      <trkpt lat="41.2051390" lon="-8.5684680">
        <ele>109.4</ele>
        <time>2021-03-20T11:05:53Z</time>
      </trkpt>
      <trkpt lat="41.2051760" lon="-8.5684100">
        <ele>109.4</ele>
        <time>2021-03-20T11:05:54Z</time>
      </trkpt>
      <trkpt lat="41.2052380" lon="-8.5683430">
        <ele>109.4</ele>
        <time>2021-03-20T11:05:55Z</time>
      </trkpt>
      <trkpt lat="41.2052860" lon="-8.5682940">
        <ele>109.4</ele>
        <time>2021-03-20T11:05:56Z</time>
      </trkpt>
      <trkpt lat="41.2053230" lon="-8.5682270">
        <ele>109.6</ele>
        <time>2021-03-20T11:05:57Z</time>
      </trkpt>
      <trkpt lat="41.2053670" lon="-8.5681730">
        <ele>109.4</ele>
        <time>2021-03-20T11:05:58Z</time>
      </trkpt>
      <trkpt lat="41.2054090" lon="-8.5681040">
        <ele>109.4</ele>
        <time>2021-03-20T11:05:59Z</time>
      </trkpt>
      <trkpt lat="41.2055170" lon="-8.5680400">
        <ele>109.0</ele>
        <time>2021-03-20T11:06:00Z</time>
      </trkpt>
      <trkpt lat="41.2055760" lon="-8.5679800">
        <ele>109.0</ele>
        <time>2021-03-20T11:06:01Z</time>
      </trkpt>
      <trkpt lat="41.2056360" lon="-8.5679210">
        <ele>109.2</ele>
        <time>2021-03-20T11:06:02Z</time>
      </trkpt>
      <trkpt lat="41.2056830" lon="-8.5679090">
        <ele>109.2</ele>
        <time>2021-03-20T11:06:03Z</time>
      </trkpt>
      <trkpt lat="41.2057580" lon="-8.5678060">
        <ele>109.2</ele>
        <time>2021-03-20T11:06:04Z</time>
      </trkpt>
      <trkpt lat="41.2058040" lon="-8.5678010">
        <ele>109.4</ele>
        <time>2021-03-20T11:06:05Z</time>
      </trkpt>
      <trkpt lat="41.2058440" lon="-8.5677250">
        <ele>109.2</ele>
        <time>2021-03-20T11:06:06Z</time>
      </trkpt>
      <trkpt lat="41.2058790" lon="-8.5676550">
        <ele>109.2</ele>
        <time>2021-03-20T11:06:07Z</time>
      </trkpt>
      <trkpt lat="41.2059050" lon="-8.5676160">
        <ele>109.0</ele>
        <time>2021-03-20T11:06:08Z</time>
      </trkpt>
      <trkpt lat="41.2059170" lon="-8.5676030">
        <ele>109.0</ele>
        <time>2021-03-20T11:06:09Z</time>
      </trkpt>
      <trkpt lat="41.2059560" lon="-8.5675810">
        <ele>109.0</ele>
        <time>2021-03-20T11:06:10Z</time>
      </trkpt>
      <trkpt lat="41.2060110" lon="-8.5675290">
        <ele>109.4</ele>
        <time>2021-03-20T11:06:11Z</time>
      </trkpt>
      <trkpt lat="41.2060490" lon="-8.5675030">
        <ele>109.4</ele>
        <time>2021-03-20T11:06:12Z</time>
      </trkpt>
      <trkpt lat="41.2060700" lon="-8.5674750">
        <ele>109.4</ele>
        <time>2021-03-20T11:06:13Z</time>
      </trkpt>
      <trkpt lat="41.2061100" lon="-8.5674460">
        <ele>109.4</ele>
        <time>2021-03-20T11:06:14Z</time>
      </trkpt>
      <trkpt lat="41.2061330" lon="-8.5674240">
        <ele>109.6</ele>
        <time>2021-03-20T11:06:15Z</time>
      </trkpt>
      <trkpt lat="41.2061540" lon="-8.5674040">
        <ele>109.8</ele>
        <time>2021-03-20T11:06:16Z</time>
      </trkpt>
      <trkpt lat="41.2061980" lon="-8.5673790">
        <ele>110.0</ele>
        <time>2021-03-20T11:06:17Z</time>
      </trkpt>
      <trkpt lat="41.2061990" lon="-8.5673450">
        <ele>110.0</ele>
        <time>2021-03-20T11:06:18Z</time>
      </trkpt>
      <trkpt lat="41.2062160" lon="-8.5673210">
        <ele>110.0</ele>
        <time>2021-03-20T11:06:19Z</time>
      </trkpt>
      <trkpt lat="41.2062460" lon="-8.5673320">
        <ele>109.8</ele>
        <time>2021-03-20T11:06:20Z</time>
      </trkpt>
      <trkpt lat="41.2062870" lon="-8.5673290">
        <ele>109.8</ele>
        <time>2021-03-20T11:06:21Z</time>
      </trkpt>
      <trkpt lat="41.2063210" lon="-8.5673220">
        <ele>109.8</ele>
        <time>2021-03-20T11:06:22Z</time>
      </trkpt>
      <trkpt lat="41.2063680" lon="-8.5673280">
        <ele>109.8</ele>
        <time>2021-03-20T11:06:23Z</time>
      </trkpt>
      <trkpt lat="41.2064140" lon="-8.5673020">
        <ele>109.6</ele>
        <time>2021-03-20T11:06:24Z</time>
      </trkpt>
      <trkpt lat="41.2064420" lon="-8.5672720">
        <ele>109.8</ele>
        <time>2021-03-20T11:06:25Z</time>
      </trkpt>
      <trkpt lat="41.2064680" lon="-8.5672560">
        <ele>109.8</ele>
        <time>2021-03-20T11:06:26Z</time>
      </trkpt>
      <trkpt lat="41.2064870" lon="-8.5672400">
        <ele>110.0</ele>
        <time>2021-03-20T11:06:27Z</time>
      </trkpt>
      <trkpt lat="41.2065020" lon="-8.5672230">
        <ele>110.0</ele>
        <time>2021-03-20T11:06:28Z</time>
      </trkpt>
      <trkpt lat="41.2065220" lon="-8.5672220">
        <ele>110.0</ele>
        <time>2021-03-20T11:06:29Z</time>
      </trkpt>
      <trkpt lat="41.2065500" lon="-8.5672150">
        <ele>110.0</ele>
        <time>2021-03-20T11:06:30Z</time>
      </trkpt>
      <trkpt lat="41.2065750" lon="-8.5672110">
        <ele>110.0</ele>
        <time>2021-03-20T11:06:31Z</time>
      </trkpt>
      <trkpt lat="41.2066100" lon="-8.5672100">
        <ele>110.0</ele>
        <time>2021-03-20T11:06:32Z</time>
      </trkpt>
      <trkpt lat="41.2066390" lon="-8.5672140">
        <ele>110.0</ele>
        <time>2021-03-20T11:06:33Z</time>
      </trkpt>
      <trkpt lat="41.2066660" lon="-8.5672080">
        <ele>110.0</ele>
        <time>2021-03-20T11:06:34Z</time>
      </trkpt>
      <trkpt lat="41.2066860" lon="-8.5672090">
        <ele>110.0</ele>
        <time>2021-03-20T11:06:35Z</time>
      </trkpt>
      <trkpt lat="41.2067100" lon="-8.5672090">
        <ele>110.0</ele>
        <time>2021-03-20T11:06:36Z</time>
      </trkpt>
      <trkpt lat="41.2067300" lon="-8.5672060">
        <ele>110.0</ele>
        <time>2021-03-20T11:06:37Z</time>
      </trkpt>
      <trkpt lat="41.2067410" lon="-8.5672040">
        <ele>110.0</ele>
        <time>2021-03-20T11:06:38Z</time>
      </trkpt>
      <trkpt lat="41.2067560" lon="-8.5672030">
        <ele>110.0</ele>
        <time>2021-03-20T11:06:39Z</time>
      </trkpt>
      <trkpt lat="41.2067680" lon="-8.5672050">
        <ele>110.0</ele>
        <time>2021-03-20T11:06:40Z</time>
      </trkpt>
      <trkpt lat="41.2067830" lon="-8.5672110">
        <ele>110.0</ele>
        <time>2021-03-20T11:06:41Z</time>
      </trkpt>
      <trkpt lat="41.2067930" lon="-8.5672090">
        <ele>110.0</ele>
        <time>2021-03-20T11:06:42Z</time>
      </trkpt>
      <trkpt lat="41.2068050" lon="-8.5672080">
        <ele>110.0</ele>
        <time>2021-03-20T11:06:43Z</time>
      </trkpt>
      <trkpt lat="41.2068100" lon="-8.5672060">
        <ele>110.2</ele>
        <time>2021-03-20T11:06:44Z</time>
      </trkpt>
      <trkpt lat="41.2068190" lon="-8.5672030">
        <ele>110.0</ele>
        <time>2021-03-20T11:06:45Z</time>
      </trkpt>
      <trkpt lat="41.2068360" lon="-8.5672170">
        <ele>109.8</ele>
        <time>2021-03-20T11:06:46Z</time>
      </trkpt>
      <trkpt lat="41.2068460" lon="-8.5672260">
        <ele>110.0</ele>
        <time>2021-03-20T11:06:47Z</time>
      </trkpt>
      <trkpt lat="41.2068510" lon="-8.5672290">
        <ele>110.0</ele>
        <time>2021-03-20T11:06:48Z</time>
      </trkpt>
      <trkpt lat="41.2068620" lon="-8.5672090">
        <ele>110.0</ele>
        <time>2021-03-20T11:06:49Z</time>
      </trkpt>
      <trkpt lat="41.2068650" lon="-8.5672000">
        <ele>110.2</ele>
        <time>2021-03-20T11:06:50Z</time>
      </trkpt>
      <trkpt lat="41.2068670" lon="-8.5672050">
        <ele>110.2</ele>
        <time>2021-03-20T11:06:51Z</time>
      </trkpt>
      <trkpt lat="41.2068780" lon="-8.5672070">
        <ele>110.2</ele>
        <time>2021-03-20T11:06:52Z</time>
      </trkpt>
      <trkpt lat="41.2069050" lon="-8.5672040">
        <ele>110.4</ele>
        <time>2021-03-20T11:06:53Z</time>
      </trkpt>
      <trkpt lat="41.2069360" lon="-8.5671940">
        <ele>110.4</ele>
        <time>2021-03-20T11:06:54Z</time>
      </trkpt>
      <trkpt lat="41.2069630" lon="-8.5671930">
        <ele>110.6</ele>
        <time>2021-03-20T11:06:55Z</time>
      </trkpt>
      <trkpt lat="41.2070000" lon="-8.5671890">
        <ele>111.0</ele>
        <time>2021-03-20T11:06:56Z</time>
      </trkpt>
      <trkpt lat="41.2070330" lon="-8.5671780">
        <ele>111.0</ele>
        <time>2021-03-20T11:06:57Z</time>
      </trkpt>
      <trkpt lat="41.2070730" lon="-8.5671870">
        <ele>111.0</ele>
        <time>2021-03-20T11:06:58Z</time>
      </trkpt>
      <trkpt lat="41.2071120" lon="-8.5671890">
        <ele>111.2</ele>
        <time>2021-03-20T11:06:59Z</time>
      </trkpt>
      <trkpt lat="41.2071320" lon="-8.5671870">
        <ele>111.6</ele>
        <time>2021-03-20T11:07:00Z</time>
      </trkpt>
      <trkpt lat="41.2071660" lon="-8.5671830">
        <ele>112.0</ele>
        <time>2021-03-20T11:07:01Z</time>
      </trkpt>
      <trkpt lat="41.2072160" lon="-8.5671880">
        <ele>112.2</ele>
        <time>2021-03-20T11:07:02Z</time>
      </trkpt>
      <trkpt lat="41.2072470" lon="-8.5671860">
        <ele>112.4</ele>
        <time>2021-03-20T11:07:03Z</time>
      </trkpt>
      <trkpt lat="41.2072870" lon="-8.5671890">
        <ele>112.6</ele>
        <time>2021-03-20T11:07:04Z</time>
      </trkpt>
      <trkpt lat="41.2073300" lon="-8.5671840">
        <ele>112.6</ele>
        <time>2021-03-20T11:07:05Z</time>
      </trkpt>
      <trkpt lat="41.2073640" lon="-8.5671800">
        <ele>112.8</ele>
        <time>2021-03-20T11:07:06Z</time>
      </trkpt>
      <trkpt lat="41.2074150" lon="-8.5671800">
        <ele>112.8</ele>
        <time>2021-03-20T11:07:07Z</time>
      </trkpt>
      <trkpt lat="41.2074690" lon="-8.5671780">
        <ele>112.8</ele>
        <time>2021-03-20T11:07:08Z</time>
      </trkpt>
      <trkpt lat="41.2075050" lon="-8.5671620">
        <ele>112.8</ele>
        <time>2021-03-20T11:07:09Z</time>
      </trkpt>
      <trkpt lat="41.2075360" lon="-8.5671540">
        <ele>112.8</ele>
        <time>2021-03-20T11:07:10Z</time>
      </trkpt>
      <trkpt lat="41.2075750" lon="-8.5671530">
        <ele>112.8</ele>
        <time>2021-03-20T11:07:11Z</time>
      </trkpt>
      <trkpt lat="41.2076130" lon="-8.5671520">
        <ele>113.2</ele>
        <time>2021-03-20T11:07:12Z</time>
      </trkpt>
      <trkpt lat="41.2076580" lon="-8.5671470">
        <ele>113.4</ele>
        <time>2021-03-20T11:07:13Z</time>
      </trkpt>
      <trkpt lat="41.2077020" lon="-8.5671580">
        <ele>113.4</ele>
        <time>2021-03-20T11:07:14Z</time>
      </trkpt>
      <trkpt lat="41.2077560" lon="-8.5671550">
        <ele>113.4</ele>
        <time>2021-03-20T11:07:15Z</time>
      </trkpt>
      <trkpt lat="41.2078050" lon="-8.5671490">
        <ele>113.0</ele>
        <time>2021-03-20T11:07:16Z</time>
      </trkpt>
      <trkpt lat="41.2078330" lon="-8.5671470">
        <ele>113.0</ele>
        <time>2021-03-20T11:07:17Z</time>
      </trkpt>
      <trkpt lat="41.2078770" lon="-8.5671460">
        <ele>113.2</ele>
        <time>2021-03-20T11:07:18Z</time>
      </trkpt>
      <trkpt lat="41.2079190" lon="-8.5671450">
        <ele>113.2</ele>
        <time>2021-03-20T11:07:19Z</time>
      </trkpt>
      <trkpt lat="41.2079560" lon="-8.5671470">
        <ele>113.2</ele>
        <time>2021-03-20T11:07:20Z</time>
      </trkpt>
      <trkpt lat="41.2080170" lon="-8.5671350">
        <ele>112.8</ele>
        <time>2021-03-20T11:07:21Z</time>
      </trkpt>
      <trkpt lat="41.2080710" lon="-8.5671240">
        <ele>112.4</ele>
        <time>2021-03-20T11:07:22Z</time>
      </trkpt>
      <trkpt lat="41.2081250" lon="-8.5671360">
        <ele>112.2</ele>
        <time>2021-03-20T11:07:23Z</time>
      </trkpt>
      <trkpt lat="41.2081800" lon="-8.5671410">
        <ele>112.0</ele>
        <time>2021-03-20T11:07:24Z</time>
      </trkpt>
      <trkpt lat="41.2082280" lon="-8.5671490">
        <ele>111.8</ele>
        <time>2021-03-20T11:07:25Z</time>
      </trkpt>
      <trkpt lat="41.2082890" lon="-8.5671460">
        <ele>111.8</ele>
        <time>2021-03-20T11:07:26Z</time>
      </trkpt>
      <trkpt lat="41.2083470" lon="-8.5671520">
        <ele>111.0</ele>
        <time>2021-03-20T11:07:27Z</time>
      </trkpt>
      <trkpt lat="41.2084100" lon="-8.5671310">
        <ele>110.6</ele>
        <time>2021-03-20T11:07:28Z</time>
      </trkpt>
      <trkpt lat="41.2084590" lon="-8.5671220">
        <ele>110.0</ele>
        <time>2021-03-20T11:07:29Z</time>
      </trkpt>
      <trkpt lat="41.2085040" lon="-8.5671190">
        <ele>109.6</ele>
        <time>2021-03-20T11:07:30Z</time>
      </trkpt>
      <trkpt lat="41.2085700" lon="-8.5671110">
        <ele>109.2</ele>
        <time>2021-03-20T11:07:31Z</time>
      </trkpt>
      <trkpt lat="41.2086260" lon="-8.5670870">
        <ele>108.6</ele>
        <time>2021-03-20T11:07:32Z</time>
      </trkpt>
      <trkpt lat="41.2086940" lon="-8.5670620">
        <ele>108.0</ele>
        <time>2021-03-20T11:07:33Z</time>
      </trkpt>
      <trkpt lat="41.2087930" lon="-8.5670150">
        <ele>107.8</ele>
        <time>2021-03-20T11:07:34Z</time>
      </trkpt>
      <trkpt lat="41.2088690" lon="-8.5669660">
        <ele>107.6</ele>
        <time>2021-03-20T11:07:35Z</time>
      </trkpt>
      <trkpt lat="41.2089370" lon="-8.5669180">
        <ele>107.4</ele>
        <time>2021-03-20T11:07:36Z</time>
      </trkpt>
      <trkpt lat="41.2089960" lon="-8.5668770">
        <ele>107.4</ele>
        <time>2021-03-20T11:07:37Z</time>
      </trkpt>
      <trkpt lat="41.2090720" lon="-8.5668310">
        <ele>107.4</ele>
        <time>2021-03-20T11:07:38Z</time>
      </trkpt>
      <trkpt lat="41.2091510" lon="-8.5667730">
        <ele>107.4</ele>
        <time>2021-03-20T11:07:39Z</time>
      </trkpt>
      <trkpt lat="41.2092270" lon="-8.5667160">
        <ele>107.0</ele>
        <time>2021-03-20T11:07:40Z</time>
      </trkpt>
      <trkpt lat="41.2093170" lon="-8.5666520">
        <ele>107.0</ele>
        <time>2021-03-20T11:07:41Z</time>
      </trkpt>
      <trkpt lat="41.2093950" lon="-8.5665960">
        <ele>107.0</ele>
        <time>2021-03-20T11:07:42Z</time>
      </trkpt>
      <trkpt lat="41.2094700" lon="-8.5665440">
        <ele>107.2</ele>
        <time>2021-03-20T11:07:43Z</time>
      </trkpt>
      <trkpt lat="41.2095150" lon="-8.5665060">
        <ele>107.0</ele>
        <time>2021-03-20T11:07:44Z</time>
      </trkpt>
      <trkpt lat="41.2095880" lon="-8.5664410">
        <ele>107.0</ele>
        <time>2021-03-20T11:07:45Z</time>
      </trkpt>
      <trkpt lat="41.2096670" lon="-8.5663890">
        <ele>106.8</ele>
        <time>2021-03-20T11:07:46Z</time>
      </trkpt>
      <trkpt lat="41.2097300" lon="-8.5663420">
        <ele>106.6</ele>
        <time>2021-03-20T11:07:47Z</time>
      </trkpt>
      <trkpt lat="41.2098060" lon="-8.5662730">
        <ele>106.2</ele>
        <time>2021-03-20T11:07:48Z</time>
      </trkpt>
      <trkpt lat="41.2098500" lon="-8.5662340">
        <ele>106.0</ele>
        <time>2021-03-20T11:07:49Z</time>
      </trkpt>
      <trkpt lat="41.2099030" lon="-8.5661950">
        <ele>106.0</ele>
        <time>2021-03-20T11:07:50Z</time>
      </trkpt>
      <trkpt lat="41.2099690" lon="-8.5661490">
        <ele>106.0</ele>
        <time>2021-03-20T11:07:51Z</time>
      </trkpt>
      <trkpt lat="41.2100330" lon="-8.5660880">
        <ele>105.6</ele>
        <time>2021-03-20T11:07:52Z</time>
      </trkpt>
      <trkpt lat="41.2101010" lon="-8.5660410">
        <ele>105.4</ele>
        <time>2021-03-20T11:07:53Z</time>
      </trkpt>
      <trkpt lat="41.2101590" lon="-8.5659740">
        <ele>105.2</ele>
        <time>2021-03-20T11:07:54Z</time>
      </trkpt>
      <trkpt lat="41.2102260" lon="-8.5659080">
        <ele>105.2</ele>
        <time>2021-03-20T11:07:55Z</time>
      </trkpt>
      <trkpt lat="41.2102880" lon="-8.5658550">
        <ele>104.6</ele>
        <time>2021-03-20T11:07:56Z</time>
      </trkpt>
      <trkpt lat="41.2103280" lon="-8.5658230">
        <ele>104.6</ele>
        <time>2021-03-20T11:07:57Z</time>
      </trkpt>
      <trkpt lat="41.2103790" lon="-8.5657680">
        <ele>104.6</ele>
        <time>2021-03-20T11:07:58Z</time>
      </trkpt>
      <trkpt lat="41.2104470" lon="-8.5657230">
        <ele>104.4</ele>
        <time>2021-03-20T11:07:59Z</time>
      </trkpt>
      <trkpt lat="41.2105460" lon="-8.5656580">
        <ele>104.0</ele>
        <time>2021-03-20T11:08:00Z</time>
      </trkpt>
      <trkpt lat="41.2106140" lon="-8.5656090">
        <ele>103.4</ele>
        <time>2021-03-20T11:08:01Z</time>
      </trkpt>
      <trkpt lat="41.2106710" lon="-8.5655620">
        <ele>103.0</ele>
        <time>2021-03-20T11:08:02Z</time>
      </trkpt>
      <trkpt lat="41.2107250" lon="-8.5655560">
        <ele>102.6</ele>
        <time>2021-03-20T11:08:03Z</time>
      </trkpt>
      <trkpt lat="41.2107770" lon="-8.5655020">
        <ele>102.6</ele>
        <time>2021-03-20T11:08:04Z</time>
      </trkpt>
      <trkpt lat="41.2108580" lon="-8.5654390">
        <ele>102.4</ele>
        <time>2021-03-20T11:08:05Z</time>
      </trkpt>
      <trkpt lat="41.2109330" lon="-8.5653870">
        <ele>102.0</ele>
        <time>2021-03-20T11:08:06Z</time>
      </trkpt>
      <trkpt lat="41.2110220" lon="-8.5653170">
        <ele>101.8</ele>
        <time>2021-03-20T11:08:07Z</time>
      </trkpt>
      <trkpt lat="41.2110930" lon="-8.5652590">
        <ele>101.8</ele>
        <time>2021-03-20T11:08:08Z</time>
      </trkpt>
      <trkpt lat="41.2111470" lon="-8.5652160">
        <ele>101.8</ele>
        <time>2021-03-20T11:08:09Z</time>
      </trkpt>
      <trkpt lat="41.2112150" lon="-8.5651640">
        <ele>101.8</ele>
        <time>2021-03-20T11:08:10Z</time>
      </trkpt>
      <trkpt lat="41.2112830" lon="-8.5651060">
        <ele>101.6</ele>
        <time>2021-03-20T11:08:11Z</time>
      </trkpt>
      <trkpt lat="41.2113600" lon="-8.5650420">
        <ele>101.6</ele>
        <time>2021-03-20T11:08:12Z</time>
      </trkpt>
      <trkpt lat="41.2114480" lon="-8.5649740">
        <ele>101.4</ele>
        <time>2021-03-20T11:08:13Z</time>
      </trkpt>
      <trkpt lat="41.2115110" lon="-8.5649240">
        <ele>101.6</ele>
        <time>2021-03-20T11:08:14Z</time>
      </trkpt>
      <trkpt lat="41.2116710" lon="-8.5647820">
        <ele>101.8</ele>
        <time>2021-03-20T11:08:15Z</time>
      </trkpt>
      <trkpt lat="41.2117310" lon="-8.5647180">
        <ele>101.4</ele>
        <time>2021-03-20T11:08:16Z</time>
      </trkpt>
      <trkpt lat="41.2117990" lon="-8.5646460">
        <ele>101.0</ele>
        <time>2021-03-20T11:08:17Z</time>
      </trkpt>
      <trkpt lat="41.2118650" lon="-8.5645870">
        <ele>100.6</ele>
        <time>2021-03-20T11:08:18Z</time>
      </trkpt>
      <trkpt lat="41.2120060" lon="-8.5644620">
        <ele>100.8</ele>
        <time>2021-03-20T11:08:19Z</time>
      </trkpt>
      <trkpt lat="41.2120450" lon="-8.5644010">
        <ele>101.2</ele>
        <time>2021-03-20T11:08:20Z</time>
      </trkpt>
      <trkpt lat="41.2120970" lon="-8.5643590">
        <ele>101.0</ele>
        <time>2021-03-20T11:08:21Z</time>
      </trkpt>
      <trkpt lat="41.2121530" lon="-8.5643300">
        <ele>100.8</ele>
        <time>2021-03-20T11:08:22Z</time>
      </trkpt>
      <trkpt lat="41.2122190" lon="-8.5642860">
        <ele>101.0</ele>
        <time>2021-03-20T11:08:23Z</time>
      </trkpt>
      <trkpt lat="41.2122820" lon="-8.5642360">
        <ele>101.0</ele>
        <time>2021-03-20T11:08:24Z</time>
      </trkpt>
      <trkpt lat="41.2123280" lon="-8.5642090">
        <ele>100.8</ele>
        <time>2021-03-20T11:08:25Z</time>
      </trkpt>
      <trkpt lat="41.2123880" lon="-8.5641790">
        <ele>100.8</ele>
        <time>2021-03-20T11:08:26Z</time>
      </trkpt>
      <trkpt lat="41.2124480" lon="-8.5641500">
        <ele>100.6</ele>
        <time>2021-03-20T11:08:27Z</time>
      </trkpt>
      <trkpt lat="41.2125110" lon="-8.5641130">
        <ele>100.8</ele>
        <time>2021-03-20T11:08:28Z</time>
      </trkpt>
      <trkpt lat="41.2125570" lon="-8.5640630">
        <ele>101.0</ele>
        <time>2021-03-20T11:08:29Z</time>
      </trkpt>
      <trkpt lat="41.2126110" lon="-8.5640130">
        <ele>101.0</ele>
        <time>2021-03-20T11:08:30Z</time>
      </trkpt>
      <trkpt lat="41.2126530" lon="-8.5639840">
        <ele>100.8</ele>
        <time>2021-03-20T11:08:31Z</time>
      </trkpt>
      <trkpt lat="41.2127080" lon="-8.5639360">
        <ele>100.6</ele>
        <time>2021-03-20T11:08:32Z</time>
      </trkpt>
      <trkpt lat="41.2127630" lon="-8.5638820">
        <ele>100.2</ele>
        <time>2021-03-20T11:08:33Z</time>
      </trkpt>
      <trkpt lat="41.2128000" lon="-8.5638380">
        <ele>99.8</ele>
        <time>2021-03-20T11:08:34Z</time>
      </trkpt>
      <trkpt lat="41.2128470" lon="-8.5637750">
        <ele>99.4</ele>
        <time>2021-03-20T11:08:35Z</time>
      </trkpt>
      <trkpt lat="41.2128860" lon="-8.5637010">
        <ele>99.0</ele>
        <time>2021-03-20T11:08:36Z</time>
      </trkpt>
      <trkpt lat="41.2129200" lon="-8.5636260">
        <ele>98.2</ele>
        <time>2021-03-20T11:08:37Z</time>
      </trkpt>
      <trkpt lat="41.2129520" lon="-8.5635680">
        <ele>97.8</ele>
        <time>2021-03-20T11:08:38Z</time>
      </trkpt>
      <trkpt lat="41.2129930" lon="-8.5634780">
        <ele>97.6</ele>
        <time>2021-03-20T11:08:39Z</time>
      </trkpt>
      <trkpt lat="41.2130370" lon="-8.5633790">
        <ele>96.8</ele>
        <time>2021-03-20T11:08:40Z</time>
      </trkpt>
      <trkpt lat="41.2130790" lon="-8.5632920">
        <ele>96.2</ele>
        <time>2021-03-20T11:08:41Z</time>
      </trkpt>
      <trkpt lat="41.2131200" lon="-8.5632040">
        <ele>95.8</ele>
        <time>2021-03-20T11:08:42Z</time>
      </trkpt>
      <trkpt lat="41.2131480" lon="-8.5631290">
        <ele>95.2</ele>
        <time>2021-03-20T11:08:43Z</time>
      </trkpt>
      <trkpt lat="41.2131940" lon="-8.5630180">
        <ele>94.2</ele>
        <time>2021-03-20T11:08:44Z</time>
      </trkpt>
      <trkpt lat="41.2132340" lon="-8.5629280">
        <ele>93.6</ele>
        <time>2021-03-20T11:08:45Z</time>
      </trkpt>
      <trkpt lat="41.2132770" lon="-8.5628380">
        <ele>93.2</ele>
        <time>2021-03-20T11:08:46Z</time>
      </trkpt>
      <trkpt lat="41.2133050" lon="-8.5627680">
        <ele>93.0</ele>
        <time>2021-03-20T11:08:47Z</time>
      </trkpt>
      <trkpt lat="41.2133440" lon="-8.5626800">
        <ele>92.4</ele>
        <time>2021-03-20T11:08:48Z</time>
      </trkpt>
      <trkpt lat="41.2133850" lon="-8.5626000">
        <ele>92.2</ele>
        <time>2021-03-20T11:08:49Z</time>
      </trkpt>
      <trkpt lat="41.2134310" lon="-8.5625080">
        <ele>92.4</ele>
        <time>2021-03-20T11:08:50Z</time>
      </trkpt>
      <trkpt lat="41.2134670" lon="-8.5624200">
        <ele>92.2</ele>
        <time>2021-03-20T11:08:51Z</time>
      </trkpt>
      <trkpt lat="41.2134970" lon="-8.5623430">
        <ele>92.2</ele>
        <time>2021-03-20T11:08:52Z</time>
      </trkpt>
      <trkpt lat="41.2135350" lon="-8.5622520">
        <ele>92.0</ele>
        <time>2021-03-20T11:08:53Z</time>
      </trkpt>
      <trkpt lat="41.2135800" lon="-8.5621610">
        <ele>91.6</ele>
        <time>2021-03-20T11:08:54Z</time>
      </trkpt>
      <trkpt lat="41.2136330" lon="-8.5620380">
        <ele>91.2</ele>
        <time>2021-03-20T11:08:55Z</time>
      </trkpt>
      <trkpt lat="41.2136760" lon="-8.5619410">
        <ele>91.2</ele>
        <time>2021-03-20T11:08:56Z</time>
      </trkpt>
      <trkpt lat="41.2137060" lon="-8.5618770">
        <ele>91.0</ele>
        <time>2021-03-20T11:08:57Z</time>
      </trkpt>
      <trkpt lat="41.2137490" lon="-8.5617580">
        <ele>90.6</ele>
        <time>2021-03-20T11:08:58Z</time>
      </trkpt>
      <trkpt lat="41.2137850" lon="-8.5616560">
        <ele>90.0</ele>
        <time>2021-03-20T11:08:59Z</time>
      </trkpt>
      <trkpt lat="41.2138240" lon="-8.5615690">
        <ele>89.2</ele>
        <time>2021-03-20T11:09:00Z</time>
      </trkpt>
      <trkpt lat="41.2138520" lon="-8.5615020">
        <ele>88.8</ele>
        <time>2021-03-20T11:09:01Z</time>
      </trkpt>
      <trkpt lat="41.2138960" lon="-8.5614130">
        <ele>88.2</ele>
        <time>2021-03-20T11:09:02Z</time>
      </trkpt>
      <trkpt lat="41.2139310" lon="-8.5613210">
        <ele>88.0</ele>
        <time>2021-03-20T11:09:03Z</time>
      </trkpt>
      <trkpt lat="41.2139600" lon="-8.5612390">
        <ele>87.6</ele>
        <time>2021-03-20T11:09:04Z</time>
      </trkpt>
      <trkpt lat="41.2139880" lon="-8.5611800">
        <ele>87.6</ele>
        <time>2021-03-20T11:09:05Z</time>
      </trkpt>
      <trkpt lat="41.2140220" lon="-8.5611010">
        <ele>87.2</ele>
        <time>2021-03-20T11:09:06Z</time>
      </trkpt>
      <trkpt lat="41.2140590" lon="-8.5610380">
        <ele>87.2</ele>
        <time>2021-03-20T11:09:07Z</time>
      </trkpt>
      <trkpt lat="41.2140930" lon="-8.5609780">
        <ele>86.4</ele>
        <time>2021-03-20T11:09:08Z</time>
      </trkpt>
      <trkpt lat="41.2141260" lon="-8.5609320">
        <ele>86.4</ele>
        <time>2021-03-20T11:09:09Z</time>
      </trkpt>
      <trkpt lat="41.2141610" lon="-8.5608600">
        <ele>86.4</ele>
        <time>2021-03-20T11:09:10Z</time>
      </trkpt>
      <trkpt lat="41.2141780" lon="-8.5608270">
        <ele>86.4</ele>
        <time>2021-03-20T11:09:11Z</time>
      </trkpt>
      <trkpt lat="41.2141950" lon="-8.5607930">
        <ele>86.2</ele>
        <time>2021-03-20T11:09:12Z</time>
      </trkpt>
      <trkpt lat="41.2142120" lon="-8.5607600">
        <ele>86.2</ele>
        <time>2021-03-20T11:09:13Z</time>
      </trkpt>
      <trkpt lat="41.2142290" lon="-8.5607270">
        <ele>86.0</ele>
        <time>2021-03-20T11:09:14Z</time>
      </trkpt>
      <trkpt lat="41.2142430" lon="-8.5606830">
        <ele>85.8</ele>
        <time>2021-03-20T11:09:15Z</time>
      </trkpt>
      <trkpt lat="41.2142590" lon="-8.5606700">
        <ele>85.8</ele>
        <time>2021-03-20T11:09:16Z</time>
      </trkpt>
      <trkpt lat="41.2142760" lon="-8.5606480">
        <ele>85.6</ele>
        <time>2021-03-20T11:09:17Z</time>
      </trkpt>
      <trkpt lat="41.2142990" lon="-8.5606090">
        <ele>85.6</ele>
        <time>2021-03-20T11:09:18Z</time>
      </trkpt>
      <trkpt lat="41.2143050" lon="-8.5605970">
        <ele>85.4</ele>
        <time>2021-03-20T11:09:19Z</time>
      </trkpt>
      <trkpt lat="41.2143090" lon="-8.5605880">
        <ele>85.2</ele>
        <time>2021-03-20T11:09:20Z</time>
      </trkpt>
      <trkpt lat="41.2143140" lon="-8.5605760">
        <ele>85.2</ele>
        <time>2021-03-20T11:09:21Z</time>
      </trkpt>
      <trkpt lat="41.2143230" lon="-8.5605340">
        <ele>85.0</ele>
        <time>2021-03-20T11:09:22Z</time>
      </trkpt>
      <trkpt lat="41.2143350" lon="-8.5605280">
        <ele>84.6</ele>
        <time>2021-03-20T11:09:23Z</time>
      </trkpt>
      <trkpt lat="41.2143360" lon="-8.5605390">
        <ele>84.2</ele>
        <time>2021-03-20T11:09:24Z</time>
      </trkpt>
      <trkpt lat="41.2143450" lon="-8.5605390">
        <ele>83.6</ele>
        <time>2021-03-20T11:09:25Z</time>
      </trkpt>
      <trkpt lat="41.2143630" lon="-8.5605100">
        <ele>83.0</ele>
        <time>2021-03-20T11:09:26Z</time>
      </trkpt>
      <trkpt lat="41.2143800" lon="-8.5604810">
        <ele>82.2</ele>
        <time>2021-03-20T11:09:27Z</time>
      </trkpt>
      <trkpt lat="41.2144170" lon="-8.5604340">
        <ele>81.8</ele>
        <time>2021-03-20T11:09:28Z</time>
      </trkpt>
      <trkpt lat="41.2144540" lon="-8.5603890">
        <ele>80.8</ele>
        <time>2021-03-20T11:09:29Z</time>
      </trkpt>
      <trkpt lat="41.2144960" lon="-8.5603430">
        <ele>80.6</ele>
        <time>2021-03-20T11:09:30Z</time>
      </trkpt>
      <trkpt lat="41.2145260" lon="-8.5603140">
        <ele>80.8</ele>
        <time>2021-03-20T11:09:31Z</time>
      </trkpt>
      <trkpt lat="41.2145830" lon="-8.5602790">
        <ele>80.2</ele>
        <time>2021-03-20T11:09:32Z</time>
      </trkpt>
      <trkpt lat="41.2146270" lon="-8.5602230">
        <ele>79.8</ele>
        <time>2021-03-20T11:09:33Z</time>
      </trkpt>
      <trkpt lat="41.2146760" lon="-8.5601570">
        <ele>79.4</ele>
        <time>2021-03-20T11:09:34Z</time>
      </trkpt>
      <trkpt lat="41.2147430" lon="-8.5600850">
        <ele>79.2</ele>
        <time>2021-03-20T11:09:35Z</time>
      </trkpt>
      <trkpt lat="41.2148070" lon="-8.5600210">
        <ele>79.0</ele>
        <time>2021-03-20T11:09:36Z</time>
      </trkpt>
      <trkpt lat="41.2148810" lon="-8.5599570">
        <ele>77.6</ele>
        <time>2021-03-20T11:09:37Z</time>
      </trkpt>
      <trkpt lat="41.2149750" lon="-8.5598950">
        <ele>77.2</ele>
        <time>2021-03-20T11:09:38Z</time>
      </trkpt>
      <trkpt lat="41.2150610" lon="-8.5598250">
        <ele>76.6</ele>
        <time>2021-03-20T11:09:39Z</time>
      </trkpt>
      <trkpt lat="41.2151300" lon="-8.5597790">
        <ele>76.4</ele>
        <time>2021-03-20T11:09:40Z</time>
      </trkpt>
      <trkpt lat="41.2151920" lon="-8.5597310">
        <ele>76.2</ele>
        <time>2021-03-20T11:09:41Z</time>
      </trkpt>
      <trkpt lat="41.2152660" lon="-8.5596570">
        <ele>76.0</ele>
        <time>2021-03-20T11:09:42Z</time>
      </trkpt>
      <trkpt lat="41.2153440" lon="-8.5596330">
        <ele>75.8</ele>
        <time>2021-03-20T11:09:43Z</time>
      </trkpt>
      <trkpt lat="41.2154230" lon="-8.5595740">
        <ele>75.4</ele>
        <time>2021-03-20T11:09:44Z</time>
      </trkpt>
      <trkpt lat="41.2156370" lon="-8.5594070">
        <ele>75.0</ele>
        <time>2021-03-20T11:09:45Z</time>
      </trkpt>
      <trkpt lat="41.2157780" lon="-8.5593110">
        <ele>74.6</ele>
        <time>2021-03-20T11:09:46Z</time>
      </trkpt>
      <trkpt lat="41.2160090" lon="-8.5591320">
        <ele>74.8</ele>
        <time>2021-03-20T11:09:47Z</time>
      </trkpt>
      <trkpt lat="41.2161360" lon="-8.5590400">
        <ele>74.6</ele>
        <time>2021-03-20T11:09:48Z</time>
      </trkpt>
      <trkpt lat="41.2162110" lon="-8.5589960">
        <ele>74.2</ele>
        <time>2021-03-20T11:09:49Z</time>
      </trkpt>
      <trkpt lat="41.2162890" lon="-8.5589540">
        <ele>74.0</ele>
        <time>2021-03-20T11:09:50Z</time>
      </trkpt>
      <trkpt lat="41.2163630" lon="-8.5589080">
        <ele>73.8</ele>
        <time>2021-03-20T11:09:51Z</time>
      </trkpt>
      <trkpt lat="41.2164410" lon="-8.5588770">
        <ele>74.0</ele>
        <time>2021-03-20T11:09:52Z</time>
      </trkpt>
      <trkpt lat="41.2165250" lon="-8.5588500">
        <ele>73.8</ele>
        <time>2021-03-20T11:09:53Z</time>
      </trkpt>
      <trkpt lat="41.2166070" lon="-8.5588280">
        <ele>73.2</ele>
        <time>2021-03-20T11:09:54Z</time>
      </trkpt>
      <trkpt lat="41.2166810" lon="-8.5588110">
        <ele>72.4</ele>
        <time>2021-03-20T11:09:55Z</time>
      </trkpt>
      <trkpt lat="41.2167700" lon="-8.5587970">
        <ele>72.4</ele>
        <time>2021-03-20T11:09:56Z</time>
      </trkpt>
      <trkpt lat="41.2168670" lon="-8.5587870">
        <ele>71.4</ele>
        <time>2021-03-20T11:09:57Z</time>
      </trkpt>
      <trkpt lat="41.2169630" lon="-8.5587810">
        <ele>70.6</ele>
        <time>2021-03-20T11:09:58Z</time>
      </trkpt>
      <trkpt lat="41.2170620" lon="-8.5587830">
        <ele>70.0</ele>
        <time>2021-03-20T11:09:59Z</time>
      </trkpt>
      <trkpt lat="41.2171470" lon="-8.5587740">
        <ele>69.2</ele>
        <time>2021-03-20T11:10:00Z</time>
      </trkpt>
      <trkpt lat="41.2172510" lon="-8.5587710">
        <ele>68.6</ele>
        <time>2021-03-20T11:10:01Z</time>
      </trkpt>
      <trkpt lat="41.2173550" lon="-8.5587510">
        <ele>68.4</ele>
        <time>2021-03-20T11:10:02Z</time>
      </trkpt>
      <trkpt lat="41.2174520" lon="-8.5587650">
        <ele>67.8</ele>
        <time>2021-03-20T11:10:03Z</time>
      </trkpt>
      <trkpt lat="41.2175560" lon="-8.5587710">
        <ele>67.6</ele>
        <time>2021-03-20T11:10:04Z</time>
      </trkpt>
      <trkpt lat="41.2176580" lon="-8.5587530">
        <ele>67.2</ele>
        <time>2021-03-20T11:10:05Z</time>
      </trkpt>
      <trkpt lat="41.2177270" lon="-8.5587650">
        <ele>66.8</ele>
        <time>2021-03-20T11:10:06Z</time>
      </trkpt>
      <trkpt lat="41.2178220" lon="-8.5587640">
        <ele>66.4</ele>
        <time>2021-03-20T11:10:07Z</time>
      </trkpt>
      <trkpt lat="41.2179050" lon="-8.5587640">
        <ele>66.0</ele>
        <time>2021-03-20T11:10:08Z</time>
      </trkpt>
      <trkpt lat="41.2180070" lon="-8.5587680">
        <ele>65.6</ele>
        <time>2021-03-20T11:10:09Z</time>
      </trkpt>
      <trkpt lat="41.2181170" lon="-8.5587580">
        <ele>65.2</ele>
        <time>2021-03-20T11:10:10Z</time>
      </trkpt>
      <trkpt lat="41.2181940" lon="-8.5587560">
        <ele>64.4</ele>
        <time>2021-03-20T11:10:11Z</time>
      </trkpt>
      <trkpt lat="41.2182920" lon="-8.5587560">
        <ele>63.8</ele>
        <time>2021-03-20T11:10:12Z</time>
      </trkpt>
      <trkpt lat="41.2183890" lon="-8.5587470">
        <ele>63.2</ele>
        <time>2021-03-20T11:10:13Z</time>
      </trkpt>
      <trkpt lat="41.2184810" lon="-8.5587480">
        <ele>62.2</ele>
        <time>2021-03-20T11:10:14Z</time>
      </trkpt>
      <trkpt lat="41.2186570" lon="-8.5587420">
        <ele>61.0</ele>
        <time>2021-03-20T11:10:15Z</time>
      </trkpt>
      <trkpt lat="41.2187640" lon="-8.5587430">
        <ele>60.4</ele>
        <time>2021-03-20T11:10:16Z</time>
      </trkpt>
      <trkpt lat="41.2188710" lon="-8.5587410">
        <ele>59.4</ele>
        <time>2021-03-20T11:10:17Z</time>
      </trkpt>
      <trkpt lat="41.2189800" lon="-8.5587440">
        <ele>59.0</ele>
        <time>2021-03-20T11:10:18Z</time>
      </trkpt>
      <trkpt lat="41.2190950" lon="-8.5587460">
        <ele>58.2</ele>
        <time>2021-03-20T11:10:19Z</time>
      </trkpt>
      <trkpt lat="41.2192100" lon="-8.5587470">
        <ele>57.6</ele>
        <time>2021-03-20T11:10:20Z</time>
      </trkpt>
      <trkpt lat="41.2192980" lon="-8.5587580">
        <ele>56.6</ele>
        <time>2021-03-20T11:10:21Z</time>
      </trkpt>
      <trkpt lat="41.2194150" lon="-8.5587370">
        <ele>56.0</ele>
        <time>2021-03-20T11:10:22Z</time>
      </trkpt>
      <trkpt lat="41.2195290" lon="-8.5587430">
        <ele>55.0</ele>
        <time>2021-03-20T11:10:23Z</time>
      </trkpt>
      <trkpt lat="41.2196440" lon="-8.5587440">
        <ele>54.4</ele>
        <time>2021-03-20T11:10:24Z</time>
      </trkpt>
      <trkpt lat="41.2197430" lon="-8.5587270">
        <ele>54.0</ele>
        <time>2021-03-20T11:10:25Z</time>
      </trkpt>
      <trkpt lat="41.2198340" lon="-8.5586930">
        <ele>53.4</ele>
        <time>2021-03-20T11:10:26Z</time>
      </trkpt>
      <trkpt lat="41.2198940" lon="-8.5586600">
        <ele>52.8</ele>
        <time>2021-03-20T11:10:27Z</time>
      </trkpt>
      <trkpt lat="41.2199600" lon="-8.5585970">
        <ele>52.2</ele>
        <time>2021-03-20T11:10:28Z</time>
      </trkpt>
      <trkpt lat="41.2200440" lon="-8.5585030">
        <ele>52.0</ele>
        <time>2021-03-20T11:10:29Z</time>
      </trkpt>
      <trkpt lat="41.2201090" lon="-8.5584780">
        <ele>52.0</ele>
        <time>2021-03-20T11:10:30Z</time>
      </trkpt>
      <trkpt lat="41.2202110" lon="-8.5583770">
        <ele>52.0</ele>
        <time>2021-03-20T11:10:31Z</time>
      </trkpt>
      <trkpt lat="41.2202580" lon="-8.5583830">
        <ele>51.8</ele>
        <time>2021-03-20T11:10:32Z</time>
      </trkpt>
      <trkpt lat="41.2203530" lon="-8.5584190">
        <ele>51.8</ele>
        <time>2021-03-20T11:10:33Z</time>
      </trkpt>
      <trkpt lat="41.2204320" lon="-8.5584550">
        <ele>52.0</ele>
        <time>2021-03-20T11:10:34Z</time>
      </trkpt>
      <trkpt lat="41.2204800" lon="-8.5584920">
        <ele>52.2</ele>
        <time>2021-03-20T11:10:35Z</time>
      </trkpt>
      <trkpt lat="41.2205310" lon="-8.5585210">
        <ele>52.2</ele>
        <time>2021-03-20T11:10:36Z</time>
      </trkpt>
      <trkpt lat="41.2205930" lon="-8.5585380">
        <ele>52.4</ele>
        <time>2021-03-20T11:10:37Z</time>
      </trkpt>
      <trkpt lat="41.2206720" lon="-8.5585490">
        <ele>52.4</ele>
        <time>2021-03-20T11:10:38Z</time>
      </trkpt>
      <trkpt lat="41.2207410" lon="-8.5585530">
        <ele>52.4</ele>
        <time>2021-03-20T11:10:39Z</time>
      </trkpt>
      <trkpt lat="41.2208010" lon="-8.5585350">
        <ele>52.4</ele>
        <time>2021-03-20T11:10:40Z</time>
      </trkpt>
      <trkpt lat="41.2208590" lon="-8.5585380">
        <ele>52.2</ele>
        <time>2021-03-20T11:10:41Z</time>
      </trkpt>
      <trkpt lat="41.2209090" lon="-8.5585230">
        <ele>51.8</ele>
        <time>2021-03-20T11:10:42Z</time>
      </trkpt>
      <trkpt lat="41.2209690" lon="-8.5585030">
        <ele>52.0</ele>
        <time>2021-03-20T11:10:43Z</time>
      </trkpt>
      <trkpt lat="41.2210400" lon="-8.5584700">
        <ele>52.2</ele>
        <time>2021-03-20T11:10:44Z</time>
      </trkpt>
      <trkpt lat="41.2211040" lon="-8.5584670">
        <ele>52.2</ele>
        <time>2021-03-20T11:10:45Z</time>
      </trkpt>
      <trkpt lat="41.2211740" lon="-8.5584380">
        <ele>52.4</ele>
        <time>2021-03-20T11:10:46Z</time>
      </trkpt>
      <trkpt lat="41.2212240" lon="-8.5584080">
        <ele>52.2</ele>
        <time>2021-03-20T11:10:47Z</time>
      </trkpt>
      <trkpt lat="41.2212950" lon="-8.5583700">
        <ele>52.4</ele>
        <time>2021-03-20T11:10:48Z</time>
      </trkpt>
      <trkpt lat="41.2213510" lon="-8.5583280">
        <ele>52.8</ele>
        <time>2021-03-20T11:10:49Z</time>
      </trkpt>
      <trkpt lat="41.2213890" lon="-8.5582900">
        <ele>53.2</ele>
        <time>2021-03-20T11:10:50Z</time>
      </trkpt>
      <trkpt lat="41.2214420" lon="-8.5582430">
        <ele>53.4</ele>
        <time>2021-03-20T11:10:51Z</time>
      </trkpt>
      <trkpt lat="41.2214900" lon="-8.5581840">
        <ele>53.8</ele>
        <time>2021-03-20T11:10:52Z</time>
      </trkpt>
      <trkpt lat="41.2215340" lon="-8.5581250">
        <ele>54.2</ele>
        <time>2021-03-20T11:10:53Z</time>
      </trkpt>
      <trkpt lat="41.2215680" lon="-8.5580750">
        <ele>54.6</ele>
        <time>2021-03-20T11:10:54Z</time>
      </trkpt>
      <trkpt lat="41.2215920" lon="-8.5580330">
        <ele>54.8</ele>
        <time>2021-03-20T11:10:55Z</time>
      </trkpt>
      <trkpt lat="41.2216260" lon="-8.5579800">
        <ele>55.0</ele>
        <time>2021-03-20T11:10:56Z</time>
      </trkpt>
      <trkpt lat="41.2216490" lon="-8.5579220">
        <ele>55.4</ele>
        <time>2021-03-20T11:10:57Z</time>
      </trkpt>
      <trkpt lat="41.2216840" lon="-8.5578570">
        <ele>56.0</ele>
        <time>2021-03-20T11:10:58Z</time>
      </trkpt>
      <trkpt lat="41.2217130" lon="-8.5577970">
        <ele>56.4</ele>
        <time>2021-03-20T11:10:59Z</time>
      </trkpt>
      <trkpt lat="41.2217290" lon="-8.5577620">
        <ele>56.4</ele>
        <time>2021-03-20T11:11:00Z</time>
      </trkpt>
      <trkpt lat="41.2217510" lon="-8.5576960">
        <ele>56.4</ele>
        <time>2021-03-20T11:11:01Z</time>
      </trkpt>
      <trkpt lat="41.2217840" lon="-8.5576440">
        <ele>56.4</ele>
        <time>2021-03-20T11:11:02Z</time>
      </trkpt>
      <trkpt lat="41.2218120" lon="-8.5575690">
        <ele>56.4</ele>
        <time>2021-03-20T11:11:03Z</time>
      </trkpt>
      <trkpt lat="41.2218340" lon="-8.5575030">
        <ele>56.8</ele>
        <time>2021-03-20T11:11:04Z</time>
      </trkpt>
      <trkpt lat="41.2218570" lon="-8.5574390">
        <ele>57.0</ele>
        <time>2021-03-20T11:11:05Z</time>
      </trkpt>
      <trkpt lat="41.2218710" lon="-8.5573920">
        <ele>57.4</ele>
        <time>2021-03-20T11:11:06Z</time>
      </trkpt>
      <trkpt lat="41.2218920" lon="-8.5573440">
        <ele>57.6</ele>
        <time>2021-03-20T11:11:07Z</time>
      </trkpt>
      <trkpt lat="41.2219180" lon="-8.5572930">
        <ele>57.8</ele>
        <time>2021-03-20T11:11:08Z</time>
      </trkpt>
      <trkpt lat="41.2219390" lon="-8.5572410">
        <ele>58.0</ele>
        <time>2021-03-20T11:11:09Z</time>
      </trkpt>
      <trkpt lat="41.2219570" lon="-8.5572030">
        <ele>58.2</ele>
        <time>2021-03-20T11:11:10Z</time>
      </trkpt>
      <trkpt lat="41.2219800" lon="-8.5571490">
        <ele>58.2</ele>
        <time>2021-03-20T11:11:11Z</time>
      </trkpt>
      <trkpt lat="41.2220060" lon="-8.5570970">
        <ele>58.0</ele>
        <time>2021-03-20T11:11:12Z</time>
      </trkpt>
      <trkpt lat="41.2220440" lon="-8.5570500">
        <ele>57.8</ele>
        <time>2021-03-20T11:11:13Z</time>
      </trkpt>
      <trkpt lat="41.2220910" lon="-8.5570030">
        <ele>57.4</ele>
        <time>2021-03-20T11:11:14Z</time>
      </trkpt>
      <trkpt lat="41.2221410" lon="-8.5569690">
        <ele>57.4</ele>
        <time>2021-03-20T11:11:15Z</time>
      </trkpt>
      <trkpt lat="41.2221860" lon="-8.5569330">
        <ele>57.2</ele>
        <time>2021-03-20T11:11:16Z</time>
      </trkpt>
      <trkpt lat="41.2222220" lon="-8.5568990">
        <ele>56.8</ele>
        <time>2021-03-20T11:11:17Z</time>
      </trkpt>
      <trkpt lat="41.2222610" lon="-8.5568640">
        <ele>56.8</ele>
        <time>2021-03-20T11:11:18Z</time>
      </trkpt>
      <trkpt lat="41.2223220" lon="-8.5568290">
        <ele>56.0</ele>
        <time>2021-03-20T11:11:19Z</time>
      </trkpt>
      <trkpt lat="41.2223780" lon="-8.5567970">
        <ele>55.4</ele>
        <time>2021-03-20T11:11:20Z</time>
      </trkpt>
      <trkpt lat="41.2224160" lon="-8.5567850">
        <ele>54.8</ele>
        <time>2021-03-20T11:11:21Z</time>
      </trkpt>
      <trkpt lat="41.2224820" lon="-8.5567490">
        <ele>54.6</ele>
        <time>2021-03-20T11:11:22Z</time>
      </trkpt>
      <trkpt lat="41.2225500" lon="-8.5567030">
        <ele>54.6</ele>
        <time>2021-03-20T11:11:23Z</time>
      </trkpt>
      <trkpt lat="41.2226120" lon="-8.5566590">
        <ele>54.6</ele>
        <time>2021-03-20T11:11:24Z</time>
      </trkpt>
      <trkpt lat="41.2226640" lon="-8.5566290">
        <ele>54.4</ele>
        <time>2021-03-20T11:11:25Z</time>
      </trkpt>
      <trkpt lat="41.2227160" lon="-8.5565930">
        <ele>54.4</ele>
        <time>2021-03-20T11:11:26Z</time>
      </trkpt>
      <trkpt lat="41.2227590" lon="-8.5565780">
        <ele>54.4</ele>
        <time>2021-03-20T11:11:27Z</time>
      </trkpt>
      <trkpt lat="41.2228170" lon="-8.5565400">
        <ele>54.2</ele>
        <time>2021-03-20T11:11:28Z</time>
      </trkpt>
      <trkpt lat="41.2228730" lon="-8.5564880">
        <ele>54.0</ele>
        <time>2021-03-20T11:11:29Z</time>
      </trkpt>
      <trkpt lat="41.2229340" lon="-8.5564370">
        <ele>54.0</ele>
        <time>2021-03-20T11:11:30Z</time>
      </trkpt>
      <trkpt lat="41.2230080" lon="-8.5564040">
        <ele>54.0</ele>
        <time>2021-03-20T11:11:31Z</time>
      </trkpt>
      <trkpt lat="41.2230650" lon="-8.5563800">
        <ele>53.8</ele>
        <time>2021-03-20T11:11:32Z</time>
      </trkpt>
      <trkpt lat="41.2231450" lon="-8.5563390">
        <ele>53.6</ele>
        <time>2021-03-20T11:11:33Z</time>
      </trkpt>
      <trkpt lat="41.2232140" lon="-8.5562910">
        <ele>53.2</ele>
        <time>2021-03-20T11:11:34Z</time>
      </trkpt>
      <trkpt lat="41.2232810" lon="-8.5562520">
        <ele>52.8</ele>
        <time>2021-03-20T11:11:35Z</time>
      </trkpt>
      <trkpt lat="41.2233370" lon="-8.5562360">
        <ele>52.4</ele>
        <time>2021-03-20T11:11:36Z</time>
      </trkpt>
      <trkpt lat="41.2234190" lon="-8.5561590">
        <ele>52.2</ele>
        <time>2021-03-20T11:11:37Z</time>
      </trkpt>
      <trkpt lat="41.2234770" lon="-8.5561390">
        <ele>52.0</ele>
        <time>2021-03-20T11:11:38Z</time>
      </trkpt>
      <trkpt lat="41.2235520" lon="-8.5561020">
        <ele>51.8</ele>
        <time>2021-03-20T11:11:39Z</time>
      </trkpt>
      <trkpt lat="41.2236240" lon="-8.5560700">
        <ele>51.8</ele>
        <time>2021-03-20T11:11:40Z</time>
      </trkpt>
      <trkpt lat="41.2236890" lon="-8.5560140">
        <ele>51.6</ele>
        <time>2021-03-20T11:11:41Z</time>
      </trkpt>
      <trkpt lat="41.2237440" lon="-8.5559720">
        <ele>51.2</ele>
        <time>2021-03-20T11:11:42Z</time>
      </trkpt>
      <trkpt lat="41.2237980" lon="-8.5559440">
        <ele>51.2</ele>
        <time>2021-03-20T11:11:43Z</time>
      </trkpt>
      <trkpt lat="41.2238740" lon="-8.5558550">
        <ele>51.0</ele>
        <time>2021-03-20T11:11:44Z</time>
      </trkpt>
      <trkpt lat="41.2240100" lon="-8.5557270">
        <ele>51.0</ele>
        <time>2021-03-20T11:11:45Z</time>
      </trkpt>
      <trkpt lat="41.2242560" lon="-8.5554640">
        <ele>51.0</ele>
        <time>2021-03-20T11:11:46Z</time>
      </trkpt>
      <trkpt lat="41.2242560" lon="-8.5554640">
        <ele>50.8</ele>
        <time>2021-03-20T11:11:47Z</time>
      </trkpt>
      <trkpt lat="41.2243720" lon="-8.5553320">
        <ele>50.4</ele>
        <time>2021-03-20T11:11:48Z</time>
      </trkpt>
      <trkpt lat="41.2244350" lon="-8.5552710">
        <ele>50.6</ele>
        <time>2021-03-20T11:11:49Z</time>
      </trkpt>
      <trkpt lat="41.2244950" lon="-8.5552050">
        <ele>50.4</ele>
        <time>2021-03-20T11:11:50Z</time>
      </trkpt>
      <trkpt lat="41.2244950" lon="-8.5552050">
        <ele>50.2</ele>
        <time>2021-03-20T11:11:51Z</time>
      </trkpt>
      <trkpt lat="41.2246030" lon="-8.5550770">
        <ele>50.4</ele>
        <time>2021-03-20T11:11:52Z</time>
      </trkpt>
      <trkpt lat="41.2246480" lon="-8.5550120">
        <ele>50.8</ele>
        <time>2021-03-20T11:11:53Z</time>
      </trkpt>
      <trkpt lat="41.2247080" lon="-8.5549600">
        <ele>50.6</ele>
        <time>2021-03-20T11:11:54Z</time>
      </trkpt>
      <trkpt lat="41.2247670" lon="-8.5549020">
        <ele>50.8</ele>
        <time>2021-03-20T11:11:55Z</time>
      </trkpt>
      <trkpt lat="41.2248170" lon="-8.5548460">
        <ele>51.8</ele>
        <time>2021-03-20T11:11:56Z</time>
      </trkpt>
      <trkpt lat="41.2248630" lon="-8.5547920">
        <ele>51.6</ele>
        <time>2021-03-20T11:11:57Z</time>
      </trkpt>
      <trkpt lat="41.2249100" lon="-8.5547410">
        <ele>51.4</ele>
        <time>2021-03-20T11:11:58Z</time>
      </trkpt>
      <trkpt lat="41.2249580" lon="-8.5546800">
        <ele>51.4</ele>
        <time>2021-03-20T11:11:59Z</time>
      </trkpt>
      <trkpt lat="41.2249940" lon="-8.5546400">
        <ele>51.2</ele>
        <time>2021-03-20T11:12:00Z</time>
      </trkpt>
      <trkpt lat="41.2250410" lon="-8.5546250">
        <ele>51.2</ele>
        <time>2021-03-20T11:12:01Z</time>
      </trkpt>
      <trkpt lat="41.2250890" lon="-8.5545580">
        <ele>51.2</ele>
        <time>2021-03-20T11:12:02Z</time>
      </trkpt>
      <trkpt lat="41.2251290" lon="-8.5545110">
        <ele>51.2</ele>
        <time>2021-03-20T11:12:03Z</time>
      </trkpt>
      <trkpt lat="41.2251790" lon="-8.5544630">
        <ele>51.2</ele>
        <time>2021-03-20T11:12:04Z</time>
      </trkpt>
      <trkpt lat="41.2252350" lon="-8.5544090">
        <ele>51.2</ele>
        <time>2021-03-20T11:12:05Z</time>
      </trkpt>
      <trkpt lat="41.2252840" lon="-8.5543560">
        <ele>51.2</ele>
        <time>2021-03-20T11:12:06Z</time>
      </trkpt>
      <trkpt lat="41.2253370" lon="-8.5542990">
        <ele>51.2</ele>
        <time>2021-03-20T11:12:07Z</time>
      </trkpt>
      <trkpt lat="41.2253760" lon="-8.5542660">
        <ele>51.4</ele>
        <time>2021-03-20T11:12:08Z</time>
      </trkpt>
      <trkpt lat="41.2254290" lon="-8.5542120">
        <ele>51.8</ele>
        <time>2021-03-20T11:12:09Z</time>
      </trkpt>
      <trkpt lat="41.2254790" lon="-8.5541660">
        <ele>51.4</ele>
        <time>2021-03-20T11:12:10Z</time>
      </trkpt>
      <trkpt lat="41.2255280" lon="-8.5541220">
        <ele>51.2</ele>
        <time>2021-03-20T11:12:11Z</time>
      </trkpt>
      <trkpt lat="41.2255890" lon="-8.5540810">
        <ele>51.4</ele>
        <time>2021-03-20T11:12:12Z</time>
      </trkpt>
      <trkpt lat="41.2256330" lon="-8.5540580">
        <ele>51.6</ele>
        <time>2021-03-20T11:12:13Z</time>
      </trkpt>
      <trkpt lat="41.2256880" lon="-8.5540220">
        <ele>52.4</ele>
        <time>2021-03-20T11:12:14Z</time>
      </trkpt>
      <trkpt lat="41.2257410" lon="-8.5540030">
        <ele>52.4</ele>
        <time>2021-03-20T11:12:15Z</time>
      </trkpt>
      <trkpt lat="41.2257970" lon="-8.5539870">
        <ele>52.4</ele>
        <time>2021-03-20T11:12:16Z</time>
      </trkpt>
      <trkpt lat="41.2258440" lon="-8.5539720">
        <ele>52.6</ele>
        <time>2021-03-20T11:12:17Z</time>
      </trkpt>
      <trkpt lat="41.2258790" lon="-8.5539590">
        <ele>52.6</ele>
        <time>2021-03-20T11:12:18Z</time>
      </trkpt>
      <trkpt lat="41.2259350" lon="-8.5539520">
        <ele>52.6</ele>
        <time>2021-03-20T11:12:19Z</time>
      </trkpt>
      <trkpt lat="41.2259890" lon="-8.5539510">
        <ele>52.8</ele>
        <time>2021-03-20T11:12:20Z</time>
      </trkpt>
      <trkpt lat="41.2260370" lon="-8.5539500">
        <ele>52.8</ele>
        <time>2021-03-20T11:12:21Z</time>
      </trkpt>
      <trkpt lat="41.2260920" lon="-8.5539480">
        <ele>52.6</ele>
        <time>2021-03-20T11:12:22Z</time>
      </trkpt>
      <trkpt lat="41.2261310" lon="-8.5539330">
        <ele>53.0</ele>
        <time>2021-03-20T11:12:23Z</time>
      </trkpt>
      <trkpt lat="41.2261810" lon="-8.5539310">
        <ele>53.2</ele>
        <time>2021-03-20T11:12:24Z</time>
      </trkpt>
      <trkpt lat="41.2262300" lon="-8.5539270">
        <ele>53.2</ele>
        <time>2021-03-20T11:12:25Z</time>
      </trkpt>
      <trkpt lat="41.2262860" lon="-8.5539310">
        <ele>53.4</ele>
        <time>2021-03-20T11:12:26Z</time>
      </trkpt>
      <trkpt lat="41.2263420" lon="-8.5539350">
        <ele>53.4</ele>
        <time>2021-03-20T11:12:27Z</time>
      </trkpt>
      <trkpt lat="41.2263860" lon="-8.5539300">
        <ele>53.2</ele>
        <time>2021-03-20T11:12:28Z</time>
      </trkpt>
      <trkpt lat="41.2264370" lon="-8.5539310">
        <ele>53.4</ele>
        <time>2021-03-20T11:12:29Z</time>
      </trkpt>
      <trkpt lat="41.2264920" lon="-8.5539380">
        <ele>53.4</ele>
        <time>2021-03-20T11:12:30Z</time>
      </trkpt>
      <trkpt lat="41.2265540" lon="-8.5539390">
        <ele>53.6</ele>
        <time>2021-03-20T11:12:31Z</time>
      </trkpt>
      <trkpt lat="41.2265950" lon="-8.5539400">
        <ele>53.8</ele>
        <time>2021-03-20T11:12:32Z</time>
      </trkpt>
      <trkpt lat="41.2266500" lon="-8.5539410">
        <ele>53.8</ele>
        <time>2021-03-20T11:12:33Z</time>
      </trkpt>
      <trkpt lat="41.2267090" lon="-8.5539500">
        <ele>53.8</ele>
        <time>2021-03-20T11:12:34Z</time>
      </trkpt>
      <trkpt lat="41.2267620" lon="-8.5539520">
        <ele>54.0</ele>
        <time>2021-03-20T11:12:35Z</time>
      </trkpt>
      <trkpt lat="41.2268170" lon="-8.5539580">
        <ele>54.0</ele>
        <time>2021-03-20T11:12:36Z</time>
      </trkpt>
      <trkpt lat="41.2268540" lon="-8.5539620">
        <ele>54.2</ele>
        <time>2021-03-20T11:12:37Z</time>
      </trkpt>
      <trkpt lat="41.2269120" lon="-8.5539670">
        <ele>54.2</ele>
        <time>2021-03-20T11:12:38Z</time>
      </trkpt>
      <trkpt lat="41.2269710" lon="-8.5539690">
        <ele>54.4</ele>
        <time>2021-03-20T11:12:39Z</time>
      </trkpt>
      <trkpt lat="41.2271350" lon="-8.5539780">
        <ele>54.6</ele>
        <time>2021-03-20T11:12:40Z</time>
      </trkpt>
      <trkpt lat="41.2271910" lon="-8.5539830">
        <ele>54.6</ele>
        <time>2021-03-20T11:12:41Z</time>
      </trkpt>
      <trkpt lat="41.2272470" lon="-8.5539840">
        <ele>54.8</ele>
        <time>2021-03-20T11:12:42Z</time>
      </trkpt>
      <trkpt lat="41.2273030" lon="-8.5539920">
        <ele>55.0</ele>
        <time>2021-03-20T11:12:43Z</time>
      </trkpt>
      <trkpt lat="41.2273450" lon="-8.5539960">
        <ele>55.0</ele>
        <time>2021-03-20T11:12:44Z</time>
      </trkpt>
      <trkpt lat="41.2274060" lon="-8.5539980">
        <ele>55.2</ele>
        <time>2021-03-20T11:12:45Z</time>
      </trkpt>
      <trkpt lat="41.2274660" lon="-8.5540020">
        <ele>55.2</ele>
        <time>2021-03-20T11:12:46Z</time>
      </trkpt>
      <trkpt lat="41.2275020" lon="-8.5540010">
        <ele>55.2</ele>
        <time>2021-03-20T11:12:47Z</time>
      </trkpt>
      <trkpt lat="41.2275630" lon="-8.5540030">
        <ele>55.2</ele>
        <time>2021-03-20T11:12:48Z</time>
      </trkpt>
      <trkpt lat="41.2276220" lon="-8.5540070">
        <ele>55.4</ele>
        <time>2021-03-20T11:12:49Z</time>
      </trkpt>
      <trkpt lat="41.2276820" lon="-8.5540100">
        <ele>55.6</ele>
        <time>2021-03-20T11:12:50Z</time>
      </trkpt>
      <trkpt lat="41.2277240" lon="-8.5540120">
        <ele>55.8</ele>
        <time>2021-03-20T11:12:51Z</time>
      </trkpt>
      <trkpt lat="41.2277740" lon="-8.5540180">
        <ele>56.0</ele>
        <time>2021-03-20T11:12:52Z</time>
      </trkpt>
      <trkpt lat="41.2278210" lon="-8.5540260">
        <ele>55.8</ele>
        <time>2021-03-20T11:12:53Z</time>
      </trkpt>
      <trkpt lat="41.2278750" lon="-8.5540280">
        <ele>56.0</ele>
        <time>2021-03-20T11:12:54Z</time>
      </trkpt>
      <trkpt lat="41.2279190" lon="-8.5540250">
        <ele>56.0</ele>
        <time>2021-03-20T11:12:55Z</time>
      </trkpt>
      <trkpt lat="41.2279760" lon="-8.5540260">
        <ele>56.0</ele>
        <time>2021-03-20T11:12:56Z</time>
      </trkpt>
      <trkpt lat="41.2280300" lon="-8.5540270">
        <ele>56.4</ele>
        <time>2021-03-20T11:12:57Z</time>
      </trkpt>
      <trkpt lat="41.2280830" lon="-8.5540250">
        <ele>56.4</ele>
        <time>2021-03-20T11:12:58Z</time>
      </trkpt>
      <trkpt lat="41.2281210" lon="-8.5540220">
        <ele>56.4</ele>
        <time>2021-03-20T11:12:59Z</time>
      </trkpt>
      <trkpt lat="41.2281790" lon="-8.5540280">
        <ele>56.8</ele>
        <time>2021-03-20T11:13:00Z</time>
      </trkpt>
      <trkpt lat="41.2282390" lon="-8.5540330">
        <ele>56.8</ele>
        <time>2021-03-20T11:13:01Z</time>
      </trkpt>
      <trkpt lat="41.2283090" lon="-8.5540370">
        <ele>57.0</ele>
        <time>2021-03-20T11:13:02Z</time>
      </trkpt>
      <trkpt lat="41.2284180" lon="-8.5540450">
        <ele>57.2</ele>
        <time>2021-03-20T11:13:03Z</time>
      </trkpt>
      <trkpt lat="41.2284710" lon="-8.5540500">
        <ele>57.2</ele>
        <time>2021-03-20T11:13:04Z</time>
      </trkpt>
      <trkpt lat="41.2285290" lon="-8.5540520">
        <ele>57.4</ele>
        <time>2021-03-20T11:13:05Z</time>
      </trkpt>
      <trkpt lat="41.2285860" lon="-8.5540590">
        <ele>57.4</ele>
        <time>2021-03-20T11:13:06Z</time>
      </trkpt>
      <trkpt lat="41.2286420" lon="-8.5540650">
        <ele>57.6</ele>
        <time>2021-03-20T11:13:07Z</time>
      </trkpt>
      <trkpt lat="41.2286980" lon="-8.5540710">
        <ele>57.6</ele>
        <time>2021-03-20T11:13:08Z</time>
      </trkpt>
      <trkpt lat="41.2287560" lon="-8.5540750">
        <ele>57.8</ele>
        <time>2021-03-20T11:13:09Z</time>
      </trkpt>
      <trkpt lat="41.2288070" lon="-8.5540790">
        <ele>58.0</ele>
        <time>2021-03-20T11:13:10Z</time>
      </trkpt>
      <trkpt lat="41.2288630" lon="-8.5540830">
        <ele>58.0</ele>
        <time>2021-03-20T11:13:11Z</time>
      </trkpt>
      <trkpt lat="41.2289130" lon="-8.5540890">
        <ele>58.2</ele>
        <time>2021-03-20T11:13:12Z</time>
      </trkpt>
      <trkpt lat="41.2289580" lon="-8.5540960">
        <ele>58.4</ele>
        <time>2021-03-20T11:13:13Z</time>
      </trkpt>
      <trkpt lat="41.2290140" lon="-8.5541030">
        <ele>58.2</ele>
        <time>2021-03-20T11:13:14Z</time>
      </trkpt>
      <trkpt lat="41.2290710" lon="-8.5541090">
        <ele>58.6</ele>
        <time>2021-03-20T11:13:15Z</time>
      </trkpt>
      <trkpt lat="41.2291270" lon="-8.5541120">
        <ele>58.8</ele>
        <time>2021-03-20T11:13:16Z</time>
      </trkpt>
      <trkpt lat="41.2291830" lon="-8.5541170">
        <ele>59.0</ele>
        <time>2021-03-20T11:13:17Z</time>
      </trkpt>
      <trkpt lat="41.2292380" lon="-8.5541220">
        <ele>59.0</ele>
        <time>2021-03-20T11:13:18Z</time>
      </trkpt>
      <trkpt lat="41.2292800" lon="-8.5541260">
        <ele>59.2</ele>
        <time>2021-03-20T11:13:19Z</time>
      </trkpt>
      <trkpt lat="41.2293220" lon="-8.5541270">
        <ele>59.2</ele>
        <time>2021-03-20T11:13:20Z</time>
      </trkpt>
      <trkpt lat="41.2293740" lon="-8.5541300">
        <ele>59.2</ele>
        <time>2021-03-20T11:13:21Z</time>
      </trkpt>
      <trkpt lat="41.2294300" lon="-8.5541340">
        <ele>59.2</ele>
        <time>2021-03-20T11:13:22Z</time>
      </trkpt>
      <trkpt lat="41.2294850" lon="-8.5541390">
        <ele>59.4</ele>
        <time>2021-03-20T11:13:23Z</time>
      </trkpt>
      <trkpt lat="41.2295410" lon="-8.5541450">
        <ele>59.6</ele>
        <time>2021-03-20T11:13:24Z</time>
      </trkpt>
      <trkpt lat="41.2296020" lon="-8.5541530">
        <ele>59.8</ele>
        <time>2021-03-20T11:13:25Z</time>
      </trkpt>
      <trkpt lat="41.2296620" lon="-8.5541600">
        <ele>59.8</ele>
        <time>2021-03-20T11:13:26Z</time>
      </trkpt>
      <trkpt lat="41.2297070" lon="-8.5541680">
        <ele>60.0</ele>
        <time>2021-03-20T11:13:27Z</time>
      </trkpt>
      <trkpt lat="41.2297730" lon="-8.5541750">
        <ele>60.2</ele>
        <time>2021-03-20T11:13:28Z</time>
      </trkpt>
      <trkpt lat="41.2298370" lon="-8.5541790">
        <ele>60.6</ele>
        <time>2021-03-20T11:13:29Z</time>
      </trkpt>
      <trkpt lat="41.2298940" lon="-8.5541830">
        <ele>60.8</ele>
        <time>2021-03-20T11:13:30Z</time>
      </trkpt>
      <trkpt lat="41.2299400" lon="-8.5541940">
        <ele>61.0</ele>
        <time>2021-03-20T11:13:31Z</time>
      </trkpt>
      <trkpt lat="41.2300010" lon="-8.5542040">
        <ele>61.2</ele>
        <time>2021-03-20T11:13:32Z</time>
      </trkpt>
      <trkpt lat="41.2300610" lon="-8.5542070">
        <ele>61.2</ele>
        <time>2021-03-20T11:13:33Z</time>
      </trkpt>
      <trkpt lat="41.2301210" lon="-8.5542110">
        <ele>61.4</ele>
        <time>2021-03-20T11:13:34Z</time>
      </trkpt>
      <trkpt lat="41.2301650" lon="-8.5542130">
        <ele>61.6</ele>
        <time>2021-03-20T11:13:35Z</time>
      </trkpt>
      <trkpt lat="41.2302260" lon="-8.5542170">
        <ele>61.6</ele>
        <time>2021-03-20T11:13:36Z</time>
      </trkpt>
      <trkpt lat="41.2302860" lon="-8.5542200">
        <ele>61.8</ele>
        <time>2021-03-20T11:13:37Z</time>
      </trkpt>
      <trkpt lat="41.2303420" lon="-8.5542250">
        <ele>62.0</ele>
        <time>2021-03-20T11:13:38Z</time>
      </trkpt>
      <trkpt lat="41.2303840" lon="-8.5542270">
        <ele>62.4</ele>
        <time>2021-03-20T11:13:39Z</time>
      </trkpt>
      <trkpt lat="41.2304390" lon="-8.5542290">
        <ele>62.6</ele>
        <time>2021-03-20T11:13:40Z</time>
      </trkpt>
      <trkpt lat="41.2304930" lon="-8.5542260">
        <ele>63.0</ele>
        <time>2021-03-20T11:13:41Z</time>
      </trkpt>
      <trkpt lat="41.2305490" lon="-8.5542220">
        <ele>63.0</ele>
        <time>2021-03-20T11:13:42Z</time>
      </trkpt>
      <trkpt lat="41.2306030" lon="-8.5542230">
        <ele>63.0</ele>
        <time>2021-03-20T11:13:43Z</time>
      </trkpt>
      <trkpt lat="41.2306440" lon="-8.5542170">
        <ele>63.4</ele>
        <time>2021-03-20T11:13:44Z</time>
      </trkpt>
      <trkpt lat="41.2306940" lon="-8.5542110">
        <ele>63.6</ele>
        <time>2021-03-20T11:13:45Z</time>
      </trkpt>
      <trkpt lat="41.2307430" lon="-8.5542080">
        <ele>63.8</ele>
        <time>2021-03-20T11:13:46Z</time>
      </trkpt>
      <trkpt lat="41.2307820" lon="-8.5542020">
        <ele>64.0</ele>
        <time>2021-03-20T11:13:47Z</time>
      </trkpt>
      <trkpt lat="41.2308290" lon="-8.5541890">
        <ele>64.4</ele>
        <time>2021-03-20T11:13:48Z</time>
      </trkpt>
      <trkpt lat="41.2308740" lon="-8.5541770">
        <ele>64.6</ele>
        <time>2021-03-20T11:13:49Z</time>
      </trkpt>
      <trkpt lat="41.2309210" lon="-8.5541670">
        <ele>64.6</ele>
        <time>2021-03-20T11:13:50Z</time>
      </trkpt>
      <trkpt lat="41.2309540" lon="-8.5541570">
        <ele>64.6</ele>
        <time>2021-03-20T11:13:51Z</time>
      </trkpt>
      <trkpt lat="41.2310010" lon="-8.5541460">
        <ele>64.8</ele>
        <time>2021-03-20T11:13:52Z</time>
      </trkpt>
      <trkpt lat="41.2310470" lon="-8.5541360">
        <ele>65.2</ele>
        <time>2021-03-20T11:13:53Z</time>
      </trkpt>
      <trkpt lat="41.2310890" lon="-8.5541180">
        <ele>65.4</ele>
        <time>2021-03-20T11:13:54Z</time>
      </trkpt>
      <trkpt lat="41.2311220" lon="-8.5541090">
        <ele>65.8</ele>
        <time>2021-03-20T11:13:55Z</time>
      </trkpt>
      <trkpt lat="41.2311650" lon="-8.5540900">
        <ele>66.0</ele>
        <time>2021-03-20T11:13:56Z</time>
      </trkpt>
      <trkpt lat="41.2312120" lon="-8.5540730">
        <ele>66.4</ele>
        <time>2021-03-20T11:13:57Z</time>
      </trkpt>
      <trkpt lat="41.2312580" lon="-8.5540530">
        <ele>66.6</ele>
        <time>2021-03-20T11:13:58Z</time>
      </trkpt>
      <trkpt lat="41.2312910" lon="-8.5540380">
        <ele>66.6</ele>
        <time>2021-03-20T11:13:59Z</time>
      </trkpt>
      <trkpt lat="41.2313370" lon="-8.5540210">
        <ele>66.8</ele>
        <time>2021-03-20T11:14:00Z</time>
      </trkpt>
      <trkpt lat="41.2313780" lon="-8.5539990">
        <ele>67.0</ele>
        <time>2021-03-20T11:14:01Z</time>
      </trkpt>
      <trkpt lat="41.2314250" lon="-8.5539780">
        <ele>67.4</ele>
        <time>2021-03-20T11:14:02Z</time>
      </trkpt>
      <trkpt lat="41.2314560" lon="-8.5539610">
        <ele>67.6</ele>
        <time>2021-03-20T11:14:03Z</time>
      </trkpt>
      <trkpt lat="41.2314990" lon="-8.5539360">
        <ele>67.8</ele>
        <time>2021-03-20T11:14:04Z</time>
      </trkpt>
      <trkpt lat="41.2315430" lon="-8.5539130">
        <ele>68.2</ele>
        <time>2021-03-20T11:14:05Z</time>
      </trkpt>
      <trkpt lat="41.2315860" lon="-8.5538910">
        <ele>68.2</ele>
        <time>2021-03-20T11:14:06Z</time>
      </trkpt>
      <trkpt lat="41.2316170" lon="-8.5538720">
        <ele>68.6</ele>
        <time>2021-03-20T11:14:07Z</time>
      </trkpt>
      <trkpt lat="41.2316560" lon="-8.5538500">
        <ele>68.8</ele>
        <time>2021-03-20T11:14:08Z</time>
      </trkpt>
      <trkpt lat="41.2316960" lon="-8.5538240">
        <ele>69.0</ele>
        <time>2021-03-20T11:14:09Z</time>
      </trkpt>
      <trkpt lat="41.2317330" lon="-8.5537980">
        <ele>68.8</ele>
        <time>2021-03-20T11:14:10Z</time>
      </trkpt>
      <trkpt lat="41.2317590" lon="-8.5537750">
        <ele>68.8</ele>
        <time>2021-03-20T11:14:11Z</time>
      </trkpt>
      <trkpt lat="41.2317980" lon="-8.5537480">
        <ele>69.0</ele>
        <time>2021-03-20T11:14:12Z</time>
      </trkpt>
      <trkpt lat="41.2318370" lon="-8.5537190">
        <ele>69.6</ele>
        <time>2021-03-20T11:14:13Z</time>
      </trkpt>
      <trkpt lat="41.2318690" lon="-8.5536930">
        <ele>70.0</ele>
        <time>2021-03-20T11:14:14Z</time>
      </trkpt>
      <trkpt lat="41.2318940" lon="-8.5536680">
        <ele>70.2</ele>
        <time>2021-03-20T11:14:15Z</time>
      </trkpt>
      <trkpt lat="41.2319240" lon="-8.5536370">
        <ele>70.4</ele>
        <time>2021-03-20T11:14:16Z</time>
      </trkpt>
      <trkpt lat="41.2319630" lon="-8.5536050">
        <ele>70.6</ele>
        <time>2021-03-20T11:14:17Z</time>
      </trkpt>
      <trkpt lat="41.2319940" lon="-8.5535760">
        <ele>71.0</ele>
        <time>2021-03-20T11:14:18Z</time>
      </trkpt>
      <trkpt lat="41.2320200" lon="-8.5535520">
        <ele>71.0</ele>
        <time>2021-03-20T11:14:19Z</time>
      </trkpt>
      <trkpt lat="41.2320580" lon="-8.5535150">
        <ele>71.2</ele>
        <time>2021-03-20T11:14:20Z</time>
      </trkpt>
      <trkpt lat="41.2320950" lon="-8.5534790">
        <ele>71.4</ele>
        <time>2021-03-20T11:14:21Z</time>
      </trkpt>
      <trkpt lat="41.2321170" lon="-8.5534510">
        <ele>71.4</ele>
        <time>2021-03-20T11:14:22Z</time>
      </trkpt>
      <trkpt lat="41.2321470" lon="-8.5534200">
        <ele>71.4</ele>
        <time>2021-03-20T11:14:23Z</time>
      </trkpt>
      <trkpt lat="41.2321810" lon="-8.5533840">
        <ele>72.0</ele>
        <time>2021-03-20T11:14:24Z</time>
      </trkpt>
      <trkpt lat="41.2322130" lon="-8.5533460">
        <ele>72.0</ele>
        <time>2021-03-20T11:14:25Z</time>
      </trkpt>
      <trkpt lat="41.2322360" lon="-8.5533130">
        <ele>72.6</ele>
        <time>2021-03-20T11:14:26Z</time>
      </trkpt>
      <trkpt lat="41.2322660" lon="-8.5532720">
        <ele>72.6</ele>
        <time>2021-03-20T11:14:27Z</time>
      </trkpt>
      <trkpt lat="41.2322980" lon="-8.5532290">
        <ele>72.8</ele>
        <time>2021-03-20T11:14:28Z</time>
      </trkpt>
      <trkpt lat="41.2323280" lon="-8.5531880">
        <ele>73.0</ele>
        <time>2021-03-20T11:14:29Z</time>
      </trkpt>
      <trkpt lat="41.2323490" lon="-8.5531580">
        <ele>73.0</ele>
        <time>2021-03-20T11:14:30Z</time>
      </trkpt>
      <trkpt lat="41.2323810" lon="-8.5531150">
        <ele>73.2</ele>
        <time>2021-03-20T11:14:31Z</time>
      </trkpt>
      <trkpt lat="41.2324110" lon="-8.5530750">
        <ele>73.2</ele>
        <time>2021-03-20T11:14:32Z</time>
      </trkpt>
      <trkpt lat="41.2324410" lon="-8.5530340">
        <ele>73.2</ele>
        <time>2021-03-20T11:14:33Z</time>
      </trkpt>
      <trkpt lat="41.2324710" lon="-8.5529870">
        <ele>73.4</ele>
        <time>2021-03-20T11:14:34Z</time>
      </trkpt>
      <trkpt lat="41.2324910" lon="-8.5529530">
        <ele>73.4</ele>
        <time>2021-03-20T11:14:35Z</time>
      </trkpt>
      <trkpt lat="41.2325210" lon="-8.5529120">
        <ele>73.2</ele>
        <time>2021-03-20T11:14:36Z</time>
      </trkpt>
      <trkpt lat="41.2325490" lon="-8.5528650">
        <ele>73.6</ele>
        <time>2021-03-20T11:14:37Z</time>
      </trkpt>
      <trkpt lat="41.2325820" lon="-8.5528150">
        <ele>73.4</ele>
        <time>2021-03-20T11:14:38Z</time>
      </trkpt>
      <trkpt lat="41.2326010" lon="-8.5527800">
        <ele>73.4</ele>
        <time>2021-03-20T11:14:39Z</time>
      </trkpt>
      <trkpt lat="41.2326280" lon="-8.5527310">
        <ele>73.6</ele>
        <time>2021-03-20T11:14:40Z</time>
      </trkpt>
      <trkpt lat="41.2326560" lon="-8.5526760">
        <ele>73.6</ele>
        <time>2021-03-20T11:14:41Z</time>
      </trkpt>
      <trkpt lat="41.2326800" lon="-8.5526210">
        <ele>73.4</ele>
        <time>2021-03-20T11:14:42Z</time>
      </trkpt>
      <trkpt lat="41.2326990" lon="-8.5525820">
        <ele>73.4</ele>
        <time>2021-03-20T11:14:43Z</time>
      </trkpt>
      <trkpt lat="41.2327280" lon="-8.5525320">
        <ele>73.6</ele>
        <time>2021-03-20T11:14:44Z</time>
      </trkpt>
      <trkpt lat="41.2327540" lon="-8.5524800">
        <ele>73.2</ele>
        <time>2021-03-20T11:14:45Z</time>
      </trkpt>
      <trkpt lat="41.2327800" lon="-8.5524260">
        <ele>73.4</ele>
        <time>2021-03-20T11:14:46Z</time>
      </trkpt>
      <trkpt lat="41.2327960" lon="-8.5523810">
        <ele>74.0</ele>
        <time>2021-03-20T11:14:47Z</time>
      </trkpt>
      <trkpt lat="41.2328170" lon="-8.5523240">
        <ele>74.2</ele>
        <time>2021-03-20T11:14:48Z</time>
      </trkpt>
      <trkpt lat="41.2328340" lon="-8.5522690">
        <ele>74.2</ele>
        <time>2021-03-20T11:14:49Z</time>
      </trkpt>
      <trkpt lat="41.2328550" lon="-8.5522170">
        <ele>74.2</ele>
        <time>2021-03-20T11:14:50Z</time>
      </trkpt>
      <trkpt lat="41.2328690" lon="-8.5521720">
        <ele>74.4</ele>
        <time>2021-03-20T11:14:51Z</time>
      </trkpt>
      <trkpt lat="41.2328900" lon="-8.5521170">
        <ele>74.4</ele>
        <time>2021-03-20T11:14:52Z</time>
      </trkpt>
      <trkpt lat="41.2329080" lon="-8.5520610">
        <ele>74.4</ele>
        <time>2021-03-20T11:14:53Z</time>
      </trkpt>
      <trkpt lat="41.2329240" lon="-8.5520010">
        <ele>74.6</ele>
        <time>2021-03-20T11:14:54Z</time>
      </trkpt>
      <trkpt lat="41.2329420" lon="-8.5519450">
        <ele>74.4</ele>
        <time>2021-03-20T11:14:55Z</time>
      </trkpt>
      <trkpt lat="41.2329540" lon="-8.5519010">
        <ele>74.4</ele>
        <time>2021-03-20T11:14:56Z</time>
      </trkpt>
      <trkpt lat="41.2329690" lon="-8.5518440">
        <ele>74.6</ele>
        <time>2021-03-20T11:14:57Z</time>
      </trkpt>
      <trkpt lat="41.2329860" lon="-8.5517820">
        <ele>74.4</ele>
        <time>2021-03-20T11:14:58Z</time>
      </trkpt>
      <trkpt lat="41.2329990" lon="-8.5517180">
        <ele>74.6</ele>
        <time>2021-03-20T11:14:59Z</time>
      </trkpt>
      <trkpt lat="41.2330120" lon="-8.5516690">
        <ele>74.6</ele>
        <time>2021-03-20T11:15:00Z</time>
      </trkpt>
      <trkpt lat="41.2330250" lon="-8.5516070">
        <ele>74.6</ele>
        <time>2021-03-20T11:15:01Z</time>
      </trkpt>
      <trkpt lat="41.2330400" lon="-8.5515440">
        <ele>74.8</ele>
        <time>2021-03-20T11:15:02Z</time>
      </trkpt>
      <trkpt lat="41.2330500" lon="-8.5514790">
        <ele>75.0</ele>
        <time>2021-03-20T11:15:03Z</time>
      </trkpt>
      <trkpt lat="41.2330630" lon="-8.5514190">
        <ele>75.0</ele>
        <time>2021-03-20T11:15:04Z</time>
      </trkpt>
      <trkpt lat="41.2330620" lon="-8.5513660">
        <ele>75.4</ele>
        <time>2021-03-20T11:15:05Z</time>
      </trkpt>
      <trkpt lat="41.2330730" lon="-8.5513050">
        <ele>75.2</ele>
        <time>2021-03-20T11:15:06Z</time>
      </trkpt>
      <trkpt lat="41.2330830" lon="-8.5512420">
        <ele>75.4</ele>
        <time>2021-03-20T11:15:07Z</time>
      </trkpt>
      <trkpt lat="41.2330860" lon="-8.5511820">
        <ele>75.6</ele>
        <time>2021-03-20T11:15:08Z</time>
      </trkpt>
      <trkpt lat="41.2330890" lon="-8.5511200">
        <ele>75.6</ele>
        <time>2021-03-20T11:15:09Z</time>
      </trkpt>
      <trkpt lat="41.2330960" lon="-8.5510610">
        <ele>75.6</ele>
        <time>2021-03-20T11:15:10Z</time>
      </trkpt>
      <trkpt lat="41.2331000" lon="-8.5510170">
        <ele>75.6</ele>
        <time>2021-03-20T11:15:11Z</time>
      </trkpt>
      <trkpt lat="41.2331110" lon="-8.5509380">
        <ele>75.6</ele>
        <time>2021-03-20T11:15:12Z</time>
      </trkpt>
      <trkpt lat="41.2331120" lon="-8.5508920">
        <ele>75.6</ele>
        <time>2021-03-20T11:15:13Z</time>
      </trkpt>
      <trkpt lat="41.2331130" lon="-8.5508170">
        <ele>75.8</ele>
        <time>2021-03-20T11:15:14Z</time>
      </trkpt>
      <trkpt lat="41.2331200" lon="-8.5507490">
        <ele>75.8</ele>
        <time>2021-03-20T11:15:15Z</time>
      </trkpt>
      <trkpt lat="41.2331170" lon="-8.5506970">
        <ele>76.0</ele>
        <time>2021-03-20T11:15:16Z</time>
      </trkpt>
      <trkpt lat="41.2331200" lon="-8.5506380">
        <ele>75.8</ele>
        <time>2021-03-20T11:15:17Z</time>
      </trkpt>
      <trkpt lat="41.2331170" lon="-8.5505780">
        <ele>76.0</ele>
        <time>2021-03-20T11:15:18Z</time>
      </trkpt>
      <trkpt lat="41.2331330" lon="-8.5505120">
        <ele>76.2</ele>
        <time>2021-03-20T11:15:19Z</time>
      </trkpt>
      <trkpt lat="41.2331280" lon="-8.5504360">
        <ele>76.2</ele>
        <time>2021-03-20T11:15:20Z</time>
      </trkpt>
      <trkpt lat="41.2331170" lon="-8.5503720">
        <ele>76.6</ele>
        <time>2021-03-20T11:15:21Z</time>
      </trkpt>
      <trkpt lat="41.2331130" lon="-8.5503110">
        <ele>76.6</ele>
        <time>2021-03-20T11:15:22Z</time>
      </trkpt>
      <trkpt lat="41.2331100" lon="-8.5502640">
        <ele>76.6</ele>
        <time>2021-03-20T11:15:23Z</time>
      </trkpt>
      <trkpt lat="41.2331050" lon="-8.5502000">
        <ele>76.8</ele>
        <time>2021-03-20T11:15:24Z</time>
      </trkpt>
      <trkpt lat="41.2330980" lon="-8.5501420">
        <ele>76.6</ele>
        <time>2021-03-20T11:15:25Z</time>
      </trkpt>
      <trkpt lat="41.2330890" lon="-8.5500810">
        <ele>76.6</ele>
        <time>2021-03-20T11:15:26Z</time>
      </trkpt>
      <trkpt lat="41.2330820" lon="-8.5500010">
        <ele>76.8</ele>
        <time>2021-03-20T11:15:27Z</time>
      </trkpt>
      <trkpt lat="41.2330760" lon="-8.5499360">
        <ele>77.0</ele>
        <time>2021-03-20T11:15:28Z</time>
      </trkpt>
      <trkpt lat="41.2330720" lon="-8.5498730">
        <ele>76.8</ele>
        <time>2021-03-20T11:15:29Z</time>
      </trkpt>
      <trkpt lat="41.2330590" lon="-8.5498100">
        <ele>77.2</ele>
        <time>2021-03-20T11:15:30Z</time>
      </trkpt>
      <trkpt lat="41.2330510" lon="-8.5497510">
        <ele>77.4</ele>
        <time>2021-03-20T11:15:31Z</time>
      </trkpt>
      <trkpt lat="41.2330420" lon="-8.5496860">
        <ele>77.2</ele>
        <time>2021-03-20T11:15:32Z</time>
      </trkpt>
      <trkpt lat="41.2330330" lon="-8.5496180">
        <ele>77.2</ele>
        <time>2021-03-20T11:15:33Z</time>
      </trkpt>
      <trkpt lat="41.2330250" lon="-8.5495640">
        <ele>77.0</ele>
        <time>2021-03-20T11:15:34Z</time>
      </trkpt>
      <trkpt lat="41.2330170" lon="-8.5494950">
        <ele>77.4</ele>
        <time>2021-03-20T11:15:35Z</time>
      </trkpt>
      <trkpt lat="41.2330050" lon="-8.5494290">
        <ele>77.6</ele>
        <time>2021-03-20T11:15:36Z</time>
      </trkpt>
      <trkpt lat="41.2329990" lon="-8.5493710">
        <ele>77.6</ele>
        <time>2021-03-20T11:15:37Z</time>
      </trkpt>
      <trkpt lat="41.2329920" lon="-8.5493300">
        <ele>77.6</ele>
        <time>2021-03-20T11:15:38Z</time>
      </trkpt>
      <trkpt lat="41.2329840" lon="-8.5492670">
        <ele>77.6</ele>
        <time>2021-03-20T11:15:39Z</time>
      </trkpt>
      <trkpt lat="41.2329760" lon="-8.5491940">
        <ele>77.6</ele>
        <time>2021-03-20T11:15:40Z</time>
      </trkpt>
      <trkpt lat="41.2329630" lon="-8.5491150">
        <ele>77.6</ele>
        <time>2021-03-20T11:15:41Z</time>
      </trkpt>
      <trkpt lat="41.2329550" lon="-8.5490760">
        <ele>77.8</ele>
        <time>2021-03-20T11:15:42Z</time>
      </trkpt>
      <trkpt lat="41.2329480" lon="-8.5489930">
        <ele>77.8</ele>
        <time>2021-03-20T11:15:43Z</time>
      </trkpt>
      <trkpt lat="41.2329400" lon="-8.5489450">
        <ele>78.0</ele>
        <time>2021-03-20T11:15:44Z</time>
      </trkpt>
      <trkpt lat="41.2329300" lon="-8.5488880">
        <ele>78.0</ele>
        <time>2021-03-20T11:15:45Z</time>
      </trkpt>
      <trkpt lat="41.2329210" lon="-8.5488130">
        <ele>78.2</ele>
        <time>2021-03-20T11:15:46Z</time>
      </trkpt>
      <trkpt lat="41.2329150" lon="-8.5487460">
        <ele>78.4</ele>
        <time>2021-03-20T11:15:47Z</time>
      </trkpt>
      <trkpt lat="41.2329050" lon="-8.5487050">
        <ele>78.4</ele>
        <time>2021-03-20T11:15:48Z</time>
      </trkpt>
      <trkpt lat="41.2328980" lon="-8.5486440">
        <ele>78.2</ele>
        <time>2021-03-20T11:15:49Z</time>
      </trkpt>
      <trkpt lat="41.2328920" lon="-8.5485760">
        <ele>78.6</ele>
        <time>2021-03-20T11:15:50Z</time>
      </trkpt>
      <trkpt lat="41.2328970" lon="-8.5485070">
        <ele>78.8</ele>
        <time>2021-03-20T11:15:51Z</time>
      </trkpt>
      <trkpt lat="41.2328830" lon="-8.5484350">
        <ele>78.8</ele>
        <time>2021-03-20T11:15:52Z</time>
      </trkpt>
      <trkpt lat="41.2328640" lon="-8.5483540">
        <ele>79.0</ele>
        <time>2021-03-20T11:15:53Z</time>
      </trkpt>
      <trkpt lat="41.2328550" lon="-8.5483040">
        <ele>79.0</ele>
        <time>2021-03-20T11:15:54Z</time>
      </trkpt>
      <trkpt lat="41.2328470" lon="-8.5482430">
        <ele>79.4</ele>
        <time>2021-03-20T11:15:55Z</time>
      </trkpt>
      <trkpt lat="41.2328400" lon="-8.5481910">
        <ele>79.4</ele>
        <time>2021-03-20T11:15:56Z</time>
      </trkpt>
      <trkpt lat="41.2328300" lon="-8.5481230">
        <ele>79.8</ele>
        <time>2021-03-20T11:15:57Z</time>
      </trkpt>
      <trkpt lat="41.2328240" lon="-8.5480480">
        <ele>79.8</ele>
        <time>2021-03-20T11:15:58Z</time>
      </trkpt>
      <trkpt lat="41.2328180" lon="-8.5479730">
        <ele>79.8</ele>
        <time>2021-03-20T11:15:59Z</time>
      </trkpt>
      <trkpt lat="41.2328130" lon="-8.5479120">
        <ele>80.0</ele>
        <time>2021-03-20T11:16:00Z</time>
      </trkpt>
      <trkpt lat="41.2328110" lon="-8.5478560">
        <ele>80.2</ele>
        <time>2021-03-20T11:16:01Z</time>
      </trkpt>
      <trkpt lat="41.2328040" lon="-8.5477900">
        <ele>80.4</ele>
        <time>2021-03-20T11:16:02Z</time>
      </trkpt>
      <trkpt lat="41.2327940" lon="-8.5477280">
        <ele>80.6</ele>
        <time>2021-03-20T11:16:03Z</time>
      </trkpt>
      <trkpt lat="41.2327830" lon="-8.5476720">
        <ele>80.8</ele>
        <time>2021-03-20T11:16:04Z</time>
      </trkpt>
      <trkpt lat="41.2327780" lon="-8.5476090">
        <ele>80.8</ele>
        <time>2021-03-20T11:16:05Z</time>
      </trkpt>
      <trkpt lat="41.2327670" lon="-8.5475500">
        <ele>81.0</ele>
        <time>2021-03-20T11:16:06Z</time>
      </trkpt>
      <trkpt lat="41.2327580" lon="-8.5474880">
        <ele>81.2</ele>
        <time>2021-03-20T11:16:07Z</time>
      </trkpt>
      <trkpt lat="41.2327500" lon="-8.5474170">
        <ele>81.4</ele>
        <time>2021-03-20T11:16:08Z</time>
      </trkpt>
      <trkpt lat="41.2327460" lon="-8.5473700">
        <ele>81.6</ele>
        <time>2021-03-20T11:16:09Z</time>
      </trkpt>
      <trkpt lat="41.2327400" lon="-8.5473100">
        <ele>81.6</ele>
        <time>2021-03-20T11:16:10Z</time>
      </trkpt>
      <trkpt lat="41.2327300" lon="-8.5472420">
        <ele>81.6</ele>
        <time>2021-03-20T11:16:11Z</time>
      </trkpt>
      <trkpt lat="41.2327190" lon="-8.5471840">
        <ele>81.8</ele>
        <time>2021-03-20T11:16:12Z</time>
      </trkpt>
      <trkpt lat="41.2327140" lon="-8.5471290">
        <ele>82.2</ele>
        <time>2021-03-20T11:16:13Z</time>
      </trkpt>
      <trkpt lat="41.2327070" lon="-8.5470620">
        <ele>82.4</ele>
        <time>2021-03-20T11:16:14Z</time>
      </trkpt>
      <trkpt lat="41.2327010" lon="-8.5470000">
        <ele>82.6</ele>
        <time>2021-03-20T11:16:15Z</time>
      </trkpt>
      <trkpt lat="41.2326960" lon="-8.5469190">
        <ele>82.8</ele>
        <time>2021-03-20T11:16:16Z</time>
      </trkpt>
      <trkpt lat="41.2326910" lon="-8.5468700">
        <ele>83.0</ele>
        <time>2021-03-20T11:16:17Z</time>
      </trkpt>
      <trkpt lat="41.2326860" lon="-8.5468130">
        <ele>83.2</ele>
        <time>2021-03-20T11:16:18Z</time>
      </trkpt>
      <trkpt lat="41.2326780" lon="-8.5467420">
        <ele>83.2</ele>
        <time>2021-03-20T11:16:19Z</time>
      </trkpt>
      <trkpt lat="41.2326700" lon="-8.5466810">
        <ele>83.6</ele>
        <time>2021-03-20T11:16:20Z</time>
      </trkpt>
      <trkpt lat="41.2326650" lon="-8.5466320">
        <ele>83.6</ele>
        <time>2021-03-20T11:16:21Z</time>
      </trkpt>
      <trkpt lat="41.2326610" lon="-8.5465700">
        <ele>83.8</ele>
        <time>2021-03-20T11:16:22Z</time>
      </trkpt>
      <trkpt lat="41.2326510" lon="-8.5464930">
        <ele>84.0</ele>
        <time>2021-03-20T11:16:23Z</time>
      </trkpt>
      <trkpt lat="41.2326450" lon="-8.5464440">
        <ele>84.0</ele>
        <time>2021-03-20T11:16:24Z</time>
      </trkpt>
      <trkpt lat="41.2326390" lon="-8.5463660">
        <ele>84.2</ele>
        <time>2021-03-20T11:16:25Z</time>
      </trkpt>
      <trkpt lat="41.2326300" lon="-8.5463080">
        <ele>84.6</ele>
        <time>2021-03-20T11:16:26Z</time>
      </trkpt>
      <trkpt lat="41.2326200" lon="-8.5462500">
        <ele>84.8</ele>
        <time>2021-03-20T11:16:27Z</time>
      </trkpt>
      <trkpt lat="41.2326170" lon="-8.5461890">
        <ele>85.0</ele>
        <time>2021-03-20T11:16:28Z</time>
      </trkpt>
      <trkpt lat="41.2326120" lon="-8.5461450">
        <ele>85.2</ele>
        <time>2021-03-20T11:16:29Z</time>
      </trkpt>
      <trkpt lat="41.2326040" lon="-8.5460880">
        <ele>85.4</ele>
        <time>2021-03-20T11:16:30Z</time>
      </trkpt>
      <trkpt lat="41.2325940" lon="-8.5460300">
        <ele>85.6</ele>
        <time>2021-03-20T11:16:31Z</time>
      </trkpt>
      <trkpt lat="41.2325820" lon="-8.5459540">
        <ele>85.8</ele>
        <time>2021-03-20T11:16:32Z</time>
      </trkpt>
      <trkpt lat="41.2325750" lon="-8.5458980">
        <ele>86.2</ele>
        <time>2021-03-20T11:16:33Z</time>
      </trkpt>
      <trkpt lat="41.2325680" lon="-8.5458330">
        <ele>86.4</ele>
        <time>2021-03-20T11:16:34Z</time>
      </trkpt>
      <trkpt lat="41.2325610" lon="-8.5457840">
        <ele>86.4</ele>
        <time>2021-03-20T11:16:35Z</time>
      </trkpt>
      <trkpt lat="41.2325580" lon="-8.5457330">
        <ele>86.4</ele>
        <time>2021-03-20T11:16:36Z</time>
      </trkpt>
      <trkpt lat="41.2325540" lon="-8.5456700">
        <ele>86.4</ele>
        <time>2021-03-20T11:16:37Z</time>
      </trkpt>
      <trkpt lat="41.2325470" lon="-8.5456140">
        <ele>86.2</ele>
        <time>2021-03-20T11:16:38Z</time>
      </trkpt>
      <trkpt lat="41.2325420" lon="-8.5455520">
        <ele>85.8</ele>
        <time>2021-03-20T11:16:39Z</time>
      </trkpt>
      <trkpt lat="41.2325470" lon="-8.5454890">
        <ele>85.6</ele>
        <time>2021-03-20T11:16:40Z</time>
      </trkpt>
      <trkpt lat="41.2325730" lon="-8.5454330">
        <ele>85.4</ele>
        <time>2021-03-20T11:16:41Z</time>
      </trkpt>
      <trkpt lat="41.2326130" lon="-8.5453850">
        <ele>84.8</ele>
        <time>2021-03-20T11:16:42Z</time>
      </trkpt>
      <trkpt lat="41.2326610" lon="-8.5453520">
        <ele>84.8</ele>
        <time>2021-03-20T11:16:43Z</time>
      </trkpt>
      <trkpt lat="41.2326870" lon="-8.5453350">
        <ele>85.0</ele>
        <time>2021-03-20T11:16:44Z</time>
      </trkpt>
      <trkpt lat="41.2327520" lon="-8.5453090">
        <ele>85.0</ele>
        <time>2021-03-20T11:16:45Z</time>
      </trkpt>
      <trkpt lat="41.2328150" lon="-8.5452810">
        <ele>84.8</ele>
        <time>2021-03-20T11:16:46Z</time>
      </trkpt>
      <trkpt lat="41.2328730" lon="-8.5452410">
        <ele>84.8</ele>
        <time>2021-03-20T11:16:47Z</time>
      </trkpt>
      <trkpt lat="41.2329340" lon="-8.5452040">
        <ele>84.8</ele>
        <time>2021-03-20T11:16:48Z</time>
      </trkpt>
      <trkpt lat="41.2329930" lon="-8.5451650">
        <ele>84.8</ele>
        <time>2021-03-20T11:16:49Z</time>
      </trkpt>
      <trkpt lat="41.2330530" lon="-8.5451290">
        <ele>84.8</ele>
        <time>2021-03-20T11:16:50Z</time>
      </trkpt>
      <trkpt lat="41.2331140" lon="-8.5450950">
        <ele>85.2</ele>
        <time>2021-03-20T11:16:51Z</time>
      </trkpt>
      <trkpt lat="41.2331690" lon="-8.5450600">
        <ele>85.4</ele>
        <time>2021-03-20T11:16:52Z</time>
      </trkpt>
      <trkpt lat="41.2332220" lon="-8.5450250">
        <ele>85.4</ele>
        <time>2021-03-20T11:16:53Z</time>
      </trkpt>
      <trkpt lat="41.2332730" lon="-8.5449960">
        <ele>85.6</ele>
        <time>2021-03-20T11:16:54Z</time>
      </trkpt>
      <trkpt lat="41.2333150" lon="-8.5449620">
        <ele>85.8</ele>
        <time>2021-03-20T11:16:55Z</time>
      </trkpt>
      <trkpt lat="41.2333610" lon="-8.5449270">
        <ele>86.0</ele>
        <time>2021-03-20T11:16:56Z</time>
      </trkpt>
      <trkpt lat="41.2334110" lon="-8.5448970">
        <ele>86.2</ele>
        <time>2021-03-20T11:16:57Z</time>
      </trkpt>
      <trkpt lat="41.2334570" lon="-8.5448640">
        <ele>86.2</ele>
        <time>2021-03-20T11:16:58Z</time>
      </trkpt>
      <trkpt lat="41.2335060" lon="-8.5448360">
        <ele>86.4</ele>
        <time>2021-03-20T11:16:59Z</time>
      </trkpt>
      <trkpt lat="41.2335510" lon="-8.5447990">
        <ele>86.4</ele>
        <time>2021-03-20T11:17:00Z</time>
      </trkpt>
      <trkpt lat="41.2335930" lon="-8.5447660">
        <ele>86.4</ele>
        <time>2021-03-20T11:17:01Z</time>
      </trkpt>
      <trkpt lat="41.2336410" lon="-8.5447420">
        <ele>86.6</ele>
        <time>2021-03-20T11:17:02Z</time>
      </trkpt>
      <trkpt lat="41.2336870" lon="-8.5447180">
        <ele>86.8</ele>
        <time>2021-03-20T11:17:03Z</time>
      </trkpt>
      <trkpt lat="41.2337310" lon="-8.5446840">
        <ele>87.0</ele>
        <time>2021-03-20T11:17:04Z</time>
      </trkpt>
      <trkpt lat="41.2337780" lon="-8.5446580">
        <ele>87.0</ele>
        <time>2021-03-20T11:17:05Z</time>
      </trkpt>
      <trkpt lat="41.2338240" lon="-8.5446270">
        <ele>87.0</ele>
        <time>2021-03-20T11:17:06Z</time>
      </trkpt>
      <trkpt lat="41.2338600" lon="-8.5446090">
        <ele>86.8</ele>
        <time>2021-03-20T11:17:07Z</time>
      </trkpt>
      <trkpt lat="41.2339060" lon="-8.5445870">
        <ele>87.0</ele>
        <time>2021-03-20T11:17:08Z</time>
      </trkpt>
      <trkpt lat="41.2339490" lon="-8.5445680">
        <ele>87.2</ele>
        <time>2021-03-20T11:17:09Z</time>
      </trkpt>
      <trkpt lat="41.2339960" lon="-8.5445500">
        <ele>87.2</ele>
        <time>2021-03-20T11:17:10Z</time>
      </trkpt>
      <trkpt lat="41.2340360" lon="-8.5445330">
        <ele>87.4</ele>
        <time>2021-03-20T11:17:11Z</time>
      </trkpt>
      <trkpt lat="41.2340770" lon="-8.5445070">
        <ele>87.4</ele>
        <time>2021-03-20T11:17:12Z</time>
      </trkpt>
      <trkpt lat="41.2341250" lon="-8.5444890">
        <ele>87.2</ele>
        <time>2021-03-20T11:17:13Z</time>
      </trkpt>
      <trkpt lat="41.2341750" lon="-8.5444780">
        <ele>87.2</ele>
        <time>2021-03-20T11:17:14Z</time>
      </trkpt>
      <trkpt lat="41.2342250" lon="-8.5444630">
        <ele>87.4</ele>
        <time>2021-03-20T11:17:15Z</time>
      </trkpt>
      <trkpt lat="41.2342740" lon="-8.5444510">
        <ele>87.4</ele>
        <time>2021-03-20T11:17:16Z</time>
      </trkpt>
      <trkpt lat="41.2343280" lon="-8.5444410">
        <ele>87.6</ele>
        <time>2021-03-20T11:17:17Z</time>
      </trkpt>
      <trkpt lat="41.2343840" lon="-8.5444300">
        <ele>87.6</ele>
        <time>2021-03-20T11:17:18Z</time>
      </trkpt>
      <trkpt lat="41.2344390" lon="-8.5444230">
        <ele>87.6</ele>
        <time>2021-03-20T11:17:19Z</time>
      </trkpt>
      <trkpt lat="41.2344900" lon="-8.5444170">
        <ele>87.6</ele>
        <time>2021-03-20T11:17:20Z</time>
      </trkpt>
      <trkpt lat="41.2345480" lon="-8.5444130">
        <ele>87.8</ele>
        <time>2021-03-20T11:17:21Z</time>
      </trkpt>
      <trkpt lat="41.2346010" lon="-8.5444130">
        <ele>88.2</ele>
        <time>2021-03-20T11:17:22Z</time>
      </trkpt>
      <trkpt lat="41.2346700" lon="-8.5444110">
        <ele>88.2</ele>
        <time>2021-03-20T11:17:23Z</time>
      </trkpt>
      <trkpt lat="41.2347230" lon="-8.5444060">
        <ele>88.4</ele>
        <time>2021-03-20T11:17:24Z</time>
      </trkpt>
      <trkpt lat="41.2347590" lon="-8.5444090">
        <ele>88.6</ele>
        <time>2021-03-20T11:17:25Z</time>
      </trkpt>
      <trkpt lat="41.2348110" lon="-8.5444110">
        <ele>88.8</ele>
        <time>2021-03-20T11:17:26Z</time>
      </trkpt>
      <trkpt lat="41.2348600" lon="-8.5444130">
        <ele>89.0</ele>
        <time>2021-03-20T11:17:27Z</time>
      </trkpt>
      <trkpt lat="41.2349150" lon="-8.5444170">
        <ele>89.2</ele>
        <time>2021-03-20T11:17:28Z</time>
      </trkpt>
      <trkpt lat="41.2349660" lon="-8.5444180">
        <ele>89.6</ele>
        <time>2021-03-20T11:17:29Z</time>
      </trkpt>
      <trkpt lat="41.2350180" lon="-8.5444220">
        <ele>89.8</ele>
        <time>2021-03-20T11:17:30Z</time>
      </trkpt>
      <trkpt lat="41.2350790" lon="-8.5444240">
        <ele>90.0</ele>
        <time>2021-03-20T11:17:31Z</time>
      </trkpt>
      <trkpt lat="41.2351140" lon="-8.5444280">
        <ele>90.2</ele>
        <time>2021-03-20T11:17:32Z</time>
      </trkpt>
      <trkpt lat="41.2351590" lon="-8.5444310">
        <ele>90.4</ele>
        <time>2021-03-20T11:17:33Z</time>
      </trkpt>
      <trkpt lat="41.2351990" lon="-8.5444350">
        <ele>90.6</ele>
        <time>2021-03-20T11:17:34Z</time>
      </trkpt>
      <trkpt lat="41.2352420" lon="-8.5444340">
        <ele>90.8</ele>
        <time>2021-03-20T11:17:35Z</time>
      </trkpt>
      <trkpt lat="41.2352860" lon="-8.5444320">
        <ele>91.0</ele>
        <time>2021-03-20T11:17:36Z</time>
      </trkpt>
      <trkpt lat="41.2353250" lon="-8.5444250">
        <ele>91.2</ele>
        <time>2021-03-20T11:17:37Z</time>
      </trkpt>
      <trkpt lat="41.2353590" lon="-8.5444190">
        <ele>91.2</ele>
        <time>2021-03-20T11:17:38Z</time>
      </trkpt>
      <trkpt lat="41.2353960" lon="-8.5444090">
        <ele>91.6</ele>
        <time>2021-03-20T11:17:39Z</time>
      </trkpt>
      <trkpt lat="41.2354280" lon="-8.5444040">
        <ele>91.6</ele>
        <time>2021-03-20T11:17:40Z</time>
      </trkpt>
      <trkpt lat="41.2354760" lon="-8.5444030">
        <ele>91.8</ele>
        <time>2021-03-20T11:17:41Z</time>
      </trkpt>
      <trkpt lat="41.2355180" lon="-8.5444110">
        <ele>92.2</ele>
        <time>2021-03-20T11:17:42Z</time>
      </trkpt>
      <trkpt lat="41.2355610" lon="-8.5444160">
        <ele>92.4</ele>
        <time>2021-03-20T11:17:43Z</time>
      </trkpt>
      <trkpt lat="41.2355980" lon="-8.5444190">
        <ele>92.8</ele>
        <time>2021-03-20T11:17:44Z</time>
      </trkpt>
      <trkpt lat="41.2356420" lon="-8.5444170">
        <ele>93.0</ele>
        <time>2021-03-20T11:17:45Z</time>
      </trkpt>
      <trkpt lat="41.2356830" lon="-8.5444140">
        <ele>93.2</ele>
        <time>2021-03-20T11:17:46Z</time>
      </trkpt>
      <trkpt lat="41.2357220" lon="-8.5444090">
        <ele>93.2</ele>
        <time>2021-03-20T11:17:47Z</time>
      </trkpt>
      <trkpt lat="41.2357520" lon="-8.5443980">
        <ele>93.2</ele>
        <time>2021-03-20T11:17:48Z</time>
      </trkpt>
      <trkpt lat="41.2357930" lon="-8.5443860">
        <ele>93.4</ele>
        <time>2021-03-20T11:17:49Z</time>
      </trkpt>
      <trkpt lat="41.2358220" lon="-8.5443750">
        <ele>93.6</ele>
        <time>2021-03-20T11:17:50Z</time>
      </trkpt>
      <trkpt lat="41.2358500" lon="-8.5443680">
        <ele>94.2</ele>
        <time>2021-03-20T11:17:51Z</time>
      </trkpt>
      <trkpt lat="41.2358900" lon="-8.5443430">
        <ele>94.4</ele>
        <time>2021-03-20T11:17:52Z</time>
      </trkpt>
      <trkpt lat="41.2359170" lon="-8.5443270">
        <ele>94.4</ele>
        <time>2021-03-20T11:17:53Z</time>
      </trkpt>
      <trkpt lat="41.2359540" lon="-8.5443080">
        <ele>94.6</ele>
        <time>2021-03-20T11:17:54Z</time>
      </trkpt>
      <trkpt lat="41.2359910" lon="-8.5442860">
        <ele>94.6</ele>
        <time>2021-03-20T11:17:55Z</time>
      </trkpt>
      <trkpt lat="41.2360320" lon="-8.5442610">
        <ele>95.0</ele>
        <time>2021-03-20T11:17:56Z</time>
      </trkpt>
      <trkpt lat="41.2360540" lon="-8.5442450">
        <ele>95.2</ele>
        <time>2021-03-20T11:17:57Z</time>
      </trkpt>
      <trkpt lat="41.2360920" lon="-8.5442260">
        <ele>95.4</ele>
        <time>2021-03-20T11:17:58Z</time>
      </trkpt>
      <trkpt lat="41.2361290" lon="-8.5442030">
        <ele>95.4</ele>
        <time>2021-03-20T11:17:59Z</time>
      </trkpt>
      <trkpt lat="41.2361610" lon="-8.5441840">
        <ele>95.6</ele>
        <time>2021-03-20T11:18:00Z</time>
      </trkpt>
      <trkpt lat="41.2361960" lon="-8.5441620">
        <ele>95.8</ele>
        <time>2021-03-20T11:18:01Z</time>
      </trkpt>
      <trkpt lat="41.2362330" lon="-8.5441400">
        <ele>96.0</ele>
        <time>2021-03-20T11:18:02Z</time>
      </trkpt>
      <trkpt lat="41.2362660" lon="-8.5441130">
        <ele>96.4</ele>
        <time>2021-03-20T11:18:03Z</time>
      </trkpt>
      <trkpt lat="41.2363040" lon="-8.5440920">
        <ele>96.8</ele>
        <time>2021-03-20T11:18:04Z</time>
      </trkpt>
      <trkpt lat="41.2363420" lon="-8.5440700">
        <ele>97.0</ele>
        <time>2021-03-20T11:18:05Z</time>
      </trkpt>
      <trkpt lat="41.2363730" lon="-8.5440510">
        <ele>97.2</ele>
        <time>2021-03-20T11:18:06Z</time>
      </trkpt>
      <trkpt lat="41.2364120" lon="-8.5440310">
        <ele>97.6</ele>
        <time>2021-03-20T11:18:07Z</time>
      </trkpt>
      <trkpt lat="41.2364460" lon="-8.5440140">
        <ele>97.8</ele>
        <time>2021-03-20T11:18:08Z</time>
      </trkpt>
      <trkpt lat="41.2364790" lon="-8.5439970">
        <ele>98.0</ele>
        <time>2021-03-20T11:18:09Z</time>
      </trkpt>
      <trkpt lat="41.2365020" lon="-8.5439780">
        <ele>98.4</ele>
        <time>2021-03-20T11:18:10Z</time>
      </trkpt>
      <trkpt lat="41.2365320" lon="-8.5439570">
        <ele>98.6</ele>
        <time>2021-03-20T11:18:11Z</time>
      </trkpt>
      <trkpt lat="41.2365630" lon="-8.5439390">
        <ele>98.6</ele>
        <time>2021-03-20T11:18:12Z</time>
      </trkpt>
      <trkpt lat="41.2365810" lon="-8.5439290">
        <ele>98.8</ele>
        <time>2021-03-20T11:18:13Z</time>
      </trkpt>
      <trkpt lat="41.2366130" lon="-8.5439120">
        <ele>99.2</ele>
        <time>2021-03-20T11:18:14Z</time>
      </trkpt>
      <trkpt lat="41.2366470" lon="-8.5438910">
        <ele>99.0</ele>
        <time>2021-03-20T11:18:15Z</time>
      </trkpt>
      <trkpt lat="41.2366720" lon="-8.5438780">
        <ele>99.0</ele>
        <time>2021-03-20T11:18:16Z</time>
      </trkpt>
      <trkpt lat="41.2367010" lon="-8.5438630">
        <ele>99.0</ele>
        <time>2021-03-20T11:18:17Z</time>
      </trkpt>
      <trkpt lat="41.2367240" lon="-8.5438510">
        <ele>99.0</ele>
        <time>2021-03-20T11:18:18Z</time>
      </trkpt>
      <trkpt lat="41.2367590" lon="-8.5438280">
        <ele>99.2</ele>
        <time>2021-03-20T11:18:19Z</time>
      </trkpt>
      <trkpt lat="41.2367770" lon="-8.5438160">
        <ele>99.2</ele>
        <time>2021-03-20T11:18:20Z</time>
      </trkpt>
      <trkpt lat="41.2368080" lon="-8.5437970">
        <ele>99.4</ele>
        <time>2021-03-20T11:18:21Z</time>
      </trkpt>
      <trkpt lat="41.2368450" lon="-8.5437800">
        <ele>99.4</ele>
        <time>2021-03-20T11:18:22Z</time>
      </trkpt>
      <trkpt lat="41.2368790" lon="-8.5437650">
        <ele>99.6</ele>
        <time>2021-03-20T11:18:23Z</time>
      </trkpt>
      <trkpt lat="41.2369120" lon="-8.5437470">
        <ele>99.4</ele>
        <time>2021-03-20T11:18:24Z</time>
      </trkpt>
      <trkpt lat="41.2369390" lon="-8.5437250">
        <ele>99.4</ele>
        <time>2021-03-20T11:18:25Z</time>
      </trkpt>
      <trkpt lat="41.2369720" lon="-8.5437090">
        <ele>99.4</ele>
        <time>2021-03-20T11:18:26Z</time>
      </trkpt>
      <trkpt lat="41.2370040" lon="-8.5436920">
        <ele>99.4</ele>
        <time>2021-03-20T11:18:27Z</time>
      </trkpt>
      <trkpt lat="41.2370400" lon="-8.5436750">
        <ele>99.4</ele>
        <time>2021-03-20T11:18:28Z</time>
      </trkpt>
      <trkpt lat="41.2370760" lon="-8.5436540">
        <ele>99.6</ele>
        <time>2021-03-20T11:18:29Z</time>
      </trkpt>
      <trkpt lat="41.2371140" lon="-8.5436320">
        <ele>99.8</ele>
        <time>2021-03-20T11:18:30Z</time>
      </trkpt>
      <trkpt lat="41.2371490" lon="-8.5436120">
        <ele>100.2</ele>
        <time>2021-03-20T11:18:31Z</time>
      </trkpt>
      <trkpt lat="41.2371800" lon="-8.5435900">
        <ele>100.4</ele>
        <time>2021-03-20T11:18:32Z</time>
      </trkpt>
      <trkpt lat="41.2372150" lon="-8.5435630">
        <ele>100.6</ele>
        <time>2021-03-20T11:18:33Z</time>
      </trkpt>
      <trkpt lat="41.2372440" lon="-8.5435480">
        <ele>100.6</ele>
        <time>2021-03-20T11:18:34Z</time>
      </trkpt>
      <trkpt lat="41.2372780" lon="-8.5435310">
        <ele>100.8</ele>
        <time>2021-03-20T11:18:35Z</time>
      </trkpt>
      <trkpt lat="41.2373110" lon="-8.5435130">
        <ele>101.0</ele>
        <time>2021-03-20T11:18:36Z</time>
      </trkpt>
      <trkpt lat="41.2373380" lon="-8.5434940">
        <ele>101.2</ele>
        <time>2021-03-20T11:18:37Z</time>
      </trkpt>
      <trkpt lat="41.2373680" lon="-8.5434750">
        <ele>101.4</ele>
        <time>2021-03-20T11:18:38Z</time>
      </trkpt>
      <trkpt lat="41.2373920" lon="-8.5434620">
        <ele>101.6</ele>
        <time>2021-03-20T11:18:39Z</time>
      </trkpt>
      <trkpt lat="41.2374240" lon="-8.5434400">
        <ele>101.8</ele>
        <time>2021-03-20T11:18:40Z</time>
      </trkpt>
      <trkpt lat="41.2374570" lon="-8.5434220">
        <ele>102.0</ele>
        <time>2021-03-20T11:18:41Z</time>
      </trkpt>
      <trkpt lat="41.2374910" lon="-8.5434020">
        <ele>102.0</ele>
        <time>2021-03-20T11:18:42Z</time>
      </trkpt>
      <trkpt lat="41.2375200" lon="-8.5433820">
        <ele>102.4</ele>
        <time>2021-03-20T11:18:43Z</time>
      </trkpt>
      <trkpt lat="41.2375490" lon="-8.5433650">
        <ele>102.6</ele>
        <time>2021-03-20T11:18:44Z</time>
      </trkpt>
      <trkpt lat="41.2375780" lon="-8.5433470">
        <ele>102.6</ele>
        <time>2021-03-20T11:18:45Z</time>
      </trkpt>
      <trkpt lat="41.2375990" lon="-8.5433330">
        <ele>103.0</ele>
        <time>2021-03-20T11:18:46Z</time>
      </trkpt>
      <trkpt lat="41.2376210" lon="-8.5433100">
        <ele>103.0</ele>
        <time>2021-03-20T11:18:47Z</time>
      </trkpt>
      <trkpt lat="41.2376470" lon="-8.5432920">
        <ele>103.2</ele>
        <time>2021-03-20T11:18:48Z</time>
      </trkpt>
      <trkpt lat="41.2376760" lon="-8.5432770">
        <ele>103.4</ele>
        <time>2021-03-20T11:18:49Z</time>
      </trkpt>
      <trkpt lat="41.2377080" lon="-8.5432560">
        <ele>103.6</ele>
        <time>2021-03-20T11:18:50Z</time>
      </trkpt>
      <trkpt lat="41.2377400" lon="-8.5432380">
        <ele>103.6</ele>
        <time>2021-03-20T11:18:51Z</time>
      </trkpt>
      <trkpt lat="41.2377700" lon="-8.5432180">
        <ele>103.6</ele>
        <time>2021-03-20T11:18:52Z</time>
      </trkpt>
      <trkpt lat="41.2377980" lon="-8.5432000">
        <ele>104.0</ele>
        <time>2021-03-20T11:18:53Z</time>
      </trkpt>
      <trkpt lat="41.2378300" lon="-8.5431730">
        <ele>104.2</ele>
        <time>2021-03-20T11:18:54Z</time>
      </trkpt>
      <trkpt lat="41.2378530" lon="-8.5431610">
        <ele>104.4</ele>
        <time>2021-03-20T11:18:55Z</time>
      </trkpt>
      <trkpt lat="41.2378840" lon="-8.5431410">
        <ele>104.6</ele>
        <time>2021-03-20T11:18:56Z</time>
      </trkpt>
      <trkpt lat="41.2379170" lon="-8.5431360">
        <ele>104.6</ele>
        <time>2021-03-20T11:18:57Z</time>
      </trkpt>
      <trkpt lat="41.2379520" lon="-8.5431070">
        <ele>104.6</ele>
        <time>2021-03-20T11:18:58Z</time>
      </trkpt>
      <trkpt lat="41.2379810" lon="-8.5430820">
        <ele>105.0</ele>
        <time>2021-03-20T11:18:59Z</time>
      </trkpt>
      <trkpt lat="41.2380080" lon="-8.5430670">
        <ele>105.0</ele>
        <time>2021-03-20T11:19:00Z</time>
      </trkpt>
      <trkpt lat="41.2380440" lon="-8.5430480">
        <ele>105.0</ele>
        <time>2021-03-20T11:19:01Z</time>
      </trkpt>
      <trkpt lat="41.2380750" lon="-8.5430280">
        <ele>105.2</ele>
        <time>2021-03-20T11:19:02Z</time>
      </trkpt>
      <trkpt lat="41.2381100" lon="-8.5430090">
        <ele>105.4</ele>
        <time>2021-03-20T11:19:03Z</time>
      </trkpt>
      <trkpt lat="41.2381410" lon="-8.5429880">
        <ele>105.6</ele>
        <time>2021-03-20T11:19:04Z</time>
      </trkpt>
      <trkpt lat="41.2381690" lon="-8.5429740">
        <ele>105.8</ele>
        <time>2021-03-20T11:19:05Z</time>
      </trkpt>
      <trkpt lat="41.2381990" lon="-8.5429520">
        <ele>106.0</ele>
        <time>2021-03-20T11:19:06Z</time>
      </trkpt>
      <trkpt lat="41.2382300" lon="-8.5429320">
        <ele>106.2</ele>
        <time>2021-03-20T11:19:07Z</time>
      </trkpt>
      <trkpt lat="41.2382630" lon="-8.5429110">
        <ele>106.4</ele>
        <time>2021-03-20T11:19:08Z</time>
      </trkpt>
      <trkpt lat="41.2382970" lon="-8.5428980">
        <ele>106.4</ele>
        <time>2021-03-20T11:19:09Z</time>
      </trkpt>
      <trkpt lat="41.2383200" lon="-8.5428810">
        <ele>106.6</ele>
        <time>2021-03-20T11:19:10Z</time>
      </trkpt>
      <trkpt lat="41.2383460" lon="-8.5428590">
        <ele>106.8</ele>
        <time>2021-03-20T11:19:11Z</time>
      </trkpt>
      <trkpt lat="41.2383740" lon="-8.5428390">
        <ele>107.0</ele>
        <time>2021-03-20T11:19:12Z</time>
      </trkpt>
      <trkpt lat="41.2384000" lon="-8.5428160">
        <ele>107.4</ele>
        <time>2021-03-20T11:19:13Z</time>
      </trkpt>
      <trkpt lat="41.2384300" lon="-8.5427960">
        <ele>107.8</ele>
        <time>2021-03-20T11:19:14Z</time>
      </trkpt>
      <trkpt lat="41.2384590" lon="-8.5427740">
        <ele>107.8</ele>
        <time>2021-03-20T11:19:15Z</time>
      </trkpt>
      <trkpt lat="41.2384790" lon="-8.5427540">
        <ele>107.8</ele>
        <time>2021-03-20T11:19:16Z</time>
      </trkpt>
      <trkpt lat="41.2385090" lon="-8.5427330">
        <ele>108.0</ele>
        <time>2021-03-20T11:19:17Z</time>
      </trkpt>
      <trkpt lat="41.2385400" lon="-8.5427140">
        <ele>108.2</ele>
        <time>2021-03-20T11:19:18Z</time>
      </trkpt>
      <trkpt lat="41.2385710" lon="-8.5426960">
        <ele>108.4</ele>
        <time>2021-03-20T11:19:19Z</time>
      </trkpt>
      <trkpt lat="41.2386000" lon="-8.5426790">
        <ele>108.6</ele>
        <time>2021-03-20T11:19:20Z</time>
      </trkpt>
      <trkpt lat="41.2386090" lon="-8.5426610">
        <ele>109.0</ele>
        <time>2021-03-20T11:19:21Z</time>
      </trkpt>
      <trkpt lat="41.2386250" lon="-8.5426300">
        <ele>109.2</ele>
        <time>2021-03-20T11:19:22Z</time>
      </trkpt>
      <trkpt lat="41.2386470" lon="-8.5426020">
        <ele>109.4</ele>
        <time>2021-03-20T11:19:23Z</time>
      </trkpt>
      <trkpt lat="41.2386780" lon="-8.5425810">
        <ele>109.8</ele>
        <time>2021-03-20T11:19:24Z</time>
      </trkpt>
      <trkpt lat="41.2387110" lon="-8.5425670">
        <ele>110.0</ele>
        <time>2021-03-20T11:19:25Z</time>
      </trkpt>
      <trkpt lat="41.2387490" lon="-8.5425530">
        <ele>110.2</ele>
        <time>2021-03-20T11:19:26Z</time>
      </trkpt>
      <trkpt lat="41.2387730" lon="-8.5425350">
        <ele>110.4</ele>
        <time>2021-03-20T11:19:27Z</time>
      </trkpt>
      <trkpt lat="41.2387950" lon="-8.5425180">
        <ele>110.6</ele>
        <time>2021-03-20T11:19:28Z</time>
      </trkpt>
      <trkpt lat="41.2388180" lon="-8.5424970">
        <ele>110.8</ele>
        <time>2021-03-20T11:19:29Z</time>
      </trkpt>
      <trkpt lat="41.2388480" lon="-8.5424770">
        <ele>111.0</ele>
        <time>2021-03-20T11:19:30Z</time>
      </trkpt>
      <trkpt lat="41.2388870" lon="-8.5424640">
        <ele>111.4</ele>
        <time>2021-03-20T11:19:31Z</time>
      </trkpt>
      <trkpt lat="41.2389230" lon="-8.5424450">
        <ele>111.6</ele>
        <time>2021-03-20T11:19:32Z</time>
      </trkpt>
      <trkpt lat="41.2389640" lon="-8.5424250">
        <ele>112.0</ele>
        <time>2021-03-20T11:19:33Z</time>
      </trkpt>
      <trkpt lat="41.2389930" lon="-8.5424010">
        <ele>112.2</ele>
        <time>2021-03-20T11:19:34Z</time>
      </trkpt>
      <trkpt lat="41.2390120" lon="-8.5423840">
        <ele>112.6</ele>
        <time>2021-03-20T11:19:35Z</time>
      </trkpt>
      <trkpt lat="41.2390350" lon="-8.5423670">
        <ele>112.6</ele>
        <time>2021-03-20T11:19:36Z</time>
      </trkpt>
      <trkpt lat="41.2390560" lon="-8.5423550">
        <ele>113.0</ele>
        <time>2021-03-20T11:19:37Z</time>
      </trkpt>
      <trkpt lat="41.2390800" lon="-8.5423320">
        <ele>113.2</ele>
        <time>2021-03-20T11:19:38Z</time>
      </trkpt>
      <trkpt lat="41.2391130" lon="-8.5423100">
        <ele>113.6</ele>
        <time>2021-03-20T11:19:39Z</time>
      </trkpt>
      <trkpt lat="41.2391450" lon="-8.5422950">
        <ele>113.6</ele>
        <time>2021-03-20T11:19:40Z</time>
      </trkpt>
      <trkpt lat="41.2391770" lon="-8.5422780">
        <ele>114.0</ele>
        <time>2021-03-20T11:19:41Z</time>
      </trkpt>
      <trkpt lat="41.2391990" lon="-8.5422580">
        <ele>114.2</ele>
        <time>2021-03-20T11:19:42Z</time>
      </trkpt>
      <trkpt lat="41.2392370" lon="-8.5422380">
        <ele>114.4</ele>
        <time>2021-03-20T11:19:43Z</time>
      </trkpt>
      <trkpt lat="41.2392660" lon="-8.5422160">
        <ele>114.6</ele>
        <time>2021-03-20T11:19:44Z</time>
      </trkpt>
      <trkpt lat="41.2392950" lon="-8.5421990">
        <ele>115.0</ele>
        <time>2021-03-20T11:19:45Z</time>
      </trkpt>
      <trkpt lat="41.2393310" lon="-8.5421800">
        <ele>115.4</ele>
        <time>2021-03-20T11:19:46Z</time>
      </trkpt>
      <trkpt lat="41.2393630" lon="-8.5421590">
        <ele>115.6</ele>
        <time>2021-03-20T11:19:47Z</time>
      </trkpt>
      <trkpt lat="41.2393970" lon="-8.5421420">
        <ele>115.8</ele>
        <time>2021-03-20T11:19:48Z</time>
      </trkpt>
      <trkpt lat="41.2394310" lon="-8.5421260">
        <ele>116.0</ele>
        <time>2021-03-20T11:19:49Z</time>
      </trkpt>
      <trkpt lat="41.2394620" lon="-8.5421050">
        <ele>116.4</ele>
        <time>2021-03-20T11:19:50Z</time>
      </trkpt>
      <trkpt lat="41.2394830" lon="-8.5420860">
        <ele>116.4</ele>
        <time>2021-03-20T11:19:51Z</time>
      </trkpt>
      <trkpt lat="41.2394920" lon="-8.5420710">
        <ele>116.6</ele>
        <time>2021-03-20T11:19:52Z</time>
      </trkpt>
      <trkpt lat="41.2394980" lon="-8.5420590">
        <ele>117.0</ele>
        <time>2021-03-20T11:19:53Z</time>
      </trkpt>
      <trkpt lat="41.2395190" lon="-8.5420430">
        <ele>117.4</ele>
        <time>2021-03-20T11:19:54Z</time>
      </trkpt>
      <trkpt lat="41.2395450" lon="-8.5420240">
        <ele>117.6</ele>
        <time>2021-03-20T11:19:55Z</time>
      </trkpt>
      <trkpt lat="41.2395740" lon="-8.5420080">
        <ele>118.0</ele>
        <time>2021-03-20T11:19:56Z</time>
      </trkpt>
      <trkpt lat="41.2396040" lon="-8.5419820">
        <ele>118.2</ele>
        <time>2021-03-20T11:19:57Z</time>
      </trkpt>
      <trkpt lat="41.2396350" lon="-8.5419620">
        <ele>118.4</ele>
        <time>2021-03-20T11:19:58Z</time>
      </trkpt>
      <trkpt lat="41.2396660" lon="-8.5419380">
        <ele>118.8</ele>
        <time>2021-03-20T11:19:59Z</time>
      </trkpt>
      <trkpt lat="41.2396970" lon="-8.5419110">
        <ele>118.8</ele>
        <time>2021-03-20T11:20:00Z</time>
      </trkpt>
      <trkpt lat="41.2397310" lon="-8.5418890">
        <ele>119.2</ele>
        <time>2021-03-20T11:20:01Z</time>
      </trkpt>
      <trkpt lat="41.2397660" lon="-8.5418680">
        <ele>119.4</ele>
        <time>2021-03-20T11:20:02Z</time>
      </trkpt>
      <trkpt lat="41.2397950" lon="-8.5418480">
        <ele>119.4</ele>
        <time>2021-03-20T11:20:03Z</time>
      </trkpt>
      <trkpt lat="41.2398290" lon="-8.5418280">
        <ele>119.6</ele>
        <time>2021-03-20T11:20:04Z</time>
      </trkpt>
      <trkpt lat="41.2398610" lon="-8.5418090">
        <ele>120.0</ele>
        <time>2021-03-20T11:20:05Z</time>
      </trkpt>
      <trkpt lat="41.2398930" lon="-8.5417810">
        <ele>120.2</ele>
        <time>2021-03-20T11:20:06Z</time>
      </trkpt>
      <trkpt lat="41.2399200" lon="-8.5417530">
        <ele>120.4</ele>
        <time>2021-03-20T11:20:07Z</time>
      </trkpt>
      <trkpt lat="41.2399460" lon="-8.5417220">
        <ele>121.0</ele>
        <time>2021-03-20T11:20:08Z</time>
      </trkpt>
      <trkpt lat="41.2399770" lon="-8.5416970">
        <ele>121.4</ele>
        <time>2021-03-20T11:20:09Z</time>
      </trkpt>
      <trkpt lat="41.2400110" lon="-8.5416700">
        <ele>121.8</ele>
        <time>2021-03-20T11:20:10Z</time>
      </trkpt>
      <trkpt lat="41.2400450" lon="-8.5416450">
        <ele>121.8</ele>
        <time>2021-03-20T11:20:11Z</time>
      </trkpt>
      <trkpt lat="41.2400740" lon="-8.5416180">
        <ele>122.0</ele>
        <time>2021-03-20T11:20:12Z</time>
      </trkpt>
      <trkpt lat="41.2400960" lon="-8.5415970">
        <ele>122.2</ele>
        <time>2021-03-20T11:20:13Z</time>
      </trkpt>
      <trkpt lat="41.2401220" lon="-8.5415690">
        <ele>122.4</ele>
        <time>2021-03-20T11:20:14Z</time>
      </trkpt>
      <trkpt lat="41.2401460" lon="-8.5415480">
        <ele>122.8</ele>
        <time>2021-03-20T11:20:15Z</time>
      </trkpt>
      <trkpt lat="41.2401720" lon="-8.5415260">
        <ele>123.0</ele>
        <time>2021-03-20T11:20:16Z</time>
      </trkpt>
      <trkpt lat="41.2401940" lon="-8.5415000">
        <ele>123.4</ele>
        <time>2021-03-20T11:20:17Z</time>
      </trkpt>
      <trkpt lat="41.2402150" lon="-8.5414780">
        <ele>123.4</ele>
        <time>2021-03-20T11:20:18Z</time>
      </trkpt>
      <trkpt lat="41.2402410" lon="-8.5414520">
        <ele>123.8</ele>
        <time>2021-03-20T11:20:19Z</time>
      </trkpt>
      <trkpt lat="41.2402670" lon="-8.5414230">
        <ele>123.8</ele>
        <time>2021-03-20T11:20:20Z</time>
      </trkpt>
      <trkpt lat="41.2402930" lon="-8.5413930">
        <ele>124.0</ele>
        <time>2021-03-20T11:20:21Z</time>
      </trkpt>
      <trkpt lat="41.2403220" lon="-8.5413630">
        <ele>124.2</ele>
        <time>2021-03-20T11:20:22Z</time>
      </trkpt>
      <trkpt lat="41.2403520" lon="-8.5413340">
        <ele>124.2</ele>
        <time>2021-03-20T11:20:23Z</time>
      </trkpt>
      <trkpt lat="41.2403780" lon="-8.5413030">
        <ele>124.4</ele>
        <time>2021-03-20T11:20:24Z</time>
      </trkpt>
      <trkpt lat="41.2404120" lon="-8.5412760">
        <ele>124.4</ele>
        <time>2021-03-20T11:20:25Z</time>
      </trkpt>
      <trkpt lat="41.2404490" lon="-8.5412470">
        <ele>124.4</ele>
        <time>2021-03-20T11:20:26Z</time>
      </trkpt>
      <trkpt lat="41.2404830" lon="-8.5412200">
        <ele>124.6</ele>
        <time>2021-03-20T11:20:27Z</time>
      </trkpt>
      <trkpt lat="41.2405170" lon="-8.5411870">
        <ele>124.6</ele>
        <time>2021-03-20T11:20:28Z</time>
      </trkpt>
      <trkpt lat="41.2405370" lon="-8.5411610">
        <ele>124.8</ele>
        <time>2021-03-20T11:20:29Z</time>
      </trkpt>
      <trkpt lat="41.2405650" lon="-8.5411310">
        <ele>124.8</ele>
        <time>2021-03-20T11:20:30Z</time>
      </trkpt>
      <trkpt lat="41.2405800" lon="-8.5410980">
        <ele>125.0</ele>
        <time>2021-03-20T11:20:31Z</time>
      </trkpt>
      <trkpt lat="41.2406140" lon="-8.5410690">
        <ele>125.0</ele>
        <time>2021-03-20T11:20:32Z</time>
      </trkpt>
      <trkpt lat="41.2406470" lon="-8.5410360">
        <ele>125.2</ele>
        <time>2021-03-20T11:20:33Z</time>
      </trkpt>
      <trkpt lat="41.2406880" lon="-8.5410050">
        <ele>125.2</ele>
        <time>2021-03-20T11:20:34Z</time>
      </trkpt>
      <trkpt lat="41.2407260" lon="-8.5409730">
        <ele>125.4</ele>
        <time>2021-03-20T11:20:35Z</time>
      </trkpt>
      <trkpt lat="41.2407600" lon="-8.5409430">
        <ele>125.6</ele>
        <time>2021-03-20T11:20:36Z</time>
      </trkpt>
      <trkpt lat="41.2407960" lon="-8.5409110">
        <ele>125.8</ele>
        <time>2021-03-20T11:20:37Z</time>
      </trkpt>
      <trkpt lat="41.2408310" lon="-8.5408810">
        <ele>125.8</ele>
        <time>2021-03-20T11:20:38Z</time>
      </trkpt>
      <trkpt lat="41.2408690" lon="-8.5408490">
        <ele>126.2</ele>
        <time>2021-03-20T11:20:39Z</time>
      </trkpt>
      <trkpt lat="41.2409040" lon="-8.5408180">
        <ele>126.6</ele>
        <time>2021-03-20T11:20:40Z</time>
      </trkpt>
      <trkpt lat="41.2409410" lon="-8.5407850">
        <ele>126.6</ele>
        <time>2021-03-20T11:20:41Z</time>
      </trkpt>
      <trkpt lat="41.2409750" lon="-8.5407520">
        <ele>126.6</ele>
        <time>2021-03-20T11:20:42Z</time>
      </trkpt>
      <trkpt lat="41.2410100" lon="-8.5407220">
        <ele>126.8</ele>
        <time>2021-03-20T11:20:43Z</time>
      </trkpt>
      <trkpt lat="41.2410450" lon="-8.5406880">
        <ele>126.8</ele>
        <time>2021-03-20T11:20:44Z</time>
      </trkpt>
      <trkpt lat="41.2410820" lon="-8.5406520">
        <ele>127.2</ele>
        <time>2021-03-20T11:20:45Z</time>
      </trkpt>
      <trkpt lat="41.2411290" lon="-8.5406100">
        <ele>127.2</ele>
        <time>2021-03-20T11:20:46Z</time>
      </trkpt>
      <trkpt lat="41.2411590" lon="-8.5405850">
        <ele>127.4</ele>
        <time>2021-03-20T11:20:47Z</time>
      </trkpt>
      <trkpt lat="41.2412010" lon="-8.5405500">
        <ele>127.6</ele>
        <time>2021-03-20T11:20:48Z</time>
      </trkpt>
      <trkpt lat="41.2412400" lon="-8.5405190">
        <ele>127.8</ele>
        <time>2021-03-20T11:20:49Z</time>
      </trkpt>
      <trkpt lat="41.2412780" lon="-8.5404900">
        <ele>127.8</ele>
        <time>2021-03-20T11:20:50Z</time>
      </trkpt>
      <trkpt lat="41.2413170" lon="-8.5404550">
        <ele>127.8</ele>
        <time>2021-03-20T11:20:51Z</time>
      </trkpt>
      <trkpt lat="41.2413600" lon="-8.5404220">
        <ele>128.0</ele>
        <time>2021-03-20T11:20:52Z</time>
      </trkpt>
      <trkpt lat="41.2413990" lon="-8.5403900">
        <ele>128.0</ele>
        <time>2021-03-20T11:20:53Z</time>
      </trkpt>
      <trkpt lat="41.2414390" lon="-8.5403580">
        <ele>127.8</ele>
        <time>2021-03-20T11:20:54Z</time>
      </trkpt>
      <trkpt lat="41.2414780" lon="-8.5403240">
        <ele>127.8</ele>
        <time>2021-03-20T11:20:55Z</time>
      </trkpt>
      <trkpt lat="41.2415180" lon="-8.5402920">
        <ele>127.8</ele>
        <time>2021-03-20T11:20:56Z</time>
      </trkpt>
      <trkpt lat="41.2415540" lon="-8.5402600">
        <ele>128.0</ele>
        <time>2021-03-20T11:20:57Z</time>
      </trkpt>
      <trkpt lat="41.2415920" lon="-8.5402300">
        <ele>128.0</ele>
        <time>2021-03-20T11:20:58Z</time>
      </trkpt>
      <trkpt lat="41.2416340" lon="-8.5402080">
        <ele>128.0</ele>
        <time>2021-03-20T11:20:59Z</time>
      </trkpt>
      <trkpt lat="41.2416790" lon="-8.5401810">
        <ele>128.0</ele>
        <time>2021-03-20T11:21:00Z</time>
      </trkpt>
      <trkpt lat="41.2417210" lon="-8.5401510">
        <ele>127.8</ele>
        <time>2021-03-20T11:21:01Z</time>
      </trkpt>
      <trkpt lat="41.2417590" lon="-8.5401230">
        <ele>127.6</ele>
        <time>2021-03-20T11:21:02Z</time>
      </trkpt>
      <trkpt lat="41.2417850" lon="-8.5401000">
        <ele>127.4</ele>
        <time>2021-03-20T11:21:03Z</time>
      </trkpt>
      <trkpt lat="41.2418240" lon="-8.5400740">
        <ele>127.2</ele>
        <time>2021-03-20T11:21:04Z</time>
      </trkpt>
      <trkpt lat="41.2418580" lon="-8.5400460">
        <ele>126.8</ele>
        <time>2021-03-20T11:21:05Z</time>
      </trkpt>
      <trkpt lat="41.2418880" lon="-8.5400200">
        <ele>126.6</ele>
        <time>2021-03-20T11:21:06Z</time>
      </trkpt>
      <trkpt lat="41.2419300" lon="-8.5399930">
        <ele>126.2</ele>
        <time>2021-03-20T11:21:07Z</time>
      </trkpt>
      <trkpt lat="41.2419680" lon="-8.5399590">
        <ele>126.0</ele>
        <time>2021-03-20T11:21:08Z</time>
      </trkpt>
      <trkpt lat="41.2420080" lon="-8.5399290">
        <ele>126.0</ele>
        <time>2021-03-20T11:21:09Z</time>
      </trkpt>
      <trkpt lat="41.2420580" lon="-8.5398990">
        <ele>125.8</ele>
        <time>2021-03-20T11:21:10Z</time>
      </trkpt>
      <trkpt lat="41.2421040" lon="-8.5398690">
        <ele>125.6</ele>
        <time>2021-03-20T11:21:11Z</time>
      </trkpt>
      <trkpt lat="41.2421650" lon="-8.5398280">
        <ele>125.0</ele>
        <time>2021-03-20T11:21:12Z</time>
      </trkpt>
      <trkpt lat="41.2422030" lon="-8.5398040">
        <ele>124.8</ele>
        <time>2021-03-20T11:21:13Z</time>
      </trkpt>
      <trkpt lat="41.2422560" lon="-8.5397670">
        <ele>124.8</ele>
        <time>2021-03-20T11:21:14Z</time>
      </trkpt>
      <trkpt lat="41.2423180" lon="-8.5397300">
        <ele>124.6</ele>
        <time>2021-03-20T11:21:15Z</time>
      </trkpt>
      <trkpt lat="41.2423770" lon="-8.5396930">
        <ele>124.2</ele>
        <time>2021-03-20T11:21:16Z</time>
      </trkpt>
      <trkpt lat="41.2424350" lon="-8.5396560">
        <ele>124.2</ele>
        <time>2021-03-20T11:21:17Z</time>
      </trkpt>
      <trkpt lat="41.2424950" lon="-8.5396200">
        <ele>124.2</ele>
        <time>2021-03-20T11:21:18Z</time>
      </trkpt>
      <trkpt lat="41.2425570" lon="-8.5395850">
        <ele>124.2</ele>
        <time>2021-03-20T11:21:19Z</time>
      </trkpt>
      <trkpt lat="41.2426190" lon="-8.5395440">
        <ele>124.2</ele>
        <time>2021-03-20T11:21:20Z</time>
      </trkpt>
      <trkpt lat="41.2426810" lon="-8.5395070">
        <ele>124.0</ele>
        <time>2021-03-20T11:21:21Z</time>
      </trkpt>
      <trkpt lat="41.2427450" lon="-8.5394710">
        <ele>124.0</ele>
        <time>2021-03-20T11:21:22Z</time>
      </trkpt>
      <trkpt lat="41.2428000" lon="-8.5394330">
        <ele>124.0</ele>
        <time>2021-03-20T11:21:23Z</time>
      </trkpt>
      <trkpt lat="41.2428540" lon="-8.5393990">
        <ele>124.0</ele>
        <time>2021-03-20T11:21:24Z</time>
      </trkpt>
      <trkpt lat="41.2429110" lon="-8.5393650">
        <ele>124.0</ele>
        <time>2021-03-20T11:21:25Z</time>
      </trkpt>
      <trkpt lat="41.2429730" lon="-8.5393290">
        <ele>124.0</ele>
        <time>2021-03-20T11:21:26Z</time>
      </trkpt>
      <trkpt lat="41.2430280" lon="-8.5393000">
        <ele>124.0</ele>
        <time>2021-03-20T11:21:27Z</time>
      </trkpt>
      <trkpt lat="41.2430820" lon="-8.5392720">
        <ele>124.2</ele>
        <time>2021-03-20T11:21:28Z</time>
      </trkpt>
      <trkpt lat="41.2431350" lon="-8.5392430">
        <ele>124.4</ele>
        <time>2021-03-20T11:21:29Z</time>
      </trkpt>
      <trkpt lat="41.2431840" lon="-8.5392150">
        <ele>125.0</ele>
        <time>2021-03-20T11:21:30Z</time>
      </trkpt>
      <trkpt lat="41.2432280" lon="-8.5391900">
        <ele>125.2</ele>
        <time>2021-03-20T11:21:31Z</time>
      </trkpt>
      <trkpt lat="41.2432760" lon="-8.5391650">
        <ele>125.0</ele>
        <time>2021-03-20T11:21:32Z</time>
      </trkpt>
      <trkpt lat="41.2433240" lon="-8.5391380">
        <ele>125.0</ele>
        <time>2021-03-20T11:21:33Z</time>
      </trkpt>
      <trkpt lat="41.2433700" lon="-8.5391100">
        <ele>124.8</ele>
        <time>2021-03-20T11:21:34Z</time>
      </trkpt>
      <trkpt lat="41.2434150" lon="-8.5390840">
        <ele>124.6</ele>
        <time>2021-03-20T11:21:35Z</time>
      </trkpt>
      <trkpt lat="41.2434500" lon="-8.5390640">
        <ele>124.4</ele>
        <time>2021-03-20T11:21:36Z</time>
      </trkpt>
      <trkpt lat="41.2435080" lon="-8.5390270">
        <ele>124.2</ele>
        <time>2021-03-20T11:21:37Z</time>
      </trkpt>
      <trkpt lat="41.2435550" lon="-8.5389990">
        <ele>124.0</ele>
        <time>2021-03-20T11:21:38Z</time>
      </trkpt>
      <trkpt lat="41.2436030" lon="-8.5389680">
        <ele>124.0</ele>
        <time>2021-03-20T11:21:39Z</time>
      </trkpt>
      <trkpt lat="41.2436560" lon="-8.5389400">
        <ele>123.8</ele>
        <time>2021-03-20T11:21:40Z</time>
      </trkpt>
      <trkpt lat="41.2436930" lon="-8.5389200">
        <ele>123.8</ele>
        <time>2021-03-20T11:21:41Z</time>
      </trkpt>
      <trkpt lat="41.2437620" lon="-8.5388790">
        <ele>123.4</ele>
        <time>2021-03-20T11:21:42Z</time>
      </trkpt>
      <trkpt lat="41.2438210" lon="-8.5388440">
        <ele>123.4</ele>
        <time>2021-03-20T11:21:43Z</time>
      </trkpt>
      <trkpt lat="41.2438720" lon="-8.5388100">
        <ele>123.2</ele>
        <time>2021-03-20T11:21:44Z</time>
      </trkpt>
      <trkpt lat="41.2439300" lon="-8.5387810">
        <ele>123.2</ele>
        <time>2021-03-20T11:21:45Z</time>
      </trkpt>
      <trkpt lat="41.2439890" lon="-8.5387460">
        <ele>123.0</ele>
        <time>2021-03-20T11:21:46Z</time>
      </trkpt>
      <trkpt lat="41.2440470" lon="-8.5387110">
        <ele>123.0</ele>
        <time>2021-03-20T11:21:47Z</time>
      </trkpt>
      <trkpt lat="41.2441090" lon="-8.5386730">
        <ele>123.0</ele>
        <time>2021-03-20T11:21:48Z</time>
      </trkpt>
      <trkpt lat="41.2441680" lon="-8.5386380">
        <ele>123.0</ele>
        <time>2021-03-20T11:21:49Z</time>
      </trkpt>
      <trkpt lat="41.2442260" lon="-8.5386110">
        <ele>123.0</ele>
        <time>2021-03-20T11:21:50Z</time>
      </trkpt>
      <trkpt lat="41.2442800" lon="-8.5385800">
        <ele>123.0</ele>
        <time>2021-03-20T11:21:51Z</time>
      </trkpt>
      <trkpt lat="41.2443370" lon="-8.5385440">
        <ele>123.0</ele>
        <time>2021-03-20T11:21:52Z</time>
      </trkpt>
      <trkpt lat="41.2443940" lon="-8.5385120">
        <ele>123.2</ele>
        <time>2021-03-20T11:21:53Z</time>
      </trkpt>
      <trkpt lat="41.2444510" lon="-8.5384810">
        <ele>123.0</ele>
        <time>2021-03-20T11:21:54Z</time>
      </trkpt>
      <trkpt lat="41.2445030" lon="-8.5384490">
        <ele>122.8</ele>
        <time>2021-03-20T11:21:55Z</time>
      </trkpt>
      <trkpt lat="41.2445560" lon="-8.5384190">
        <ele>123.0</ele>
        <time>2021-03-20T11:21:56Z</time>
      </trkpt>
      <trkpt lat="41.2446060" lon="-8.5383840">
        <ele>123.6</ele>
        <time>2021-03-20T11:21:57Z</time>
      </trkpt>
      <trkpt lat="41.2446570" lon="-8.5383560">
        <ele>124.2</ele>
        <time>2021-03-20T11:21:58Z</time>
      </trkpt>
      <trkpt lat="41.2447070" lon="-8.5383240">
        <ele>124.4</ele>
        <time>2021-03-20T11:21:59Z</time>
      </trkpt>
      <trkpt lat="41.2447570" lon="-8.5382930">
        <ele>124.6</ele>
        <time>2021-03-20T11:22:00Z</time>
      </trkpt>
      <trkpt lat="41.2448060" lon="-8.5382610">
        <ele>124.6</ele>
        <time>2021-03-20T11:22:01Z</time>
      </trkpt>
      <trkpt lat="41.2448540" lon="-8.5382340">
        <ele>125.0</ele>
        <time>2021-03-20T11:22:02Z</time>
      </trkpt>
      <trkpt lat="41.2449020" lon="-8.5382060">
        <ele>125.4</ele>
        <time>2021-03-20T11:22:03Z</time>
      </trkpt>
      <trkpt lat="41.2449490" lon="-8.5381790">
        <ele>125.6</ele>
        <time>2021-03-20T11:22:04Z</time>
      </trkpt>
      <trkpt lat="41.2449910" lon="-8.5381540">
        <ele>126.0</ele>
        <time>2021-03-20T11:22:05Z</time>
      </trkpt>
      <trkpt lat="41.2450320" lon="-8.5381290">
        <ele>126.2</ele>
        <time>2021-03-20T11:22:06Z</time>
      </trkpt>
      <trkpt lat="41.2450770" lon="-8.5380990">
        <ele>126.4</ele>
        <time>2021-03-20T11:22:07Z</time>
      </trkpt>
      <trkpt lat="41.2451150" lon="-8.5380910">
        <ele>126.6</ele>
        <time>2021-03-20T11:22:08Z</time>
      </trkpt>
      <trkpt lat="41.2451490" lon="-8.5380530">
        <ele>126.8</ele>
        <time>2021-03-20T11:22:09Z</time>
      </trkpt>
      <trkpt lat="41.2451930" lon="-8.5380300">
        <ele>127.0</ele>
        <time>2021-03-20T11:22:10Z</time>
      </trkpt>
      <trkpt lat="41.2452370" lon="-8.5380040">
        <ele>127.4</ele>
        <time>2021-03-20T11:22:11Z</time>
      </trkpt>
      <trkpt lat="41.2452670" lon="-8.5379900">
        <ele>127.6</ele>
        <time>2021-03-20T11:22:12Z</time>
      </trkpt>
      <trkpt lat="41.2452970" lon="-8.5379820">
        <ele>128.2</ele>
        <time>2021-03-20T11:22:13Z</time>
      </trkpt>
      <trkpt lat="41.2453380" lon="-8.5379650">
        <ele>128.4</ele>
        <time>2021-03-20T11:22:14Z</time>
      </trkpt>
      <trkpt lat="41.2453730" lon="-8.5379550">
        <ele>129.0</ele>
        <time>2021-03-20T11:22:15Z</time>
      </trkpt>
      <trkpt lat="41.2454140" lon="-8.5379400">
        <ele>129.2</ele>
        <time>2021-03-20T11:22:16Z</time>
      </trkpt>
      <trkpt lat="41.2454550" lon="-8.5379230">
        <ele>129.6</ele>
        <time>2021-03-20T11:22:17Z</time>
      </trkpt>
      <trkpt lat="41.2454870" lon="-8.5379160">
        <ele>129.8</ele>
        <time>2021-03-20T11:22:18Z</time>
      </trkpt>
      <trkpt lat="41.2455120" lon="-8.5379120">
        <ele>130.0</ele>
        <time>2021-03-20T11:22:19Z</time>
      </trkpt>
      <trkpt lat="41.2455220" lon="-8.5379110">
        <ele>130.2</ele>
        <time>2021-03-20T11:22:20Z</time>
      </trkpt>
      <trkpt lat="41.2455550" lon="-8.5379020">
        <ele>130.4</ele>
        <time>2021-03-20T11:22:21Z</time>
      </trkpt>
      <trkpt lat="41.2455820" lon="-8.5378950">
        <ele>130.8</ele>
        <time>2021-03-20T11:22:22Z</time>
      </trkpt>
      <trkpt lat="41.2456050" lon="-8.5378920">
        <ele>131.0</ele>
        <time>2021-03-20T11:22:23Z</time>
      </trkpt>
      <trkpt lat="41.2456290" lon="-8.5378880">
        <ele>131.2</ele>
        <time>2021-03-20T11:22:24Z</time>
      </trkpt>
      <trkpt lat="41.2456540" lon="-8.5378810">
        <ele>131.4</ele>
        <time>2021-03-20T11:22:25Z</time>
      </trkpt>
      <trkpt lat="41.2456750" lon="-8.5378720">
        <ele>131.6</ele>
        <time>2021-03-20T11:22:26Z</time>
      </trkpt>
      <trkpt lat="41.2456950" lon="-8.5378750">
        <ele>131.8</ele>
        <time>2021-03-20T11:22:27Z</time>
      </trkpt>
      <trkpt lat="41.2457380" lon="-8.5378800">
        <ele>132.0</ele>
        <time>2021-03-20T11:22:28Z</time>
      </trkpt>
      <trkpt lat="41.2457740" lon="-8.5378860">
        <ele>132.2</ele>
        <time>2021-03-20T11:22:29Z</time>
      </trkpt>
      <trkpt lat="41.2458050" lon="-8.5378920">
        <ele>132.6</ele>
        <time>2021-03-20T11:22:30Z</time>
      </trkpt>
      <trkpt lat="41.2458400" lon="-8.5379040">
        <ele>132.6</ele>
        <time>2021-03-20T11:22:31Z</time>
      </trkpt>
      <trkpt lat="41.2458630" lon="-8.5379120">
        <ele>132.8</ele>
        <time>2021-03-20T11:22:32Z</time>
      </trkpt>
      <trkpt lat="41.2458870" lon="-8.5379260">
        <ele>133.0</ele>
        <time>2021-03-20T11:22:33Z</time>
      </trkpt>
      <trkpt lat="41.2459250" lon="-8.5379390">
        <ele>133.2</ele>
        <time>2021-03-20T11:22:34Z</time>
      </trkpt>
      <trkpt lat="41.2459490" lon="-8.5379440">
        <ele>133.4</ele>
        <time>2021-03-20T11:22:35Z</time>
      </trkpt>
      <trkpt lat="41.2459810" lon="-8.5379570">
        <ele>133.8</ele>
        <time>2021-03-20T11:22:36Z</time>
      </trkpt>
      <trkpt lat="41.2460160" lon="-8.5379760">
        <ele>134.0</ele>
        <time>2021-03-20T11:22:37Z</time>
      </trkpt>
      <trkpt lat="41.2460440" lon="-8.5380010">
        <ele>134.2</ele>
        <time>2021-03-20T11:22:38Z</time>
      </trkpt>
      <trkpt lat="41.2460720" lon="-8.5380240">
        <ele>134.4</ele>
        <time>2021-03-20T11:22:39Z</time>
      </trkpt>
      <trkpt lat="41.2460900" lon="-8.5380390">
        <ele>134.6</ele>
        <time>2021-03-20T11:22:40Z</time>
      </trkpt>
      <trkpt lat="41.2461200" lon="-8.5380540">
        <ele>135.0</ele>
        <time>2021-03-20T11:22:41Z</time>
      </trkpt>
      <trkpt lat="41.2461430" lon="-8.5380780">
        <ele>135.2</ele>
        <time>2021-03-20T11:22:42Z</time>
      </trkpt>
      <trkpt lat="41.2461690" lon="-8.5380950">
        <ele>135.2</ele>
        <time>2021-03-20T11:22:43Z</time>
      </trkpt>
      <trkpt lat="41.2461950" lon="-8.5381250">
        <ele>135.4</ele>
        <time>2021-03-20T11:22:44Z</time>
      </trkpt>
      <trkpt lat="41.2462260" lon="-8.5381530">
        <ele>136.2</ele>
        <time>2021-03-20T11:22:45Z</time>
      </trkpt>
      <trkpt lat="41.2462470" lon="-8.5381750">
        <ele>136.2</ele>
        <time>2021-03-20T11:22:46Z</time>
      </trkpt>
      <trkpt lat="41.2462780" lon="-8.5382110">
        <ele>136.2</ele>
        <time>2021-03-20T11:22:47Z</time>
      </trkpt>
      <trkpt lat="41.2463000" lon="-8.5382300">
        <ele>136.2</ele>
        <time>2021-03-20T11:22:48Z</time>
      </trkpt>
      <trkpt lat="41.2463320" lon="-8.5382570">
        <ele>136.6</ele>
        <time>2021-03-20T11:22:49Z</time>
      </trkpt>
      <trkpt lat="41.2463620" lon="-8.5382930">
        <ele>136.6</ele>
        <time>2021-03-20T11:22:50Z</time>
      </trkpt>
      <trkpt lat="41.2463910" lon="-8.5383170">
        <ele>137.0</ele>
        <time>2021-03-20T11:22:51Z</time>
      </trkpt>
      <trkpt lat="41.2464130" lon="-8.5383380">
        <ele>137.2</ele>
        <time>2021-03-20T11:22:52Z</time>
      </trkpt>
      <trkpt lat="41.2464420" lon="-8.5383600">
        <ele>137.4</ele>
        <time>2021-03-20T11:22:53Z</time>
      </trkpt>
      <trkpt lat="41.2464820" lon="-8.5383820">
        <ele>137.6</ele>
        <time>2021-03-20T11:22:54Z</time>
      </trkpt>
      <trkpt lat="41.2465020" lon="-8.5384000">
        <ele>138.0</ele>
        <time>2021-03-20T11:22:55Z</time>
      </trkpt>
      <trkpt lat="41.2465460" lon="-8.5384290">
        <ele>138.2</ele>
        <time>2021-03-20T11:22:56Z</time>
      </trkpt>
      <trkpt lat="41.2465750" lon="-8.5384430">
        <ele>138.4</ele>
        <time>2021-03-20T11:22:57Z</time>
      </trkpt>
      <trkpt lat="41.2465990" lon="-8.5384520">
        <ele>138.6</ele>
        <time>2021-03-20T11:22:58Z</time>
      </trkpt>
      <trkpt lat="41.2466360" lon="-8.5384620">
        <ele>138.8</ele>
        <time>2021-03-20T11:22:59Z</time>
      </trkpt>
      <trkpt lat="41.2466780" lon="-8.5384770">
        <ele>139.0</ele>
        <time>2021-03-20T11:23:00Z</time>
      </trkpt>
      <trkpt lat="41.2466970" lon="-8.5384930">
        <ele>139.0</ele>
        <time>2021-03-20T11:23:01Z</time>
      </trkpt>
      <trkpt lat="41.2467270" lon="-8.5385050">
        <ele>139.4</ele>
        <time>2021-03-20T11:23:02Z</time>
      </trkpt>
      <trkpt lat="41.2467680" lon="-8.5385160">
        <ele>139.6</ele>
        <time>2021-03-20T11:23:03Z</time>
      </trkpt>
      <trkpt lat="41.2467990" lon="-8.5385190">
        <ele>139.6</ele>
        <time>2021-03-20T11:23:04Z</time>
      </trkpt>
      <trkpt lat="41.2468160" lon="-8.5385230">
        <ele>140.0</ele>
        <time>2021-03-20T11:23:05Z</time>
      </trkpt>
      <trkpt lat="41.2468430" lon="-8.5385190">
        <ele>140.4</ele>
        <time>2021-03-20T11:23:06Z</time>
      </trkpt>
      <trkpt lat="41.2468760" lon="-8.5385090">
        <ele>140.8</ele>
        <time>2021-03-20T11:23:07Z</time>
      </trkpt>
      <trkpt lat="41.2469070" lon="-8.5385020">
        <ele>141.0</ele>
        <time>2021-03-20T11:23:08Z</time>
      </trkpt>
      <trkpt lat="41.2469400" lon="-8.5384930">
        <ele>141.2</ele>
        <time>2021-03-20T11:23:09Z</time>
      </trkpt>
      <trkpt lat="41.2469780" lon="-8.5384840">
        <ele>141.2</ele>
        <time>2021-03-20T11:23:10Z</time>
      </trkpt>
      <trkpt lat="41.2470010" lon="-8.5384810">
        <ele>141.2</ele>
        <time>2021-03-20T11:23:11Z</time>
      </trkpt>
      <trkpt lat="41.2470350" lon="-8.5384760">
        <ele>141.6</ele>
        <time>2021-03-20T11:23:12Z</time>
      </trkpt>
      <trkpt lat="41.2470750" lon="-8.5384650">
        <ele>141.8</ele>
        <time>2021-03-20T11:23:13Z</time>
      </trkpt>
      <trkpt lat="41.2471120" lon="-8.5384580">
        <ele>142.2</ele>
        <time>2021-03-20T11:23:14Z</time>
      </trkpt>
      <trkpt lat="41.2471370" lon="-8.5384470">
        <ele>142.4</ele>
        <time>2021-03-20T11:23:15Z</time>
      </trkpt>
      <trkpt lat="41.2471790" lon="-8.5384290">
        <ele>142.6</ele>
        <time>2021-03-20T11:23:16Z</time>
      </trkpt>
      <trkpt lat="41.2472050" lon="-8.5384160">
        <ele>142.6</ele>
        <time>2021-03-20T11:23:17Z</time>
      </trkpt>
      <trkpt lat="41.2472330" lon="-8.5384030">
        <ele>142.8</ele>
        <time>2021-03-20T11:23:18Z</time>
      </trkpt>
      <trkpt lat="41.2472630" lon="-8.5383890">
        <ele>143.0</ele>
        <time>2021-03-20T11:23:19Z</time>
      </trkpt>
      <trkpt lat="41.2472930" lon="-8.5383750">
        <ele>143.2</ele>
        <time>2021-03-20T11:23:20Z</time>
      </trkpt>
      <trkpt lat="41.2473100" lon="-8.5383630">
        <ele>143.6</ele>
        <time>2021-03-20T11:23:21Z</time>
      </trkpt>
      <trkpt lat="41.2473480" lon="-8.5383530">
        <ele>143.6</ele>
        <time>2021-03-20T11:23:22Z</time>
      </trkpt>
      <trkpt lat="41.2473870" lon="-8.5383340">
        <ele>143.8</ele>
        <time>2021-03-20T11:23:23Z</time>
      </trkpt>
      <trkpt lat="41.2474070" lon="-8.5383240">
        <ele>144.2</ele>
        <time>2021-03-20T11:23:24Z</time>
      </trkpt>
      <trkpt lat="41.2474380" lon="-8.5383120">
        <ele>144.4</ele>
        <time>2021-03-20T11:23:25Z</time>
      </trkpt>
      <trkpt lat="41.2474720" lon="-8.5382930">
        <ele>144.6</ele>
        <time>2021-03-20T11:23:26Z</time>
      </trkpt>
      <trkpt lat="41.2475030" lon="-8.5382750">
        <ele>144.8</ele>
        <time>2021-03-20T11:23:27Z</time>
      </trkpt>
      <trkpt lat="41.2475190" lon="-8.5382690">
        <ele>145.0</ele>
        <time>2021-03-20T11:23:28Z</time>
      </trkpt>
      <trkpt lat="41.2475460" lon="-8.5382570">
        <ele>145.2</ele>
        <time>2021-03-20T11:23:29Z</time>
      </trkpt>
      <trkpt lat="41.2475690" lon="-8.5382480">
        <ele>145.4</ele>
        <time>2021-03-20T11:23:30Z</time>
      </trkpt>
      <trkpt lat="41.2475890" lon="-8.5382430">
        <ele>145.6</ele>
        <time>2021-03-20T11:23:31Z</time>
      </trkpt>
      <trkpt lat="41.2475990" lon="-8.5382350">
        <ele>145.8</ele>
        <time>2021-03-20T11:23:32Z</time>
      </trkpt>
      <trkpt lat="41.2476260" lon="-8.5382170">
        <ele>146.2</ele>
        <time>2021-03-20T11:23:33Z</time>
      </trkpt>
      <trkpt lat="41.2476420" lon="-8.5382010">
        <ele>146.6</ele>
        <time>2021-03-20T11:23:34Z</time>
      </trkpt>
      <trkpt lat="41.2476670" lon="-8.5381890">
        <ele>146.8</ele>
        <time>2021-03-20T11:23:35Z</time>
      </trkpt>
      <trkpt lat="41.2476910" lon="-8.5381730">
        <ele>147.0</ele>
        <time>2021-03-20T11:23:36Z</time>
      </trkpt>
      <trkpt lat="41.2477130" lon="-8.5381530">
        <ele>147.0</ele>
        <time>2021-03-20T11:23:37Z</time>
      </trkpt>
      <trkpt lat="41.2477430" lon="-8.5381350">
        <ele>147.0</ele>
        <time>2021-03-20T11:23:38Z</time>
      </trkpt>
      <trkpt lat="41.2477820" lon="-8.5381090">
        <ele>147.2</ele>
        <time>2021-03-20T11:23:39Z</time>
      </trkpt>
      <trkpt lat="41.2478120" lon="-8.5380840">
        <ele>147.4</ele>
        <time>2021-03-20T11:23:40Z</time>
      </trkpt>
      <trkpt lat="41.2478350" lon="-8.5380680">
        <ele>147.8</ele>
        <time>2021-03-20T11:23:41Z</time>
      </trkpt>
      <trkpt lat="41.2478660" lon="-8.5380430">
        <ele>148.0</ele>
        <time>2021-03-20T11:23:42Z</time>
      </trkpt>
      <trkpt lat="41.2478940" lon="-8.5380270">
        <ele>148.2</ele>
        <time>2021-03-20T11:23:43Z</time>
      </trkpt>
      <trkpt lat="41.2479150" lon="-8.5380000">
        <ele>148.6</ele>
        <time>2021-03-20T11:23:44Z</time>
      </trkpt>
      <trkpt lat="41.2479420" lon="-8.5379690">
        <ele>148.8</ele>
        <time>2021-03-20T11:23:45Z</time>
      </trkpt>
      <trkpt lat="41.2479720" lon="-8.5379350">
        <ele>149.0</ele>
        <time>2021-03-20T11:23:46Z</time>
      </trkpt>
      <trkpt lat="41.2479940" lon="-8.5379140">
        <ele>149.2</ele>
        <time>2021-03-20T11:23:47Z</time>
      </trkpt>
      <trkpt lat="41.2480050" lon="-8.5378910">
        <ele>149.6</ele>
        <time>2021-03-20T11:23:48Z</time>
      </trkpt>
      <trkpt lat="41.2480290" lon="-8.5378540">
        <ele>149.8</ele>
        <time>2021-03-20T11:23:49Z</time>
      </trkpt>
      <trkpt lat="41.2480480" lon="-8.5378190">
        <ele>150.4</ele>
        <time>2021-03-20T11:23:50Z</time>
      </trkpt>
      <trkpt lat="41.2480640" lon="-8.5377890">
        <ele>150.6</ele>
        <time>2021-03-20T11:23:51Z</time>
      </trkpt>
      <trkpt lat="41.2480790" lon="-8.5377550">
        <ele>150.8</ele>
        <time>2021-03-20T11:23:52Z</time>
      </trkpt>
      <trkpt lat="41.2480910" lon="-8.5377240">
        <ele>150.8</ele>
        <time>2021-03-20T11:23:53Z</time>
      </trkpt>
      <trkpt lat="41.2481110" lon="-8.5376870">
        <ele>151.0</ele>
        <time>2021-03-20T11:23:54Z</time>
      </trkpt>
      <trkpt lat="41.2481350" lon="-8.5376510">
        <ele>151.4</ele>
        <time>2021-03-20T11:23:55Z</time>
      </trkpt>
      <trkpt lat="41.2481530" lon="-8.5376150">
        <ele>151.6</ele>
        <time>2021-03-20T11:23:56Z</time>
      </trkpt>
      <trkpt lat="41.2481740" lon="-8.5375750">
        <ele>152.0</ele>
        <time>2021-03-20T11:23:57Z</time>
      </trkpt>
      <trkpt lat="41.2481920" lon="-8.5375370">
        <ele>152.6</ele>
        <time>2021-03-20T11:23:58Z</time>
      </trkpt>
      <trkpt lat="41.2482160" lon="-8.5374890">
        <ele>152.6</ele>
        <time>2021-03-20T11:23:59Z</time>
      </trkpt>
      <trkpt lat="41.2482340" lon="-8.5374590">
        <ele>152.6</ele>
        <time>2021-03-20T11:24:00Z</time>
      </trkpt>
      <trkpt lat="41.2482450" lon="-8.5374410">
        <ele>152.6</ele>
        <time>2021-03-20T11:24:01Z</time>
      </trkpt>
      <trkpt lat="41.2482620" lon="-8.5374050">
        <ele>152.8</ele>
        <time>2021-03-20T11:24:02Z</time>
      </trkpt>
      <trkpt lat="41.2482780" lon="-8.5373730">
        <ele>153.0</ele>
        <time>2021-03-20T11:24:03Z</time>
      </trkpt>
      <trkpt lat="41.2482890" lon="-8.5373470">
        <ele>153.4</ele>
        <time>2021-03-20T11:24:04Z</time>
      </trkpt>
      <trkpt lat="41.2483060" lon="-8.5372970">
        <ele>153.6</ele>
        <time>2021-03-20T11:24:05Z</time>
      </trkpt>
      <trkpt lat="41.2483230" lon="-8.5372620">
        <ele>153.8</ele>
        <time>2021-03-20T11:24:06Z</time>
      </trkpt>
      <trkpt lat="41.2483390" lon="-8.5372260">
        <ele>154.0</ele>
        <time>2021-03-20T11:24:07Z</time>
      </trkpt>
      <trkpt lat="41.2483490" lon="-8.5372000">
        <ele>154.2</ele>
        <time>2021-03-20T11:24:08Z</time>
      </trkpt>
      <trkpt lat="41.2483640" lon="-8.5371590">
        <ele>154.4</ele>
        <time>2021-03-20T11:24:09Z</time>
      </trkpt>
      <trkpt lat="41.2483830" lon="-8.5371300">
        <ele>154.8</ele>
        <time>2021-03-20T11:24:10Z</time>
      </trkpt>
      <trkpt lat="41.2483990" lon="-8.5370940">
        <ele>155.0</ele>
        <time>2021-03-20T11:24:11Z</time>
      </trkpt>
      <trkpt lat="41.2484230" lon="-8.5370560">
        <ele>155.0</ele>
        <time>2021-03-20T11:24:12Z</time>
      </trkpt>
      <trkpt lat="41.2484390" lon="-8.5370280">
        <ele>155.4</ele>
        <time>2021-03-20T11:24:13Z</time>
      </trkpt>
      <trkpt lat="41.2484580" lon="-8.5370030">
        <ele>155.6</ele>
        <time>2021-03-20T11:24:14Z</time>
      </trkpt>
      <trkpt lat="41.2484720" lon="-8.5369670">
        <ele>155.8</ele>
        <time>2021-03-20T11:24:15Z</time>
      </trkpt>
      <trkpt lat="41.2484860" lon="-8.5369430">
        <ele>156.0</ele>
        <time>2021-03-20T11:24:16Z</time>
      </trkpt>
      <trkpt lat="41.2485020" lon="-8.5369150">
        <ele>156.0</ele>
        <time>2021-03-20T11:24:17Z</time>
      </trkpt>
      <trkpt lat="41.2485180" lon="-8.5368850">
        <ele>156.4</ele>
        <time>2021-03-20T11:24:18Z</time>
      </trkpt>
      <trkpt lat="41.2485430" lon="-8.5368660">
        <ele>156.6</ele>
        <time>2021-03-20T11:24:19Z</time>
      </trkpt>
      <trkpt lat="41.2485730" lon="-8.5368440">
        <ele>156.8</ele>
        <time>2021-03-20T11:24:20Z</time>
      </trkpt>
      <trkpt lat="41.2485930" lon="-8.5368270">
        <ele>157.2</ele>
        <time>2021-03-20T11:24:21Z</time>
      </trkpt>
      <trkpt lat="41.2486170" lon="-8.5368050">
        <ele>157.2</ele>
        <time>2021-03-20T11:24:22Z</time>
      </trkpt>
      <trkpt lat="41.2486360" lon="-8.5367820">
        <ele>157.2</ele>
        <time>2021-03-20T11:24:23Z</time>
      </trkpt>
      <trkpt lat="41.2486570" lon="-8.5367640">
        <ele>157.6</ele>
        <time>2021-03-20T11:24:24Z</time>
      </trkpt>
      <trkpt lat="41.2486890" lon="-8.5367230">
        <ele>157.8</ele>
        <time>2021-03-20T11:24:25Z</time>
      </trkpt>
      <trkpt lat="41.2487180" lon="-8.5366950">
        <ele>157.6</ele>
        <time>2021-03-20T11:24:26Z</time>
      </trkpt>
      <trkpt lat="41.2487460" lon="-8.5366730">
        <ele>158.0</ele>
        <time>2021-03-20T11:24:27Z</time>
      </trkpt>
      <trkpt lat="41.2487620" lon="-8.5366510">
        <ele>158.2</ele>
        <time>2021-03-20T11:24:28Z</time>
      </trkpt>
      <trkpt lat="41.2487880" lon="-8.5366230">
        <ele>158.4</ele>
        <time>2021-03-20T11:24:29Z</time>
      </trkpt>
      <trkpt lat="41.2488100" lon="-8.5365940">
        <ele>158.6</ele>
        <time>2021-03-20T11:24:30Z</time>
      </trkpt>
      <trkpt lat="41.2488460" lon="-8.5365630">
        <ele>158.8</ele>
        <time>2021-03-20T11:24:31Z</time>
      </trkpt>
      <trkpt lat="41.2488750" lon="-8.5365370">
        <ele>159.0</ele>
        <time>2021-03-20T11:24:32Z</time>
      </trkpt>
      <trkpt lat="41.2488930" lon="-8.5365160">
        <ele>159.0</ele>
        <time>2021-03-20T11:24:33Z</time>
      </trkpt>
      <trkpt lat="41.2489210" lon="-8.5364890">
        <ele>159.4</ele>
        <time>2021-03-20T11:24:34Z</time>
      </trkpt>
      <trkpt lat="41.2489480" lon="-8.5364640">
        <ele>159.6</ele>
        <time>2021-03-20T11:24:35Z</time>
      </trkpt>
      <trkpt lat="41.2489700" lon="-8.5364410">
        <ele>159.6</ele>
        <time>2021-03-20T11:24:36Z</time>
      </trkpt>
      <trkpt lat="41.2489990" lon="-8.5364170">
        <ele>159.6</ele>
        <time>2021-03-20T11:24:37Z</time>
      </trkpt>
      <trkpt lat="41.2490490" lon="-8.5363650">
        <ele>160.2</ele>
        <time>2021-03-20T11:24:39Z</time>
      </trkpt>
      <trkpt lat="41.2490690" lon="-8.5363390">
        <ele>160.8</ele>
        <time>2021-03-20T11:24:40Z</time>
      </trkpt>
      <trkpt lat="41.2490840" lon="-8.5363190">
        <ele>161.0</ele>
        <time>2021-03-20T11:24:41Z</time>
      </trkpt>
      <trkpt lat="41.2491030" lon="-8.5362950">
        <ele>161.2</ele>
        <time>2021-03-20T11:24:42Z</time>
      </trkpt>
      <trkpt lat="41.2491530" lon="-8.5362400">
        <ele>161.4</ele>
        <time>2021-03-20T11:24:44Z</time>
      </trkpt>
      <trkpt lat="41.2491860" lon="-8.5362070">
        <ele>162.2</ele>
        <time>2021-03-20T11:24:45Z</time>
      </trkpt>
      <trkpt lat="41.2492300" lon="-8.5361660">
        <ele>162.4</ele>
        <time>2021-03-20T11:24:47Z</time>
      </trkpt>
      <trkpt lat="41.2492750" lon="-8.5361200">
        <ele>162.6</ele>
        <time>2021-03-20T11:24:48Z</time>
      </trkpt>
      <trkpt lat="41.2493000" lon="-8.5360900">
        <ele>163.0</ele>
        <time>2021-03-20T11:24:49Z</time>
      </trkpt>
      <trkpt lat="41.2493280" lon="-8.5360700">
        <ele>163.2</ele>
        <time>2021-03-20T11:24:50Z</time>
      </trkpt>
      <trkpt lat="41.2493440" lon="-8.5360500">
        <ele>163.6</ele>
        <time>2021-03-20T11:24:52Z</time>
      </trkpt>
      <trkpt lat="41.2493860" lon="-8.5359960">
        <ele>164.0</ele>
        <time>2021-03-20T11:24:53Z</time>
      </trkpt>
      <trkpt lat="41.2494310" lon="-8.5359320">
        <ele>164.2</ele>
        <time>2021-03-20T11:24:55Z</time>
      </trkpt>
      <trkpt lat="41.2494490" lon="-8.5359000">
        <ele>164.6</ele>
        <time>2021-03-20T11:24:56Z</time>
      </trkpt>
      <trkpt lat="41.2494680" lon="-8.5358730">
        <ele>165.0</ele>
        <time>2021-03-20T11:24:58Z</time>
      </trkpt>
      <trkpt lat="41.2495010" lon="-8.5358140">
        <ele>165.4</ele>
        <time>2021-03-20T11:25:00Z</time>
      </trkpt>
      <trkpt lat="41.2495300" lon="-8.5357490">
        <ele>165.8</ele>
        <time>2021-03-20T11:25:02Z</time>
      </trkpt>
      <trkpt lat="41.2495570" lon="-8.5356900">
        <ele>166.2</ele>
        <time>2021-03-20T11:25:03Z</time>
      </trkpt>
      <trkpt lat="41.2495780" lon="-8.5356390">
        <ele>166.6</ele>
        <time>2021-03-20T11:25:05Z</time>
      </trkpt>
      <trkpt lat="41.2495840" lon="-8.5356030">
        <ele>167.0</ele>
        <time>2021-03-20T11:25:06Z</time>
      </trkpt>
      <trkpt lat="41.2495870" lon="-8.5355680">
        <ele>167.0</ele>
        <time>2021-03-20T11:25:08Z</time>
      </trkpt>
      <trkpt lat="41.2495970" lon="-8.5355040">
        <ele>167.8</ele>
        <time>2021-03-20T11:25:09Z</time>
      </trkpt>
      <trkpt lat="41.2496090" lon="-8.5354620">
        <ele>168.2</ele>
        <time>2021-03-20T11:25:11Z</time>
      </trkpt>
      <trkpt lat="41.2496180" lon="-8.5353920">
        <ele>168.4</ele>
        <time>2021-03-20T11:25:13Z</time>
      </trkpt>
      <trkpt lat="41.2496270" lon="-8.5353210">
        <ele>169.0</ele>
        <time>2021-03-20T11:25:15Z</time>
      </trkpt>
      <trkpt lat="41.2496290" lon="-8.5352460">
        <ele>169.6</ele>
        <time>2021-03-20T11:25:17Z</time>
      </trkpt>
      <trkpt lat="41.2496310" lon="-8.5351710">
        <ele>170.0</ele>
        <time>2021-03-20T11:25:18Z</time>
      </trkpt>
      <trkpt lat="41.2496300" lon="-8.5351230">
        <ele>170.2</ele>
        <time>2021-03-20T11:25:19Z</time>
      </trkpt>
      <trkpt lat="41.2496320" lon="-8.5350850">
        <ele>170.4</ele>
        <time>2021-03-20T11:25:21Z</time>
      </trkpt>
      <trkpt lat="41.2496230" lon="-8.5350200">
        <ele>171.0</ele>
        <time>2021-03-20T11:25:22Z</time>
      </trkpt>
      <trkpt lat="41.2496230" lon="-8.5349830">
        <ele>171.4</ele>
        <time>2021-03-20T11:25:24Z</time>
      </trkpt>
      <trkpt lat="41.2496160" lon="-8.5349150">
        <ele>172.0</ele>
        <time>2021-03-20T11:25:25Z</time>
      </trkpt>
      <trkpt lat="41.2496070" lon="-8.5348730">
        <ele>172.2</ele>
        <time>2021-03-20T11:25:27Z</time>
      </trkpt>
      <trkpt lat="41.2495730" lon="-8.5347550">
        <ele>172.8</ele>
        <time>2021-03-20T11:25:29Z</time>
      </trkpt>
      <trkpt lat="41.2495580" lon="-8.5346830">
        <ele>173.6</ele>
        <time>2021-03-20T11:25:31Z</time>
      </trkpt>
      <trkpt lat="41.2495650" lon="-8.5345850">
        <ele>174.2</ele>
        <time>2021-03-20T11:25:33Z</time>
      </trkpt>
      <trkpt lat="41.2495270" lon="-8.5345360">
        <ele>174.6</ele>
        <time>2021-03-20T11:25:35Z</time>
      </trkpt>
      <trkpt lat="41.2495250" lon="-8.5344330">
        <ele>175.0</ele>
        <time>2021-03-20T11:25:36Z</time>
      </trkpt>
      <trkpt lat="41.2495140" lon="-8.5343800">
        <ele>175.2</ele>
        <time>2021-03-20T11:25:38Z</time>
      </trkpt>
      <trkpt lat="41.2495200" lon="-8.5343060">
        <ele>175.6</ele>
        <time>2021-03-20T11:25:39Z</time>
      </trkpt>
      <trkpt lat="41.2495270" lon="-8.5342580">
        <ele>175.6</ele>
        <time>2021-03-20T11:25:41Z</time>
      </trkpt>
      <trkpt lat="41.2495440" lon="-8.5341880">
        <ele>175.6</ele>
        <time>2021-03-20T11:25:42Z</time>
      </trkpt>
      <trkpt lat="41.2495580" lon="-8.5341680">
        <ele>175.8</ele>
        <time>2021-03-20T11:25:44Z</time>
      </trkpt>
      <trkpt lat="41.2495760" lon="-8.5340900">
        <ele>176.2</ele>
        <time>2021-03-20T11:25:45Z</time>
      </trkpt>
      <trkpt lat="41.2495860" lon="-8.5340640">
        <ele>176.2</ele>
        <time>2021-03-20T11:25:47Z</time>
      </trkpt>
      <trkpt lat="41.2496200" lon="-8.5340090">
        <ele>176.6</ele>
        <time>2021-03-20T11:25:49Z</time>
      </trkpt>
      <trkpt lat="41.2496610" lon="-8.5339690">
        <ele>177.0</ele>
        <time>2021-03-20T11:25:51Z</time>
      </trkpt>
      <trkpt lat="41.2496760" lon="-8.5339550">
        <ele>177.2</ele>
        <time>2021-03-20T11:25:52Z</time>
      </trkpt>
      <trkpt lat="41.2497210" lon="-8.5339180">
        <ele>177.6</ele>
        <time>2021-03-20T11:25:54Z</time>
      </trkpt>
      <trkpt lat="41.2497420" lon="-8.5339050">
        <ele>178.0</ele>
        <time>2021-03-20T11:25:55Z</time>
      </trkpt>
      <trkpt lat="41.2497910" lon="-8.5338720">
        <ele>178.4</ele>
        <time>2021-03-20T11:25:57Z</time>
      </trkpt>
      <trkpt lat="41.2498100" lon="-8.5338680">
        <ele>178.8</ele>
        <time>2021-03-20T11:25:58Z</time>
      </trkpt>
      <trkpt lat="41.2498310" lon="-8.5338610">
        <ele>179.0</ele>
        <time>2021-03-20T11:25:59Z</time>
      </trkpt>
      <trkpt lat="41.2498510" lon="-8.5338470">
        <ele>179.2</ele>
        <time>2021-03-20T11:26:00Z</time>
      </trkpt>
      <trkpt lat="41.2498740" lon="-8.5338380">
        <ele>179.4</ele>
        <time>2021-03-20T11:26:01Z</time>
      </trkpt>
      <trkpt lat="41.2498910" lon="-8.5338290">
        <ele>179.8</ele>
        <time>2021-03-20T11:26:02Z</time>
      </trkpt>
      <trkpt lat="41.2499130" lon="-8.5338300">
        <ele>180.0</ele>
        <time>2021-03-20T11:26:03Z</time>
      </trkpt>
      <trkpt lat="41.2499250" lon="-8.5338180">
        <ele>180.2</ele>
        <time>2021-03-20T11:26:04Z</time>
      </trkpt>
      <trkpt lat="41.2499390" lon="-8.5337930">
        <ele>180.6</ele>
        <time>2021-03-20T11:26:05Z</time>
      </trkpt>
      <trkpt lat="41.2499590" lon="-8.5337890">
        <ele>180.8</ele>
        <time>2021-03-20T11:26:06Z</time>
      </trkpt>
      <trkpt lat="41.2499890" lon="-8.5337940">
        <ele>181.0</ele>
        <time>2021-03-20T11:26:07Z</time>
      </trkpt>
      <trkpt lat="41.2500160" lon="-8.5338000">
        <ele>181.2</ele>
        <time>2021-03-20T11:26:08Z</time>
      </trkpt>
      <trkpt lat="41.2500400" lon="-8.5337900">
        <ele>181.4</ele>
        <time>2021-03-20T11:26:09Z</time>
      </trkpt>
      <trkpt lat="41.2500720" lon="-8.5338080">
        <ele>181.6</ele>
        <time>2021-03-20T11:26:10Z</time>
      </trkpt>
      <trkpt lat="41.2501060" lon="-8.5338040">
        <ele>181.8</ele>
        <time>2021-03-20T11:26:11Z</time>
      </trkpt>
      <trkpt lat="41.2501300" lon="-8.5338000">
        <ele>182.0</ele>
        <time>2021-03-20T11:26:12Z</time>
      </trkpt>
      <trkpt lat="41.2501590" lon="-8.5338060">
        <ele>182.2</ele>
        <time>2021-03-20T11:26:13Z</time>
      </trkpt>
      <trkpt lat="41.2501860" lon="-8.5338110">
        <ele>182.4</ele>
        <time>2021-03-20T11:26:14Z</time>
      </trkpt>
      <trkpt lat="41.2502090" lon="-8.5338150">
        <ele>182.6</ele>
        <time>2021-03-20T11:26:15Z</time>
      </trkpt>
      <trkpt lat="41.2502470" lon="-8.5338310">
        <ele>182.6</ele>
        <time>2021-03-20T11:26:16Z</time>
      </trkpt>
      <trkpt lat="41.2502790" lon="-8.5338480">
        <ele>182.8</ele>
        <time>2021-03-20T11:26:17Z</time>
      </trkpt>
      <trkpt lat="41.2503070" lon="-8.5338670">
        <ele>183.2</ele>
        <time>2021-03-20T11:26:18Z</time>
      </trkpt>
      <trkpt lat="41.2503320" lon="-8.5338850">
        <ele>183.2</ele>
        <time>2021-03-20T11:26:19Z</time>
      </trkpt>
      <trkpt lat="41.2503610" lon="-8.5339130">
        <ele>183.4</ele>
        <time>2021-03-20T11:26:20Z</time>
      </trkpt>
      <trkpt lat="41.2503880" lon="-8.5339370">
        <ele>183.6</ele>
        <time>2021-03-20T11:26:21Z</time>
      </trkpt>
      <trkpt lat="41.2504150" lon="-8.5339610">
        <ele>183.8</ele>
        <time>2021-03-20T11:26:22Z</time>
      </trkpt>
      <trkpt lat="41.2504430" lon="-8.5339910">
        <ele>184.2</ele>
        <time>2021-03-20T11:26:23Z</time>
      </trkpt>
      <trkpt lat="41.2504670" lon="-8.5340140">
        <ele>184.4</ele>
        <time>2021-03-20T11:26:24Z</time>
      </trkpt>
      <trkpt lat="41.2504940" lon="-8.5340400">
        <ele>184.6</ele>
        <time>2021-03-20T11:26:25Z</time>
      </trkpt>
      <trkpt lat="41.2505190" lon="-8.5340630">
        <ele>185.0</ele>
        <time>2021-03-20T11:26:26Z</time>
      </trkpt>
      <trkpt lat="41.2505500" lon="-8.5340850">
        <ele>185.2</ele>
        <time>2021-03-20T11:26:27Z</time>
      </trkpt>
      <trkpt lat="41.2505800" lon="-8.5341050">
        <ele>185.4</ele>
        <time>2021-03-20T11:26:28Z</time>
      </trkpt>
      <trkpt lat="41.2506150" lon="-8.5341300">
        <ele>185.8</ele>
        <time>2021-03-20T11:26:29Z</time>
      </trkpt>
      <trkpt lat="41.2506400" lon="-8.5341500">
        <ele>186.0</ele>
        <time>2021-03-20T11:26:30Z</time>
      </trkpt>
      <trkpt lat="41.2506710" lon="-8.5341670">
        <ele>186.2</ele>
        <time>2021-03-20T11:26:31Z</time>
      </trkpt>
      <trkpt lat="41.2506990" lon="-8.5341850">
        <ele>186.4</ele>
        <time>2021-03-20T11:26:32Z</time>
      </trkpt>
      <trkpt lat="41.2507250" lon="-8.5341950">
        <ele>186.6</ele>
        <time>2021-03-20T11:26:33Z</time>
      </trkpt>
      <trkpt lat="41.2507500" lon="-8.5342040">
        <ele>186.8</ele>
        <time>2021-03-20T11:26:34Z</time>
      </trkpt>
      <trkpt lat="41.2507700" lon="-8.5342150">
        <ele>187.2</ele>
        <time>2021-03-20T11:26:35Z</time>
      </trkpt>
      <trkpt lat="41.2507970" lon="-8.5342290">
        <ele>187.4</ele>
        <time>2021-03-20T11:26:36Z</time>
      </trkpt>
      <trkpt lat="41.2508180" lon="-8.5342460">
        <ele>187.6</ele>
        <time>2021-03-20T11:26:37Z</time>
      </trkpt>
      <trkpt lat="41.2508430" lon="-8.5342510">
        <ele>187.8</ele>
        <time>2021-03-20T11:26:38Z</time>
      </trkpt>
      <trkpt lat="41.2508750" lon="-8.5342450">
        <ele>187.8</ele>
        <time>2021-03-20T11:26:39Z</time>
      </trkpt>
      <trkpt lat="41.2508970" lon="-8.5342500">
        <ele>188.0</ele>
        <time>2021-03-20T11:26:40Z</time>
      </trkpt>
      <trkpt lat="41.2509210" lon="-8.5342670">
        <ele>188.2</ele>
        <time>2021-03-20T11:26:41Z</time>
      </trkpt>
      <trkpt lat="41.2509400" lon="-8.5342540">
        <ele>188.4</ele>
        <time>2021-03-20T11:26:42Z</time>
      </trkpt>
      <trkpt lat="41.2509650" lon="-8.5342780">
        <ele>188.6</ele>
        <time>2021-03-20T11:26:43Z</time>
      </trkpt>
      <trkpt lat="41.2509910" lon="-8.5342560">
        <ele>188.6</ele>
        <time>2021-03-20T11:26:44Z</time>
      </trkpt>
      <trkpt lat="41.2510140" lon="-8.5342310">
        <ele>189.0</ele>
        <time>2021-03-20T11:26:45Z</time>
      </trkpt>
      <trkpt lat="41.2510900" lon="-8.5341930">
        <ele>189.2</ele>
        <time>2021-03-20T11:26:46Z</time>
      </trkpt>
      <trkpt lat="41.2511090" lon="-8.5341730">
        <ele>189.4</ele>
        <time>2021-03-20T11:26:47Z</time>
      </trkpt>
      <trkpt lat="41.2511290" lon="-8.5341790">
        <ele>189.6</ele>
        <time>2021-03-20T11:26:48Z</time>
      </trkpt>
      <trkpt lat="41.2511550" lon="-8.5341620">
        <ele>189.8</ele>
        <time>2021-03-20T11:26:49Z</time>
      </trkpt>
      <trkpt lat="41.2511800" lon="-8.5341470">
        <ele>190.0</ele>
        <time>2021-03-20T11:26:50Z</time>
      </trkpt>
      <trkpt lat="41.2512060" lon="-8.5341230">
        <ele>190.2</ele>
        <time>2021-03-20T11:26:51Z</time>
      </trkpt>
      <trkpt lat="41.2512210" lon="-8.5341130">
        <ele>190.0</ele>
        <time>2021-03-20T11:26:52Z</time>
      </trkpt>
      <trkpt lat="41.2512400" lon="-8.5340970">
        <ele>190.2</ele>
        <time>2021-03-20T11:26:53Z</time>
      </trkpt>
      <trkpt lat="41.2512760" lon="-8.5340910">
        <ele>190.4</ele>
        <time>2021-03-20T11:26:54Z</time>
      </trkpt>
      <trkpt lat="41.2513100" lon="-8.5340770">
        <ele>190.6</ele>
        <time>2021-03-20T11:26:55Z</time>
      </trkpt>
      <trkpt lat="41.2513500" lon="-8.5340720">
        <ele>190.8</ele>
        <time>2021-03-20T11:26:56Z</time>
      </trkpt>
      <trkpt lat="41.2513690" lon="-8.5340680">
        <ele>191.2</ele>
        <time>2021-03-20T11:26:57Z</time>
      </trkpt>
      <trkpt lat="41.2513830" lon="-8.5340470">
        <ele>191.4</ele>
        <time>2021-03-20T11:26:58Z</time>
      </trkpt>
      <trkpt lat="41.2514290" lon="-8.5340180">
        <ele>191.8</ele>
        <time>2021-03-20T11:26:59Z</time>
      </trkpt>
      <trkpt lat="41.2514460" lon="-8.5340120">
        <ele>191.8</ele>
        <time>2021-03-20T11:27:00Z</time>
      </trkpt>
      <trkpt lat="41.2514830" lon="-8.5340040">
        <ele>191.8</ele>
        <time>2021-03-20T11:27:01Z</time>
      </trkpt>
      <trkpt lat="41.2515050" lon="-8.5339860">
        <ele>192.0</ele>
        <time>2021-03-20T11:27:02Z</time>
      </trkpt>
      <trkpt lat="41.2515370" lon="-8.5339590">
        <ele>192.2</ele>
        <time>2021-03-20T11:27:03Z</time>
      </trkpt>
      <trkpt lat="41.2515720" lon="-8.5339340">
        <ele>192.6</ele>
        <time>2021-03-20T11:27:04Z</time>
      </trkpt>
      <trkpt lat="41.2516020" lon="-8.5339050">
        <ele>192.8</ele>
        <time>2021-03-20T11:27:05Z</time>
      </trkpt>
      <trkpt lat="41.2516250" lon="-8.5338680">
        <ele>193.2</ele>
        <time>2021-03-20T11:27:06Z</time>
      </trkpt>
      <trkpt lat="41.2516390" lon="-8.5338430">
        <ele>193.4</ele>
        <time>2021-03-20T11:27:07Z</time>
      </trkpt>
      <trkpt lat="41.2516670" lon="-8.5338110">
        <ele>193.6</ele>
        <time>2021-03-20T11:27:08Z</time>
      </trkpt>
      <trkpt lat="41.2516870" lon="-8.5337750">
        <ele>193.6</ele>
        <time>2021-03-20T11:27:09Z</time>
      </trkpt>
      <trkpt lat="41.2517030" lon="-8.5337390">
        <ele>193.6</ele>
        <time>2021-03-20T11:27:10Z</time>
      </trkpt>
      <trkpt lat="41.2517120" lon="-8.5337220">
        <ele>193.6</ele>
        <time>2021-03-20T11:27:11Z</time>
      </trkpt>
      <trkpt lat="41.2517240" lon="-8.5336850">
        <ele>193.8</ele>
        <time>2021-03-20T11:27:12Z</time>
      </trkpt>
      <trkpt lat="41.2517390" lon="-8.5336570">
        <ele>194.2</ele>
        <time>2021-03-20T11:27:13Z</time>
      </trkpt>
      <trkpt lat="41.2517570" lon="-8.5336150">
        <ele>194.2</ele>
        <time>2021-03-20T11:27:14Z</time>
      </trkpt>
      <trkpt lat="41.2517660" lon="-8.5335900">
        <ele>194.6</ele>
        <time>2021-03-20T11:27:15Z</time>
      </trkpt>
      <trkpt lat="41.2517810" lon="-8.5335580">
        <ele>194.6</ele>
        <time>2021-03-20T11:27:16Z</time>
      </trkpt>
      <trkpt lat="41.2518050" lon="-8.5335020">
        <ele>194.6</ele>
        <time>2021-03-20T11:27:17Z</time>
      </trkpt>
      <trkpt lat="41.2518300" lon="-8.5334530">
        <ele>194.6</ele>
        <time>2021-03-20T11:27:18Z</time>
      </trkpt>
      <trkpt lat="41.2518430" lon="-8.5334130">
        <ele>194.8</ele>
        <time>2021-03-20T11:27:19Z</time>
      </trkpt>
      <trkpt lat="41.2518610" lon="-8.5333810">
        <ele>194.6</ele>
        <time>2021-03-20T11:27:20Z</time>
      </trkpt>
      <trkpt lat="41.2518850" lon="-8.5333420">
        <ele>194.8</ele>
        <time>2021-03-20T11:27:21Z</time>
      </trkpt>
      <trkpt lat="41.2519170" lon="-8.5333080">
        <ele>194.8</ele>
        <time>2021-03-20T11:27:22Z</time>
      </trkpt>
      <trkpt lat="41.2519370" lon="-8.5332650">
        <ele>194.8</ele>
        <time>2021-03-20T11:27:23Z</time>
      </trkpt>
      <trkpt lat="41.2519580" lon="-8.5332320">
        <ele>194.6</ele>
        <time>2021-03-20T11:27:24Z</time>
      </trkpt>
      <trkpt lat="41.2519970" lon="-8.5331910">
        <ele>194.8</ele>
        <time>2021-03-20T11:27:25Z</time>
      </trkpt>
      <trkpt lat="41.2520300" lon="-8.5331580">
        <ele>195.0</ele>
        <time>2021-03-20T11:27:26Z</time>
      </trkpt>
      <trkpt lat="41.2520680" lon="-8.5331360">
        <ele>194.8</ele>
        <time>2021-03-20T11:27:27Z</time>
      </trkpt>
      <trkpt lat="41.2520960" lon="-8.5331210">
        <ele>195.0</ele>
        <time>2021-03-20T11:27:28Z</time>
      </trkpt>
      <trkpt lat="41.2521360" lon="-8.5330980">
        <ele>195.0</ele>
        <time>2021-03-20T11:27:29Z</time>
      </trkpt>
      <trkpt lat="41.2521740" lon="-8.5330730">
        <ele>195.2</ele>
        <time>2021-03-20T11:27:30Z</time>
      </trkpt>
      <trkpt lat="41.2522170" lon="-8.5330510">
        <ele>195.4</ele>
        <time>2021-03-20T11:27:31Z</time>
      </trkpt>
      <trkpt lat="41.2522490" lon="-8.5330370">
        <ele>195.0</ele>
        <time>2021-03-20T11:27:32Z</time>
      </trkpt>
      <trkpt lat="41.2522890" lon="-8.5330080">
        <ele>195.0</ele>
        <time>2021-03-20T11:27:33Z</time>
      </trkpt>
      <trkpt lat="41.2523270" lon="-8.5329850">
        <ele>195.0</ele>
        <time>2021-03-20T11:27:34Z</time>
      </trkpt>
      <trkpt lat="41.2523620" lon="-8.5329690">
        <ele>195.0</ele>
        <time>2021-03-20T11:27:35Z</time>
      </trkpt>
      <trkpt lat="41.2523960" lon="-8.5329510">
        <ele>195.0</ele>
        <time>2021-03-20T11:27:36Z</time>
      </trkpt>
      <trkpt lat="41.2524360" lon="-8.5329290">
        <ele>195.2</ele>
        <time>2021-03-20T11:27:37Z</time>
      </trkpt>
      <trkpt lat="41.2524790" lon="-8.5329050">
        <ele>195.4</ele>
        <time>2021-03-20T11:27:38Z</time>
      </trkpt>
      <trkpt lat="41.2525190" lon="-8.5328790">
        <ele>195.4</ele>
        <time>2021-03-20T11:27:39Z</time>
      </trkpt>
      <trkpt lat="41.2525630" lon="-8.5328590">
        <ele>195.6</ele>
        <time>2021-03-20T11:27:40Z</time>
      </trkpt>
      <trkpt lat="41.2526080" lon="-8.5328370">
        <ele>195.6</ele>
        <time>2021-03-20T11:27:41Z</time>
      </trkpt>
      <trkpt lat="41.2526410" lon="-8.5328230">
        <ele>195.6</ele>
        <time>2021-03-20T11:27:42Z</time>
      </trkpt>
      <trkpt lat="41.2526960" lon="-8.5327970">
        <ele>195.6</ele>
        <time>2021-03-20T11:27:43Z</time>
      </trkpt>
      <trkpt lat="41.2527460" lon="-8.5327840">
        <ele>195.6</ele>
        <time>2021-03-20T11:27:44Z</time>
      </trkpt>
      <trkpt lat="41.2527920" lon="-8.5327730">
        <ele>195.6</ele>
        <time>2021-03-20T11:27:45Z</time>
      </trkpt>
      <trkpt lat="41.2528300" lon="-8.5327650">
        <ele>195.6</ele>
        <time>2021-03-20T11:27:46Z</time>
      </trkpt>
      <trkpt lat="41.2528870" lon="-8.5327520">
        <ele>195.8</ele>
        <time>2021-03-20T11:27:47Z</time>
      </trkpt>
      <trkpt lat="41.2529340" lon="-8.5327480">
        <ele>195.8</ele>
        <time>2021-03-20T11:27:48Z</time>
      </trkpt>
      <trkpt lat="41.2529750" lon="-8.5327420">
        <ele>195.8</ele>
        <time>2021-03-20T11:27:49Z</time>
      </trkpt>
      <trkpt lat="41.2530200" lon="-8.5327340">
        <ele>195.8</ele>
        <time>2021-03-20T11:27:50Z</time>
      </trkpt>
      <trkpt lat="41.2530650" lon="-8.5327310">
        <ele>195.6</ele>
        <time>2021-03-20T11:27:51Z</time>
      </trkpt>
      <trkpt lat="41.2531040" lon="-8.5327250">
        <ele>195.4</ele>
        <time>2021-03-20T11:27:52Z</time>
      </trkpt>
      <trkpt lat="41.2531440" lon="-8.5327190">
        <ele>195.2</ele>
        <time>2021-03-20T11:27:53Z</time>
      </trkpt>
      <trkpt lat="41.2531850" lon="-8.5327190">
        <ele>195.2</ele>
        <time>2021-03-20T11:27:54Z</time>
      </trkpt>
      <trkpt lat="41.2532240" lon="-8.5327170">
        <ele>194.8</ele>
        <time>2021-03-20T11:27:55Z</time>
      </trkpt>
      <trkpt lat="41.2532610" lon="-8.5327150">
        <ele>194.6</ele>
        <time>2021-03-20T11:27:56Z</time>
      </trkpt>
      <trkpt lat="41.2533020" lon="-8.5327070">
        <ele>194.2</ele>
        <time>2021-03-20T11:27:57Z</time>
      </trkpt>
      <trkpt lat="41.2533460" lon="-8.5327110">
        <ele>193.8</ele>
        <time>2021-03-20T11:27:58Z</time>
      </trkpt>
      <trkpt lat="41.2533890" lon="-8.5327180">
        <ele>193.6</ele>
        <time>2021-03-20T11:27:59Z</time>
      </trkpt>
      <trkpt lat="41.2534380" lon="-8.5327270">
        <ele>193.0</ele>
        <time>2021-03-20T11:28:00Z</time>
      </trkpt>
      <trkpt lat="41.2534790" lon="-8.5327330">
        <ele>192.8</ele>
        <time>2021-03-20T11:28:01Z</time>
      </trkpt>
      <trkpt lat="41.2535310" lon="-8.5327460">
        <ele>192.8</ele>
        <time>2021-03-20T11:28:02Z</time>
      </trkpt>
      <trkpt lat="41.2535890" lon="-8.5327590">
        <ele>192.6</ele>
        <time>2021-03-20T11:28:03Z</time>
      </trkpt>
      <trkpt lat="41.2536500" lon="-8.5327680">
        <ele>192.8</ele>
        <time>2021-03-20T11:28:04Z</time>
      </trkpt>
      <trkpt lat="41.2537110" lon="-8.5327830">
        <ele>192.6</ele>
        <time>2021-03-20T11:28:05Z</time>
      </trkpt>
      <trkpt lat="41.2537650" lon="-8.5327810">
        <ele>192.6</ele>
        <time>2021-03-20T11:28:06Z</time>
      </trkpt>
      <trkpt lat="41.2538220" lon="-8.5327790">
        <ele>192.6</ele>
        <time>2021-03-20T11:28:07Z</time>
      </trkpt>
      <trkpt lat="41.2538810" lon="-8.5327690">
        <ele>192.8</ele>
        <time>2021-03-20T11:28:08Z</time>
      </trkpt>
      <trkpt lat="41.2539420" lon="-8.5327450">
        <ele>193.0</ele>
        <time>2021-03-20T11:28:09Z</time>
      </trkpt>
      <trkpt lat="41.2540020" lon="-8.5327130">
        <ele>193.0</ele>
        <time>2021-03-20T11:28:10Z</time>
      </trkpt>
      <trkpt lat="41.2540440" lon="-8.5326920">
        <ele>193.0</ele>
        <time>2021-03-20T11:28:11Z</time>
      </trkpt>
      <trkpt lat="41.2540990" lon="-8.5326620">
        <ele>193.2</ele>
        <time>2021-03-20T11:28:12Z</time>
      </trkpt>
      <trkpt lat="41.2541630" lon="-8.5326170">
        <ele>193.2</ele>
        <time>2021-03-20T11:28:13Z</time>
      </trkpt>
      <trkpt lat="41.2542010" lon="-8.5325960">
        <ele>193.2</ele>
        <time>2021-03-20T11:28:14Z</time>
      </trkpt>
      <trkpt lat="41.2542650" lon="-8.5325610">
        <ele>193.0</ele>
        <time>2021-03-20T11:28:15Z</time>
      </trkpt>
      <trkpt lat="41.2543170" lon="-8.5325370">
        <ele>193.0</ele>
        <time>2021-03-20T11:28:16Z</time>
      </trkpt>
      <trkpt lat="41.2543670" lon="-8.5324950">
        <ele>192.8</ele>
        <time>2021-03-20T11:28:17Z</time>
      </trkpt>
      <trkpt lat="41.2544020" lon="-8.5324590">
        <ele>192.4</ele>
        <time>2021-03-20T11:28:18Z</time>
      </trkpt>
      <trkpt lat="41.2544620" lon="-8.5324150">
        <ele>192.4</ele>
        <time>2021-03-20T11:28:19Z</time>
      </trkpt>
      <trkpt lat="41.2545100" lon="-8.5323770">
        <ele>192.2</ele>
        <time>2021-03-20T11:28:20Z</time>
      </trkpt>
      <trkpt lat="41.2545670" lon="-8.5323410">
        <ele>192.2</ele>
        <time>2021-03-20T11:28:21Z</time>
      </trkpt>
      <trkpt lat="41.2546110" lon="-8.5323120">
        <ele>192.0</ele>
        <time>2021-03-20T11:28:22Z</time>
      </trkpt>
      <trkpt lat="41.2546590" lon="-8.5322840">
        <ele>191.6</ele>
        <time>2021-03-20T11:28:23Z</time>
      </trkpt>
      <trkpt lat="41.2546990" lon="-8.5322650">
        <ele>191.2</ele>
        <time>2021-03-20T11:28:24Z</time>
      </trkpt>
      <trkpt lat="41.2547550" lon="-8.5322410">
        <ele>190.6</ele>
        <time>2021-03-20T11:28:25Z</time>
      </trkpt>
      <trkpt lat="41.2548300" lon="-8.5322090">
        <ele>190.8</ele>
        <time>2021-03-20T11:28:26Z</time>
      </trkpt>
      <trkpt lat="41.2548870" lon="-8.5321950">
        <ele>190.4</ele>
        <time>2021-03-20T11:28:27Z</time>
      </trkpt>
      <trkpt lat="41.2549490" lon="-8.5321850">
        <ele>190.0</ele>
        <time>2021-03-20T11:28:28Z</time>
      </trkpt>
      <trkpt lat="41.2550190" lon="-8.5321800">
        <ele>189.6</ele>
        <time>2021-03-20T11:28:29Z</time>
      </trkpt>
      <trkpt lat="41.2550870" lon="-8.5321870">
        <ele>189.0</ele>
        <time>2021-03-20T11:28:30Z</time>
      </trkpt>
      <trkpt lat="41.2551350" lon="-8.5321990">
        <ele>188.2</ele>
        <time>2021-03-20T11:28:31Z</time>
      </trkpt>
      <trkpt lat="41.2552140" lon="-8.5322260">
        <ele>188.0</ele>
        <time>2021-03-20T11:28:32Z</time>
      </trkpt>
      <trkpt lat="41.2552790" lon="-8.5322540">
        <ele>187.8</ele>
        <time>2021-03-20T11:28:33Z</time>
      </trkpt>
      <trkpt lat="41.2553410" lon="-8.5322810">
        <ele>187.2</ele>
        <time>2021-03-20T11:28:34Z</time>
      </trkpt>
      <trkpt lat="41.2554080" lon="-8.5323180">
        <ele>186.8</ele>
        <time>2021-03-20T11:28:35Z</time>
      </trkpt>
      <trkpt lat="41.2554640" lon="-8.5323570">
        <ele>186.4</ele>
        <time>2021-03-20T11:28:36Z</time>
      </trkpt>
      <trkpt lat="41.2555120" lon="-8.5323720">
        <ele>186.0</ele>
        <time>2021-03-20T11:28:37Z</time>
      </trkpt>
      <trkpt lat="41.2555760" lon="-8.5323900">
        <ele>185.6</ele>
        <time>2021-03-20T11:28:38Z</time>
      </trkpt>
      <trkpt lat="41.2556520" lon="-8.5324180">
        <ele>185.2</ele>
        <time>2021-03-20T11:28:39Z</time>
      </trkpt>
      <trkpt lat="41.2557840" lon="-8.5324550">
        <ele>184.8</ele>
        <time>2021-03-20T11:28:40Z</time>
      </trkpt>
      <trkpt lat="41.2559420" lon="-8.5324630">
        <ele>184.4</ele>
        <time>2021-03-20T11:28:41Z</time>
      </trkpt>
      <trkpt lat="41.2561590" lon="-8.5324470">
        <ele>184.0</ele>
        <time>2021-03-20T11:28:42Z</time>
      </trkpt>
      <trkpt lat="41.2562460" lon="-8.5324380">
        <ele>183.8</ele>
        <time>2021-03-20T11:28:43Z</time>
      </trkpt>
      <trkpt lat="41.2563160" lon="-8.5324380">
        <ele>183.2</ele>
        <time>2021-03-20T11:28:44Z</time>
      </trkpt>
      <trkpt lat="41.2563810" lon="-8.5324430">
        <ele>182.8</ele>
        <time>2021-03-20T11:28:45Z</time>
      </trkpt>
      <trkpt lat="41.2564370" lon="-8.5324550">
        <ele>182.4</ele>
        <time>2021-03-20T11:28:46Z</time>
      </trkpt>
      <trkpt lat="41.2565130" lon="-8.5324560">
        <ele>182.2</ele>
        <time>2021-03-20T11:28:47Z</time>
      </trkpt>
      <trkpt lat="41.2567000" lon="-8.5324730">
        <ele>181.6</ele>
        <time>2021-03-20T11:28:48Z</time>
      </trkpt>
      <trkpt lat="41.2567770" lon="-8.5325070">
        <ele>181.4</ele>
        <time>2021-03-20T11:28:49Z</time>
      </trkpt>
      <trkpt lat="41.2568620" lon="-8.5325110">
        <ele>180.8</ele>
        <time>2021-03-20T11:28:50Z</time>
      </trkpt>
      <trkpt lat="41.2569230" lon="-8.5325420">
        <ele>180.2</ele>
        <time>2021-03-20T11:28:51Z</time>
      </trkpt>
      <trkpt lat="41.2570100" lon="-8.5325770">
        <ele>179.8</ele>
        <time>2021-03-20T11:28:52Z</time>
      </trkpt>
      <trkpt lat="41.2570950" lon="-8.5326100">
        <ele>179.4</ele>
        <time>2021-03-20T11:28:53Z</time>
      </trkpt>
      <trkpt lat="41.2571780" lon="-8.5326580">
        <ele>178.6</ele>
        <time>2021-03-20T11:28:54Z</time>
      </trkpt>
      <trkpt lat="41.2572650" lon="-8.5326590">
        <ele>178.2</ele>
        <time>2021-03-20T11:28:55Z</time>
      </trkpt>
      <trkpt lat="41.2573500" lon="-8.5327040">
        <ele>177.8</ele>
        <time>2021-03-20T11:28:56Z</time>
      </trkpt>
      <trkpt lat="41.2574110" lon="-8.5327210">
        <ele>177.4</ele>
        <time>2021-03-20T11:28:57Z</time>
      </trkpt>
      <trkpt lat="41.2574990" lon="-8.5327520">
        <ele>176.8</ele>
        <time>2021-03-20T11:28:58Z</time>
      </trkpt>
      <trkpt lat="41.2575770" lon="-8.5327280">
        <ele>176.2</ele>
        <time>2021-03-20T11:28:59Z</time>
      </trkpt>
      <trkpt lat="41.2576600" lon="-8.5327360">
        <ele>175.4</ele>
        <time>2021-03-20T11:29:00Z</time>
      </trkpt>
      <trkpt lat="41.2577320" lon="-8.5327080">
        <ele>175.2</ele>
        <time>2021-03-20T11:29:01Z</time>
      </trkpt>
      <trkpt lat="41.2577570" lon="-8.5326760">
        <ele>175.6</ele>
        <time>2021-03-20T11:29:02Z</time>
      </trkpt>
      <trkpt lat="41.2577960" lon="-8.5325750">
        <ele>175.6</ele>
        <time>2021-03-20T11:29:03Z</time>
      </trkpt>
      <trkpt lat="41.2578350" lon="-8.5324550">
        <ele>175.6</ele>
        <time>2021-03-20T11:29:04Z</time>
      </trkpt>
      <trkpt lat="41.2578800" lon="-8.5323600">
        <ele>175.4</ele>
        <time>2021-03-20T11:29:05Z</time>
      </trkpt>
      <trkpt lat="41.2579210" lon="-8.5322900">
        <ele>174.4</ele>
        <time>2021-03-20T11:29:06Z</time>
      </trkpt>
      <trkpt lat="41.2579750" lon="-8.5321960">
        <ele>174.0</ele>
        <time>2021-03-20T11:29:07Z</time>
      </trkpt>
      <trkpt lat="41.2580360" lon="-8.5320930">
        <ele>173.8</ele>
        <time>2021-03-20T11:29:08Z</time>
      </trkpt>
      <trkpt lat="41.2581030" lon="-8.5320040">
        <ele>173.0</ele>
        <time>2021-03-20T11:29:09Z</time>
      </trkpt>
      <trkpt lat="41.2581620" lon="-8.5319360">
        <ele>172.4</ele>
        <time>2021-03-20T11:29:10Z</time>
      </trkpt>
      <trkpt lat="41.2582470" lon="-8.5318760">
        <ele>171.8</ele>
        <time>2021-03-20T11:29:11Z</time>
      </trkpt>
      <trkpt lat="41.2583350" lon="-8.5318290">
        <ele>171.6</ele>
        <time>2021-03-20T11:29:12Z</time>
      </trkpt>
      <trkpt lat="41.2584270" lon="-8.5318020">
        <ele>170.8</ele>
        <time>2021-03-20T11:29:13Z</time>
      </trkpt>
      <trkpt lat="41.2585170" lon="-8.5317800">
        <ele>170.2</ele>
        <time>2021-03-20T11:29:14Z</time>
      </trkpt>
      <trkpt lat="41.2585900" lon="-8.5317680">
        <ele>169.6</ele>
        <time>2021-03-20T11:29:15Z</time>
      </trkpt>
      <trkpt lat="41.2586920" lon="-8.5317530">
        <ele>169.6</ele>
        <time>2021-03-20T11:29:16Z</time>
      </trkpt>
      <trkpt lat="41.2587940" lon="-8.5317450">
        <ele>169.6</ele>
        <time>2021-03-20T11:29:17Z</time>
      </trkpt>
      <trkpt lat="41.2588960" lon="-8.5317350">
        <ele>169.2</ele>
        <time>2021-03-20T11:29:18Z</time>
      </trkpt>
      <trkpt lat="41.2589900" lon="-8.5317450">
        <ele>169.0</ele>
        <time>2021-03-20T11:29:19Z</time>
      </trkpt>
      <trkpt lat="41.2590610" lon="-8.5317630">
        <ele>168.4</ele>
        <time>2021-03-20T11:29:20Z</time>
      </trkpt>
      <trkpt lat="41.2591460" lon="-8.5318100">
        <ele>168.0</ele>
        <time>2021-03-20T11:29:21Z</time>
      </trkpt>
      <trkpt lat="41.2592210" lon="-8.5318760">
        <ele>167.4</ele>
        <time>2021-03-20T11:29:22Z</time>
      </trkpt>
      <trkpt lat="41.2592990" lon="-8.5319530">
        <ele>167.0</ele>
        <time>2021-03-20T11:29:23Z</time>
      </trkpt>
      <trkpt lat="41.2593560" lon="-8.5320140">
        <ele>166.4</ele>
        <time>2021-03-20T11:29:24Z</time>
      </trkpt>
      <trkpt lat="41.2594290" lon="-8.5321010">
        <ele>166.0</ele>
        <time>2021-03-20T11:29:25Z</time>
      </trkpt>
      <trkpt lat="41.2595060" lon="-8.5321860">
        <ele>165.4</ele>
        <time>2021-03-20T11:29:26Z</time>
      </trkpt>
      <trkpt lat="41.2595900" lon="-8.5322630">
        <ele>165.0</ele>
        <time>2021-03-20T11:29:27Z</time>
      </trkpt>
      <trkpt lat="41.2596750" lon="-8.5323320">
        <ele>165.0</ele>
        <time>2021-03-20T11:29:28Z</time>
      </trkpt>
      <trkpt lat="41.2597380" lon="-8.5323780">
        <ele>164.6</ele>
        <time>2021-03-20T11:29:29Z</time>
      </trkpt>
      <trkpt lat="41.2599170" lon="-8.5324400">
        <ele>164.4</ele>
        <time>2021-03-20T11:29:30Z</time>
      </trkpt>
      <trkpt lat="41.2601850" lon="-8.5325790">
        <ele>163.8</ele>
        <time>2021-03-20T11:29:31Z</time>
      </trkpt>
      <trkpt lat="41.2602720" lon="-8.5326380">
        <ele>163.2</ele>
        <time>2021-03-20T11:29:32Z</time>
      </trkpt>
      <trkpt lat="41.2603650" lon="-8.5326790">
        <ele>162.2</ele>
        <time>2021-03-20T11:29:33Z</time>
      </trkpt>
      <trkpt lat="41.2604620" lon="-8.5326830">
        <ele>161.4</ele>
        <time>2021-03-20T11:29:34Z</time>
      </trkpt>
      <trkpt lat="41.2605500" lon="-8.5326450">
        <ele>160.8</ele>
        <time>2021-03-20T11:29:35Z</time>
      </trkpt>
      <trkpt lat="41.2606370" lon="-8.5325820">
        <ele>160.8</ele>
        <time>2021-03-20T11:29:36Z</time>
      </trkpt>
      <trkpt lat="41.2607290" lon="-8.5325210">
        <ele>160.4</ele>
        <time>2021-03-20T11:29:37Z</time>
      </trkpt>
      <trkpt lat="41.2608230" lon="-8.5324750">
        <ele>160.2</ele>
        <time>2021-03-20T11:29:38Z</time>
      </trkpt>
      <trkpt lat="41.2609420" lon="-8.5324340">
        <ele>159.6</ele>
        <time>2021-03-20T11:29:39Z</time>
      </trkpt>
      <trkpt lat="41.2610120" lon="-8.5324180">
        <ele>159.0</ele>
        <time>2021-03-20T11:29:40Z</time>
      </trkpt>
      <trkpt lat="41.2611050" lon="-8.5324320">
        <ele>158.2</ele>
        <time>2021-03-20T11:29:41Z</time>
      </trkpt>
      <trkpt lat="41.2612220" lon="-8.5324770">
        <ele>157.6</ele>
        <time>2021-03-20T11:29:42Z</time>
      </trkpt>
      <trkpt lat="41.2612800" lon="-8.5325130">
        <ele>157.4</ele>
        <time>2021-03-20T11:29:43Z</time>
      </trkpt>
      <trkpt lat="41.2613400" lon="-8.5326050">
        <ele>156.8</ele>
        <time>2021-03-20T11:29:44Z</time>
      </trkpt>
      <trkpt lat="41.2614150" lon="-8.5327330">
        <ele>156.2</ele>
        <time>2021-03-20T11:29:45Z</time>
      </trkpt>
      <trkpt lat="41.2615010" lon="-8.5328360">
        <ele>155.2</ele>
        <time>2021-03-20T11:29:46Z</time>
      </trkpt>
      <trkpt lat="41.2615700" lon="-8.5328680">
        <ele>154.4</ele>
        <time>2021-03-20T11:29:47Z</time>
      </trkpt>
      <trkpt lat="41.2616470" lon="-8.5328590">
        <ele>154.2</ele>
        <time>2021-03-20T11:29:48Z</time>
      </trkpt>
      <trkpt lat="41.2617380" lon="-8.5328270">
        <ele>154.0</ele>
        <time>2021-03-20T11:29:49Z</time>
      </trkpt>
      <trkpt lat="41.2618370" lon="-8.5327850">
        <ele>153.8</ele>
        <time>2021-03-20T11:29:50Z</time>
      </trkpt>
      <trkpt lat="41.2619140" lon="-8.5327490">
        <ele>153.4</ele>
        <time>2021-03-20T11:29:51Z</time>
      </trkpt>
      <trkpt lat="41.2620120" lon="-8.5327160">
        <ele>153.2</ele>
        <time>2021-03-20T11:29:52Z</time>
      </trkpt>
      <trkpt lat="41.2621110" lon="-8.5327070">
        <ele>153.0</ele>
        <time>2021-03-20T11:29:53Z</time>
      </trkpt>
      <trkpt lat="41.2621830" lon="-8.5327190">
        <ele>152.6</ele>
        <time>2021-03-20T11:29:54Z</time>
      </trkpt>
      <trkpt lat="41.2622810" lon="-8.5327580">
        <ele>152.2</ele>
        <time>2021-03-20T11:29:55Z</time>
      </trkpt>
      <trkpt lat="41.2623770" lon="-8.5328060">
        <ele>151.8</ele>
        <time>2021-03-20T11:29:56Z</time>
      </trkpt>
      <trkpt lat="41.2624440" lon="-8.5328520">
        <ele>151.6</ele>
        <time>2021-03-20T11:29:57Z</time>
      </trkpt>
      <trkpt lat="41.2625360" lon="-8.5329250">
        <ele>151.0</ele>
        <time>2021-03-20T11:29:58Z</time>
      </trkpt>
      <trkpt lat="41.2626100" lon="-8.5330100">
        <ele>150.8</ele>
        <time>2021-03-20T11:29:59Z</time>
      </trkpt>
      <trkpt lat="41.2626740" lon="-8.5331130">
        <ele>150.2</ele>
        <time>2021-03-20T11:30:00Z</time>
      </trkpt>
      <trkpt lat="41.2627200" lon="-8.5332230">
        <ele>149.8</ele>
        <time>2021-03-20T11:30:01Z</time>
      </trkpt>
      <trkpt lat="41.2627510" lon="-8.5332880">
        <ele>149.0</ele>
        <time>2021-03-20T11:30:02Z</time>
      </trkpt>
      <trkpt lat="41.2627940" lon="-8.5333850">
        <ele>148.6</ele>
        <time>2021-03-20T11:30:03Z</time>
      </trkpt>
      <trkpt lat="41.2628350" lon="-8.5335000">
        <ele>147.8</ele>
        <time>2021-03-20T11:30:04Z</time>
      </trkpt>
      <trkpt lat="41.2629780" lon="-8.5335680">
        <ele>147.4</ele>
        <time>2021-03-20T11:30:05Z</time>
      </trkpt>
      <trkpt lat="41.2630700" lon="-8.5335690">
        <ele>147.2</ele>
        <time>2021-03-20T11:30:06Z</time>
      </trkpt>
      <trkpt lat="41.2631680" lon="-8.5335770">
        <ele>146.6</ele>
        <time>2021-03-20T11:30:07Z</time>
      </trkpt>
      <trkpt lat="41.2632620" lon="-8.5336020">
        <ele>145.8</ele>
        <time>2021-03-20T11:30:08Z</time>
      </trkpt>
      <trkpt lat="41.2633510" lon="-8.5336540">
        <ele>145.4</ele>
        <time>2021-03-20T11:30:09Z</time>
      </trkpt>
      <trkpt lat="41.2634370" lon="-8.5337330">
        <ele>144.6</ele>
        <time>2021-03-20T11:30:10Z</time>
      </trkpt>
      <trkpt lat="41.2635190" lon="-8.5338190">
        <ele>144.2</ele>
        <time>2021-03-20T11:30:11Z</time>
      </trkpt>
      <trkpt lat="41.2636100" lon="-8.5338910">
        <ele>143.8</ele>
        <time>2021-03-20T11:30:12Z</time>
      </trkpt>
      <trkpt lat="41.2637060" lon="-8.5339370">
        <ele>143.2</ele>
        <time>2021-03-20T11:30:13Z</time>
      </trkpt>
      <trkpt lat="41.2638080" lon="-8.5339390">
        <ele>142.4</ele>
        <time>2021-03-20T11:30:14Z</time>
      </trkpt>
      <trkpt lat="41.2639120" lon="-8.5339100">
        <ele>142.2</ele>
        <time>2021-03-20T11:30:15Z</time>
      </trkpt>
      <trkpt lat="41.2640120" lon="-8.5338830">
        <ele>142.4</ele>
        <time>2021-03-20T11:30:16Z</time>
      </trkpt>
      <trkpt lat="41.2641120" lon="-8.5338810">
        <ele>142.6</ele>
        <time>2021-03-20T11:30:17Z</time>
      </trkpt>
      <trkpt lat="41.2642070" lon="-8.5339000">
        <ele>142.2</ele>
        <time>2021-03-20T11:30:18Z</time>
      </trkpt>
      <trkpt lat="41.2643050" lon="-8.5339270">
        <ele>141.6</ele>
        <time>2021-03-20T11:30:19Z</time>
      </trkpt>
      <trkpt lat="41.2644130" lon="-8.5339260">
        <ele>140.2</ele>
        <time>2021-03-20T11:30:20Z</time>
      </trkpt>
      <trkpt lat="41.2644960" lon="-8.5338700">
        <ele>138.8</ele>
        <time>2021-03-20T11:30:21Z</time>
      </trkpt>
      <trkpt lat="41.2645750" lon="-8.5337780">
        <ele>137.8</ele>
        <time>2021-03-20T11:30:22Z</time>
      </trkpt>
      <trkpt lat="41.2646540" lon="-8.5336820">
        <ele>137.0</ele>
        <time>2021-03-20T11:30:23Z</time>
      </trkpt>
      <trkpt lat="41.2647410" lon="-8.5335970">
        <ele>137.0</ele>
        <time>2021-03-20T11:30:24Z</time>
      </trkpt>
      <trkpt lat="41.2648290" lon="-8.5335500">
        <ele>136.8</ele>
        <time>2021-03-20T11:30:25Z</time>
      </trkpt>
      <trkpt lat="41.2649280" lon="-8.5335460">
        <ele>136.4</ele>
        <time>2021-03-20T11:30:26Z</time>
      </trkpt>
      <trkpt lat="41.2650290" lon="-8.5335700">
        <ele>136.0</ele>
        <time>2021-03-20T11:30:27Z</time>
      </trkpt>
      <trkpt lat="41.2651250" lon="-8.5335980">
        <ele>135.6</ele>
        <time>2021-03-20T11:30:28Z</time>
      </trkpt>
      <trkpt lat="41.2652270" lon="-8.5336200">
        <ele>135.4</ele>
        <time>2021-03-20T11:30:29Z</time>
      </trkpt>
      <trkpt lat="41.2653280" lon="-8.5336430">
        <ele>135.0</ele>
        <time>2021-03-20T11:30:30Z</time>
      </trkpt>
      <trkpt lat="41.2654320" lon="-8.5336630">
        <ele>134.6</ele>
        <time>2021-03-20T11:30:31Z</time>
      </trkpt>
      <trkpt lat="41.2655360" lon="-8.5336880">
        <ele>134.0</ele>
        <time>2021-03-20T11:30:32Z</time>
      </trkpt>
      <trkpt lat="41.2656410" lon="-8.5337260">
        <ele>133.6</ele>
        <time>2021-03-20T11:30:33Z</time>
      </trkpt>
      <trkpt lat="41.2657400" lon="-8.5337760">
        <ele>133.0</ele>
        <time>2021-03-20T11:30:34Z</time>
      </trkpt>
      <trkpt lat="41.2658390" lon="-8.5338360">
        <ele>132.6</ele>
        <time>2021-03-20T11:30:35Z</time>
      </trkpt>
      <trkpt lat="41.2659350" lon="-8.5339030">
        <ele>131.8</ele>
        <time>2021-03-20T11:30:36Z</time>
      </trkpt>
      <trkpt lat="41.2660300" lon="-8.5339730">
        <ele>131.2</ele>
        <time>2021-03-20T11:30:37Z</time>
      </trkpt>
      <trkpt lat="41.2661330" lon="-8.5340270">
        <ele>130.4</ele>
        <time>2021-03-20T11:30:38Z</time>
      </trkpt>
      <trkpt lat="41.2662320" lon="-8.5340750">
        <ele>130.0</ele>
        <time>2021-03-20T11:30:39Z</time>
      </trkpt>
      <trkpt lat="41.2663350" lon="-8.5341220">
        <ele>129.4</ele>
        <time>2021-03-20T11:30:40Z</time>
      </trkpt>
      <trkpt lat="41.2664610" lon="-8.5341730">
        <ele>129.0</ele>
        <time>2021-03-20T11:30:41Z</time>
      </trkpt>
      <trkpt lat="41.2665380" lon="-8.5342000">
        <ele>128.6</ele>
        <time>2021-03-20T11:30:42Z</time>
      </trkpt>
      <trkpt lat="41.2666480" lon="-8.5342370">
        <ele>128.2</ele>
        <time>2021-03-20T11:30:43Z</time>
      </trkpt>
      <trkpt lat="41.2667740" lon="-8.5342840">
        <ele>127.6</ele>
        <time>2021-03-20T11:30:44Z</time>
      </trkpt>
      <trkpt lat="41.2668760" lon="-8.5343230">
        <ele>127.2</ele>
        <time>2021-03-20T11:30:45Z</time>
      </trkpt>
      <trkpt lat="41.2669610" lon="-8.5343520">
        <ele>126.4</ele>
        <time>2021-03-20T11:30:46Z</time>
      </trkpt>
      <trkpt lat="41.2670570" lon="-8.5344210">
        <ele>125.6</ele>
        <time>2021-03-20T11:30:47Z</time>
      </trkpt>
      <trkpt lat="41.2671390" lon="-8.5344390">
        <ele>124.8</ele>
        <time>2021-03-20T11:30:48Z</time>
      </trkpt>
      <trkpt lat="41.2672330" lon="-8.5344840">
        <ele>124.4</ele>
        <time>2021-03-20T11:30:49Z</time>
      </trkpt>
      <trkpt lat="41.2673220" lon="-8.5344700">
        <ele>124.2</ele>
        <time>2021-03-20T11:30:50Z</time>
      </trkpt>
      <trkpt lat="41.2673870" lon="-8.5344850">
        <ele>123.8</ele>
        <time>2021-03-20T11:30:51Z</time>
      </trkpt>
      <trkpt lat="41.2674700" lon="-8.5345030">
        <ele>123.8</ele>
        <time>2021-03-20T11:30:52Z</time>
      </trkpt>
      <trkpt lat="41.2675570" lon="-8.5345010">
        <ele>123.2</ele>
        <time>2021-03-20T11:30:53Z</time>
      </trkpt>
      <trkpt lat="41.2676490" lon="-8.5345040">
        <ele>123.2</ele>
        <time>2021-03-20T11:30:54Z</time>
      </trkpt>
      <trkpt lat="41.2677390" lon="-8.5345010">
        <ele>122.6</ele>
        <time>2021-03-20T11:30:55Z</time>
      </trkpt>
      <trkpt lat="41.2678150" lon="-8.5345060">
        <ele>122.2</ele>
        <time>2021-03-20T11:30:56Z</time>
      </trkpt>
      <trkpt lat="41.2679070" lon="-8.5344940">
        <ele>122.0</ele>
        <time>2021-03-20T11:30:57Z</time>
      </trkpt>
      <trkpt lat="41.2679910" lon="-8.5344920">
        <ele>121.8</ele>
        <time>2021-03-20T11:30:58Z</time>
      </trkpt>
      <trkpt lat="41.2680890" lon="-8.5344970">
        <ele>121.4</ele>
        <time>2021-03-20T11:30:59Z</time>
      </trkpt>
      <trkpt lat="41.2681890" lon="-8.5345020">
        <ele>120.6</ele>
        <time>2021-03-20T11:31:00Z</time>
      </trkpt>
      <trkpt lat="41.2682560" lon="-8.5345020">
        <ele>120.0</ele>
        <time>2021-03-20T11:31:01Z</time>
      </trkpt>
      <trkpt lat="41.2683530" lon="-8.5345020">
        <ele>119.0</ele>
        <time>2021-03-20T11:31:02Z</time>
      </trkpt>
      <trkpt lat="41.2684630" lon="-8.5345020">
        <ele>119.0</ele>
        <time>2021-03-20T11:31:03Z</time>
      </trkpt>
      <trkpt lat="41.2685640" lon="-8.5345040">
        <ele>118.2</ele>
        <time>2021-03-20T11:31:04Z</time>
      </trkpt>
      <trkpt lat="41.2687360" lon="-8.5344980">
        <ele>117.6</ele>
        <time>2021-03-20T11:31:05Z</time>
      </trkpt>
      <trkpt lat="41.2688290" lon="-8.5344910">
        <ele>117.4</ele>
        <time>2021-03-20T11:31:06Z</time>
      </trkpt>
      <trkpt lat="41.2689510" lon="-8.5344820">
        <ele>116.8</ele>
        <time>2021-03-20T11:31:07Z</time>
      </trkpt>
      <trkpt lat="41.2690620" lon="-8.5344740">
        <ele>116.2</ele>
        <time>2021-03-20T11:31:08Z</time>
      </trkpt>
      <trkpt lat="41.2691680" lon="-8.5344670">
        <ele>116.0</ele>
        <time>2021-03-20T11:31:09Z</time>
      </trkpt>
      <trkpt lat="41.2691680" lon="-8.5344670">
        <ele>115.6</ele>
        <time>2021-03-20T11:31:10Z</time>
      </trkpt>
      <trkpt lat="41.2693450" lon="-8.5344490">
        <ele>114.6</ele>
        <time>2021-03-20T11:31:11Z</time>
      </trkpt>
      <trkpt lat="41.2694620" lon="-8.5344420">
        <ele>114.2</ele>
        <time>2021-03-20T11:31:12Z</time>
      </trkpt>
      <trkpt lat="41.2695690" lon="-8.5344360">
        <ele>113.6</ele>
        <time>2021-03-20T11:31:13Z</time>
      </trkpt>
      <trkpt lat="41.2696750" lon="-8.5344310">
        <ele>113.0</ele>
        <time>2021-03-20T11:31:14Z</time>
      </trkpt>
      <trkpt lat="41.2697800" lon="-8.5344240">
        <ele>112.2</ele>
        <time>2021-03-20T11:31:15Z</time>
      </trkpt>
      <trkpt lat="41.2698800" lon="-8.5344210">
        <ele>111.6</ele>
        <time>2021-03-20T11:31:16Z</time>
      </trkpt>
      <trkpt lat="41.2699770" lon="-8.5344160">
        <ele>111.2</ele>
        <time>2021-03-20T11:31:17Z</time>
      </trkpt>
      <trkpt lat="41.2700710" lon="-8.5344120">
        <ele>110.8</ele>
        <time>2021-03-20T11:31:18Z</time>
      </trkpt>
      <trkpt lat="41.2701590" lon="-8.5344060">
        <ele>110.8</ele>
        <time>2021-03-20T11:31:19Z</time>
      </trkpt>
      <trkpt lat="41.2702380" lon="-8.5343970">
        <ele>110.6</ele>
        <time>2021-03-20T11:31:20Z</time>
      </trkpt>
      <trkpt lat="41.2703050" lon="-8.5343890">
        <ele>110.6</ele>
        <time>2021-03-20T11:31:21Z</time>
      </trkpt>
      <trkpt lat="41.2703650" lon="-8.5343980">
        <ele>110.6</ele>
        <time>2021-03-20T11:31:22Z</time>
      </trkpt>
      <trkpt lat="41.2704100" lon="-8.5344350">
        <ele>110.8</ele>
        <time>2021-03-20T11:31:23Z</time>
      </trkpt>
      <trkpt lat="41.2704430" lon="-8.5344940">
        <ele>111.0</ele>
        <time>2021-03-20T11:31:24Z</time>
      </trkpt>
      <trkpt lat="41.2704600" lon="-8.5345490">
        <ele>110.8</ele>
        <time>2021-03-20T11:31:25Z</time>
      </trkpt>
      <trkpt lat="41.2704650" lon="-8.5346130">
        <ele>110.4</ele>
        <time>2021-03-20T11:31:26Z</time>
      </trkpt>
      <trkpt lat="41.2704740" lon="-8.5347030">
        <ele>110.2</ele>
        <time>2021-03-20T11:31:27Z</time>
      </trkpt>
      <trkpt lat="41.2704780" lon="-8.5347420">
        <ele>110.4</ele>
        <time>2021-03-20T11:31:28Z</time>
      </trkpt>
      <trkpt lat="41.2704960" lon="-8.5348120">
        <ele>110.6</ele>
        <time>2021-03-20T11:31:29Z</time>
      </trkpt>
      <trkpt lat="41.2705220" lon="-8.5348870">
        <ele>111.0</ele>
        <time>2021-03-20T11:31:30Z</time>
      </trkpt>
      <trkpt lat="41.2705490" lon="-8.5349520">
        <ele>111.2</ele>
        <time>2021-03-20T11:31:31Z</time>
      </trkpt>
      <trkpt lat="41.2705820" lon="-8.5350190">
        <ele>111.2</ele>
        <time>2021-03-20T11:31:32Z</time>
      </trkpt>
      <trkpt lat="41.2706340" lon="-8.5351000">
        <ele>111.4</ele>
        <time>2021-03-20T11:31:33Z</time>
      </trkpt>
      <trkpt lat="41.2706770" lon="-8.5351630">
        <ele>111.4</ele>
        <time>2021-03-20T11:31:34Z</time>
      </trkpt>
      <trkpt lat="41.2707090" lon="-8.5352060">
        <ele>111.2</ele>
        <time>2021-03-20T11:31:35Z</time>
      </trkpt>
      <trkpt lat="41.2707530" lon="-8.5352660">
        <ele>111.4</ele>
        <time>2021-03-20T11:31:36Z</time>
      </trkpt>
      <trkpt lat="41.2707750" lon="-8.5353000">
        <ele>111.6</ele>
        <time>2021-03-20T11:31:37Z</time>
      </trkpt>
      <trkpt lat="41.2708360" lon="-8.5353320">
        <ele>111.6</ele>
        <time>2021-03-20T11:31:38Z</time>
      </trkpt>
      <trkpt lat="41.2708990" lon="-8.5353820">
        <ele>111.4</ele>
        <time>2021-03-20T11:31:39Z</time>
      </trkpt>
      <trkpt lat="41.2709160" lon="-8.5354330">
        <ele>111.4</ele>
        <time>2021-03-20T11:31:40Z</time>
      </trkpt>
      <trkpt lat="41.2709500" lon="-8.5354810">
        <ele>111.6</ele>
        <time>2021-03-20T11:31:41Z</time>
      </trkpt>
      <trkpt lat="41.2709860" lon="-8.5355400">
        <ele>111.6</ele>
        <time>2021-03-20T11:31:42Z</time>
      </trkpt>
      <trkpt lat="41.2710260" lon="-8.5355950">
        <ele>111.8</ele>
        <time>2021-03-20T11:31:43Z</time>
      </trkpt>
      <trkpt lat="41.2710560" lon="-8.5356680">
        <ele>111.8</ele>
        <time>2021-03-20T11:31:44Z</time>
      </trkpt>
      <trkpt lat="41.2710610" lon="-8.5357410">
        <ele>112.2</ele>
        <time>2021-03-20T11:31:45Z</time>
      </trkpt>
      <trkpt lat="41.2710940" lon="-8.5357950">
        <ele>112.2</ele>
        <time>2021-03-20T11:31:46Z</time>
      </trkpt>
      <trkpt lat="41.2711220" lon="-8.5358570">
        <ele>112.4</ele>
        <time>2021-03-20T11:31:47Z</time>
      </trkpt>
      <trkpt lat="41.2711570" lon="-8.5359260">
        <ele>112.4</ele>
        <time>2021-03-20T11:31:48Z</time>
      </trkpt>
      <trkpt lat="41.2711950" lon="-8.5360440">
        <ele>112.6</ele>
        <time>2021-03-20T11:31:49Z</time>
      </trkpt>
      <trkpt lat="41.2712460" lon="-8.5361430">
        <ele>112.6</ele>
        <time>2021-03-20T11:31:50Z</time>
      </trkpt>
      <trkpt lat="41.2712790" lon="-8.5362010">
        <ele>113.0</ele>
        <time>2021-03-20T11:31:51Z</time>
      </trkpt>
      <trkpt lat="41.2713120" lon="-8.5362700">
        <ele>113.2</ele>
        <time>2021-03-20T11:31:52Z</time>
      </trkpt>
      <trkpt lat="41.2713260" lon="-8.5362860">
        <ele>113.4</ele>
        <time>2021-03-20T11:31:53Z</time>
      </trkpt>
      <trkpt lat="41.2713980" lon="-8.5363520">
        <ele>113.6</ele>
        <time>2021-03-20T11:31:54Z</time>
      </trkpt>
      <trkpt lat="41.2714330" lon="-8.5364090">
        <ele>113.8</ele>
        <time>2021-03-20T11:31:55Z</time>
      </trkpt>
      <trkpt lat="41.2714330" lon="-8.5364950">
        <ele>113.8</ele>
        <time>2021-03-20T11:31:56Z</time>
      </trkpt>
      <trkpt lat="41.2714590" lon="-8.5365760">
        <ele>114.0</ele>
        <time>2021-03-20T11:31:57Z</time>
      </trkpt>
      <trkpt lat="41.2715080" lon="-8.5366330">
        <ele>114.2</ele>
        <time>2021-03-20T11:31:58Z</time>
      </trkpt>
      <trkpt lat="41.2715160" lon="-8.5366610">
        <ele>114.4</ele>
        <time>2021-03-20T11:31:59Z</time>
      </trkpt>
      <trkpt lat="41.2715260" lon="-8.5367360">
        <ele>114.4</ele>
        <time>2021-03-20T11:32:00Z</time>
      </trkpt>
      <trkpt lat="41.2715840" lon="-8.5367740">
        <ele>114.8</ele>
        <time>2021-03-20T11:32:01Z</time>
      </trkpt>
      <trkpt lat="41.2715910" lon="-8.5368210">
        <ele>114.8</ele>
        <time>2021-03-20T11:32:02Z</time>
      </trkpt>
      <trkpt lat="41.2715990" lon="-8.5368680">
        <ele>115.2</ele>
        <time>2021-03-20T11:32:03Z</time>
      </trkpt>
      <trkpt lat="41.2716350" lon="-8.5369380">
        <ele>115.6</ele>
        <time>2021-03-20T11:32:04Z</time>
      </trkpt>
      <trkpt lat="41.2716600" lon="-8.5369930">
        <ele>116.0</ele>
        <time>2021-03-20T11:32:05Z</time>
      </trkpt>
      <trkpt lat="41.2716770" lon="-8.5370450">
        <ele>116.0</ele>
        <time>2021-03-20T11:32:06Z</time>
      </trkpt>
      <trkpt lat="41.2716980" lon="-8.5371090">
        <ele>116.4</ele>
        <time>2021-03-20T11:32:07Z</time>
      </trkpt>
      <trkpt lat="41.2717310" lon="-8.5371320">
        <ele>116.6</ele>
        <time>2021-03-20T11:32:08Z</time>
      </trkpt>
      <trkpt lat="41.2717510" lon="-8.5372680">
        <ele>116.8</ele>
        <time>2021-03-20T11:32:09Z</time>
      </trkpt>
      <trkpt lat="41.2717640" lon="-8.5373200">
        <ele>117.2</ele>
        <time>2021-03-20T11:32:10Z</time>
      </trkpt>
      <trkpt lat="41.2718110" lon="-8.5373620">
        <ele>117.4</ele>
        <time>2021-03-20T11:32:11Z</time>
      </trkpt>
      <trkpt lat="41.2718740" lon="-8.5373250">
        <ele>117.8</ele>
        <time>2021-03-20T11:32:12Z</time>
      </trkpt>
      <trkpt lat="41.2719100" lon="-8.5373770">
        <ele>118.0</ele>
        <time>2021-03-20T11:32:13Z</time>
      </trkpt>
      <trkpt lat="41.2719470" lon="-8.5373910">
        <ele>118.2</ele>
        <time>2021-03-20T11:32:14Z</time>
      </trkpt>
      <trkpt lat="41.2719580" lon="-8.5374550">
        <ele>118.6</ele>
        <time>2021-03-20T11:32:15Z</time>
      </trkpt>
      <trkpt lat="41.2719780" lon="-8.5375350">
        <ele>118.8</ele>
        <time>2021-03-20T11:32:16Z</time>
      </trkpt>
      <trkpt lat="41.2720100" lon="-8.5376110">
        <ele>119.0</ele>
        <time>2021-03-20T11:32:17Z</time>
      </trkpt>
      <trkpt lat="41.2720530" lon="-8.5376550">
        <ele>119.2</ele>
        <time>2021-03-20T11:32:18Z</time>
      </trkpt>
      <trkpt lat="41.2720670" lon="-8.5377410">
        <ele>119.6</ele>
        <time>2021-03-20T11:32:19Z</time>
      </trkpt>
      <trkpt lat="41.2721080" lon="-8.5377520">
        <ele>120.0</ele>
        <time>2021-03-20T11:32:20Z</time>
      </trkpt>
      <trkpt lat="41.2721460" lon="-8.5378010">
        <ele>120.0</ele>
        <time>2021-03-20T11:32:21Z</time>
      </trkpt>
      <trkpt lat="41.2721860" lon="-8.5378880">
        <ele>120.4</ele>
        <time>2021-03-20T11:32:22Z</time>
      </trkpt>
      <trkpt lat="41.2722410" lon="-8.5379260">
        <ele>120.6</ele>
        <time>2021-03-20T11:32:23Z</time>
      </trkpt>
      <trkpt lat="41.2722740" lon="-8.5379610">
        <ele>120.8</ele>
        <time>2021-03-20T11:32:24Z</time>
      </trkpt>
      <trkpt lat="41.2723080" lon="-8.5379790">
        <ele>121.0</ele>
        <time>2021-03-20T11:32:25Z</time>
      </trkpt>
      <trkpt lat="41.2723180" lon="-8.5380310">
        <ele>121.2</ele>
        <time>2021-03-20T11:32:26Z</time>
      </trkpt>
      <trkpt lat="41.2723920" lon="-8.5380610">
        <ele>121.4</ele>
        <time>2021-03-20T11:32:27Z</time>
      </trkpt>
      <trkpt lat="41.2724010" lon="-8.5381110">
        <ele>121.6</ele>
        <time>2021-03-20T11:32:28Z</time>
      </trkpt>
      <trkpt lat="41.2724560" lon="-8.5381510">
        <ele>122.0</ele>
        <time>2021-03-20T11:32:29Z</time>
      </trkpt>
      <trkpt lat="41.2725240" lon="-8.5381940">
        <ele>122.4</ele>
        <time>2021-03-20T11:32:30Z</time>
      </trkpt>
      <trkpt lat="41.2725350" lon="-8.5382460">
        <ele>122.4</ele>
        <time>2021-03-20T11:32:31Z</time>
      </trkpt>
      <trkpt lat="41.2725350" lon="-8.5382910">
        <ele>122.6</ele>
        <time>2021-03-20T11:32:32Z</time>
      </trkpt>
      <trkpt lat="41.2725840" lon="-8.5383370">
        <ele>122.8</ele>
        <time>2021-03-20T11:32:33Z</time>
      </trkpt>
      <trkpt lat="41.2726180" lon="-8.5383900">
        <ele>122.8</ele>
        <time>2021-03-20T11:32:34Z</time>
      </trkpt>
      <trkpt lat="41.2726480" lon="-8.5384270">
        <ele>123.0</ele>
        <time>2021-03-20T11:32:35Z</time>
      </trkpt>
      <trkpt lat="41.2727080" lon="-8.5384800">
        <ele>123.2</ele>
        <time>2021-03-20T11:32:36Z</time>
      </trkpt>
      <trkpt lat="41.2727240" lon="-8.5385320">
        <ele>123.4</ele>
        <time>2021-03-20T11:32:37Z</time>
      </trkpt>
      <trkpt lat="41.2727730" lon="-8.5385860">
        <ele>123.4</ele>
        <time>2021-03-20T11:32:38Z</time>
      </trkpt>
      <trkpt lat="41.2727990" lon="-8.5386260">
        <ele>123.6</ele>
        <time>2021-03-20T11:32:39Z</time>
      </trkpt>
      <trkpt lat="41.2728360" lon="-8.5386780">
        <ele>123.8</ele>
        <time>2021-03-20T11:32:40Z</time>
      </trkpt>
      <trkpt lat="41.2728670" lon="-8.5387340">
        <ele>124.0</ele>
        <time>2021-03-20T11:32:41Z</time>
      </trkpt>
      <trkpt lat="41.2729060" lon="-8.5387810">
        <ele>124.6</ele>
        <time>2021-03-20T11:32:42Z</time>
      </trkpt>
      <trkpt lat="41.2729340" lon="-8.5388100">
        <ele>125.0</ele>
        <time>2021-03-20T11:32:43Z</time>
      </trkpt>
      <trkpt lat="41.2729750" lon="-8.5388610">
        <ele>125.2</ele>
        <time>2021-03-20T11:32:44Z</time>
      </trkpt>
      <trkpt lat="41.2730140" lon="-8.5389050">
        <ele>125.4</ele>
        <time>2021-03-20T11:32:45Z</time>
      </trkpt>
      <trkpt lat="41.2730450" lon="-8.5389510">
        <ele>125.6</ele>
        <time>2021-03-20T11:32:46Z</time>
      </trkpt>
      <trkpt lat="41.2730840" lon="-8.5389980">
        <ele>125.8</ele>
        <time>2021-03-20T11:32:47Z</time>
      </trkpt>
      <trkpt lat="41.2731110" lon="-8.5390360">
        <ele>126.2</ele>
        <time>2021-03-20T11:32:48Z</time>
      </trkpt>
      <trkpt lat="41.2731420" lon="-8.5390810">
        <ele>126.4</ele>
        <time>2021-03-20T11:32:49Z</time>
      </trkpt>
      <trkpt lat="41.2731740" lon="-8.5391290">
        <ele>126.6</ele>
        <time>2021-03-20T11:32:50Z</time>
      </trkpt>
      <trkpt lat="41.2732080" lon="-8.5391770">
        <ele>126.8</ele>
        <time>2021-03-20T11:32:51Z</time>
      </trkpt>
      <trkpt lat="41.2732390" lon="-8.5392290">
        <ele>126.8</ele>
        <time>2021-03-20T11:32:52Z</time>
      </trkpt>
      <trkpt lat="41.2732620" lon="-8.5392700">
        <ele>127.0</ele>
        <time>2021-03-20T11:32:53Z</time>
      </trkpt>
      <trkpt lat="41.2732840" lon="-8.5393240">
        <ele>127.2</ele>
        <time>2021-03-20T11:32:54Z</time>
      </trkpt>
      <trkpt lat="41.2733270" lon="-8.5393760">
        <ele>127.2</ele>
        <time>2021-03-20T11:32:55Z</time>
      </trkpt>
      <trkpt lat="41.2733600" lon="-8.5394240">
        <ele>127.4</ele>
        <time>2021-03-20T11:32:56Z</time>
      </trkpt>
      <trkpt lat="41.2734060" lon="-8.5394750">
        <ele>127.6</ele>
        <time>2021-03-20T11:32:57Z</time>
      </trkpt>
      <trkpt lat="41.2734270" lon="-8.5395170">
        <ele>127.6</ele>
        <time>2021-03-20T11:32:58Z</time>
      </trkpt>
      <trkpt lat="41.2734620" lon="-8.5395630">
        <ele>127.6</ele>
        <time>2021-03-20T11:32:59Z</time>
      </trkpt>
      <trkpt lat="41.2734960" lon="-8.5396170">
        <ele>127.8</ele>
        <time>2021-03-20T11:33:00Z</time>
      </trkpt>
      <trkpt lat="41.2735270" lon="-8.5396640">
        <ele>127.8</ele>
        <time>2021-03-20T11:33:01Z</time>
      </trkpt>
      <trkpt lat="41.2735550" lon="-8.5397010">
        <ele>127.6</ele>
        <time>2021-03-20T11:33:02Z</time>
      </trkpt>
      <trkpt lat="41.2735870" lon="-8.5397480">
        <ele>127.8</ele>
        <time>2021-03-20T11:33:03Z</time>
      </trkpt>
      <trkpt lat="41.2736220" lon="-8.5397960">
        <ele>127.8</ele>
        <time>2021-03-20T11:33:04Z</time>
      </trkpt>
      <trkpt lat="41.2736540" lon="-8.5398470">
        <ele>127.6</ele>
        <time>2021-03-20T11:33:05Z</time>
      </trkpt>
      <trkpt lat="41.2736780" lon="-8.5398780">
        <ele>127.6</ele>
        <time>2021-03-20T11:33:06Z</time>
      </trkpt>
      <trkpt lat="41.2737120" lon="-8.5399330">
        <ele>127.8</ele>
        <time>2021-03-20T11:33:07Z</time>
      </trkpt>
      <trkpt lat="41.2737460" lon="-8.5399940">
        <ele>127.8</ele>
        <time>2021-03-20T11:33:08Z</time>
      </trkpt>
      <trkpt lat="41.2737840" lon="-8.5400440">
        <ele>127.6</ele>
        <time>2021-03-20T11:33:09Z</time>
      </trkpt>
      <trkpt lat="41.2738160" lon="-8.5401030">
        <ele>127.6</ele>
        <time>2021-03-20T11:33:10Z</time>
      </trkpt>
      <trkpt lat="41.2738370" lon="-8.5401390">
        <ele>127.6</ele>
        <time>2021-03-20T11:33:11Z</time>
      </trkpt>
      <trkpt lat="41.2738740" lon="-8.5401920">
        <ele>127.6</ele>
        <time>2021-03-20T11:33:12Z</time>
      </trkpt>
      <trkpt lat="41.2739090" lon="-8.5402490">
        <ele>127.4</ele>
        <time>2021-03-20T11:33:13Z</time>
      </trkpt>
      <trkpt lat="41.2739410" lon="-8.5403000">
        <ele>127.0</ele>
        <time>2021-03-20T11:33:14Z</time>
      </trkpt>
      <trkpt lat="41.2739670" lon="-8.5403400">
        <ele>126.8</ele>
        <time>2021-03-20T11:33:15Z</time>
      </trkpt>
      <trkpt lat="41.2739970" lon="-8.5403880">
        <ele>126.6</ele>
        <time>2021-03-20T11:33:16Z</time>
      </trkpt>
      <trkpt lat="41.2740280" lon="-8.5404370">
        <ele>126.4</ele>
        <time>2021-03-20T11:33:17Z</time>
      </trkpt>
      <trkpt lat="41.2740610" lon="-8.5404870">
        <ele>126.2</ele>
        <time>2021-03-20T11:33:18Z</time>
      </trkpt>
      <trkpt lat="41.2740920" lon="-8.5405470">
        <ele>126.0</ele>
        <time>2021-03-20T11:33:19Z</time>
      </trkpt>
      <trkpt lat="41.2741200" lon="-8.5405920">
        <ele>125.6</ele>
        <time>2021-03-20T11:33:20Z</time>
      </trkpt>
      <trkpt lat="41.2741570" lon="-8.5406530">
        <ele>125.4</ele>
        <time>2021-03-20T11:33:21Z</time>
      </trkpt>
      <trkpt lat="41.2741990" lon="-8.5406920">
        <ele>125.0</ele>
        <time>2021-03-20T11:33:22Z</time>
      </trkpt>
      <trkpt lat="41.2742480" lon="-8.5407450">
        <ele>125.0</ele>
        <time>2021-03-20T11:33:23Z</time>
      </trkpt>
      <trkpt lat="41.2742850" lon="-8.5407820">
        <ele>124.8</ele>
        <time>2021-03-20T11:33:24Z</time>
      </trkpt>
      <trkpt lat="41.2743450" lon="-8.5408270">
        <ele>124.6</ele>
        <time>2021-03-20T11:33:25Z</time>
      </trkpt>
      <trkpt lat="41.2744050" lon="-8.5408710">
        <ele>124.0</ele>
        <time>2021-03-20T11:33:26Z</time>
      </trkpt>
      <trkpt lat="41.2744630" lon="-8.5409170">
        <ele>123.6</ele>
        <time>2021-03-20T11:33:27Z</time>
      </trkpt>
      <trkpt lat="41.2745230" lon="-8.5409670">
        <ele>123.0</ele>
        <time>2021-03-20T11:33:28Z</time>
      </trkpt>
      <trkpt lat="41.2745670" lon="-8.5410040">
        <ele>122.8</ele>
        <time>2021-03-20T11:33:29Z</time>
      </trkpt>
      <trkpt lat="41.2746250" lon="-8.5410490">
        <ele>122.4</ele>
        <time>2021-03-20T11:33:30Z</time>
      </trkpt>
      <trkpt lat="41.2746840" lon="-8.5411070">
        <ele>122.2</ele>
        <time>2021-03-20T11:33:31Z</time>
      </trkpt>
      <trkpt lat="41.2747310" lon="-8.5411780">
        <ele>121.8</ele>
        <time>2021-03-20T11:33:32Z</time>
      </trkpt>
      <trkpt lat="41.2747680" lon="-8.5412280">
        <ele>121.2</ele>
        <time>2021-03-20T11:33:33Z</time>
      </trkpt>
      <trkpt lat="41.2747990" lon="-8.5413100">
        <ele>120.8</ele>
        <time>2021-03-20T11:33:34Z</time>
      </trkpt>
      <trkpt lat="41.2748350" lon="-8.5413850">
        <ele>120.4</ele>
        <time>2021-03-20T11:33:35Z</time>
      </trkpt>
      <trkpt lat="41.2748540" lon="-8.5414750">
        <ele>119.6</ele>
        <time>2021-03-20T11:33:36Z</time>
      </trkpt>
      <trkpt lat="41.2748700" lon="-8.5415600">
        <ele>119.4</ele>
        <time>2021-03-20T11:33:37Z</time>
      </trkpt>
      <trkpt lat="41.2748850" lon="-8.5416220">
        <ele>119.2</ele>
        <time>2021-03-20T11:33:38Z</time>
      </trkpt>
      <trkpt lat="41.2748970" lon="-8.5417240">
        <ele>119.0</ele>
        <time>2021-03-20T11:33:39Z</time>
      </trkpt>
      <trkpt lat="41.2749040" lon="-8.5418350">
        <ele>118.2</ele>
        <time>2021-03-20T11:33:40Z</time>
      </trkpt>
      <trkpt lat="41.2749130" lon="-8.5419370">
        <ele>117.8</ele>
        <time>2021-03-20T11:33:41Z</time>
      </trkpt>
      <trkpt lat="41.2749180" lon="-8.5420130">
        <ele>117.6</ele>
        <time>2021-03-20T11:33:42Z</time>
      </trkpt>
      <trkpt lat="41.2749300" lon="-8.5421100">
        <ele>117.4</ele>
        <time>2021-03-20T11:33:43Z</time>
      </trkpt>
      <trkpt lat="41.2749430" lon="-8.5422170">
        <ele>117.2</ele>
        <time>2021-03-20T11:33:44Z</time>
      </trkpt>
      <trkpt lat="41.2749470" lon="-8.5423310">
        <ele>116.8</ele>
        <time>2021-03-20T11:33:45Z</time>
      </trkpt>
      <trkpt lat="41.2749550" lon="-8.5424400">
        <ele>117.0</ele>
        <time>2021-03-20T11:33:46Z</time>
      </trkpt>
      <trkpt lat="41.2749620" lon="-8.5425470">
        <ele>117.0</ele>
        <time>2021-03-20T11:33:47Z</time>
      </trkpt>
      <trkpt lat="41.2749710" lon="-8.5426530">
        <ele>116.8</ele>
        <time>2021-03-20T11:33:48Z</time>
      </trkpt>
      <trkpt lat="41.2749760" lon="-8.5427660">
        <ele>116.4</ele>
        <time>2021-03-20T11:33:49Z</time>
      </trkpt>
      <trkpt lat="41.2749830" lon="-8.5428740">
        <ele>116.0</ele>
        <time>2021-03-20T11:33:50Z</time>
      </trkpt>
      <trkpt lat="41.2749890" lon="-8.5429800">
        <ele>115.6</ele>
        <time>2021-03-20T11:33:51Z</time>
      </trkpt>
      <trkpt lat="41.2749970" lon="-8.5431010">
        <ele>115.4</ele>
        <time>2021-03-20T11:33:52Z</time>
      </trkpt>
      <trkpt lat="41.2750090" lon="-8.5432240">
        <ele>115.2</ele>
        <time>2021-03-20T11:33:53Z</time>
      </trkpt>
      <trkpt lat="41.2750280" lon="-8.5433430">
        <ele>115.4</ele>
        <time>2021-03-20T11:33:54Z</time>
      </trkpt>
      <trkpt lat="41.2750440" lon="-8.5434620">
        <ele>115.4</ele>
        <time>2021-03-20T11:33:55Z</time>
      </trkpt>
      <trkpt lat="41.2750720" lon="-8.5435740">
        <ele>115.2</ele>
        <time>2021-03-20T11:33:56Z</time>
      </trkpt>
      <trkpt lat="41.2751070" lon="-8.5436920">
        <ele>115.0</ele>
        <time>2021-03-20T11:33:57Z</time>
      </trkpt>
      <trkpt lat="41.2751390" lon="-8.5437960">
        <ele>115.0</ele>
        <time>2021-03-20T11:33:58Z</time>
      </trkpt>
      <trkpt lat="41.2751730" lon="-8.5439060">
        <ele>114.8</ele>
        <time>2021-03-20T11:33:59Z</time>
      </trkpt>
      <trkpt lat="41.2752070" lon="-8.5440240">
        <ele>114.4</ele>
        <time>2021-03-20T11:34:00Z</time>
      </trkpt>
      <trkpt lat="41.2752370" lon="-8.5441550">
        <ele>114.0</ele>
        <time>2021-03-20T11:34:01Z</time>
      </trkpt>
      <trkpt lat="41.2752690" lon="-8.5442740">
        <ele>113.2</ele>
        <time>2021-03-20T11:34:02Z</time>
      </trkpt>
      <trkpt lat="41.2753030" lon="-8.5443810">
        <ele>112.8</ele>
        <time>2021-03-20T11:34:03Z</time>
      </trkpt>
      <trkpt lat="41.2753390" lon="-8.5444870">
        <ele>112.6</ele>
        <time>2021-03-20T11:34:04Z</time>
      </trkpt>
      <trkpt lat="41.2753730" lon="-8.5446000">
        <ele>111.8</ele>
        <time>2021-03-20T11:34:05Z</time>
      </trkpt>
      <trkpt lat="41.2754110" lon="-8.5447160">
        <ele>111.4</ele>
        <time>2021-03-20T11:34:06Z</time>
      </trkpt>
      <trkpt lat="41.2754560" lon="-8.5448160">
        <ele>111.0</ele>
        <time>2021-03-20T11:34:07Z</time>
      </trkpt>
      <trkpt lat="41.2754930" lon="-8.5449390">
        <ele>110.4</ele>
        <time>2021-03-20T11:34:08Z</time>
      </trkpt>
      <trkpt lat="41.2755320" lon="-8.5450610">
        <ele>110.0</ele>
        <time>2021-03-20T11:34:09Z</time>
      </trkpt>
      <trkpt lat="41.2755700" lon="-8.5451780">
        <ele>109.6</ele>
        <time>2021-03-20T11:34:10Z</time>
      </trkpt>
      <trkpt lat="41.2756120" lon="-8.5452990">
        <ele>109.4</ele>
        <time>2021-03-20T11:34:11Z</time>
      </trkpt>
      <trkpt lat="41.2756500" lon="-8.5454250">
        <ele>108.6</ele>
        <time>2021-03-20T11:34:12Z</time>
      </trkpt>
      <trkpt lat="41.2756880" lon="-8.5455540">
        <ele>108.4</ele>
        <time>2021-03-20T11:34:13Z</time>
      </trkpt>
      <trkpt lat="41.2757230" lon="-8.5456830">
        <ele>108.0</ele>
        <time>2021-03-20T11:34:14Z</time>
      </trkpt>
      <trkpt lat="41.2757620" lon="-8.5458160">
        <ele>107.8</ele>
        <time>2021-03-20T11:34:15Z</time>
      </trkpt>
      <trkpt lat="41.2758060" lon="-8.5459380">
        <ele>107.6</ele>
        <time>2021-03-20T11:34:16Z</time>
      </trkpt>
      <trkpt lat="41.2758440" lon="-8.5460710">
        <ele>107.4</ele>
        <time>2021-03-20T11:34:17Z</time>
      </trkpt>
      <trkpt lat="41.2758870" lon="-8.5462000">
        <ele>107.4</ele>
        <time>2021-03-20T11:34:18Z</time>
      </trkpt>
      <trkpt lat="41.2759280" lon="-8.5463300">
        <ele>107.0</ele>
        <time>2021-03-20T11:34:19Z</time>
      </trkpt>
      <trkpt lat="41.2759730" lon="-8.5464540">
        <ele>106.6</ele>
        <time>2021-03-20T11:34:20Z</time>
      </trkpt>
      <trkpt lat="41.2760170" lon="-8.5465830">
        <ele>107.2</ele>
        <time>2021-03-20T11:34:21Z</time>
      </trkpt>
      <trkpt lat="41.2760660" lon="-8.5467060">
        <ele>107.4</ele>
        <time>2021-03-20T11:34:22Z</time>
      </trkpt>
      <trkpt lat="41.2761260" lon="-8.5468240">
        <ele>107.4</ele>
        <time>2021-03-20T11:34:23Z</time>
      </trkpt>
      <trkpt lat="41.2761890" lon="-8.5469440">
        <ele>107.2</ele>
        <time>2021-03-20T11:34:24Z</time>
      </trkpt>
      <trkpt lat="41.2762470" lon="-8.5470610">
        <ele>107.2</ele>
        <time>2021-03-20T11:34:25Z</time>
      </trkpt>
      <trkpt lat="41.2763120" lon="-8.5471560">
        <ele>106.8</ele>
        <time>2021-03-20T11:34:26Z</time>
      </trkpt>
      <trkpt lat="41.2763790" lon="-8.5472570">
        <ele>106.4</ele>
        <time>2021-03-20T11:34:27Z</time>
      </trkpt>
      <trkpt lat="41.2764440" lon="-8.5473500">
        <ele>105.8</ele>
        <time>2021-03-20T11:34:28Z</time>
      </trkpt>
      <trkpt lat="41.2765090" lon="-8.5474390">
        <ele>105.4</ele>
        <time>2021-03-20T11:34:29Z</time>
      </trkpt>
      <trkpt lat="41.2765680" lon="-8.5475390">
        <ele>105.2</ele>
        <time>2021-03-20T11:34:30Z</time>
      </trkpt>
      <trkpt lat="41.2766280" lon="-8.5476370">
        <ele>104.6</ele>
        <time>2021-03-20T11:34:31Z</time>
      </trkpt>
      <trkpt lat="41.2766940" lon="-8.5477310">
        <ele>103.8</ele>
        <time>2021-03-20T11:34:32Z</time>
      </trkpt>
      <trkpt lat="41.2767590" lon="-8.5478200">
        <ele>103.4</ele>
        <time>2021-03-20T11:34:33Z</time>
      </trkpt>
      <trkpt lat="41.2768250" lon="-8.5479210">
        <ele>103.0</ele>
        <time>2021-03-20T11:34:34Z</time>
      </trkpt>
      <trkpt lat="41.2768920" lon="-8.5480240">
        <ele>102.8</ele>
        <time>2021-03-20T11:34:35Z</time>
      </trkpt>
      <trkpt lat="41.2769600" lon="-8.5481350">
        <ele>102.2</ele>
        <time>2021-03-20T11:34:36Z</time>
      </trkpt>
      <trkpt lat="41.2770290" lon="-8.5482420">
        <ele>101.2</ele>
        <time>2021-03-20T11:34:37Z</time>
      </trkpt>
      <trkpt lat="41.2770970" lon="-8.5483480">
        <ele>101.0</ele>
        <time>2021-03-20T11:34:38Z</time>
      </trkpt>
      <trkpt lat="41.2771590" lon="-8.5484440">
        <ele>100.4</ele>
        <time>2021-03-20T11:34:39Z</time>
      </trkpt>
      <trkpt lat="41.2772290" lon="-8.5485410">
        <ele>99.6</ele>
        <time>2021-03-20T11:34:40Z</time>
      </trkpt>
      <trkpt lat="41.2772780" lon="-8.5486410">
        <ele>98.8</ele>
        <time>2021-03-20T11:34:41Z</time>
      </trkpt>
      <trkpt lat="41.2773880" lon="-8.5487590">
        <ele>98.4</ele>
        <time>2021-03-20T11:34:42Z</time>
      </trkpt>
      <trkpt lat="41.2774640" lon="-8.5488440">
        <ele>98.2</ele>
        <time>2021-03-20T11:34:43Z</time>
      </trkpt>
      <trkpt lat="41.2775350" lon="-8.5490000">
        <ele>97.4</ele>
        <time>2021-03-20T11:34:44Z</time>
      </trkpt>
      <trkpt lat="41.2776080" lon="-8.5491200">
        <ele>96.8</ele>
        <time>2021-03-20T11:34:45Z</time>
      </trkpt>
      <trkpt lat="41.2776920" lon="-8.5492730">
        <ele>95.8</ele>
        <time>2021-03-20T11:34:46Z</time>
      </trkpt>
      <trkpt lat="41.2777610" lon="-8.5493960">
        <ele>95.0</ele>
        <time>2021-03-20T11:34:47Z</time>
      </trkpt>
      <trkpt lat="41.2777810" lon="-8.5495320">
        <ele>94.6</ele>
        <time>2021-03-20T11:34:48Z</time>
      </trkpt>
      <trkpt lat="41.2778260" lon="-8.5496330">
        <ele>94.0</ele>
        <time>2021-03-20T11:34:49Z</time>
      </trkpt>
      <trkpt lat="41.2778840" lon="-8.5497750">
        <ele>93.6</ele>
        <time>2021-03-20T11:34:50Z</time>
      </trkpt>
      <trkpt lat="41.2779100" lon="-8.5499140">
        <ele>93.2</ele>
        <time>2021-03-20T11:34:51Z</time>
      </trkpt>
      <trkpt lat="41.2779910" lon="-8.5500460">
        <ele>92.6</ele>
        <time>2021-03-20T11:34:52Z</time>
      </trkpt>
      <trkpt lat="41.2780280" lon="-8.5501970">
        <ele>92.2</ele>
        <time>2021-03-20T11:34:53Z</time>
      </trkpt>
      <trkpt lat="41.2781020" lon="-8.5503390">
        <ele>92.0</ele>
        <time>2021-03-20T11:34:54Z</time>
      </trkpt>
      <trkpt lat="41.2781480" lon="-8.5504730">
        <ele>91.0</ele>
        <time>2021-03-20T11:34:55Z</time>
      </trkpt>
      <trkpt lat="41.2781830" lon="-8.5507120">
        <ele>90.6</ele>
        <time>2021-03-20T11:34:56Z</time>
      </trkpt>
      <trkpt lat="41.2782410" lon="-8.5508190">
        <ele>89.8</ele>
        <time>2021-03-20T11:34:57Z</time>
      </trkpt>
      <trkpt lat="41.2783110" lon="-8.5509650">
        <ele>89.6</ele>
        <time>2021-03-20T11:34:58Z</time>
      </trkpt>
      <trkpt lat="41.2783820" lon="-8.5510520">
        <ele>90.0</ele>
        <time>2021-03-20T11:34:59Z</time>
      </trkpt>
      <trkpt lat="41.2784980" lon="-8.5511670">
        <ele>90.0</ele>
        <time>2021-03-20T11:35:00Z</time>
      </trkpt>
      <trkpt lat="41.2785470" lon="-8.5512920">
        <ele>89.8</ele>
        <time>2021-03-20T11:35:01Z</time>
      </trkpt>
      <trkpt lat="41.2786050" lon="-8.5513740">
        <ele>89.4</ele>
        <time>2021-03-20T11:35:02Z</time>
      </trkpt>
      <trkpt lat="41.2787180" lon="-8.5515100">
        <ele>89.2</ele>
        <time>2021-03-20T11:35:03Z</time>
      </trkpt>
      <trkpt lat="41.2787840" lon="-8.5515870">
        <ele>89.2</ele>
        <time>2021-03-20T11:35:04Z</time>
      </trkpt>
      <trkpt lat="41.2788550" lon="-8.5516930">
        <ele>89.4</ele>
        <time>2021-03-20T11:35:05Z</time>
      </trkpt>
      <trkpt lat="41.2789040" lon="-8.5517980">
        <ele>89.6</ele>
        <time>2021-03-20T11:35:06Z</time>
      </trkpt>
      <trkpt lat="41.2790250" lon="-8.5519340">
        <ele>89.6</ele>
        <time>2021-03-20T11:35:07Z</time>
      </trkpt>
      <trkpt lat="41.2790770" lon="-8.5520590">
        <ele>89.2</ele>
        <time>2021-03-20T11:35:08Z</time>
      </trkpt>
      <trkpt lat="41.2791590" lon="-8.5521670">
        <ele>88.6</ele>
        <time>2021-03-20T11:35:09Z</time>
      </trkpt>
      <trkpt lat="41.2792030" lon="-8.5522720">
        <ele>88.6</ele>
        <time>2021-03-20T11:35:10Z</time>
      </trkpt>
      <trkpt lat="41.2792450" lon="-8.5523650">
        <ele>88.4</ele>
        <time>2021-03-20T11:35:11Z</time>
      </trkpt>
      <trkpt lat="41.2793030" lon="-8.5524720">
        <ele>88.0</ele>
        <time>2021-03-20T11:35:12Z</time>
      </trkpt>
      <trkpt lat="41.2792910" lon="-8.5525910">
        <ele>87.8</ele>
        <time>2021-03-20T11:35:13Z</time>
      </trkpt>
      <trkpt lat="41.2793280" lon="-8.5527430">
        <ele>87.8</ele>
        <time>2021-03-20T11:35:14Z</time>
      </trkpt>
      <trkpt lat="41.2793370" lon="-8.5528670">
        <ele>88.2</ele>
        <time>2021-03-20T11:35:15Z</time>
      </trkpt>
      <trkpt lat="41.2793430" lon="-8.5529840">
        <ele>88.6</ele>
        <time>2021-03-20T11:35:16Z</time>
      </trkpt>
      <trkpt lat="41.2793740" lon="-8.5531040">
        <ele>88.6</ele>
        <time>2021-03-20T11:35:17Z</time>
      </trkpt>
      <trkpt lat="41.2793860" lon="-8.5532380">
        <ele>89.0</ele>
        <time>2021-03-20T11:35:18Z</time>
      </trkpt>
      <trkpt lat="41.2794120" lon="-8.5533520">
        <ele>89.4</ele>
        <time>2021-03-20T11:35:19Z</time>
      </trkpt>
      <trkpt lat="41.2794240" lon="-8.5534370">
        <ele>89.6</ele>
        <time>2021-03-20T11:35:20Z</time>
      </trkpt>
      <trkpt lat="41.2794150" lon="-8.5535680">
        <ele>89.8</ele>
        <time>2021-03-20T11:35:21Z</time>
      </trkpt>
      <trkpt lat="41.2794480" lon="-8.5536930">
        <ele>90.0</ele>
        <time>2021-03-20T11:35:22Z</time>
      </trkpt>
      <trkpt lat="41.2794440" lon="-8.5538030">
        <ele>90.4</ele>
        <time>2021-03-20T11:35:23Z</time>
      </trkpt>
      <trkpt lat="41.2794080" lon="-8.5539050">
        <ele>90.4</ele>
        <time>2021-03-20T11:35:24Z</time>
      </trkpt>
      <trkpt lat="41.2793880" lon="-8.5540000">
        <ele>90.6</ele>
        <time>2021-03-20T11:35:25Z</time>
      </trkpt>
      <trkpt lat="41.2793830" lon="-8.5540980">
        <ele>90.8</ele>
        <time>2021-03-20T11:35:26Z</time>
      </trkpt>
      <trkpt lat="41.2793730" lon="-8.5541740">
        <ele>90.8</ele>
        <time>2021-03-20T11:35:27Z</time>
      </trkpt>
      <trkpt lat="41.2792890" lon="-8.5542420">
        <ele>91.0</ele>
        <time>2021-03-20T11:35:28Z</time>
      </trkpt>
      <trkpt lat="41.2792580" lon="-8.5543780">
        <ele>91.2</ele>
        <time>2021-03-20T11:35:29Z</time>
      </trkpt>
      <trkpt lat="41.2792730" lon="-8.5544400">
        <ele>91.2</ele>
        <time>2021-03-20T11:35:30Z</time>
      </trkpt>
      <trkpt lat="41.2792690" lon="-8.5544990">
        <ele>91.4</ele>
        <time>2021-03-20T11:35:31Z</time>
      </trkpt>
      <trkpt lat="41.2793050" lon="-8.5545780">
        <ele>91.8</ele>
        <time>2021-03-20T11:35:32Z</time>
      </trkpt>
      <trkpt lat="41.2792430" lon="-8.5546430">
        <ele>92.0</ele>
        <time>2021-03-20T11:35:33Z</time>
      </trkpt>
      <trkpt lat="41.2792420" lon="-8.5546970">
        <ele>92.0</ele>
        <time>2021-03-20T11:35:34Z</time>
      </trkpt>
      <trkpt lat="41.2792350" lon="-8.5547640">
        <ele>92.2</ele>
        <time>2021-03-20T11:35:35Z</time>
      </trkpt>
      <trkpt lat="41.2792210" lon="-8.5548330">
        <ele>92.2</ele>
        <time>2021-03-20T11:35:36Z</time>
      </trkpt>
      <trkpt lat="41.2792130" lon="-8.5548920">
        <ele>92.4</ele>
        <time>2021-03-20T11:35:37Z</time>
      </trkpt>
      <trkpt lat="41.2791980" lon="-8.5549570">
        <ele>92.4</ele>
        <time>2021-03-20T11:35:38Z</time>
      </trkpt>
      <trkpt lat="41.2791720" lon="-8.5550000">
        <ele>92.6</ele>
        <time>2021-03-20T11:35:39Z</time>
      </trkpt>
      <trkpt lat="41.2791720" lon="-8.5550630">
        <ele>92.8</ele>
        <time>2021-03-20T11:35:40Z</time>
      </trkpt>
      <trkpt lat="41.2790950" lon="-8.5551390">
        <ele>93.2</ele>
        <time>2021-03-20T11:35:41Z</time>
      </trkpt>
      <trkpt lat="41.2790970" lon="-8.5551830">
        <ele>93.2</ele>
        <time>2021-03-20T11:35:42Z</time>
      </trkpt>
      <trkpt lat="41.2790440" lon="-8.5553670">
        <ele>93.4</ele>
        <time>2021-03-20T11:35:43Z</time>
      </trkpt>
      <trkpt lat="41.2790200" lon="-8.5554510">
        <ele>93.6</ele>
        <time>2021-03-20T11:35:44Z</time>
      </trkpt>
      <trkpt lat="41.2790390" lon="-8.5555500">
        <ele>93.6</ele>
        <time>2021-03-20T11:35:45Z</time>
      </trkpt>
      <trkpt lat="41.2789870" lon="-8.5556590">
        <ele>93.8</ele>
        <time>2021-03-20T11:35:46Z</time>
      </trkpt>
      <trkpt lat="41.2790470" lon="-8.5557100">
        <ele>93.8</ele>
        <time>2021-03-20T11:35:47Z</time>
      </trkpt>
      <trkpt lat="41.2790660" lon="-8.5558030">
        <ele>93.6</ele>
        <time>2021-03-20T11:35:48Z</time>
      </trkpt>
      <trkpt lat="41.2790820" lon="-8.5558910">
        <ele>93.2</ele>
        <time>2021-03-20T11:35:49Z</time>
      </trkpt>
      <trkpt lat="41.2790990" lon="-8.5559890">
        <ele>93.2</ele>
        <time>2021-03-20T11:35:50Z</time>
      </trkpt>
      <trkpt lat="41.2791320" lon="-8.5560470">
        <ele>93.0</ele>
        <time>2021-03-20T11:35:51Z</time>
      </trkpt>
      <trkpt lat="41.2791900" lon="-8.5561160">
        <ele>92.6</ele>
        <time>2021-03-20T11:35:52Z</time>
      </trkpt>
      <trkpt lat="41.2792000" lon="-8.5561840">
        <ele>92.2</ele>
        <time>2021-03-20T11:35:53Z</time>
      </trkpt>
      <trkpt lat="41.2792410" lon="-8.5562740">
        <ele>91.8</ele>
        <time>2021-03-20T11:35:54Z</time>
      </trkpt>
      <trkpt lat="41.2792810" lon="-8.5563560">
        <ele>91.8</ele>
        <time>2021-03-20T11:35:55Z</time>
      </trkpt>
      <trkpt lat="41.2793340" lon="-8.5564510">
        <ele>91.8</ele>
        <time>2021-03-20T11:35:56Z</time>
      </trkpt>
      <trkpt lat="41.2793740" lon="-8.5565410">
        <ele>91.8</ele>
        <time>2021-03-20T11:35:57Z</time>
      </trkpt>
      <trkpt lat="41.2794330" lon="-8.5566160">
        <ele>91.8</ele>
        <time>2021-03-20T11:35:58Z</time>
      </trkpt>
      <trkpt lat="41.2794510" lon="-8.5567130">
        <ele>91.6</ele>
        <time>2021-03-20T11:35:59Z</time>
      </trkpt>
      <trkpt lat="41.2795040" lon="-8.5568180">
        <ele>91.4</ele>
        <time>2021-03-20T11:36:00Z</time>
      </trkpt>
      <trkpt lat="41.2795220" lon="-8.5569330">
        <ele>91.0</ele>
        <time>2021-03-20T11:36:01Z</time>
      </trkpt>
      <trkpt lat="41.2795450" lon="-8.5569980">
        <ele>90.8</ele>
        <time>2021-03-20T11:36:02Z</time>
      </trkpt>
      <trkpt lat="41.2796010" lon="-8.5570970">
        <ele>90.6</ele>
        <time>2021-03-20T11:36:03Z</time>
      </trkpt>
      <trkpt lat="41.2796590" lon="-8.5571920">
        <ele>90.6</ele>
        <time>2021-03-20T11:36:04Z</time>
      </trkpt>
      <trkpt lat="41.2796930" lon="-8.5572860">
        <ele>90.4</ele>
        <time>2021-03-20T11:36:05Z</time>
      </trkpt>
      <trkpt lat="41.2797190" lon="-8.5573790">
        <ele>90.2</ele>
        <time>2021-03-20T11:36:06Z</time>
      </trkpt>
      <trkpt lat="41.2797550" lon="-8.5574810">
        <ele>90.2</ele>
        <time>2021-03-20T11:36:07Z</time>
      </trkpt>
      <trkpt lat="41.2798250" lon="-8.5575730">
        <ele>90.2</ele>
        <time>2021-03-20T11:36:08Z</time>
      </trkpt>
      <trkpt lat="41.2798660" lon="-8.5577340">
        <ele>90.0</ele>
        <time>2021-03-20T11:36:09Z</time>
      </trkpt>
      <trkpt lat="41.2799240" lon="-8.5577830">
        <ele>89.8</ele>
        <time>2021-03-20T11:36:10Z</time>
      </trkpt>
      <trkpt lat="41.2799430" lon="-8.5578950">
        <ele>90.0</ele>
        <time>2021-03-20T11:36:11Z</time>
      </trkpt>
      <trkpt lat="41.2799890" lon="-8.5579080">
        <ele>90.2</ele>
        <time>2021-03-20T11:36:12Z</time>
      </trkpt>
      <trkpt lat="41.2800300" lon="-8.5580200">
        <ele>90.2</ele>
        <time>2021-03-20T11:36:13Z</time>
      </trkpt>
      <trkpt lat="41.2800580" lon="-8.5582060">
        <ele>90.2</ele>
        <time>2021-03-20T11:36:14Z</time>
      </trkpt>
      <trkpt lat="41.2801130" lon="-8.5582640">
        <ele>90.2</ele>
        <time>2021-03-20T11:36:15Z</time>
      </trkpt>
      <trkpt lat="41.2801390" lon="-8.5583370">
        <ele>90.4</ele>
        <time>2021-03-20T11:36:16Z</time>
      </trkpt>
      <trkpt lat="41.2801960" lon="-8.5584750">
        <ele>90.6</ele>
        <time>2021-03-20T11:36:17Z</time>
      </trkpt>
      <trkpt lat="41.2802690" lon="-8.5585510">
        <ele>90.4</ele>
        <time>2021-03-20T11:36:18Z</time>
      </trkpt>
      <trkpt lat="41.2803270" lon="-8.5586280">
        <ele>90.4</ele>
        <time>2021-03-20T11:36:19Z</time>
      </trkpt>
      <trkpt lat="41.2803590" lon="-8.5587130">
        <ele>90.6</ele>
        <time>2021-03-20T11:36:20Z</time>
      </trkpt>
      <trkpt lat="41.2803650" lon="-8.5588080">
        <ele>90.8</ele>
        <time>2021-03-20T11:36:21Z</time>
      </trkpt>
      <trkpt lat="41.2804680" lon="-8.5588940">
        <ele>90.8</ele>
        <time>2021-03-20T11:36:22Z</time>
      </trkpt>
      <trkpt lat="41.2804850" lon="-8.5589830">
        <ele>90.8</ele>
        <time>2021-03-20T11:36:23Z</time>
      </trkpt>
      <trkpt lat="41.2805180" lon="-8.5590550">
        <ele>91.0</ele>
        <time>2021-03-20T11:36:24Z</time>
      </trkpt>
      <trkpt lat="41.2805820" lon="-8.5591440">
        <ele>91.2</ele>
        <time>2021-03-20T11:36:25Z</time>
      </trkpt>
      <trkpt lat="41.2805890" lon="-8.5592250">
        <ele>91.2</ele>
        <time>2021-03-20T11:36:26Z</time>
      </trkpt>
      <trkpt lat="41.2806550" lon="-8.5593090">
        <ele>91.2</ele>
        <time>2021-03-20T11:36:27Z</time>
      </trkpt>
      <trkpt lat="41.2806800" lon="-8.5593820">
        <ele>91.4</ele>
        <time>2021-03-20T11:36:28Z</time>
      </trkpt>
      <trkpt lat="41.2806990" lon="-8.5594820">
        <ele>91.6</ele>
        <time>2021-03-20T11:36:29Z</time>
      </trkpt>
      <trkpt lat="41.2807560" lon="-8.5595590">
        <ele>91.4</ele>
        <time>2021-03-20T11:36:30Z</time>
      </trkpt>
      <trkpt lat="41.2807960" lon="-8.5596210">
        <ele>91.4</ele>
        <time>2021-03-20T11:36:31Z</time>
      </trkpt>
      <trkpt lat="41.2808450" lon="-8.5597240">
        <ele>91.4</ele>
        <time>2021-03-20T11:36:32Z</time>
      </trkpt>
      <trkpt lat="41.2809120" lon="-8.5597690">
        <ele>91.4</ele>
        <time>2021-03-20T11:36:33Z</time>
      </trkpt>
      <trkpt lat="41.2809500" lon="-8.5598500">
        <ele>91.4</ele>
        <time>2021-03-20T11:36:34Z</time>
      </trkpt>
      <trkpt lat="41.2809810" lon="-8.5599350">
        <ele>91.0</ele>
        <time>2021-03-20T11:36:35Z</time>
      </trkpt>
      <trkpt lat="41.2810010" lon="-8.5600150">
        <ele>91.2</ele>
        <time>2021-03-20T11:36:36Z</time>
      </trkpt>
      <trkpt lat="41.2810460" lon="-8.5600910">
        <ele>91.2</ele>
        <time>2021-03-20T11:36:37Z</time>
      </trkpt>
      <trkpt lat="41.2810750" lon="-8.5601700">
        <ele>91.4</ele>
        <time>2021-03-20T11:36:38Z</time>
      </trkpt>
      <trkpt lat="41.2810740" lon="-8.5602200">
        <ele>91.0</ele>
        <time>2021-03-20T11:36:39Z</time>
      </trkpt>
      <trkpt lat="41.2811490" lon="-8.5603200">
        <ele>91.0</ele>
        <time>2021-03-20T11:36:40Z</time>
      </trkpt>
      <trkpt lat="41.2811840" lon="-8.5603900">
        <ele>91.0</ele>
        <time>2021-03-20T11:36:41Z</time>
      </trkpt>
      <trkpt lat="41.2812320" lon="-8.5604710">
        <ele>91.2</ele>
        <time>2021-03-20T11:36:42Z</time>
      </trkpt>
      <trkpt lat="41.2812680" lon="-8.5605330">
        <ele>91.0</ele>
        <time>2021-03-20T11:36:43Z</time>
      </trkpt>
      <trkpt lat="41.2813340" lon="-8.5606140">
        <ele>91.0</ele>
        <time>2021-03-20T11:36:44Z</time>
      </trkpt>
      <trkpt lat="41.2814890" lon="-8.5608490">
        <ele>90.8</ele>
        <time>2021-03-20T11:36:45Z</time>
      </trkpt>
      <trkpt lat="41.2815750" lon="-8.5610530">
        <ele>90.6</ele>
        <time>2021-03-20T11:36:46Z</time>
      </trkpt>
      <trkpt lat="41.2816070" lon="-8.5611140">
        <ele>90.6</ele>
        <time>2021-03-20T11:36:47Z</time>
      </trkpt>
      <trkpt lat="41.2816440" lon="-8.5611890">
        <ele>90.6</ele>
        <time>2021-03-20T11:36:48Z</time>
      </trkpt>
      <trkpt lat="41.2816630" lon="-8.5612840">
        <ele>91.2</ele>
        <time>2021-03-20T11:36:49Z</time>
      </trkpt>
      <trkpt lat="41.2816960" lon="-8.5613510">
        <ele>91.2</ele>
        <time>2021-03-20T11:36:50Z</time>
      </trkpt>
      <trkpt lat="41.2817390" lon="-8.5614220">
        <ele>91.0</ele>
        <time>2021-03-20T11:36:51Z</time>
      </trkpt>
      <trkpt lat="41.2817570" lon="-8.5614940">
        <ele>91.0</ele>
        <time>2021-03-20T11:36:52Z</time>
      </trkpt>
      <trkpt lat="41.2818050" lon="-8.5615790">
        <ele>91.2</ele>
        <time>2021-03-20T11:36:53Z</time>
      </trkpt>
      <trkpt lat="41.2818440" lon="-8.5616550">
        <ele>91.0</ele>
        <time>2021-03-20T11:36:54Z</time>
      </trkpt>
      <trkpt lat="41.2818910" lon="-8.5617450">
        <ele>91.0</ele>
        <time>2021-03-20T11:36:55Z</time>
      </trkpt>
      <trkpt lat="41.2819120" lon="-8.5618020">
        <ele>91.2</ele>
        <time>2021-03-20T11:36:56Z</time>
      </trkpt>
      <trkpt lat="41.2819200" lon="-8.5618780">
        <ele>91.2</ele>
        <time>2021-03-20T11:36:57Z</time>
      </trkpt>
      <trkpt lat="41.2819690" lon="-8.5619770">
        <ele>91.2</ele>
        <time>2021-03-20T11:36:58Z</time>
      </trkpt>
      <trkpt lat="41.2819710" lon="-8.5620640">
        <ele>91.0</ele>
        <time>2021-03-20T11:36:59Z</time>
      </trkpt>
      <trkpt lat="41.2820320" lon="-8.5621310">
        <ele>90.8</ele>
        <time>2021-03-20T11:37:00Z</time>
      </trkpt>
      <trkpt lat="41.2820150" lon="-8.5621840">
        <ele>90.8</ele>
        <time>2021-03-20T11:37:01Z</time>
      </trkpt>
      <trkpt lat="41.2820840" lon="-8.5622520">
        <ele>90.6</ele>
        <time>2021-03-20T11:37:02Z</time>
      </trkpt>
      <trkpt lat="41.2821120" lon="-8.5623270">
        <ele>90.4</ele>
        <time>2021-03-20T11:37:03Z</time>
      </trkpt>
      <trkpt lat="41.2821390" lon="-8.5623950">
        <ele>90.2</ele>
        <time>2021-03-20T11:37:04Z</time>
      </trkpt>
      <trkpt lat="41.2821910" lon="-8.5624490">
        <ele>90.0</ele>
        <time>2021-03-20T11:37:05Z</time>
      </trkpt>
      <trkpt lat="41.2822290" lon="-8.5625460">
        <ele>90.0</ele>
        <time>2021-03-20T11:37:06Z</time>
      </trkpt>
      <trkpt lat="41.2822570" lon="-8.5626120">
        <ele>89.6</ele>
        <time>2021-03-20T11:37:07Z</time>
      </trkpt>
      <trkpt lat="41.2822920" lon="-8.5627150">
        <ele>89.2</ele>
        <time>2021-03-20T11:37:08Z</time>
      </trkpt>
      <trkpt lat="41.2823510" lon="-8.5627950">
        <ele>89.0</ele>
        <time>2021-03-20T11:37:09Z</time>
      </trkpt>
      <trkpt lat="41.2824170" lon="-8.5628900">
        <ele>88.6</ele>
        <time>2021-03-20T11:37:10Z</time>
      </trkpt>
      <trkpt lat="41.2824200" lon="-8.5629660">
        <ele>88.4</ele>
        <time>2021-03-20T11:37:11Z</time>
      </trkpt>
      <trkpt lat="41.2824590" lon="-8.5630280">
        <ele>88.4</ele>
        <time>2021-03-20T11:37:12Z</time>
      </trkpt>
      <trkpt lat="41.2824910" lon="-8.5631360">
        <ele>88.2</ele>
        <time>2021-03-20T11:37:13Z</time>
      </trkpt>
      <trkpt lat="41.2825490" lon="-8.5632360">
        <ele>88.2</ele>
        <time>2021-03-20T11:37:14Z</time>
      </trkpt>
      <trkpt lat="41.2826000" lon="-8.5633240">
        <ele>87.8</ele>
        <time>2021-03-20T11:37:15Z</time>
      </trkpt>
      <trkpt lat="41.2826440" lon="-8.5634230">
        <ele>87.6</ele>
        <time>2021-03-20T11:37:16Z</time>
      </trkpt>
      <trkpt lat="41.2826890" lon="-8.5635070">
        <ele>87.4</ele>
        <time>2021-03-20T11:37:17Z</time>
      </trkpt>
      <trkpt lat="41.2826990" lon="-8.5635950">
        <ele>87.2</ele>
        <time>2021-03-20T11:37:18Z</time>
      </trkpt>
      <trkpt lat="41.2827660" lon="-8.5636810">
        <ele>87.0</ele>
        <time>2021-03-20T11:37:19Z</time>
      </trkpt>
      <trkpt lat="41.2828000" lon="-8.5637860">
        <ele>87.0</ele>
        <time>2021-03-20T11:37:20Z</time>
      </trkpt>
      <trkpt lat="41.2828510" lon="-8.5638550">
        <ele>86.6</ele>
        <time>2021-03-20T11:37:21Z</time>
      </trkpt>
      <trkpt lat="41.2828620" lon="-8.5639630">
        <ele>86.2</ele>
        <time>2021-03-20T11:37:22Z</time>
      </trkpt>
      <trkpt lat="41.2828630" lon="-8.5640660">
        <ele>86.2</ele>
        <time>2021-03-20T11:37:23Z</time>
      </trkpt>
      <trkpt lat="41.2828870" lon="-8.5641760">
        <ele>86.0</ele>
        <time>2021-03-20T11:37:24Z</time>
      </trkpt>
      <trkpt lat="41.2829200" lon="-8.5642790">
        <ele>86.0</ele>
        <time>2021-03-20T11:37:25Z</time>
      </trkpt>
      <trkpt lat="41.2829520" lon="-8.5643410">
        <ele>85.6</ele>
        <time>2021-03-20T11:37:26Z</time>
      </trkpt>
      <trkpt lat="41.2829890" lon="-8.5644450">
        <ele>85.6</ele>
        <time>2021-03-20T11:37:27Z</time>
      </trkpt>
      <trkpt lat="41.2830180" lon="-8.5645640">
        <ele>85.6</ele>
        <time>2021-03-20T11:37:28Z</time>
      </trkpt>
      <trkpt lat="41.2830160" lon="-8.5646670">
        <ele>85.6</ele>
        <time>2021-03-20T11:37:29Z</time>
      </trkpt>
      <trkpt lat="41.2830420" lon="-8.5647410">
        <ele>85.6</ele>
        <time>2021-03-20T11:37:30Z</time>
      </trkpt>
      <trkpt lat="41.2830330" lon="-8.5648620">
        <ele>85.4</ele>
        <time>2021-03-20T11:37:31Z</time>
      </trkpt>
      <trkpt lat="41.2830660" lon="-8.5649690">
        <ele>85.2</ele>
        <time>2021-03-20T11:37:32Z</time>
      </trkpt>
      <trkpt lat="41.2830990" lon="-8.5650810">
        <ele>85.2</ele>
        <time>2021-03-20T11:37:33Z</time>
      </trkpt>
      <trkpt lat="41.2831360" lon="-8.5651850">
        <ele>85.2</ele>
        <time>2021-03-20T11:37:34Z</time>
      </trkpt>
      <trkpt lat="41.2831280" lon="-8.5652680">
        <ele>85.4</ele>
        <time>2021-03-20T11:37:35Z</time>
      </trkpt>
      <trkpt lat="41.2831640" lon="-8.5653600">
        <ele>85.4</ele>
        <time>2021-03-20T11:37:36Z</time>
      </trkpt>
      <trkpt lat="41.2831810" lon="-8.5654670">
        <ele>85.4</ele>
        <time>2021-03-20T11:37:37Z</time>
      </trkpt>
      <trkpt lat="41.2832050" lon="-8.5655740">
        <ele>85.2</ele>
        <time>2021-03-20T11:37:38Z</time>
      </trkpt>
      <trkpt lat="41.2832360" lon="-8.5656730">
        <ele>85.2</ele>
        <time>2021-03-20T11:37:39Z</time>
      </trkpt>
      <trkpt lat="41.2832400" lon="-8.5657470">
        <ele>85.2</ele>
        <time>2021-03-20T11:37:40Z</time>
      </trkpt>
      <trkpt lat="41.2832570" lon="-8.5658410">
        <ele>85.2</ele>
        <time>2021-03-20T11:37:41Z</time>
      </trkpt>
      <trkpt lat="41.2833040" lon="-8.5659130">
        <ele>85.4</ele>
        <time>2021-03-20T11:37:42Z</time>
      </trkpt>
      <trkpt lat="41.2833360" lon="-8.5659790">
        <ele>85.6</ele>
        <time>2021-03-20T11:37:43Z</time>
      </trkpt>
      <trkpt lat="41.2833490" lon="-8.5660430">
        <ele>85.6</ele>
        <time>2021-03-20T11:37:44Z</time>
      </trkpt>
      <trkpt lat="41.2833920" lon="-8.5661400">
        <ele>85.6</ele>
        <time>2021-03-20T11:37:45Z</time>
      </trkpt>
      <trkpt lat="41.2833910" lon="-8.5662440">
        <ele>85.4</ele>
        <time>2021-03-20T11:37:46Z</time>
      </trkpt>
      <trkpt lat="41.2833940" lon="-8.5663420">
        <ele>85.4</ele>
        <time>2021-03-20T11:37:47Z</time>
      </trkpt>
      <trkpt lat="41.2834330" lon="-8.5664070">
        <ele>85.6</ele>
        <time>2021-03-20T11:37:48Z</time>
      </trkpt>
      <trkpt lat="41.2834550" lon="-8.5665120">
        <ele>85.6</ele>
        <time>2021-03-20T11:37:49Z</time>
      </trkpt>
      <trkpt lat="41.2834620" lon="-8.5666090">
        <ele>85.4</ele>
        <time>2021-03-20T11:37:50Z</time>
      </trkpt>
      <trkpt lat="41.2834660" lon="-8.5667050">
        <ele>85.6</ele>
        <time>2021-03-20T11:37:51Z</time>
      </trkpt>
      <trkpt lat="41.2834950" lon="-8.5668000">
        <ele>85.6</ele>
        <time>2021-03-20T11:37:52Z</time>
      </trkpt>
      <trkpt lat="41.2835010" lon="-8.5669140">
        <ele>85.4</ele>
        <time>2021-03-20T11:37:53Z</time>
      </trkpt>
      <trkpt lat="41.2835150" lon="-8.5670130">
        <ele>85.4</ele>
        <time>2021-03-20T11:37:54Z</time>
      </trkpt>
      <trkpt lat="41.2835020" lon="-8.5671480">
        <ele>85.4</ele>
        <time>2021-03-20T11:37:55Z</time>
      </trkpt>
      <trkpt lat="41.2835260" lon="-8.5672280">
        <ele>85.4</ele>
        <time>2021-03-20T11:37:56Z</time>
      </trkpt>
      <trkpt lat="41.2835820" lon="-8.5673250">
        <ele>85.6</ele>
        <time>2021-03-20T11:37:57Z</time>
      </trkpt>
      <trkpt lat="41.2835710" lon="-8.5673970">
        <ele>85.6</ele>
        <time>2021-03-20T11:37:58Z</time>
      </trkpt>
      <trkpt lat="41.2836190" lon="-8.5674920">
        <ele>85.8</ele>
        <time>2021-03-20T11:37:59Z</time>
      </trkpt>
      <trkpt lat="41.2836200" lon="-8.5675870">
        <ele>85.6</ele>
        <time>2021-03-20T11:38:00Z</time>
      </trkpt>
      <trkpt lat="41.2836440" lon="-8.5676820">
        <ele>85.4</ele>
        <time>2021-03-20T11:38:01Z</time>
      </trkpt>
      <trkpt lat="41.2836360" lon="-8.5678410">
        <ele>85.2</ele>
        <time>2021-03-20T11:38:02Z</time>
      </trkpt>
      <trkpt lat="41.2836350" lon="-8.5679250">
        <ele>85.2</ele>
        <time>2021-03-20T11:38:03Z</time>
      </trkpt>
      <trkpt lat="41.2836760" lon="-8.5679940">
        <ele>85.4</ele>
        <time>2021-03-20T11:38:04Z</time>
      </trkpt>
      <trkpt lat="41.2836900" lon="-8.5681030">
        <ele>85.2</ele>
        <time>2021-03-20T11:38:05Z</time>
      </trkpt>
      <trkpt lat="41.2836930" lon="-8.5681980">
        <ele>85.2</ele>
        <time>2021-03-20T11:38:06Z</time>
      </trkpt>
      <trkpt lat="41.2836940" lon="-8.5683300">
        <ele>85.2</ele>
        <time>2021-03-20T11:38:07Z</time>
      </trkpt>
      <trkpt lat="41.2836970" lon="-8.5684150">
        <ele>85.0</ele>
        <time>2021-03-20T11:38:08Z</time>
      </trkpt>
      <trkpt lat="41.2836910" lon="-8.5685320">
        <ele>85.0</ele>
        <time>2021-03-20T11:38:09Z</time>
      </trkpt>
      <trkpt lat="41.2836940" lon="-8.5686470">
        <ele>85.0</ele>
        <time>2021-03-20T11:38:10Z</time>
      </trkpt>
      <trkpt lat="41.2836960" lon="-8.5687610">
        <ele>85.2</ele>
        <time>2021-03-20T11:38:11Z</time>
      </trkpt>
      <trkpt lat="41.2836970" lon="-8.5688710">
        <ele>85.4</ele>
        <time>2021-03-20T11:38:12Z</time>
      </trkpt>
      <trkpt lat="41.2837000" lon="-8.5689840">
        <ele>85.4</ele>
        <time>2021-03-20T11:38:13Z</time>
      </trkpt>
      <trkpt lat="41.2836960" lon="-8.5691070">
        <ele>85.4</ele>
        <time>2021-03-20T11:38:14Z</time>
      </trkpt>
      <trkpt lat="41.2836940" lon="-8.5692260">
        <ele>85.4</ele>
        <time>2021-03-20T11:38:15Z</time>
      </trkpt>
      <trkpt lat="41.2836910" lon="-8.5693600">
        <ele>85.4</ele>
        <time>2021-03-20T11:38:16Z</time>
      </trkpt>
      <trkpt lat="41.2836840" lon="-8.5694910">
        <ele>85.6</ele>
        <time>2021-03-20T11:38:17Z</time>
      </trkpt>
      <trkpt lat="41.2836690" lon="-8.5696360">
        <ele>85.6</ele>
        <time>2021-03-20T11:38:18Z</time>
      </trkpt>
      <trkpt lat="41.2836660" lon="-8.5697550">
        <ele>85.6</ele>
        <time>2021-03-20T11:38:19Z</time>
      </trkpt>
      <trkpt lat="41.2836680" lon="-8.5698610">
        <ele>85.8</ele>
        <time>2021-03-20T11:38:20Z</time>
      </trkpt>
      <trkpt lat="41.2836700" lon="-8.5699630">
        <ele>85.8</ele>
        <time>2021-03-20T11:38:21Z</time>
      </trkpt>
      <trkpt lat="41.2836640" lon="-8.5700850">
        <ele>85.8</ele>
        <time>2021-03-20T11:38:22Z</time>
      </trkpt>
      <trkpt lat="41.2836600" lon="-8.5702040">
        <ele>85.8</ele>
        <time>2021-03-20T11:38:23Z</time>
      </trkpt>
      <trkpt lat="41.2836620" lon="-8.5703070">
        <ele>86.0</ele>
        <time>2021-03-20T11:38:24Z</time>
      </trkpt>
      <trkpt lat="41.2836630" lon="-8.5704160">
        <ele>86.4</ele>
        <time>2021-03-20T11:38:25Z</time>
      </trkpt>
      <trkpt lat="41.2836620" lon="-8.5705150">
        <ele>86.8</ele>
        <time>2021-03-20T11:38:26Z</time>
      </trkpt>
      <trkpt lat="41.2836680" lon="-8.5706120">
        <ele>86.8</ele>
        <time>2021-03-20T11:38:27Z</time>
      </trkpt>
      <trkpt lat="41.2836660" lon="-8.5707080">
        <ele>87.2</ele>
        <time>2021-03-20T11:38:28Z</time>
      </trkpt>
      <trkpt lat="41.2836720" lon="-8.5707890">
        <ele>87.6</ele>
        <time>2021-03-20T11:38:29Z</time>
      </trkpt>
      <trkpt lat="41.2836670" lon="-8.5708250">
        <ele>87.8</ele>
        <time>2021-03-20T11:38:30Z</time>
      </trkpt>
      <trkpt lat="41.2836810" lon="-8.5709330">
        <ele>88.0</ele>
        <time>2021-03-20T11:38:31Z</time>
      </trkpt>
      <trkpt lat="41.2836770" lon="-8.5710180">
        <ele>88.2</ele>
        <time>2021-03-20T11:38:32Z</time>
      </trkpt>
      <trkpt lat="41.2836860" lon="-8.5711080">
        <ele>88.4</ele>
        <time>2021-03-20T11:38:33Z</time>
      </trkpt>
      <trkpt lat="41.2836850" lon="-8.5711900">
        <ele>88.6</ele>
        <time>2021-03-20T11:38:34Z</time>
      </trkpt>
      <trkpt lat="41.2836830" lon="-8.5712960">
        <ele>89.0</ele>
        <time>2021-03-20T11:38:35Z</time>
      </trkpt>
      <trkpt lat="41.2836810" lon="-8.5713960">
        <ele>89.2</ele>
        <time>2021-03-20T11:38:36Z</time>
      </trkpt>
      <trkpt lat="41.2837450" lon="-8.5714760">
        <ele>89.6</ele>
        <time>2021-03-20T11:38:37Z</time>
      </trkpt>
      <trkpt lat="41.2837010" lon="-8.5715680">
        <ele>90.0</ele>
        <time>2021-03-20T11:38:38Z</time>
      </trkpt>
      <trkpt lat="41.2837000" lon="-8.5716690">
        <ele>90.2</ele>
        <time>2021-03-20T11:38:39Z</time>
      </trkpt>
      <trkpt lat="41.2837140" lon="-8.5717500">
        <ele>90.4</ele>
        <time>2021-03-20T11:38:40Z</time>
      </trkpt>
      <trkpt lat="41.2837050" lon="-8.5718200">
        <ele>90.6</ele>
        <time>2021-03-20T11:38:41Z</time>
      </trkpt>
      <trkpt lat="41.2837350" lon="-8.5718640">
        <ele>90.8</ele>
        <time>2021-03-20T11:38:42Z</time>
      </trkpt>
      <trkpt lat="41.2837310" lon="-8.5719460">
        <ele>91.0</ele>
        <time>2021-03-20T11:38:43Z</time>
      </trkpt>
      <trkpt lat="41.2837370" lon="-8.5720260">
        <ele>91.2</ele>
        <time>2021-03-20T11:38:44Z</time>
      </trkpt>
      <trkpt lat="41.2837410" lon="-8.5720990">
        <ele>91.4</ele>
        <time>2021-03-20T11:38:45Z</time>
      </trkpt>
      <trkpt lat="41.2837150" lon="-8.5721940">
        <ele>91.8</ele>
        <time>2021-03-20T11:38:46Z</time>
      </trkpt>
      <trkpt lat="41.2837310" lon="-8.5722820">
        <ele>92.4</ele>
        <time>2021-03-20T11:38:47Z</time>
      </trkpt>
      <trkpt lat="41.2837160" lon="-8.5723670">
        <ele>92.8</ele>
        <time>2021-03-20T11:38:48Z</time>
      </trkpt>
      <trkpt lat="41.2837160" lon="-8.5724500">
        <ele>93.0</ele>
        <time>2021-03-20T11:38:49Z</time>
      </trkpt>
      <trkpt lat="41.2837140" lon="-8.5725270">
        <ele>93.2</ele>
        <time>2021-03-20T11:38:50Z</time>
      </trkpt>
      <trkpt lat="41.2836850" lon="-8.5726030">
        <ele>93.4</ele>
        <time>2021-03-20T11:38:51Z</time>
      </trkpt>
      <trkpt lat="41.2837310" lon="-8.5726850">
        <ele>93.6</ele>
        <time>2021-03-20T11:38:52Z</time>
      </trkpt>
      <trkpt lat="41.2837170" lon="-8.5727760">
        <ele>93.6</ele>
        <time>2021-03-20T11:38:53Z</time>
      </trkpt>
      <trkpt lat="41.2837200" lon="-8.5728460">
        <ele>93.8</ele>
        <time>2021-03-20T11:38:54Z</time>
      </trkpt>
      <trkpt lat="41.2837190" lon="-8.5729160">
        <ele>94.0</ele>
        <time>2021-03-20T11:38:55Z</time>
      </trkpt>
      <trkpt lat="41.2837200" lon="-8.5729890">
        <ele>94.4</ele>
        <time>2021-03-20T11:38:56Z</time>
      </trkpt>
      <trkpt lat="41.2837210" lon="-8.5730570">
        <ele>94.6</ele>
        <time>2021-03-20T11:38:57Z</time>
      </trkpt>
      <trkpt lat="41.2837240" lon="-8.5731300">
        <ele>94.8</ele>
        <time>2021-03-20T11:38:58Z</time>
      </trkpt>
      <trkpt lat="41.2837250" lon="-8.5731990">
        <ele>95.0</ele>
        <time>2021-03-20T11:38:59Z</time>
      </trkpt>
      <trkpt lat="41.2837310" lon="-8.5732540">
        <ele>95.4</ele>
        <time>2021-03-20T11:39:00Z</time>
      </trkpt>
      <trkpt lat="41.2837320" lon="-8.5733350">
        <ele>95.4</ele>
        <time>2021-03-20T11:39:01Z</time>
      </trkpt>
      <trkpt lat="41.2837290" lon="-8.5733930">
        <ele>95.6</ele>
        <time>2021-03-20T11:39:02Z</time>
      </trkpt>
      <trkpt lat="41.2837290" lon="-8.5734650">
        <ele>95.8</ele>
        <time>2021-03-20T11:39:03Z</time>
      </trkpt>
      <trkpt lat="41.2837310" lon="-8.5735260">
        <ele>96.0</ele>
        <time>2021-03-20T11:39:04Z</time>
      </trkpt>
      <trkpt lat="41.2837270" lon="-8.5735950">
        <ele>96.4</ele>
        <time>2021-03-20T11:39:05Z</time>
      </trkpt>
      <trkpt lat="41.2837260" lon="-8.5736720">
        <ele>96.8</ele>
        <time>2021-03-20T11:39:06Z</time>
      </trkpt>
      <trkpt lat="41.2837230" lon="-8.5737460">
        <ele>97.0</ele>
        <time>2021-03-20T11:39:07Z</time>
      </trkpt>
      <trkpt lat="41.2837230" lon="-8.5738080">
        <ele>97.2</ele>
        <time>2021-03-20T11:39:08Z</time>
      </trkpt>
      <trkpt lat="41.2837260" lon="-8.5738710">
        <ele>97.4</ele>
        <time>2021-03-20T11:39:09Z</time>
      </trkpt>
      <trkpt lat="41.2837300" lon="-8.5739180">
        <ele>97.6</ele>
        <time>2021-03-20T11:39:10Z</time>
      </trkpt>
      <trkpt lat="41.2837340" lon="-8.5739780">
        <ele>97.8</ele>
        <time>2021-03-20T11:39:11Z</time>
      </trkpt>
      <trkpt lat="41.2837380" lon="-8.5740290">
        <ele>98.0</ele>
        <time>2021-03-20T11:39:12Z</time>
      </trkpt>
      <trkpt lat="41.2837460" lon="-8.5740730">
        <ele>98.2</ele>
        <time>2021-03-20T11:39:13Z</time>
      </trkpt>
      <trkpt lat="41.2837570" lon="-8.5741020">
        <ele>98.8</ele>
        <time>2021-03-20T11:39:14Z</time>
      </trkpt>
      <trkpt lat="41.2837630" lon="-8.5741330">
        <ele>99.0</ele>
        <time>2021-03-20T11:39:15Z</time>
      </trkpt>
      <trkpt lat="41.2837770" lon="-8.5742010">
        <ele>99.2</ele>
        <time>2021-03-20T11:39:16Z</time>
      </trkpt>
      <trkpt lat="41.2838120" lon="-8.5742700">
        <ele>99.4</ele>
        <time>2021-03-20T11:39:17Z</time>
      </trkpt>
      <trkpt lat="41.2837410" lon="-8.5744710">
        <ele>99.4</ele>
        <time>2021-03-20T11:39:18Z</time>
      </trkpt>
      <trkpt lat="41.2836390" lon="-8.5746790">
        <ele>99.6</ele>
        <time>2021-03-20T11:39:19Z</time>
      </trkpt>
      <trkpt lat="41.2836180" lon="-8.5746940">
        <ele>99.8</ele>
        <time>2021-03-20T11:39:20Z</time>
      </trkpt>
      <trkpt lat="41.2836620" lon="-8.5747480">
        <ele>99.8</ele>
        <time>2021-03-20T11:39:21Z</time>
      </trkpt>
      <trkpt lat="41.2836550" lon="-8.5748080">
        <ele>100.2</ele>
        <time>2021-03-20T11:39:22Z</time>
      </trkpt>
      <trkpt lat="41.2836490" lon="-8.5748710">
        <ele>100.4</ele>
        <time>2021-03-20T11:39:23Z</time>
      </trkpt>
      <trkpt lat="41.2836610" lon="-8.5749180">
        <ele>100.4</ele>
        <time>2021-03-20T11:39:24Z</time>
      </trkpt>
      <trkpt lat="41.2836640" lon="-8.5749710">
        <ele>100.6</ele>
        <time>2021-03-20T11:39:25Z</time>
      </trkpt>
      <trkpt lat="41.2836700" lon="-8.5750320">
        <ele>100.8</ele>
        <time>2021-03-20T11:39:26Z</time>
      </trkpt>
      <trkpt lat="41.2836860" lon="-8.5750670">
        <ele>101.2</ele>
        <time>2021-03-20T11:39:27Z</time>
      </trkpt>
      <trkpt lat="41.2837120" lon="-8.5751110">
        <ele>101.4</ele>
        <time>2021-03-20T11:39:28Z</time>
      </trkpt>
      <trkpt lat="41.2837200" lon="-8.5751710">
        <ele>101.6</ele>
        <time>2021-03-20T11:39:29Z</time>
      </trkpt>
      <trkpt lat="41.2837300" lon="-8.5752120">
        <ele>101.8</ele>
        <time>2021-03-20T11:39:30Z</time>
      </trkpt>
      <trkpt lat="41.2837750" lon="-8.5752750">
        <ele>102.0</ele>
        <time>2021-03-20T11:39:31Z</time>
      </trkpt>
      <trkpt lat="41.2837830" lon="-8.5753390">
        <ele>102.0</ele>
        <time>2021-03-20T11:39:32Z</time>
      </trkpt>
      <trkpt lat="41.2837600" lon="-8.5754030">
        <ele>102.4</ele>
        <time>2021-03-20T11:39:33Z</time>
      </trkpt>
      <trkpt lat="41.2837720" lon="-8.5754700">
        <ele>102.8</ele>
        <time>2021-03-20T11:39:34Z</time>
      </trkpt>
      <trkpt lat="41.2837670" lon="-8.5755360">
        <ele>103.2</ele>
        <time>2021-03-20T11:39:35Z</time>
      </trkpt>
      <trkpt lat="41.2837840" lon="-8.5755890">
        <ele>103.4</ele>
        <time>2021-03-20T11:39:36Z</time>
      </trkpt>
      <trkpt lat="41.2838110" lon="-8.5756380">
        <ele>103.4</ele>
        <time>2021-03-20T11:39:37Z</time>
      </trkpt>
      <trkpt lat="41.2838260" lon="-8.5757280">
        <ele>103.8</ele>
        <time>2021-03-20T11:39:38Z</time>
      </trkpt>
      <trkpt lat="41.2838290" lon="-8.5757860">
        <ele>104.2</ele>
        <time>2021-03-20T11:39:39Z</time>
      </trkpt>
      <trkpt lat="41.2838140" lon="-8.5758360">
        <ele>104.4</ele>
        <time>2021-03-20T11:39:40Z</time>
      </trkpt>
      <trkpt lat="41.2838720" lon="-8.5759070">
        <ele>104.6</ele>
        <time>2021-03-20T11:39:41Z</time>
      </trkpt>
      <trkpt lat="41.2839000" lon="-8.5759700">
        <ele>104.8</ele>
        <time>2021-03-20T11:39:42Z</time>
      </trkpt>
      <trkpt lat="41.2838970" lon="-8.5760130">
        <ele>105.2</ele>
        <time>2021-03-20T11:39:43Z</time>
      </trkpt>
      <trkpt lat="41.2838940" lon="-8.5760910">
        <ele>105.4</ele>
        <time>2021-03-20T11:39:44Z</time>
      </trkpt>
      <trkpt lat="41.2838970" lon="-8.5761280">
        <ele>105.6</ele>
        <time>2021-03-20T11:39:45Z</time>
      </trkpt>
      <trkpt lat="41.2839030" lon="-8.5761630">
        <ele>105.8</ele>
        <time>2021-03-20T11:39:46Z</time>
      </trkpt>
      <trkpt lat="41.2839590" lon="-8.5761890">
        <ele>106.2</ele>
        <time>2021-03-20T11:39:47Z</time>
      </trkpt>
      <trkpt lat="41.2839530" lon="-8.5762220">
        <ele>106.2</ele>
        <time>2021-03-20T11:39:48Z</time>
      </trkpt>
      <trkpt lat="41.2839750" lon="-8.5762570">
        <ele>106.6</ele>
        <time>2021-03-20T11:39:49Z</time>
      </trkpt>
      <trkpt lat="41.2839980" lon="-8.5763160">
        <ele>106.8</ele>
        <time>2021-03-20T11:39:50Z</time>
      </trkpt>
      <trkpt lat="41.2839740" lon="-8.5763920">
        <ele>107.0</ele>
        <time>2021-03-20T11:39:51Z</time>
      </trkpt>
      <trkpt lat="41.2840350" lon="-8.5764320">
        <ele>107.0</ele>
        <time>2021-03-20T11:39:52Z</time>
      </trkpt>
      <trkpt lat="41.2840040" lon="-8.5764940">
        <ele>107.0</ele>
        <time>2021-03-20T11:39:53Z</time>
      </trkpt>
      <trkpt lat="41.2840140" lon="-8.5765340">
        <ele>107.2</ele>
        <time>2021-03-20T11:39:54Z</time>
      </trkpt>
      <trkpt lat="41.2840180" lon="-8.5765800">
        <ele>107.6</ele>
        <time>2021-03-20T11:39:55Z</time>
      </trkpt>
      <trkpt lat="41.2840340" lon="-8.5766230">
        <ele>107.6</ele>
        <time>2021-03-20T11:39:56Z</time>
      </trkpt>
      <trkpt lat="41.2840410" lon="-8.5766770">
        <ele>107.8</ele>
        <time>2021-03-20T11:39:57Z</time>
      </trkpt>
      <trkpt lat="41.2840490" lon="-8.5767390">
        <ele>108.0</ele>
        <time>2021-03-20T11:39:58Z</time>
      </trkpt>
      <trkpt lat="41.2841060" lon="-8.5767770">
        <ele>108.2</ele>
        <time>2021-03-20T11:39:59Z</time>
      </trkpt>
      <trkpt lat="41.2840660" lon="-8.5768290">
        <ele>108.4</ele>
        <time>2021-03-20T11:40:00Z</time>
      </trkpt>
      <trkpt lat="41.2840660" lon="-8.5768630">
        <ele>108.6</ele>
        <time>2021-03-20T11:40:01Z</time>
      </trkpt>
      <trkpt lat="41.2840780" lon="-8.5769070">
        <ele>108.8</ele>
        <time>2021-03-20T11:40:02Z</time>
      </trkpt>
      <trkpt lat="41.2840840" lon="-8.5769500">
        <ele>108.8</ele>
        <time>2021-03-20T11:40:03Z</time>
      </trkpt>
      <trkpt lat="41.2840860" lon="-8.5770020">
        <ele>109.4</ele>
        <time>2021-03-20T11:40:04Z</time>
      </trkpt>
      <trkpt lat="41.2840780" lon="-8.5770400">
        <ele>109.6</ele>
        <time>2021-03-20T11:40:05Z</time>
      </trkpt>
      <trkpt lat="41.2840810" lon="-8.5770760">
        <ele>109.8</ele>
        <time>2021-03-20T11:40:06Z</time>
      </trkpt>
      <trkpt lat="41.2840850" lon="-8.5771200">
        <ele>110.2</ele>
        <time>2021-03-20T11:40:07Z</time>
      </trkpt>
      <trkpt lat="41.2840930" lon="-8.5771630">
        <ele>110.2</ele>
        <time>2021-03-20T11:40:08Z</time>
      </trkpt>
      <trkpt lat="41.2840900" lon="-8.5772250">
        <ele>110.2</ele>
        <time>2021-03-20T11:40:09Z</time>
      </trkpt>
      <trkpt lat="41.2841110" lon="-8.5772570">
        <ele>110.4</ele>
        <time>2021-03-20T11:40:10Z</time>
      </trkpt>
      <trkpt lat="41.2841080" lon="-8.5773150">
        <ele>110.4</ele>
        <time>2021-03-20T11:40:11Z</time>
      </trkpt>
      <trkpt lat="41.2841430" lon="-8.5773490">
        <ele>110.6</ele>
        <time>2021-03-20T11:40:12Z</time>
      </trkpt>
      <trkpt lat="41.2841300" lon="-8.5774050">
        <ele>111.2</ele>
        <time>2021-03-20T11:40:13Z</time>
      </trkpt>
      <trkpt lat="41.2841400" lon="-8.5774740">
        <ele>111.6</ele>
        <time>2021-03-20T11:40:14Z</time>
      </trkpt>
      <trkpt lat="41.2841400" lon="-8.5775490">
        <ele>111.8</ele>
        <time>2021-03-20T11:40:15Z</time>
      </trkpt>
      <trkpt lat="41.2841520" lon="-8.5776040">
        <ele>112.0</ele>
        <time>2021-03-20T11:40:16Z</time>
      </trkpt>
      <trkpt lat="41.2841540" lon="-8.5776970">
        <ele>112.4</ele>
        <time>2021-03-20T11:40:17Z</time>
      </trkpt>
      <trkpt lat="41.2841300" lon="-8.5777550">
        <ele>112.6</ele>
        <time>2021-03-20T11:40:18Z</time>
      </trkpt>
      <trkpt lat="41.2841740" lon="-8.5778270">
        <ele>113.0</ele>
        <time>2021-03-20T11:40:19Z</time>
      </trkpt>
      <trkpt lat="41.2841260" lon="-8.5778990">
        <ele>113.2</ele>
        <time>2021-03-20T11:40:20Z</time>
      </trkpt>
      <trkpt lat="41.2841400" lon="-8.5779730">
        <ele>113.4</ele>
        <time>2021-03-20T11:40:21Z</time>
      </trkpt>
      <trkpt lat="41.2841060" lon="-8.5780210">
        <ele>113.4</ele>
        <time>2021-03-20T11:40:22Z</time>
      </trkpt>
      <trkpt lat="41.2841180" lon="-8.5780790">
        <ele>113.6</ele>
        <time>2021-03-20T11:40:23Z</time>
      </trkpt>
      <trkpt lat="41.2840910" lon="-8.5781380">
        <ele>113.8</ele>
        <time>2021-03-20T11:40:24Z</time>
      </trkpt>
      <trkpt lat="41.2840990" lon="-8.5782110">
        <ele>113.8</ele>
        <time>2021-03-20T11:40:25Z</time>
      </trkpt>
      <trkpt lat="41.2841090" lon="-8.5783050">
        <ele>114.4</ele>
        <time>2021-03-20T11:40:26Z</time>
      </trkpt>
      <trkpt lat="41.2840900" lon="-8.5783650">
        <ele>114.2</ele>
        <time>2021-03-20T11:40:27Z</time>
      </trkpt>
      <trkpt lat="41.2840790" lon="-8.5784250">
        <ele>114.4</ele>
        <time>2021-03-20T11:40:28Z</time>
      </trkpt>
      <trkpt lat="41.2840650" lon="-8.5784880">
        <ele>114.8</ele>
        <time>2021-03-20T11:40:29Z</time>
      </trkpt>
      <trkpt lat="41.2840130" lon="-8.5785420">
        <ele>115.2</ele>
        <time>2021-03-20T11:40:30Z</time>
      </trkpt>
      <trkpt lat="41.2839680" lon="-8.5786040">
        <ele>115.2</ele>
        <time>2021-03-20T11:40:31Z</time>
      </trkpt>
      <trkpt lat="41.2839120" lon="-8.5786580">
        <ele>115.4</ele>
        <time>2021-03-20T11:40:32Z</time>
      </trkpt>
      <trkpt lat="41.2838750" lon="-8.5787080">
        <ele>115.8</ele>
        <time>2021-03-20T11:40:33Z</time>
      </trkpt>
      <trkpt lat="41.2838320" lon="-8.5787680">
        <ele>116.0</ele>
        <time>2021-03-20T11:40:34Z</time>
      </trkpt>
      <trkpt lat="41.2837910" lon="-8.5788080">
        <ele>116.2</ele>
        <time>2021-03-20T11:40:35Z</time>
      </trkpt>
      <trkpt lat="41.2837720" lon="-8.5788410">
        <ele>116.6</ele>
        <time>2021-03-20T11:40:36Z</time>
      </trkpt>
      <trkpt lat="41.2837270" lon="-8.5788840">
        <ele>116.8</ele>
        <time>2021-03-20T11:40:37Z</time>
      </trkpt>
      <trkpt lat="41.2836970" lon="-8.5789300">
        <ele>117.0</ele>
        <time>2021-03-20T11:40:38Z</time>
      </trkpt>
      <trkpt lat="41.2836590" lon="-8.5789680">
        <ele>117.2</ele>
        <time>2021-03-20T11:40:39Z</time>
      </trkpt>
      <trkpt lat="41.2836220" lon="-8.5790080">
        <ele>117.6</ele>
        <time>2021-03-20T11:40:40Z</time>
      </trkpt>
      <trkpt lat="41.2835800" lon="-8.5790490">
        <ele>117.8</ele>
        <time>2021-03-20T11:40:41Z</time>
      </trkpt>
      <trkpt lat="41.2835420" lon="-8.5790890">
        <ele>118.0</ele>
        <time>2021-03-20T11:40:42Z</time>
      </trkpt>
      <trkpt lat="41.2835070" lon="-8.5791180">
        <ele>118.2</ele>
        <time>2021-03-20T11:40:43Z</time>
      </trkpt>
      <trkpt lat="41.2834670" lon="-8.5791560">
        <ele>118.4</ele>
        <time>2021-03-20T11:40:44Z</time>
      </trkpt>
      <trkpt lat="41.2834330" lon="-8.5791990">
        <ele>118.8</ele>
        <time>2021-03-20T11:40:45Z</time>
      </trkpt>
      <trkpt lat="41.2833960" lon="-8.5792350">
        <ele>119.0</ele>
        <time>2021-03-20T11:40:46Z</time>
      </trkpt>
      <trkpt lat="41.2833500" lon="-8.5792810">
        <ele>119.0</ele>
        <time>2021-03-20T11:40:47Z</time>
      </trkpt>
      <trkpt lat="41.2833190" lon="-8.5793060">
        <ele>119.2</ele>
        <time>2021-03-20T11:40:48Z</time>
      </trkpt>
      <trkpt lat="41.2832760" lon="-8.5793540">
        <ele>119.4</ele>
        <time>2021-03-20T11:40:49Z</time>
      </trkpt>
      <trkpt lat="41.2832520" lon="-8.5793930">
        <ele>119.6</ele>
        <time>2021-03-20T11:40:50Z</time>
      </trkpt>
      <trkpt lat="41.2832290" lon="-8.5794440">
        <ele>119.6</ele>
        <time>2021-03-20T11:40:51Z</time>
      </trkpt>
      <trkpt lat="41.2832060" lon="-8.5794990">
        <ele>120.0</ele>
        <time>2021-03-20T11:40:52Z</time>
      </trkpt>
      <trkpt lat="41.2831920" lon="-8.5795560">
        <ele>120.2</ele>
        <time>2021-03-20T11:40:53Z</time>
      </trkpt>
      <trkpt lat="41.2831700" lon="-8.5796270">
        <ele>120.6</ele>
        <time>2021-03-20T11:40:54Z</time>
      </trkpt>
      <trkpt lat="41.2831600" lon="-8.5796710">
        <ele>120.6</ele>
        <time>2021-03-20T11:40:55Z</time>
      </trkpt>
      <trkpt lat="41.2831490" lon="-8.5797310">
        <ele>120.8</ele>
        <time>2021-03-20T11:40:56Z</time>
      </trkpt>
      <trkpt lat="41.2831370" lon="-8.5797870">
        <ele>120.8</ele>
        <time>2021-03-20T11:40:57Z</time>
      </trkpt>
      <trkpt lat="41.2831310" lon="-8.5798480">
        <ele>121.0</ele>
        <time>2021-03-20T11:40:58Z</time>
      </trkpt>
      <trkpt lat="41.2831270" lon="-8.5799070">
        <ele>121.2</ele>
        <time>2021-03-20T11:40:59Z</time>
      </trkpt>
      <trkpt lat="41.2831170" lon="-8.5799620">
        <ele>121.4</ele>
        <time>2021-03-20T11:41:00Z</time>
      </trkpt>
      <trkpt lat="41.2831100" lon="-8.5800190">
        <ele>121.6</ele>
        <time>2021-03-20T11:41:01Z</time>
      </trkpt>
      <trkpt lat="41.2831010" lon="-8.5800710">
        <ele>121.8</ele>
        <time>2021-03-20T11:41:02Z</time>
      </trkpt>
      <trkpt lat="41.2830960" lon="-8.5801310">
        <ele>122.0</ele>
        <time>2021-03-20T11:41:03Z</time>
      </trkpt>
      <trkpt lat="41.2830890" lon="-8.5801860">
        <ele>122.0</ele>
        <time>2021-03-20T11:41:04Z</time>
      </trkpt>
      <trkpt lat="41.2830840" lon="-8.5802460">
        <ele>122.2</ele>
        <time>2021-03-20T11:41:05Z</time>
      </trkpt>
      <trkpt lat="41.2830780" lon="-8.5803030">
        <ele>122.6</ele>
        <time>2021-03-20T11:41:06Z</time>
      </trkpt>
      <trkpt lat="41.2830760" lon="-8.5803570">
        <ele>122.6</ele>
        <time>2021-03-20T11:41:07Z</time>
      </trkpt>
      <trkpt lat="41.2830760" lon="-8.5803960">
        <ele>122.8</ele>
        <time>2021-03-20T11:41:08Z</time>
      </trkpt>
      <trkpt lat="41.2830730" lon="-8.5804440">
        <ele>123.0</ele>
        <time>2021-03-20T11:41:09Z</time>
      </trkpt>
      <trkpt lat="41.2830670" lon="-8.5805040">
        <ele>123.0</ele>
        <time>2021-03-20T11:41:10Z</time>
      </trkpt>
      <trkpt lat="41.2830680" lon="-8.5805490">
        <ele>123.4</ele>
        <time>2021-03-20T11:41:11Z</time>
      </trkpt>
      <trkpt lat="41.2830640" lon="-8.5806080">
        <ele>123.6</ele>
        <time>2021-03-20T11:41:12Z</time>
      </trkpt>
      <trkpt lat="41.2830530" lon="-8.5806800">
        <ele>123.6</ele>
        <time>2021-03-20T11:41:13Z</time>
      </trkpt>
      <trkpt lat="41.2830470" lon="-8.5807200">
        <ele>123.8</ele>
        <time>2021-03-20T11:41:14Z</time>
      </trkpt>
      <trkpt lat="41.2830500" lon="-8.5807700">
        <ele>124.0</ele>
        <time>2021-03-20T11:41:15Z</time>
      </trkpt>
      <trkpt lat="41.2830480" lon="-8.5808240">
        <ele>124.4</ele>
        <time>2021-03-20T11:41:16Z</time>
      </trkpt>
      <trkpt lat="41.2830450" lon="-8.5808800">
        <ele>124.8</ele>
        <time>2021-03-20T11:41:17Z</time>
      </trkpt>
      <trkpt lat="41.2830380" lon="-8.5809400">
        <ele>125.0</ele>
        <time>2021-03-20T11:41:18Z</time>
      </trkpt>
      <trkpt lat="41.2830320" lon="-8.5810080">
        <ele>124.8</ele>
        <time>2021-03-20T11:41:19Z</time>
      </trkpt>
      <trkpt lat="41.2830210" lon="-8.5810760">
        <ele>124.8</ele>
        <time>2021-03-20T11:41:20Z</time>
      </trkpt>
      <trkpt lat="41.2830190" lon="-8.5811410">
        <ele>125.2</ele>
        <time>2021-03-20T11:41:21Z</time>
      </trkpt>
      <trkpt lat="41.2830160" lon="-8.5812160">
        <ele>125.4</ele>
        <time>2021-03-20T11:41:22Z</time>
      </trkpt>
      <trkpt lat="41.2830130" lon="-8.5813030">
        <ele>125.6</ele>
        <time>2021-03-20T11:41:23Z</time>
      </trkpt>
      <trkpt lat="41.2830020" lon="-8.5813700">
        <ele>125.8</ele>
        <time>2021-03-20T11:41:24Z</time>
      </trkpt>
      <trkpt lat="41.2829980" lon="-8.5814180">
        <ele>126.0</ele>
        <time>2021-03-20T11:41:25Z</time>
      </trkpt>
      <trkpt lat="41.2830150" lon="-8.5815100">
        <ele>126.4</ele>
        <time>2021-03-20T11:41:26Z</time>
      </trkpt>
      <trkpt lat="41.2830320" lon="-8.5816670">
        <ele>126.6</ele>
        <time>2021-03-20T11:41:27Z</time>
      </trkpt>
      <trkpt lat="41.2830220" lon="-8.5819160">
        <ele>127.0</ele>
        <time>2021-03-20T11:41:28Z</time>
      </trkpt>
      <trkpt lat="41.2830200" lon="-8.5819770">
        <ele>127.4</ele>
        <time>2021-03-20T11:41:29Z</time>
      </trkpt>
      <trkpt lat="41.2830160" lon="-8.5820370">
        <ele>127.8</ele>
        <time>2021-03-20T11:41:30Z</time>
      </trkpt>
      <trkpt lat="41.2830140" lon="-8.5820960">
        <ele>127.8</ele>
        <time>2021-03-20T11:41:31Z</time>
      </trkpt>
      <trkpt lat="41.2830090" lon="-8.5821590">
        <ele>127.8</ele>
        <time>2021-03-20T11:41:32Z</time>
      </trkpt>
      <trkpt lat="41.2830040" lon="-8.5822320">
        <ele>127.8</ele>
        <time>2021-03-20T11:41:33Z</time>
      </trkpt>
      <trkpt lat="41.2829980" lon="-8.5822980">
        <ele>127.8</ele>
        <time>2021-03-20T11:41:34Z</time>
      </trkpt>
      <trkpt lat="41.2829930" lon="-8.5823630">
        <ele>128.2</ele>
        <time>2021-03-20T11:41:35Z</time>
      </trkpt>
      <trkpt lat="41.2829890" lon="-8.5824300">
        <ele>128.2</ele>
        <time>2021-03-20T11:41:36Z</time>
      </trkpt>
      <trkpt lat="41.2829840" lon="-8.5824970">
        <ele>128.2</ele>
        <time>2021-03-20T11:41:37Z</time>
      </trkpt>
      <trkpt lat="41.2829790" lon="-8.5825590">
        <ele>128.4</ele>
        <time>2021-03-20T11:41:38Z</time>
      </trkpt>
      <trkpt lat="41.2829790" lon="-8.5826510">
        <ele>128.6</ele>
        <time>2021-03-20T11:41:39Z</time>
      </trkpt>
      <trkpt lat="41.2829760" lon="-8.5826980">
        <ele>128.8</ele>
        <time>2021-03-20T11:41:40Z</time>
      </trkpt>
      <trkpt lat="41.2829700" lon="-8.5827590">
        <ele>129.0</ele>
        <time>2021-03-20T11:41:41Z</time>
      </trkpt>
      <trkpt lat="41.2829620" lon="-8.5828420">
        <ele>129.2</ele>
        <time>2021-03-20T11:41:42Z</time>
      </trkpt>
      <trkpt lat="41.2829490" lon="-8.5829160">
        <ele>129.4</ele>
        <time>2021-03-20T11:41:43Z</time>
      </trkpt>
      <trkpt lat="41.2829410" lon="-8.5829980">
        <ele>129.8</ele>
        <time>2021-03-20T11:41:44Z</time>
      </trkpt>
      <trkpt lat="41.2829310" lon="-8.5830550">
        <ele>130.0</ele>
        <time>2021-03-20T11:41:45Z</time>
      </trkpt>
      <trkpt lat="41.2829200" lon="-8.5831250">
        <ele>130.0</ele>
        <time>2021-03-20T11:41:46Z</time>
      </trkpt>
      <trkpt lat="41.2829070" lon="-8.5831900">
        <ele>130.0</ele>
        <time>2021-03-20T11:41:47Z</time>
      </trkpt>
      <trkpt lat="41.2829010" lon="-8.5832760">
        <ele>129.8</ele>
        <time>2021-03-20T11:41:48Z</time>
      </trkpt>
      <trkpt lat="41.2828960" lon="-8.5833640">
        <ele>129.6</ele>
        <time>2021-03-20T11:41:49Z</time>
      </trkpt>
      <trkpt lat="41.2828930" lon="-8.5834190">
        <ele>129.8</ele>
        <time>2021-03-20T11:41:50Z</time>
      </trkpt>
      <trkpt lat="41.2828850" lon="-8.5835050">
        <ele>129.8</ele>
        <time>2021-03-20T11:41:51Z</time>
      </trkpt>
      <trkpt lat="41.2828760" lon="-8.5835880">
        <ele>129.8</ele>
        <time>2021-03-20T11:41:52Z</time>
      </trkpt>
      <trkpt lat="41.2828670" lon="-8.5836610">
        <ele>129.8</ele>
        <time>2021-03-20T11:41:53Z</time>
      </trkpt>
      <trkpt lat="41.2828590" lon="-8.5837250">
        <ele>130.0</ele>
        <time>2021-03-20T11:41:54Z</time>
      </trkpt>
      <trkpt lat="41.2828490" lon="-8.5838140">
        <ele>130.0</ele>
        <time>2021-03-20T11:41:55Z</time>
      </trkpt>
      <trkpt lat="41.2828310" lon="-8.5839020">
        <ele>129.6</ele>
        <time>2021-03-20T11:41:56Z</time>
      </trkpt>
      <trkpt lat="41.2828180" lon="-8.5839940">
        <ele>129.6</ele>
        <time>2021-03-20T11:41:57Z</time>
      </trkpt>
      <trkpt lat="41.2828180" lon="-8.5840790">
        <ele>129.6</ele>
        <time>2021-03-20T11:41:58Z</time>
      </trkpt>
      <trkpt lat="41.2828120" lon="-8.5841430">
        <ele>129.8</ele>
        <time>2021-03-20T11:41:59Z</time>
      </trkpt>
      <trkpt lat="41.2828030" lon="-8.5842270">
        <ele>129.6</ele>
        <time>2021-03-20T11:42:00Z</time>
      </trkpt>
      <trkpt lat="41.2828080" lon="-8.5843090">
        <ele>129.6</ele>
        <time>2021-03-20T11:42:01Z</time>
      </trkpt>
      <trkpt lat="41.2828060" lon="-8.5843900">
        <ele>129.6</ele>
        <time>2021-03-20T11:42:02Z</time>
      </trkpt>
      <trkpt lat="41.2827940" lon="-8.5844460">
        <ele>129.4</ele>
        <time>2021-03-20T11:42:03Z</time>
      </trkpt>
      <trkpt lat="41.2827900" lon="-8.5845270">
        <ele>130.0</ele>
        <time>2021-03-20T11:42:04Z</time>
      </trkpt>
      <trkpt lat="41.2828080" lon="-8.5845740">
        <ele>130.0</ele>
        <time>2021-03-20T11:42:05Z</time>
      </trkpt>
      <trkpt lat="41.2828040" lon="-8.5846460">
        <ele>129.8</ele>
        <time>2021-03-20T11:42:06Z</time>
      </trkpt>
      <trkpt lat="41.2828130" lon="-8.5847010">
        <ele>130.0</ele>
        <time>2021-03-20T11:42:07Z</time>
      </trkpt>
      <trkpt lat="41.2828210" lon="-8.5847370">
        <ele>130.0</ele>
        <time>2021-03-20T11:42:08Z</time>
      </trkpt>
      <trkpt lat="41.2828270" lon="-8.5848050">
        <ele>129.8</ele>
        <time>2021-03-20T11:42:09Z</time>
      </trkpt>
      <trkpt lat="41.2828430" lon="-8.5848580">
        <ele>130.0</ele>
        <time>2021-03-20T11:42:10Z</time>
      </trkpt>
      <trkpt lat="41.2828470" lon="-8.5849150">
        <ele>130.0</ele>
        <time>2021-03-20T11:42:11Z</time>
      </trkpt>
      <trkpt lat="41.2828660" lon="-8.5849840">
        <ele>130.0</ele>
        <time>2021-03-20T11:42:12Z</time>
      </trkpt>
      <trkpt lat="41.2828770" lon="-8.5850540">
        <ele>130.0</ele>
        <time>2021-03-20T11:42:13Z</time>
      </trkpt>
      <trkpt lat="41.2828930" lon="-8.5851330">
        <ele>129.8</ele>
        <time>2021-03-20T11:42:14Z</time>
      </trkpt>
      <trkpt lat="41.2829140" lon="-8.5852200">
        <ele>129.8</ele>
        <time>2021-03-20T11:42:15Z</time>
      </trkpt>
      <trkpt lat="41.2829570" lon="-8.5853030">
        <ele>129.6</ele>
        <time>2021-03-20T11:42:16Z</time>
      </trkpt>
      <trkpt lat="41.2829540" lon="-8.5853690">
        <ele>129.2</ele>
        <time>2021-03-20T11:42:17Z</time>
      </trkpt>
      <trkpt lat="41.2830180" lon="-8.5854720">
        <ele>129.0</ele>
        <time>2021-03-20T11:42:18Z</time>
      </trkpt>
      <trkpt lat="41.2830240" lon="-8.5855630">
        <ele>128.8</ele>
        <time>2021-03-20T11:42:19Z</time>
      </trkpt>
      <trkpt lat="41.2830770" lon="-8.5856680">
        <ele>128.4</ele>
        <time>2021-03-20T11:42:20Z</time>
      </trkpt>
      <trkpt lat="41.2830900" lon="-8.5857380">
        <ele>127.8</ele>
        <time>2021-03-20T11:42:21Z</time>
      </trkpt>
      <trkpt lat="41.2831120" lon="-8.5858390">
        <ele>127.4</ele>
        <time>2021-03-20T11:42:22Z</time>
      </trkpt>
      <trkpt lat="41.2831450" lon="-8.5859380">
        <ele>127.0</ele>
        <time>2021-03-20T11:42:23Z</time>
      </trkpt>
      <trkpt lat="41.2832040" lon="-8.5860660">
        <ele>126.8</ele>
        <time>2021-03-20T11:42:24Z</time>
      </trkpt>
      <trkpt lat="41.2832470" lon="-8.5861340">
        <ele>126.8</ele>
        <time>2021-03-20T11:42:25Z</time>
      </trkpt>
      <trkpt lat="41.2832650" lon="-8.5862420">
        <ele>126.4</ele>
        <time>2021-03-20T11:42:26Z</time>
      </trkpt>
      <trkpt lat="41.2832910" lon="-8.5863560">
        <ele>126.2</ele>
        <time>2021-03-20T11:42:27Z</time>
      </trkpt>
      <trkpt lat="41.2833270" lon="-8.5864540">
        <ele>126.2</ele>
        <time>2021-03-20T11:42:28Z</time>
      </trkpt>
      <trkpt lat="41.2833770" lon="-8.5865450">
        <ele>126.0</ele>
        <time>2021-03-20T11:42:29Z</time>
      </trkpt>
      <trkpt lat="41.2834280" lon="-8.5865940">
        <ele>125.6</ele>
        <time>2021-03-20T11:42:30Z</time>
      </trkpt>
      <trkpt lat="41.2834390" lon="-8.5867020">
        <ele>125.2</ele>
        <time>2021-03-20T11:42:31Z</time>
      </trkpt>
      <trkpt lat="41.2834990" lon="-8.5868070">
        <ele>125.0</ele>
        <time>2021-03-20T11:42:32Z</time>
      </trkpt>
      <trkpt lat="41.2835530" lon="-8.5868820">
        <ele>124.6</ele>
        <time>2021-03-20T11:42:33Z</time>
      </trkpt>
      <trkpt lat="41.2835160" lon="-8.5869590">
        <ele>124.0</ele>
        <time>2021-03-20T11:42:34Z</time>
      </trkpt>
      <trkpt lat="41.2835570" lon="-8.5870800">
        <ele>123.6</ele>
        <time>2021-03-20T11:42:35Z</time>
      </trkpt>
      <trkpt lat="41.2835730" lon="-8.5872830">
        <ele>123.0</ele>
        <time>2021-03-20T11:42:36Z</time>
      </trkpt>
      <trkpt lat="41.2836740" lon="-8.5873860">
        <ele>122.8</ele>
        <time>2021-03-20T11:42:37Z</time>
      </trkpt>
      <trkpt lat="41.2837500" lon="-8.5874750">
        <ele>122.2</ele>
        <time>2021-03-20T11:42:38Z</time>
      </trkpt>
      <trkpt lat="41.2837640" lon="-8.5875530">
        <ele>121.8</ele>
        <time>2021-03-20T11:42:39Z</time>
      </trkpt>
      <trkpt lat="41.2838330" lon="-8.5876250">
        <ele>121.4</ele>
        <time>2021-03-20T11:42:40Z</time>
      </trkpt>
      <trkpt lat="41.2838720" lon="-8.5877430">
        <ele>120.8</ele>
        <time>2021-03-20T11:42:41Z</time>
      </trkpt>
      <trkpt lat="41.2838960" lon="-8.5879500">
        <ele>120.4</ele>
        <time>2021-03-20T11:42:42Z</time>
      </trkpt>
      <trkpt lat="41.2838970" lon="-8.5880520">
        <ele>120.4</ele>
        <time>2021-03-20T11:42:43Z</time>
      </trkpt>
      <trkpt lat="41.2839110" lon="-8.5881910">
        <ele>120.2</ele>
        <time>2021-03-20T11:42:44Z</time>
      </trkpt>
      <trkpt lat="41.2839900" lon="-8.5883280">
        <ele>120.2</ele>
        <time>2021-03-20T11:42:45Z</time>
      </trkpt>
      <trkpt lat="41.2839910" lon="-8.5884020">
        <ele>120.2</ele>
        <time>2021-03-20T11:42:46Z</time>
      </trkpt>
      <trkpt lat="41.2840510" lon="-8.5885090">
        <ele>120.0</ele>
        <time>2021-03-20T11:42:47Z</time>
      </trkpt>
      <trkpt lat="41.2840870" lon="-8.5886970">
        <ele>120.2</ele>
        <time>2021-03-20T11:42:48Z</time>
      </trkpt>
      <trkpt lat="41.2841550" lon="-8.5888470">
        <ele>120.2</ele>
        <time>2021-03-20T11:42:49Z</time>
      </trkpt>
      <trkpt lat="41.2841350" lon="-8.5889530">
        <ele>120.6</ele>
        <time>2021-03-20T11:42:50Z</time>
      </trkpt>
      <trkpt lat="41.2842220" lon="-8.5889800">
        <ele>121.0</ele>
        <time>2021-03-20T11:42:51Z</time>
      </trkpt>
      <trkpt lat="41.2842590" lon="-8.5890620">
        <ele>121.4</ele>
        <time>2021-03-20T11:42:52Z</time>
      </trkpt>
      <trkpt lat="41.2842740" lon="-8.5892080">
        <ele>121.0</ele>
        <time>2021-03-20T11:42:53Z</time>
      </trkpt>
      <trkpt lat="41.2842720" lon="-8.5893390">
        <ele>121.4</ele>
        <time>2021-03-20T11:42:54Z</time>
      </trkpt>
      <trkpt lat="41.2843350" lon="-8.5894450">
        <ele>122.2</ele>
        <time>2021-03-20T11:42:55Z</time>
      </trkpt>
      <trkpt lat="41.2843440" lon="-8.5895360">
        <ele>122.6</ele>
        <time>2021-03-20T11:42:56Z</time>
      </trkpt>
      <trkpt lat="41.2843980" lon="-8.5896170">
        <ele>122.6</ele>
        <time>2021-03-20T11:42:57Z</time>
      </trkpt>
      <trkpt lat="41.2843970" lon="-8.5897090">
        <ele>122.8</ele>
        <time>2021-03-20T11:42:58Z</time>
      </trkpt>
      <trkpt lat="41.2844620" lon="-8.5898050">
        <ele>123.0</ele>
        <time>2021-03-20T11:42:59Z</time>
      </trkpt>
      <trkpt lat="41.2845260" lon="-8.5898690">
        <ele>123.2</ele>
        <time>2021-03-20T11:43:00Z</time>
      </trkpt>
      <trkpt lat="41.2845150" lon="-8.5899640">
        <ele>123.6</ele>
        <time>2021-03-20T11:43:01Z</time>
      </trkpt>
      <trkpt lat="41.2845410" lon="-8.5900640">
        <ele>123.4</ele>
        <time>2021-03-20T11:43:02Z</time>
      </trkpt>
      <trkpt lat="41.2845980" lon="-8.5901600">
        <ele>123.6</ele>
        <time>2021-03-20T11:43:03Z</time>
      </trkpt>
      <trkpt lat="41.2846070" lon="-8.5902310">
        <ele>124.0</ele>
        <time>2021-03-20T11:43:04Z</time>
      </trkpt>
      <trkpt lat="41.2846660" lon="-8.5903260">
        <ele>124.2</ele>
        <time>2021-03-20T11:43:05Z</time>
      </trkpt>
      <trkpt lat="41.2846890" lon="-8.5904170">
        <ele>124.4</ele>
        <time>2021-03-20T11:43:06Z</time>
      </trkpt>
      <trkpt lat="41.2847460" lon="-8.5905070">
        <ele>124.4</ele>
        <time>2021-03-20T11:43:07Z</time>
      </trkpt>
      <trkpt lat="41.2847500" lon="-8.5905790">
        <ele>124.6</ele>
        <time>2021-03-20T11:43:08Z</time>
      </trkpt>
      <trkpt lat="41.2847670" lon="-8.5906690">
        <ele>124.4</ele>
        <time>2021-03-20T11:43:09Z</time>
      </trkpt>
      <trkpt lat="41.2848180" lon="-8.5907520">
        <ele>124.4</ele>
        <time>2021-03-20T11:43:10Z</time>
      </trkpt>
      <trkpt lat="41.2848590" lon="-8.5908340">
        <ele>124.4</ele>
        <time>2021-03-20T11:43:11Z</time>
      </trkpt>
      <trkpt lat="41.2848990" lon="-8.5909050">
        <ele>124.2</ele>
        <time>2021-03-20T11:43:12Z</time>
      </trkpt>
      <trkpt lat="41.2849010" lon="-8.5909680">
        <ele>124.0</ele>
        <time>2021-03-20T11:43:13Z</time>
      </trkpt>
      <trkpt lat="41.2849050" lon="-8.5910560">
        <ele>124.2</ele>
        <time>2021-03-20T11:43:14Z</time>
      </trkpt>
      <trkpt lat="41.2849770" lon="-8.5911360">
        <ele>124.2</ele>
        <time>2021-03-20T11:43:15Z</time>
      </trkpt>
      <trkpt lat="41.2849910" lon="-8.5912320">
        <ele>124.2</ele>
        <time>2021-03-20T11:43:16Z</time>
      </trkpt>
      <trkpt lat="41.2850130" lon="-8.5912930">
        <ele>124.0</ele>
        <time>2021-03-20T11:43:17Z</time>
      </trkpt>
      <trkpt lat="41.2850260" lon="-8.5913760">
        <ele>124.0</ele>
        <time>2021-03-20T11:43:18Z</time>
      </trkpt>
      <trkpt lat="41.2851450" lon="-8.5914510">
        <ele>124.2</ele>
        <time>2021-03-20T11:43:19Z</time>
      </trkpt>
      <trkpt lat="41.2851350" lon="-8.5915160">
        <ele>124.2</ele>
        <time>2021-03-20T11:43:20Z</time>
      </trkpt>
      <trkpt lat="41.2851210" lon="-8.5916080">
        <ele>124.4</ele>
        <time>2021-03-20T11:43:21Z</time>
      </trkpt>
      <trkpt lat="41.2851390" lon="-8.5916920">
        <ele>124.4</ele>
        <time>2021-03-20T11:43:22Z</time>
      </trkpt>
      <trkpt lat="41.2852000" lon="-8.5917750">
        <ele>124.2</ele>
        <time>2021-03-20T11:43:23Z</time>
      </trkpt>
      <trkpt lat="41.2852500" lon="-8.5918570">
        <ele>124.4</ele>
        <time>2021-03-20T11:43:24Z</time>
      </trkpt>
      <trkpt lat="41.2852440" lon="-8.5919420">
        <ele>124.2</ele>
        <time>2021-03-20T11:43:25Z</time>
      </trkpt>
      <trkpt lat="41.2852910" lon="-8.5920100">
        <ele>124.2</ele>
        <time>2021-03-20T11:43:26Z</time>
      </trkpt>
      <trkpt lat="41.2852860" lon="-8.5920880">
        <ele>124.0</ele>
        <time>2021-03-20T11:43:27Z</time>
      </trkpt>
      <trkpt lat="41.2853570" lon="-8.5921390">
        <ele>123.8</ele>
        <time>2021-03-20T11:43:28Z</time>
      </trkpt>
      <trkpt lat="41.2853890" lon="-8.5922310">
        <ele>123.6</ele>
        <time>2021-03-20T11:43:29Z</time>
      </trkpt>
      <trkpt lat="41.2854000" lon="-8.5922970">
        <ele>123.4</ele>
        <time>2021-03-20T11:43:30Z</time>
      </trkpt>
      <trkpt lat="41.2854440" lon="-8.5923790">
        <ele>123.0</ele>
        <time>2021-03-20T11:43:31Z</time>
      </trkpt>
      <trkpt lat="41.2854750" lon="-8.5924590">
        <ele>122.4</ele>
        <time>2021-03-20T11:43:32Z</time>
      </trkpt>
      <trkpt lat="41.2855120" lon="-8.5925390">
        <ele>122.2</ele>
        <time>2021-03-20T11:43:33Z</time>
      </trkpt>
      <trkpt lat="41.2855640" lon="-8.5926220">
        <ele>122.0</ele>
        <time>2021-03-20T11:43:34Z</time>
      </trkpt>
      <trkpt lat="41.2855640" lon="-8.5927050">
        <ele>121.8</ele>
        <time>2021-03-20T11:43:35Z</time>
      </trkpt>
      <trkpt lat="41.2856070" lon="-8.5927820">
        <ele>121.4</ele>
        <time>2021-03-20T11:43:36Z</time>
      </trkpt>
      <trkpt lat="41.2856190" lon="-8.5928640">
        <ele>121.0</ele>
        <time>2021-03-20T11:43:37Z</time>
      </trkpt>
      <trkpt lat="41.2856620" lon="-8.5929360">
        <ele>121.0</ele>
        <time>2021-03-20T11:43:38Z</time>
      </trkpt>
      <trkpt lat="41.2856960" lon="-8.5930160">
        <ele>120.8</ele>
        <time>2021-03-20T11:43:39Z</time>
      </trkpt>
      <trkpt lat="41.2857310" lon="-8.5931020">
        <ele>120.4</ele>
        <time>2021-03-20T11:43:40Z</time>
      </trkpt>
      <trkpt lat="41.2857610" lon="-8.5931910">
        <ele>120.0</ele>
        <time>2021-03-20T11:43:41Z</time>
      </trkpt>
      <trkpt lat="41.2857950" lon="-8.5933130">
        <ele>119.6</ele>
        <time>2021-03-20T11:43:42Z</time>
      </trkpt>
      <trkpt lat="41.2858240" lon="-8.5934050">
        <ele>119.6</ele>
        <time>2021-03-20T11:43:43Z</time>
      </trkpt>
      <trkpt lat="41.2858420" lon="-8.5934780">
        <ele>119.2</ele>
        <time>2021-03-20T11:43:44Z</time>
      </trkpt>
      <trkpt lat="41.2858560" lon="-8.5935770">
        <ele>118.6</ele>
        <time>2021-03-20T11:43:45Z</time>
      </trkpt>
      <trkpt lat="41.2858640" lon="-8.5937030">
        <ele>118.2</ele>
        <time>2021-03-20T11:43:46Z</time>
      </trkpt>
      <trkpt lat="41.2858640" lon="-8.5937820">
        <ele>118.0</ele>
        <time>2021-03-20T11:43:47Z</time>
      </trkpt>
      <trkpt lat="41.2858660" lon="-8.5939030">
        <ele>117.6</ele>
        <time>2021-03-20T11:43:48Z</time>
      </trkpt>
      <trkpt lat="41.2858620" lon="-8.5940210">
        <ele>117.4</ele>
        <time>2021-03-20T11:43:49Z</time>
      </trkpt>
      <trkpt lat="41.2858530" lon="-8.5941700">
        <ele>117.0</ele>
        <time>2021-03-20T11:43:50Z</time>
      </trkpt>
      <trkpt lat="41.2858440" lon="-8.5942550">
        <ele>116.4</ele>
        <time>2021-03-20T11:43:51Z</time>
      </trkpt>
      <trkpt lat="41.2858370" lon="-8.5943720">
        <ele>116.0</ele>
        <time>2021-03-20T11:43:52Z</time>
      </trkpt>
      <trkpt lat="41.2858240" lon="-8.5944900">
        <ele>115.6</ele>
        <time>2021-03-20T11:43:53Z</time>
      </trkpt>
      <trkpt lat="41.2858120" lon="-8.5946150">
        <ele>115.4</ele>
        <time>2021-03-20T11:43:54Z</time>
      </trkpt>
      <trkpt lat="41.2857980" lon="-8.5947420">
        <ele>115.0</ele>
        <time>2021-03-20T11:43:55Z</time>
      </trkpt>
      <trkpt lat="41.2857840" lon="-8.5948650">
        <ele>114.8</ele>
        <time>2021-03-20T11:43:56Z</time>
      </trkpt>
      <trkpt lat="41.2857740" lon="-8.5949910">
        <ele>114.4</ele>
        <time>2021-03-20T11:43:57Z</time>
      </trkpt>
      <trkpt lat="41.2857620" lon="-8.5951500">
        <ele>114.0</ele>
        <time>2021-03-20T11:43:58Z</time>
      </trkpt>
      <trkpt lat="41.2857640" lon="-8.5952710">
        <ele>113.2</ele>
        <time>2021-03-20T11:43:59Z</time>
      </trkpt>
      <trkpt lat="41.2857700" lon="-8.5953560">
        <ele>113.0</ele>
        <time>2021-03-20T11:44:00Z</time>
      </trkpt>
      <trkpt lat="41.2857810" lon="-8.5955110">
        <ele>112.8</ele>
        <time>2021-03-20T11:44:01Z</time>
      </trkpt>
      <trkpt lat="41.2857820" lon="-8.5956370">
        <ele>112.6</ele>
        <time>2021-03-20T11:44:02Z</time>
      </trkpt>
      <trkpt lat="41.2857850" lon="-8.5957630">
        <ele>112.2</ele>
        <time>2021-03-20T11:44:03Z</time>
      </trkpt>
      <trkpt lat="41.2857890" lon="-8.5958880">
        <ele>112.0</ele>
        <time>2021-03-20T11:44:04Z</time>
      </trkpt>
      <trkpt lat="41.2857890" lon="-8.5959830">
        <ele>112.0</ele>
        <time>2021-03-20T11:44:05Z</time>
      </trkpt>
      <trkpt lat="41.2857730" lon="-8.5961360">
        <ele>111.8</ele>
        <time>2021-03-20T11:44:06Z</time>
      </trkpt>
      <trkpt lat="41.2857530" lon="-8.5962860">
        <ele>111.4</ele>
        <time>2021-03-20T11:44:07Z</time>
      </trkpt>
      <trkpt lat="41.2857150" lon="-8.5963970">
        <ele>110.8</ele>
        <time>2021-03-20T11:44:08Z</time>
      </trkpt>
      <trkpt lat="41.2856880" lon="-8.5964930">
        <ele>110.6</ele>
        <time>2021-03-20T11:44:09Z</time>
      </trkpt>
      <trkpt lat="41.2856440" lon="-8.5966340">
        <ele>110.0</ele>
        <time>2021-03-20T11:44:10Z</time>
      </trkpt>
      <trkpt lat="41.2856090" lon="-8.5967360">
        <ele>109.6</ele>
        <time>2021-03-20T11:44:11Z</time>
      </trkpt>
      <trkpt lat="41.2855860" lon="-8.5968030">
        <ele>109.4</ele>
        <time>2021-03-20T11:44:12Z</time>
      </trkpt>
      <trkpt lat="41.2855630" lon="-8.5969230">
        <ele>109.0</ele>
        <time>2021-03-20T11:44:13Z</time>
      </trkpt>
      <trkpt lat="41.2855450" lon="-8.5970210">
        <ele>109.0</ele>
        <time>2021-03-20T11:44:14Z</time>
      </trkpt>
      <trkpt lat="41.2855390" lon="-8.5970910">
        <ele>108.4</ele>
        <time>2021-03-20T11:44:15Z</time>
      </trkpt>
      <trkpt lat="41.2855530" lon="-8.5971840">
        <ele>108.0</ele>
        <time>2021-03-20T11:44:16Z</time>
      </trkpt>
      <trkpt lat="41.2855610" lon="-8.5972820">
        <ele>107.6</ele>
        <time>2021-03-20T11:44:17Z</time>
      </trkpt>
      <trkpt lat="41.2856000" lon="-8.5973440">
        <ele>107.2</ele>
        <time>2021-03-20T11:44:18Z</time>
      </trkpt>
      <trkpt lat="41.2856460" lon="-8.5973970">
        <ele>107.0</ele>
        <time>2021-03-20T11:44:19Z</time>
      </trkpt>
      <trkpt lat="41.2856770" lon="-8.5974890">
        <ele>106.6</ele>
        <time>2021-03-20T11:44:20Z</time>
      </trkpt>
      <trkpt lat="41.2857930" lon="-8.5976170">
        <ele>106.4</ele>
        <time>2021-03-20T11:44:21Z</time>
      </trkpt>
      <trkpt lat="41.2858450" lon="-8.5977320">
        <ele>106.0</ele>
        <time>2021-03-20T11:44:22Z</time>
      </trkpt>
      <trkpt lat="41.2858820" lon="-8.5977870">
        <ele>105.8</ele>
        <time>2021-03-20T11:44:23Z</time>
      </trkpt>
      <trkpt lat="41.2859420" lon="-8.5979010">
        <ele>105.4</ele>
        <time>2021-03-20T11:44:24Z</time>
      </trkpt>
      <trkpt lat="41.2859810" lon="-8.5980820">
        <ele>105.2</ele>
        <time>2021-03-20T11:44:25Z</time>
      </trkpt>
      <trkpt lat="41.2860150" lon="-8.5981050">
        <ele>104.4</ele>
        <time>2021-03-20T11:44:26Z</time>
      </trkpt>
      <trkpt lat="41.2860410" lon="-8.5981780">
        <ele>104.0</ele>
        <time>2021-03-20T11:44:27Z</time>
      </trkpt>
      <trkpt lat="41.2861330" lon="-8.5982820">
        <ele>103.6</ele>
        <time>2021-03-20T11:44:28Z</time>
      </trkpt>
      <trkpt lat="41.2861920" lon="-8.5983890">
        <ele>103.0</ele>
        <time>2021-03-20T11:44:29Z</time>
      </trkpt>
      <trkpt lat="41.2862630" lon="-8.5985330">
        <ele>102.8</ele>
        <time>2021-03-20T11:44:30Z</time>
      </trkpt>
      <trkpt lat="41.2863100" lon="-8.5986280">
        <ele>102.4</ele>
        <time>2021-03-20T11:44:31Z</time>
      </trkpt>
      <trkpt lat="41.2863200" lon="-8.5987570">
        <ele>101.6</ele>
        <time>2021-03-20T11:44:32Z</time>
      </trkpt>
      <trkpt lat="41.2863580" lon="-8.5988560">
        <ele>101.2</ele>
        <time>2021-03-20T11:44:33Z</time>
      </trkpt>
      <trkpt lat="41.2863570" lon="-8.5989930">
        <ele>100.2</ele>
        <time>2021-03-20T11:44:34Z</time>
      </trkpt>
      <trkpt lat="41.2863330" lon="-8.5991270">
        <ele>100.0</ele>
        <time>2021-03-20T11:44:35Z</time>
      </trkpt>
      <trkpt lat="41.2863540" lon="-8.5992550">
        <ele>99.8</ele>
        <time>2021-03-20T11:44:36Z</time>
      </trkpt>
      <trkpt lat="41.2864180" lon="-8.5993420">
        <ele>99.4</ele>
        <time>2021-03-20T11:44:37Z</time>
      </trkpt>
      <trkpt lat="41.2864330" lon="-8.5995270">
        <ele>99.2</ele>
        <time>2021-03-20T11:44:38Z</time>
      </trkpt>
      <trkpt lat="41.2864630" lon="-8.5996410">
        <ele>98.8</ele>
        <time>2021-03-20T11:44:39Z</time>
      </trkpt>
      <trkpt lat="41.2864290" lon="-8.5997970">
        <ele>99.4</ele>
        <time>2021-03-20T11:44:40Z</time>
      </trkpt>
      <trkpt lat="41.2864300" lon="-8.5999230">
        <ele>99.4</ele>
        <time>2021-03-20T11:44:41Z</time>
      </trkpt>
      <trkpt lat="41.2864370" lon="-8.6000530">
        <ele>99.6</ele>
        <time>2021-03-20T11:44:42Z</time>
      </trkpt>
      <trkpt lat="41.2864420" lon="-8.6001630">
        <ele>99.6</ele>
        <time>2021-03-20T11:44:43Z</time>
      </trkpt>
      <trkpt lat="41.2864500" lon="-8.6003230">
        <ele>99.8</ele>
        <time>2021-03-20T11:44:44Z</time>
      </trkpt>
      <trkpt lat="41.2864640" lon="-8.6004530">
        <ele>99.8</ele>
        <time>2021-03-20T11:44:45Z</time>
      </trkpt>
      <trkpt lat="41.2864770" lon="-8.6005690">
        <ele>99.6</ele>
        <time>2021-03-20T11:44:46Z</time>
      </trkpt>
      <trkpt lat="41.2864820" lon="-8.6007380">
        <ele>99.4</ele>
        <time>2021-03-20T11:44:47Z</time>
      </trkpt>
      <trkpt lat="41.2864680" lon="-8.6008570">
        <ele>99.4</ele>
        <time>2021-03-20T11:44:48Z</time>
      </trkpt>
      <trkpt lat="41.2864690" lon="-8.6009400">
        <ele>99.4</ele>
        <time>2021-03-20T11:44:49Z</time>
      </trkpt>
      <trkpt lat="41.2864700" lon="-8.6010590">
        <ele>99.4</ele>
        <time>2021-03-20T11:44:50Z</time>
      </trkpt>
      <trkpt lat="41.2864760" lon="-8.6012060">
        <ele>99.4</ele>
        <time>2021-03-20T11:44:51Z</time>
      </trkpt>
      <trkpt lat="41.2864730" lon="-8.6013210">
        <ele>99.4</ele>
        <time>2021-03-20T11:44:52Z</time>
      </trkpt>
      <trkpt lat="41.2864670" lon="-8.6014000">
        <ele>99.4</ele>
        <time>2021-03-20T11:44:53Z</time>
      </trkpt>
      <trkpt lat="41.2864770" lon="-8.6015300">
        <ele>99.4</ele>
        <time>2021-03-20T11:44:54Z</time>
      </trkpt>
      <trkpt lat="41.2864790" lon="-8.6016440">
        <ele>99.2</ele>
        <time>2021-03-20T11:44:55Z</time>
      </trkpt>
      <trkpt lat="41.2864770" lon="-8.6017250">
        <ele>99.2</ele>
        <time>2021-03-20T11:44:56Z</time>
      </trkpt>
      <trkpt lat="41.2864660" lon="-8.6018510">
        <ele>99.4</ele>
        <time>2021-03-20T11:44:57Z</time>
      </trkpt>
      <trkpt lat="41.2864640" lon="-8.6019450">
        <ele>99.6</ele>
        <time>2021-03-20T11:44:58Z</time>
      </trkpt>
      <trkpt lat="41.2864640" lon="-8.6020230">
        <ele>99.6</ele>
        <time>2021-03-20T11:44:59Z</time>
      </trkpt>
      <trkpt lat="41.2864680" lon="-8.6020770">
        <ele>99.6</ele>
        <time>2021-03-20T11:45:00Z</time>
      </trkpt>
      <trkpt lat="41.2864730" lon="-8.6021630">
        <ele>99.8</ele>
        <time>2021-03-20T11:45:01Z</time>
      </trkpt>
      <trkpt lat="41.2864770" lon="-8.6022210">
        <ele>99.8</ele>
        <time>2021-03-20T11:45:02Z</time>
      </trkpt>
      <trkpt lat="41.2864850" lon="-8.6022520">
        <ele>100.0</ele>
        <time>2021-03-20T11:45:03Z</time>
      </trkpt>
      <trkpt lat="41.2864890" lon="-8.6023010">
        <ele>100.0</ele>
        <time>2021-03-20T11:45:04Z</time>
      </trkpt>
      <trkpt lat="41.2864980" lon="-8.6023370">
        <ele>100.0</ele>
        <time>2021-03-20T11:45:05Z</time>
      </trkpt>
      <trkpt lat="41.2865000" lon="-8.6023630">
        <ele>100.0</ele>
        <time>2021-03-20T11:45:06Z</time>
      </trkpt>
      <trkpt lat="41.2865130" lon="-8.6023940">
        <ele>99.8</ele>
        <time>2021-03-20T11:45:07Z</time>
      </trkpt>
      <trkpt lat="41.2865180" lon="-8.6024170">
        <ele>99.8</ele>
        <time>2021-03-20T11:45:08Z</time>
      </trkpt>
      <trkpt lat="41.2865260" lon="-8.6024320">
        <ele>99.8</ele>
        <time>2021-03-20T11:45:09Z</time>
      </trkpt>
      <trkpt lat="41.2865300" lon="-8.6024390">
        <ele>99.6</ele>
        <time>2021-03-20T11:45:10Z</time>
      </trkpt>
      <trkpt lat="41.2865350" lon="-8.6024440">
        <ele>99.6</ele>
        <time>2021-03-20T11:45:11Z</time>
      </trkpt>
      <trkpt lat="41.2865400" lon="-8.6024500">
        <ele>99.6</ele>
        <time>2021-03-20T11:45:12Z</time>
      </trkpt>
      <trkpt lat="41.2865450" lon="-8.6024660">
        <ele>99.6</ele>
        <time>2021-03-20T11:45:13Z</time>
      </trkpt>
      <trkpt lat="41.2865520" lon="-8.6024740">
        <ele>99.6</ele>
        <time>2021-03-20T11:45:14Z</time>
      </trkpt>
      <trkpt lat="41.2865550" lon="-8.6024920">
        <ele>99.4</ele>
        <time>2021-03-20T11:45:15Z</time>
      </trkpt>
      <trkpt lat="41.2865660" lon="-8.6025000">
        <ele>99.4</ele>
        <time>2021-03-20T11:45:16Z</time>
      </trkpt>
      <trkpt lat="41.2865790" lon="-8.6025040">
        <ele>99.4</ele>
        <time>2021-03-20T11:45:17Z</time>
      </trkpt>
      <trkpt lat="41.2866060" lon="-8.6025310">
        <ele>99.6</ele>
        <time>2021-03-20T11:45:18Z</time>
      </trkpt>
      <trkpt lat="41.2866200" lon="-8.6025530">
        <ele>99.6</ele>
        <time>2021-03-20T11:45:19Z</time>
      </trkpt>
      <trkpt lat="41.2866420" lon="-8.6025650">
        <ele>99.6</ele>
        <time>2021-03-20T11:45:20Z</time>
      </trkpt>
      <trkpt lat="41.2866740" lon="-8.6025900">
        <ele>99.6</ele>
        <time>2021-03-20T11:45:21Z</time>
      </trkpt>
      <trkpt lat="41.2866920" lon="-8.6026230">
        <ele>99.8</ele>
        <time>2021-03-20T11:45:22Z</time>
      </trkpt>
      <trkpt lat="41.2867100" lon="-8.6026540">
        <ele>100.2</ele>
        <time>2021-03-20T11:45:23Z</time>
      </trkpt>
      <trkpt lat="41.2867340" lon="-8.6027200">
        <ele>100.6</ele>
        <time>2021-03-20T11:45:24Z</time>
      </trkpt>
      <trkpt lat="41.2867430" lon="-8.6027790">
        <ele>100.8</ele>
        <time>2021-03-20T11:45:25Z</time>
      </trkpt>
      <trkpt lat="41.2867380" lon="-8.6028340">
        <ele>101.0</ele>
        <time>2021-03-20T11:45:26Z</time>
      </trkpt>
      <trkpt lat="41.2867560" lon="-8.6028930">
        <ele>101.2</ele>
        <time>2021-03-20T11:45:27Z</time>
      </trkpt>
      <trkpt lat="41.2867770" lon="-8.6029570">
        <ele>101.4</ele>
        <time>2021-03-20T11:45:28Z</time>
      </trkpt>
      <trkpt lat="41.2867860" lon="-8.6030250">
        <ele>101.6</ele>
        <time>2021-03-20T11:45:29Z</time>
      </trkpt>
      <trkpt lat="41.2868130" lon="-8.6031040">
        <ele>101.6</ele>
        <time>2021-03-20T11:45:30Z</time>
      </trkpt>
      <trkpt lat="41.2868320" lon="-8.6031610">
        <ele>101.8</ele>
        <time>2021-03-20T11:45:31Z</time>
      </trkpt>
      <trkpt lat="41.2869020" lon="-8.6032180">
        <ele>102.2</ele>
        <time>2021-03-20T11:45:32Z</time>
      </trkpt>
      <trkpt lat="41.2869370" lon="-8.6032570">
        <ele>102.2</ele>
        <time>2021-03-20T11:45:33Z</time>
      </trkpt>
      <trkpt lat="41.2869520" lon="-8.6032930">
        <ele>102.2</ele>
        <time>2021-03-20T11:45:34Z</time>
      </trkpt>
      <trkpt lat="41.2869710" lon="-8.6033310">
        <ele>102.8</ele>
        <time>2021-03-20T11:45:35Z</time>
      </trkpt>
      <trkpt lat="41.2869770" lon="-8.6033700">
        <ele>103.0</ele>
        <time>2021-03-20T11:45:36Z</time>
      </trkpt>
      <trkpt lat="41.2870500" lon="-8.6034110">
        <ele>103.4</ele>
        <time>2021-03-20T11:45:37Z</time>
      </trkpt>
      <trkpt lat="41.2870250" lon="-8.6034540">
        <ele>103.8</ele>
        <time>2021-03-20T11:45:38Z</time>
      </trkpt>
      <trkpt lat="41.2870830" lon="-8.6034880">
        <ele>104.0</ele>
        <time>2021-03-20T11:45:39Z</time>
      </trkpt>
      <trkpt lat="41.2871150" lon="-8.6035400">
        <ele>104.2</ele>
        <time>2021-03-20T11:45:40Z</time>
      </trkpt>
      <trkpt lat="41.2871220" lon="-8.6035760">
        <ele>104.4</ele>
        <time>2021-03-20T11:45:41Z</time>
      </trkpt>
      <trkpt lat="41.2871400" lon="-8.6036480">
        <ele>104.4</ele>
        <time>2021-03-20T11:45:42Z</time>
      </trkpt>
      <trkpt lat="41.2871580" lon="-8.6037060">
        <ele>104.6</ele>
        <time>2021-03-20T11:45:43Z</time>
      </trkpt>
      <trkpt lat="41.2871790" lon="-8.6037610">
        <ele>105.0</ele>
        <time>2021-03-20T11:45:44Z</time>
      </trkpt>
      <trkpt lat="41.2872050" lon="-8.6038080">
        <ele>105.0</ele>
        <time>2021-03-20T11:45:45Z</time>
      </trkpt>
      <trkpt lat="41.2872310" lon="-8.6038650">
        <ele>105.4</ele>
        <time>2021-03-20T11:45:46Z</time>
      </trkpt>
      <trkpt lat="41.2872530" lon="-8.6039050">
        <ele>105.4</ele>
        <time>2021-03-20T11:45:47Z</time>
      </trkpt>
      <trkpt lat="41.2872780" lon="-8.6039540">
        <ele>105.6</ele>
        <time>2021-03-20T11:45:48Z</time>
      </trkpt>
      <trkpt lat="41.2872980" lon="-8.6039960">
        <ele>106.0</ele>
        <time>2021-03-20T11:45:49Z</time>
      </trkpt>
      <trkpt lat="41.2873140" lon="-8.6040530">
        <ele>106.4</ele>
        <time>2021-03-20T11:45:50Z</time>
      </trkpt>
      <trkpt lat="41.2873330" lon="-8.6040930">
        <ele>106.4</ele>
        <time>2021-03-20T11:45:51Z</time>
      </trkpt>
      <trkpt lat="41.2873540" lon="-8.6041320">
        <ele>106.6</ele>
        <time>2021-03-20T11:45:52Z</time>
      </trkpt>
      <trkpt lat="41.2873690" lon="-8.6041630">
        <ele>106.8</ele>
        <time>2021-03-20T11:45:53Z</time>
      </trkpt>
      <trkpt lat="41.2873870" lon="-8.6042050">
        <ele>106.8</ele>
        <time>2021-03-20T11:45:54Z</time>
      </trkpt>
      <trkpt lat="41.2874090" lon="-8.6042420">
        <ele>107.0</ele>
        <time>2021-03-20T11:45:55Z</time>
      </trkpt>
      <trkpt lat="41.2874350" lon="-8.6042920">
        <ele>107.2</ele>
        <time>2021-03-20T11:45:56Z</time>
      </trkpt>
      <trkpt lat="41.2874570" lon="-8.6043370">
        <ele>107.4</ele>
        <time>2021-03-20T11:45:57Z</time>
      </trkpt>
      <trkpt lat="41.2874820" lon="-8.6043760">
        <ele>107.4</ele>
        <time>2021-03-20T11:45:58Z</time>
      </trkpt>
      <trkpt lat="41.2874950" lon="-8.6044090">
        <ele>107.8</ele>
        <time>2021-03-20T11:45:59Z</time>
      </trkpt>
      <trkpt lat="41.2875180" lon="-8.6044500">
        <ele>108.2</ele>
        <time>2021-03-20T11:46:00Z</time>
      </trkpt>
      <trkpt lat="41.2875400" lon="-8.6044810">
        <ele>108.4</ele>
        <time>2021-03-20T11:46:01Z</time>
      </trkpt>
      <trkpt lat="41.2875590" lon="-8.6045150">
        <ele>108.6</ele>
        <time>2021-03-20T11:46:02Z</time>
      </trkpt>
      <trkpt lat="41.2875800" lon="-8.6045510">
        <ele>108.8</ele>
        <time>2021-03-20T11:46:03Z</time>
      </trkpt>
      <trkpt lat="41.2876000" lon="-8.6045930">
        <ele>109.0</ele>
        <time>2021-03-20T11:46:04Z</time>
      </trkpt>
      <trkpt lat="41.2876210" lon="-8.6046260">
        <ele>109.2</ele>
        <time>2021-03-20T11:46:05Z</time>
      </trkpt>
      <trkpt lat="41.2876380" lon="-8.6046550">
        <ele>109.6</ele>
        <time>2021-03-20T11:46:06Z</time>
      </trkpt>
      <trkpt lat="41.2876600" lon="-8.6046870">
        <ele>109.8</ele>
        <time>2021-03-20T11:46:07Z</time>
      </trkpt>
      <trkpt lat="41.2876800" lon="-8.6047240">
        <ele>109.8</ele>
        <time>2021-03-20T11:46:08Z</time>
      </trkpt>
      <trkpt lat="41.2877040" lon="-8.6047780">
        <ele>110.0</ele>
        <time>2021-03-20T11:46:09Z</time>
      </trkpt>
      <trkpt lat="41.2877160" lon="-8.6048160">
        <ele>110.2</ele>
        <time>2021-03-20T11:46:10Z</time>
      </trkpt>
      <trkpt lat="41.2877310" lon="-8.6048440">
        <ele>110.4</ele>
        <time>2021-03-20T11:46:11Z</time>
      </trkpt>
      <trkpt lat="41.2877530" lon="-8.6048750">
        <ele>110.8</ele>
        <time>2021-03-20T11:46:12Z</time>
      </trkpt>
      <trkpt lat="41.2877720" lon="-8.6048940">
        <ele>110.8</ele>
        <time>2021-03-20T11:46:13Z</time>
      </trkpt>
      <trkpt lat="41.2877860" lon="-8.6049250">
        <ele>111.2</ele>
        <time>2021-03-20T11:46:14Z</time>
      </trkpt>
      <trkpt lat="41.2878110" lon="-8.6049500">
        <ele>111.4</ele>
        <time>2021-03-20T11:46:15Z</time>
      </trkpt>
      <trkpt lat="41.2878220" lon="-8.6049950">
        <ele>111.6</ele>
        <time>2021-03-20T11:46:16Z</time>
      </trkpt>
      <trkpt lat="41.2878370" lon="-8.6050240">
        <ele>111.8</ele>
        <time>2021-03-20T11:46:17Z</time>
      </trkpt>
      <trkpt lat="41.2878590" lon="-8.6050640">
        <ele>112.0</ele>
        <time>2021-03-20T11:46:18Z</time>
      </trkpt>
      <trkpt lat="41.2878760" lon="-8.6051030">
        <ele>112.2</ele>
        <time>2021-03-20T11:46:19Z</time>
      </trkpt>
      <trkpt lat="41.2878980" lon="-8.6051440">
        <ele>112.4</ele>
        <time>2021-03-20T11:46:20Z</time>
      </trkpt>
      <trkpt lat="41.2879140" lon="-8.6051680">
        <ele>112.8</ele>
        <time>2021-03-20T11:46:21Z</time>
      </trkpt>
      <trkpt lat="41.2879470" lon="-8.6052110">
        <ele>112.8</ele>
        <time>2021-03-20T11:46:22Z</time>
      </trkpt>
      <trkpt lat="41.2879700" lon="-8.6052410">
        <ele>112.8</ele>
        <time>2021-03-20T11:46:23Z</time>
      </trkpt>
      <trkpt lat="41.2879890" lon="-8.6052760">
        <ele>113.2</ele>
        <time>2021-03-20T11:46:24Z</time>
      </trkpt>
      <trkpt lat="41.2880020" lon="-8.6053110">
        <ele>113.2</ele>
        <time>2021-03-20T11:46:25Z</time>
      </trkpt>
      <trkpt lat="41.2880160" lon="-8.6053370">
        <ele>113.4</ele>
        <time>2021-03-20T11:46:26Z</time>
      </trkpt>
      <trkpt lat="41.2880330" lon="-8.6053710">
        <ele>113.8</ele>
        <time>2021-03-20T11:46:27Z</time>
      </trkpt>
      <trkpt lat="41.2880580" lon="-8.6054080">
        <ele>114.0</ele>
        <time>2021-03-20T11:46:28Z</time>
      </trkpt>
      <trkpt lat="41.2880900" lon="-8.6054370">
        <ele>114.2</ele>
        <time>2021-03-20T11:46:29Z</time>
      </trkpt>
      <trkpt lat="41.2881070" lon="-8.6054580">
        <ele>114.2</ele>
        <time>2021-03-20T11:46:30Z</time>
      </trkpt>
      <trkpt lat="41.2881270" lon="-8.6054900">
        <ele>114.6</ele>
        <time>2021-03-20T11:46:31Z</time>
      </trkpt>
      <trkpt lat="41.2881500" lon="-8.6055310">
        <ele>114.8</ele>
        <time>2021-03-20T11:46:32Z</time>
      </trkpt>
      <trkpt lat="41.2881860" lon="-8.6055790">
        <ele>114.8</ele>
        <time>2021-03-20T11:46:33Z</time>
      </trkpt>
      <trkpt lat="41.2882090" lon="-8.6056140">
        <ele>115.0</ele>
        <time>2021-03-20T11:46:34Z</time>
      </trkpt>
      <trkpt lat="41.2882420" lon="-8.6056660">
        <ele>115.2</ele>
        <time>2021-03-20T11:46:35Z</time>
      </trkpt>
      <trkpt lat="41.2882550" lon="-8.6057080">
        <ele>115.4</ele>
        <time>2021-03-20T11:46:36Z</time>
      </trkpt>
      <trkpt lat="41.2882640" lon="-8.6057510">
        <ele>115.6</ele>
        <time>2021-03-20T11:46:37Z</time>
      </trkpt>
      <trkpt lat="41.2882890" lon="-8.6057970">
        <ele>115.8</ele>
        <time>2021-03-20T11:46:38Z</time>
      </trkpt>
      <trkpt lat="41.2883160" lon="-8.6058400">
        <ele>116.0</ele>
        <time>2021-03-20T11:46:39Z</time>
      </trkpt>
      <trkpt lat="41.2883270" lon="-8.6058700">
        <ele>116.2</ele>
        <time>2021-03-20T11:46:40Z</time>
      </trkpt>
      <trkpt lat="41.2883430" lon="-8.6059030">
        <ele>116.2</ele>
        <time>2021-03-20T11:46:41Z</time>
      </trkpt>
      <trkpt lat="41.2883670" lon="-8.6059460">
        <ele>116.4</ele>
        <time>2021-03-20T11:46:42Z</time>
      </trkpt>
      <trkpt lat="41.2883920" lon="-8.6059810">
        <ele>116.8</ele>
        <time>2021-03-20T11:46:43Z</time>
      </trkpt>
      <trkpt lat="41.2884000" lon="-8.6060230">
        <ele>116.8</ele>
        <time>2021-03-20T11:46:44Z</time>
      </trkpt>
      <trkpt lat="41.2884500" lon="-8.6060570">
        <ele>117.0</ele>
        <time>2021-03-20T11:46:45Z</time>
      </trkpt>
      <trkpt lat="41.2884530" lon="-8.6061020">
        <ele>117.2</ele>
        <time>2021-03-20T11:46:46Z</time>
      </trkpt>
      <trkpt lat="41.2884810" lon="-8.6061360">
        <ele>117.4</ele>
        <time>2021-03-20T11:46:47Z</time>
      </trkpt>
      <trkpt lat="41.2884990" lon="-8.6061680">
        <ele>117.4</ele>
        <time>2021-03-20T11:46:48Z</time>
      </trkpt>
      <trkpt lat="41.2885080" lon="-8.6062020">
        <ele>117.6</ele>
        <time>2021-03-20T11:46:49Z</time>
      </trkpt>
      <trkpt lat="41.2885280" lon="-8.6062430">
        <ele>117.8</ele>
        <time>2021-03-20T11:46:50Z</time>
      </trkpt>
      <trkpt lat="41.2885490" lon="-8.6062810">
        <ele>118.0</ele>
        <time>2021-03-20T11:46:51Z</time>
      </trkpt>
      <trkpt lat="41.2885860" lon="-8.6063180">
        <ele>118.2</ele>
        <time>2021-03-20T11:46:52Z</time>
      </trkpt>
      <trkpt lat="41.2886070" lon="-8.6063380">
        <ele>118.4</ele>
        <time>2021-03-20T11:46:53Z</time>
      </trkpt>
      <trkpt lat="41.2886180" lon="-8.6063740">
        <ele>118.6</ele>
        <time>2021-03-20T11:46:54Z</time>
      </trkpt>
      <trkpt lat="41.2886420" lon="-8.6064030">
        <ele>118.8</ele>
        <time>2021-03-20T11:46:55Z</time>
      </trkpt>
      <trkpt lat="41.2887140" lon="-8.6064660">
        <ele>119.2</ele>
        <time>2021-03-20T11:46:56Z</time>
      </trkpt>
      <trkpt lat="41.2887180" lon="-8.6064900">
        <ele>119.4</ele>
        <time>2021-03-20T11:46:57Z</time>
      </trkpt>
      <trkpt lat="41.2887650" lon="-8.6065400">
        <ele>119.4</ele>
        <time>2021-03-20T11:46:58Z</time>
      </trkpt>
      <trkpt lat="41.2887900" lon="-8.6066920">
        <ele>119.6</ele>
        <time>2021-03-20T11:46:59Z</time>
      </trkpt>
      <trkpt lat="41.2888020" lon="-8.6068070">
        <ele>120.0</ele>
        <time>2021-03-20T11:47:00Z</time>
      </trkpt>
      <trkpt lat="41.2887880" lon="-8.6068370">
        <ele>120.0</ele>
        <time>2021-03-20T11:47:01Z</time>
      </trkpt>
      <trkpt lat="41.2888180" lon="-8.6069040">
        <ele>120.2</ele>
        <time>2021-03-20T11:47:02Z</time>
      </trkpt>
      <trkpt lat="41.2888050" lon="-8.6069220">
        <ele>120.2</ele>
        <time>2021-03-20T11:47:03Z</time>
      </trkpt>
      <trkpt lat="41.2888600" lon="-8.6069530">
        <ele>120.2</ele>
        <time>2021-03-20T11:47:04Z</time>
      </trkpt>
      <trkpt lat="41.2888570" lon="-8.6069690">
        <ele>120.4</ele>
        <time>2021-03-20T11:47:05Z</time>
      </trkpt>
      <trkpt lat="41.2888910" lon="-8.6070560">
        <ele>120.8</ele>
        <time>2021-03-20T11:47:06Z</time>
      </trkpt>
      <trkpt lat="41.2888730" lon="-8.6070510">
        <ele>120.8</ele>
        <time>2021-03-20T11:47:07Z</time>
      </trkpt>
      <trkpt lat="41.2889270" lon="-8.6070720">
        <ele>121.0</ele>
        <time>2021-03-20T11:47:08Z</time>
      </trkpt>
      <trkpt lat="41.2889310" lon="-8.6071320">
        <ele>121.4</ele>
        <time>2021-03-20T11:47:09Z</time>
      </trkpt>
      <trkpt lat="41.2890120" lon="-8.6071620">
        <ele>121.6</ele>
        <time>2021-03-20T11:47:10Z</time>
      </trkpt>
      <trkpt lat="41.2890240" lon="-8.6072050">
        <ele>121.6</ele>
        <time>2021-03-20T11:47:11Z</time>
      </trkpt>
      <trkpt lat="41.2890480" lon="-8.6072350">
        <ele>121.8</ele>
        <time>2021-03-20T11:47:12Z</time>
      </trkpt>
      <trkpt lat="41.2890690" lon="-8.6072450">
        <ele>122.0</ele>
        <time>2021-03-20T11:47:13Z</time>
      </trkpt>
      <trkpt lat="41.2890830" lon="-8.6072840">
        <ele>122.0</ele>
        <time>2021-03-20T11:47:14Z</time>
      </trkpt>
      <trkpt lat="41.2890930" lon="-8.6072910">
        <ele>122.0</ele>
        <time>2021-03-20T11:47:15Z</time>
      </trkpt>
      <trkpt lat="41.2891580" lon="-8.6073140">
        <ele>122.2</ele>
        <time>2021-03-20T11:47:16Z</time>
      </trkpt>
      <trkpt lat="41.2892180" lon="-8.6073380">
        <ele>122.2</ele>
        <time>2021-03-20T11:47:17Z</time>
      </trkpt>
      <trkpt lat="41.2892360" lon="-8.6073720">
        <ele>122.2</ele>
        <time>2021-03-20T11:47:18Z</time>
      </trkpt>
      <trkpt lat="41.2892960" lon="-8.6074470">
        <ele>122.4</ele>
        <time>2021-03-20T11:47:19Z</time>
      </trkpt>
      <trkpt lat="41.2893250" lon="-8.6074450">
        <ele>122.6</ele>
        <time>2021-03-20T11:47:20Z</time>
      </trkpt>
      <trkpt lat="41.2893760" lon="-8.6074970">
        <ele>122.8</ele>
        <time>2021-03-20T11:47:21Z</time>
      </trkpt>
      <trkpt lat="41.2894220" lon="-8.6075390">
        <ele>122.8</ele>
        <time>2021-03-20T11:47:22Z</time>
      </trkpt>
      <trkpt lat="41.2894590" lon="-8.6075920">
        <ele>123.0</ele>
        <time>2021-03-20T11:47:23Z</time>
      </trkpt>
      <trkpt lat="41.2894860" lon="-8.6076120">
        <ele>123.2</ele>
        <time>2021-03-20T11:47:24Z</time>
      </trkpt>
      <trkpt lat="41.2895150" lon="-8.6076260">
        <ele>123.4</ele>
        <time>2021-03-20T11:47:25Z</time>
      </trkpt>
      <trkpt lat="41.2895200" lon="-8.6076160">
        <ele>123.4</ele>
        <time>2021-03-20T11:47:26Z</time>
      </trkpt>
      <trkpt lat="41.2895330" lon="-8.6076330">
        <ele>123.6</ele>
        <time>2021-03-20T11:47:27Z</time>
      </trkpt>
      <trkpt lat="41.2895520" lon="-8.6076470">
        <ele>124.0</ele>
        <time>2021-03-20T11:47:28Z</time>
      </trkpt>
      <trkpt lat="41.2895610" lon="-8.6077120">
        <ele>124.2</ele>
        <time>2021-03-20T11:47:29Z</time>
      </trkpt>
      <trkpt lat="41.2896050" lon="-8.6077400">
        <ele>124.2</ele>
        <time>2021-03-20T11:47:30Z</time>
      </trkpt>
      <trkpt lat="41.2896610" lon="-8.6077950">
        <ele>124.4</ele>
        <time>2021-03-20T11:47:31Z</time>
      </trkpt>
      <trkpt lat="41.2897060" lon="-8.6078320">
        <ele>124.4</ele>
        <time>2021-03-20T11:47:32Z</time>
      </trkpt>
      <trkpt lat="41.2897310" lon="-8.6078420">
        <ele>124.4</ele>
        <time>2021-03-20T11:47:33Z</time>
      </trkpt>
      <trkpt lat="41.2897620" lon="-8.6078410">
        <ele>124.6</ele>
        <time>2021-03-20T11:47:34Z</time>
      </trkpt>
      <trkpt lat="41.2898170" lon="-8.6078890">
        <ele>124.6</ele>
        <time>2021-03-20T11:47:35Z</time>
      </trkpt>
      <trkpt lat="41.2898770" lon="-8.6079650">
        <ele>124.8</ele>
        <time>2021-03-20T11:47:36Z</time>
      </trkpt>
      <trkpt lat="41.2897870" lon="-8.6079640">
        <ele>125.0</ele>
        <time>2021-03-20T11:47:37Z</time>
      </trkpt>
      <trkpt lat="41.2898690" lon="-8.6080020">
        <ele>125.0</ele>
        <time>2021-03-20T11:47:38Z</time>
      </trkpt>
      <trkpt lat="41.2898980" lon="-8.6080240">
        <ele>125.2</ele>
        <time>2021-03-20T11:47:39Z</time>
      </trkpt>
      <trkpt lat="41.2898910" lon="-8.6080530">
        <ele>125.4</ele>
        <time>2021-03-20T11:47:40Z</time>
      </trkpt>
      <trkpt lat="41.2899150" lon="-8.6080970">
        <ele>125.6</ele>
        <time>2021-03-20T11:47:41Z</time>
      </trkpt>
      <trkpt lat="41.2899340" lon="-8.6081600">
        <ele>125.6</ele>
        <time>2021-03-20T11:47:42Z</time>
      </trkpt>
      <trkpt lat="41.2899660" lon="-8.6081720">
        <ele>125.8</ele>
        <time>2021-03-20T11:47:43Z</time>
      </trkpt>
      <trkpt lat="41.2900070" lon="-8.6082550">
        <ele>125.8</ele>
        <time>2021-03-20T11:47:44Z</time>
      </trkpt>
      <trkpt lat="41.2899640" lon="-8.6082740">
        <ele>125.8</ele>
        <time>2021-03-20T11:47:45Z</time>
      </trkpt>
      <trkpt lat="41.2899910" lon="-8.6083360">
        <ele>126.0</ele>
        <time>2021-03-20T11:47:46Z</time>
      </trkpt>
      <trkpt lat="41.2900580" lon="-8.6084200">
        <ele>126.2</ele>
        <time>2021-03-20T11:47:47Z</time>
      </trkpt>
      <trkpt lat="41.2900680" lon="-8.6084740">
        <ele>126.4</ele>
        <time>2021-03-20T11:47:48Z</time>
      </trkpt>
      <trkpt lat="41.2900170" lon="-8.6085460">
        <ele>126.4</ele>
        <time>2021-03-20T11:47:49Z</time>
      </trkpt>
      <trkpt lat="41.2900740" lon="-8.6085470">
        <ele>126.2</ele>
        <time>2021-03-20T11:47:50Z</time>
      </trkpt>
      <trkpt lat="41.2900350" lon="-8.6085590">
        <ele>126.4</ele>
        <time>2021-03-20T11:47:51Z</time>
      </trkpt>
      <trkpt lat="41.2900120" lon="-8.6086630">
        <ele>126.4</ele>
        <time>2021-03-20T11:47:52Z</time>
      </trkpt>
      <trkpt lat="41.2900730" lon="-8.6086990">
        <ele>126.4</ele>
        <time>2021-03-20T11:47:53Z</time>
      </trkpt>
      <trkpt lat="41.2900760" lon="-8.6087120">
        <ele>126.2</ele>
        <time>2021-03-20T11:47:54Z</time>
      </trkpt>
      <trkpt lat="41.2900830" lon="-8.6087250">
        <ele>126.2</ele>
        <time>2021-03-20T11:47:55Z</time>
      </trkpt>
      <trkpt lat="41.2900650" lon="-8.6088980">
        <ele>126.4</ele>
        <time>2021-03-20T11:47:56Z</time>
      </trkpt>
      <trkpt lat="41.2900640" lon="-8.6088800">
        <ele>126.8</ele>
        <time>2021-03-20T11:47:57Z</time>
      </trkpt>
      <trkpt lat="41.2901000" lon="-8.6089880">
        <ele>126.8</ele>
        <time>2021-03-20T11:47:58Z</time>
      </trkpt>
      <trkpt lat="41.2901140" lon="-8.6089270">
        <ele>127.2</ele>
        <time>2021-03-20T11:47:59Z</time>
      </trkpt>
      <trkpt lat="41.2901560" lon="-8.6090400">
        <ele>127.2</ele>
        <time>2021-03-20T11:48:00Z</time>
      </trkpt>
      <trkpt lat="41.2901400" lon="-8.6090410">
        <ele>127.4</ele>
        <time>2021-03-20T11:48:01Z</time>
      </trkpt>
      <trkpt lat="41.2901620" lon="-8.6090790">
        <ele>127.6</ele>
        <time>2021-03-20T11:48:02Z</time>
      </trkpt>
      <trkpt lat="41.2901550" lon="-8.6091530">
        <ele>127.6</ele>
        <time>2021-03-20T11:48:03Z</time>
      </trkpt>
      <trkpt lat="41.2901680" lon="-8.6090730">
        <ele>127.6</ele>
        <time>2021-03-20T11:48:04Z</time>
      </trkpt>
      <trkpt lat="41.2901530" lon="-8.6092590">
        <ele>127.8</ele>
        <time>2021-03-20T11:48:05Z</time>
      </trkpt>
      <trkpt lat="41.2902020" lon="-8.6092770">
        <ele>128.2</ele>
        <time>2021-03-20T11:48:06Z</time>
      </trkpt>
      <trkpt lat="41.2902850" lon="-8.6092960">
        <ele>128.4</ele>
        <time>2021-03-20T11:48:07Z</time>
      </trkpt>
      <trkpt lat="41.2903140" lon="-8.6093410">
        <ele>128.6</ele>
        <time>2021-03-20T11:48:08Z</time>
      </trkpt>
      <trkpt lat="41.2903770" lon="-8.6094100">
        <ele>128.6</ele>
        <time>2021-03-20T11:48:09Z</time>
      </trkpt>
      <trkpt lat="41.2903970" lon="-8.6094480">
        <ele>128.8</ele>
        <time>2021-03-20T11:48:10Z</time>
      </trkpt>
      <trkpt lat="41.2904110" lon="-8.6094810">
        <ele>128.8</ele>
        <time>2021-03-20T11:48:11Z</time>
      </trkpt>
      <trkpt lat="41.2904320" lon="-8.6095600">
        <ele>128.6</ele>
        <time>2021-03-20T11:48:12Z</time>
      </trkpt>
      <trkpt lat="41.2904540" lon="-8.6096170">
        <ele>128.6</ele>
        <time>2021-03-20T11:48:13Z</time>
      </trkpt>
      <trkpt lat="41.2904810" lon="-8.6096390">
        <ele>128.8</ele>
        <time>2021-03-20T11:48:14Z</time>
      </trkpt>
      <trkpt lat="41.2904420" lon="-8.6097670">
        <ele>129.0</ele>
        <time>2021-03-20T11:48:15Z</time>
      </trkpt>
      <trkpt lat="41.2904440" lon="-8.6098570">
        <ele>129.2</ele>
        <time>2021-03-20T11:48:16Z</time>
      </trkpt>
      <trkpt lat="41.2905060" lon="-8.6098850">
        <ele>129.2</ele>
        <time>2021-03-20T11:48:17Z</time>
      </trkpt>
      <trkpt lat="41.2905130" lon="-8.6100070">
        <ele>129.4</ele>
        <time>2021-03-20T11:48:18Z</time>
      </trkpt>
      <trkpt lat="41.2905720" lon="-8.6100270">
        <ele>129.4</ele>
        <time>2021-03-20T11:48:19Z</time>
      </trkpt>
      <trkpt lat="41.2906010" lon="-8.6100730">
        <ele>129.4</ele>
        <time>2021-03-20T11:48:20Z</time>
      </trkpt>
      <trkpt lat="41.2906110" lon="-8.6100930">
        <ele>129.6</ele>
        <time>2021-03-20T11:48:21Z</time>
      </trkpt>
      <trkpt lat="41.2907030" lon="-8.6101500">
        <ele>129.8</ele>
        <time>2021-03-20T11:48:22Z</time>
      </trkpt>
      <trkpt lat="41.2907120" lon="-8.6102050">
        <ele>129.8</ele>
        <time>2021-03-20T11:48:23Z</time>
      </trkpt>
      <trkpt lat="41.2907300" lon="-8.6102600">
        <ele>130.0</ele>
        <time>2021-03-20T11:48:24Z</time>
      </trkpt>
      <trkpt lat="41.2907340" lon="-8.6102940">
        <ele>130.2</ele>
        <time>2021-03-20T11:48:25Z</time>
      </trkpt>
      <trkpt lat="41.2908090" lon="-8.6103460">
        <ele>130.4</ele>
        <time>2021-03-20T11:48:26Z</time>
      </trkpt>
      <trkpt lat="41.2908220" lon="-8.6104010">
        <ele>130.4</ele>
        <time>2021-03-20T11:48:27Z</time>
      </trkpt>
      <trkpt lat="41.2908300" lon="-8.6104550">
        <ele>130.6</ele>
        <time>2021-03-20T11:48:28Z</time>
      </trkpt>
      <trkpt lat="41.2908600" lon="-8.6105260">
        <ele>130.8</ele>
        <time>2021-03-20T11:48:29Z</time>
      </trkpt>
      <trkpt lat="41.2908790" lon="-8.6105960">
        <ele>131.0</ele>
        <time>2021-03-20T11:48:30Z</time>
      </trkpt>
      <trkpt lat="41.2909040" lon="-8.6106450">
        <ele>131.2</ele>
        <time>2021-03-20T11:48:31Z</time>
      </trkpt>
      <trkpt lat="41.2909060" lon="-8.6107050">
        <ele>131.4</ele>
        <time>2021-03-20T11:48:32Z</time>
      </trkpt>
      <trkpt lat="41.2909480" lon="-8.6107660">
        <ele>131.6</ele>
        <time>2021-03-20T11:48:33Z</time>
      </trkpt>
      <trkpt lat="41.2909740" lon="-8.6108220">
        <ele>131.8</ele>
        <time>2021-03-20T11:48:34Z</time>
      </trkpt>
      <trkpt lat="41.2909520" lon="-8.6108770">
        <ele>132.0</ele>
        <time>2021-03-20T11:48:35Z</time>
      </trkpt>
      <trkpt lat="41.2910130" lon="-8.6109380">
        <ele>132.0</ele>
        <time>2021-03-20T11:48:36Z</time>
      </trkpt>
      <trkpt lat="41.2910370" lon="-8.6109930">
        <ele>132.4</ele>
        <time>2021-03-20T11:48:37Z</time>
      </trkpt>
      <trkpt lat="41.2910660" lon="-8.6110460">
        <ele>132.6</ele>
        <time>2021-03-20T11:48:38Z</time>
      </trkpt>
      <trkpt lat="41.2911220" lon="-8.6110980">
        <ele>132.8</ele>
        <time>2021-03-20T11:48:39Z</time>
      </trkpt>
      <trkpt lat="41.2911220" lon="-8.6111580">
        <ele>132.8</ele>
        <time>2021-03-20T11:48:40Z</time>
      </trkpt>
      <trkpt lat="41.2911680" lon="-8.6112120">
        <ele>132.8</ele>
        <time>2021-03-20T11:48:41Z</time>
      </trkpt>
      <trkpt lat="41.2911730" lon="-8.6112700">
        <ele>132.8</ele>
        <time>2021-03-20T11:48:42Z</time>
      </trkpt>
      <trkpt lat="41.2911660" lon="-8.6113350">
        <ele>133.0</ele>
        <time>2021-03-20T11:48:43Z</time>
      </trkpt>
      <trkpt lat="41.2912080" lon="-8.6114020">
        <ele>133.0</ele>
        <time>2021-03-20T11:48:44Z</time>
      </trkpt>
      <trkpt lat="41.2912620" lon="-8.6114560">
        <ele>133.4</ele>
        <time>2021-03-20T11:48:45Z</time>
      </trkpt>
      <trkpt lat="41.2912390" lon="-8.6115110">
        <ele>133.4</ele>
        <time>2021-03-20T11:48:46Z</time>
      </trkpt>
      <trkpt lat="41.2912930" lon="-8.6115430">
        <ele>133.4</ele>
        <time>2021-03-20T11:48:47Z</time>
      </trkpt>
      <trkpt lat="41.2913180" lon="-8.6115950">
        <ele>133.4</ele>
        <time>2021-03-20T11:48:48Z</time>
      </trkpt>
      <trkpt lat="41.2913290" lon="-8.6116680">
        <ele>133.6</ele>
        <time>2021-03-20T11:48:49Z</time>
      </trkpt>
      <trkpt lat="41.2913670" lon="-8.6117300">
        <ele>133.8</ele>
        <time>2021-03-20T11:48:50Z</time>
      </trkpt>
      <trkpt lat="41.2914060" lon="-8.6117880">
        <ele>134.0</ele>
        <time>2021-03-20T11:48:51Z</time>
      </trkpt>
      <trkpt lat="41.2914270" lon="-8.6118460">
        <ele>134.2</ele>
        <time>2021-03-20T11:48:52Z</time>
      </trkpt>
      <trkpt lat="41.2914360" lon="-8.6119070">
        <ele>134.2</ele>
        <time>2021-03-20T11:48:53Z</time>
      </trkpt>
      <trkpt lat="41.2914460" lon="-8.6119720">
        <ele>134.4</ele>
        <time>2021-03-20T11:48:54Z</time>
      </trkpt>
      <trkpt lat="41.2915070" lon="-8.6120300">
        <ele>134.6</ele>
        <time>2021-03-20T11:48:55Z</time>
      </trkpt>
      <trkpt lat="41.2915270" lon="-8.6120860">
        <ele>134.6</ele>
        <time>2021-03-20T11:48:56Z</time>
      </trkpt>
      <trkpt lat="41.2915290" lon="-8.6121420">
        <ele>135.0</ele>
        <time>2021-03-20T11:48:57Z</time>
      </trkpt>
      <trkpt lat="41.2915640" lon="-8.6122050">
        <ele>135.0</ele>
        <time>2021-03-20T11:48:58Z</time>
      </trkpt>
      <trkpt lat="41.2915580" lon="-8.6122650">
        <ele>135.2</ele>
        <time>2021-03-20T11:48:59Z</time>
      </trkpt>
      <trkpt lat="41.2916110" lon="-8.6123190">
        <ele>135.2</ele>
        <time>2021-03-20T11:49:00Z</time>
      </trkpt>
      <trkpt lat="41.2916440" lon="-8.6123830">
        <ele>135.2</ele>
        <time>2021-03-20T11:49:01Z</time>
      </trkpt>
      <trkpt lat="41.2917080" lon="-8.6124150">
        <ele>135.2</ele>
        <time>2021-03-20T11:49:02Z</time>
      </trkpt>
      <trkpt lat="41.2917270" lon="-8.6124580">
        <ele>135.4</ele>
        <time>2021-03-20T11:49:03Z</time>
      </trkpt>
      <trkpt lat="41.2917350" lon="-8.6124970">
        <ele>135.6</ele>
        <time>2021-03-20T11:49:04Z</time>
      </trkpt>
      <trkpt lat="41.2917740" lon="-8.6125510">
        <ele>135.8</ele>
        <time>2021-03-20T11:49:05Z</time>
      </trkpt>
      <trkpt lat="41.2917970" lon="-8.6126040">
        <ele>136.0</ele>
        <time>2021-03-20T11:49:06Z</time>
      </trkpt>
      <trkpt lat="41.2918230" lon="-8.6126610">
        <ele>136.2</ele>
        <time>2021-03-20T11:49:07Z</time>
      </trkpt>
      <trkpt lat="41.2918490" lon="-8.6127320">
        <ele>136.4</ele>
        <time>2021-03-20T11:49:08Z</time>
      </trkpt>
      <trkpt lat="41.2918770" lon="-8.6127960">
        <ele>136.4</ele>
        <time>2021-03-20T11:49:09Z</time>
      </trkpt>
      <trkpt lat="41.2918980" lon="-8.6128670">
        <ele>136.8</ele>
        <time>2021-03-20T11:49:10Z</time>
      </trkpt>
      <trkpt lat="41.2919240" lon="-8.6129270">
        <ele>136.8</ele>
        <time>2021-03-20T11:49:11Z</time>
      </trkpt>
      <trkpt lat="41.2919540" lon="-8.6129920">
        <ele>137.0</ele>
        <time>2021-03-20T11:49:12Z</time>
      </trkpt>
      <trkpt lat="41.2919800" lon="-8.6130540">
        <ele>137.0</ele>
        <time>2021-03-20T11:49:13Z</time>
      </trkpt>
      <trkpt lat="41.2920090" lon="-8.6131100">
        <ele>137.2</ele>
        <time>2021-03-20T11:49:14Z</time>
      </trkpt>
      <trkpt lat="41.2920380" lon="-8.6131690">
        <ele>137.2</ele>
        <time>2021-03-20T11:49:15Z</time>
      </trkpt>
      <trkpt lat="41.2920710" lon="-8.6132250">
        <ele>137.4</ele>
        <time>2021-03-20T11:49:16Z</time>
      </trkpt>
      <trkpt lat="41.2921000" lon="-8.6132780">
        <ele>137.6</ele>
        <time>2021-03-20T11:49:17Z</time>
      </trkpt>
      <trkpt lat="41.2921350" lon="-8.6133540">
        <ele>137.8</ele>
        <time>2021-03-20T11:49:18Z</time>
      </trkpt>
      <trkpt lat="41.2921540" lon="-8.6133990">
        <ele>137.8</ele>
        <time>2021-03-20T11:49:19Z</time>
      </trkpt>
      <trkpt lat="41.2921880" lon="-8.6134520">
        <ele>138.0</ele>
        <time>2021-03-20T11:49:20Z</time>
      </trkpt>
      <trkpt lat="41.2922160" lon="-8.6135110">
        <ele>138.0</ele>
        <time>2021-03-20T11:49:21Z</time>
      </trkpt>
      <trkpt lat="41.2922440" lon="-8.6135720">
        <ele>138.0</ele>
        <time>2021-03-20T11:49:22Z</time>
      </trkpt>
      <trkpt lat="41.2922680" lon="-8.6136380">
        <ele>138.2</ele>
        <time>2021-03-20T11:49:23Z</time>
      </trkpt>
      <trkpt lat="41.2922920" lon="-8.6137000">
        <ele>138.2</ele>
        <time>2021-03-20T11:49:24Z</time>
      </trkpt>
      <trkpt lat="41.2923210" lon="-8.6137620">
        <ele>138.6</ele>
        <time>2021-03-20T11:49:25Z</time>
      </trkpt>
      <trkpt lat="41.2923470" lon="-8.6138210">
        <ele>139.0</ele>
        <time>2021-03-20T11:49:26Z</time>
      </trkpt>
      <trkpt lat="41.2923680" lon="-8.6138850">
        <ele>139.2</ele>
        <time>2021-03-20T11:49:27Z</time>
      </trkpt>
      <trkpt lat="41.2923910" lon="-8.6139490">
        <ele>139.4</ele>
        <time>2021-03-20T11:49:28Z</time>
      </trkpt>
      <trkpt lat="41.2924140" lon="-8.6139930">
        <ele>139.8</ele>
        <time>2021-03-20T11:49:29Z</time>
      </trkpt>
      <trkpt lat="41.2924540" lon="-8.6140630">
        <ele>139.8</ele>
        <time>2021-03-20T11:49:30Z</time>
      </trkpt>
      <trkpt lat="41.2924800" lon="-8.6141170">
        <ele>140.0</ele>
        <time>2021-03-20T11:49:31Z</time>
      </trkpt>
      <trkpt lat="41.2925060" lon="-8.6141800">
        <ele>140.4</ele>
        <time>2021-03-20T11:49:32Z</time>
      </trkpt>
      <trkpt lat="41.2925350" lon="-8.6142340">
        <ele>140.6</ele>
        <time>2021-03-20T11:49:33Z</time>
      </trkpt>
      <trkpt lat="41.2925610" lon="-8.6142850">
        <ele>141.0</ele>
        <time>2021-03-20T11:49:34Z</time>
      </trkpt>
      <trkpt lat="41.2925870" lon="-8.6143410">
        <ele>141.4</ele>
        <time>2021-03-20T11:49:35Z</time>
      </trkpt>
      <trkpt lat="41.2926030" lon="-8.6143840">
        <ele>141.8</ele>
        <time>2021-03-20T11:49:36Z</time>
      </trkpt>
      <trkpt lat="41.2926370" lon="-8.6144380">
        <ele>141.8</ele>
        <time>2021-03-20T11:49:37Z</time>
      </trkpt>
      <trkpt lat="41.2926520" lon="-8.6144810">
        <ele>142.2</ele>
        <time>2021-03-20T11:49:38Z</time>
      </trkpt>
      <trkpt lat="41.2927200" lon="-8.6145210">
        <ele>142.4</ele>
        <time>2021-03-20T11:49:39Z</time>
      </trkpt>
      <trkpt lat="41.2927170" lon="-8.6145670">
        <ele>142.6</ele>
        <time>2021-03-20T11:49:40Z</time>
      </trkpt>
      <trkpt lat="41.2927400" lon="-8.6146050">
        <ele>142.8</ele>
        <time>2021-03-20T11:49:41Z</time>
      </trkpt>
      <trkpt lat="41.2927790" lon="-8.6146510">
        <ele>143.0</ele>
        <time>2021-03-20T11:49:42Z</time>
      </trkpt>
      <trkpt lat="41.2927810" lon="-8.6146920">
        <ele>143.2</ele>
        <time>2021-03-20T11:49:43Z</time>
      </trkpt>
      <trkpt lat="41.2928360" lon="-8.6147490">
        <ele>143.2</ele>
        <time>2021-03-20T11:49:44Z</time>
      </trkpt>
      <trkpt lat="41.2928510" lon="-8.6147770">
        <ele>143.2</ele>
        <time>2021-03-20T11:49:45Z</time>
      </trkpt>
      <trkpt lat="41.2928670" lon="-8.6148190">
        <ele>143.6</ele>
        <time>2021-03-20T11:49:46Z</time>
      </trkpt>
      <trkpt lat="41.2928980" lon="-8.6148520">
        <ele>144.0</ele>
        <time>2021-03-20T11:49:47Z</time>
      </trkpt>
      <trkpt lat="41.2929300" lon="-8.6148950">
        <ele>144.2</ele>
        <time>2021-03-20T11:49:48Z</time>
      </trkpt>
      <trkpt lat="41.2929400" lon="-8.6149280">
        <ele>144.4</ele>
        <time>2021-03-20T11:49:49Z</time>
      </trkpt>
      <trkpt lat="41.2929470" lon="-8.6149630">
        <ele>144.8</ele>
        <time>2021-03-20T11:49:50Z</time>
      </trkpt>
      <trkpt lat="41.2929640" lon="-8.6149980">
        <ele>144.8</ele>
        <time>2021-03-20T11:49:51Z</time>
      </trkpt>
      <trkpt lat="41.2929900" lon="-8.6150110">
        <ele>145.0</ele>
        <time>2021-03-20T11:49:52Z</time>
      </trkpt>
      <trkpt lat="41.2929900" lon="-8.6150300">
        <ele>145.0</ele>
        <time>2021-03-20T11:49:53Z</time>
      </trkpt>
      <trkpt lat="41.2929990" lon="-8.6150780">
        <ele>145.2</ele>
        <time>2021-03-20T11:49:54Z</time>
      </trkpt>
      <trkpt lat="41.2930200" lon="-8.6151100">
        <ele>145.6</ele>
        <time>2021-03-20T11:49:55Z</time>
      </trkpt>
      <trkpt lat="41.2930490" lon="-8.6151750">
        <ele>145.8</ele>
        <time>2021-03-20T11:49:56Z</time>
      </trkpt>
      <trkpt lat="41.2930800" lon="-8.6151950">
        <ele>145.8</ele>
        <time>2021-03-20T11:49:57Z</time>
      </trkpt>
      <trkpt lat="41.2930960" lon="-8.6152010">
        <ele>146.0</ele>
        <time>2021-03-20T11:49:58Z</time>
      </trkpt>
      <trkpt lat="41.2931020" lon="-8.6153020">
        <ele>146.2</ele>
        <time>2021-03-20T11:49:59Z</time>
      </trkpt>
      <trkpt lat="41.2931030" lon="-8.6153400">
        <ele>146.4</ele>
        <time>2021-03-20T11:50:00Z</time>
      </trkpt>
      <trkpt lat="41.2931370" lon="-8.6153500">
        <ele>146.6</ele>
        <time>2021-03-20T11:50:01Z</time>
      </trkpt>
      <trkpt lat="41.2931290" lon="-8.6153870">
        <ele>147.0</ele>
        <time>2021-03-20T11:50:02Z</time>
      </trkpt>
      <trkpt lat="41.2931470" lon="-8.6154130">
        <ele>147.0</ele>
        <time>2021-03-20T11:50:03Z</time>
      </trkpt>
      <trkpt lat="41.2931640" lon="-8.6154510">
        <ele>147.2</ele>
        <time>2021-03-20T11:50:04Z</time>
      </trkpt>
      <trkpt lat="41.2931740" lon="-8.6154540">
        <ele>147.6</ele>
        <time>2021-03-20T11:50:05Z</time>
      </trkpt>
      <trkpt lat="41.2932190" lon="-8.6155130">
        <ele>147.8</ele>
        <time>2021-03-20T11:50:06Z</time>
      </trkpt>
      <trkpt lat="41.2932340" lon="-8.6155330">
        <ele>148.0</ele>
        <time>2021-03-20T11:50:07Z</time>
      </trkpt>
      <trkpt lat="41.2932400" lon="-8.6155620">
        <ele>148.4</ele>
        <time>2021-03-20T11:50:08Z</time>
      </trkpt>
      <trkpt lat="41.2932910" lon="-8.6156080">
        <ele>148.6</ele>
        <time>2021-03-20T11:50:09Z</time>
      </trkpt>
      <trkpt lat="41.2933290" lon="-8.6157440">
        <ele>148.8</ele>
        <time>2021-03-20T11:50:10Z</time>
      </trkpt>
      <trkpt lat="41.2933000" lon="-8.6158350">
        <ele>149.0</ele>
        <time>2021-03-20T11:50:11Z</time>
      </trkpt>
      <trkpt lat="41.2932990" lon="-8.6158750">
        <ele>149.2</ele>
        <time>2021-03-20T11:50:12Z</time>
      </trkpt>
      <trkpt lat="41.2933400" lon="-8.6158830">
        <ele>149.4</ele>
        <time>2021-03-20T11:50:13Z</time>
      </trkpt>
      <trkpt lat="41.2933340" lon="-8.6158750">
        <ele>149.6</ele>
        <time>2021-03-20T11:50:14Z</time>
      </trkpt>
      <trkpt lat="41.2933840" lon="-8.6159310">
        <ele>149.8</ele>
        <time>2021-03-20T11:50:15Z</time>
      </trkpt>
      <trkpt lat="41.2934220" lon="-8.6159950">
        <ele>150.0</ele>
        <time>2021-03-20T11:50:16Z</time>
      </trkpt>
      <trkpt lat="41.2934360" lon="-8.6161120">
        <ele>150.0</ele>
        <time>2021-03-20T11:50:17Z</time>
      </trkpt>
      <trkpt lat="41.2934780" lon="-8.6160330">
        <ele>150.2</ele>
        <time>2021-03-20T11:50:18Z</time>
      </trkpt>
      <trkpt lat="41.2934700" lon="-8.6160980">
        <ele>150.4</ele>
        <time>2021-03-20T11:50:19Z</time>
      </trkpt>
      <trkpt lat="41.2934640" lon="-8.6161670">
        <ele>150.6</ele>
        <time>2021-03-20T11:50:20Z</time>
      </trkpt>
      <trkpt lat="41.2934600" lon="-8.6162040">
        <ele>150.8</ele>
        <time>2021-03-20T11:50:21Z</time>
      </trkpt>
      <trkpt lat="41.2934710" lon="-8.6162380">
        <ele>151.0</ele>
        <time>2021-03-20T11:50:22Z</time>
      </trkpt>
      <trkpt lat="41.2934680" lon="-8.6162180">
        <ele>151.2</ele>
        <time>2021-03-20T11:50:23Z</time>
      </trkpt>
      <trkpt lat="41.2934690" lon="-8.6161850">
        <ele>151.4</ele>
        <time>2021-03-20T11:50:24Z</time>
      </trkpt>
      <trkpt lat="41.2934810" lon="-8.6162450">
        <ele>151.6</ele>
        <time>2021-03-20T11:50:25Z</time>
      </trkpt>
      <trkpt lat="41.2934410" lon="-8.6163320">
        <ele>151.8</ele>
        <time>2021-03-20T11:50:26Z</time>
      </trkpt>
      <trkpt lat="41.2934710" lon="-8.6162750">
        <ele>152.0</ele>
        <time>2021-03-20T11:50:27Z</time>
      </trkpt>
      <trkpt lat="41.2935130" lon="-8.6162810">
        <ele>152.2</ele>
        <time>2021-03-20T11:50:28Z</time>
      </trkpt>
      <trkpt lat="41.2935230" lon="-8.6163040">
        <ele>152.4</ele>
        <time>2021-03-20T11:50:29Z</time>
      </trkpt>
      <trkpt lat="41.2935630" lon="-8.6163190">
        <ele>152.6</ele>
        <time>2021-03-20T11:50:30Z</time>
      </trkpt>
      <trkpt lat="41.2935720" lon="-8.6163410">
        <ele>152.8</ele>
        <time>2021-03-20T11:50:31Z</time>
      </trkpt>
      <trkpt lat="41.2935520" lon="-8.6164730">
        <ele>152.8</ele>
        <time>2021-03-20T11:50:32Z</time>
      </trkpt>
      <trkpt lat="41.2936170" lon="-8.6165040">
        <ele>153.0</ele>
        <time>2021-03-20T11:50:33Z</time>
      </trkpt>
      <trkpt lat="41.2935800" lon="-8.6165240">
        <ele>153.2</ele>
        <time>2021-03-20T11:50:34Z</time>
      </trkpt>
      <trkpt lat="41.2935710" lon="-8.6165720">
        <ele>153.4</ele>
        <time>2021-03-20T11:50:35Z</time>
      </trkpt>
      <trkpt lat="41.2935880" lon="-8.6166270">
        <ele>153.6</ele>
        <time>2021-03-20T11:50:36Z</time>
      </trkpt>
      <trkpt lat="41.2935810" lon="-8.6166760">
        <ele>153.8</ele>
        <time>2021-03-20T11:50:37Z</time>
      </trkpt>
      <trkpt lat="41.2935820" lon="-8.6167430">
        <ele>154.0</ele>
        <time>2021-03-20T11:50:38Z</time>
      </trkpt>
      <trkpt lat="41.2936160" lon="-8.6167950">
        <ele>154.2</ele>
        <time>2021-03-20T11:50:39Z</time>
      </trkpt>
      <trkpt lat="41.2936410" lon="-8.6167860">
        <ele>154.2</ele>
        <time>2021-03-20T11:50:40Z</time>
      </trkpt>
      <trkpt lat="41.2936570" lon="-8.6167690">
        <ele>154.4</ele>
        <time>2021-03-20T11:50:41Z</time>
      </trkpt>
      <trkpt lat="41.2936440" lon="-8.6168690">
        <ele>154.6</ele>
        <time>2021-03-20T11:50:42Z</time>
      </trkpt>
      <trkpt lat="41.2936670" lon="-8.6168660">
        <ele>154.8</ele>
        <time>2021-03-20T11:50:43Z</time>
      </trkpt>
      <trkpt lat="41.2937090" lon="-8.6169030">
        <ele>155.0</ele>
        <time>2021-03-20T11:50:44Z</time>
      </trkpt>
      <trkpt lat="41.2937290" lon="-8.6168280">
        <ele>155.2</ele>
        <time>2021-03-20T11:50:45Z</time>
      </trkpt>
      <trkpt lat="41.2937160" lon="-8.6169000">
        <ele>155.4</ele>
        <time>2021-03-20T11:50:46Z</time>
      </trkpt>
      <trkpt lat="41.2937310" lon="-8.6169710">
        <ele>155.6</ele>
        <time>2021-03-20T11:50:47Z</time>
      </trkpt>
      <trkpt lat="41.2937330" lon="-8.6169760">
        <ele>155.8</ele>
        <time>2021-03-20T11:50:48Z</time>
      </trkpt>
      <trkpt lat="41.2937290" lon="-8.6170730">
        <ele>155.8</ele>
        <time>2021-03-20T11:50:49Z</time>
      </trkpt>
      <trkpt lat="41.2937260" lon="-8.6171160">
        <ele>156.0</ele>
        <time>2021-03-20T11:50:50Z</time>
      </trkpt>
      <trkpt lat="41.2937490" lon="-8.6171730">
        <ele>156.4</ele>
        <time>2021-03-20T11:50:51Z</time>
      </trkpt>
      <trkpt lat="41.2937440" lon="-8.6172240">
        <ele>156.6</ele>
        <time>2021-03-20T11:50:52Z</time>
      </trkpt>
      <trkpt lat="41.2937470" lon="-8.6172630">
        <ele>156.6</ele>
        <time>2021-03-20T11:50:53Z</time>
      </trkpt>
      <trkpt lat="41.2937770" lon="-8.6173150">
        <ele>156.8</ele>
        <time>2021-03-20T11:50:54Z</time>
      </trkpt>
      <trkpt lat="41.2937820" lon="-8.6173240">
        <ele>157.0</ele>
        <time>2021-03-20T11:50:55Z</time>
      </trkpt>
      <trkpt lat="41.2938110" lon="-8.6173190">
        <ele>157.2</ele>
        <time>2021-03-20T11:50:56Z</time>
      </trkpt>
      <trkpt lat="41.2938130" lon="-8.6174010">
        <ele>157.4</ele>
        <time>2021-03-20T11:50:57Z</time>
      </trkpt>
      <trkpt lat="41.2938430" lon="-8.6173820">
        <ele>157.6</ele>
        <time>2021-03-20T11:50:58Z</time>
      </trkpt>
      <trkpt lat="41.2938600" lon="-8.6174440">
        <ele>157.8</ele>
        <time>2021-03-20T11:50:59Z</time>
      </trkpt>
      <trkpt lat="41.2938400" lon="-8.6175050">
        <ele>158.0</ele>
        <time>2021-03-20T11:51:00Z</time>
      </trkpt>
      <trkpt lat="41.2938510" lon="-8.6176270">
        <ele>158.0</ele>
        <time>2021-03-20T11:51:01Z</time>
      </trkpt>
      <trkpt lat="41.2939010" lon="-8.6176110">
        <ele>158.2</ele>
        <time>2021-03-20T11:51:02Z</time>
      </trkpt>
      <trkpt lat="41.2938920" lon="-8.6175730">
        <ele>158.4</ele>
        <time>2021-03-20T11:51:03Z</time>
      </trkpt>
      <trkpt lat="41.2939300" lon="-8.6176360">
        <ele>158.6</ele>
        <time>2021-03-20T11:51:04Z</time>
      </trkpt>
      <trkpt lat="41.2939260" lon="-8.6177090">
        <ele>158.8</ele>
        <time>2021-03-20T11:51:05Z</time>
      </trkpt>
      <trkpt lat="41.2938970" lon="-8.6177630">
        <ele>159.0</ele>
        <time>2021-03-20T11:51:06Z</time>
      </trkpt>
      <trkpt lat="41.2939520" lon="-8.6178080">
        <ele>159.2</ele>
        <time>2021-03-20T11:51:07Z</time>
      </trkpt>
      <trkpt lat="41.2939530" lon="-8.6178670">
        <ele>159.4</ele>
        <time>2021-03-20T11:51:08Z</time>
      </trkpt>
      <trkpt lat="41.2939630" lon="-8.6178810">
        <ele>159.6</ele>
        <time>2021-03-20T11:51:09Z</time>
      </trkpt>
      <trkpt lat="41.2939760" lon="-8.6179140">
        <ele>159.8</ele>
        <time>2021-03-20T11:51:10Z</time>
      </trkpt>
      <trkpt lat="41.2940050" lon="-8.6179500">
        <ele>160.0</ele>
        <time>2021-03-20T11:51:11Z</time>
      </trkpt>
      <trkpt lat="41.2939990" lon="-8.6179900">
        <ele>160.2</ele>
        <time>2021-03-20T11:51:12Z</time>
      </trkpt>
      <trkpt lat="41.2940020" lon="-8.6180190">
        <ele>160.2</ele>
        <time>2021-03-20T11:51:13Z</time>
      </trkpt>
      <trkpt lat="41.2940260" lon="-8.6180460">
        <ele>160.4</ele>
        <time>2021-03-20T11:51:14Z</time>
      </trkpt>
      <trkpt lat="41.2940340" lon="-8.6181110">
        <ele>160.8</ele>
        <time>2021-03-20T11:51:15Z</time>
      </trkpt>
      <trkpt lat="41.2940600" lon="-8.6181450">
        <ele>161.0</ele>
        <time>2021-03-20T11:51:16Z</time>
      </trkpt>
      <trkpt lat="41.2940780" lon="-8.6181710">
        <ele>161.0</ele>
        <time>2021-03-20T11:51:17Z</time>
      </trkpt>
      <trkpt lat="41.2940920" lon="-8.6182030">
        <ele>161.2</ele>
        <time>2021-03-20T11:51:18Z</time>
      </trkpt>
      <trkpt lat="41.2941040" lon="-8.6182490">
        <ele>161.2</ele>
        <time>2021-03-20T11:51:19Z</time>
      </trkpt>
      <trkpt lat="41.2941180" lon="-8.6182950">
        <ele>161.6</ele>
        <time>2021-03-20T11:51:20Z</time>
      </trkpt>
      <trkpt lat="41.2941490" lon="-8.6183260">
        <ele>161.8</ele>
        <time>2021-03-20T11:51:21Z</time>
      </trkpt>
      <trkpt lat="41.2941680" lon="-8.6183490">
        <ele>162.2</ele>
        <time>2021-03-20T11:51:22Z</time>
      </trkpt>
      <trkpt lat="41.2941850" lon="-8.6183740">
        <ele>162.4</ele>
        <time>2021-03-20T11:51:23Z</time>
      </trkpt>
      <trkpt lat="41.2941970" lon="-8.6183950">
        <ele>162.8</ele>
        <time>2021-03-20T11:51:24Z</time>
      </trkpt>
      <trkpt lat="41.2942090" lon="-8.6184280">
        <ele>163.0</ele>
        <time>2021-03-20T11:51:25Z</time>
      </trkpt>
      <trkpt lat="41.2942230" lon="-8.6184650">
        <ele>163.0</ele>
        <time>2021-03-20T11:51:26Z</time>
      </trkpt>
      <trkpt lat="41.2942440" lon="-8.6184820">
        <ele>163.4</ele>
        <time>2021-03-20T11:51:27Z</time>
      </trkpt>
      <trkpt lat="41.2942650" lon="-8.6184970">
        <ele>163.6</ele>
        <time>2021-03-20T11:51:28Z</time>
      </trkpt>
      <trkpt lat="41.2942870" lon="-8.6185120">
        <ele>163.8</ele>
        <time>2021-03-20T11:51:29Z</time>
      </trkpt>
      <trkpt lat="41.2943060" lon="-8.6185320">
        <ele>164.0</ele>
        <time>2021-03-20T11:51:30Z</time>
      </trkpt>
      <trkpt lat="41.2943180" lon="-8.6185440">
        <ele>164.2</ele>
        <time>2021-03-20T11:51:31Z</time>
      </trkpt>
      <trkpt lat="41.2943380" lon="-8.6185680">
        <ele>164.6</ele>
        <time>2021-03-20T11:51:32Z</time>
      </trkpt>
      <trkpt lat="41.2943470" lon="-8.6186150">
        <ele>164.8</ele>
        <time>2021-03-20T11:51:33Z</time>
      </trkpt>
      <trkpt lat="41.2943870" lon="-8.6186690">
        <ele>165.0</ele>
        <time>2021-03-20T11:51:34Z</time>
      </trkpt>
      <trkpt lat="41.2943770" lon="-8.6187220">
        <ele>165.2</ele>
        <time>2021-03-20T11:51:35Z</time>
      </trkpt>
      <trkpt lat="41.2943720" lon="-8.6187540">
        <ele>165.2</ele>
        <time>2021-03-20T11:51:36Z</time>
      </trkpt>
      <trkpt lat="41.2944100" lon="-8.6187950">
        <ele>165.4</ele>
        <time>2021-03-20T11:51:37Z</time>
      </trkpt>
      <trkpt lat="41.2944160" lon="-8.6188140">
        <ele>165.8</ele>
        <time>2021-03-20T11:51:38Z</time>
      </trkpt>
      <trkpt lat="41.2944380" lon="-8.6188530">
        <ele>165.8</ele>
        <time>2021-03-20T11:51:39Z</time>
      </trkpt>
      <trkpt lat="41.2944140" lon="-8.6188770">
        <ele>166.2</ele>
        <time>2021-03-20T11:51:40Z</time>
      </trkpt>
      <trkpt lat="41.2944570" lon="-8.6189330">
        <ele>166.4</ele>
        <time>2021-03-20T11:51:41Z</time>
      </trkpt>
      <trkpt lat="41.2944710" lon="-8.6189930">
        <ele>166.6</ele>
        <time>2021-03-20T11:51:42Z</time>
      </trkpt>
      <trkpt lat="41.2945340" lon="-8.6190640">
        <ele>166.8</ele>
        <time>2021-03-20T11:51:43Z</time>
      </trkpt>
      <trkpt lat="41.2945450" lon="-8.6191360">
        <ele>167.0</ele>
        <time>2021-03-20T11:51:44Z</time>
      </trkpt>
      <trkpt lat="41.2945580" lon="-8.6192040">
        <ele>167.0</ele>
        <time>2021-03-20T11:51:45Z</time>
      </trkpt>
      <trkpt lat="41.2945550" lon="-8.6192710">
        <ele>167.2</ele>
        <time>2021-03-20T11:51:46Z</time>
      </trkpt>
      <trkpt lat="41.2946020" lon="-8.6193420">
        <ele>167.4</ele>
        <time>2021-03-20T11:51:47Z</time>
      </trkpt>
      <trkpt lat="41.2946250" lon="-8.6193970">
        <ele>167.4</ele>
        <time>2021-03-20T11:51:48Z</time>
      </trkpt>
      <trkpt lat="41.2946170" lon="-8.6194800">
        <ele>167.6</ele>
        <time>2021-03-20T11:51:49Z</time>
      </trkpt>
      <trkpt lat="41.2946260" lon="-8.6195430">
        <ele>167.6</ele>
        <time>2021-03-20T11:51:50Z</time>
      </trkpt>
      <trkpt lat="41.2946230" lon="-8.6196020">
        <ele>167.8</ele>
        <time>2021-03-20T11:51:51Z</time>
      </trkpt>
      <trkpt lat="41.2946450" lon="-8.6196450">
        <ele>167.8</ele>
        <time>2021-03-20T11:51:52Z</time>
      </trkpt>
      <trkpt lat="41.2946660" lon="-8.6197040">
        <ele>167.8</ele>
        <time>2021-03-20T11:51:53Z</time>
      </trkpt>
      <trkpt lat="41.2946960" lon="-8.6197610">
        <ele>167.8</ele>
        <time>2021-03-20T11:51:54Z</time>
      </trkpt>
      <trkpt lat="41.2946980" lon="-8.6198070">
        <ele>167.8</ele>
        <time>2021-03-20T11:51:55Z</time>
      </trkpt>
      <trkpt lat="41.2947300" lon="-8.6198620">
        <ele>168.0</ele>
        <time>2021-03-20T11:51:56Z</time>
      </trkpt>
      <trkpt lat="41.2947490" lon="-8.6198930">
        <ele>167.8</ele>
        <time>2021-03-20T11:51:57Z</time>
      </trkpt>
      <trkpt lat="41.2948000" lon="-8.6199460">
        <ele>167.6</ele>
        <time>2021-03-20T11:51:58Z</time>
      </trkpt>
      <trkpt lat="41.2948130" lon="-8.6199890">
        <ele>167.6</ele>
        <time>2021-03-20T11:51:59Z</time>
      </trkpt>
      <trkpt lat="41.2948180" lon="-8.6200280">
        <ele>167.8</ele>
        <time>2021-03-20T11:52:00Z</time>
      </trkpt>
      <trkpt lat="41.2948600" lon="-8.6200800">
        <ele>168.0</ele>
        <time>2021-03-20T11:52:01Z</time>
      </trkpt>
      <trkpt lat="41.2948880" lon="-8.6201210">
        <ele>168.0</ele>
        <time>2021-03-20T11:52:02Z</time>
      </trkpt>
      <trkpt lat="41.2949170" lon="-8.6201560">
        <ele>168.0</ele>
        <time>2021-03-20T11:52:03Z</time>
      </trkpt>
      <trkpt lat="41.2949520" lon="-8.6201930">
        <ele>168.0</ele>
        <time>2021-03-20T11:52:04Z</time>
      </trkpt>
      <trkpt lat="41.2949890" lon="-8.6202310">
        <ele>168.0</ele>
        <time>2021-03-20T11:52:05Z</time>
      </trkpt>
      <trkpt lat="41.2950290" lon="-8.6202720">
        <ele>168.2</ele>
        <time>2021-03-20T11:52:06Z</time>
      </trkpt>
      <trkpt lat="41.2950670" lon="-8.6203210">
        <ele>168.2</ele>
        <time>2021-03-20T11:52:07Z</time>
      </trkpt>
      <trkpt lat="41.2951010" lon="-8.6203610">
        <ele>168.2</ele>
        <time>2021-03-20T11:52:08Z</time>
      </trkpt>
      <trkpt lat="41.2951410" lon="-8.6204060">
        <ele>168.2</ele>
        <time>2021-03-20T11:52:09Z</time>
      </trkpt>
      <trkpt lat="41.2951770" lon="-8.6204480">
        <ele>168.0</ele>
        <time>2021-03-20T11:52:10Z</time>
      </trkpt>
      <trkpt lat="41.2952180" lon="-8.6204880">
        <ele>167.8</ele>
        <time>2021-03-20T11:52:11Z</time>
      </trkpt>
      <trkpt lat="41.2952540" lon="-8.6205310">
        <ele>168.6</ele>
        <time>2021-03-20T11:52:12Z</time>
      </trkpt>
      <trkpt lat="41.2952950" lon="-8.6205770">
        <ele>168.4</ele>
        <time>2021-03-20T11:52:13Z</time>
      </trkpt>
      <trkpt lat="41.2953410" lon="-8.6206200">
        <ele>168.2</ele>
        <time>2021-03-20T11:52:14Z</time>
      </trkpt>
      <trkpt lat="41.2953840" lon="-8.6206670">
        <ele>168.2</ele>
        <time>2021-03-20T11:52:15Z</time>
      </trkpt>
      <trkpt lat="41.2954210" lon="-8.6207130">
        <ele>168.4</ele>
        <time>2021-03-20T11:52:16Z</time>
      </trkpt>
      <trkpt lat="41.2954620" lon="-8.6207560">
        <ele>168.6</ele>
        <time>2021-03-20T11:52:17Z</time>
      </trkpt>
      <trkpt lat="41.2955000" lon="-8.6208050">
        <ele>168.4</ele>
        <time>2021-03-20T11:52:18Z</time>
      </trkpt>
      <trkpt lat="41.2955300" lon="-8.6208410">
        <ele>168.4</ele>
        <time>2021-03-20T11:52:19Z</time>
      </trkpt>
      <trkpt lat="41.2955920" lon="-8.6208970">
        <ele>168.6</ele>
        <time>2021-03-20T11:52:20Z</time>
      </trkpt>
      <trkpt lat="41.2956370" lon="-8.6209390">
        <ele>168.6</ele>
        <time>2021-03-20T11:52:21Z</time>
      </trkpt>
      <trkpt lat="41.2956840" lon="-8.6209790">
        <ele>168.6</ele>
        <time>2021-03-20T11:52:22Z</time>
      </trkpt>
      <trkpt lat="41.2957200" lon="-8.6210200">
        <ele>168.6</ele>
        <time>2021-03-20T11:52:23Z</time>
      </trkpt>
      <trkpt lat="41.2957560" lon="-8.6210520">
        <ele>168.6</ele>
        <time>2021-03-20T11:52:24Z</time>
      </trkpt>
      <trkpt lat="41.2957820" lon="-8.6210890">
        <ele>168.8</ele>
        <time>2021-03-20T11:52:25Z</time>
      </trkpt>
      <trkpt lat="41.2958220" lon="-8.6211400">
        <ele>168.8</ele>
        <time>2021-03-20T11:52:26Z</time>
      </trkpt>
      <trkpt lat="41.2958510" lon="-8.6211860">
        <ele>168.8</ele>
        <time>2021-03-20T11:52:27Z</time>
      </trkpt>
      <trkpt lat="41.2958890" lon="-8.6212450">
        <ele>168.8</ele>
        <time>2021-03-20T11:52:28Z</time>
      </trkpt>
      <trkpt lat="41.2959300" lon="-8.6213050">
        <ele>168.8</ele>
        <time>2021-03-20T11:52:29Z</time>
      </trkpt>
      <trkpt lat="41.2959700" lon="-8.6213430">
        <ele>169.0</ele>
        <time>2021-03-20T11:52:30Z</time>
      </trkpt>
      <trkpt lat="41.2960130" lon="-8.6213960">
        <ele>169.2</ele>
        <time>2021-03-20T11:52:31Z</time>
      </trkpt>
      <trkpt lat="41.2960430" lon="-8.6214260">
        <ele>169.2</ele>
        <time>2021-03-20T11:52:32Z</time>
      </trkpt>
      <trkpt lat="41.2960980" lon="-8.6214780">
        <ele>169.6</ele>
        <time>2021-03-20T11:52:33Z</time>
      </trkpt>
      <trkpt lat="41.2961410" lon="-8.6215110">
        <ele>170.0</ele>
        <time>2021-03-20T11:52:34Z</time>
      </trkpt>
      <trkpt lat="41.2961860" lon="-8.6215510">
        <ele>170.2</ele>
        <time>2021-03-20T11:52:35Z</time>
      </trkpt>
      <trkpt lat="41.2962310" lon="-8.6215970">
        <ele>170.4</ele>
        <time>2021-03-20T11:52:36Z</time>
      </trkpt>
      <trkpt lat="41.2962540" lon="-8.6216410">
        <ele>170.6</ele>
        <time>2021-03-20T11:52:37Z</time>
      </trkpt>
      <trkpt lat="41.2962920" lon="-8.6216740">
        <ele>170.8</ele>
        <time>2021-03-20T11:52:38Z</time>
      </trkpt>
      <trkpt lat="41.2963270" lon="-8.6217120">
        <ele>170.8</ele>
        <time>2021-03-20T11:52:39Z</time>
      </trkpt>
      <trkpt lat="41.2963560" lon="-8.6217480">
        <ele>171.0</ele>
        <time>2021-03-20T11:52:40Z</time>
      </trkpt>
      <trkpt lat="41.2963870" lon="-8.6217950">
        <ele>171.2</ele>
        <time>2021-03-20T11:52:41Z</time>
      </trkpt>
      <trkpt lat="41.2964050" lon="-8.6218080">
        <ele>171.4</ele>
        <time>2021-03-20T11:52:42Z</time>
      </trkpt>
      <trkpt lat="41.2964350" lon="-8.6218440">
        <ele>171.4</ele>
        <time>2021-03-20T11:52:43Z</time>
      </trkpt>
      <trkpt lat="41.2964550" lon="-8.6218870">
        <ele>171.6</ele>
        <time>2021-03-20T11:52:44Z</time>
      </trkpt>
      <trkpt lat="41.2964820" lon="-8.6219260">
        <ele>171.4</ele>
        <time>2021-03-20T11:52:45Z</time>
      </trkpt>
      <trkpt lat="41.2964960" lon="-8.6219660">
        <ele>171.8</ele>
        <time>2021-03-20T11:52:46Z</time>
      </trkpt>
      <trkpt lat="41.2965160" lon="-8.6220070">
        <ele>172.0</ele>
        <time>2021-03-20T11:52:47Z</time>
      </trkpt>
      <trkpt lat="41.2965520" lon="-8.6220410">
        <ele>172.0</ele>
        <time>2021-03-20T11:52:48Z</time>
      </trkpt>
      <trkpt lat="41.2965830" lon="-8.6220850">
        <ele>172.0</ele>
        <time>2021-03-20T11:52:49Z</time>
      </trkpt>
      <trkpt lat="41.2966260" lon="-8.6221200">
        <ele>172.0</ele>
        <time>2021-03-20T11:52:50Z</time>
      </trkpt>
      <trkpt lat="41.2966710" lon="-8.6221590">
        <ele>172.2</ele>
        <time>2021-03-20T11:52:51Z</time>
      </trkpt>
      <trkpt lat="41.2967060" lon="-8.6222080">
        <ele>172.2</ele>
        <time>2021-03-20T11:52:52Z</time>
      </trkpt>
      <trkpt lat="41.2967580" lon="-8.6222630">
        <ele>172.4</ele>
        <time>2021-03-20T11:52:53Z</time>
      </trkpt>
      <trkpt lat="41.2967860" lon="-8.6222920">
        <ele>172.0</ele>
        <time>2021-03-20T11:52:54Z</time>
      </trkpt>
      <trkpt lat="41.2968270" lon="-8.6223360">
        <ele>172.0</ele>
        <time>2021-03-20T11:52:55Z</time>
      </trkpt>
      <trkpt lat="41.2968860" lon="-8.6223770">
        <ele>172.2</ele>
        <time>2021-03-20T11:52:56Z</time>
      </trkpt>
      <trkpt lat="41.2969390" lon="-8.6224260">
        <ele>172.2</ele>
        <time>2021-03-20T11:52:57Z</time>
      </trkpt>
      <trkpt lat="41.2969970" lon="-8.6224830">
        <ele>172.4</ele>
        <time>2021-03-20T11:52:58Z</time>
      </trkpt>
      <trkpt lat="41.2970610" lon="-8.6225480">
        <ele>172.6</ele>
        <time>2021-03-20T11:52:59Z</time>
      </trkpt>
      <trkpt lat="41.2971230" lon="-8.6225900">
        <ele>172.6</ele>
        <time>2021-03-20T11:53:00Z</time>
      </trkpt>
      <trkpt lat="41.2971710" lon="-8.6226380">
        <ele>172.6</ele>
        <time>2021-03-20T11:53:01Z</time>
      </trkpt>
      <trkpt lat="41.2972350" lon="-8.6226760">
        <ele>172.8</ele>
        <time>2021-03-20T11:53:02Z</time>
      </trkpt>
      <trkpt lat="41.2972900" lon="-8.6227240">
        <ele>172.8</ele>
        <time>2021-03-20T11:53:03Z</time>
      </trkpt>
      <trkpt lat="41.2973220" lon="-8.6227770">
        <ele>173.0</ele>
        <time>2021-03-20T11:53:04Z</time>
      </trkpt>
      <trkpt lat="41.2974150" lon="-8.6228380">
        <ele>173.2</ele>
        <time>2021-03-20T11:53:05Z</time>
      </trkpt>
      <trkpt lat="41.2974430" lon="-8.6228710">
        <ele>173.2</ele>
        <time>2021-03-20T11:53:06Z</time>
      </trkpt>
      <trkpt lat="41.2975070" lon="-8.6229210">
        <ele>173.2</ele>
        <time>2021-03-20T11:53:07Z</time>
      </trkpt>
      <trkpt lat="41.2975430" lon="-8.6229670">
        <ele>173.4</ele>
        <time>2021-03-20T11:53:08Z</time>
      </trkpt>
      <trkpt lat="41.2975800" lon="-8.6230110">
        <ele>173.6</ele>
        <time>2021-03-20T11:53:09Z</time>
      </trkpt>
      <trkpt lat="41.2976000" lon="-8.6230600">
        <ele>173.6</ele>
        <time>2021-03-20T11:53:10Z</time>
      </trkpt>
      <trkpt lat="41.2976800" lon="-8.6231150">
        <ele>173.8</ele>
        <time>2021-03-20T11:53:11Z</time>
      </trkpt>
      <trkpt lat="41.2977530" lon="-8.6231690">
        <ele>173.8</ele>
        <time>2021-03-20T11:53:12Z</time>
      </trkpt>
      <trkpt lat="41.2977940" lon="-8.6232090">
        <ele>174.0</ele>
        <time>2021-03-20T11:53:13Z</time>
      </trkpt>
      <trkpt lat="41.2978720" lon="-8.6232760">
        <ele>174.0</ele>
        <time>2021-03-20T11:53:14Z</time>
      </trkpt>
      <trkpt lat="41.2979210" lon="-8.6233240">
        <ele>174.0</ele>
        <time>2021-03-20T11:53:15Z</time>
      </trkpt>
      <trkpt lat="41.2979670" lon="-8.6233710">
        <ele>174.0</ele>
        <time>2021-03-20T11:53:16Z</time>
      </trkpt>
      <trkpt lat="41.2980180" lon="-8.6234210">
        <ele>174.0</ele>
        <time>2021-03-20T11:53:17Z</time>
      </trkpt>
      <trkpt lat="41.2980570" lon="-8.6234630">
        <ele>173.8</ele>
        <time>2021-03-20T11:53:18Z</time>
      </trkpt>
      <trkpt lat="41.2981030" lon="-8.6235140">
        <ele>173.8</ele>
        <time>2021-03-20T11:53:19Z</time>
      </trkpt>
      <trkpt lat="41.2981500" lon="-8.6235740">
        <ele>173.6</ele>
        <time>2021-03-20T11:53:20Z</time>
      </trkpt>
      <trkpt lat="41.2981970" lon="-8.6236230">
        <ele>173.6</ele>
        <time>2021-03-20T11:53:21Z</time>
      </trkpt>
      <trkpt lat="41.2982180" lon="-8.6236680">
        <ele>173.6</ele>
        <time>2021-03-20T11:53:22Z</time>
      </trkpt>
      <trkpt lat="41.2982680" lon="-8.6237140">
        <ele>173.4</ele>
        <time>2021-03-20T11:53:23Z</time>
      </trkpt>
      <trkpt lat="41.2983120" lon="-8.6237540">
        <ele>173.4</ele>
        <time>2021-03-20T11:53:24Z</time>
      </trkpt>
      <trkpt lat="41.2983640" lon="-8.6237960">
        <ele>173.6</ele>
        <time>2021-03-20T11:53:25Z</time>
      </trkpt>
      <trkpt lat="41.2984110" lon="-8.6238510">
        <ele>173.8</ele>
        <time>2021-03-20T11:53:26Z</time>
      </trkpt>
      <trkpt lat="41.2984740" lon="-8.6239020">
        <ele>173.6</ele>
        <time>2021-03-20T11:53:27Z</time>
      </trkpt>
      <trkpt lat="41.2985210" lon="-8.6239410">
        <ele>173.6</ele>
        <time>2021-03-20T11:53:28Z</time>
      </trkpt>
      <trkpt lat="41.2985910" lon="-8.6239830">
        <ele>173.6</ele>
        <time>2021-03-20T11:53:29Z</time>
      </trkpt>
      <trkpt lat="41.2986360" lon="-8.6240350">
        <ele>173.6</ele>
        <time>2021-03-20T11:53:30Z</time>
      </trkpt>
      <trkpt lat="41.2986900" lon="-8.6240810">
        <ele>173.6</ele>
        <time>2021-03-20T11:53:31Z</time>
      </trkpt>
      <trkpt lat="41.2987310" lon="-8.6241280">
        <ele>173.6</ele>
        <time>2021-03-20T11:53:32Z</time>
      </trkpt>
      <trkpt lat="41.2988030" lon="-8.6241720">
        <ele>173.6</ele>
        <time>2021-03-20T11:53:33Z</time>
      </trkpt>
      <trkpt lat="41.2988650" lon="-8.6241390">
        <ele>173.6</ele>
        <time>2021-03-20T11:53:34Z</time>
      </trkpt>
      <trkpt lat="41.2989290" lon="-8.6241840">
        <ele>173.8</ele>
        <time>2021-03-20T11:53:35Z</time>
      </trkpt>
      <trkpt lat="41.2989740" lon="-8.6242030">
        <ele>174.0</ele>
        <time>2021-03-20T11:53:36Z</time>
      </trkpt>
      <trkpt lat="41.2989980" lon="-8.6242550">
        <ele>174.0</ele>
        <time>2021-03-20T11:53:37Z</time>
      </trkpt>
      <trkpt lat="41.2991010" lon="-8.6243040">
        <ele>174.0</ele>
        <time>2021-03-20T11:53:38Z</time>
      </trkpt>
      <trkpt lat="41.2991470" lon="-8.6243170">
        <ele>174.0</ele>
        <time>2021-03-20T11:53:39Z</time>
      </trkpt>
      <trkpt lat="41.2992050" lon="-8.6243780">
        <ele>173.8</ele>
        <time>2021-03-20T11:53:40Z</time>
      </trkpt>
      <trkpt lat="41.2992660" lon="-8.6243910">
        <ele>173.8</ele>
        <time>2021-03-20T11:53:41Z</time>
      </trkpt>
      <trkpt lat="41.2992980" lon="-8.6243980">
        <ele>174.0</ele>
        <time>2021-03-20T11:53:42Z</time>
      </trkpt>
      <trkpt lat="41.2993470" lon="-8.6244370">
        <ele>174.2</ele>
        <time>2021-03-20T11:53:43Z</time>
      </trkpt>
      <trkpt lat="41.2994120" lon="-8.6244390">
        <ele>174.2</ele>
        <time>2021-03-20T11:53:44Z</time>
      </trkpt>
      <trkpt lat="41.2994760" lon="-8.6244780">
        <ele>174.2</ele>
        <time>2021-03-20T11:53:45Z</time>
      </trkpt>
      <trkpt lat="41.2995300" lon="-8.6245020">
        <ele>174.2</ele>
        <time>2021-03-20T11:53:46Z</time>
      </trkpt>
      <trkpt lat="41.2996000" lon="-8.6245060">
        <ele>174.2</ele>
        <time>2021-03-20T11:53:47Z</time>
      </trkpt>
      <trkpt lat="41.2996730" lon="-8.6245340">
        <ele>174.2</ele>
        <time>2021-03-20T11:53:48Z</time>
      </trkpt>
      <trkpt lat="41.2997290" lon="-8.6245230">
        <ele>174.2</ele>
        <time>2021-03-20T11:53:49Z</time>
      </trkpt>
      <trkpt lat="41.2997830" lon="-8.6245940">
        <ele>174.2</ele>
        <time>2021-03-20T11:53:50Z</time>
      </trkpt>
      <trkpt lat="41.2997870" lon="-8.6246190">
        <ele>174.2</ele>
        <time>2021-03-20T11:53:51Z</time>
      </trkpt>
      <trkpt lat="41.2998570" lon="-8.6246550">
        <ele>174.2</ele>
        <time>2021-03-20T11:53:52Z</time>
      </trkpt>
      <trkpt lat="41.2998950" lon="-8.6246650">
        <ele>174.2</ele>
        <time>2021-03-20T11:53:53Z</time>
      </trkpt>
      <trkpt lat="41.2999310" lon="-8.6247040">
        <ele>174.2</ele>
        <time>2021-03-20T11:53:54Z</time>
      </trkpt>
      <trkpt lat="41.2999580" lon="-8.6247400">
        <ele>174.2</ele>
        <time>2021-03-20T11:53:55Z</time>
      </trkpt>
      <trkpt lat="41.3000040" lon="-8.6247600">
        <ele>174.2</ele>
        <time>2021-03-20T11:53:56Z</time>
      </trkpt>
      <trkpt lat="41.3000840" lon="-8.6247620">
        <ele>174.4</ele>
        <time>2021-03-20T11:53:57Z</time>
      </trkpt>
      <trkpt lat="41.3000780" lon="-8.6247610">
        <ele>174.2</ele>
        <time>2021-03-20T11:53:58Z</time>
      </trkpt>
      <trkpt lat="41.3001090" lon="-8.6247800">
        <ele>174.4</ele>
        <time>2021-03-20T11:53:59Z</time>
      </trkpt>
      <trkpt lat="41.3001580" lon="-8.6248570">
        <ele>174.4</ele>
        <time>2021-03-20T11:54:00Z</time>
      </trkpt>
      <trkpt lat="41.3002570" lon="-8.6248290">
        <ele>174.4</ele>
        <time>2021-03-20T11:54:01Z</time>
      </trkpt>
      <trkpt lat="41.3002750" lon="-8.6248090">
        <ele>174.4</ele>
        <time>2021-03-20T11:54:02Z</time>
      </trkpt>
      <trkpt lat="41.3002970" lon="-8.6249280">
        <ele>174.4</ele>
        <time>2021-03-20T11:54:03Z</time>
      </trkpt>
      <trkpt lat="41.3003860" lon="-8.6248680">
        <ele>174.6</ele>
        <time>2021-03-20T11:54:04Z</time>
      </trkpt>
      <trkpt lat="41.3004360" lon="-8.6249090">
        <ele>174.6</ele>
        <time>2021-03-20T11:54:05Z</time>
      </trkpt>
      <trkpt lat="41.3004980" lon="-8.6248850">
        <ele>174.4</ele>
        <time>2021-03-20T11:54:06Z</time>
      </trkpt>
      <trkpt lat="41.3005780" lon="-8.6248930">
        <ele>174.6</ele>
        <time>2021-03-20T11:54:07Z</time>
      </trkpt>
      <trkpt lat="41.3006000" lon="-8.6249180">
        <ele>174.6</ele>
        <time>2021-03-20T11:54:08Z</time>
      </trkpt>
      <trkpt lat="41.3006720" lon="-8.6249250">
        <ele>174.6</ele>
        <time>2021-03-20T11:54:09Z</time>
      </trkpt>
      <trkpt lat="41.3006860" lon="-8.6249220">
        <ele>174.4</ele>
        <time>2021-03-20T11:54:10Z</time>
      </trkpt>
      <trkpt lat="41.3007540" lon="-8.6249470">
        <ele>174.4</ele>
        <time>2021-03-20T11:54:11Z</time>
      </trkpt>
      <trkpt lat="41.3008280" lon="-8.6250360">
        <ele>174.6</ele>
        <time>2021-03-20T11:54:12Z</time>
      </trkpt>
      <trkpt lat="41.3008910" lon="-8.6250350">
        <ele>174.6</ele>
        <time>2021-03-20T11:54:13Z</time>
      </trkpt>
      <trkpt lat="41.3009270" lon="-8.6250430">
        <ele>174.6</ele>
        <time>2021-03-20T11:54:14Z</time>
      </trkpt>
      <trkpt lat="41.3009970" lon="-8.6250680">
        <ele>174.8</ele>
        <time>2021-03-20T11:54:15Z</time>
      </trkpt>
      <trkpt lat="41.3010530" lon="-8.6250950">
        <ele>174.6</ele>
        <time>2021-03-20T11:54:16Z</time>
      </trkpt>
      <trkpt lat="41.3010930" lon="-8.6251200">
        <ele>174.4</ele>
        <time>2021-03-20T11:54:17Z</time>
      </trkpt>
      <trkpt lat="41.3011630" lon="-8.6251470">
        <ele>174.6</ele>
        <time>2021-03-20T11:54:18Z</time>
      </trkpt>
      <trkpt lat="41.3012180" lon="-8.6251740">
        <ele>174.6</ele>
        <time>2021-03-20T11:54:19Z</time>
      </trkpt>
      <trkpt lat="41.3012660" lon="-8.6252020">
        <ele>174.8</ele>
        <time>2021-03-20T11:54:20Z</time>
      </trkpt>
      <trkpt lat="41.3013130" lon="-8.6252370">
        <ele>174.8</ele>
        <time>2021-03-20T11:54:21Z</time>
      </trkpt>
      <trkpt lat="41.3013890" lon="-8.6252600">
        <ele>175.0</ele>
        <time>2021-03-20T11:54:22Z</time>
      </trkpt>
      <trkpt lat="41.3014260" lon="-8.6252970">
        <ele>175.2</ele>
        <time>2021-03-20T11:54:23Z</time>
      </trkpt>
      <trkpt lat="41.3015010" lon="-8.6253440">
        <ele>175.4</ele>
        <time>2021-03-20T11:54:24Z</time>
      </trkpt>
      <trkpt lat="41.3015190" lon="-8.6253740">
        <ele>175.4</ele>
        <time>2021-03-20T11:54:25Z</time>
      </trkpt>
      <trkpt lat="41.3015840" lon="-8.6253960">
        <ele>175.6</ele>
        <time>2021-03-20T11:54:26Z</time>
      </trkpt>
      <trkpt lat="41.3016220" lon="-8.6254370">
        <ele>175.6</ele>
        <time>2021-03-20T11:54:27Z</time>
      </trkpt>
      <trkpt lat="41.3016510" lon="-8.6254740">
        <ele>175.8</ele>
        <time>2021-03-20T11:54:28Z</time>
      </trkpt>
      <trkpt lat="41.3017270" lon="-8.6255100">
        <ele>176.0</ele>
        <time>2021-03-20T11:54:29Z</time>
      </trkpt>
      <trkpt lat="41.3017550" lon="-8.6255460">
        <ele>176.2</ele>
        <time>2021-03-20T11:54:30Z</time>
      </trkpt>
      <trkpt lat="41.3018010" lon="-8.6255970">
        <ele>176.4</ele>
        <time>2021-03-20T11:54:31Z</time>
      </trkpt>
      <trkpt lat="41.3018670" lon="-8.6256330">
        <ele>176.6</ele>
        <time>2021-03-20T11:54:32Z</time>
      </trkpt>
      <trkpt lat="41.3019190" lon="-8.6256730">
        <ele>176.8</ele>
        <time>2021-03-20T11:54:33Z</time>
      </trkpt>
      <trkpt lat="41.3019680" lon="-8.6257020">
        <ele>176.8</ele>
        <time>2021-03-20T11:54:34Z</time>
      </trkpt>
      <trkpt lat="41.3020040" lon="-8.6257330">
        <ele>177.0</ele>
        <time>2021-03-20T11:54:35Z</time>
      </trkpt>
      <trkpt lat="41.3020380" lon="-8.6257680">
        <ele>177.2</ele>
        <time>2021-03-20T11:54:36Z</time>
      </trkpt>
      <trkpt lat="41.3020990" lon="-8.6258090">
        <ele>177.2</ele>
        <time>2021-03-20T11:54:37Z</time>
      </trkpt>
      <trkpt lat="41.3021590" lon="-8.6258440">
        <ele>177.2</ele>
        <time>2021-03-20T11:54:38Z</time>
      </trkpt>
      <trkpt lat="41.3021860" lon="-8.6258710">
        <ele>177.4</ele>
        <time>2021-03-20T11:54:39Z</time>
      </trkpt>
      <trkpt lat="41.3022490" lon="-8.6259030">
        <ele>177.6</ele>
        <time>2021-03-20T11:54:40Z</time>
      </trkpt>
      <trkpt lat="41.3022880" lon="-8.6259350">
        <ele>177.8</ele>
        <time>2021-03-20T11:54:41Z</time>
      </trkpt>
      <trkpt lat="41.3023240" lon="-8.6259740">
        <ele>177.8</ele>
        <time>2021-03-20T11:54:42Z</time>
      </trkpt>
      <trkpt lat="41.3023820" lon="-8.6260170">
        <ele>177.8</ele>
        <time>2021-03-20T11:54:43Z</time>
      </trkpt>
      <trkpt lat="41.3024200" lon="-8.6260500">
        <ele>177.6</ele>
        <time>2021-03-20T11:54:44Z</time>
      </trkpt>
      <trkpt lat="41.3024970" lon="-8.6260840">
        <ele>177.6</ele>
        <time>2021-03-20T11:54:45Z</time>
      </trkpt>
      <trkpt lat="41.3025470" lon="-8.6261220">
        <ele>177.4</ele>
        <time>2021-03-20T11:54:46Z</time>
      </trkpt>
      <trkpt lat="41.3025720" lon="-8.6261450">
        <ele>177.4</ele>
        <time>2021-03-20T11:54:47Z</time>
      </trkpt>
      <trkpt lat="41.3026240" lon="-8.6261770">
        <ele>177.2</ele>
        <time>2021-03-20T11:54:48Z</time>
      </trkpt>
      <trkpt lat="41.3026690" lon="-8.6262030">
        <ele>177.2</ele>
        <time>2021-03-20T11:54:49Z</time>
      </trkpt>
      <trkpt lat="41.3027170" lon="-8.6262540">
        <ele>177.2</ele>
        <time>2021-03-20T11:54:50Z</time>
      </trkpt>
      <trkpt lat="41.3027660" lon="-8.6262750">
        <ele>177.2</ele>
        <time>2021-03-20T11:54:51Z</time>
      </trkpt>
      <trkpt lat="41.3028060" lon="-8.6263050">
        <ele>177.2</ele>
        <time>2021-03-20T11:54:52Z</time>
      </trkpt>
      <trkpt lat="41.3028620" lon="-8.6263130">
        <ele>177.0</ele>
        <time>2021-03-20T11:54:53Z</time>
      </trkpt>
      <trkpt lat="41.3028750" lon="-8.6263150">
        <ele>177.0</ele>
        <time>2021-03-20T11:54:54Z</time>
      </trkpt>
      <trkpt lat="41.3029080" lon="-8.6263160">
        <ele>176.8</ele>
        <time>2021-03-20T11:54:55Z</time>
      </trkpt>
      <trkpt lat="41.3029700" lon="-8.6263560">
        <ele>176.8</ele>
        <time>2021-03-20T11:54:56Z</time>
      </trkpt>
      <trkpt lat="41.3030100" lon="-8.6262990">
        <ele>176.6</ele>
        <time>2021-03-20T11:54:57Z</time>
      </trkpt>
      <trkpt lat="41.3030660" lon="-8.6263230">
        <ele>176.6</ele>
        <time>2021-03-20T11:54:58Z</time>
      </trkpt>
      <trkpt lat="41.3031150" lon="-8.6262990">
        <ele>176.6</ele>
        <time>2021-03-20T11:54:59Z</time>
      </trkpt>
      <trkpt lat="41.3031630" lon="-8.6263230">
        <ele>176.6</ele>
        <time>2021-03-20T11:55:00Z</time>
      </trkpt>
      <trkpt lat="41.3032090" lon="-8.6263320">
        <ele>176.6</ele>
        <time>2021-03-20T11:55:01Z</time>
      </trkpt>
      <trkpt lat="41.3032730" lon="-8.6263070">
        <ele>176.6</ele>
        <time>2021-03-20T11:55:02Z</time>
      </trkpt>
      <trkpt lat="41.3033620" lon="-8.6263100">
        <ele>176.8</ele>
        <time>2021-03-20T11:55:03Z</time>
      </trkpt>
      <trkpt lat="41.3034360" lon="-8.6262910">
        <ele>176.8</ele>
        <time>2021-03-20T11:55:04Z</time>
      </trkpt>
      <trkpt lat="41.3035120" lon="-8.6263350">
        <ele>176.8</ele>
        <time>2021-03-20T11:55:05Z</time>
      </trkpt>
      <trkpt lat="41.3035650" lon="-8.6263260">
        <ele>177.0</ele>
        <time>2021-03-20T11:55:06Z</time>
      </trkpt>
      <trkpt lat="41.3036080" lon="-8.6263260">
        <ele>177.0</ele>
        <time>2021-03-20T11:55:07Z</time>
      </trkpt>
      <trkpt lat="41.3036750" lon="-8.6263300">
        <ele>177.0</ele>
        <time>2021-03-20T11:55:08Z</time>
      </trkpt>
      <trkpt lat="41.3037660" lon="-8.6263500">
        <ele>177.0</ele>
        <time>2021-03-20T11:55:09Z</time>
      </trkpt>
      <trkpt lat="41.3038240" lon="-8.6263490">
        <ele>176.8</ele>
        <time>2021-03-20T11:55:10Z</time>
      </trkpt>
      <trkpt lat="41.3038600" lon="-8.6263040">
        <ele>176.4</ele>
        <time>2021-03-20T11:55:11Z</time>
      </trkpt>
      <trkpt lat="41.3039200" lon="-8.6263290">
        <ele>176.0</ele>
        <time>2021-03-20T11:55:12Z</time>
      </trkpt>
      <trkpt lat="41.3039700" lon="-8.6263900">
        <ele>175.8</ele>
        <time>2021-03-20T11:55:13Z</time>
      </trkpt>
      <trkpt lat="41.3040460" lon="-8.6263870">
        <ele>175.6</ele>
        <time>2021-03-20T11:55:14Z</time>
      </trkpt>
      <trkpt lat="41.3040930" lon="-8.6263840">
        <ele>175.4</ele>
        <time>2021-03-20T11:55:15Z</time>
      </trkpt>
      <trkpt lat="41.3042050" lon="-8.6264720">
        <ele>175.0</ele>
        <time>2021-03-20T11:55:16Z</time>
      </trkpt>
      <trkpt lat="41.3042860" lon="-8.6264870">
        <ele>174.8</ele>
        <time>2021-03-20T11:55:17Z</time>
      </trkpt>
      <trkpt lat="41.3043250" lon="-8.6265340">
        <ele>174.2</ele>
        <time>2021-03-20T11:55:18Z</time>
      </trkpt>
      <trkpt lat="41.3044490" lon="-8.6265910">
        <ele>174.0</ele>
        <time>2021-03-20T11:55:19Z</time>
      </trkpt>
      <trkpt lat="41.3044850" lon="-8.6266170">
        <ele>173.6</ele>
        <time>2021-03-20T11:55:20Z</time>
      </trkpt>
      <trkpt lat="41.3045310" lon="-8.6266540">
        <ele>173.4</ele>
        <time>2021-03-20T11:55:21Z</time>
      </trkpt>
      <trkpt lat="41.3046100" lon="-8.6267020">
        <ele>173.2</ele>
        <time>2021-03-20T11:55:22Z</time>
      </trkpt>
      <trkpt lat="41.3047010" lon="-8.6267720">
        <ele>172.8</ele>
        <time>2021-03-20T11:55:23Z</time>
      </trkpt>
      <trkpt lat="41.3047080" lon="-8.6267960">
        <ele>172.6</ele>
        <time>2021-03-20T11:55:24Z</time>
      </trkpt>
      <trkpt lat="41.3048220" lon="-8.6268520">
        <ele>172.4</ele>
        <time>2021-03-20T11:55:25Z</time>
      </trkpt>
      <trkpt lat="41.3048830" lon="-8.6269040">
        <ele>172.0</ele>
        <time>2021-03-20T11:55:26Z</time>
      </trkpt>
      <trkpt lat="41.3049430" lon="-8.6269520">
        <ele>171.8</ele>
        <time>2021-03-20T11:55:27Z</time>
      </trkpt>
      <trkpt lat="41.3049910" lon="-8.6269990">
        <ele>171.6</ele>
        <time>2021-03-20T11:55:28Z</time>
      </trkpt>
      <trkpt lat="41.3051020" lon="-8.6270690">
        <ele>171.0</ele>
        <time>2021-03-20T11:55:29Z</time>
      </trkpt>
      <trkpt lat="41.3051550" lon="-8.6271050">
        <ele>170.8</ele>
        <time>2021-03-20T11:55:30Z</time>
      </trkpt>
      <trkpt lat="41.3052180" lon="-8.6271700">
        <ele>170.8</ele>
        <time>2021-03-20T11:55:31Z</time>
      </trkpt>
      <trkpt lat="41.3053080" lon="-8.6272360">
        <ele>170.8</ele>
        <time>2021-03-20T11:55:32Z</time>
      </trkpt>
      <trkpt lat="41.3053570" lon="-8.6272590">
        <ele>170.6</ele>
        <time>2021-03-20T11:55:33Z</time>
      </trkpt>
      <trkpt lat="41.3054250" lon="-8.6273160">
        <ele>170.6</ele>
        <time>2021-03-20T11:55:34Z</time>
      </trkpt>
      <trkpt lat="41.3055540" lon="-8.6273680">
        <ele>170.4</ele>
        <time>2021-03-20T11:55:35Z</time>
      </trkpt>
      <trkpt lat="41.3055940" lon="-8.6274090">
        <ele>170.4</ele>
        <time>2021-03-20T11:55:36Z</time>
      </trkpt>
      <trkpt lat="41.3056320" lon="-8.6274210">
        <ele>170.2</ele>
        <time>2021-03-20T11:55:37Z</time>
      </trkpt>
      <trkpt lat="41.3057030" lon="-8.6274670">
        <ele>170.0</ele>
        <time>2021-03-20T11:55:38Z</time>
      </trkpt>
      <trkpt lat="41.3057760" lon="-8.6274830">
        <ele>169.8</ele>
        <time>2021-03-20T11:55:39Z</time>
      </trkpt>
      <trkpt lat="41.3058410" lon="-8.6275720">
        <ele>169.8</ele>
        <time>2021-03-20T11:55:40Z</time>
      </trkpt>
      <trkpt lat="41.3059210" lon="-8.6275890">
        <ele>169.6</ele>
        <time>2021-03-20T11:55:41Z</time>
      </trkpt>
      <trkpt lat="41.3060250" lon="-8.6276240">
        <ele>169.6</ele>
        <time>2021-03-20T11:55:42Z</time>
      </trkpt>
      <trkpt lat="41.3061050" lon="-8.6276430">
        <ele>169.6</ele>
        <time>2021-03-20T11:55:43Z</time>
      </trkpt>
      <trkpt lat="41.3061710" lon="-8.6276620">
        <ele>169.6</ele>
        <time>2021-03-20T11:55:44Z</time>
      </trkpt>
      <trkpt lat="41.3062190" lon="-8.6277010">
        <ele>169.2</ele>
        <time>2021-03-20T11:55:45Z</time>
      </trkpt>
      <trkpt lat="41.3062880" lon="-8.6277230">
        <ele>169.2</ele>
        <time>2021-03-20T11:55:46Z</time>
      </trkpt>
      <trkpt lat="41.3063460" lon="-8.6277210">
        <ele>169.2</ele>
        <time>2021-03-20T11:55:47Z</time>
      </trkpt>
      <trkpt lat="41.3064440" lon="-8.6277780">
        <ele>169.2</ele>
        <time>2021-03-20T11:55:48Z</time>
      </trkpt>
      <trkpt lat="41.3065180" lon="-8.6278060">
        <ele>169.2</ele>
        <time>2021-03-20T11:55:49Z</time>
      </trkpt>
      <trkpt lat="41.3065670" lon="-8.6278600">
        <ele>169.0</ele>
        <time>2021-03-20T11:55:50Z</time>
      </trkpt>
      <trkpt lat="41.3066150" lon="-8.6278620">
        <ele>169.0</ele>
        <time>2021-03-20T11:55:51Z</time>
      </trkpt>
      <trkpt lat="41.3066640" lon="-8.6278830">
        <ele>169.2</ele>
        <time>2021-03-20T11:55:52Z</time>
      </trkpt>
      <trkpt lat="41.3067580" lon="-8.6279610">
        <ele>169.4</ele>
        <time>2021-03-20T11:55:53Z</time>
      </trkpt>
      <trkpt lat="41.3068110" lon="-8.6280080">
        <ele>169.2</ele>
        <time>2021-03-20T11:55:54Z</time>
      </trkpt>
      <trkpt lat="41.3068700" lon="-8.6280850">
        <ele>169.4</ele>
        <time>2021-03-20T11:55:55Z</time>
      </trkpt>
      <trkpt lat="41.3069150" lon="-8.6281330">
        <ele>169.4</ele>
        <time>2021-03-20T11:55:56Z</time>
      </trkpt>
      <trkpt lat="41.3069620" lon="-8.6283120">
        <ele>169.4</ele>
        <time>2021-03-20T11:55:57Z</time>
      </trkpt>
      <trkpt lat="41.3070080" lon="-8.6283580">
        <ele>169.6</ele>
        <time>2021-03-20T11:55:58Z</time>
      </trkpt>
      <trkpt lat="41.3070320" lon="-8.6284370">
        <ele>170.0</ele>
        <time>2021-03-20T11:55:59Z</time>
      </trkpt>
      <trkpt lat="41.3071160" lon="-8.6285160">
        <ele>170.2</ele>
        <time>2021-03-20T11:56:00Z</time>
      </trkpt>
      <trkpt lat="41.3071870" lon="-8.6286080">
        <ele>170.2</ele>
        <time>2021-03-20T11:56:01Z</time>
      </trkpt>
      <trkpt lat="41.3072160" lon="-8.6286370">
        <ele>170.0</ele>
        <time>2021-03-20T11:56:02Z</time>
      </trkpt>
      <trkpt lat="41.3072260" lon="-8.6286970">
        <ele>170.0</ele>
        <time>2021-03-20T11:56:03Z</time>
      </trkpt>
      <trkpt lat="41.3072910" lon="-8.6287040">
        <ele>170.2</ele>
        <time>2021-03-20T11:56:04Z</time>
      </trkpt>
      <trkpt lat="41.3073580" lon="-8.6287130">
        <ele>170.4</ele>
        <time>2021-03-20T11:56:05Z</time>
      </trkpt>
      <trkpt lat="41.3074290" lon="-8.6287190">
        <ele>170.6</ele>
        <time>2021-03-20T11:56:06Z</time>
      </trkpt>
      <trkpt lat="41.3075060" lon="-8.6287050">
        <ele>170.8</ele>
        <time>2021-03-20T11:56:07Z</time>
      </trkpt>
      <trkpt lat="41.3076010" lon="-8.6286670">
        <ele>170.8</ele>
        <time>2021-03-20T11:56:08Z</time>
      </trkpt>
      <trkpt lat="41.3076680" lon="-8.6286410">
        <ele>170.8</ele>
        <time>2021-03-20T11:56:09Z</time>
      </trkpt>
      <trkpt lat="41.3076960" lon="-8.6286090">
        <ele>171.0</ele>
        <time>2021-03-20T11:56:10Z</time>
      </trkpt>
      <trkpt lat="41.3077410" lon="-8.6285890">
        <ele>171.0</ele>
        <time>2021-03-20T11:56:11Z</time>
      </trkpt>
      <trkpt lat="41.3077980" lon="-8.6285800">
        <ele>171.0</ele>
        <time>2021-03-20T11:56:12Z</time>
      </trkpt>
      <trkpt lat="41.3078760" lon="-8.6285710">
        <ele>171.2</ele>
        <time>2021-03-20T11:56:13Z</time>
      </trkpt>
      <trkpt lat="41.3079620" lon="-8.6285980">
        <ele>171.2</ele>
        <time>2021-03-20T11:56:14Z</time>
      </trkpt>
      <trkpt lat="41.3080580" lon="-8.6285760">
        <ele>171.4</ele>
        <time>2021-03-20T11:56:15Z</time>
      </trkpt>
      <trkpt lat="41.3081250" lon="-8.6285580">
        <ele>171.6</ele>
        <time>2021-03-20T11:56:16Z</time>
      </trkpt>
      <trkpt lat="41.3081620" lon="-8.6285380">
        <ele>171.8</ele>
        <time>2021-03-20T11:56:17Z</time>
      </trkpt>
      <trkpt lat="41.3082160" lon="-8.6285060">
        <ele>171.8</ele>
        <time>2021-03-20T11:56:18Z</time>
      </trkpt>
      <trkpt lat="41.3082850" lon="-8.6284930">
        <ele>172.2</ele>
        <time>2021-03-20T11:56:19Z</time>
      </trkpt>
      <trkpt lat="41.3083230" lon="-8.6284740">
        <ele>172.2</ele>
        <time>2021-03-20T11:56:20Z</time>
      </trkpt>
      <trkpt lat="41.3083760" lon="-8.6284620">
        <ele>172.2</ele>
        <time>2021-03-20T11:56:21Z</time>
      </trkpt>
      <trkpt lat="41.3084140" lon="-8.6284480">
        <ele>172.2</ele>
        <time>2021-03-20T11:56:22Z</time>
      </trkpt>
      <trkpt lat="41.3084330" lon="-8.6284360">
        <ele>172.4</ele>
        <time>2021-03-20T11:56:23Z</time>
      </trkpt>
      <trkpt lat="41.3084570" lon="-8.6284150">
        <ele>172.6</ele>
        <time>2021-03-20T11:56:24Z</time>
      </trkpt>
      <trkpt lat="41.3084910" lon="-8.6283950">
        <ele>172.8</ele>
        <time>2021-03-20T11:56:25Z</time>
      </trkpt>
      <trkpt lat="41.3085280" lon="-8.6283750">
        <ele>173.0</ele>
        <time>2021-03-20T11:56:26Z</time>
      </trkpt>
      <trkpt lat="41.3085620" lon="-8.6283580">
        <ele>173.2</ele>
        <time>2021-03-20T11:56:27Z</time>
      </trkpt>
      <trkpt lat="41.3086260" lon="-8.6283270">
        <ele>173.4</ele>
        <time>2021-03-20T11:56:28Z</time>
      </trkpt>
      <trkpt lat="41.3086940" lon="-8.6282960">
        <ele>173.8</ele>
        <time>2021-03-20T11:56:29Z</time>
      </trkpt>
      <trkpt lat="41.3087560" lon="-8.6282810">
        <ele>174.0</ele>
        <time>2021-03-20T11:56:30Z</time>
      </trkpt>
      <trkpt lat="41.3087900" lon="-8.6282670">
        <ele>174.2</ele>
        <time>2021-03-20T11:56:31Z</time>
      </trkpt>
      <trkpt lat="41.3088140" lon="-8.6282400">
        <ele>174.4</ele>
        <time>2021-03-20T11:56:32Z</time>
      </trkpt>
      <trkpt lat="41.3088540" lon="-8.6282360">
        <ele>174.6</ele>
        <time>2021-03-20T11:56:33Z</time>
      </trkpt>
      <trkpt lat="41.3088950" lon="-8.6282090">
        <ele>174.8</ele>
        <time>2021-03-20T11:56:34Z</time>
      </trkpt>
      <trkpt lat="41.3089340" lon="-8.6281710">
        <ele>174.8</ele>
        <time>2021-03-20T11:56:35Z</time>
      </trkpt>
      <trkpt lat="41.3089860" lon="-8.6281550">
        <ele>175.0</ele>
        <time>2021-03-20T11:56:36Z</time>
      </trkpt>
      <trkpt lat="41.3090130" lon="-8.6281360">
        <ele>175.2</ele>
        <time>2021-03-20T11:56:37Z</time>
      </trkpt>
      <trkpt lat="41.3090490" lon="-8.6281070">
        <ele>175.2</ele>
        <time>2021-03-20T11:56:38Z</time>
      </trkpt>
      <trkpt lat="41.3090830" lon="-8.6280870">
        <ele>175.4</ele>
        <time>2021-03-20T11:56:39Z</time>
      </trkpt>
      <trkpt lat="41.3091150" lon="-8.6280590">
        <ele>175.6</ele>
        <time>2021-03-20T11:56:40Z</time>
      </trkpt>
      <trkpt lat="41.3091550" lon="-8.6280500">
        <ele>175.6</ele>
        <time>2021-03-20T11:56:41Z</time>
      </trkpt>
      <trkpt lat="41.3091940" lon="-8.6280300">
        <ele>175.6</ele>
        <time>2021-03-20T11:56:42Z</time>
      </trkpt>
      <trkpt lat="41.3092200" lon="-8.6280040">
        <ele>175.6</ele>
        <time>2021-03-20T11:56:43Z</time>
      </trkpt>
      <trkpt lat="41.3092430" lon="-8.6279710">
        <ele>175.4</ele>
        <time>2021-03-20T11:56:44Z</time>
      </trkpt>
      <trkpt lat="41.3092570" lon="-8.6279490">
        <ele>175.0</ele>
        <time>2021-03-20T11:56:45Z</time>
      </trkpt>
      <trkpt lat="41.3092720" lon="-8.6279200">
        <ele>175.0</ele>
        <time>2021-03-20T11:56:46Z</time>
      </trkpt>
      <trkpt lat="41.3092940" lon="-8.6278910">
        <ele>174.6</ele>
        <time>2021-03-20T11:56:47Z</time>
      </trkpt>
      <trkpt lat="41.3093210" lon="-8.6278610">
        <ele>174.2</ele>
        <time>2021-03-20T11:56:48Z</time>
      </trkpt>
      <trkpt lat="41.3093350" lon="-8.6278500">
        <ele>174.0</ele>
        <time>2021-03-20T11:56:49Z</time>
      </trkpt>
      <trkpt lat="41.3093480" lon="-8.6278020">
        <ele>173.6</ele>
        <time>2021-03-20T11:56:50Z</time>
      </trkpt>
      <trkpt lat="41.3093710" lon="-8.6277540">
        <ele>173.2</ele>
        <time>2021-03-20T11:56:51Z</time>
      </trkpt>
      <trkpt lat="41.3094020" lon="-8.6277090">
        <ele>172.8</ele>
        <time>2021-03-20T11:56:52Z</time>
      </trkpt>
      <trkpt lat="41.3094290" lon="-8.6276770">
        <ele>171.8</ele>
        <time>2021-03-20T11:56:53Z</time>
      </trkpt>
      <trkpt lat="41.3094730" lon="-8.6276280">
        <ele>171.0</ele>
        <time>2021-03-20T11:56:54Z</time>
      </trkpt>
      <trkpt lat="41.3095020" lon="-8.6275690">
        <ele>170.2</ele>
        <time>2021-03-20T11:56:55Z</time>
      </trkpt>
      <trkpt lat="41.3095420" lon="-8.6274920">
        <ele>169.2</ele>
        <time>2021-03-20T11:56:56Z</time>
      </trkpt>
      <trkpt lat="41.3095690" lon="-8.6274320">
        <ele>168.4</ele>
        <time>2021-03-20T11:56:57Z</time>
      </trkpt>
      <trkpt lat="41.3095960" lon="-8.6273500">
        <ele>167.6</ele>
        <time>2021-03-20T11:56:58Z</time>
      </trkpt>
      <trkpt lat="41.3096470" lon="-8.6272600">
        <ele>166.4</ele>
        <time>2021-03-20T11:56:59Z</time>
      </trkpt>
      <trkpt lat="41.3097170" lon="-8.6271700">
        <ele>165.0</ele>
        <time>2021-03-20T11:57:00Z</time>
      </trkpt>
      <trkpt lat="41.3097520" lon="-8.6271070">
        <ele>163.4</ele>
        <time>2021-03-20T11:57:01Z</time>
      </trkpt>
      <trkpt lat="41.3097960" lon="-8.6270280">
        <ele>161.8</ele>
        <time>2021-03-20T11:57:02Z</time>
      </trkpt>
      <trkpt lat="41.3099360" lon="-8.6269330">
        <ele>160.6</ele>
        <time>2021-03-20T11:57:03Z</time>
      </trkpt>
      <trkpt lat="41.3101260" lon="-8.6268450">
        <ele>158.6</ele>
        <time>2021-03-20T11:57:04Z</time>
      </trkpt>
      <trkpt lat="41.3103890" lon="-8.6267600">
        <ele>157.0</ele>
        <time>2021-03-20T11:57:05Z</time>
      </trkpt>
      <trkpt lat="41.3107130" lon="-8.6267100">
        <ele>155.6</ele>
        <time>2021-03-20T11:57:06Z</time>
      </trkpt>
      <trkpt lat="41.3108060" lon="-8.6266960">
        <ele>155.6</ele>
        <time>2021-03-20T11:57:07Z</time>
      </trkpt>
      <trkpt lat="41.3109600" lon="-8.6266860">
        <ele>155.6</ele>
        <time>2021-03-20T11:57:08Z</time>
      </trkpt>
      <trkpt lat="41.3111630" lon="-8.6266180">
        <ele>155.6</ele>
        <time>2021-03-20T11:57:09Z</time>
      </trkpt>
      <trkpt lat="41.3112850" lon="-8.6265800">
        <ele>155.6</ele>
        <time>2021-03-20T11:57:10Z</time>
      </trkpt>
      <trkpt lat="41.3114200" lon="-8.6265010">
        <ele>155.6</ele>
        <time>2021-03-20T11:57:11Z</time>
      </trkpt>
      <trkpt lat="41.3115390" lon="-8.6263710">
        <ele>142.8</ele>
        <time>2021-03-20T11:57:12Z</time>
      </trkpt>
      <trkpt lat="41.3116310" lon="-8.6262770">
        <ele>141.2</ele>
        <time>2021-03-20T11:57:13Z</time>
      </trkpt>
      <trkpt lat="41.3117400" lon="-8.6261200">
        <ele>141.2</ele>
        <time>2021-03-20T11:57:14Z</time>
      </trkpt>
      <trkpt lat="41.3118560" lon="-8.6260010">
        <ele>141.2</ele>
        <time>2021-03-20T11:57:15Z</time>
      </trkpt>
      <trkpt lat="41.3119640" lon="-8.6258610">
        <ele>141.2</ele>
        <time>2021-03-20T11:57:16Z</time>
      </trkpt>
      <trkpt lat="41.3120540" lon="-8.6258350">
        <ele>141.2</ele>
        <time>2021-03-20T11:57:17Z</time>
      </trkpt>
      <trkpt lat="41.3122280" lon="-8.6257580">
        <ele>141.2</ele>
        <time>2021-03-20T11:57:18Z</time>
      </trkpt>
      <trkpt lat="41.3122790" lon="-8.6257330">
        <ele>132.4</ele>
        <time>2021-03-20T11:57:19Z</time>
      </trkpt>
      <trkpt lat="41.3123690" lon="-8.6256900">
        <ele>131.4</ele>
        <time>2021-03-20T11:57:20Z</time>
      </trkpt>
      <trkpt lat="41.3124890" lon="-8.6256190">
        <ele>130.2</ele>
        <time>2021-03-20T11:57:21Z</time>
      </trkpt>
      <trkpt lat="41.3125630" lon="-8.6255840">
        <ele>129.4</ele>
        <time>2021-03-20T11:57:22Z</time>
      </trkpt>
      <trkpt lat="41.3126420" lon="-8.6255610">
        <ele>129.0</ele>
        <time>2021-03-20T11:57:23Z</time>
      </trkpt>
      <trkpt lat="41.3127100" lon="-8.6255520">
        <ele>128.6</ele>
        <time>2021-03-20T11:57:24Z</time>
      </trkpt>
      <trkpt lat="41.3127510" lon="-8.6255660">
        <ele>128.2</ele>
        <time>2021-03-20T11:57:25Z</time>
      </trkpt>
      <trkpt lat="41.3127880" lon="-8.6256180">
        <ele>128.2</ele>
        <time>2021-03-20T11:57:26Z</time>
      </trkpt>
      <trkpt lat="41.3128010" lon="-8.6256750">
        <ele>128.4</ele>
        <time>2021-03-20T11:57:27Z</time>
      </trkpt>
      <trkpt lat="41.3128190" lon="-8.6257270">
        <ele>128.8</ele>
        <time>2021-03-20T11:57:28Z</time>
      </trkpt>
      <trkpt lat="41.3128410" lon="-8.6257620">
        <ele>129.4</ele>
        <time>2021-03-20T11:57:29Z</time>
      </trkpt>
      <trkpt lat="41.3128750" lon="-8.6258120">
        <ele>129.8</ele>
        <time>2021-03-20T11:57:30Z</time>
      </trkpt>
      <trkpt lat="41.3128860" lon="-8.6258500">
        <ele>130.0</ele>
        <time>2021-03-20T11:57:31Z</time>
      </trkpt>
      <trkpt lat="41.3128960" lon="-8.6258890">
        <ele>130.6</ele>
        <time>2021-03-20T11:57:32Z</time>
      </trkpt>
      <trkpt lat="41.3128860" lon="-8.6259350">
        <ele>131.0</ele>
        <time>2021-03-20T11:57:33Z</time>
      </trkpt>
      <trkpt lat="41.3128860" lon="-8.6259820">
        <ele>131.2</ele>
        <time>2021-03-20T11:57:34Z</time>
      </trkpt>
      <trkpt lat="41.3128950" lon="-8.6259870">
        <ele>131.6</ele>
        <time>2021-03-20T11:57:35Z</time>
      </trkpt>
      <trkpt lat="41.3128910" lon="-8.6260410">
        <ele>131.8</ele>
        <time>2021-03-20T11:57:36Z</time>
      </trkpt>
      <trkpt lat="41.3129930" lon="-8.6261280">
        <ele>132.2</ele>
        <time>2021-03-20T11:57:37Z</time>
      </trkpt>
      <trkpt lat="41.3129990" lon="-8.6262020">
        <ele>132.6</ele>
        <time>2021-03-20T11:57:38Z</time>
      </trkpt>
      <trkpt lat="41.3129610" lon="-8.6262750">
        <ele>132.8</ele>
        <time>2021-03-20T11:57:39Z</time>
      </trkpt>
      <trkpt lat="41.3129600" lon="-8.6264250">
        <ele>133.2</ele>
        <time>2021-03-20T11:57:40Z</time>
      </trkpt>
      <trkpt lat="41.3129440" lon="-8.6264770">
        <ele>133.2</ele>
        <time>2021-03-20T11:57:41Z</time>
      </trkpt>
      <trkpt lat="41.3129600" lon="-8.6265560">
        <ele>133.6</ele>
        <time>2021-03-20T11:57:42Z</time>
      </trkpt>
      <trkpt lat="41.3129700" lon="-8.6266110">
        <ele>134.0</ele>
        <time>2021-03-20T11:57:43Z</time>
      </trkpt>
      <trkpt lat="41.3129540" lon="-8.6266540">
        <ele>134.4</ele>
        <time>2021-03-20T11:57:44Z</time>
      </trkpt>
      <trkpt lat="41.3129880" lon="-8.6267250">
        <ele>134.8</ele>
        <time>2021-03-20T11:57:45Z</time>
      </trkpt>
      <trkpt lat="41.3130210" lon="-8.6267700">
        <ele>135.0</ele>
        <time>2021-03-20T11:57:46Z</time>
      </trkpt>
      <trkpt lat="41.3130270" lon="-8.6268050">
        <ele>135.4</ele>
        <time>2021-03-20T11:57:47Z</time>
      </trkpt>
      <trkpt lat="41.3130290" lon="-8.6268240">
        <ele>135.6</ele>
        <time>2021-03-20T11:57:48Z</time>
      </trkpt>
      <trkpt lat="41.3130360" lon="-8.6268880">
        <ele>135.8</ele>
        <time>2021-03-20T11:57:49Z</time>
      </trkpt>
      <trkpt lat="41.3130060" lon="-8.6269260">
        <ele>136.0</ele>
        <time>2021-03-20T11:57:50Z</time>
      </trkpt>
      <trkpt lat="41.3129950" lon="-8.6269410">
        <ele>136.0</ele>
        <time>2021-03-20T11:57:51Z</time>
      </trkpt>
      <trkpt lat="41.3129850" lon="-8.6270110">
        <ele>136.0</ele>
        <time>2021-03-20T11:57:52Z</time>
      </trkpt>
      <trkpt lat="41.3129960" lon="-8.6271260">
        <ele>136.2</ele>
        <time>2021-03-20T11:57:53Z</time>
      </trkpt>
      <trkpt lat="41.3129640" lon="-8.6272080">
        <ele>136.4</ele>
        <time>2021-03-20T11:57:54Z</time>
      </trkpt>
      <trkpt lat="41.3129630" lon="-8.6272590">
        <ele>136.4</ele>
        <time>2021-03-20T11:57:55Z</time>
      </trkpt>
      <trkpt lat="41.3129590" lon="-8.6273650">
        <ele>136.6</ele>
        <time>2021-03-20T11:57:56Z</time>
      </trkpt>
      <trkpt lat="41.3129370" lon="-8.6274090">
        <ele>136.8</ele>
        <time>2021-03-20T11:57:57Z</time>
      </trkpt>
      <trkpt lat="41.3129680" lon="-8.6274560">
        <ele>137.0</ele>
        <time>2021-03-20T11:57:58Z</time>
      </trkpt>
      <trkpt lat="41.3129890" lon="-8.6275030">
        <ele>137.4</ele>
        <time>2021-03-20T11:57:59Z</time>
      </trkpt>
      <trkpt lat="41.3129730" lon="-8.6275640">
        <ele>137.6</ele>
        <time>2021-03-20T11:58:00Z</time>
      </trkpt>
      <trkpt lat="41.3130070" lon="-8.6276320">
        <ele>137.8</ele>
        <time>2021-03-20T11:58:01Z</time>
      </trkpt>
      <trkpt lat="41.3130120" lon="-8.6276730">
        <ele>138.2</ele>
        <time>2021-03-20T11:58:02Z</time>
      </trkpt>
      <trkpt lat="41.3130460" lon="-8.6276920">
        <ele>138.6</ele>
        <time>2021-03-20T11:58:03Z</time>
      </trkpt>
      <trkpt lat="41.3130670" lon="-8.6277410">
        <ele>139.0</ele>
        <time>2021-03-20T11:58:04Z</time>
      </trkpt>
      <trkpt lat="41.3130460" lon="-8.6278000">
        <ele>139.2</ele>
        <time>2021-03-20T11:58:05Z</time>
      </trkpt>
      <trkpt lat="41.3130680" lon="-8.6278820">
        <ele>139.6</ele>
        <time>2021-03-20T11:58:06Z</time>
      </trkpt>
      <trkpt lat="41.3131120" lon="-8.6279080">
        <ele>140.0</ele>
        <time>2021-03-20T11:58:07Z</time>
      </trkpt>
      <trkpt lat="41.3130820" lon="-8.6280160">
        <ele>140.2</ele>
        <time>2021-03-20T11:58:08Z</time>
      </trkpt>
      <trkpt lat="41.3130870" lon="-8.6280860">
        <ele>140.8</ele>
        <time>2021-03-20T11:58:09Z</time>
      </trkpt>
      <trkpt lat="41.3130890" lon="-8.6281750">
        <ele>141.2</ele>
        <time>2021-03-20T11:58:10Z</time>
      </trkpt>
      <trkpt lat="41.3130890" lon="-8.6282920">
        <ele>141.6</ele>
        <time>2021-03-20T11:58:11Z</time>
      </trkpt>
      <trkpt lat="41.3131130" lon="-8.6283360">
        <ele>141.8</ele>
        <time>2021-03-20T11:58:12Z</time>
      </trkpt>
      <trkpt lat="41.3131010" lon="-8.6284160">
        <ele>142.0</ele>
        <time>2021-03-20T11:58:13Z</time>
      </trkpt>
      <trkpt lat="41.3131360" lon="-8.6284570">
        <ele>142.4</ele>
        <time>2021-03-20T11:58:14Z</time>
      </trkpt>
      <trkpt lat="41.3131850" lon="-8.6285580">
        <ele>142.6</ele>
        <time>2021-03-20T11:58:15Z</time>
      </trkpt>
      <trkpt lat="41.3131990" lon="-8.6287080">
        <ele>143.0</ele>
        <time>2021-03-20T11:58:16Z</time>
      </trkpt>
      <trkpt lat="41.3132160" lon="-8.6287090">
        <ele>143.2</ele>
        <time>2021-03-20T11:58:17Z</time>
      </trkpt>
      <trkpt lat="41.3132370" lon="-8.6287190">
        <ele>143.4</ele>
        <time>2021-03-20T11:58:18Z</time>
      </trkpt>
      <trkpt lat="41.3132540" lon="-8.6287590">
        <ele>143.6</ele>
        <time>2021-03-20T11:58:19Z</time>
      </trkpt>
      <trkpt lat="41.3132340" lon="-8.6288410">
        <ele>143.6</ele>
        <time>2021-03-20T11:58:20Z</time>
      </trkpt>
      <trkpt lat="41.3132340" lon="-8.6287980">
        <ele>143.6</ele>
        <time>2021-03-20T11:58:21Z</time>
      </trkpt>
      <trkpt lat="41.3132100" lon="-8.6288810">
        <ele>143.8</ele>
        <time>2021-03-20T11:58:22Z</time>
      </trkpt>
      <trkpt lat="41.3132120" lon="-8.6289050">
        <ele>144.0</ele>
        <time>2021-03-20T11:58:23Z</time>
      </trkpt>
      <trkpt lat="41.3132110" lon="-8.6289710">
        <ele>144.0</ele>
        <time>2021-03-20T11:58:24Z</time>
      </trkpt>
      <trkpt lat="41.3132430" lon="-8.6289260">
        <ele>144.2</ele>
        <time>2021-03-20T11:58:25Z</time>
      </trkpt>
      <trkpt lat="41.3132490" lon="-8.6289410">
        <ele>144.4</ele>
        <time>2021-03-20T11:58:26Z</time>
      </trkpt>
      <trkpt lat="41.3132560" lon="-8.6289760">
        <ele>144.4</ele>
        <time>2021-03-20T11:58:27Z</time>
      </trkpt>
      <trkpt lat="41.3132790" lon="-8.6290170">
        <ele>144.4</ele>
        <time>2021-03-20T11:58:28Z</time>
      </trkpt>
      <trkpt lat="41.3132790" lon="-8.6290510">
        <ele>144.8</ele>
        <time>2021-03-20T11:58:29Z</time>
      </trkpt>
      <trkpt lat="41.3132810" lon="-8.6290370">
        <ele>145.0</ele>
        <time>2021-03-20T11:58:30Z</time>
      </trkpt>
      <trkpt lat="41.3132670" lon="-8.6291200">
        <ele>145.2</ele>
        <time>2021-03-20T11:58:31Z</time>
      </trkpt>
      <trkpt lat="41.3132420" lon="-8.6292670">
        <ele>145.4</ele>
        <time>2021-03-20T11:58:32Z</time>
      </trkpt>
      <trkpt lat="41.3132460" lon="-8.6292980">
        <ele>145.8</ele>
        <time>2021-03-20T11:58:33Z</time>
      </trkpt>
      <trkpt lat="41.3132650" lon="-8.6293530">
        <ele>146.2</ele>
        <time>2021-03-20T11:58:34Z</time>
      </trkpt>
      <trkpt lat="41.3132810" lon="-8.6293360">
        <ele>146.4</ele>
        <time>2021-03-20T11:58:35Z</time>
      </trkpt>
      <trkpt lat="41.3132870" lon="-8.6293180">
        <ele>146.6</ele>
        <time>2021-03-20T11:58:36Z</time>
      </trkpt>
      <trkpt lat="41.3132910" lon="-8.6294040">
        <ele>146.8</ele>
        <time>2021-03-20T11:58:37Z</time>
      </trkpt>
      <trkpt lat="41.3132880" lon="-8.6293930">
        <ele>146.8</ele>
        <time>2021-03-20T11:58:38Z</time>
      </trkpt>
      <trkpt lat="41.3132880" lon="-8.6294590">
        <ele>147.2</ele>
        <time>2021-03-20T11:58:39Z</time>
      </trkpt>
      <trkpt lat="41.3133180" lon="-8.6294020">
        <ele>147.6</ele>
        <time>2021-03-20T11:58:40Z</time>
      </trkpt>
      <trkpt lat="41.3133390" lon="-8.6293920">
        <ele>147.8</ele>
        <time>2021-03-20T11:58:41Z</time>
      </trkpt>
      <trkpt lat="41.3133420" lon="-8.6293990">
        <ele>148.0</ele>
        <time>2021-03-20T11:58:42Z</time>
      </trkpt>
      <trkpt lat="41.3133390" lon="-8.6294330">
        <ele>148.4</ele>
        <time>2021-03-20T11:58:43Z</time>
      </trkpt>
      <trkpt lat="41.3133410" lon="-8.6295320">
        <ele>148.6</ele>
        <time>2021-03-20T11:58:44Z</time>
      </trkpt>
      <trkpt lat="41.3133710" lon="-8.6295450">
        <ele>148.8</ele>
        <time>2021-03-20T11:58:45Z</time>
      </trkpt>
      <trkpt lat="41.3133770" lon="-8.6295650">
        <ele>149.0</ele>
        <time>2021-03-20T11:58:46Z</time>
      </trkpt>
      <trkpt lat="41.3133810" lon="-8.6295950">
        <ele>149.2</ele>
        <time>2021-03-20T11:58:47Z</time>
      </trkpt>
      <trkpt lat="41.3133970" lon="-8.6296350">
        <ele>149.4</ele>
        <time>2021-03-20T11:58:48Z</time>
      </trkpt>
      <trkpt lat="41.3134540" lon="-8.6296510">
        <ele>149.8</ele>
        <time>2021-03-20T11:58:49Z</time>
      </trkpt>
      <trkpt lat="41.3134260" lon="-8.6296670">
        <ele>150.0</ele>
        <time>2021-03-20T11:58:50Z</time>
      </trkpt>
      <trkpt lat="41.3134500" lon="-8.6296830">
        <ele>150.2</ele>
        <time>2021-03-20T11:58:51Z</time>
      </trkpt>
      <trkpt lat="41.3134790" lon="-8.6297090">
        <ele>150.4</ele>
        <time>2021-03-20T11:58:52Z</time>
      </trkpt>
      <trkpt lat="41.3134660" lon="-8.6297420">
        <ele>150.8</ele>
        <time>2021-03-20T11:58:53Z</time>
      </trkpt>
      <trkpt lat="41.3134660" lon="-8.6297750">
        <ele>151.0</ele>
        <time>2021-03-20T11:58:54Z</time>
      </trkpt>
      <trkpt lat="41.3134230" lon="-8.6298110">
        <ele>151.2</ele>
        <time>2021-03-20T11:58:55Z</time>
      </trkpt>
      <trkpt lat="41.3134750" lon="-8.6298490">
        <ele>151.4</ele>
        <time>2021-03-20T11:58:56Z</time>
      </trkpt>
      <trkpt lat="41.3134650" lon="-8.6298710">
        <ele>151.8</ele>
        <time>2021-03-20T11:58:57Z</time>
      </trkpt>
      <trkpt lat="41.3134950" lon="-8.6298950">
        <ele>152.0</ele>
        <time>2021-03-20T11:58:58Z</time>
      </trkpt>
      <trkpt lat="41.3135090" lon="-8.6299160">
        <ele>152.2</ele>
        <time>2021-03-20T11:58:59Z</time>
      </trkpt>
      <trkpt lat="41.3135050" lon="-8.6299550">
        <ele>152.4</ele>
        <time>2021-03-20T11:59:00Z</time>
      </trkpt>
      <trkpt lat="41.3135350" lon="-8.6299810">
        <ele>152.8</ele>
        <time>2021-03-20T11:59:01Z</time>
      </trkpt>
      <trkpt lat="41.3135640" lon="-8.6300020">
        <ele>153.2</ele>
        <time>2021-03-20T11:59:02Z</time>
      </trkpt>
      <trkpt lat="41.3135710" lon="-8.6300290">
        <ele>153.4</ele>
        <time>2021-03-20T11:59:03Z</time>
      </trkpt>
      <trkpt lat="41.3135730" lon="-8.6300610">
        <ele>153.6</ele>
        <time>2021-03-20T11:59:04Z</time>
      </trkpt>
      <trkpt lat="41.3135810" lon="-8.6301030">
        <ele>154.0</ele>
        <time>2021-03-20T11:59:05Z</time>
      </trkpt>
      <trkpt lat="41.3135960" lon="-8.6301290">
        <ele>154.2</ele>
        <time>2021-03-20T11:59:06Z</time>
      </trkpt>
      <trkpt lat="41.3136010" lon="-8.6301450">
        <ele>154.6</ele>
        <time>2021-03-20T11:59:07Z</time>
      </trkpt>
      <trkpt lat="41.3136120" lon="-8.6301720">
        <ele>154.8</ele>
        <time>2021-03-20T11:59:08Z</time>
      </trkpt>
      <trkpt lat="41.3136070" lon="-8.6302030">
        <ele>155.2</ele>
        <time>2021-03-20T11:59:09Z</time>
      </trkpt>
      <trkpt lat="41.3136150" lon="-8.6302290">
        <ele>155.4</ele>
        <time>2021-03-20T11:59:10Z</time>
      </trkpt>
      <trkpt lat="41.3136170" lon="-8.6302590">
        <ele>155.6</ele>
        <time>2021-03-20T11:59:11Z</time>
      </trkpt>
      <trkpt lat="41.3136240" lon="-8.6302700">
        <ele>156.0</ele>
        <time>2021-03-20T11:59:12Z</time>
      </trkpt>
      <trkpt lat="41.3136340" lon="-8.6302980">
        <ele>156.2</ele>
        <time>2021-03-20T11:59:13Z</time>
      </trkpt>
      <trkpt lat="41.3136390" lon="-8.6303390">
        <ele>156.4</ele>
        <time>2021-03-20T11:59:14Z</time>
      </trkpt>
      <trkpt lat="41.3136520" lon="-8.6303750">
        <ele>156.4</ele>
        <time>2021-03-20T11:59:15Z</time>
      </trkpt>
      <trkpt lat="41.3136600" lon="-8.6303960">
        <ele>156.6</ele>
        <time>2021-03-20T11:59:16Z</time>
      </trkpt>
      <trkpt lat="41.3136660" lon="-8.6304170">
        <ele>156.8</ele>
        <time>2021-03-20T11:59:17Z</time>
      </trkpt>
      <trkpt lat="41.3136800" lon="-8.6304370">
        <ele>157.0</ele>
        <time>2021-03-20T11:59:18Z</time>
      </trkpt>
      <trkpt lat="41.3136860" lon="-8.6304460">
        <ele>157.2</ele>
        <time>2021-03-20T11:59:19Z</time>
      </trkpt>
      <trkpt lat="41.3137020" lon="-8.6304600">
        <ele>157.2</ele>
        <time>2021-03-20T11:59:20Z</time>
      </trkpt>
      <trkpt lat="41.3137120" lon="-8.6304740">
        <ele>157.4</ele>
        <time>2021-03-20T11:59:21Z</time>
      </trkpt>
      <trkpt lat="41.3137250" lon="-8.6305020">
        <ele>157.6</ele>
        <time>2021-03-20T11:59:22Z</time>
      </trkpt>
      <trkpt lat="41.3137210" lon="-8.6305270">
        <ele>157.6</ele>
        <time>2021-03-20T11:59:23Z</time>
      </trkpt>
      <trkpt lat="41.3137300" lon="-8.6305550">
        <ele>157.8</ele>
        <time>2021-03-20T11:59:24Z</time>
      </trkpt>
      <trkpt lat="41.3137390" lon="-8.6306060">
        <ele>157.8</ele>
        <time>2021-03-20T11:59:25Z</time>
      </trkpt>
      <trkpt lat="41.3137470" lon="-8.6306440">
        <ele>158.0</ele>
        <time>2021-03-20T11:59:26Z</time>
      </trkpt>
      <trkpt lat="41.3137510" lon="-8.6306730">
        <ele>158.0</ele>
        <time>2021-03-20T11:59:27Z</time>
      </trkpt>
      <trkpt lat="41.3137580" lon="-8.6307180">
        <ele>158.2</ele>
        <time>2021-03-20T11:59:28Z</time>
      </trkpt>
      <trkpt lat="41.3137630" lon="-8.6307690">
        <ele>158.2</ele>
        <time>2021-03-20T11:59:29Z</time>
      </trkpt>
      <trkpt lat="41.3137800" lon="-8.6308010">
        <ele>158.2</ele>
        <time>2021-03-20T11:59:30Z</time>
      </trkpt>
      <trkpt lat="41.3137880" lon="-8.6308320">
        <ele>158.2</ele>
        <time>2021-03-20T11:59:31Z</time>
      </trkpt>
      <trkpt lat="41.3137890" lon="-8.6308770">
        <ele>158.2</ele>
        <time>2021-03-20T11:59:32Z</time>
      </trkpt>
      <trkpt lat="41.3138100" lon="-8.6308840">
        <ele>158.2</ele>
        <time>2021-03-20T11:59:33Z</time>
      </trkpt>
      <trkpt lat="41.3138160" lon="-8.6309080">
        <ele>158.2</ele>
        <time>2021-03-20T11:59:34Z</time>
      </trkpt>
      <trkpt lat="41.3138430" lon="-8.6309450">
        <ele>158.2</ele>
        <time>2021-03-20T11:59:35Z</time>
      </trkpt>
      <trkpt lat="41.3138520" lon="-8.6309850">
        <ele>158.0</ele>
        <time>2021-03-20T11:59:36Z</time>
      </trkpt>
      <trkpt lat="41.3138620" lon="-8.6310310">
        <ele>158.0</ele>
        <time>2021-03-20T11:59:37Z</time>
      </trkpt>
      <trkpt lat="41.3138920" lon="-8.6310840">
        <ele>157.6</ele>
        <time>2021-03-20T11:59:38Z</time>
      </trkpt>
      <trkpt lat="41.3138720" lon="-8.6312190">
        <ele>157.4</ele>
        <time>2021-03-20T11:59:39Z</time>
      </trkpt>
      <trkpt lat="41.3138720" lon="-8.6312190">
        <ele>157.0</ele>
        <time>2021-03-20T11:59:40Z</time>
      </trkpt>
      <trkpt lat="41.3138720" lon="-8.6312190">
        <ele>156.4</ele>
        <time>2021-03-20T11:59:41Z</time>
      </trkpt>
      <trkpt lat="41.3138720" lon="-8.6312190">
        <ele>156.0</ele>
        <time>2021-03-20T11:59:42Z</time>
      </trkpt>
      <trkpt lat="41.3138720" lon="-8.6312190">
        <ele>155.4</ele>
        <time>2021-03-20T11:59:43Z</time>
      </trkpt>
      <trkpt lat="41.3138720" lon="-8.6312190">
        <ele>155.0</ele>
        <time>2021-03-20T11:59:44Z</time>
      </trkpt>
      <trkpt lat="41.3137250" lon="-8.6321780">
        <ele>154.6</ele>
        <time>2021-03-20T11:59:45Z</time>
      </trkpt>
      <trkpt lat="41.3136930" lon="-8.6322960">
        <ele>154.4</ele>
        <time>2021-03-20T11:59:46Z</time>
      </trkpt>
      <trkpt lat="41.3137310" lon="-8.6324500">
        <ele>154.2</ele>
        <time>2021-03-20T11:59:47Z</time>
      </trkpt>
      <trkpt lat="41.3137530" lon="-8.6325410">
        <ele>154.0</ele>
        <time>2021-03-20T11:59:48Z</time>
      </trkpt>
      <trkpt lat="41.3137440" lon="-8.6326890">
        <ele>153.8</ele>
        <time>2021-03-20T11:59:49Z</time>
      </trkpt>
      <trkpt lat="41.3137400" lon="-8.6328040">
        <ele>153.8</ele>
        <time>2021-03-20T11:59:50Z</time>
      </trkpt>
      <trkpt lat="41.3137440" lon="-8.6329210">
        <ele>153.6</ele>
        <time>2021-03-20T11:59:51Z</time>
      </trkpt>
      <trkpt lat="41.3137510" lon="-8.6330210">
        <ele>154.0</ele>
        <time>2021-03-20T11:59:52Z</time>
      </trkpt>
      <trkpt lat="41.3137870" lon="-8.6330980">
        <ele>154.0</ele>
        <time>2021-03-20T11:59:53Z</time>
      </trkpt>
      <trkpt lat="41.3138210" lon="-8.6331910">
        <ele>154.0</ele>
        <time>2021-03-20T11:59:54Z</time>
      </trkpt>
      <trkpt lat="41.3138780" lon="-8.6332630">
        <ele>154.2</ele>
        <time>2021-03-20T11:59:55Z</time>
      </trkpt>
      <trkpt lat="41.3139090" lon="-8.6333340">
        <ele>154.2</ele>
        <time>2021-03-20T11:59:56Z</time>
      </trkpt>
      <trkpt lat="41.3139410" lon="-8.6333790">
        <ele>154.4</ele>
        <time>2021-03-20T11:59:57Z</time>
      </trkpt>
      <trkpt lat="41.3139830" lon="-8.6334220">
        <ele>154.6</ele>
        <time>2021-03-20T11:59:58Z</time>
      </trkpt>
      <trkpt lat="41.3140000" lon="-8.6334860">
        <ele>154.4</ele>
        <time>2021-03-20T11:59:59Z</time>
      </trkpt>
      <trkpt lat="41.3140460" lon="-8.6335300">
        <ele>154.6</ele>
        <time>2021-03-20T12:00:00Z</time>
      </trkpt>
      <trkpt lat="41.3140620" lon="-8.6335870">
        <ele>154.6</ele>
        <time>2021-03-20T12:00:01Z</time>
      </trkpt>
      <trkpt lat="41.3141200" lon="-8.6336540">
        <ele>154.4</ele>
        <time>2021-03-20T12:00:02Z</time>
      </trkpt>
      <trkpt lat="41.3141910" lon="-8.6337090">
        <ele>154.4</ele>
        <time>2021-03-20T12:00:03Z</time>
      </trkpt>
      <trkpt lat="41.3142060" lon="-8.6337590">
        <ele>154.4</ele>
        <time>2021-03-20T12:00:04Z</time>
      </trkpt>
      <trkpt lat="41.3142470" lon="-8.6338250">
        <ele>154.6</ele>
        <time>2021-03-20T12:00:05Z</time>
      </trkpt>
      <trkpt lat="41.3142980" lon="-8.6338850">
        <ele>154.8</ele>
        <time>2021-03-20T12:00:06Z</time>
      </trkpt>
      <trkpt lat="41.3143930" lon="-8.6340240">
        <ele>155.0</ele>
        <time>2021-03-20T12:00:07Z</time>
      </trkpt>
      <trkpt lat="41.3144320" lon="-8.6340600">
        <ele>155.0</ele>
        <time>2021-03-20T12:00:08Z</time>
      </trkpt>
      <trkpt lat="41.3144790" lon="-8.6340850">
        <ele>155.0</ele>
        <time>2021-03-20T12:00:09Z</time>
      </trkpt>
      <trkpt lat="41.3145270" lon="-8.6341140">
        <ele>155.0</ele>
        <time>2021-03-20T12:00:10Z</time>
      </trkpt>
      <trkpt lat="41.3145740" lon="-8.6341460">
        <ele>155.2</ele>
        <time>2021-03-20T12:00:11Z</time>
      </trkpt>
      <trkpt lat="41.3146200" lon="-8.6341720">
        <ele>155.4</ele>
        <time>2021-03-20T12:00:12Z</time>
      </trkpt>
      <trkpt lat="41.3146640" lon="-8.6341980">
        <ele>155.2</ele>
        <time>2021-03-20T12:00:13Z</time>
      </trkpt>
      <trkpt lat="41.3147080" lon="-8.6342270">
        <ele>155.2</ele>
        <time>2021-03-20T12:00:14Z</time>
      </trkpt>
      <trkpt lat="41.3147520" lon="-8.6342550">
        <ele>155.0</ele>
        <time>2021-03-20T12:00:15Z</time>
      </trkpt>
      <trkpt lat="41.3147970" lon="-8.6342850">
        <ele>154.8</ele>
        <time>2021-03-20T12:00:16Z</time>
      </trkpt>
      <trkpt lat="41.3148440" lon="-8.6343100">
        <ele>154.6</ele>
        <time>2021-03-20T12:00:17Z</time>
      </trkpt>
      <trkpt lat="41.3148930" lon="-8.6343430">
        <ele>154.6</ele>
        <time>2021-03-20T12:00:18Z</time>
      </trkpt>
      <trkpt lat="41.3149410" lon="-8.6343760">
        <ele>154.4</ele>
        <time>2021-03-20T12:00:19Z</time>
      </trkpt>
      <trkpt lat="41.3149910" lon="-8.6344080">
        <ele>154.2</ele>
        <time>2021-03-20T12:00:20Z</time>
      </trkpt>
      <trkpt lat="41.3150490" lon="-8.6344400">
        <ele>153.8</ele>
        <time>2021-03-20T12:00:21Z</time>
      </trkpt>
      <trkpt lat="41.3151030" lon="-8.6344740">
        <ele>153.6</ele>
        <time>2021-03-20T12:00:22Z</time>
      </trkpt>
      <trkpt lat="41.3151560" lon="-8.6345110">
        <ele>153.2</ele>
        <time>2021-03-20T12:00:23Z</time>
      </trkpt>
      <trkpt lat="41.3152120" lon="-8.6345480">
        <ele>153.0</ele>
        <time>2021-03-20T12:00:24Z</time>
      </trkpt>
      <trkpt lat="41.3152700" lon="-8.6345860">
        <ele>152.8</ele>
        <time>2021-03-20T12:00:25Z</time>
      </trkpt>
      <trkpt lat="41.3153290" lon="-8.6346230">
        <ele>152.6</ele>
        <time>2021-03-20T12:00:26Z</time>
      </trkpt>
      <trkpt lat="41.3153910" lon="-8.6346570">
        <ele>152.2</ele>
        <time>2021-03-20T12:00:27Z</time>
      </trkpt>
      <trkpt lat="41.3154570" lon="-8.6346760">
        <ele>151.8</ele>
        <time>2021-03-20T12:00:28Z</time>
      </trkpt>
      <trkpt lat="41.3155260" lon="-8.6346920">
        <ele>151.6</ele>
        <time>2021-03-20T12:00:29Z</time>
      </trkpt>
      <trkpt lat="41.3155940" lon="-8.6347150">
        <ele>151.4</ele>
        <time>2021-03-20T12:00:30Z</time>
      </trkpt>
      <trkpt lat="41.3156620" lon="-8.6347310">
        <ele>151.0</ele>
        <time>2021-03-20T12:00:31Z</time>
      </trkpt>
      <trkpt lat="41.3157340" lon="-8.6347460">
        <ele>150.6</ele>
        <time>2021-03-20T12:00:32Z</time>
      </trkpt>
      <trkpt lat="41.3158080" lon="-8.6347580">
        <ele>150.4</ele>
        <time>2021-03-20T12:00:33Z</time>
      </trkpt>
      <trkpt lat="41.3158850" lon="-8.6347670">
        <ele>150.0</ele>
        <time>2021-03-20T12:00:34Z</time>
      </trkpt>
      <trkpt lat="41.3159620" lon="-8.6347700">
        <ele>149.8</ele>
        <time>2021-03-20T12:00:35Z</time>
      </trkpt>
      <trkpt lat="41.3160420" lon="-8.6347700">
        <ele>149.6</ele>
        <time>2021-03-20T12:00:36Z</time>
      </trkpt>
      <trkpt lat="41.3161200" lon="-8.6347640">
        <ele>149.2</ele>
        <time>2021-03-20T12:00:37Z</time>
      </trkpt>
      <trkpt lat="41.3161990" lon="-8.6347610">
        <ele>148.8</ele>
        <time>2021-03-20T12:00:38Z</time>
      </trkpt>
      <trkpt lat="41.3162800" lon="-8.6347560">
        <ele>148.6</ele>
        <time>2021-03-20T12:00:39Z</time>
      </trkpt>
      <trkpt lat="41.3164160" lon="-8.6347540">
        <ele>148.2</ele>
        <time>2021-03-20T12:00:40Z</time>
      </trkpt>
      <trkpt lat="41.3165230" lon="-8.6347540">
        <ele>147.8</ele>
        <time>2021-03-20T12:00:41Z</time>
      </trkpt>
      <trkpt lat="41.3166080" lon="-8.6347470">
        <ele>147.6</ele>
        <time>2021-03-20T12:00:42Z</time>
      </trkpt>
      <trkpt lat="41.3167070" lon="-8.6347500">
        <ele>147.2</ele>
        <time>2021-03-20T12:00:43Z</time>
      </trkpt>
      <trkpt lat="41.3167980" lon="-8.6347480">
        <ele>146.8</ele>
        <time>2021-03-20T12:00:44Z</time>
      </trkpt>
      <trkpt lat="41.3168860" lon="-8.6347430">
        <ele>146.4</ele>
        <time>2021-03-20T12:00:45Z</time>
      </trkpt>
      <trkpt lat="41.3169600" lon="-8.6347340">
        <ele>146.2</ele>
        <time>2021-03-20T12:00:46Z</time>
      </trkpt>
      <trkpt lat="41.3170620" lon="-8.6347380">
        <ele>145.8</ele>
        <time>2021-03-20T12:00:47Z</time>
      </trkpt>
      <trkpt lat="41.3171360" lon="-8.6347190">
        <ele>145.8</ele>
        <time>2021-03-20T12:00:48Z</time>
      </trkpt>
      <trkpt lat="41.3171990" lon="-8.6347440">
        <ele>145.6</ele>
        <time>2021-03-20T12:00:49Z</time>
      </trkpt>
      <trkpt lat="41.3172490" lon="-8.6347940">
        <ele>145.4</ele>
        <time>2021-03-20T12:00:50Z</time>
      </trkpt>
      <trkpt lat="41.3173110" lon="-8.6348050">
        <ele>145.4</ele>
        <time>2021-03-20T12:00:51Z</time>
      </trkpt>
      <trkpt lat="41.3174170" lon="-8.6347940">
        <ele>145.4</ele>
        <time>2021-03-20T12:00:52Z</time>
      </trkpt>
      <trkpt lat="41.3174440" lon="-8.6347440">
        <ele>145.2</ele>
        <time>2021-03-20T12:00:53Z</time>
      </trkpt>
      <trkpt lat="41.3175300" lon="-8.6347290">
        <ele>144.6</ele>
        <time>2021-03-20T12:00:54Z</time>
      </trkpt>
      <trkpt lat="41.3175900" lon="-8.6347460">
        <ele>144.4</ele>
        <time>2021-03-20T12:00:55Z</time>
      </trkpt>
      <trkpt lat="41.3176520" lon="-8.6347110">
        <ele>144.2</ele>
        <time>2021-03-20T12:00:56Z</time>
      </trkpt>
      <trkpt lat="41.3177280" lon="-8.6347120">
        <ele>144.2</ele>
        <time>2021-03-20T12:00:57Z</time>
      </trkpt>
      <trkpt lat="41.3177850" lon="-8.6346740">
        <ele>144.2</ele>
        <time>2021-03-20T12:00:58Z</time>
      </trkpt>
      <trkpt lat="41.3178940" lon="-8.6346800">
        <ele>144.0</ele>
        <time>2021-03-20T12:00:59Z</time>
      </trkpt>
      <trkpt lat="41.3179830" lon="-8.6346980">
        <ele>143.8</ele>
        <time>2021-03-20T12:01:00Z</time>
      </trkpt>
      <trkpt lat="41.3180870" lon="-8.6347190">
        <ele>143.6</ele>
        <time>2021-03-20T12:01:01Z</time>
      </trkpt>
      <trkpt lat="41.3182020" lon="-8.6347510">
        <ele>143.6</ele>
        <time>2021-03-20T12:01:02Z</time>
      </trkpt>
      <trkpt lat="41.3182820" lon="-8.6347850">
        <ele>143.6</ele>
        <time>2021-03-20T12:01:03Z</time>
      </trkpt>
      <trkpt lat="41.3183300" lon="-8.6348430">
        <ele>143.6</ele>
        <time>2021-03-20T12:01:04Z</time>
      </trkpt>
      <trkpt lat="41.3184140" lon="-8.6349170">
        <ele>143.6</ele>
        <time>2021-03-20T12:01:05Z</time>
      </trkpt>
      <trkpt lat="41.3184590" lon="-8.6349820">
        <ele>143.6</ele>
        <time>2021-03-20T12:01:06Z</time>
      </trkpt>
      <trkpt lat="41.3185110" lon="-8.6350280">
        <ele>143.4</ele>
        <time>2021-03-20T12:01:07Z</time>
      </trkpt>
      <trkpt lat="41.3185670" lon="-8.6351040">
        <ele>143.4</ele>
        <time>2021-03-20T12:01:08Z</time>
      </trkpt>
      <trkpt lat="41.3186230" lon="-8.6351790">
        <ele>143.6</ele>
        <time>2021-03-20T12:01:09Z</time>
      </trkpt>
      <trkpt lat="41.3186400" lon="-8.6352490">
        <ele>143.4</ele>
        <time>2021-03-20T12:01:10Z</time>
      </trkpt>
      <trkpt lat="41.3186960" lon="-8.6353390">
        <ele>143.4</ele>
        <time>2021-03-20T12:01:11Z</time>
      </trkpt>
      <trkpt lat="41.3187170" lon="-8.6353780">
        <ele>143.0</ele>
        <time>2021-03-20T12:01:12Z</time>
      </trkpt>
      <trkpt lat="41.3188920" lon="-8.6355090">
        <ele>142.4</ele>
        <time>2021-03-20T12:01:13Z</time>
      </trkpt>
      <trkpt lat="41.3190310" lon="-8.6355840">
        <ele>141.6</ele>
        <time>2021-03-20T12:01:14Z</time>
      </trkpt>
      <trkpt lat="41.3190930" lon="-8.6356680">
        <ele>141.0</ele>
        <time>2021-03-20T12:01:15Z</time>
      </trkpt>
      <trkpt lat="41.3190940" lon="-8.6357260">
        <ele>140.4</ele>
        <time>2021-03-20T12:01:16Z</time>
      </trkpt>
      <trkpt lat="41.3191340" lon="-8.6358260">
        <ele>139.6</ele>
        <time>2021-03-20T12:01:17Z</time>
      </trkpt>
      <trkpt lat="41.3192300" lon="-8.6358950">
        <ele>139.2</ele>
        <time>2021-03-20T12:01:18Z</time>
      </trkpt>
      <trkpt lat="41.3192290" lon="-8.6359680">
        <ele>138.6</ele>
        <time>2021-03-20T12:01:19Z</time>
      </trkpt>
      <trkpt lat="41.3192800" lon="-8.6360320">
        <ele>138.2</ele>
        <time>2021-03-20T12:01:20Z</time>
      </trkpt>
      <trkpt lat="41.3193640" lon="-8.6361030">
        <ele>137.2</ele>
        <time>2021-03-20T12:01:21Z</time>
      </trkpt>
      <trkpt lat="41.3194220" lon="-8.6362020">
        <ele>136.6</ele>
        <time>2021-03-20T12:01:22Z</time>
      </trkpt>
      <trkpt lat="41.3194670" lon="-8.6363100">
        <ele>135.8</ele>
        <time>2021-03-20T12:01:23Z</time>
      </trkpt>
      <trkpt lat="41.3195550" lon="-8.6363820">
        <ele>135.0</ele>
        <time>2021-03-20T12:01:24Z</time>
      </trkpt>
      <trkpt lat="41.3196120" lon="-8.6364970">
        <ele>134.0</ele>
        <time>2021-03-20T12:01:25Z</time>
      </trkpt>
      <trkpt lat="41.3196670" lon="-8.6365690">
        <ele>133.6</ele>
        <time>2021-03-20T12:01:26Z</time>
      </trkpt>
      <trkpt lat="41.3196880" lon="-8.6366730">
        <ele>132.8</ele>
        <time>2021-03-20T12:01:27Z</time>
      </trkpt>
      <trkpt lat="41.3197520" lon="-8.6368010">
        <ele>132.2</ele>
        <time>2021-03-20T12:01:28Z</time>
      </trkpt>
      <trkpt lat="41.3198660" lon="-8.6368970">
        <ele>131.6</ele>
        <time>2021-03-20T12:01:29Z</time>
      </trkpt>
      <trkpt lat="41.3199220" lon="-8.6369980">
        <ele>130.8</ele>
        <time>2021-03-20T12:01:30Z</time>
      </trkpt>
      <trkpt lat="41.3199810" lon="-8.6371810">
        <ele>130.0</ele>
        <time>2021-03-20T12:01:31Z</time>
      </trkpt>
      <trkpt lat="41.3200310" lon="-8.6373420">
        <ele>129.4</ele>
        <time>2021-03-20T12:01:32Z</time>
      </trkpt>
      <trkpt lat="41.3201080" lon="-8.6374690">
        <ele>128.2</ele>
        <time>2021-03-20T12:01:33Z</time>
      </trkpt>
      <trkpt lat="41.3201820" lon="-8.6376110">
        <ele>127.2</ele>
        <time>2021-03-20T12:01:34Z</time>
      </trkpt>
      <trkpt lat="41.3201870" lon="-8.6377070">
        <ele>127.6</ele>
        <time>2021-03-20T12:01:35Z</time>
      </trkpt>
      <trkpt lat="41.3202680" lon="-8.6378500">
        <ele>126.0</ele>
        <time>2021-03-20T12:01:36Z</time>
      </trkpt>
      <trkpt lat="41.3203050" lon="-8.6379500">
        <ele>125.0</ele>
        <time>2021-03-20T12:01:37Z</time>
      </trkpt>
      <trkpt lat="41.3203230" lon="-8.6381400">
        <ele>124.2</ele>
        <time>2021-03-20T12:01:38Z</time>
      </trkpt>
      <trkpt lat="41.3203380" lon="-8.6382480">
        <ele>123.0</ele>
        <time>2021-03-20T12:01:39Z</time>
      </trkpt>
      <trkpt lat="41.3203600" lon="-8.6383530">
        <ele>122.6</ele>
        <time>2021-03-20T12:01:40Z</time>
      </trkpt>
      <trkpt lat="41.3204080" lon="-8.6385440">
        <ele>122.0</ele>
        <time>2021-03-20T12:01:41Z</time>
      </trkpt>
      <trkpt lat="41.3204220" lon="-8.6386640">
        <ele>121.6</ele>
        <time>2021-03-20T12:01:42Z</time>
      </trkpt>
      <trkpt lat="41.3204700" lon="-8.6388160">
        <ele>121.0</ele>
        <time>2021-03-20T12:01:43Z</time>
      </trkpt>
      <trkpt lat="41.3204540" lon="-8.6389790">
        <ele>120.4</ele>
        <time>2021-03-20T12:01:44Z</time>
      </trkpt>
      <trkpt lat="41.3205140" lon="-8.6390860">
        <ele>119.6</ele>
        <time>2021-03-20T12:01:45Z</time>
      </trkpt>
      <trkpt lat="41.3205780" lon="-8.6392580">
        <ele>118.6</ele>
        <time>2021-03-20T12:01:46Z</time>
      </trkpt>
      <trkpt lat="41.3205830" lon="-8.6394150">
        <ele>117.8</ele>
        <time>2021-03-20T12:01:47Z</time>
      </trkpt>
      <trkpt lat="41.3206470" lon="-8.6395310">
        <ele>117.2</ele>
        <time>2021-03-20T12:01:48Z</time>
      </trkpt>
      <trkpt lat="41.3207750" lon="-8.6397500">
        <ele>116.6</ele>
        <time>2021-03-20T12:01:49Z</time>
      </trkpt>
      <trkpt lat="41.3208570" lon="-8.6398260">
        <ele>115.6</ele>
        <time>2021-03-20T12:01:50Z</time>
      </trkpt>
      <trkpt lat="41.3209460" lon="-8.6399530">
        <ele>114.4</ele>
        <time>2021-03-20T12:01:51Z</time>
      </trkpt>
      <trkpt lat="41.3210390" lon="-8.6400750">
        <ele>113.4</ele>
        <time>2021-03-20T12:01:52Z</time>
      </trkpt>
      <trkpt lat="41.3210830" lon="-8.6401890">
        <ele>112.4</ele>
        <time>2021-03-20T12:01:53Z</time>
      </trkpt>
      <trkpt lat="41.3211170" lon="-8.6403220">
        <ele>111.4</ele>
        <time>2021-03-20T12:01:54Z</time>
      </trkpt>
      <trkpt lat="41.3211560" lon="-8.6404670">
        <ele>110.8</ele>
        <time>2021-03-20T12:01:55Z</time>
      </trkpt>
      <trkpt lat="41.3212060" lon="-8.6406190">
        <ele>109.8</ele>
        <time>2021-03-20T12:01:56Z</time>
      </trkpt>
      <trkpt lat="41.3212440" lon="-8.6407030">
        <ele>109.2</ele>
        <time>2021-03-20T12:01:57Z</time>
      </trkpt>
      <trkpt lat="41.3213110" lon="-8.6409120">
        <ele>108.4</ele>
        <time>2021-03-20T12:01:58Z</time>
      </trkpt>
      <trkpt lat="41.3213930" lon="-8.6410010">
        <ele>107.8</ele>
        <time>2021-03-20T12:01:59Z</time>
      </trkpt>
      <trkpt lat="41.3215160" lon="-8.6411480">
        <ele>107.0</ele>
        <time>2021-03-20T12:02:00Z</time>
      </trkpt>
      <trkpt lat="41.3215940" lon="-8.6412250">
        <ele>106.0</ele>
        <time>2021-03-20T12:02:01Z</time>
      </trkpt>
      <trkpt lat="41.3216840" lon="-8.6412970">
        <ele>105.4</ele>
        <time>2021-03-20T12:02:02Z</time>
      </trkpt>
      <trkpt lat="41.3217520" lon="-8.6414590">
        <ele>104.8</ele>
        <time>2021-03-20T12:02:03Z</time>
      </trkpt>
      <trkpt lat="41.3218810" lon="-8.6416450">
        <ele>103.8</ele>
        <time>2021-03-20T12:02:04Z</time>
      </trkpt>
      <trkpt lat="41.3219760" lon="-8.6417560">
        <ele>102.0</ele>
        <time>2021-03-20T12:02:05Z</time>
      </trkpt>
      <trkpt lat="41.3220760" lon="-8.6418900">
        <ele>101.2</ele>
        <time>2021-03-20T12:02:06Z</time>
      </trkpt>
      <trkpt lat="41.3221350" lon="-8.6420080">
        <ele>100.4</ele>
        <time>2021-03-20T12:02:07Z</time>
      </trkpt>
      <trkpt lat="41.3222090" lon="-8.6421350">
        <ele>99.6</ele>
        <time>2021-03-20T12:02:08Z</time>
      </trkpt>
      <trkpt lat="41.3222770" lon="-8.6423100">
        <ele>98.4</ele>
        <time>2021-03-20T12:02:09Z</time>
      </trkpt>
      <trkpt lat="41.3223380" lon="-8.6424800">
        <ele>97.6</ele>
        <time>2021-03-20T12:02:10Z</time>
      </trkpt>
      <trkpt lat="41.3224030" lon="-8.6427200">
        <ele>96.8</ele>
        <time>2021-03-20T12:02:11Z</time>
      </trkpt>
      <trkpt lat="41.3224300" lon="-8.6427760">
        <ele>95.8</ele>
        <time>2021-03-20T12:02:12Z</time>
      </trkpt>
      <trkpt lat="41.3224230" lon="-8.6429620">
        <ele>95.0</ele>
        <time>2021-03-20T12:02:13Z</time>
      </trkpt>
      <trkpt lat="41.3224490" lon="-8.6431600">
        <ele>93.6</ele>
        <time>2021-03-20T12:02:14Z</time>
      </trkpt>
      <trkpt lat="41.3225050" lon="-8.6433400">
        <ele>93.2</ele>
        <time>2021-03-20T12:02:15Z</time>
      </trkpt>
      <trkpt lat="41.3224930" lon="-8.6434800">
        <ele>92.0</ele>
        <time>2021-03-20T12:02:16Z</time>
      </trkpt>
      <trkpt lat="41.3224940" lon="-8.6436770">
        <ele>91.2</ele>
        <time>2021-03-20T12:02:17Z</time>
      </trkpt>
      <trkpt lat="41.3225250" lon="-8.6438590">
        <ele>89.6</ele>
        <time>2021-03-20T12:02:18Z</time>
      </trkpt>
      <trkpt lat="41.3225970" lon="-8.6439860">
        <ele>88.8</ele>
        <time>2021-03-20T12:02:19Z</time>
      </trkpt>
      <trkpt lat="41.3226630" lon="-8.6441120">
        <ele>87.2</ele>
        <time>2021-03-20T12:02:20Z</time>
      </trkpt>
      <trkpt lat="41.3227370" lon="-8.6441980">
        <ele>86.6</ele>
        <time>2021-03-20T12:02:21Z</time>
      </trkpt>
      <trkpt lat="41.3229110" lon="-8.6443460">
        <ele>86.0</ele>
        <time>2021-03-20T12:02:22Z</time>
      </trkpt>
      <trkpt lat="41.3230210" lon="-8.6444500">
        <ele>85.4</ele>
        <time>2021-03-20T12:02:23Z</time>
      </trkpt>
      <trkpt lat="41.3230980" lon="-8.6445240">
        <ele>84.6</ele>
        <time>2021-03-20T12:02:24Z</time>
      </trkpt>
      <trkpt lat="41.3232390" lon="-8.6446090">
        <ele>83.8</ele>
        <time>2021-03-20T12:02:25Z</time>
      </trkpt>
      <trkpt lat="41.3233570" lon="-8.6446250">
        <ele>83.2</ele>
        <time>2021-03-20T12:02:26Z</time>
      </trkpt>
      <trkpt lat="41.3234680" lon="-8.6446410">
        <ele>82.8</ele>
        <time>2021-03-20T12:02:27Z</time>
      </trkpt>
      <trkpt lat="41.3235510" lon="-8.6446450">
        <ele>82.6</ele>
        <time>2021-03-20T12:02:28Z</time>
      </trkpt>
      <trkpt lat="41.3236820" lon="-8.6447260">
        <ele>82.2</ele>
        <time>2021-03-20T12:02:29Z</time>
      </trkpt>
      <trkpt lat="41.3237880" lon="-8.6447800">
        <ele>81.6</ele>
        <time>2021-03-20T12:02:30Z</time>
      </trkpt>
      <trkpt lat="41.3238980" lon="-8.6448790">
        <ele>81.4</ele>
        <time>2021-03-20T12:02:31Z</time>
      </trkpt>
      <trkpt lat="41.3239350" lon="-8.6449510">
        <ele>81.2</ele>
        <time>2021-03-20T12:02:32Z</time>
      </trkpt>
      <trkpt lat="41.3239480" lon="-8.6450590">
        <ele>80.8</ele>
        <time>2021-03-20T12:02:33Z</time>
      </trkpt>
      <trkpt lat="41.3239580" lon="-8.6451580">
        <ele>80.4</ele>
        <time>2021-03-20T12:02:34Z</time>
      </trkpt>
      <trkpt lat="41.3239750" lon="-8.6452750">
        <ele>80.0</ele>
        <time>2021-03-20T12:02:35Z</time>
      </trkpt>
      <trkpt lat="41.3239970" lon="-8.6454100">
        <ele>79.8</ele>
        <time>2021-03-20T12:02:36Z</time>
      </trkpt>
      <trkpt lat="41.3240010" lon="-8.6455260">
        <ele>79.4</ele>
        <time>2021-03-20T12:02:37Z</time>
      </trkpt>
      <trkpt lat="41.3240510" lon="-8.6456640">
        <ele>79.2</ele>
        <time>2021-03-20T12:02:38Z</time>
      </trkpt>
      <trkpt lat="41.3240800" lon="-8.6457940">
        <ele>78.8</ele>
        <time>2021-03-20T12:02:39Z</time>
      </trkpt>
      <trkpt lat="41.3241410" lon="-8.6459770">
        <ele>78.2</ele>
        <time>2021-03-20T12:02:40Z</time>
      </trkpt>
      <trkpt lat="41.3242290" lon="-8.6460520">
        <ele>77.0</ele>
        <time>2021-03-20T12:02:41Z</time>
      </trkpt>
      <trkpt lat="41.3243040" lon="-8.6462190">
        <ele>76.4</ele>
        <time>2021-03-20T12:02:42Z</time>
      </trkpt>
      <trkpt lat="41.3243790" lon="-8.6463640">
        <ele>75.8</ele>
        <time>2021-03-20T12:02:43Z</time>
      </trkpt>
      <trkpt lat="41.3244400" lon="-8.6464830">
        <ele>74.6</ele>
        <time>2021-03-20T12:02:44Z</time>
      </trkpt>
      <trkpt lat="41.3244890" lon="-8.6466070">
        <ele>73.8</ele>
        <time>2021-03-20T12:02:45Z</time>
      </trkpt>
      <trkpt lat="41.3245590" lon="-8.6467340">
        <ele>72.8</ele>
        <time>2021-03-20T12:02:46Z</time>
      </trkpt>
      <trkpt lat="41.3246620" lon="-8.6469160">
        <ele>72.0</ele>
        <time>2021-03-20T12:02:47Z</time>
      </trkpt>
      <trkpt lat="41.3247370" lon="-8.6471000">
        <ele>71.0</ele>
        <time>2021-03-20T12:02:48Z</time>
      </trkpt>
      <trkpt lat="41.3247780" lon="-8.6472940">
        <ele>70.2</ele>
        <time>2021-03-20T12:02:49Z</time>
      </trkpt>
      <trkpt lat="41.3248250" lon="-8.6474540">
        <ele>69.2</ele>
        <time>2021-03-20T12:02:50Z</time>
      </trkpt>
      <trkpt lat="41.3248710" lon="-8.6476020">
        <ele>68.4</ele>
        <time>2021-03-20T12:02:51Z</time>
      </trkpt>
      <trkpt lat="41.3249020" lon="-8.6477670">
        <ele>67.8</ele>
        <time>2021-03-20T12:02:52Z</time>
      </trkpt>
      <trkpt lat="41.3249700" lon="-8.6479450">
        <ele>67.2</ele>
        <time>2021-03-20T12:02:53Z</time>
      </trkpt>
      <trkpt lat="41.3250400" lon="-8.6481050">
        <ele>67.0</ele>
        <time>2021-03-20T12:02:54Z</time>
      </trkpt>
      <trkpt lat="41.3251220" lon="-8.6482380">
        <ele>66.8</ele>
        <time>2021-03-20T12:02:55Z</time>
      </trkpt>
      <trkpt lat="41.3252430" lon="-8.6483650">
        <ele>66.6</ele>
        <time>2021-03-20T12:02:56Z</time>
      </trkpt>
      <trkpt lat="41.3253050" lon="-8.6484830">
        <ele>66.4</ele>
        <time>2021-03-20T12:02:57Z</time>
      </trkpt>
      <trkpt lat="41.3253690" lon="-8.6486560">
        <ele>66.2</ele>
        <time>2021-03-20T12:02:58Z</time>
      </trkpt>
      <trkpt lat="41.3254710" lon="-8.6487590">
        <ele>66.0</ele>
        <time>2021-03-20T12:02:59Z</time>
      </trkpt>
      <trkpt lat="41.3255400" lon="-8.6489470">
        <ele>65.6</ele>
        <time>2021-03-20T12:03:00Z</time>
      </trkpt>
      <trkpt lat="41.3256170" lon="-8.6490480">
        <ele>64.8</ele>
        <time>2021-03-20T12:03:01Z</time>
      </trkpt>
      <trkpt lat="41.3257290" lon="-8.6492220">
        <ele>64.0</ele>
        <time>2021-03-20T12:03:02Z</time>
      </trkpt>
      <trkpt lat="41.3257930" lon="-8.6493680">
        <ele>63.2</ele>
        <time>2021-03-20T12:03:03Z</time>
      </trkpt>
      <trkpt lat="41.3258600" lon="-8.6495280">
        <ele>62.4</ele>
        <time>2021-03-20T12:03:04Z</time>
      </trkpt>
      <trkpt lat="41.3259320" lon="-8.6496710">
        <ele>61.6</ele>
        <time>2021-03-20T12:03:05Z</time>
      </trkpt>
      <trkpt lat="41.3259960" lon="-8.6498000">
        <ele>61.2</ele>
        <time>2021-03-20T12:03:06Z</time>
      </trkpt>
      <trkpt lat="41.3260360" lon="-8.6499470">
        <ele>60.0</ele>
        <time>2021-03-20T12:03:07Z</time>
      </trkpt>
      <trkpt lat="41.3260080" lon="-8.6500980">
        <ele>59.2</ele>
        <time>2021-03-20T12:03:08Z</time>
      </trkpt>
      <trkpt lat="41.3259830" lon="-8.6502420">
        <ele>58.6</ele>
        <time>2021-03-20T12:03:09Z</time>
      </trkpt>
      <trkpt lat="41.3259220" lon="-8.6503900">
        <ele>58.4</ele>
        <time>2021-03-20T12:03:10Z</time>
      </trkpt>
      <trkpt lat="41.3258730" lon="-8.6505480">
        <ele>58.2</ele>
        <time>2021-03-20T12:03:11Z</time>
      </trkpt>
      <trkpt lat="41.3258180" lon="-8.6507020">
        <ele>58.0</ele>
        <time>2021-03-20T12:03:12Z</time>
      </trkpt>
      <trkpt lat="41.3257650" lon="-8.6508590">
        <ele>57.4</ele>
        <time>2021-03-20T12:03:13Z</time>
      </trkpt>
      <trkpt lat="41.3257020" lon="-8.6510190">
        <ele>56.6</ele>
        <time>2021-03-20T12:03:14Z</time>
      </trkpt>
      <trkpt lat="41.3256540" lon="-8.6511770">
        <ele>55.6</ele>
        <time>2021-03-20T12:03:15Z</time>
      </trkpt>
      <trkpt lat="41.3256060" lon="-8.6513400">
        <ele>55.0</ele>
        <time>2021-03-20T12:03:16Z</time>
      </trkpt>
      <trkpt lat="41.3255670" lon="-8.6514530">
        <ele>54.4</ele>
        <time>2021-03-20T12:03:17Z</time>
      </trkpt>
      <trkpt lat="41.3255080" lon="-8.6516050">
        <ele>53.6</ele>
        <time>2021-03-20T12:03:18Z</time>
      </trkpt>
      <trkpt lat="41.3254370" lon="-8.6517960">
        <ele>52.6</ele>
        <time>2021-03-20T12:03:19Z</time>
      </trkpt>
      <trkpt lat="41.3253820" lon="-8.6519670">
        <ele>52.0</ele>
        <time>2021-03-20T12:03:20Z</time>
      </trkpt>
      <trkpt lat="41.3253860" lon="-8.6521340">
        <ele>51.2</ele>
        <time>2021-03-20T12:03:21Z</time>
      </trkpt>
      <trkpt lat="41.3253960" lon="-8.6523010">
        <ele>50.6</ele>
        <time>2021-03-20T12:03:22Z</time>
      </trkpt>
      <trkpt lat="41.3254540" lon="-8.6524830">
        <ele>49.6</ele>
        <time>2021-03-20T12:03:23Z</time>
      </trkpt>
      <trkpt lat="41.3254930" lon="-8.6526580">
        <ele>48.8</ele>
        <time>2021-03-20T12:03:24Z</time>
      </trkpt>
      <trkpt lat="41.3255550" lon="-8.6528290">
        <ele>48.2</ele>
        <time>2021-03-20T12:03:25Z</time>
      </trkpt>
      <trkpt lat="41.3255960" lon="-8.6529900">
        <ele>47.4</ele>
        <time>2021-03-20T12:03:26Z</time>
      </trkpt>
      <trkpt lat="41.3256390" lon="-8.6531670">
        <ele>46.6</ele>
        <time>2021-03-20T12:03:27Z</time>
      </trkpt>
      <trkpt lat="41.3256980" lon="-8.6533320">
        <ele>46.0</ele>
        <time>2021-03-20T12:03:28Z</time>
      </trkpt>
      <trkpt lat="41.3257350" lon="-8.6535130">
        <ele>45.2</ele>
        <time>2021-03-20T12:03:29Z</time>
      </trkpt>
      <trkpt lat="41.3257580" lon="-8.6536900">
        <ele>45.0</ele>
        <time>2021-03-20T12:03:30Z</time>
      </trkpt>
      <trkpt lat="41.3257960" lon="-8.6538620">
        <ele>44.6</ele>
        <time>2021-03-20T12:03:31Z</time>
      </trkpt>
      <trkpt lat="41.3258340" lon="-8.6540440">
        <ele>43.6</ele>
        <time>2021-03-20T12:03:32Z</time>
      </trkpt>
      <trkpt lat="41.3258680" lon="-8.6542160">
        <ele>43.2</ele>
        <time>2021-03-20T12:03:33Z</time>
      </trkpt>
      <trkpt lat="41.3259040" lon="-8.6543880">
        <ele>42.8</ele>
        <time>2021-03-20T12:03:34Z</time>
      </trkpt>
      <trkpt lat="41.3259370" lon="-8.6545640">
        <ele>42.4</ele>
        <time>2021-03-20T12:03:35Z</time>
      </trkpt>
      <trkpt lat="41.3259680" lon="-8.6546840">
        <ele>42.4</ele>
        <time>2021-03-20T12:03:36Z</time>
      </trkpt>
      <trkpt lat="41.3260210" lon="-8.6548890">
        <ele>42.0</ele>
        <time>2021-03-20T12:03:37Z</time>
      </trkpt>
      <trkpt lat="41.3260740" lon="-8.6550610">
        <ele>41.8</ele>
        <time>2021-03-20T12:03:38Z</time>
      </trkpt>
      <trkpt lat="41.3261360" lon="-8.6552200">
        <ele>41.6</ele>
        <time>2021-03-20T12:03:39Z</time>
      </trkpt>
      <trkpt lat="41.3262040" lon="-8.6553780">
        <ele>41.6</ele>
        <time>2021-03-20T12:03:40Z</time>
      </trkpt>
      <trkpt lat="41.3262790" lon="-8.6555230">
        <ele>41.2</ele>
        <time>2021-03-20T12:03:41Z</time>
      </trkpt>
      <trkpt lat="41.3263510" lon="-8.6556570">
        <ele>40.8</ele>
        <time>2021-03-20T12:03:42Z</time>
      </trkpt>
      <trkpt lat="41.3264310" lon="-8.6558030">
        <ele>40.6</ele>
        <time>2021-03-20T12:03:43Z</time>
      </trkpt>
      <trkpt lat="41.3265190" lon="-8.6559240">
        <ele>40.2</ele>
        <time>2021-03-20T12:03:44Z</time>
      </trkpt>
      <trkpt lat="41.3266070" lon="-8.6560480">
        <ele>40.0</ele>
        <time>2021-03-20T12:03:45Z</time>
      </trkpt>
      <trkpt lat="41.3266880" lon="-8.6561700">
        <ele>39.8</ele>
        <time>2021-03-20T12:03:46Z</time>
      </trkpt>
      <trkpt lat="41.3267670" lon="-8.6562920">
        <ele>39.6</ele>
        <time>2021-03-20T12:03:47Z</time>
      </trkpt>
      <trkpt lat="41.3268520" lon="-8.6564140">
        <ele>39.4</ele>
        <time>2021-03-20T12:03:48Z</time>
      </trkpt>
      <trkpt lat="41.3269290" lon="-8.6565370">
        <ele>39.2</ele>
        <time>2021-03-20T12:03:49Z</time>
      </trkpt>
      <trkpt lat="41.3270030" lon="-8.6566640">
        <ele>39.0</ele>
        <time>2021-03-20T12:03:50Z</time>
      </trkpt>
      <trkpt lat="41.3270820" lon="-8.6567750">
        <ele>39.0</ele>
        <time>2021-03-20T12:03:51Z</time>
      </trkpt>
      <trkpt lat="41.3271360" lon="-8.6568660">
        <ele>39.0</ele>
        <time>2021-03-20T12:03:52Z</time>
      </trkpt>
      <trkpt lat="41.3272270" lon="-8.6570100">
        <ele>39.0</ele>
        <time>2021-03-20T12:03:53Z</time>
      </trkpt>
      <trkpt lat="41.3272850" lon="-8.6570980">
        <ele>39.0</ele>
        <time>2021-03-20T12:03:54Z</time>
      </trkpt>
      <trkpt lat="41.3273780" lon="-8.6572430">
        <ele>38.8</ele>
        <time>2021-03-20T12:03:55Z</time>
      </trkpt>
      <trkpt lat="41.3274330" lon="-8.6573280">
        <ele>38.2</ele>
        <time>2021-03-20T12:03:56Z</time>
      </trkpt>
      <trkpt lat="41.3275200" lon="-8.6574770">
        <ele>37.4</ele>
        <time>2021-03-20T12:03:57Z</time>
      </trkpt>
      <trkpt lat="41.3275920" lon="-8.6575930">
        <ele>37.6</ele>
        <time>2021-03-20T12:03:58Z</time>
      </trkpt>
      <trkpt lat="41.3276630" lon="-8.6576990">
        <ele>37.4</ele>
        <time>2021-03-20T12:03:59Z</time>
      </trkpt>
      <trkpt lat="41.3277350" lon="-8.6578080">
        <ele>37.6</ele>
        <time>2021-03-20T12:04:00Z</time>
      </trkpt>
      <trkpt lat="41.3278050" lon="-8.6579190">
        <ele>37.8</ele>
        <time>2021-03-20T12:04:01Z</time>
      </trkpt>
      <trkpt lat="41.3278750" lon="-8.6580280">
        <ele>38.0</ele>
        <time>2021-03-20T12:04:02Z</time>
      </trkpt>
      <trkpt lat="41.3279420" lon="-8.6581360">
        <ele>38.4</ele>
        <time>2021-03-20T12:04:03Z</time>
      </trkpt>
      <trkpt lat="41.3280130" lon="-8.6582410">
        <ele>38.6</ele>
        <time>2021-03-20T12:04:04Z</time>
      </trkpt>
      <trkpt lat="41.3280790" lon="-8.6583420">
        <ele>38.6</ele>
        <time>2021-03-20T12:04:05Z</time>
      </trkpt>
      <trkpt lat="41.3281450" lon="-8.6584350">
        <ele>39.0</ele>
        <time>2021-03-20T12:04:06Z</time>
      </trkpt>
      <trkpt lat="41.3282100" lon="-8.6585360">
        <ele>39.0</ele>
        <time>2021-03-20T12:04:07Z</time>
      </trkpt>
      <trkpt lat="41.3282590" lon="-8.6586010">
        <ele>39.0</ele>
        <time>2021-03-20T12:04:08Z</time>
      </trkpt>
      <trkpt lat="41.3283300" lon="-8.6587040">
        <ele>39.2</ele>
        <time>2021-03-20T12:04:09Z</time>
      </trkpt>
      <trkpt lat="41.3283940" lon="-8.6587820">
        <ele>39.4</ele>
        <time>2021-03-20T12:04:10Z</time>
      </trkpt>
      <trkpt lat="41.3284530" lon="-8.6588670">
        <ele>39.6</ele>
        <time>2021-03-20T12:04:11Z</time>
      </trkpt>
      <trkpt lat="41.3284950" lon="-8.6589330">
        <ele>39.6</ele>
        <time>2021-03-20T12:04:12Z</time>
      </trkpt>
      <trkpt lat="41.3285660" lon="-8.6590320">
        <ele>39.4</ele>
        <time>2021-03-20T12:04:13Z</time>
      </trkpt>
      <trkpt lat="41.3286260" lon="-8.6591110">
        <ele>39.4</ele>
        <time>2021-03-20T12:04:14Z</time>
      </trkpt>
      <trkpt lat="41.3286610" lon="-8.6591730">
        <ele>39.2</ele>
        <time>2021-03-20T12:04:15Z</time>
      </trkpt>
      <trkpt lat="41.3287150" lon="-8.6592760">
        <ele>38.8</ele>
        <time>2021-03-20T12:04:16Z</time>
      </trkpt>
      <trkpt lat="41.3287710" lon="-8.6593640">
        <ele>38.4</ele>
        <time>2021-03-20T12:04:17Z</time>
      </trkpt>
      <trkpt lat="41.3288110" lon="-8.6594220">
        <ele>38.2</ele>
        <time>2021-03-20T12:04:18Z</time>
      </trkpt>
      <trkpt lat="41.3288750" lon="-8.6595280">
        <ele>37.8</ele>
        <time>2021-03-20T12:04:19Z</time>
      </trkpt>
      <trkpt lat="41.3289320" lon="-8.6596140">
        <ele>37.6</ele>
        <time>2021-03-20T12:04:20Z</time>
      </trkpt>
      <trkpt lat="41.3289890" lon="-8.6597070">
        <ele>37.2</ele>
        <time>2021-03-20T12:04:21Z</time>
      </trkpt>
      <trkpt lat="41.3290480" lon="-8.6598010">
        <ele>36.6</ele>
        <time>2021-03-20T12:04:22Z</time>
      </trkpt>
      <trkpt lat="41.3290990" lon="-8.6598890">
        <ele>36.0</ele>
        <time>2021-03-20T12:04:23Z</time>
      </trkpt>
      <trkpt lat="41.3291560" lon="-8.6599770">
        <ele>35.4</ele>
        <time>2021-03-20T12:04:24Z</time>
      </trkpt>
      <trkpt lat="41.3291990" lon="-8.6600480">
        <ele>35.2</ele>
        <time>2021-03-20T12:04:25Z</time>
      </trkpt>
      <trkpt lat="41.3292710" lon="-8.6601710">
        <ele>34.8</ele>
        <time>2021-03-20T12:04:26Z</time>
      </trkpt>
      <trkpt lat="41.3293350" lon="-8.6602650">
        <ele>34.4</ele>
        <time>2021-03-20T12:04:27Z</time>
      </trkpt>
      <trkpt lat="41.3294010" lon="-8.6603630">
        <ele>34.4</ele>
        <time>2021-03-20T12:04:28Z</time>
      </trkpt>
      <trkpt lat="41.3294470" lon="-8.6604430">
        <ele>34.6</ele>
        <time>2021-03-20T12:04:29Z</time>
      </trkpt>
      <trkpt lat="41.3295260" lon="-8.6605730">
        <ele>34.8</ele>
        <time>2021-03-20T12:04:30Z</time>
      </trkpt>
      <trkpt lat="41.3295900" lon="-8.6606750">
        <ele>35.0</ele>
        <time>2021-03-20T12:04:31Z</time>
      </trkpt>
      <trkpt lat="41.3296550" lon="-8.6607840">
        <ele>35.0</ele>
        <time>2021-03-20T12:04:32Z</time>
      </trkpt>
      <trkpt lat="41.3297100" lon="-8.6608550">
        <ele>35.2</ele>
        <time>2021-03-20T12:04:33Z</time>
      </trkpt>
      <trkpt lat="41.3297930" lon="-8.6609810">
        <ele>35.4</ele>
        <time>2021-03-20T12:04:34Z</time>
      </trkpt>
      <trkpt lat="41.3298660" lon="-8.6610780">
        <ele>35.2</ele>
        <time>2021-03-20T12:04:35Z</time>
      </trkpt>
      <trkpt lat="41.3299390" lon="-8.6611690">
        <ele>35.4</ele>
        <time>2021-03-20T12:04:36Z</time>
      </trkpt>
      <trkpt lat="41.3300000" lon="-8.6612620">
        <ele>35.6</ele>
        <time>2021-03-20T12:04:37Z</time>
      </trkpt>
      <trkpt lat="41.3300620" lon="-8.6613480">
        <ele>35.6</ele>
        <time>2021-03-20T12:04:38Z</time>
      </trkpt>
      <trkpt lat="41.3301210" lon="-8.6614280">
        <ele>35.6</ele>
        <time>2021-03-20T12:04:39Z</time>
      </trkpt>
      <trkpt lat="41.3301850" lon="-8.6615040">
        <ele>35.4</ele>
        <time>2021-03-20T12:04:40Z</time>
      </trkpt>
      <trkpt lat="41.3302480" lon="-8.6615790">
        <ele>35.2</ele>
        <time>2021-03-20T12:04:41Z</time>
      </trkpt>
      <trkpt lat="41.3303090" lon="-8.6616500">
        <ele>35.2</ele>
        <time>2021-03-20T12:04:42Z</time>
      </trkpt>
      <trkpt lat="41.3303690" lon="-8.6617210">
        <ele>35.0</ele>
        <time>2021-03-20T12:04:43Z</time>
      </trkpt>
      <trkpt lat="41.3304310" lon="-8.6617910">
        <ele>35.0</ele>
        <time>2021-03-20T12:04:44Z</time>
      </trkpt>
      <trkpt lat="41.3304960" lon="-8.6618610">
        <ele>35.0</ele>
        <time>2021-03-20T12:04:45Z</time>
      </trkpt>
      <trkpt lat="41.3305630" lon="-8.6619270">
        <ele>34.8</ele>
        <time>2021-03-20T12:04:46Z</time>
      </trkpt>
      <trkpt lat="41.3306250" lon="-8.6619960">
        <ele>34.6</ele>
        <time>2021-03-20T12:04:47Z</time>
      </trkpt>
      <trkpt lat="41.3306860" lon="-8.6620550">
        <ele>34.4</ele>
        <time>2021-03-20T12:04:48Z</time>
      </trkpt>
      <trkpt lat="41.3307490" lon="-8.6621130">
        <ele>34.0</ele>
        <time>2021-03-20T12:04:49Z</time>
      </trkpt>
      <trkpt lat="41.3308110" lon="-8.6621810">
        <ele>33.8</ele>
        <time>2021-03-20T12:04:50Z</time>
      </trkpt>
      <trkpt lat="41.3308580" lon="-8.6622280">
        <ele>33.6</ele>
        <time>2021-03-20T12:04:51Z</time>
      </trkpt>
      <trkpt lat="41.3309350" lon="-8.6623140">
        <ele>33.4</ele>
        <time>2021-03-20T12:04:52Z</time>
      </trkpt>
      <trkpt lat="41.3310000" lon="-8.6623790">
        <ele>33.0</ele>
        <time>2021-03-20T12:04:53Z</time>
      </trkpt>
      <trkpt lat="41.3310600" lon="-8.6624480">
        <ele>33.2</ele>
        <time>2021-03-20T12:04:54Z</time>
      </trkpt>
      <trkpt lat="41.3311190" lon="-8.6625110">
        <ele>33.2</ele>
        <time>2021-03-20T12:04:55Z</time>
      </trkpt>
      <trkpt lat="41.3311790" lon="-8.6625740">
        <ele>33.0</ele>
        <time>2021-03-20T12:04:56Z</time>
      </trkpt>
      <trkpt lat="41.3312410" lon="-8.6626380">
        <ele>32.2</ele>
        <time>2021-03-20T12:04:57Z</time>
      </trkpt>
      <trkpt lat="41.3312880" lon="-8.6626890">
        <ele>31.8</ele>
        <time>2021-03-20T12:04:58Z</time>
      </trkpt>
      <trkpt lat="41.3313670" lon="-8.6627730">
        <ele>31.4</ele>
        <time>2021-03-20T12:04:59Z</time>
      </trkpt>
      <trkpt lat="41.3314300" lon="-8.6628430">
        <ele>31.0</ele>
        <time>2021-03-20T12:05:00Z</time>
      </trkpt>
      <trkpt lat="41.3314990" lon="-8.6629080">
        <ele>30.6</ele>
        <time>2021-03-20T12:05:01Z</time>
      </trkpt>
      <trkpt lat="41.3315670" lon="-8.6629730">
        <ele>30.2</ele>
        <time>2021-03-20T12:05:02Z</time>
      </trkpt>
      <trkpt lat="41.3316240" lon="-8.6630430">
        <ele>29.6</ele>
        <time>2021-03-20T12:05:03Z</time>
      </trkpt>
      <trkpt lat="41.3316810" lon="-8.6631150">
        <ele>29.4</ele>
        <time>2021-03-20T12:05:04Z</time>
      </trkpt>
      <trkpt lat="41.3317490" lon="-8.6631910">
        <ele>29.4</ele>
        <time>2021-03-20T12:05:05Z</time>
      </trkpt>
      <trkpt lat="41.3318230" lon="-8.6632650">
        <ele>29.0</ele>
        <time>2021-03-20T12:05:06Z</time>
      </trkpt>
      <trkpt lat="41.3318890" lon="-8.6633330">
        <ele>28.8</ele>
        <time>2021-03-20T12:05:07Z</time>
      </trkpt>
      <trkpt lat="41.3319530" lon="-8.6634030">
        <ele>28.6</ele>
        <time>2021-03-20T12:05:08Z</time>
      </trkpt>
      <trkpt lat="41.3320100" lon="-8.6634530">
        <ele>28.2</ele>
        <time>2021-03-20T12:05:09Z</time>
      </trkpt>
      <trkpt lat="41.3320950" lon="-8.6635410">
        <ele>27.8</ele>
        <time>2021-03-20T12:05:10Z</time>
      </trkpt>
      <trkpt lat="41.3321610" lon="-8.6636160">
        <ele>27.8</ele>
        <time>2021-03-20T12:05:11Z</time>
      </trkpt>
      <trkpt lat="41.3322310" lon="-8.6636900">
        <ele>27.6</ele>
        <time>2021-03-20T12:05:12Z</time>
      </trkpt>
      <trkpt lat="41.3322810" lon="-8.6637430">
        <ele>27.2</ele>
        <time>2021-03-20T12:05:13Z</time>
      </trkpt>
      <trkpt lat="41.3323730" lon="-8.6638370">
        <ele>26.8</ele>
        <time>2021-03-20T12:05:14Z</time>
      </trkpt>
      <trkpt lat="41.3324260" lon="-8.6638910">
        <ele>26.6</ele>
        <time>2021-03-20T12:05:15Z</time>
      </trkpt>
      <trkpt lat="41.3324940" lon="-8.6639710">
        <ele>26.4</ele>
        <time>2021-03-20T12:05:16Z</time>
      </trkpt>
      <trkpt lat="41.3325650" lon="-8.6640520">
        <ele>25.8</ele>
        <time>2021-03-20T12:05:17Z</time>
      </trkpt>
      <trkpt lat="41.3326460" lon="-8.6641530">
        <ele>25.6</ele>
        <time>2021-03-20T12:05:18Z</time>
      </trkpt>
      <trkpt lat="41.3327000" lon="-8.6642430">
        <ele>25.2</ele>
        <time>2021-03-20T12:05:19Z</time>
      </trkpt>
      <trkpt lat="41.3327580" lon="-8.6643460">
        <ele>24.8</ele>
        <time>2021-03-20T12:05:20Z</time>
      </trkpt>
      <trkpt lat="41.3328230" lon="-8.6644480">
        <ele>24.4</ele>
        <time>2021-03-20T12:05:21Z</time>
      </trkpt>
      <trkpt lat="41.3328870" lon="-8.6645240">
        <ele>24.2</ele>
        <time>2021-03-20T12:05:22Z</time>
      </trkpt>
      <trkpt lat="41.3329300" lon="-8.6646300">
        <ele>23.8</ele>
        <time>2021-03-20T12:05:23Z</time>
      </trkpt>
      <trkpt lat="41.3329970" lon="-8.6647480">
        <ele>23.6</ele>
        <time>2021-03-20T12:05:24Z</time>
      </trkpt>
      <trkpt lat="41.3330620" lon="-8.6648470">
        <ele>23.4</ele>
        <time>2021-03-20T12:05:25Z</time>
      </trkpt>
      <trkpt lat="41.3331150" lon="-8.6649470">
        <ele>23.2</ele>
        <time>2021-03-20T12:05:26Z</time>
      </trkpt>
      <trkpt lat="41.3331670" lon="-8.6650530">
        <ele>22.8</ele>
        <time>2021-03-20T12:05:27Z</time>
      </trkpt>
      <trkpt lat="41.3332190" lon="-8.6651630">
        <ele>22.8</ele>
        <time>2021-03-20T12:05:28Z</time>
      </trkpt>
      <trkpt lat="41.3332300" lon="-8.6652600">
        <ele>22.6</ele>
        <time>2021-03-20T12:05:29Z</time>
      </trkpt>
      <trkpt lat="41.3332440" lon="-8.6653810">
        <ele>22.4</ele>
        <time>2021-03-20T12:05:30Z</time>
      </trkpt>
      <trkpt lat="41.3333520" lon="-8.6655160">
        <ele>22.4</ele>
        <time>2021-03-20T12:05:31Z</time>
      </trkpt>
      <trkpt lat="41.3334350" lon="-8.6656440">
        <ele>22.4</ele>
        <time>2021-03-20T12:05:32Z</time>
      </trkpt>
      <trkpt lat="41.3334550" lon="-8.6657640">
        <ele>22.4</ele>
        <time>2021-03-20T12:05:33Z</time>
      </trkpt>
      <trkpt lat="41.3335030" lon="-8.6658450">
        <ele>22.4</ele>
        <time>2021-03-20T12:05:34Z</time>
      </trkpt>
      <trkpt lat="41.3335340" lon="-8.6659860">
        <ele>22.6</ele>
        <time>2021-03-20T12:05:35Z</time>
      </trkpt>
      <trkpt lat="41.3335530" lon="-8.6661070">
        <ele>22.6</ele>
        <time>2021-03-20T12:05:36Z</time>
      </trkpt>
      <trkpt lat="41.3335750" lon="-8.6662250">
        <ele>22.4</ele>
        <time>2021-03-20T12:05:37Z</time>
      </trkpt>
      <trkpt lat="41.3336050" lon="-8.6663320">
        <ele>22.0</ele>
        <time>2021-03-20T12:05:38Z</time>
      </trkpt>
      <trkpt lat="41.3336360" lon="-8.6664350">
        <ele>21.6</ele>
        <time>2021-03-20T12:05:39Z</time>
      </trkpt>
      <trkpt lat="41.3336540" lon="-8.6665690">
        <ele>21.2</ele>
        <time>2021-03-20T12:05:40Z</time>
      </trkpt>
      <trkpt lat="41.3336640" lon="-8.6666860">
        <ele>21.0</ele>
        <time>2021-03-20T12:05:41Z</time>
      </trkpt>
      <trkpt lat="41.3336530" lon="-8.6668060">
        <ele>20.4</ele>
        <time>2021-03-20T12:05:42Z</time>
      </trkpt>
      <trkpt lat="41.3336580" lon="-8.6669340">
        <ele>19.6</ele>
        <time>2021-03-20T12:05:43Z</time>
      </trkpt>
      <trkpt lat="41.3336520" lon="-8.6670480">
        <ele>19.4</ele>
        <time>2021-03-20T12:05:44Z</time>
      </trkpt>
      <trkpt lat="41.3336520" lon="-8.6671690">
        <ele>18.8</ele>
        <time>2021-03-20T12:05:45Z</time>
      </trkpt>
      <trkpt lat="41.3336670" lon="-8.6672930">
        <ele>18.2</ele>
        <time>2021-03-20T12:05:46Z</time>
      </trkpt>
      <trkpt lat="41.3336930" lon="-8.6674180">
        <ele>18.0</ele>
        <time>2021-03-20T12:05:47Z</time>
      </trkpt>
      <trkpt lat="41.3337310" lon="-8.6675410">
        <ele>17.8</ele>
        <time>2021-03-20T12:05:48Z</time>
      </trkpt>
      <trkpt lat="41.3337650" lon="-8.6676630">
        <ele>17.4</ele>
        <time>2021-03-20T12:05:49Z</time>
      </trkpt>
      <trkpt lat="41.3338090" lon="-8.6677870">
        <ele>17.2</ele>
        <time>2021-03-20T12:05:50Z</time>
      </trkpt>
      <trkpt lat="41.3338380" lon="-8.6679230">
        <ele>17.0</ele>
        <time>2021-03-20T12:05:51Z</time>
      </trkpt>
      <trkpt lat="41.3338730" lon="-8.6680500">
        <ele>16.8</ele>
        <time>2021-03-20T12:05:52Z</time>
      </trkpt>
      <trkpt lat="41.3339040" lon="-8.6681900">
        <ele>17.0</ele>
        <time>2021-03-20T12:05:53Z</time>
      </trkpt>
      <trkpt lat="41.3339380" lon="-8.6683160">
        <ele>17.0</ele>
        <time>2021-03-20T12:05:54Z</time>
      </trkpt>
      <trkpt lat="41.3339720" lon="-8.6684540">
        <ele>17.2</ele>
        <time>2021-03-20T12:05:55Z</time>
      </trkpt>
      <trkpt lat="41.3340080" lon="-8.6685780">
        <ele>17.0</ele>
        <time>2021-03-20T12:05:56Z</time>
      </trkpt>
      <trkpt lat="41.3340470" lon="-8.6687100">
        <ele>17.2</ele>
        <time>2021-03-20T12:05:57Z</time>
      </trkpt>
      <trkpt lat="41.3340720" lon="-8.6688130">
        <ele>17.2</ele>
        <time>2021-03-20T12:05:58Z</time>
      </trkpt>
      <trkpt lat="41.3341170" lon="-8.6689770">
        <ele>17.2</ele>
        <time>2021-03-20T12:05:59Z</time>
      </trkpt>
      <trkpt lat="41.3341560" lon="-8.6691010">
        <ele>17.0</ele>
        <time>2021-03-20T12:06:00Z</time>
      </trkpt>
      <trkpt lat="41.3341960" lon="-8.6692310">
        <ele>17.2</ele>
        <time>2021-03-20T12:06:01Z</time>
      </trkpt>
      <trkpt lat="41.3342270" lon="-8.6693280">
        <ele>17.4</ele>
        <time>2021-03-20T12:06:02Z</time>
      </trkpt>
      <trkpt lat="41.3342790" lon="-8.6694930">
        <ele>17.6</ele>
        <time>2021-03-20T12:06:03Z</time>
      </trkpt>
      <trkpt lat="41.3343140" lon="-8.6696190">
        <ele>17.6</ele>
        <time>2021-03-20T12:06:04Z</time>
      </trkpt>
      <trkpt lat="41.3343520" lon="-8.6697470">
        <ele>17.8</ele>
        <time>2021-03-20T12:06:05Z</time>
      </trkpt>
      <trkpt lat="41.3343930" lon="-8.6698650">
        <ele>17.8</ele>
        <time>2021-03-20T12:06:06Z</time>
      </trkpt>
      <trkpt lat="41.3344290" lon="-8.6699810">
        <ele>18.2</ele>
        <time>2021-03-20T12:06:07Z</time>
      </trkpt>
      <trkpt lat="41.3344710" lon="-8.6700890">
        <ele>18.4</ele>
        <time>2021-03-20T12:06:08Z</time>
      </trkpt>
      <trkpt lat="41.3344960" lon="-8.6701750">
        <ele>18.6</ele>
        <time>2021-03-20T12:06:09Z</time>
      </trkpt>
      <trkpt lat="41.3345410" lon="-8.6703220">
        <ele>18.8</ele>
        <time>2021-03-20T12:06:10Z</time>
      </trkpt>
      <trkpt lat="41.3345690" lon="-8.6704500">
        <ele>19.0</ele>
        <time>2021-03-20T12:06:11Z</time>
      </trkpt>
      <trkpt lat="41.3346040" lon="-8.6705630">
        <ele>19.2</ele>
        <time>2021-03-20T12:06:12Z</time>
      </trkpt>
      <trkpt lat="41.3346390" lon="-8.6706770">
        <ele>19.6</ele>
        <time>2021-03-20T12:06:13Z</time>
      </trkpt>
      <trkpt lat="41.3346630" lon="-8.6707830">
        <ele>19.6</ele>
        <time>2021-03-20T12:06:14Z</time>
      </trkpt>
      <trkpt lat="41.3346950" lon="-8.6709010">
        <ele>20.0</ele>
        <time>2021-03-20T12:06:15Z</time>
      </trkpt>
      <trkpt lat="41.3347200" lon="-8.6710060">
        <ele>20.4</ele>
        <time>2021-03-20T12:06:16Z</time>
      </trkpt>
      <trkpt lat="41.3347380" lon="-8.6711310">
        <ele>20.8</ele>
        <time>2021-03-20T12:06:17Z</time>
      </trkpt>
      <trkpt lat="41.3348020" lon="-8.6711960">
        <ele>21.2</ele>
        <time>2021-03-20T12:06:18Z</time>
      </trkpt>
      <trkpt lat="41.3348180" lon="-8.6713160">
        <ele>21.4</ele>
        <time>2021-03-20T12:06:19Z</time>
      </trkpt>
      <trkpt lat="41.3348160" lon="-8.6714360">
        <ele>21.8</ele>
        <time>2021-03-20T12:06:20Z</time>
      </trkpt>
      <trkpt lat="41.3348590" lon="-8.6715360">
        <ele>21.8</ele>
        <time>2021-03-20T12:06:21Z</time>
      </trkpt>
      <trkpt lat="41.3348950" lon="-8.6716290">
        <ele>22.2</ele>
        <time>2021-03-20T12:06:22Z</time>
      </trkpt>
      <trkpt lat="41.3349110" lon="-8.6717400">
        <ele>22.4</ele>
        <time>2021-03-20T12:06:23Z</time>
      </trkpt>
      <trkpt lat="41.3349510" lon="-8.6718300">
        <ele>22.6</ele>
        <time>2021-03-20T12:06:24Z</time>
      </trkpt>
      <trkpt lat="41.3349870" lon="-8.6719130">
        <ele>22.8</ele>
        <time>2021-03-20T12:06:25Z</time>
      </trkpt>
      <trkpt lat="41.3350230" lon="-8.6720020">
        <ele>23.0</ele>
        <time>2021-03-20T12:06:26Z</time>
      </trkpt>
      <trkpt lat="41.3350540" lon="-8.6720930">
        <ele>23.2</ele>
        <time>2021-03-20T12:06:27Z</time>
      </trkpt>
      <trkpt lat="41.3350820" lon="-8.6721900">
        <ele>23.2</ele>
        <time>2021-03-20T12:06:28Z</time>
      </trkpt>
      <trkpt lat="41.3351020" lon="-8.6722790">
        <ele>23.2</ele>
        <time>2021-03-20T12:06:29Z</time>
      </trkpt>
      <trkpt lat="41.3351180" lon="-8.6723440">
        <ele>23.0</ele>
        <time>2021-03-20T12:06:30Z</time>
      </trkpt>
      <trkpt lat="41.3351460" lon="-8.6724650">
        <ele>23.4</ele>
        <time>2021-03-20T12:06:31Z</time>
      </trkpt>
      <trkpt lat="41.3351710" lon="-8.6725470">
        <ele>23.6</ele>
        <time>2021-03-20T12:06:32Z</time>
      </trkpt>
      <trkpt lat="41.3351930" lon="-8.6726340">
        <ele>23.8</ele>
        <time>2021-03-20T12:06:33Z</time>
      </trkpt>
      <trkpt lat="41.3352140" lon="-8.6727290">
        <ele>23.8</ele>
        <time>2021-03-20T12:06:34Z</time>
      </trkpt>
      <trkpt lat="41.3352390" lon="-8.6728230">
        <ele>24.0</ele>
        <time>2021-03-20T12:06:35Z</time>
      </trkpt>
      <trkpt lat="41.3352650" lon="-8.6729070">
        <ele>24.4</ele>
        <time>2021-03-20T12:06:36Z</time>
      </trkpt>
      <trkpt lat="41.3352860" lon="-8.6729850">
        <ele>24.6</ele>
        <time>2021-03-20T12:06:37Z</time>
      </trkpt>
      <trkpt lat="41.3353080" lon="-8.6730750">
        <ele>24.6</ele>
        <time>2021-03-20T12:06:38Z</time>
      </trkpt>
      <trkpt lat="41.3353260" lon="-8.6731560">
        <ele>24.6</ele>
        <time>2021-03-20T12:06:39Z</time>
      </trkpt>
      <trkpt lat="41.3353370" lon="-8.6732290">
        <ele>24.8</ele>
        <time>2021-03-20T12:06:40Z</time>
      </trkpt>
      <trkpt lat="41.3353680" lon="-8.6733230">
        <ele>25.2</ele>
        <time>2021-03-20T12:06:41Z</time>
      </trkpt>
      <trkpt lat="41.3353840" lon="-8.6734100">
        <ele>25.2</ele>
        <time>2021-03-20T12:06:42Z</time>
      </trkpt>
      <trkpt lat="41.3354020" lon="-8.6734920">
        <ele>25.4</ele>
        <time>2021-03-20T12:06:43Z</time>
      </trkpt>
      <trkpt lat="41.3354220" lon="-8.6735680">
        <ele>25.4</ele>
        <time>2021-03-20T12:06:44Z</time>
      </trkpt>
      <trkpt lat="41.3354480" lon="-8.6736540">
        <ele>25.4</ele>
        <time>2021-03-20T12:06:45Z</time>
      </trkpt>
      <trkpt lat="41.3354750" lon="-8.6737310">
        <ele>25.6</ele>
        <time>2021-03-20T12:06:46Z</time>
      </trkpt>
      <trkpt lat="41.3354990" lon="-8.6738070">
        <ele>25.6</ele>
        <time>2021-03-20T12:06:47Z</time>
      </trkpt>
      <trkpt lat="41.3355200" lon="-8.6738910">
        <ele>25.8</ele>
        <time>2021-03-20T12:06:48Z</time>
      </trkpt>
      <trkpt lat="41.3355330" lon="-8.6739770">
        <ele>25.8</ele>
        <time>2021-03-20T12:06:49Z</time>
      </trkpt>
      <trkpt lat="41.3355510" lon="-8.6740610">
        <ele>25.8</ele>
        <time>2021-03-20T12:06:50Z</time>
      </trkpt>
      <trkpt lat="41.3355620" lon="-8.6741190">
        <ele>25.8</ele>
        <time>2021-03-20T12:06:51Z</time>
      </trkpt>
      <trkpt lat="41.3355850" lon="-8.6742210">
        <ele>25.8</ele>
        <time>2021-03-20T12:06:52Z</time>
      </trkpt>
      <trkpt lat="41.3356090" lon="-8.6742900">
        <ele>25.8</ele>
        <time>2021-03-20T12:06:53Z</time>
      </trkpt>
      <trkpt lat="41.3356350" lon="-8.6743680">
        <ele>26.0</ele>
        <time>2021-03-20T12:06:54Z</time>
      </trkpt>
      <trkpt lat="41.3356550" lon="-8.6744510">
        <ele>25.8</ele>
        <time>2021-03-20T12:06:55Z</time>
      </trkpt>
      <trkpt lat="41.3356770" lon="-8.6745360">
        <ele>25.6</ele>
        <time>2021-03-20T12:06:56Z</time>
      </trkpt>
      <trkpt lat="41.3357030" lon="-8.6746140">
        <ele>26.0</ele>
        <time>2021-03-20T12:06:57Z</time>
      </trkpt>
      <trkpt lat="41.3357250" lon="-8.6747010">
        <ele>26.0</ele>
        <time>2021-03-20T12:06:58Z</time>
      </trkpt>
      <trkpt lat="41.3357390" lon="-8.6747900">
        <ele>26.0</ele>
        <time>2021-03-20T12:06:59Z</time>
      </trkpt>
      <trkpt lat="41.3357710" lon="-8.6748570">
        <ele>26.0</ele>
        <time>2021-03-20T12:07:00Z</time>
      </trkpt>
      <trkpt lat="41.3357940" lon="-8.6749490">
        <ele>25.8</ele>
        <time>2021-03-20T12:07:01Z</time>
      </trkpt>
      <trkpt lat="41.3358160" lon="-8.6750340">
        <ele>25.8</ele>
        <time>2021-03-20T12:07:02Z</time>
      </trkpt>
      <trkpt lat="41.3358330" lon="-8.6751180">
        <ele>25.8</ele>
        <time>2021-03-20T12:07:03Z</time>
      </trkpt>
      <trkpt lat="41.3358580" lon="-8.6752040">
        <ele>25.8</ele>
        <time>2021-03-20T12:07:04Z</time>
      </trkpt>
      <trkpt lat="41.3358770" lon="-8.6752870">
        <ele>26.0</ele>
        <time>2021-03-20T12:07:05Z</time>
      </trkpt>
      <trkpt lat="41.3358940" lon="-8.6753820">
        <ele>26.2</ele>
        <time>2021-03-20T12:07:06Z</time>
      </trkpt>
      <trkpt lat="41.3359180" lon="-8.6754750">
        <ele>26.2</ele>
        <time>2021-03-20T12:07:07Z</time>
      </trkpt>
      <trkpt lat="41.3359380" lon="-8.6755560">
        <ele>26.2</ele>
        <time>2021-03-20T12:07:08Z</time>
      </trkpt>
      <trkpt lat="41.3359490" lon="-8.6756140">
        <ele>26.2</ele>
        <time>2021-03-20T12:07:09Z</time>
      </trkpt>
      <trkpt lat="41.3359750" lon="-8.6757110">
        <ele>26.2</ele>
        <time>2021-03-20T12:07:10Z</time>
      </trkpt>
      <trkpt lat="41.3359980" lon="-8.6757910">
        <ele>26.0</ele>
        <time>2021-03-20T12:07:11Z</time>
      </trkpt>
      <trkpt lat="41.3360190" lon="-8.6758710">
        <ele>25.6</ele>
        <time>2021-03-20T12:07:12Z</time>
      </trkpt>
      <trkpt lat="41.3360340" lon="-8.6759590">
        <ele>25.6</ele>
        <time>2021-03-20T12:07:13Z</time>
      </trkpt>
      <trkpt lat="41.3360540" lon="-8.6760530">
        <ele>26.0</ele>
        <time>2021-03-20T12:07:14Z</time>
      </trkpt>
      <trkpt lat="41.3360750" lon="-8.6761460">
        <ele>26.0</ele>
        <time>2021-03-20T12:07:15Z</time>
      </trkpt>
      <trkpt lat="41.3360900" lon="-8.6762150">
        <ele>25.8</ele>
        <time>2021-03-20T12:07:16Z</time>
      </trkpt>
      <trkpt lat="41.3361180" lon="-8.6763350">
        <ele>26.0</ele>
        <time>2021-03-20T12:07:17Z</time>
      </trkpt>
      <trkpt lat="41.3361390" lon="-8.6764220">
        <ele>25.8</ele>
        <time>2021-03-20T12:07:18Z</time>
      </trkpt>
      <trkpt lat="41.3361640" lon="-8.6765050">
        <ele>25.8</ele>
        <time>2021-03-20T12:07:19Z</time>
      </trkpt>
      <trkpt lat="41.3361830" lon="-8.6766030">
        <ele>26.0</ele>
        <time>2021-03-20T12:07:20Z</time>
      </trkpt>
      <trkpt lat="41.3361990" lon="-8.6767020">
        <ele>26.4</ele>
        <time>2021-03-20T12:07:21Z</time>
      </trkpt>
      <trkpt lat="41.3362230" lon="-8.6767930">
        <ele>26.2</ele>
        <time>2021-03-20T12:07:22Z</time>
      </trkpt>
      <trkpt lat="41.3362480" lon="-8.6768570">
        <ele>26.4</ele>
        <time>2021-03-20T12:07:23Z</time>
      </trkpt>
      <trkpt lat="41.3362890" lon="-8.6769700">
        <ele>26.4</ele>
        <time>2021-03-20T12:07:24Z</time>
      </trkpt>
      <trkpt lat="41.3363110" lon="-8.6770750">
        <ele>26.4</ele>
        <time>2021-03-20T12:07:25Z</time>
      </trkpt>
      <trkpt lat="41.3363330" lon="-8.6771660">
        <ele>26.4</ele>
        <time>2021-03-20T12:07:26Z</time>
      </trkpt>
      <trkpt lat="41.3363570" lon="-8.6772600">
        <ele>26.4</ele>
        <time>2021-03-20T12:07:27Z</time>
      </trkpt>
      <trkpt lat="41.3363830" lon="-8.6773590">
        <ele>26.4</ele>
        <time>2021-03-20T12:07:28Z</time>
      </trkpt>
      <trkpt lat="41.3364060" lon="-8.6774280">
        <ele>26.2</ele>
        <time>2021-03-20T12:07:29Z</time>
      </trkpt>
      <trkpt lat="41.3364300" lon="-8.6775190">
        <ele>26.2</ele>
        <time>2021-03-20T12:07:30Z</time>
      </trkpt>
      <trkpt lat="41.3364550" lon="-8.6776180">
        <ele>26.6</ele>
        <time>2021-03-20T12:07:31Z</time>
      </trkpt>
      <trkpt lat="41.3364920" lon="-8.6777090">
        <ele>26.8</ele>
        <time>2021-03-20T12:07:32Z</time>
      </trkpt>
      <trkpt lat="41.3365200" lon="-8.6778000">
        <ele>26.8</ele>
        <time>2021-03-20T12:07:33Z</time>
      </trkpt>
      <trkpt lat="41.3365460" lon="-8.6778970">
        <ele>27.2</ele>
        <time>2021-03-20T12:07:34Z</time>
      </trkpt>
      <trkpt lat="41.3365730" lon="-8.6779920">
        <ele>27.4</ele>
        <time>2021-03-20T12:07:35Z</time>
      </trkpt>
      <trkpt lat="41.3365890" lon="-8.6780720">
        <ele>27.4</ele>
        <time>2021-03-20T12:07:36Z</time>
      </trkpt>
      <trkpt lat="41.3366190" lon="-8.6781960">
        <ele>27.6</ele>
        <time>2021-03-20T12:07:37Z</time>
      </trkpt>
      <trkpt lat="41.3366410" lon="-8.6782950">
        <ele>28.2</ele>
        <time>2021-03-20T12:07:38Z</time>
      </trkpt>
      <trkpt lat="41.3366640" lon="-8.6784080">
        <ele>28.4</ele>
        <time>2021-03-20T12:07:39Z</time>
      </trkpt>
      <trkpt lat="41.3366830" lon="-8.6785060">
        <ele>28.6</ele>
        <time>2021-03-20T12:07:40Z</time>
      </trkpt>
      <trkpt lat="41.3367020" lon="-8.6785760">
        <ele>29.2</ele>
        <time>2021-03-20T12:07:41Z</time>
      </trkpt>
      <trkpt lat="41.3367320" lon="-8.6786960">
        <ele>29.4</ele>
        <time>2021-03-20T12:07:42Z</time>
      </trkpt>
      <trkpt lat="41.3367610" lon="-8.6787980">
        <ele>29.6</ele>
        <time>2021-03-20T12:07:43Z</time>
      </trkpt>
      <trkpt lat="41.3367990" lon="-8.6788880">
        <ele>30.0</ele>
        <time>2021-03-20T12:07:44Z</time>
      </trkpt>
      <trkpt lat="41.3368310" lon="-8.6789810">
        <ele>30.4</ele>
        <time>2021-03-20T12:07:45Z</time>
      </trkpt>
      <trkpt lat="41.3368630" lon="-8.6790700">
        <ele>30.8</ele>
        <time>2021-03-20T12:07:46Z</time>
      </trkpt>
      <trkpt lat="41.3369030" lon="-8.6791410">
        <ele>31.0</ele>
        <time>2021-03-20T12:07:47Z</time>
      </trkpt>
      <trkpt lat="41.3369450" lon="-8.6792130">
        <ele>31.2</ele>
        <time>2021-03-20T12:07:48Z</time>
      </trkpt>
      <trkpt lat="41.3369860" lon="-8.6792850">
        <ele>31.4</ele>
        <time>2021-03-20T12:07:49Z</time>
      </trkpt>
      <trkpt lat="41.3370250" lon="-8.6793660">
        <ele>31.8</ele>
        <time>2021-03-20T12:07:50Z</time>
      </trkpt>
      <trkpt lat="41.3370620" lon="-8.6794520">
        <ele>32.4</ele>
        <time>2021-03-20T12:07:51Z</time>
      </trkpt>
      <trkpt lat="41.3371030" lon="-8.6795190">
        <ele>32.6</ele>
        <time>2021-03-20T12:07:52Z</time>
      </trkpt>
      <trkpt lat="41.3371400" lon="-8.6795850">
        <ele>33.0</ele>
        <time>2021-03-20T12:07:53Z</time>
      </trkpt>
      <trkpt lat="41.3371720" lon="-8.6796590">
        <ele>33.2</ele>
        <time>2021-03-20T12:07:54Z</time>
      </trkpt>
      <trkpt lat="41.3372110" lon="-8.6797140">
        <ele>33.4</ele>
        <time>2021-03-20T12:07:55Z</time>
      </trkpt>
      <trkpt lat="41.3372460" lon="-8.6797780">
        <ele>33.8</ele>
        <time>2021-03-20T12:07:56Z</time>
      </trkpt>
      <trkpt lat="41.3372800" lon="-8.6798370">
        <ele>34.0</ele>
        <time>2021-03-20T12:07:57Z</time>
      </trkpt>
      <trkpt lat="41.3373170" lon="-8.6799000">
        <ele>34.4</ele>
        <time>2021-03-20T12:07:58Z</time>
      </trkpt>
      <trkpt lat="41.3373430" lon="-8.6799610">
        <ele>34.6</ele>
        <time>2021-03-20T12:07:59Z</time>
      </trkpt>
      <trkpt lat="41.3373740" lon="-8.6800140">
        <ele>34.8</ele>
        <time>2021-03-20T12:08:00Z</time>
      </trkpt>
      <trkpt lat="41.3374040" lon="-8.6800690">
        <ele>35.2</ele>
        <time>2021-03-20T12:08:01Z</time>
      </trkpt>
      <trkpt lat="41.3374460" lon="-8.6801190">
        <ele>35.4</ele>
        <time>2021-03-20T12:08:02Z</time>
      </trkpt>
      <trkpt lat="41.3374900" lon="-8.6801650">
        <ele>35.6</ele>
        <time>2021-03-20T12:08:03Z</time>
      </trkpt>
      <trkpt lat="41.3375200" lon="-8.6802120">
        <ele>36.0</ele>
        <time>2021-03-20T12:08:04Z</time>
      </trkpt>
      <trkpt lat="41.3375520" lon="-8.6802510">
        <ele>36.4</ele>
        <time>2021-03-20T12:08:05Z</time>
      </trkpt>
      <trkpt lat="41.3375810" lon="-8.6803000">
        <ele>36.6</ele>
        <time>2021-03-20T12:08:06Z</time>
      </trkpt>
      <trkpt lat="41.3376140" lon="-8.6803360">
        <ele>36.8</ele>
        <time>2021-03-20T12:08:07Z</time>
      </trkpt>
      <trkpt lat="41.3376430" lon="-8.6803790">
        <ele>36.8</ele>
        <time>2021-03-20T12:08:08Z</time>
      </trkpt>
      <trkpt lat="41.3376780" lon="-8.6804120">
        <ele>36.8</ele>
        <time>2021-03-20T12:08:09Z</time>
      </trkpt>
      <trkpt lat="41.3377090" lon="-8.6804680">
        <ele>37.4</ele>
        <time>2021-03-20T12:08:10Z</time>
      </trkpt>
      <trkpt lat="41.3377370" lon="-8.6805120">
        <ele>37.8</ele>
        <time>2021-03-20T12:08:11Z</time>
      </trkpt>
      <trkpt lat="41.3377690" lon="-8.6805570">
        <ele>38.0</ele>
        <time>2021-03-20T12:08:12Z</time>
      </trkpt>
      <trkpt lat="41.3377970" lon="-8.6805900">
        <ele>38.2</ele>
        <time>2021-03-20T12:08:13Z</time>
      </trkpt>
      <trkpt lat="41.3378300" lon="-8.6806200">
        <ele>38.4</ele>
        <time>2021-03-20T12:08:14Z</time>
      </trkpt>
      <trkpt lat="41.3378580" lon="-8.6806620">
        <ele>38.4</ele>
        <time>2021-03-20T12:08:15Z</time>
      </trkpt>
      <trkpt lat="41.3378790" lon="-8.6806830">
        <ele>38.6</ele>
        <time>2021-03-20T12:08:16Z</time>
      </trkpt>
      <trkpt lat="41.3379100" lon="-8.6807280">
        <ele>38.8</ele>
        <time>2021-03-20T12:08:17Z</time>
      </trkpt>
      <trkpt lat="41.3379320" lon="-8.6807690">
        <ele>39.0</ele>
        <time>2021-03-20T12:08:18Z</time>
      </trkpt>
      <trkpt lat="41.3379470" lon="-8.6808130">
        <ele>39.0</ele>
        <time>2021-03-20T12:08:19Z</time>
      </trkpt>
      <trkpt lat="41.3379590" lon="-8.6808440">
        <ele>39.0</ele>
        <time>2021-03-20T12:08:20Z</time>
      </trkpt>
      <trkpt lat="41.3379750" lon="-8.6808920">
        <ele>39.0</ele>
        <time>2021-03-20T12:08:21Z</time>
      </trkpt>
      <trkpt lat="41.3379970" lon="-8.6809210">
        <ele>39.0</ele>
        <time>2021-03-20T12:08:22Z</time>
      </trkpt>
      <trkpt lat="41.3380170" lon="-8.6809540">
        <ele>38.8</ele>
        <time>2021-03-20T12:08:23Z</time>
      </trkpt>
      <trkpt lat="41.3380470" lon="-8.6809680">
        <ele>38.6</ele>
        <time>2021-03-20T12:08:24Z</time>
      </trkpt>
      <trkpt lat="41.3380650" lon="-8.6809860">
        <ele>38.6</ele>
        <time>2021-03-20T12:08:25Z</time>
      </trkpt>
      <trkpt lat="41.3380790" lon="-8.6810070">
        <ele>38.8</ele>
        <time>2021-03-20T12:08:26Z</time>
      </trkpt>
      <trkpt lat="41.3380970" lon="-8.6810260">
        <ele>38.8</ele>
        <time>2021-03-20T12:08:27Z</time>
      </trkpt>
      <trkpt lat="41.3381060" lon="-8.6810450">
        <ele>39.0</ele>
        <time>2021-03-20T12:08:28Z</time>
      </trkpt>
      <trkpt lat="41.3381170" lon="-8.6810610">
        <ele>39.0</ele>
        <time>2021-03-20T12:08:29Z</time>
      </trkpt>
      <trkpt lat="41.3381250" lon="-8.6810820">
        <ele>39.0</ele>
        <time>2021-03-20T12:08:30Z</time>
      </trkpt>
      <trkpt lat="41.3381500" lon="-8.6811040">
        <ele>38.8</ele>
        <time>2021-03-20T12:08:31Z</time>
      </trkpt>
      <trkpt lat="41.3381780" lon="-8.6811340">
        <ele>38.6</ele>
        <time>2021-03-20T12:08:32Z</time>
      </trkpt>
      <trkpt lat="41.3381640" lon="-8.6811580">
        <ele>38.6</ele>
        <time>2021-03-20T12:08:33Z</time>
      </trkpt>
      <trkpt lat="41.3381660" lon="-8.6811740">
        <ele>38.4</ele>
        <time>2021-03-20T12:08:34Z</time>
      </trkpt>
      <trkpt lat="41.3381850" lon="-8.6811880">
        <ele>38.4</ele>
        <time>2021-03-20T12:08:35Z</time>
      </trkpt>
      <trkpt lat="41.3381960" lon="-8.6812040">
        <ele>38.4</ele>
        <time>2021-03-20T12:08:36Z</time>
      </trkpt>
      <trkpt lat="41.3382040" lon="-8.6812350">
        <ele>38.2</ele>
        <time>2021-03-20T12:08:37Z</time>
      </trkpt>
      <trkpt lat="41.3382160" lon="-8.6812690">
        <ele>38.2</ele>
        <time>2021-03-20T12:08:38Z</time>
      </trkpt>
      <trkpt lat="41.3382280" lon="-8.6812960">
        <ele>38.4</ele>
        <time>2021-03-20T12:08:39Z</time>
      </trkpt>
      <trkpt lat="41.3382370" lon="-8.6813320">
        <ele>38.4</ele>
        <time>2021-03-20T12:08:40Z</time>
      </trkpt>
      <trkpt lat="41.3382480" lon="-8.6813720">
        <ele>38.4</ele>
        <time>2021-03-20T12:08:41Z</time>
      </trkpt>
      <trkpt lat="41.3382370" lon="-8.6814010">
        <ele>38.2</ele>
        <time>2021-03-20T12:08:42Z</time>
      </trkpt>
      <trkpt lat="41.3382300" lon="-8.6814330">
        <ele>38.4</ele>
        <time>2021-03-20T12:08:43Z</time>
      </trkpt>
      <trkpt lat="41.3382320" lon="-8.6814700">
        <ele>38.2</ele>
        <time>2021-03-20T12:08:44Z</time>
      </trkpt>
      <trkpt lat="41.3382230" lon="-8.6815240">
        <ele>38.4</ele>
        <time>2021-03-20T12:08:45Z</time>
      </trkpt>
      <trkpt lat="41.3382250" lon="-8.6815710">
        <ele>38.4</ele>
        <time>2021-03-20T12:08:46Z</time>
      </trkpt>
      <trkpt lat="41.3382190" lon="-8.6816040">
        <ele>38.2</ele>
        <time>2021-03-20T12:08:47Z</time>
      </trkpt>
      <trkpt lat="41.3381920" lon="-8.6816440">
        <ele>38.2</ele>
        <time>2021-03-20T12:08:48Z</time>
      </trkpt>
      <trkpt lat="41.3381820" lon="-8.6816800">
        <ele>38.0</ele>
        <time>2021-03-20T12:08:49Z</time>
      </trkpt>
      <trkpt lat="41.3381940" lon="-8.6817160">
        <ele>38.0</ele>
        <time>2021-03-20T12:08:50Z</time>
      </trkpt>
      <trkpt lat="41.3381930" lon="-8.6817580">
        <ele>38.0</ele>
        <time>2021-03-20T12:08:51Z</time>
      </trkpt>
      <trkpt lat="41.3381920" lon="-8.6817860">
        <ele>38.0</ele>
        <time>2021-03-20T12:08:52Z</time>
      </trkpt>
      <trkpt lat="41.3381880" lon="-8.6818110">
        <ele>37.8</ele>
        <time>2021-03-20T12:08:53Z</time>
      </trkpt>
      <trkpt lat="41.3381950" lon="-8.6818420">
        <ele>37.8</ele>
        <time>2021-03-20T12:08:54Z</time>
      </trkpt>
      <trkpt lat="41.3381950" lon="-8.6818710">
        <ele>37.8</ele>
        <time>2021-03-20T12:08:55Z</time>
      </trkpt>
      <trkpt lat="41.3382000" lon="-8.6819060">
        <ele>38.0</ele>
        <time>2021-03-20T12:08:56Z</time>
      </trkpt>
      <trkpt lat="41.3381950" lon="-8.6819170">
        <ele>38.0</ele>
        <time>2021-03-20T12:08:57Z</time>
      </trkpt>
      <trkpt lat="41.3382120" lon="-8.6819610">
        <ele>38.0</ele>
        <time>2021-03-20T12:08:58Z</time>
      </trkpt>
      <trkpt lat="41.3381880" lon="-8.6819990">
        <ele>38.0</ele>
        <time>2021-03-20T12:08:59Z</time>
      </trkpt>
      <trkpt lat="41.3381530" lon="-8.6820600">
        <ele>38.0</ele>
        <time>2021-03-20T12:09:00Z</time>
      </trkpt>
      <trkpt lat="41.3381200" lon="-8.6821130">
        <ele>38.2</ele>
        <time>2021-03-20T12:09:01Z</time>
      </trkpt>
      <trkpt lat="41.3381040" lon="-8.6821860">
        <ele>38.4</ele>
        <time>2021-03-20T12:09:02Z</time>
      </trkpt>
      <trkpt lat="41.3381020" lon="-8.6822630">
        <ele>38.2</ele>
        <time>2021-03-20T12:09:03Z</time>
      </trkpt>
      <trkpt lat="41.3380850" lon="-8.6823390">
        <ele>38.2</ele>
        <time>2021-03-20T12:09:04Z</time>
      </trkpt>
      <trkpt lat="41.3380830" lon="-8.6824050">
        <ele>38.2</ele>
        <time>2021-03-20T12:09:05Z</time>
      </trkpt>
      <trkpt lat="41.3381130" lon="-8.6824400">
        <ele>38.2</ele>
        <time>2021-03-20T12:09:06Z</time>
      </trkpt>
      <trkpt lat="41.3380940" lon="-8.6825220">
        <ele>38.2</ele>
        <time>2021-03-20T12:09:07Z</time>
      </trkpt>
      <trkpt lat="41.3380850" lon="-8.6825900">
        <ele>38.2</ele>
        <time>2021-03-20T12:09:08Z</time>
      </trkpt>
      <trkpt lat="41.3380780" lon="-8.6826560">
        <ele>38.4</ele>
        <time>2021-03-20T12:09:09Z</time>
      </trkpt>
      <trkpt lat="41.3380720" lon="-8.6827250">
        <ele>38.4</ele>
        <time>2021-03-20T12:09:10Z</time>
      </trkpt>
      <trkpt lat="41.3380870" lon="-8.6827770">
        <ele>38.6</ele>
        <time>2021-03-20T12:09:11Z</time>
      </trkpt>
      <trkpt lat="41.3381040" lon="-8.6828770">
        <ele>38.8</ele>
        <time>2021-03-20T12:09:12Z</time>
      </trkpt>
      <trkpt lat="41.3381110" lon="-8.6829760">
        <ele>38.8</ele>
        <time>2021-03-20T12:09:13Z</time>
      </trkpt>
      <trkpt lat="41.3381280" lon="-8.6830560">
        <ele>38.8</ele>
        <time>2021-03-20T12:09:14Z</time>
      </trkpt>
      <trkpt lat="41.3381440" lon="-8.6831480">
        <ele>38.8</ele>
        <time>2021-03-20T12:09:15Z</time>
      </trkpt>
      <trkpt lat="41.3381610" lon="-8.6832350">
        <ele>39.0</ele>
        <time>2021-03-20T12:09:16Z</time>
      </trkpt>
      <trkpt lat="41.3381590" lon="-8.6833270">
        <ele>38.8</ele>
        <time>2021-03-20T12:09:17Z</time>
      </trkpt>
      <trkpt lat="41.3381760" lon="-8.6834150">
        <ele>39.0</ele>
        <time>2021-03-20T12:09:18Z</time>
      </trkpt>
      <trkpt lat="41.3381640" lon="-8.6834820">
        <ele>39.2</ele>
        <time>2021-03-20T12:09:19Z</time>
      </trkpt>
      <trkpt lat="41.3381710" lon="-8.6835590">
        <ele>39.2</ele>
        <time>2021-03-20T12:09:20Z</time>
      </trkpt>
      <trkpt lat="41.3381580" lon="-8.6836410">
        <ele>39.4</ele>
        <time>2021-03-20T12:09:21Z</time>
      </trkpt>
      <trkpt lat="41.3381500" lon="-8.6837280">
        <ele>39.8</ele>
        <time>2021-03-20T12:09:22Z</time>
      </trkpt>
      <trkpt lat="41.3381470" lon="-8.6837870">
        <ele>39.8</ele>
        <time>2021-03-20T12:09:23Z</time>
      </trkpt>
      <trkpt lat="41.3381570" lon="-8.6838470">
        <ele>39.2</ele>
        <time>2021-03-20T12:09:24Z</time>
      </trkpt>
      <trkpt lat="41.3381500" lon="-8.6839310">
        <ele>39.2</ele>
        <time>2021-03-20T12:09:25Z</time>
      </trkpt>
      <trkpt lat="41.3381490" lon="-8.6840200">
        <ele>39.2</ele>
        <time>2021-03-20T12:09:26Z</time>
      </trkpt>
      <trkpt lat="41.3381270" lon="-8.6840970">
        <ele>39.2</ele>
        <time>2021-03-20T12:09:27Z</time>
      </trkpt>
      <trkpt lat="41.3381340" lon="-8.6841820">
        <ele>39.0</ele>
        <time>2021-03-20T12:09:28Z</time>
      </trkpt>
      <trkpt lat="41.3381230" lon="-8.6843000">
        <ele>38.8</ele>
        <time>2021-03-20T12:09:29Z</time>
      </trkpt>
      <trkpt lat="41.3381170" lon="-8.6844010">
        <ele>38.8</ele>
        <time>2021-03-20T12:09:30Z</time>
      </trkpt>
      <trkpt lat="41.3381050" lon="-8.6844900">
        <ele>38.8</ele>
        <time>2021-03-20T12:09:31Z</time>
      </trkpt>
      <trkpt lat="41.3381110" lon="-8.6845680">
        <ele>38.6</ele>
        <time>2021-03-20T12:09:32Z</time>
      </trkpt>
      <trkpt lat="41.3381000" lon="-8.6846500">
        <ele>38.4</ele>
        <time>2021-03-20T12:09:33Z</time>
      </trkpt>
      <trkpt lat="41.3381110" lon="-8.6847490">
        <ele>38.2</ele>
        <time>2021-03-20T12:09:34Z</time>
      </trkpt>
      <trkpt lat="41.3380960" lon="-8.6848590">
        <ele>38.0</ele>
        <time>2021-03-20T12:09:35Z</time>
      </trkpt>
      <trkpt lat="41.3381020" lon="-8.6849470">
        <ele>37.6</ele>
        <time>2021-03-20T12:09:36Z</time>
      </trkpt>
      <trkpt lat="41.3381170" lon="-8.6850200">
        <ele>37.8</ele>
        <time>2021-03-20T12:09:37Z</time>
      </trkpt>
      <trkpt lat="41.3380860" lon="-8.6851190">
        <ele>37.6</ele>
        <time>2021-03-20T12:09:38Z</time>
      </trkpt>
      <trkpt lat="41.3380930" lon="-8.6851890">
        <ele>37.4</ele>
        <time>2021-03-20T12:09:39Z</time>
      </trkpt>
      <trkpt lat="41.3380980" lon="-8.6853200">
        <ele>37.2</ele>
        <time>2021-03-20T12:09:40Z</time>
      </trkpt>
      <trkpt lat="41.3380790" lon="-8.6854190">
        <ele>37.2</ele>
        <time>2021-03-20T12:09:41Z</time>
      </trkpt>
      <trkpt lat="41.3380880" lon="-8.6854940">
        <ele>37.2</ele>
        <time>2021-03-20T12:09:42Z</time>
      </trkpt>
      <trkpt lat="41.3380770" lon="-8.6856380">
        <ele>37.2</ele>
        <time>2021-03-20T12:09:43Z</time>
      </trkpt>
      <trkpt lat="41.3380590" lon="-8.6857470">
        <ele>37.0</ele>
        <time>2021-03-20T12:09:44Z</time>
      </trkpt>
      <trkpt lat="41.3380610" lon="-8.6858550">
        <ele>36.8</ele>
        <time>2021-03-20T12:09:45Z</time>
      </trkpt>
      <trkpt lat="41.3380710" lon="-8.6859510">
        <ele>36.8</ele>
        <time>2021-03-20T12:09:46Z</time>
      </trkpt>
      <trkpt lat="41.3380740" lon="-8.6860620">
        <ele>36.4</ele>
        <time>2021-03-20T12:09:47Z</time>
      </trkpt>
      <trkpt lat="41.3380750" lon="-8.6861710">
        <ele>36.2</ele>
        <time>2021-03-20T12:09:48Z</time>
      </trkpt>
      <trkpt lat="41.3380790" lon="-8.6862870">
        <ele>36.2</ele>
        <time>2021-03-20T12:09:49Z</time>
      </trkpt>
      <trkpt lat="41.3380740" lon="-8.6863930">
        <ele>36.2</ele>
        <time>2021-03-20T12:09:50Z</time>
      </trkpt>
      <trkpt lat="41.3380740" lon="-8.6865040">
        <ele>36.2</ele>
        <time>2021-03-20T12:09:51Z</time>
      </trkpt>
      <trkpt lat="41.3380710" lon="-8.6866200">
        <ele>36.0</ele>
        <time>2021-03-20T12:09:52Z</time>
      </trkpt>
      <trkpt lat="41.3380740" lon="-8.6867340">
        <ele>35.8</ele>
        <time>2021-03-20T12:09:53Z</time>
      </trkpt>
      <trkpt lat="41.3380740" lon="-8.6868520">
        <ele>35.6</ele>
        <time>2021-03-20T12:09:54Z</time>
      </trkpt>
      <trkpt lat="41.3380740" lon="-8.6869670">
        <ele>35.6</ele>
        <time>2021-03-20T12:09:55Z</time>
      </trkpt>
      <trkpt lat="41.3380730" lon="-8.6870820">
        <ele>35.6</ele>
        <time>2021-03-20T12:09:56Z</time>
      </trkpt>
      <trkpt lat="41.3380720" lon="-8.6871840">
        <ele>35.4</ele>
        <time>2021-03-20T12:09:57Z</time>
      </trkpt>
      <trkpt lat="41.3380790" lon="-8.6872990">
        <ele>35.2</ele>
        <time>2021-03-20T12:09:58Z</time>
      </trkpt>
      <trkpt lat="41.3380720" lon="-8.6873980">
        <ele>35.0</ele>
        <time>2021-03-20T12:09:59Z</time>
      </trkpt>
      <trkpt lat="41.3380770" lon="-8.6875060">
        <ele>34.8</ele>
        <time>2021-03-20T12:10:00Z</time>
      </trkpt>
      <trkpt lat="41.3380740" lon="-8.6876200">
        <ele>34.6</ele>
        <time>2021-03-20T12:10:01Z</time>
      </trkpt>
      <trkpt lat="41.3380700" lon="-8.6877290">
        <ele>34.6</ele>
        <time>2021-03-20T12:10:02Z</time>
      </trkpt>
      <trkpt lat="41.3380750" lon="-8.6878490">
        <ele>34.6</ele>
        <time>2021-03-20T12:10:03Z</time>
      </trkpt>
      <trkpt lat="41.3380710" lon="-8.6879680">
        <ele>34.4</ele>
        <time>2021-03-20T12:10:04Z</time>
      </trkpt>
      <trkpt lat="41.3380660" lon="-8.6880910">
        <ele>34.2</ele>
        <time>2021-03-20T12:10:05Z</time>
      </trkpt>
      <trkpt lat="41.3380650" lon="-8.6882090">
        <ele>34.2</ele>
        <time>2021-03-20T12:10:06Z</time>
      </trkpt>
      <trkpt lat="41.3380660" lon="-8.6883220">
        <ele>34.0</ele>
        <time>2021-03-20T12:10:07Z</time>
      </trkpt>
      <trkpt lat="41.3380660" lon="-8.6884370">
        <ele>34.0</ele>
        <time>2021-03-20T12:10:08Z</time>
      </trkpt>
      <trkpt lat="41.3380630" lon="-8.6885560">
        <ele>33.6</ele>
        <time>2021-03-20T12:10:09Z</time>
      </trkpt>
      <trkpt lat="41.3380640" lon="-8.6886780">
        <ele>33.6</ele>
        <time>2021-03-20T12:10:10Z</time>
      </trkpt>
      <trkpt lat="41.3380590" lon="-8.6887990">
        <ele>33.2</ele>
        <time>2021-03-20T12:10:11Z</time>
      </trkpt>
      <trkpt lat="41.3380610" lon="-8.6889120">
        <ele>33.4</ele>
        <time>2021-03-20T12:10:12Z</time>
      </trkpt>
      <trkpt lat="41.3380570" lon="-8.6890370">
        <ele>33.0</ele>
        <time>2021-03-20T12:10:13Z</time>
      </trkpt>
      <trkpt lat="41.3380560" lon="-8.6891550">
        <ele>32.6</ele>
        <time>2021-03-20T12:10:14Z</time>
      </trkpt>
      <trkpt lat="41.3380540" lon="-8.6892770">
        <ele>32.2</ele>
        <time>2021-03-20T12:10:15Z</time>
      </trkpt>
      <trkpt lat="41.3380570" lon="-8.6893830">
        <ele>31.8</ele>
        <time>2021-03-20T12:10:16Z</time>
      </trkpt>
      <trkpt lat="41.3380630" lon="-8.6895050">
        <ele>31.4</ele>
        <time>2021-03-20T12:10:17Z</time>
      </trkpt>
      <trkpt lat="41.3380750" lon="-8.6896150">
        <ele>31.0</ele>
        <time>2021-03-20T12:10:18Z</time>
      </trkpt>
      <trkpt lat="41.3380940" lon="-8.6897320">
        <ele>30.4</ele>
        <time>2021-03-20T12:10:19Z</time>
      </trkpt>
      <trkpt lat="41.3381250" lon="-8.6898310">
        <ele>30.0</ele>
        <time>2021-03-20T12:10:20Z</time>
      </trkpt>
      <trkpt lat="41.3381500" lon="-8.6899490">
        <ele>29.6</ele>
        <time>2021-03-20T12:10:21Z</time>
      </trkpt>
      <trkpt lat="41.3381690" lon="-8.6900670">
        <ele>29.0</ele>
        <time>2021-03-20T12:10:22Z</time>
      </trkpt>
      <trkpt lat="41.3382030" lon="-8.6901860">
        <ele>28.2</ele>
        <time>2021-03-20T12:10:23Z</time>
      </trkpt>
      <trkpt lat="41.3382350" lon="-8.6903060">
        <ele>27.8</ele>
        <time>2021-03-20T12:10:24Z</time>
      </trkpt>
      <trkpt lat="41.3382620" lon="-8.6904310">
        <ele>27.6</ele>
        <time>2021-03-20T12:10:25Z</time>
      </trkpt>
      <trkpt lat="41.3382920" lon="-8.6905720">
        <ele>27.2</ele>
        <time>2021-03-20T12:10:26Z</time>
      </trkpt>
      <trkpt lat="41.3383160" lon="-8.6906730">
        <ele>26.8</ele>
        <time>2021-03-20T12:10:27Z</time>
      </trkpt>
      <trkpt lat="41.3383780" lon="-8.6908370">
        <ele>26.4</ele>
        <time>2021-03-20T12:10:28Z</time>
      </trkpt>
      <trkpt lat="41.3384410" lon="-8.6909320">
        <ele>25.6</ele>
        <time>2021-03-20T12:10:29Z</time>
      </trkpt>
      <trkpt lat="41.3385100" lon="-8.6910300">
        <ele>25.2</ele>
        <time>2021-03-20T12:10:30Z</time>
      </trkpt>
      <trkpt lat="41.3386020" lon="-8.6911580">
        <ele>24.6</ele>
        <time>2021-03-20T12:10:31Z</time>
      </trkpt>
      <trkpt lat="41.3386640" lon="-8.6912170">
        <ele>24.2</ele>
        <time>2021-03-20T12:10:32Z</time>
      </trkpt>
      <trkpt lat="41.3387430" lon="-8.6913100">
        <ele>23.8</ele>
        <time>2021-03-20T12:10:33Z</time>
      </trkpt>
      <trkpt lat="41.3388200" lon="-8.6914040">
        <ele>23.4</ele>
        <time>2021-03-20T12:10:34Z</time>
      </trkpt>
      <trkpt lat="41.3389040" lon="-8.6914900">
        <ele>22.6</ele>
        <time>2021-03-20T12:10:35Z</time>
      </trkpt>
      <trkpt lat="41.3389950" lon="-8.6915490">
        <ele>22.6</ele>
        <time>2021-03-20T12:10:36Z</time>
      </trkpt>
      <trkpt lat="41.3390790" lon="-8.6916500">
        <ele>22.6</ele>
        <time>2021-03-20T12:10:37Z</time>
      </trkpt>
      <trkpt lat="41.3391570" lon="-8.6917400">
        <ele>22.8</ele>
        <time>2021-03-20T12:10:38Z</time>
      </trkpt>
      <trkpt lat="41.3392280" lon="-8.6918340">
        <ele>22.8</ele>
        <time>2021-03-20T12:10:39Z</time>
      </trkpt>
      <trkpt lat="41.3393040" lon="-8.6919130">
        <ele>22.6</ele>
        <time>2021-03-20T12:10:40Z</time>
      </trkpt>
      <trkpt lat="41.3393770" lon="-8.6920000">
        <ele>22.4</ele>
        <time>2021-03-20T12:10:41Z</time>
      </trkpt>
      <trkpt lat="41.3394570" lon="-8.6920870">
        <ele>22.4</ele>
        <time>2021-03-20T12:10:42Z</time>
      </trkpt>
      <trkpt lat="41.3395290" lon="-8.6921790">
        <ele>22.6</ele>
        <time>2021-03-20T12:10:43Z</time>
      </trkpt>
      <trkpt lat="41.3395970" lon="-8.6922740">
        <ele>22.8</ele>
        <time>2021-03-20T12:10:44Z</time>
      </trkpt>
      <trkpt lat="41.3396620" lon="-8.6923720">
        <ele>22.8</ele>
        <time>2021-03-20T12:10:45Z</time>
      </trkpt>
      <trkpt lat="41.3397150" lon="-8.6924750">
        <ele>22.6</ele>
        <time>2021-03-20T12:10:46Z</time>
      </trkpt>
      <trkpt lat="41.3397670" lon="-8.6925820">
        <ele>22.6</ele>
        <time>2021-03-20T12:10:47Z</time>
      </trkpt>
      <trkpt lat="41.3398180" lon="-8.6926820">
        <ele>22.8</ele>
        <time>2021-03-20T12:10:48Z</time>
      </trkpt>
      <trkpt lat="41.3398740" lon="-8.6927830">
        <ele>22.8</ele>
        <time>2021-03-20T12:10:49Z</time>
      </trkpt>
      <trkpt lat="41.3399270" lon="-8.6928780">
        <ele>23.0</ele>
        <time>2021-03-20T12:10:50Z</time>
      </trkpt>
      <trkpt lat="41.3399840" lon="-8.6929760">
        <ele>23.2</ele>
        <time>2021-03-20T12:10:51Z</time>
      </trkpt>
      <trkpt lat="41.3400350" lon="-8.6930810">
        <ele>23.4</ele>
        <time>2021-03-20T12:10:52Z</time>
      </trkpt>
      <trkpt lat="41.3400800" lon="-8.6931810">
        <ele>23.6</ele>
        <time>2021-03-20T12:10:53Z</time>
      </trkpt>
      <trkpt lat="41.3401410" lon="-8.6932770">
        <ele>24.0</ele>
        <time>2021-03-20T12:10:54Z</time>
      </trkpt>
      <trkpt lat="41.3401830" lon="-8.6933710">
        <ele>24.0</ele>
        <time>2021-03-20T12:10:55Z</time>
      </trkpt>
      <trkpt lat="41.3402240" lon="-8.6934620">
        <ele>24.0</ele>
        <time>2021-03-20T12:10:56Z</time>
      </trkpt>
      <trkpt lat="41.3402640" lon="-8.6935580">
        <ele>24.2</ele>
        <time>2021-03-20T12:10:57Z</time>
      </trkpt>
      <trkpt lat="41.3402940" lon="-8.6936520">
        <ele>24.4</ele>
        <time>2021-03-20T12:10:58Z</time>
      </trkpt>
      <trkpt lat="41.3403180" lon="-8.6937550">
        <ele>24.6</ele>
        <time>2021-03-20T12:10:59Z</time>
      </trkpt>
      <trkpt lat="41.3403540" lon="-8.6938460">
        <ele>24.8</ele>
        <time>2021-03-20T12:11:00Z</time>
      </trkpt>
      <trkpt lat="41.3403820" lon="-8.6939440">
        <ele>24.8</ele>
        <time>2021-03-20T12:11:01Z</time>
      </trkpt>
      <trkpt lat="41.3404200" lon="-8.6940340">
        <ele>24.8</ele>
        <time>2021-03-20T12:11:02Z</time>
      </trkpt>
      <trkpt lat="41.3404440" lon="-8.6941330">
        <ele>24.8</ele>
        <time>2021-03-20T12:11:03Z</time>
      </trkpt>
      <trkpt lat="41.3404630" lon="-8.6942200">
        <ele>25.0</ele>
        <time>2021-03-20T12:11:04Z</time>
      </trkpt>
      <trkpt lat="41.3404850" lon="-8.6943090">
        <ele>25.0</ele>
        <time>2021-03-20T12:11:05Z</time>
      </trkpt>
      <trkpt lat="41.3405110" lon="-8.6943790">
        <ele>25.2</ele>
        <time>2021-03-20T12:11:06Z</time>
      </trkpt>
      <trkpt lat="41.3405430" lon="-8.6944590">
        <ele>25.4</ele>
        <time>2021-03-20T12:11:07Z</time>
      </trkpt>
      <trkpt lat="41.3405720" lon="-8.6945330">
        <ele>25.4</ele>
        <time>2021-03-20T12:11:08Z</time>
      </trkpt>
      <trkpt lat="41.3405870" lon="-8.6946140">
        <ele>25.4</ele>
        <time>2021-03-20T12:11:09Z</time>
      </trkpt>
      <trkpt lat="41.3406080" lon="-8.6947030">
        <ele>25.4</ele>
        <time>2021-03-20T12:11:10Z</time>
      </trkpt>
      <trkpt lat="41.3406280" lon="-8.6947880">
        <ele>25.4</ele>
        <time>2021-03-20T12:11:11Z</time>
      </trkpt>
      <trkpt lat="41.3406540" lon="-8.6948670">
        <ele>25.4</ele>
        <time>2021-03-20T12:11:12Z</time>
      </trkpt>
      <trkpt lat="41.3406740" lon="-8.6949530">
        <ele>26.0</ele>
        <time>2021-03-20T12:11:13Z</time>
      </trkpt>
      <trkpt lat="41.3406900" lon="-8.6950380">
        <ele>26.0</ele>
        <time>2021-03-20T12:11:14Z</time>
      </trkpt>
      <trkpt lat="41.3407150" lon="-8.6951270">
        <ele>26.0</ele>
        <time>2021-03-20T12:11:15Z</time>
      </trkpt>
      <trkpt lat="41.3407410" lon="-8.6952090">
        <ele>26.0</ele>
        <time>2021-03-20T12:11:16Z</time>
      </trkpt>
      <trkpt lat="41.3407660" lon="-8.6953020">
        <ele>26.2</ele>
        <time>2021-03-20T12:11:17Z</time>
      </trkpt>
      <trkpt lat="41.3407930" lon="-8.6953990">
        <ele>26.2</ele>
        <time>2021-03-20T12:11:18Z</time>
      </trkpt>
      <trkpt lat="41.3408150" lon="-8.6954840">
        <ele>26.0</ele>
        <time>2021-03-20T12:11:19Z</time>
      </trkpt>
      <trkpt lat="41.3408350" lon="-8.6955710">
        <ele>26.2</ele>
        <time>2021-03-20T12:11:20Z</time>
      </trkpt>
      <trkpt lat="41.3408480" lon="-8.6956600">
        <ele>27.6</ele>
        <time>2021-03-20T12:11:21Z</time>
      </trkpt>
      <trkpt lat="41.3408690" lon="-8.6957500">
        <ele>28.0</ele>
        <time>2021-03-20T12:11:22Z</time>
      </trkpt>
      <trkpt lat="41.3408750" lon="-8.6958500">
        <ele>28.4</ele>
        <time>2021-03-20T12:11:23Z</time>
      </trkpt>
      <trkpt lat="41.3408920" lon="-8.6959470">
        <ele>27.6</ele>
        <time>2021-03-20T12:11:24Z</time>
      </trkpt>
      <trkpt lat="41.3409010" lon="-8.6960390">
        <ele>27.4</ele>
        <time>2021-03-20T12:11:25Z</time>
      </trkpt>
      <trkpt lat="41.3409060" lon="-8.6961400">
        <ele>27.2</ele>
        <time>2021-03-20T12:11:26Z</time>
      </trkpt>
      <trkpt lat="41.3409050" lon="-8.6962450">
        <ele>27.2</ele>
        <time>2021-03-20T12:11:27Z</time>
      </trkpt>
      <trkpt lat="41.3409060" lon="-8.6963710">
        <ele>27.6</ele>
        <time>2021-03-20T12:11:28Z</time>
      </trkpt>
      <trkpt lat="41.3408970" lon="-8.6965150">
        <ele>27.4</ele>
        <time>2021-03-20T12:11:29Z</time>
      </trkpt>
      <trkpt lat="41.3408830" lon="-8.6966960">
        <ele>27.4</ele>
        <time>2021-03-20T12:11:30Z</time>
      </trkpt>
      <trkpt lat="41.3408710" lon="-8.6968410">
        <ele>27.8</ele>
        <time>2021-03-20T12:11:31Z</time>
      </trkpt>
      <trkpt lat="41.3408590" lon="-8.6969530">
        <ele>27.6</ele>
        <time>2021-03-20T12:11:32Z</time>
      </trkpt>
      <trkpt lat="41.3408620" lon="-8.6970470">
        <ele>27.6</ele>
        <time>2021-03-20T12:11:33Z</time>
      </trkpt>
      <trkpt lat="41.3408560" lon="-8.6971320">
        <ele>27.6</ele>
        <time>2021-03-20T12:11:34Z</time>
      </trkpt>
      <trkpt lat="41.3408560" lon="-8.6972180">
        <ele>28.2</ele>
        <time>2021-03-20T12:11:35Z</time>
      </trkpt>
      <trkpt lat="41.3408600" lon="-8.6973040">
        <ele>28.4</ele>
        <time>2021-03-20T12:11:36Z</time>
      </trkpt>
      <trkpt lat="41.3408630" lon="-8.6973880">
        <ele>28.6</ele>
        <time>2021-03-20T12:11:37Z</time>
      </trkpt>
      <trkpt lat="41.3408700" lon="-8.6974920">
        <ele>28.6</ele>
        <time>2021-03-20T12:11:38Z</time>
      </trkpt>
      <trkpt lat="41.3408870" lon="-8.6975710">
        <ele>28.8</ele>
        <time>2021-03-20T12:11:39Z</time>
      </trkpt>
      <trkpt lat="41.3409150" lon="-8.6976340">
        <ele>28.8</ele>
        <time>2021-03-20T12:11:40Z</time>
      </trkpt>
      <trkpt lat="41.3409350" lon="-8.6977220">
        <ele>28.8</ele>
        <time>2021-03-20T12:11:41Z</time>
      </trkpt>
      <trkpt lat="41.3409510" lon="-8.6978080">
        <ele>28.8</ele>
        <time>2021-03-20T12:11:42Z</time>
      </trkpt>
      <trkpt lat="41.3409820" lon="-8.6979060">
        <ele>28.6</ele>
        <time>2021-03-20T12:11:43Z</time>
      </trkpt>
      <trkpt lat="41.3409920" lon="-8.6979690">
        <ele>28.6</ele>
        <time>2021-03-20T12:11:44Z</time>
      </trkpt>
      <trkpt lat="41.3410240" lon="-8.6980500">
        <ele>28.6</ele>
        <time>2021-03-20T12:11:45Z</time>
      </trkpt>
      <trkpt lat="41.3410410" lon="-8.6981390">
        <ele>28.8</ele>
        <time>2021-03-20T12:11:46Z</time>
      </trkpt>
      <trkpt lat="41.3410610" lon="-8.6982190">
        <ele>28.2</ele>
        <time>2021-03-20T12:11:47Z</time>
      </trkpt>
      <trkpt lat="41.3410570" lon="-8.6983120">
        <ele>28.2</ele>
        <time>2021-03-20T12:11:48Z</time>
      </trkpt>
      <trkpt lat="41.3410650" lon="-8.6984080">
        <ele>28.0</ele>
        <time>2021-03-20T12:11:49Z</time>
      </trkpt>
      <trkpt lat="41.3410680" lon="-8.6985000">
        <ele>27.8</ele>
        <time>2021-03-20T12:11:50Z</time>
      </trkpt>
      <trkpt lat="41.3410730" lon="-8.6986000">
        <ele>27.6</ele>
        <time>2021-03-20T12:11:51Z</time>
      </trkpt>
      <trkpt lat="41.3410640" lon="-8.6987090">
        <ele>27.4</ele>
        <time>2021-03-20T12:11:52Z</time>
      </trkpt>
      <trkpt lat="41.3410510" lon="-8.6988240">
        <ele>26.8</ele>
        <time>2021-03-20T12:11:53Z</time>
      </trkpt>
      <trkpt lat="41.3410240" lon="-8.6989140">
        <ele>27.0</ele>
        <time>2021-03-20T12:11:54Z</time>
      </trkpt>
      <trkpt lat="41.3409880" lon="-8.6990010">
        <ele>27.2</ele>
        <time>2021-03-20T12:11:55Z</time>
      </trkpt>
      <trkpt lat="41.3409430" lon="-8.6990860">
        <ele>27.0</ele>
        <time>2021-03-20T12:11:56Z</time>
      </trkpt>
      <trkpt lat="41.3408920" lon="-8.6991700">
        <ele>26.6</ele>
        <time>2021-03-20T12:11:57Z</time>
      </trkpt>
      <trkpt lat="41.3408410" lon="-8.6992530">
        <ele>26.4</ele>
        <time>2021-03-20T12:11:58Z</time>
      </trkpt>
      <trkpt lat="41.3407910" lon="-8.6993320">
        <ele>26.2</ele>
        <time>2021-03-20T12:11:59Z</time>
      </trkpt>
      <trkpt lat="41.3407400" lon="-8.6994070">
        <ele>26.2</ele>
        <time>2021-03-20T12:12:00Z</time>
      </trkpt>
      <trkpt lat="41.3406940" lon="-8.6994810">
        <ele>25.8</ele>
        <time>2021-03-20T12:12:01Z</time>
      </trkpt>
      <trkpt lat="41.3406510" lon="-8.6995630">
        <ele>25.4</ele>
        <time>2021-03-20T12:12:02Z</time>
      </trkpt>
      <trkpt lat="41.3406010" lon="-8.6996460">
        <ele>25.2</ele>
        <time>2021-03-20T12:12:03Z</time>
      </trkpt>
      <trkpt lat="41.3405510" lon="-8.6997200">
        <ele>25.0</ele>
        <time>2021-03-20T12:12:04Z</time>
      </trkpt>
      <trkpt lat="41.3405160" lon="-8.6997950">
        <ele>25.0</ele>
        <time>2021-03-20T12:12:05Z</time>
      </trkpt>
      <trkpt lat="41.3405000" lon="-8.6998800">
        <ele>24.8</ele>
        <time>2021-03-20T12:12:06Z</time>
      </trkpt>
      <trkpt lat="41.3405000" lon="-8.6999640">
        <ele>24.8</ele>
        <time>2021-03-20T12:12:07Z</time>
      </trkpt>
      <trkpt lat="41.3405050" lon="-8.7000440">
        <ele>24.4</ele>
        <time>2021-03-20T12:12:08Z</time>
      </trkpt>
      <trkpt lat="41.3405130" lon="-8.7001230">
        <ele>24.0</ele>
        <time>2021-03-20T12:12:09Z</time>
      </trkpt>
      <trkpt lat="41.3405280" lon="-8.7002210">
        <ele>23.4</ele>
        <time>2021-03-20T12:12:10Z</time>
      </trkpt>
      <trkpt lat="41.3405470" lon="-8.7003230">
        <ele>23.2</ele>
        <time>2021-03-20T12:12:11Z</time>
      </trkpt>
      <trkpt lat="41.3405610" lon="-8.7004370">
        <ele>23.0</ele>
        <time>2021-03-20T12:12:12Z</time>
      </trkpt>
      <trkpt lat="41.3405670" lon="-8.7005590">
        <ele>22.6</ele>
        <time>2021-03-20T12:12:13Z</time>
      </trkpt>
      <trkpt lat="41.3405670" lon="-8.7006880">
        <ele>22.2</ele>
        <time>2021-03-20T12:12:14Z</time>
      </trkpt>
      <trkpt lat="41.3405670" lon="-8.7008120">
        <ele>22.0</ele>
        <time>2021-03-20T12:12:15Z</time>
      </trkpt>
      <trkpt lat="41.3405710" lon="-8.7009420">
        <ele>21.2</ele>
        <time>2021-03-20T12:12:16Z</time>
      </trkpt>
      <trkpt lat="41.3405700" lon="-8.7010750">
        <ele>20.8</ele>
        <time>2021-03-20T12:12:17Z</time>
      </trkpt>
      <trkpt lat="41.3405670" lon="-8.7012110">
        <ele>20.2</ele>
        <time>2021-03-20T12:12:18Z</time>
      </trkpt>
      <trkpt lat="41.3405680" lon="-8.7013590">
        <ele>19.6</ele>
        <time>2021-03-20T12:12:19Z</time>
      </trkpt>
      <trkpt lat="41.3405750" lon="-8.7015110">
        <ele>19.4</ele>
        <time>2021-03-20T12:12:20Z</time>
      </trkpt>
      <trkpt lat="41.3405880" lon="-8.7016650">
        <ele>19.2</ele>
        <time>2021-03-20T12:12:21Z</time>
      </trkpt>
      <trkpt lat="41.3406050" lon="-8.7018200">
        <ele>19.0</ele>
        <time>2021-03-20T12:12:22Z</time>
      </trkpt>
      <trkpt lat="41.3406250" lon="-8.7019770">
        <ele>18.6</ele>
        <time>2021-03-20T12:12:23Z</time>
      </trkpt>
      <trkpt lat="41.3406490" lon="-8.7021290">
        <ele>18.2</ele>
        <time>2021-03-20T12:12:24Z</time>
      </trkpt>
      <trkpt lat="41.3406740" lon="-8.7022850">
        <ele>17.8</ele>
        <time>2021-03-20T12:12:25Z</time>
      </trkpt>
      <trkpt lat="41.3406940" lon="-8.7024500">
        <ele>17.8</ele>
        <time>2021-03-20T12:12:26Z</time>
      </trkpt>
      <trkpt lat="41.3407170" lon="-8.7026060">
        <ele>17.8</ele>
        <time>2021-03-20T12:12:27Z</time>
      </trkpt>
      <trkpt lat="41.3407420" lon="-8.7027670">
        <ele>17.6</ele>
        <time>2021-03-20T12:12:28Z</time>
      </trkpt>
      <trkpt lat="41.3407690" lon="-8.7029180">
        <ele>17.4</ele>
        <time>2021-03-20T12:12:29Z</time>
      </trkpt>
      <trkpt lat="41.3407920" lon="-8.7030700">
        <ele>17.6</ele>
        <time>2021-03-20T12:12:30Z</time>
      </trkpt>
      <trkpt lat="41.3408180" lon="-8.7032190">
        <ele>17.6</ele>
        <time>2021-03-20T12:12:31Z</time>
      </trkpt>
      <trkpt lat="41.3408440" lon="-8.7033690">
        <ele>17.6</ele>
        <time>2021-03-20T12:12:32Z</time>
      </trkpt>
      <trkpt lat="41.3408710" lon="-8.7035180">
        <ele>17.6</ele>
        <time>2021-03-20T12:12:33Z</time>
      </trkpt>
      <trkpt lat="41.3408930" lon="-8.7036640">
        <ele>17.8</ele>
        <time>2021-03-20T12:12:34Z</time>
      </trkpt>
      <trkpt lat="41.3408990" lon="-8.7038140">
        <ele>16.8</ele>
        <time>2021-03-20T12:12:35Z</time>
      </trkpt>
      <trkpt lat="41.3408930" lon="-8.7039550">
        <ele>18.8</ele>
        <time>2021-03-20T12:12:36Z</time>
      </trkpt>
      <trkpt lat="41.3408850" lon="-8.7040900">
        <ele>17.4</ele>
        <time>2021-03-20T12:12:37Z</time>
      </trkpt>
      <trkpt lat="41.3408710" lon="-8.7042330">
        <ele>17.4</ele>
        <time>2021-03-20T12:12:38Z</time>
      </trkpt>
      <trkpt lat="41.3408460" lon="-8.7043670">
        <ele>16.4</ele>
        <time>2021-03-20T12:12:39Z</time>
      </trkpt>
      <trkpt lat="41.3408160" lon="-8.7044980">
        <ele>17.4</ele>
        <time>2021-03-20T12:12:40Z</time>
      </trkpt>
      <trkpt lat="41.3407880" lon="-8.7046250">
        <ele>16.2</ele>
        <time>2021-03-20T12:12:41Z</time>
      </trkpt>
      <trkpt lat="41.3407720" lon="-8.7047450">
        <ele>16.2</ele>
        <time>2021-03-20T12:12:42Z</time>
      </trkpt>
      <trkpt lat="41.3407420" lon="-8.7048640">
        <ele>16.2</ele>
        <time>2021-03-20T12:12:43Z</time>
      </trkpt>
      <trkpt lat="41.3407210" lon="-8.7049750">
        <ele>16.2</ele>
        <time>2021-03-20T12:12:44Z</time>
      </trkpt>
      <trkpt lat="41.3406890" lon="-8.7050980">
        <ele>16.2</ele>
        <time>2021-03-20T12:12:45Z</time>
      </trkpt>
      <trkpt lat="41.3406640" lon="-8.7052120">
        <ele>14.8</ele>
        <time>2021-03-20T12:12:46Z</time>
      </trkpt>
      <trkpt lat="41.3406370" lon="-8.7053480">
        <ele>13.6</ele>
        <time>2021-03-20T12:12:47Z</time>
      </trkpt>
      <trkpt lat="41.3406220" lon="-8.7054750">
        <ele>13.0</ele>
        <time>2021-03-20T12:12:48Z</time>
      </trkpt>
      <trkpt lat="41.3406140" lon="-8.7056150">
        <ele>12.6</ele>
        <time>2021-03-20T12:12:49Z</time>
      </trkpt>
      <trkpt lat="41.3406150" lon="-8.7057480">
        <ele>12.8</ele>
        <time>2021-03-20T12:12:50Z</time>
      </trkpt>
      <trkpt lat="41.3406300" lon="-8.7058760">
        <ele>13.0</ele>
        <time>2021-03-20T12:12:51Z</time>
      </trkpt>
      <trkpt lat="41.3406410" lon="-8.7059980">
        <ele>12.8</ele>
        <time>2021-03-20T12:12:52Z</time>
      </trkpt>
      <trkpt lat="41.3406540" lon="-8.7061260">
        <ele>12.6</ele>
        <time>2021-03-20T12:12:53Z</time>
      </trkpt>
      <trkpt lat="41.3406700" lon="-8.7062520">
        <ele>12.4</ele>
        <time>2021-03-20T12:12:54Z</time>
      </trkpt>
      <trkpt lat="41.3406950" lon="-8.7063720">
        <ele>12.8</ele>
        <time>2021-03-20T12:12:55Z</time>
      </trkpt>
      <trkpt lat="41.3407070" lon="-8.7064960">
        <ele>13.0</ele>
        <time>2021-03-20T12:12:56Z</time>
      </trkpt>
      <trkpt lat="41.3407180" lon="-8.7066210">
        <ele>13.0</ele>
        <time>2021-03-20T12:12:57Z</time>
      </trkpt>
      <trkpt lat="41.3407270" lon="-8.7067440">
        <ele>13.0</ele>
        <time>2021-03-20T12:12:58Z</time>
      </trkpt>
      <trkpt lat="41.3407330" lon="-8.7068670">
        <ele>13.2</ele>
        <time>2021-03-20T12:12:59Z</time>
      </trkpt>
      <trkpt lat="41.3407480" lon="-8.7069800">
        <ele>13.4</ele>
        <time>2021-03-20T12:13:00Z</time>
      </trkpt>
      <trkpt lat="41.3407480" lon="-8.7070970">
        <ele>13.0</ele>
        <time>2021-03-20T12:13:01Z</time>
      </trkpt>
      <trkpt lat="41.3407640" lon="-8.7072090">
        <ele>13.0</ele>
        <time>2021-03-20T12:13:02Z</time>
      </trkpt>
      <trkpt lat="41.3407670" lon="-8.7073020">
        <ele>13.0</ele>
        <time>2021-03-20T12:13:03Z</time>
      </trkpt>
      <trkpt lat="41.3407840" lon="-8.7073910">
        <ele>13.2</ele>
        <time>2021-03-20T12:13:04Z</time>
      </trkpt>
      <trkpt lat="41.3408010" lon="-8.7074800">
        <ele>12.8</ele>
        <time>2021-03-20T12:13:05Z</time>
      </trkpt>
      <trkpt lat="41.3408220" lon="-8.7075990">
        <ele>12.8</ele>
        <time>2021-03-20T12:13:06Z</time>
      </trkpt>
      <trkpt lat="41.3408250" lon="-8.7077090">
        <ele>12.8</ele>
        <time>2021-03-20T12:13:07Z</time>
      </trkpt>
      <trkpt lat="41.3408580" lon="-8.7078010">
        <ele>13.0</ele>
        <time>2021-03-20T12:13:08Z</time>
      </trkpt>
      <trkpt lat="41.3408970" lon="-8.7079100">
        <ele>12.8</ele>
        <time>2021-03-20T12:13:09Z</time>
      </trkpt>
      <trkpt lat="41.3409170" lon="-8.7080300">
        <ele>12.8</ele>
        <time>2021-03-20T12:13:10Z</time>
      </trkpt>
      <trkpt lat="41.3409360" lon="-8.7081390">
        <ele>12.8</ele>
        <time>2021-03-20T12:13:11Z</time>
      </trkpt>
      <trkpt lat="41.3409470" lon="-8.7082530">
        <ele>13.6</ele>
        <time>2021-03-20T12:13:12Z</time>
      </trkpt>
      <trkpt lat="41.3409610" lon="-8.7083600">
        <ele>13.8</ele>
        <time>2021-03-20T12:13:13Z</time>
      </trkpt>
      <trkpt lat="41.3409890" lon="-8.7084680">
        <ele>14.0</ele>
        <time>2021-03-20T12:13:14Z</time>
      </trkpt>
      <trkpt lat="41.3410040" lon="-8.7085730">
        <ele>14.2</ele>
        <time>2021-03-20T12:13:15Z</time>
      </trkpt>
      <trkpt lat="41.3410260" lon="-8.7086900">
        <ele>14.4</ele>
        <time>2021-03-20T12:13:16Z</time>
      </trkpt>
      <trkpt lat="41.3410480" lon="-8.7087800">
        <ele>14.6</ele>
        <time>2021-03-20T12:13:17Z</time>
      </trkpt>
      <trkpt lat="41.3410810" lon="-8.7088820">
        <ele>14.8</ele>
        <time>2021-03-20T12:13:18Z</time>
      </trkpt>
      <trkpt lat="41.3411130" lon="-8.7089780">
        <ele>15.0</ele>
        <time>2021-03-20T12:13:19Z</time>
      </trkpt>
      <trkpt lat="41.3411210" lon="-8.7090740">
        <ele>15.4</ele>
        <time>2021-03-20T12:13:20Z</time>
      </trkpt>
      <trkpt lat="41.3411490" lon="-8.7091820">
        <ele>15.8</ele>
        <time>2021-03-20T12:13:21Z</time>
      </trkpt>
      <trkpt lat="41.3411790" lon="-8.7092800">
        <ele>16.2</ele>
        <time>2021-03-20T12:13:22Z</time>
      </trkpt>
      <trkpt lat="41.3411870" lon="-8.7093860">
        <ele>16.4</ele>
        <time>2021-03-20T12:13:23Z</time>
      </trkpt>
      <trkpt lat="41.3412010" lon="-8.7094800">
        <ele>16.6</ele>
        <time>2021-03-20T12:13:24Z</time>
      </trkpt>
      <trkpt lat="41.3412130" lon="-8.7095710">
        <ele>16.8</ele>
        <time>2021-03-20T12:13:25Z</time>
      </trkpt>
      <trkpt lat="41.3412160" lon="-8.7096730">
        <ele>17.4</ele>
        <time>2021-03-20T12:13:26Z</time>
      </trkpt>
      <trkpt lat="41.3412040" lon="-8.7097750">
        <ele>17.4</ele>
        <time>2021-03-20T12:13:27Z</time>
      </trkpt>
      <trkpt lat="41.3411920" lon="-8.7098630">
        <ele>17.6</ele>
        <time>2021-03-20T12:13:28Z</time>
      </trkpt>
      <trkpt lat="41.3411820" lon="-8.7099600">
        <ele>17.6</ele>
        <time>2021-03-20T12:13:29Z</time>
      </trkpt>
      <trkpt lat="41.3411620" lon="-8.7100540">
        <ele>17.6</ele>
        <time>2021-03-20T12:13:30Z</time>
      </trkpt>
      <trkpt lat="41.3411570" lon="-8.7101460">
        <ele>17.8</ele>
        <time>2021-03-20T12:13:31Z</time>
      </trkpt>
      <trkpt lat="41.3411430" lon="-8.7102290">
        <ele>18.0</ele>
        <time>2021-03-20T12:13:32Z</time>
      </trkpt>
      <trkpt lat="41.3411210" lon="-8.7103250">
        <ele>18.0</ele>
        <time>2021-03-20T12:13:33Z</time>
      </trkpt>
      <trkpt lat="41.3411030" lon="-8.7104150">
        <ele>17.6</ele>
        <time>2021-03-20T12:13:34Z</time>
      </trkpt>
      <trkpt lat="41.3410750" lon="-8.7105070">
        <ele>18.0</ele>
        <time>2021-03-20T12:13:35Z</time>
      </trkpt>
      <trkpt lat="41.3410510" lon="-8.7106000">
        <ele>18.8</ele>
        <time>2021-03-20T12:13:36Z</time>
      </trkpt>
      <trkpt lat="41.3410290" lon="-8.7106840">
        <ele>19.0</ele>
        <time>2021-03-20T12:13:37Z</time>
      </trkpt>
      <trkpt lat="41.3409950" lon="-8.7107690">
        <ele>19.4</ele>
        <time>2021-03-20T12:13:38Z</time>
      </trkpt>
      <trkpt lat="41.3409580" lon="-8.7108470">
        <ele>19.6</ele>
        <time>2021-03-20T12:13:39Z</time>
      </trkpt>
      <trkpt lat="41.3409320" lon="-8.7109220">
        <ele>20.2</ele>
        <time>2021-03-20T12:13:40Z</time>
      </trkpt>
      <trkpt lat="41.3408990" lon="-8.7109910">
        <ele>20.4</ele>
        <time>2021-03-20T12:13:41Z</time>
      </trkpt>
      <trkpt lat="41.3408600" lon="-8.7110610">
        <ele>20.8</ele>
        <time>2021-03-20T12:13:42Z</time>
      </trkpt>
      <trkpt lat="41.3408120" lon="-8.7111460">
        <ele>21.2</ele>
        <time>2021-03-20T12:13:43Z</time>
      </trkpt>
      <trkpt lat="41.3407720" lon="-8.7112160">
        <ele>21.2</ele>
        <time>2021-03-20T12:13:44Z</time>
      </trkpt>
      <trkpt lat="41.3407310" lon="-8.7112790">
        <ele>21.6</ele>
        <time>2021-03-20T12:13:45Z</time>
      </trkpt>
      <trkpt lat="41.3406920" lon="-8.7113530">
        <ele>21.8</ele>
        <time>2021-03-20T12:13:46Z</time>
      </trkpt>
      <trkpt lat="41.3406560" lon="-8.7114230">
        <ele>21.8</ele>
        <time>2021-03-20T12:13:47Z</time>
      </trkpt>
      <trkpt lat="41.3406220" lon="-8.7114950">
        <ele>22.2</ele>
        <time>2021-03-20T12:13:48Z</time>
      </trkpt>
      <trkpt lat="41.3405830" lon="-8.7115660">
        <ele>22.2</ele>
        <time>2021-03-20T12:13:49Z</time>
      </trkpt>
      <trkpt lat="41.3405490" lon="-8.7116400">
        <ele>22.6</ele>
        <time>2021-03-20T12:13:50Z</time>
      </trkpt>
      <trkpt lat="41.3405230" lon="-8.7117100">
        <ele>22.6</ele>
        <time>2021-03-20T12:13:51Z</time>
      </trkpt>
      <trkpt lat="41.3404940" lon="-8.7117730">
        <ele>23.0</ele>
        <time>2021-03-20T12:13:52Z</time>
      </trkpt>
      <trkpt lat="41.3404630" lon="-8.7118410">
        <ele>23.2</ele>
        <time>2021-03-20T12:13:53Z</time>
      </trkpt>
      <trkpt lat="41.3404380" lon="-8.7119120">
        <ele>23.6</ele>
        <time>2021-03-20T12:13:54Z</time>
      </trkpt>
      <trkpt lat="41.3404150" lon="-8.7119860">
        <ele>23.8</ele>
        <time>2021-03-20T12:13:55Z</time>
      </trkpt>
      <trkpt lat="41.3404020" lon="-8.7120560">
        <ele>23.8</ele>
        <time>2021-03-20T12:13:56Z</time>
      </trkpt>
      <trkpt lat="41.3403860" lon="-8.7121330">
        <ele>24.2</ele>
        <time>2021-03-20T12:13:57Z</time>
      </trkpt>
      <trkpt lat="41.3403770" lon="-8.7122060">
        <ele>24.2</ele>
        <time>2021-03-20T12:13:58Z</time>
      </trkpt>
      <trkpt lat="41.3403670" lon="-8.7122830">
        <ele>24.2</ele>
        <time>2021-03-20T12:13:59Z</time>
      </trkpt>
      <trkpt lat="41.3403590" lon="-8.7123540">
        <ele>24.0</ele>
        <time>2021-03-20T12:14:00Z</time>
      </trkpt>
      <trkpt lat="41.3403510" lon="-8.7124290">
        <ele>23.8</ele>
        <time>2021-03-20T12:14:01Z</time>
      </trkpt>
      <trkpt lat="41.3403440" lon="-8.7124950">
        <ele>23.6</ele>
        <time>2021-03-20T12:14:02Z</time>
      </trkpt>
      <trkpt lat="41.3403320" lon="-8.7125680">
        <ele>23.4</ele>
        <time>2021-03-20T12:14:03Z</time>
      </trkpt>
      <trkpt lat="41.3403270" lon="-8.7126400">
        <ele>23.4</ele>
        <time>2021-03-20T12:14:04Z</time>
      </trkpt>
      <trkpt lat="41.3403200" lon="-8.7127130">
        <ele>23.4</ele>
        <time>2021-03-20T12:14:05Z</time>
      </trkpt>
      <trkpt lat="41.3403030" lon="-8.7127910">
        <ele>23.2</ele>
        <time>2021-03-20T12:14:06Z</time>
      </trkpt>
      <trkpt lat="41.3402910" lon="-8.7128720">
        <ele>23.0</ele>
        <time>2021-03-20T12:14:07Z</time>
      </trkpt>
      <trkpt lat="41.3402780" lon="-8.7129590">
        <ele>22.8</ele>
        <time>2021-03-20T12:14:08Z</time>
      </trkpt>
      <trkpt lat="41.3402660" lon="-8.7130350">
        <ele>22.6</ele>
        <time>2021-03-20T12:14:09Z</time>
      </trkpt>
      <trkpt lat="41.3402580" lon="-8.7131210">
        <ele>22.4</ele>
        <time>2021-03-20T12:14:10Z</time>
      </trkpt>
      <trkpt lat="41.3402460" lon="-8.7132160">
        <ele>22.0</ele>
        <time>2021-03-20T12:14:11Z</time>
      </trkpt>
      <trkpt lat="41.3402360" lon="-8.7133050">
        <ele>22.0</ele>
        <time>2021-03-20T12:14:12Z</time>
      </trkpt>
      <trkpt lat="41.3402300" lon="-8.7133700">
        <ele>21.6</ele>
        <time>2021-03-20T12:14:13Z</time>
      </trkpt>
      <trkpt lat="41.3402120" lon="-8.7134620">
        <ele>21.4</ele>
        <time>2021-03-20T12:14:14Z</time>
      </trkpt>
      <trkpt lat="41.3402010" lon="-8.7135440">
        <ele>21.2</ele>
        <time>2021-03-20T12:14:15Z</time>
      </trkpt>
      <trkpt lat="41.3401850" lon="-8.7136360">
        <ele>21.0</ele>
        <time>2021-03-20T12:14:16Z</time>
      </trkpt>
      <trkpt lat="41.3401790" lon="-8.7137210">
        <ele>20.8</ele>
        <time>2021-03-20T12:14:17Z</time>
      </trkpt>
      <trkpt lat="41.3401550" lon="-8.7138150">
        <ele>20.6</ele>
        <time>2021-03-20T12:14:18Z</time>
      </trkpt>
      <trkpt lat="41.3401440" lon="-8.7139190">
        <ele>20.2</ele>
        <time>2021-03-20T12:14:19Z</time>
      </trkpt>
      <trkpt lat="41.3401160" lon="-8.7140090">
        <ele>19.8</ele>
        <time>2021-03-20T12:14:20Z</time>
      </trkpt>
      <trkpt lat="41.3400980" lon="-8.7140970">
        <ele>19.8</ele>
        <time>2021-03-20T12:14:21Z</time>
      </trkpt>
      <trkpt lat="41.3400780" lon="-8.7142020">
        <ele>19.8</ele>
        <time>2021-03-20T12:14:22Z</time>
      </trkpt>
      <trkpt lat="41.3400560" lon="-8.7143080">
        <ele>19.8</ele>
        <time>2021-03-20T12:14:23Z</time>
      </trkpt>
      <trkpt lat="41.3400300" lon="-8.7144270">
        <ele>19.8</ele>
        <time>2021-03-20T12:14:24Z</time>
      </trkpt>
      <trkpt lat="41.3400060" lon="-8.7145370">
        <ele>19.8</ele>
        <time>2021-03-20T12:14:25Z</time>
      </trkpt>
      <trkpt lat="41.3399940" lon="-8.7146410">
        <ele>19.8</ele>
        <time>2021-03-20T12:14:26Z</time>
      </trkpt>
      <trkpt lat="41.3399760" lon="-8.7147500">
        <ele>19.6</ele>
        <time>2021-03-20T12:14:27Z</time>
      </trkpt>
      <trkpt lat="41.3399540" lon="-8.7148620">
        <ele>19.4</ele>
        <time>2021-03-20T12:14:28Z</time>
      </trkpt>
      <trkpt lat="41.3399360" lon="-8.7149720">
        <ele>19.4</ele>
        <time>2021-03-20T12:14:29Z</time>
      </trkpt>
      <trkpt lat="41.3399090" lon="-8.7151080">
        <ele>19.4</ele>
        <time>2021-03-20T12:14:30Z</time>
      </trkpt>
      <trkpt lat="41.3398780" lon="-8.7151860">
        <ele>19.2</ele>
        <time>2021-03-20T12:14:31Z</time>
      </trkpt>
      <trkpt lat="41.3398740" lon="-8.7152910">
        <ele>19.0</ele>
        <time>2021-03-20T12:14:32Z</time>
      </trkpt>
      <trkpt lat="41.3398490" lon="-8.7153970">
        <ele>19.0</ele>
        <time>2021-03-20T12:14:33Z</time>
      </trkpt>
      <trkpt lat="41.3398260" lon="-8.7155100">
        <ele>18.8</ele>
        <time>2021-03-20T12:14:34Z</time>
      </trkpt>
      <trkpt lat="41.3397920" lon="-8.7156380">
        <ele>18.6</ele>
        <time>2021-03-20T12:14:35Z</time>
      </trkpt>
      <trkpt lat="41.3397710" lon="-8.7157210">
        <ele>18.6</ele>
        <time>2021-03-20T12:14:36Z</time>
      </trkpt>
      <trkpt lat="41.3397460" lon="-8.7158580">
        <ele>18.0</ele>
        <time>2021-03-20T12:14:37Z</time>
      </trkpt>
      <trkpt lat="41.3397240" lon="-8.7159380">
        <ele>18.2</ele>
        <time>2021-03-20T12:14:38Z</time>
      </trkpt>
      <trkpt lat="41.3396910" lon="-8.7160480">
        <ele>18.0</ele>
        <time>2021-03-20T12:14:39Z</time>
      </trkpt>
      <trkpt lat="41.3396680" lon="-8.7161580">
        <ele>18.0</ele>
        <time>2021-03-20T12:14:40Z</time>
      </trkpt>
      <trkpt lat="41.3396420" lon="-8.7162670">
        <ele>17.8</ele>
        <time>2021-03-20T12:14:41Z</time>
      </trkpt>
      <trkpt lat="41.3396220" lon="-8.7163760">
        <ele>17.6</ele>
        <time>2021-03-20T12:14:42Z</time>
      </trkpt>
      <trkpt lat="41.3396070" lon="-8.7164760">
        <ele>17.2</ele>
        <time>2021-03-20T12:14:43Z</time>
      </trkpt>
      <trkpt lat="41.3395830" lon="-8.7165670">
        <ele>16.6</ele>
        <time>2021-03-20T12:14:44Z</time>
      </trkpt>
      <trkpt lat="41.3395450" lon="-8.7166760">
        <ele>16.0</ele>
        <time>2021-03-20T12:14:45Z</time>
      </trkpt>
      <trkpt lat="41.3395140" lon="-8.7167860">
        <ele>15.6</ele>
        <time>2021-03-20T12:14:46Z</time>
      </trkpt>
      <trkpt lat="41.3394750" lon="-8.7168850">
        <ele>15.0</ele>
        <time>2021-03-20T12:14:47Z</time>
      </trkpt>
      <trkpt lat="41.3394170" lon="-8.7169810">
        <ele>14.4</ele>
        <time>2021-03-20T12:14:48Z</time>
      </trkpt>
      <trkpt lat="41.3393600" lon="-8.7170710">
        <ele>13.6</ele>
        <time>2021-03-20T12:14:49Z</time>
      </trkpt>
      <trkpt lat="41.3392960" lon="-8.7171600">
        <ele>13.2</ele>
        <time>2021-03-20T12:14:50Z</time>
      </trkpt>
      <trkpt lat="41.3392350" lon="-8.7172570">
        <ele>12.4</ele>
        <time>2021-03-20T12:14:51Z</time>
      </trkpt>
      <trkpt lat="41.3391790" lon="-8.7173490">
        <ele>11.8</ele>
        <time>2021-03-20T12:14:52Z</time>
      </trkpt>
      <trkpt lat="41.3391270" lon="-8.7174570">
        <ele>11.2</ele>
        <time>2021-03-20T12:14:53Z</time>
      </trkpt>
      <trkpt lat="41.3390970" lon="-8.7175880">
        <ele>11.0</ele>
        <time>2021-03-20T12:14:54Z</time>
      </trkpt>
      <trkpt lat="41.3390760" lon="-8.7177330">
        <ele>10.8</ele>
        <time>2021-03-20T12:14:55Z</time>
      </trkpt>
      <trkpt lat="41.3390580" lon="-8.7178790">
        <ele>11.2</ele>
        <time>2021-03-20T12:14:56Z</time>
      </trkpt>
      <trkpt lat="41.3390530" lon="-8.7180310">
        <ele>11.2</ele>
        <time>2021-03-20T12:14:57Z</time>
      </trkpt>
      <trkpt lat="41.3390710" lon="-8.7182070">
        <ele>11.0</ele>
        <time>2021-03-20T12:14:58Z</time>
      </trkpt>
      <trkpt lat="41.3390820" lon="-8.7183120">
        <ele>11.0</ele>
        <time>2021-03-20T12:14:59Z</time>
      </trkpt>
      <trkpt lat="41.3391000" lon="-8.7184540">
        <ele>10.8</ele>
        <time>2021-03-20T12:15:00Z</time>
      </trkpt>
      <trkpt lat="41.3391200" lon="-8.7185930">
        <ele>10.6</ele>
        <time>2021-03-20T12:15:01Z</time>
      </trkpt>
      <trkpt lat="41.3391370" lon="-8.7187320">
        <ele>10.4</ele>
        <time>2021-03-20T12:15:02Z</time>
      </trkpt>
      <trkpt lat="41.3391640" lon="-8.7188970">
        <ele>10.4</ele>
        <time>2021-03-20T12:15:03Z</time>
      </trkpt>
      <trkpt lat="41.3391820" lon="-8.7190230">
        <ele>10.6</ele>
        <time>2021-03-20T12:15:04Z</time>
      </trkpt>
      <trkpt lat="41.3391870" lon="-8.7191170">
        <ele>10.4</ele>
        <time>2021-03-20T12:15:05Z</time>
      </trkpt>
      <trkpt lat="41.3392050" lon="-8.7192430">
        <ele>10.2</ele>
        <time>2021-03-20T12:15:06Z</time>
      </trkpt>
      <trkpt lat="41.3392210" lon="-8.7193670">
        <ele>10.2</ele>
        <time>2021-03-20T12:15:07Z</time>
      </trkpt>
      <trkpt lat="41.3392390" lon="-8.7194910">
        <ele>10.2</ele>
        <time>2021-03-20T12:15:08Z</time>
      </trkpt>
      <trkpt lat="41.3392610" lon="-8.7196030">
        <ele>10.4</ele>
        <time>2021-03-20T12:15:09Z</time>
      </trkpt>
      <trkpt lat="41.3392820" lon="-8.7197250">
        <ele>10.4</ele>
        <time>2021-03-20T12:15:10Z</time>
      </trkpt>
      <trkpt lat="41.3393000" lon="-8.7198680">
        <ele>10.6</ele>
        <time>2021-03-20T12:15:11Z</time>
      </trkpt>
      <trkpt lat="41.3393140" lon="-8.7199500">
        <ele>10.6</ele>
        <time>2021-03-20T12:15:12Z</time>
      </trkpt>
      <trkpt lat="41.3393270" lon="-8.7200730">
        <ele>10.6</ele>
        <time>2021-03-20T12:15:13Z</time>
      </trkpt>
      <trkpt lat="41.3393380" lon="-8.7201840">
        <ele>10.6</ele>
        <time>2021-03-20T12:15:14Z</time>
      </trkpt>
      <trkpt lat="41.3393610" lon="-8.7202990">
        <ele>10.6</ele>
        <time>2021-03-20T12:15:15Z</time>
      </trkpt>
      <trkpt lat="41.3393920" lon="-8.7204470">
        <ele>10.8</ele>
        <time>2021-03-20T12:15:16Z</time>
      </trkpt>
      <trkpt lat="41.3394220" lon="-8.7205550">
        <ele>10.8</ele>
        <time>2021-03-20T12:15:17Z</time>
      </trkpt>
      <trkpt lat="41.3394450" lon="-8.7206380">
        <ele>10.8</ele>
        <time>2021-03-20T12:15:18Z</time>
      </trkpt>
      <trkpt lat="41.3394870" lon="-8.7207720">
        <ele>10.8</ele>
        <time>2021-03-20T12:15:19Z</time>
      </trkpt>
      <trkpt lat="41.3395050" lon="-8.7208530">
        <ele>11.0</ele>
        <time>2021-03-20T12:15:20Z</time>
      </trkpt>
      <trkpt lat="41.3395340" lon="-8.7209490">
        <ele>11.0</ele>
        <time>2021-03-20T12:15:21Z</time>
      </trkpt>
      <trkpt lat="41.3395650" lon="-8.7210470">
        <ele>11.0</ele>
        <time>2021-03-20T12:15:22Z</time>
      </trkpt>
      <trkpt lat="41.3395940" lon="-8.7211560">
        <ele>10.8</ele>
        <time>2021-03-20T12:15:23Z</time>
      </trkpt>
      <trkpt lat="41.3396180" lon="-8.7212920">
        <ele>10.8</ele>
        <time>2021-03-20T12:15:24Z</time>
      </trkpt>
      <trkpt lat="41.3396370" lon="-8.7213660">
        <ele>10.6</ele>
        <time>2021-03-20T12:15:25Z</time>
      </trkpt>
      <trkpt lat="41.3396590" lon="-8.7214970">
        <ele>10.4</ele>
        <time>2021-03-20T12:15:26Z</time>
      </trkpt>
      <trkpt lat="41.3396630" lon="-8.7215760">
        <ele>10.0</ele>
        <time>2021-03-20T12:15:27Z</time>
      </trkpt>
      <trkpt lat="41.3396580" lon="-8.7216820">
        <ele>10.0</ele>
        <time>2021-03-20T12:15:28Z</time>
      </trkpt>
      <trkpt lat="41.3396330" lon="-8.7218210">
        <ele>9.8</ele>
        <time>2021-03-20T12:15:29Z</time>
      </trkpt>
      <trkpt lat="41.3396280" lon="-8.7218980">
        <ele>9.6</ele>
        <time>2021-03-20T12:15:30Z</time>
      </trkpt>
      <trkpt lat="41.3396120" lon="-8.7220370">
        <ele>9.2</ele>
        <time>2021-03-20T12:15:31Z</time>
      </trkpt>
      <trkpt lat="41.3395900" lon="-8.7221200">
        <ele>9.0</ele>
        <time>2021-03-20T12:15:32Z</time>
      </trkpt>
      <trkpt lat="41.3395600" lon="-8.7222770">
        <ele>8.4</ele>
        <time>2021-03-20T12:15:33Z</time>
      </trkpt>
      <trkpt lat="41.3395560" lon="-8.7223680">
        <ele>8.2</ele>
        <time>2021-03-20T12:15:34Z</time>
      </trkpt>
      <trkpt lat="41.3395420" lon="-8.7224890">
        <ele>8.0</ele>
        <time>2021-03-20T12:15:35Z</time>
      </trkpt>
      <trkpt lat="41.3395440" lon="-8.7226100">
        <ele>7.8</ele>
        <time>2021-03-20T12:15:36Z</time>
      </trkpt>
      <trkpt lat="41.3395270" lon="-8.7227560">
        <ele>7.6</ele>
        <time>2021-03-20T12:15:37Z</time>
      </trkpt>
      <trkpt lat="41.3395230" lon="-8.7228410">
        <ele>7.4</ele>
        <time>2021-03-20T12:15:38Z</time>
      </trkpt>
      <trkpt lat="41.3395220" lon="-8.7229590">
        <ele>7.0</ele>
        <time>2021-03-20T12:15:39Z</time>
      </trkpt>
      <trkpt lat="41.3395250" lon="-8.7230830">
        <ele>7.0</ele>
        <time>2021-03-20T12:15:40Z</time>
      </trkpt>
      <trkpt lat="41.3395360" lon="-8.7232060">
        <ele>7.0</ele>
        <time>2021-03-20T12:15:41Z</time>
      </trkpt>
      <trkpt lat="41.3395620" lon="-8.7233260">
        <ele>6.8</ele>
        <time>2021-03-20T12:15:42Z</time>
      </trkpt>
      <trkpt lat="41.3395770" lon="-8.7234330">
        <ele>6.6</ele>
        <time>2021-03-20T12:15:43Z</time>
      </trkpt>
      <trkpt lat="41.3395980" lon="-8.7235490">
        <ele>6.4</ele>
        <time>2021-03-20T12:15:44Z</time>
      </trkpt>
      <trkpt lat="41.3396270" lon="-8.7236630">
        <ele>6.0</ele>
        <time>2021-03-20T12:15:45Z</time>
      </trkpt>
      <trkpt lat="41.3396430" lon="-8.7237970">
        <ele>5.8</ele>
        <time>2021-03-20T12:15:46Z</time>
      </trkpt>
      <trkpt lat="41.3396590" lon="-8.7238800">
        <ele>5.8</ele>
        <time>2021-03-20T12:15:47Z</time>
      </trkpt>
      <trkpt lat="41.3396700" lon="-8.7240140">
        <ele>5.8</ele>
        <time>2021-03-20T12:15:48Z</time>
      </trkpt>
      <trkpt lat="41.3396830" lon="-8.7241040">
        <ele>5.8</ele>
        <time>2021-03-20T12:15:49Z</time>
      </trkpt>
      <trkpt lat="41.3397250" lon="-8.7242110">
        <ele>5.8</ele>
        <time>2021-03-20T12:15:50Z</time>
      </trkpt>
      <trkpt lat="41.3397370" lon="-8.7242920">
        <ele>5.8</ele>
        <time>2021-03-20T12:15:51Z</time>
      </trkpt>
      <trkpt lat="41.3397490" lon="-8.7244200">
        <ele>5.8</ele>
        <time>2021-03-20T12:15:52Z</time>
      </trkpt>
      <trkpt lat="41.3397670" lon="-8.7244720">
        <ele>5.8</ele>
        <time>2021-03-20T12:15:53Z</time>
      </trkpt>
      <trkpt lat="41.3397840" lon="-8.7245570">
        <ele>6.0</ele>
        <time>2021-03-20T12:15:54Z</time>
      </trkpt>
      <trkpt lat="41.3398010" lon="-8.7246760">
        <ele>6.0</ele>
        <time>2021-03-20T12:15:55Z</time>
      </trkpt>
      <trkpt lat="41.3398250" lon="-8.7247400">
        <ele>6.4</ele>
        <time>2021-03-20T12:15:56Z</time>
      </trkpt>
      <trkpt lat="41.3398740" lon="-8.7248340">
        <ele>6.8</ele>
        <time>2021-03-20T12:15:57Z</time>
      </trkpt>
      <trkpt lat="41.3399040" lon="-8.7248930">
        <ele>7.4</ele>
        <time>2021-03-20T12:15:58Z</time>
      </trkpt>
      <trkpt lat="41.3399690" lon="-8.7249790">
        <ele>7.8</ele>
        <time>2021-03-20T12:15:59Z</time>
      </trkpt>
      <trkpt lat="41.3400150" lon="-8.7250220">
        <ele>8.2</ele>
        <time>2021-03-20T12:16:00Z</time>
      </trkpt>
      <trkpt lat="41.3400750" lon="-8.7250640">
        <ele>8.2</ele>
        <time>2021-03-20T12:16:01Z</time>
      </trkpt>
      <trkpt lat="41.3401350" lon="-8.7250880">
        <ele>8.8</ele>
        <time>2021-03-20T12:16:02Z</time>
      </trkpt>
      <trkpt lat="41.3401990" lon="-8.7250990">
        <ele>9.6</ele>
        <time>2021-03-20T12:16:03Z</time>
      </trkpt>
      <trkpt lat="41.3402580" lon="-8.7251100">
        <ele>9.8</ele>
        <time>2021-03-20T12:16:04Z</time>
      </trkpt>
      <trkpt lat="41.3403120" lon="-8.7251160">
        <ele>10.2</ele>
        <time>2021-03-20T12:16:05Z</time>
      </trkpt>
      <trkpt lat="41.3403690" lon="-8.7251230">
        <ele>10.4</ele>
        <time>2021-03-20T12:16:06Z</time>
      </trkpt>
      <trkpt lat="41.3404160" lon="-8.7251260">
        <ele>10.2</ele>
        <time>2021-03-20T12:16:07Z</time>
      </trkpt>
      <trkpt lat="41.3404520" lon="-8.7251310">
        <ele>10.4</ele>
        <time>2021-03-20T12:16:08Z</time>
      </trkpt>
      <trkpt lat="41.3404880" lon="-8.7251260">
        <ele>10.4</ele>
        <time>2021-03-20T12:16:09Z</time>
      </trkpt>
      <trkpt lat="41.3405320" lon="-8.7251320">
        <ele>10.2</ele>
        <time>2021-03-20T12:16:10Z</time>
      </trkpt>
      <trkpt lat="41.3405680" lon="-8.7251390">
        <ele>10.2</ele>
        <time>2021-03-20T12:16:11Z</time>
      </trkpt>
      <trkpt lat="41.3405870" lon="-8.7251490">
        <ele>10.0</ele>
        <time>2021-03-20T12:16:12Z</time>
      </trkpt>
      <trkpt lat="41.3405870" lon="-8.7251640">
        <ele>9.8</ele>
        <time>2021-03-20T12:16:13Z</time>
      </trkpt>
      <trkpt lat="41.3405940" lon="-8.7251850">
        <ele>9.6</ele>
        <time>2021-03-20T12:16:14Z</time>
      </trkpt>
      <trkpt lat="41.3405880" lon="-8.7252000">
        <ele>9.4</ele>
        <time>2021-03-20T12:16:15Z</time>
      </trkpt>
      <trkpt lat="41.3405870" lon="-8.7252070">
        <ele>9.0</ele>
        <time>2021-03-20T12:16:16Z</time>
      </trkpt>
      <trkpt lat="41.3405800" lon="-8.7252200">
        <ele>8.8</ele>
        <time>2021-03-20T12:16:17Z</time>
      </trkpt>
      <trkpt lat="41.3405450" lon="-8.7252260">
        <ele>8.6</ele>
        <time>2021-03-20T12:16:18Z</time>
      </trkpt>
      <trkpt lat="41.3405360" lon="-8.7252250">
        <ele>8.6</ele>
        <time>2021-03-20T12:16:19Z</time>
      </trkpt>
      <trkpt lat="41.3405110" lon="-8.7252290">
        <ele>8.6</ele>
        <time>2021-03-20T12:16:20Z</time>
      </trkpt>
      <trkpt lat="41.3405000" lon="-8.7252470">
        <ele>8.4</ele>
        <time>2021-03-20T12:16:21Z</time>
      </trkpt>
      <trkpt lat="41.3404870" lon="-8.7252690">
        <ele>8.2</ele>
        <time>2021-03-20T12:16:22Z</time>
      </trkpt>
      <trkpt lat="41.3404790" lon="-8.7252830">
        <ele>8.0</ele>
        <time>2021-03-20T12:16:23Z</time>
      </trkpt>
      <trkpt lat="41.3404740" lon="-8.7253010">
        <ele>7.8</ele>
        <time>2021-03-20T12:16:24Z</time>
      </trkpt>
      <trkpt lat="41.3404670" lon="-8.7253220">
        <ele>7.4</ele>
        <time>2021-03-20T12:16:25Z</time>
      </trkpt>
      <trkpt lat="41.3404650" lon="-8.7253430">
        <ele>7.6</ele>
        <time>2021-03-20T12:16:26Z</time>
      </trkpt>
      <trkpt lat="41.3404630" lon="-8.7253630">
        <ele>7.6</ele>
        <time>2021-03-20T12:16:27Z</time>
      </trkpt>
      <trkpt lat="41.3404610" lon="-8.7253840">
        <ele>7.4</ele>
        <time>2021-03-20T12:16:28Z</time>
      </trkpt>
      <trkpt lat="41.3404610" lon="-8.7254060">
        <ele>7.4</ele>
        <time>2021-03-20T12:16:29Z</time>
      </trkpt>
      <trkpt lat="41.3404530" lon="-8.7254270">
        <ele>7.4</ele>
        <time>2021-03-20T12:16:30Z</time>
      </trkpt>
      <trkpt lat="41.3404500" lon="-8.7254390">
        <ele>7.2</ele>
        <time>2021-03-20T12:16:31Z</time>
      </trkpt>
      <trkpt lat="41.3404310" lon="-8.7254440">
        <ele>7.2</ele>
        <time>2021-03-20T12:16:32Z</time>
      </trkpt>
      <trkpt lat="41.3404140" lon="-8.7254420">
        <ele>7.0</ele>
        <time>2021-03-20T12:16:33Z</time>
      </trkpt>
      <trkpt lat="41.3403900" lon="-8.7254260">
        <ele>7.0</ele>
        <time>2021-03-20T12:16:34Z</time>
      </trkpt>
      <trkpt lat="41.3403570" lon="-8.7254100">
        <ele>7.0</ele>
        <time>2021-03-20T12:16:35Z</time>
      </trkpt>
      <trkpt lat="41.3403270" lon="-8.7253910">
        <ele>7.0</ele>
        <time>2021-03-20T12:16:36Z</time>
      </trkpt>
      <trkpt lat="41.3402960" lon="-8.7253690">
        <ele>6.8</ele>
        <time>2021-03-20T12:16:37Z</time>
      </trkpt>
      <trkpt lat="41.3402740" lon="-8.7253580">
        <ele>6.8</ele>
        <time>2021-03-20T12:16:38Z</time>
      </trkpt>
      <trkpt lat="41.3402540" lon="-8.7253500">
        <ele>6.6</ele>
        <time>2021-03-20T12:16:39Z</time>
      </trkpt>
      <trkpt lat="41.3402280" lon="-8.7253310">
        <ele>6.6</ele>
        <time>2021-03-20T12:16:40Z</time>
      </trkpt>
      <trkpt lat="41.3401980" lon="-8.7253110">
        <ele>6.4</ele>
        <time>2021-03-20T12:16:41Z</time>
      </trkpt>
      <trkpt lat="41.3401600" lon="-8.7252860">
        <ele>6.2</ele>
        <time>2021-03-20T12:16:42Z</time>
      </trkpt>
      <trkpt lat="41.3401510" lon="-8.7252800">
        <ele>6.2</ele>
        <time>2021-03-20T12:16:43Z</time>
      </trkpt>
      <trkpt lat="41.3401270" lon="-8.7252660">
        <ele>6.2</ele>
        <time>2021-03-20T12:16:44Z</time>
      </trkpt>
      <trkpt lat="41.3401080" lon="-8.7252510">
        <ele>6.0</ele>
        <time>2021-03-20T12:16:45Z</time>
      </trkpt>
      <trkpt lat="41.3400920" lon="-8.7252350">
        <ele>6.0</ele>
        <time>2021-03-20T12:16:46Z</time>
      </trkpt>
      <trkpt lat="41.3400730" lon="-8.7252370">
        <ele>5.8</ele>
        <time>2021-03-20T12:16:47Z</time>
      </trkpt>
      <trkpt lat="41.3400650" lon="-8.7252410">
        <ele>5.8</ele>
        <time>2021-03-20T12:16:48Z</time>
      </trkpt>
      <trkpt lat="41.3400490" lon="-8.7252480">
        <ele>5.6</ele>
        <time>2021-03-20T12:16:49Z</time>
      </trkpt>
      <trkpt lat="41.3400340" lon="-8.7252620">
        <ele>5.4</ele>
        <time>2021-03-20T12:16:50Z</time>
      </trkpt>
      <trkpt lat="41.3400210" lon="-8.7252800">
        <ele>5.4</ele>
        <time>2021-03-20T12:16:51Z</time>
      </trkpt>
      <trkpt lat="41.3400070" lon="-8.7253100">
        <ele>5.4</ele>
        <time>2021-03-20T12:16:52Z</time>
      </trkpt>
      <trkpt lat="41.3399880" lon="-8.7253350">
        <ele>5.2</ele>
        <time>2021-03-20T12:16:53Z</time>
      </trkpt>
      <trkpt lat="41.3399720" lon="-8.7253510">
        <ele>5.2</ele>
        <time>2021-03-20T12:16:54Z</time>
      </trkpt>
      <trkpt lat="41.3399440" lon="-8.7253820">
        <ele>5.2</ele>
        <time>2021-03-20T12:16:55Z</time>
      </trkpt>
      <trkpt lat="41.3399380" lon="-8.7254080">
        <ele>5.2</ele>
        <time>2021-03-20T12:16:56Z</time>
      </trkpt>
      <trkpt lat="41.3399320" lon="-8.7254540">
        <ele>5.2</ele>
        <time>2021-03-20T12:16:57Z</time>
      </trkpt>
      <trkpt lat="41.3399280" lon="-8.7254980">
        <ele>5.2</ele>
        <time>2021-03-20T12:16:58Z</time>
      </trkpt>
      <trkpt lat="41.3399270" lon="-8.7255470">
        <ele>5.0</ele>
        <time>2021-03-20T12:16:59Z</time>
      </trkpt>
      <trkpt lat="41.3399300" lon="-8.7255990">
        <ele>4.8</ele>
        <time>2021-03-20T12:17:00Z</time>
      </trkpt>
      <trkpt lat="41.3399320" lon="-8.7256740">
        <ele>4.8</ele>
        <time>2021-03-20T12:17:01Z</time>
      </trkpt>
      <trkpt lat="41.3399380" lon="-8.7257360">
        <ele>5.0</ele>
        <time>2021-03-20T12:17:02Z</time>
      </trkpt>
      <trkpt lat="41.3399380" lon="-8.7257850">
        <ele>5.0</ele>
        <time>2021-03-20T12:17:03Z</time>
      </trkpt>
      <trkpt lat="41.3399490" lon="-8.7258530">
        <ele>5.0</ele>
        <time>2021-03-20T12:17:04Z</time>
      </trkpt>
      <trkpt lat="41.3399610" lon="-8.7259220">
        <ele>5.0</ele>
        <time>2021-03-20T12:17:05Z</time>
      </trkpt>
      <trkpt lat="41.3399660" lon="-8.7259780">
        <ele>5.0</ele>
        <time>2021-03-20T12:17:06Z</time>
      </trkpt>
      <trkpt lat="41.3399840" lon="-8.7260630">
        <ele>5.0</ele>
        <time>2021-03-20T12:17:07Z</time>
      </trkpt>
      <trkpt lat="41.3400000" lon="-8.7261370">
        <ele>4.8</ele>
        <time>2021-03-20T12:17:08Z</time>
      </trkpt>
      <trkpt lat="41.3400230" lon="-8.7262060">
        <ele>4.8</ele>
        <time>2021-03-20T12:17:09Z</time>
      </trkpt>
      <trkpt lat="41.3400420" lon="-8.7262790">
        <ele>4.8</ele>
        <time>2021-03-20T12:17:10Z</time>
      </trkpt>
      <trkpt lat="41.3400600" lon="-8.7263540">
        <ele>4.8</ele>
        <time>2021-03-20T12:17:11Z</time>
      </trkpt>
      <trkpt lat="41.3400850" lon="-8.7264300">
        <ele>4.8</ele>
        <time>2021-03-20T12:17:12Z</time>
      </trkpt>
      <trkpt lat="41.3401080" lon="-8.7265070">
        <ele>4.8</ele>
        <time>2021-03-20T12:17:13Z</time>
      </trkpt>
      <trkpt lat="41.3401260" lon="-8.7265930">
        <ele>4.4</ele>
        <time>2021-03-20T12:17:14Z</time>
      </trkpt>
      <trkpt lat="41.3401420" lon="-8.7266720">
        <ele>4.6</ele>
        <time>2021-03-20T12:17:15Z</time>
      </trkpt>
      <trkpt lat="41.3401580" lon="-8.7267510">
        <ele>4.4</ele>
        <time>2021-03-20T12:17:16Z</time>
      </trkpt>
      <trkpt lat="41.3401810" lon="-8.7268190">
        <ele>4.8</ele>
        <time>2021-03-20T12:17:17Z</time>
      </trkpt>
      <trkpt lat="41.3402000" lon="-8.7269130">
        <ele>4.8</ele>
        <time>2021-03-20T12:17:18Z</time>
      </trkpt>
      <trkpt lat="41.3402080" lon="-8.7269730">
        <ele>5.0</ele>
        <time>2021-03-20T12:17:19Z</time>
      </trkpt>
      <trkpt lat="41.3402260" lon="-8.7270390">
        <ele>4.8</ele>
        <time>2021-03-20T12:17:20Z</time>
      </trkpt>
      <trkpt lat="41.3402470" lon="-8.7271120">
        <ele>4.8</ele>
        <time>2021-03-20T12:17:21Z</time>
      </trkpt>
      <trkpt lat="41.3402580" lon="-8.7271620">
        <ele>4.6</ele>
        <time>2021-03-20T12:17:22Z</time>
      </trkpt>
      <trkpt lat="41.3402690" lon="-8.7272250">
        <ele>4.4</ele>
        <time>2021-03-20T12:17:23Z</time>
      </trkpt>
      <trkpt lat="41.3402750" lon="-8.7272840">
        <ele>4.4</ele>
        <time>2021-03-20T12:17:24Z</time>
      </trkpt>
      <trkpt lat="41.3402920" lon="-8.7273620">
        <ele>4.6</ele>
        <time>2021-03-20T12:17:25Z</time>
      </trkpt>
      <trkpt lat="41.3403070" lon="-8.7274130">
        <ele>4.6</ele>
        <time>2021-03-20T12:17:26Z</time>
      </trkpt>
      <trkpt lat="41.3403310" lon="-8.7275000">
        <ele>4.6</ele>
        <time>2021-03-20T12:17:27Z</time>
      </trkpt>
      <trkpt lat="41.3403460" lon="-8.7275790">
        <ele>4.6</ele>
        <time>2021-03-20T12:17:28Z</time>
      </trkpt>
      <trkpt lat="41.3403690" lon="-8.7276510">
        <ele>4.6</ele>
        <time>2021-03-20T12:17:29Z</time>
      </trkpt>
      <trkpt lat="41.3403830" lon="-8.7277340">
        <ele>4.6</ele>
        <time>2021-03-20T12:17:30Z</time>
      </trkpt>
      <trkpt lat="41.3403930" lon="-8.7277910">
        <ele>4.6</ele>
        <time>2021-03-20T12:17:31Z</time>
      </trkpt>
      <trkpt lat="41.3404080" lon="-8.7278600">
        <ele>4.6</ele>
        <time>2021-03-20T12:17:32Z</time>
      </trkpt>
      <trkpt lat="41.3404230" lon="-8.7279300">
        <ele>4.8</ele>
        <time>2021-03-20T12:17:33Z</time>
      </trkpt>
      <trkpt lat="41.3404520" lon="-8.7279960">
        <ele>4.8</ele>
        <time>2021-03-20T12:17:34Z</time>
      </trkpt>
      <trkpt lat="41.3404670" lon="-8.7280330">
        <ele>4.8</ele>
        <time>2021-03-20T12:17:35Z</time>
      </trkpt>
      <trkpt lat="41.3404840" lon="-8.7280830">
        <ele>4.6</ele>
        <time>2021-03-20T12:17:36Z</time>
      </trkpt>
      <trkpt lat="41.3405010" lon="-8.7281200">
        <ele>4.6</ele>
        <time>2021-03-20T12:17:37Z</time>
      </trkpt>
      <trkpt lat="41.3405170" lon="-8.7281700">
        <ele>4.6</ele>
        <time>2021-03-20T12:17:38Z</time>
      </trkpt>
      <trkpt lat="41.3405230" lon="-8.7281960">
        <ele>4.4</ele>
        <time>2021-03-20T12:17:39Z</time>
      </trkpt>
      <trkpt lat="41.3405350" lon="-8.7282320">
        <ele>3.8</ele>
        <time>2021-03-20T12:17:40Z</time>
      </trkpt>
      <trkpt lat="41.3405380" lon="-8.7282520">
        <ele>3.6</ele>
        <time>2021-03-20T12:17:41Z</time>
      </trkpt>
      <trkpt lat="41.3405350" lon="-8.7282710">
        <ele>3.0</ele>
        <time>2021-03-20T12:17:42Z</time>
      </trkpt>
      <trkpt lat="41.3405290" lon="-8.7282970">
        <ele>2.6</ele>
        <time>2021-03-20T12:17:43Z</time>
      </trkpt>
      <trkpt lat="41.3405120" lon="-8.7283120">
        <ele>1.8</ele>
        <time>2021-03-20T12:17:44Z</time>
      </trkpt>
      <trkpt lat="41.3404840" lon="-8.7283380">
        <ele>1.4</ele>
        <time>2021-03-20T12:17:45Z</time>
      </trkpt>
      <trkpt lat="41.3404480" lon="-8.7283770">
        <ele>1.0</ele>
        <time>2021-03-20T12:17:46Z</time>
      </trkpt>
      <trkpt lat="41.3404070" lon="-8.7284120">
        <ele>0.4</ele>
        <time>2021-03-20T12:17:47Z</time>
      </trkpt>
      <trkpt lat="41.3403580" lon="-8.7284440">
        <ele>-0.2</ele>
        <time>2021-03-20T12:17:48Z</time>
      </trkpt>
      <trkpt lat="41.3403030" lon="-8.7284830">
        <ele>-1.2</ele>
        <time>2021-03-20T12:17:49Z</time>
      </trkpt>
      <trkpt lat="41.3402580" lon="-8.7285110">
        <ele>-1.8</ele>
        <time>2021-03-20T12:17:50Z</time>
      </trkpt>
      <trkpt lat="41.3401780" lon="-8.7285610">
        <ele>-2.8</ele>
        <time>2021-03-20T12:17:51Z</time>
      </trkpt>
      <trkpt lat="41.3401220" lon="-8.7285920">
        <ele>-3.6</ele>
        <time>2021-03-20T12:17:52Z</time>
      </trkpt>
      <trkpt lat="41.3400240" lon="-8.7286670">
        <ele>-4.4</ele>
        <time>2021-03-20T12:17:53Z</time>
      </trkpt>
      <trkpt lat="41.3399670" lon="-8.7287140">
        <ele>-4.8</ele>
        <time>2021-03-20T12:17:54Z</time>
      </trkpt>
      <trkpt lat="41.3398890" lon="-8.7287830">
        <ele>-5.4</ele>
        <time>2021-03-20T12:17:55Z</time>
      </trkpt>
      <trkpt lat="41.3398040" lon="-8.7288510">
        <ele>-5.8</ele>
        <time>2021-03-20T12:17:56Z</time>
      </trkpt>
      <trkpt lat="41.3397170" lon="-8.7289210">
        <ele>-6.4</ele>
        <time>2021-03-20T12:17:57Z</time>
      </trkpt>
      <trkpt lat="41.3396330" lon="-8.7290010">
        <ele>-6.2</ele>
        <time>2021-03-20T12:17:58Z</time>
      </trkpt>
      <trkpt lat="41.3395420" lon="-8.7290750">
        <ele>-6.0</ele>
        <time>2021-03-20T12:17:59Z</time>
      </trkpt>
      <trkpt lat="41.3394530" lon="-8.7291550">
        <ele>-6.0</ele>
        <time>2021-03-20T12:18:00Z</time>
      </trkpt>
      <trkpt lat="41.3393740" lon="-8.7292540">
        <ele>-5.8</ele>
        <time>2021-03-20T12:18:01Z</time>
      </trkpt>
      <trkpt lat="41.3393220" lon="-8.7293780">
        <ele>-5.6</ele>
        <time>2021-03-20T12:18:02Z</time>
      </trkpt>
      <trkpt lat="41.3392960" lon="-8.7295090">
        <ele>-5.4</ele>
        <time>2021-03-20T12:18:03Z</time>
      </trkpt>
      <trkpt lat="41.3392940" lon="-8.7296350">
        <ele>-5.2</ele>
        <time>2021-03-20T12:18:04Z</time>
      </trkpt>
      <trkpt lat="41.3393170" lon="-8.7297480">
        <ele>-5.2</ele>
        <time>2021-03-20T12:18:05Z</time>
      </trkpt>
      <trkpt lat="41.3393750" lon="-8.7298680">
        <ele>-5.2</ele>
        <time>2021-03-20T12:18:06Z</time>
      </trkpt>
      <trkpt lat="41.3394080" lon="-8.7299370">
        <ele>-5.4</ele>
        <time>2021-03-20T12:18:07Z</time>
      </trkpt>
      <trkpt lat="41.3394460" lon="-8.7300230">
        <ele>-5.2</ele>
        <time>2021-03-20T12:18:08Z</time>
      </trkpt>
      <trkpt lat="41.3394880" lon="-8.7301030">
        <ele>-5.0</ele>
        <time>2021-03-20T12:18:09Z</time>
      </trkpt>
      <trkpt lat="41.3395270" lon="-8.7301850">
        <ele>-4.8</ele>
        <time>2021-03-20T12:18:10Z</time>
      </trkpt>
      <trkpt lat="41.3395700" lon="-8.7302610">
        <ele>-4.8</ele>
        <time>2021-03-20T12:18:11Z</time>
      </trkpt>
      <trkpt lat="41.3396130" lon="-8.7303350">
        <ele>-4.6</ele>
        <time>2021-03-20T12:18:12Z</time>
      </trkpt>
      <trkpt lat="41.3396530" lon="-8.7304090">
        <ele>-4.6</ele>
        <time>2021-03-20T12:18:13Z</time>
      </trkpt>
      <trkpt lat="41.3396930" lon="-8.7304760">
        <ele>-4.4</ele>
        <time>2021-03-20T12:18:14Z</time>
      </trkpt>
      <trkpt lat="41.3397320" lon="-8.7305470">
        <ele>-4.2</ele>
        <time>2021-03-20T12:18:15Z</time>
      </trkpt>
      <trkpt lat="41.3397680" lon="-8.7306190">
        <ele>-4.0</ele>
        <time>2021-03-20T12:18:16Z</time>
      </trkpt>
      <trkpt lat="41.3398070" lon="-8.7306830">
        <ele>-3.8</ele>
        <time>2021-03-20T12:18:17Z</time>
      </trkpt>
      <trkpt lat="41.3398460" lon="-8.7307410">
        <ele>-3.8</ele>
        <time>2021-03-20T12:18:18Z</time>
      </trkpt>
      <trkpt lat="41.3398990" lon="-8.7308150">
        <ele>-3.8</ele>
        <time>2021-03-20T12:18:19Z</time>
      </trkpt>
      <trkpt lat="41.3399300" lon="-8.7308800">
        <ele>-3.6</ele>
        <time>2021-03-20T12:18:20Z</time>
      </trkpt>
      <trkpt lat="41.3399540" lon="-8.7309250">
        <ele>-3.4</ele>
        <time>2021-03-20T12:18:21Z</time>
      </trkpt>
      <trkpt lat="41.3400040" lon="-8.7309920">
        <ele>-3.4</ele>
        <time>2021-03-20T12:18:22Z</time>
      </trkpt>
      <trkpt lat="41.3400360" lon="-8.7310150">
        <ele>-3.4</ele>
        <time>2021-03-20T12:18:23Z</time>
      </trkpt>
      <trkpt lat="41.3400790" lon="-8.7310750">
        <ele>-3.4</ele>
        <time>2021-03-20T12:18:24Z</time>
      </trkpt>
      <trkpt lat="41.3401160" lon="-8.7311500">
        <ele>-3.4</ele>
        <time>2021-03-20T12:18:25Z</time>
      </trkpt>
      <trkpt lat="41.3401660" lon="-8.7312320">
        <ele>-3.2</ele>
        <time>2021-03-20T12:18:26Z</time>
      </trkpt>
      <trkpt lat="41.3401930" lon="-8.7312820">
        <ele>-3.4</ele>
        <time>2021-03-20T12:18:27Z</time>
      </trkpt>
      <trkpt lat="41.3402320" lon="-8.7313530">
        <ele>-3.4</ele>
        <time>2021-03-20T12:18:28Z</time>
      </trkpt>
      <trkpt lat="41.3402700" lon="-8.7314210">
        <ele>-3.0</ele>
        <time>2021-03-20T12:18:29Z</time>
      </trkpt>
      <trkpt lat="41.3403080" lon="-8.7314930">
        <ele>-2.8</ele>
        <time>2021-03-20T12:18:30Z</time>
      </trkpt>
      <trkpt lat="41.3403450" lon="-8.7315640">
        <ele>-2.6</ele>
        <time>2021-03-20T12:18:31Z</time>
      </trkpt>
      <trkpt lat="41.3403920" lon="-8.7316670">
        <ele>-2.6</ele>
        <time>2021-03-20T12:18:32Z</time>
      </trkpt>
      <trkpt lat="41.3404200" lon="-8.7317200">
        <ele>-2.4</ele>
        <time>2021-03-20T12:18:33Z</time>
      </trkpt>
      <trkpt lat="41.3404660" lon="-8.7318100">
        <ele>-2.4</ele>
        <time>2021-03-20T12:18:34Z</time>
      </trkpt>
      <trkpt lat="41.3404940" lon="-8.7318660">
        <ele>-2.4</ele>
        <time>2021-03-20T12:18:35Z</time>
      </trkpt>
      <trkpt lat="41.3405320" lon="-8.7319340">
        <ele>-2.2</ele>
        <time>2021-03-20T12:18:36Z</time>
      </trkpt>
      <trkpt lat="41.3405700" lon="-8.7320000">
        <ele>-2.4</ele>
        <time>2021-03-20T12:18:37Z</time>
      </trkpt>
      <trkpt lat="41.3406070" lon="-8.7320740">
        <ele>-2.0</ele>
        <time>2021-03-20T12:18:38Z</time>
      </trkpt>
      <trkpt lat="41.3406580" lon="-8.7321610">
        <ele>-1.6</ele>
        <time>2021-03-20T12:18:39Z</time>
      </trkpt>
      <trkpt lat="41.3406920" lon="-8.7322040">
        <ele>-1.4</ele>
        <time>2021-03-20T12:18:40Z</time>
      </trkpt>
      <trkpt lat="41.3407330" lon="-8.7322760">
        <ele>-1.4</ele>
        <time>2021-03-20T12:18:41Z</time>
      </trkpt>
      <trkpt lat="41.3407700" lon="-8.7323480">
        <ele>-1.4</ele>
        <time>2021-03-20T12:18:42Z</time>
      </trkpt>
      <trkpt lat="41.3408120" lon="-8.7324140">
        <ele>-1.2</ele>
        <time>2021-03-20T12:18:43Z</time>
      </trkpt>
      <trkpt lat="41.3408510" lon="-8.7324830">
        <ele>-1.2</ele>
        <time>2021-03-20T12:18:44Z</time>
      </trkpt>
      <trkpt lat="41.3409040" lon="-8.7325640">
        <ele>-1.2</ele>
        <time>2021-03-20T12:18:45Z</time>
      </trkpt>
      <trkpt lat="41.3409350" lon="-8.7326140">
        <ele>-1.0</ele>
        <time>2021-03-20T12:18:46Z</time>
      </trkpt>
      <trkpt lat="41.3409800" lon="-8.7326780">
        <ele>-1.2</ele>
        <time>2021-03-20T12:18:47Z</time>
      </trkpt>
      <trkpt lat="41.3410200" lon="-8.7327420">
        <ele>-1.2</ele>
        <time>2021-03-20T12:18:48Z</time>
      </trkpt>
      <trkpt lat="41.3410610" lon="-8.7328090">
        <ele>-1.2</ele>
        <time>2021-03-20T12:18:49Z</time>
      </trkpt>
      <trkpt lat="41.3411090" lon="-8.7328740">
        <ele>-1.2</ele>
        <time>2021-03-20T12:18:50Z</time>
      </trkpt>
      <trkpt lat="41.3411530" lon="-8.7329320">
        <ele>-1.2</ele>
        <time>2021-03-20T12:18:51Z</time>
      </trkpt>
      <trkpt lat="41.3412140" lon="-8.7330180">
        <ele>-1.4</ele>
        <time>2021-03-20T12:18:52Z</time>
      </trkpt>
      <trkpt lat="41.3412450" lon="-8.7330700">
        <ele>-1.6</ele>
        <time>2021-03-20T12:18:53Z</time>
      </trkpt>
      <trkpt lat="41.3412880" lon="-8.7331310">
        <ele>-1.6</ele>
        <time>2021-03-20T12:18:54Z</time>
      </trkpt>
      <trkpt lat="41.3413380" lon="-8.7332170">
        <ele>-1.4</ele>
        <time>2021-03-20T12:18:55Z</time>
      </trkpt>
      <trkpt lat="41.3413840" lon="-8.7332880">
        <ele>-1.4</ele>
        <time>2021-03-20T12:18:56Z</time>
      </trkpt>
      <trkpt lat="41.3414270" lon="-8.7333490">
        <ele>-1.4</ele>
        <time>2021-03-20T12:18:57Z</time>
      </trkpt>
      <trkpt lat="41.3414650" lon="-8.7334190">
        <ele>-1.4</ele>
        <time>2021-03-20T12:18:58Z</time>
      </trkpt>
      <trkpt lat="41.3415060" lon="-8.7334830">
        <ele>-1.4</ele>
        <time>2021-03-20T12:18:59Z</time>
      </trkpt>
      <trkpt lat="41.3415420" lon="-8.7335410">
        <ele>-1.2</ele>
        <time>2021-03-20T12:19:00Z</time>
      </trkpt>
      <trkpt lat="41.3415760" lon="-8.7335970">
        <ele>-1.2</ele>
        <time>2021-03-20T12:19:01Z</time>
      </trkpt>
      <trkpt lat="41.3416000" lon="-8.7336450">
        <ele>-1.4</ele>
        <time>2021-03-20T12:19:02Z</time>
      </trkpt>
      <trkpt lat="41.3416400" lon="-8.7336900">
        <ele>-1.6</ele>
        <time>2021-03-20T12:19:03Z</time>
      </trkpt>
      <trkpt lat="41.3416860" lon="-8.7337540">
        <ele>-1.8</ele>
        <time>2021-03-20T12:19:04Z</time>
      </trkpt>
      <trkpt lat="41.3417290" lon="-8.7337980">
        <ele>-2.0</ele>
        <time>2021-03-20T12:19:05Z</time>
      </trkpt>
      <trkpt lat="41.3417600" lon="-8.7338300">
        <ele>-2.0</ele>
        <time>2021-03-20T12:19:06Z</time>
      </trkpt>
      <trkpt lat="41.3417990" lon="-8.7338780">
        <ele>-1.8</ele>
        <time>2021-03-20T12:19:07Z</time>
      </trkpt>
      <trkpt lat="41.3418450" lon="-8.7339590">
        <ele>-2.0</ele>
        <time>2021-03-20T12:19:08Z</time>
      </trkpt>
      <trkpt lat="41.3418720" lon="-8.7340110">
        <ele>-2.0</ele>
        <time>2021-03-20T12:19:09Z</time>
      </trkpt>
      <trkpt lat="41.3419140" lon="-8.7340770">
        <ele>-2.0</ele>
        <time>2021-03-20T12:19:10Z</time>
      </trkpt>
      <trkpt lat="41.3419610" lon="-8.7341830">
        <ele>-2.0</ele>
        <time>2021-03-20T12:19:11Z</time>
      </trkpt>
      <trkpt lat="41.3419890" lon="-8.7342550">
        <ele>-2.0</ele>
        <time>2021-03-20T12:19:12Z</time>
      </trkpt>
      <trkpt lat="41.3420300" lon="-8.7343420">
        <ele>-2.2</ele>
        <time>2021-03-20T12:19:13Z</time>
      </trkpt>
      <trkpt lat="41.3420830" lon="-8.7344220">
        <ele>-2.0</ele>
        <time>2021-03-20T12:19:14Z</time>
      </trkpt>
      <trkpt lat="41.3421350" lon="-8.7345020">
        <ele>-2.2</ele>
        <time>2021-03-20T12:19:15Z</time>
      </trkpt>
      <trkpt lat="41.3421950" lon="-8.7345960">
        <ele>-1.8</ele>
        <time>2021-03-20T12:19:16Z</time>
      </trkpt>
      <trkpt lat="41.3422410" lon="-8.7346810">
        <ele>-2.0</ele>
        <time>2021-03-20T12:19:17Z</time>
      </trkpt>
      <trkpt lat="41.3422920" lon="-8.7347590">
        <ele>-2.4</ele>
        <time>2021-03-20T12:19:18Z</time>
      </trkpt>
      <trkpt lat="41.3423440" lon="-8.7348440">
        <ele>-2.2</ele>
        <time>2021-03-20T12:19:19Z</time>
      </trkpt>
      <trkpt lat="41.3423920" lon="-8.7349240">
        <ele>-2.0</ele>
        <time>2021-03-20T12:19:20Z</time>
      </trkpt>
      <trkpt lat="41.3424400" lon="-8.7349980">
        <ele>-1.8</ele>
        <time>2021-03-20T12:19:21Z</time>
      </trkpt>
      <trkpt lat="41.3424760" lon="-8.7350590">
        <ele>-1.8</ele>
        <time>2021-03-20T12:19:22Z</time>
      </trkpt>
      <trkpt lat="41.3425310" lon="-8.7351420">
        <ele>-2.0</ele>
        <time>2021-03-20T12:19:23Z</time>
      </trkpt>
      <trkpt lat="41.3426020" lon="-8.7352370">
        <ele>-1.8</ele>
        <time>2021-03-20T12:19:24Z</time>
      </trkpt>
      <trkpt lat="41.3426580" lon="-8.7353020">
        <ele>-1.8</ele>
        <time>2021-03-20T12:19:25Z</time>
      </trkpt>
      <trkpt lat="41.3426960" lon="-8.7353500">
        <ele>-1.8</ele>
        <time>2021-03-20T12:19:26Z</time>
      </trkpt>
      <trkpt lat="41.3427730" lon="-8.7354310">
        <ele>-1.8</ele>
        <time>2021-03-20T12:19:27Z</time>
      </trkpt>
      <trkpt lat="41.3428190" lon="-8.7354820">
        <ele>-2.0</ele>
        <time>2021-03-20T12:19:28Z</time>
      </trkpt>
      <trkpt lat="41.3428820" lon="-8.7355330">
        <ele>-1.8</ele>
        <time>2021-03-20T12:19:29Z</time>
      </trkpt>
      <trkpt lat="41.3429430" lon="-8.7355810">
        <ele>-1.4</ele>
        <time>2021-03-20T12:19:30Z</time>
      </trkpt>
      <trkpt lat="41.3430250" lon="-8.7356420">
        <ele>-1.4</ele>
        <time>2021-03-20T12:19:31Z</time>
      </trkpt>
      <trkpt lat="41.3430720" lon="-8.7356780">
        <ele>-1.4</ele>
        <time>2021-03-20T12:19:32Z</time>
      </trkpt>
      <trkpt lat="41.3431500" lon="-8.7357300">
        <ele>-1.2</ele>
        <time>2021-03-20T12:19:33Z</time>
      </trkpt>
      <trkpt lat="41.3431990" lon="-8.7357660">
        <ele>-1.0</ele>
        <time>2021-03-20T12:19:34Z</time>
      </trkpt>
      <trkpt lat="41.3432540" lon="-8.7358170">
        <ele>-1.0</ele>
        <time>2021-03-20T12:19:35Z</time>
      </trkpt>
      <trkpt lat="41.3433120" lon="-8.7358520">
        <ele>-1.0</ele>
        <time>2021-03-20T12:19:36Z</time>
      </trkpt>
      <trkpt lat="41.3433860" lon="-8.7359110">
        <ele>-1.0</ele>
        <time>2021-03-20T12:19:37Z</time>
      </trkpt>
      <trkpt lat="41.3434420" lon="-8.7359610">
        <ele>-1.0</ele>
        <time>2021-03-20T12:19:38Z</time>
      </trkpt>
      <trkpt lat="41.3434890" lon="-8.7359950">
        <ele>-1.0</ele>
        <time>2021-03-20T12:19:39Z</time>
      </trkpt>
      <trkpt lat="41.3435530" lon="-8.7360370">
        <ele>-1.0</ele>
        <time>2021-03-20T12:19:40Z</time>
      </trkpt>
      <trkpt lat="41.3436280" lon="-8.7360890">
        <ele>-1.0</ele>
        <time>2021-03-20T12:19:41Z</time>
      </trkpt>
      <trkpt lat="41.3436750" lon="-8.7361220">
        <ele>-1.0</ele>
        <time>2021-03-20T12:19:42Z</time>
      </trkpt>
      <trkpt lat="41.3437490" lon="-8.7361780">
        <ele>-0.6</ele>
        <time>2021-03-20T12:19:43Z</time>
      </trkpt>
      <trkpt lat="41.3438070" lon="-8.7362230">
        <ele>-0.4</ele>
        <time>2021-03-20T12:19:44Z</time>
      </trkpt>
      <trkpt lat="41.3438690" lon="-8.7362710">
        <ele>-0.4</ele>
        <time>2021-03-20T12:19:45Z</time>
      </trkpt>
      <trkpt lat="41.3439260" lon="-8.7363190">
        <ele>-0.2</ele>
        <time>2021-03-20T12:19:46Z</time>
      </trkpt>
      <trkpt lat="41.3439720" lon="-8.7363460">
        <ele>-0.2</ele>
        <time>2021-03-20T12:19:47Z</time>
      </trkpt>
      <trkpt lat="41.3440510" lon="-8.7363970">
        <ele>-0.2</ele>
        <time>2021-03-20T12:19:48Z</time>
      </trkpt>
      <trkpt lat="41.3441000" lon="-8.7364280">
        <ele>-0.4</ele>
        <time>2021-03-20T12:19:49Z</time>
      </trkpt>
      <trkpt lat="41.3441560" lon="-8.7364720">
        <ele>0.0</ele>
        <time>2021-03-20T12:19:50Z</time>
      </trkpt>
      <trkpt lat="41.3442200" lon="-8.7365120">
        <ele>0.2</ele>
        <time>2021-03-20T12:19:51Z</time>
      </trkpt>
      <trkpt lat="41.3442810" lon="-8.7365530">
        <ele>0.2</ele>
        <time>2021-03-20T12:19:52Z</time>
      </trkpt>
      <trkpt lat="41.3443480" lon="-8.7365980">
        <ele>0.0</ele>
        <time>2021-03-20T12:19:53Z</time>
      </trkpt>
      <trkpt lat="41.3444080" lon="-8.7366420">
        <ele>0.2</ele>
        <time>2021-03-20T12:19:54Z</time>
      </trkpt>
      <trkpt lat="41.3444640" lon="-8.7366830">
        <ele>0.2</ele>
        <time>2021-03-20T12:19:55Z</time>
      </trkpt>
      <trkpt lat="41.3445310" lon="-8.7367280">
        <ele>0.2</ele>
        <time>2021-03-20T12:19:56Z</time>
      </trkpt>
      <trkpt lat="41.3446190" lon="-8.7367850">
        <ele>0.2</ele>
        <time>2021-03-20T12:19:57Z</time>
      </trkpt>
      <trkpt lat="41.3446660" lon="-8.7368130">
        <ele>0.2</ele>
        <time>2021-03-20T12:19:58Z</time>
      </trkpt>
      <trkpt lat="41.3447280" lon="-8.7368550">
        <ele>0.2</ele>
        <time>2021-03-20T12:19:59Z</time>
      </trkpt>
      <trkpt lat="41.3447900" lon="-8.7368950">
        <ele>0.2</ele>
        <time>2021-03-20T12:20:00Z</time>
      </trkpt>
      <trkpt lat="41.3448580" lon="-8.7369380">
        <ele>0.0</ele>
        <time>2021-03-20T12:20:01Z</time>
      </trkpt>
      <trkpt lat="41.3449180" lon="-8.7369790">
        <ele>-0.4</ele>
        <time>2021-03-20T12:20:02Z</time>
      </trkpt>
      <trkpt lat="41.3449890" lon="-8.7370270">
        <ele>-0.4</ele>
        <time>2021-03-20T12:20:03Z</time>
      </trkpt>
      <trkpt lat="41.3450510" lon="-8.7370660">
        <ele>-1.0</ele>
        <time>2021-03-20T12:20:04Z</time>
      </trkpt>
      <trkpt lat="41.3451060" lon="-8.7371020">
        <ele>-1.4</ele>
        <time>2021-03-20T12:20:05Z</time>
      </trkpt>
      <trkpt lat="41.3451440" lon="-8.7371320">
        <ele>-1.6</ele>
        <time>2021-03-20T12:20:06Z</time>
      </trkpt>
      <trkpt lat="41.3452010" lon="-8.7371700">
        <ele>-2.0</ele>
        <time>2021-03-20T12:20:07Z</time>
      </trkpt>
      <trkpt lat="41.3452630" lon="-8.7372120">
        <ele>-2.0</ele>
        <time>2021-03-20T12:20:08Z</time>
      </trkpt>
      <trkpt lat="41.3453240" lon="-8.7372490">
        <ele>-2.0</ele>
        <time>2021-03-20T12:20:09Z</time>
      </trkpt>
      <trkpt lat="41.3454120" lon="-8.7373040">
        <ele>-2.4</ele>
        <time>2021-03-20T12:20:10Z</time>
      </trkpt>
      <trkpt lat="41.3454550" lon="-8.7373440">
        <ele>-3.2</ele>
        <time>2021-03-20T12:20:11Z</time>
      </trkpt>
      <trkpt lat="41.3455200" lon="-8.7373930">
        <ele>-3.2</ele>
        <time>2021-03-20T12:20:12Z</time>
      </trkpt>
      <trkpt lat="41.3456030" lon="-8.7374460">
        <ele>-4.2</ele>
        <time>2021-03-20T12:20:13Z</time>
      </trkpt>
      <trkpt lat="41.3456740" lon="-8.7374900">
        <ele>-4.4</ele>
        <time>2021-03-20T12:20:14Z</time>
      </trkpt>
      <trkpt lat="41.3457440" lon="-8.7375360">
        <ele>-4.6</ele>
        <time>2021-03-20T12:20:15Z</time>
      </trkpt>
      <trkpt lat="41.3458190" lon="-8.7375810">
        <ele>-5.0</ele>
        <time>2021-03-20T12:20:16Z</time>
      </trkpt>
      <trkpt lat="41.3458950" lon="-8.7376190">
        <ele>-5.2</ele>
        <time>2021-03-20T12:20:17Z</time>
      </trkpt>
      <trkpt lat="41.3459650" lon="-8.7376590">
        <ele>-5.4</ele>
        <time>2021-03-20T12:20:18Z</time>
      </trkpt>
      <trkpt lat="41.3460420" lon="-8.7376970">
        <ele>-5.8</ele>
        <time>2021-03-20T12:20:19Z</time>
      </trkpt>
      <trkpt lat="41.3461110" lon="-8.7377240">
        <ele>-6.6</ele>
        <time>2021-03-20T12:20:20Z</time>
      </trkpt>
      <trkpt lat="41.3461820" lon="-8.7377580">
        <ele>-7.2</ele>
        <time>2021-03-20T12:20:21Z</time>
      </trkpt>
      <trkpt lat="41.3462550" lon="-8.7377880">
        <ele>-7.6</ele>
        <time>2021-03-20T12:20:22Z</time>
      </trkpt>
      <trkpt lat="41.3463370" lon="-8.7378340">
        <ele>-8.0</ele>
        <time>2021-03-20T12:20:23Z</time>
      </trkpt>
      <trkpt lat="41.3464160" lon="-8.7378700">
        <ele>-8.4</ele>
        <time>2021-03-20T12:20:24Z</time>
      </trkpt>
      <trkpt lat="41.3464940" lon="-8.7378980">
        <ele>-9.0</ele>
        <time>2021-03-20T12:20:25Z</time>
      </trkpt>
      <trkpt lat="41.3465770" lon="-8.7379270">
        <ele>-9.4</ele>
        <time>2021-03-20T12:20:26Z</time>
      </trkpt>
      <trkpt lat="41.3466610" lon="-8.7379420">
        <ele>-9.6</ele>
        <time>2021-03-20T12:20:27Z</time>
      </trkpt>
      <trkpt lat="41.3467460" lon="-8.7379620">
        <ele>-10.2</ele>
        <time>2021-03-20T12:20:28Z</time>
      </trkpt>
      <trkpt lat="41.3468180" lon="-8.7379870">
        <ele>-10.2</ele>
        <time>2021-03-20T12:20:29Z</time>
      </trkpt>
      <trkpt lat="41.3469010" lon="-8.7380240">
        <ele>-10.2</ele>
        <time>2021-03-20T12:20:30Z</time>
      </trkpt>
      <trkpt lat="41.3469820" lon="-8.7380620">
        <ele>-10.2</ele>
        <time>2021-03-20T12:20:31Z</time>
      </trkpt>
      <trkpt lat="41.3470660" lon="-8.7380920">
        <ele>-10.2</ele>
        <time>2021-03-20T12:20:32Z</time>
      </trkpt>
      <trkpt lat="41.3471490" lon="-8.7381200">
        <ele>-10.0</ele>
        <time>2021-03-20T12:20:33Z</time>
      </trkpt>
      <trkpt lat="41.3472370" lon="-8.7381380">
        <ele>-9.8</ele>
        <time>2021-03-20T12:20:34Z</time>
      </trkpt>
      <trkpt lat="41.3473190" lon="-8.7381440">
        <ele>-10.0</ele>
        <time>2021-03-20T12:20:35Z</time>
      </trkpt>
      <trkpt lat="41.3474030" lon="-8.7381510">
        <ele>-10.0</ele>
        <time>2021-03-20T12:20:36Z</time>
      </trkpt>
      <trkpt lat="41.3474740" lon="-8.7381430">
        <ele>-10.2</ele>
        <time>2021-03-20T12:20:37Z</time>
      </trkpt>
      <trkpt lat="41.3475630" lon="-8.7381500">
        <ele>-9.8</ele>
        <time>2021-03-20T12:20:38Z</time>
      </trkpt>
      <trkpt lat="41.3476550" lon="-8.7381600">
        <ele>-10.2</ele>
        <time>2021-03-20T12:20:39Z</time>
      </trkpt>
      <trkpt lat="41.3477320" lon="-8.7381270">
        <ele>-10.0</ele>
        <time>2021-03-20T12:20:40Z</time>
      </trkpt>
      <trkpt lat="41.3478160" lon="-8.7381030">
        <ele>-10.0</ele>
        <time>2021-03-20T12:20:41Z</time>
      </trkpt>
      <trkpt lat="41.3478930" lon="-8.7380860">
        <ele>-10.0</ele>
        <time>2021-03-20T12:20:42Z</time>
      </trkpt>
      <trkpt lat="41.3479680" lon="-8.7380640">
        <ele>-10.2</ele>
        <time>2021-03-20T12:20:43Z</time>
      </trkpt>
      <trkpt lat="41.3480500" lon="-8.7380530">
        <ele>-10.4</ele>
        <time>2021-03-20T12:20:44Z</time>
      </trkpt>
      <trkpt lat="41.3481200" lon="-8.7380330">
        <ele>-10.2</ele>
        <time>2021-03-20T12:20:45Z</time>
      </trkpt>
      <trkpt lat="41.3481990" lon="-8.7380150">
        <ele>-10.2</ele>
        <time>2021-03-20T12:20:46Z</time>
      </trkpt>
      <trkpt lat="41.3482790" lon="-8.7380030">
        <ele>-10.2</ele>
        <time>2021-03-20T12:20:47Z</time>
      </trkpt>
      <trkpt lat="41.3483540" lon="-8.7379930">
        <ele>-10.6</ele>
        <time>2021-03-20T12:20:48Z</time>
      </trkpt>
      <trkpt lat="41.3484300" lon="-8.7379860">
        <ele>-10.6</ele>
        <time>2021-03-20T12:20:49Z</time>
      </trkpt>
      <trkpt lat="41.3485000" lon="-8.7379850">
        <ele>-10.8</ele>
        <time>2021-03-20T12:20:50Z</time>
      </trkpt>
      <trkpt lat="41.3485700" lon="-8.7379890">
        <ele>-11.4</ele>
        <time>2021-03-20T12:20:51Z</time>
      </trkpt>
      <trkpt lat="41.3486370" lon="-8.7379980">
        <ele>-12.0</ele>
        <time>2021-03-20T12:20:52Z</time>
      </trkpt>
      <trkpt lat="41.3487090" lon="-8.7380150">
        <ele>-12.4</ele>
        <time>2021-03-20T12:20:53Z</time>
      </trkpt>
      <trkpt lat="41.3487760" lon="-8.7380390">
        <ele>-12.6</ele>
        <time>2021-03-20T12:20:54Z</time>
      </trkpt>
      <trkpt lat="41.3488450" lon="-8.7380680">
        <ele>-13.2</ele>
        <time>2021-03-20T12:20:55Z</time>
      </trkpt>
      <trkpt lat="41.3489260" lon="-8.7381080">
        <ele>-13.6</ele>
        <time>2021-03-20T12:20:56Z</time>
      </trkpt>
      <trkpt lat="41.3489920" lon="-8.7381350">
        <ele>-14.2</ele>
        <time>2021-03-20T12:20:57Z</time>
      </trkpt>
      <trkpt lat="41.3490670" lon="-8.7381830">
        <ele>-14.4</ele>
        <time>2021-03-20T12:20:58Z</time>
      </trkpt>
      <trkpt lat="41.3491320" lon="-8.7382170">
        <ele>-15.0</ele>
        <time>2021-03-20T12:20:59Z</time>
      </trkpt>
      <trkpt lat="41.3492010" lon="-8.7382450">
        <ele>-16.0</ele>
        <time>2021-03-20T12:21:00Z</time>
      </trkpt>
      <trkpt lat="41.3492880" lon="-8.7382990">
        <ele>-16.6</ele>
        <time>2021-03-20T12:21:01Z</time>
      </trkpt>
      <trkpt lat="41.3493610" lon="-8.7383340">
        <ele>-17.4</ele>
        <time>2021-03-20T12:21:02Z</time>
      </trkpt>
      <trkpt lat="41.3494460" lon="-8.7383820">
        <ele>-17.8</ele>
        <time>2021-03-20T12:21:03Z</time>
      </trkpt>
      <trkpt lat="41.3495250" lon="-8.7384200">
        <ele>-18.2</ele>
        <time>2021-03-20T12:21:04Z</time>
      </trkpt>
      <trkpt lat="41.3496120" lon="-8.7384630">
        <ele>-18.8</ele>
        <time>2021-03-20T12:21:05Z</time>
      </trkpt>
      <trkpt lat="41.3497320" lon="-8.7385160">
        <ele>-19.2</ele>
        <time>2021-03-20T12:21:06Z</time>
      </trkpt>
      <trkpt lat="41.3498210" lon="-8.7385420">
        <ele>-19.4</ele>
        <time>2021-03-20T12:21:07Z</time>
      </trkpt>
      <trkpt lat="41.3498750" lon="-8.7386140">
        <ele>-19.8</ele>
        <time>2021-03-20T12:21:08Z</time>
      </trkpt>
      <trkpt lat="41.3499630" lon="-8.7386250">
        <ele>-19.6</ele>
        <time>2021-03-20T12:21:09Z</time>
      </trkpt>
      <trkpt lat="41.3500520" lon="-8.7386750">
        <ele>-19.8</ele>
        <time>2021-03-20T12:21:10Z</time>
      </trkpt>
      <trkpt lat="41.3501310" lon="-8.7387140">
        <ele>-19.6</ele>
        <time>2021-03-20T12:21:11Z</time>
      </trkpt>
      <trkpt lat="41.3502330" lon="-8.7387680">
        <ele>-19.4</ele>
        <time>2021-03-20T12:21:12Z</time>
      </trkpt>
      <trkpt lat="41.3503170" lon="-8.7388240">
        <ele>-19.2</ele>
        <time>2021-03-20T12:21:13Z</time>
      </trkpt>
      <trkpt lat="41.3503860" lon="-8.7388660">
        <ele>-19.0</ele>
        <time>2021-03-20T12:21:14Z</time>
      </trkpt>
      <trkpt lat="41.3504740" lon="-8.7389100">
        <ele>-18.8</ele>
        <time>2021-03-20T12:21:15Z</time>
      </trkpt>
      <trkpt lat="41.3505520" lon="-8.7389700">
        <ele>-18.8</ele>
        <time>2021-03-20T12:21:16Z</time>
      </trkpt>
      <trkpt lat="41.3506680" lon="-8.7390360">
        <ele>-19.0</ele>
        <time>2021-03-20T12:21:17Z</time>
      </trkpt>
      <trkpt lat="41.3507520" lon="-8.7390930">
        <ele>-19.2</ele>
        <time>2021-03-20T12:21:18Z</time>
      </trkpt>
      <trkpt lat="41.3508250" lon="-8.7391370">
        <ele>-19.0</ele>
        <time>2021-03-20T12:21:19Z</time>
      </trkpt>
      <trkpt lat="41.3509010" lon="-8.7391830">
        <ele>-19.2</ele>
        <time>2021-03-20T12:21:20Z</time>
      </trkpt>
      <trkpt lat="41.3509850" lon="-8.7392220">
        <ele>-18.8</ele>
        <time>2021-03-20T12:21:21Z</time>
      </trkpt>
      <trkpt lat="41.3510440" lon="-8.7392560">
        <ele>-18.8</ele>
        <time>2021-03-20T12:21:22Z</time>
      </trkpt>
      <trkpt lat="41.3511420" lon="-8.7393060">
        <ele>-18.8</ele>
        <time>2021-03-20T12:21:23Z</time>
      </trkpt>
      <trkpt lat="41.3511890" lon="-8.7393320">
        <ele>-18.6</ele>
        <time>2021-03-20T12:21:24Z</time>
      </trkpt>
      <trkpt lat="41.3512820" lon="-8.7393800">
        <ele>-18.6</ele>
        <time>2021-03-20T12:21:25Z</time>
      </trkpt>
      <trkpt lat="41.3513500" lon="-8.7394160">
        <ele>-18.6</ele>
        <time>2021-03-20T12:21:26Z</time>
      </trkpt>
      <trkpt lat="41.3514210" lon="-8.7394540">
        <ele>-19.0</ele>
        <time>2021-03-20T12:21:27Z</time>
      </trkpt>
      <trkpt lat="41.3514640" lon="-8.7394750">
        <ele>-19.4</ele>
        <time>2021-03-20T12:21:28Z</time>
      </trkpt>
      <trkpt lat="41.3515280" lon="-8.7395090">
        <ele>-19.6</ele>
        <time>2021-03-20T12:21:29Z</time>
      </trkpt>
      <trkpt lat="41.3515700" lon="-8.7395290">
        <ele>-19.4</ele>
        <time>2021-03-20T12:21:30Z</time>
      </trkpt>
      <trkpt lat="41.3516190" lon="-8.7395520">
        <ele>-19.8</ele>
        <time>2021-03-20T12:21:31Z</time>
      </trkpt>
      <trkpt lat="41.3516630" lon="-8.7395750">
        <ele>-20.4</ele>
        <time>2021-03-20T12:21:32Z</time>
      </trkpt>
      <trkpt lat="41.3517020" lon="-8.7395970">
        <ele>-20.4</ele>
        <time>2021-03-20T12:21:33Z</time>
      </trkpt>
      <trkpt lat="41.3517540" lon="-8.7396220">
        <ele>-20.6</ele>
        <time>2021-03-20T12:21:34Z</time>
      </trkpt>
      <trkpt lat="41.3517930" lon="-8.7396390">
        <ele>-20.6</ele>
        <time>2021-03-20T12:21:35Z</time>
      </trkpt>
      <trkpt lat="41.3518520" lon="-8.7396680">
        <ele>-20.6</ele>
        <time>2021-03-20T12:21:36Z</time>
      </trkpt>
      <trkpt lat="41.3519170" lon="-8.7397020">
        <ele>-20.8</ele>
        <time>2021-03-20T12:21:37Z</time>
      </trkpt>
      <trkpt lat="41.3519870" lon="-8.7397420">
        <ele>-20.8</ele>
        <time>2021-03-20T12:21:38Z</time>
      </trkpt>
      <trkpt lat="41.3520410" lon="-8.7397720">
        <ele>-21.0</ele>
        <time>2021-03-20T12:21:39Z</time>
      </trkpt>
      <trkpt lat="41.3520810" lon="-8.7397840">
        <ele>-20.8</ele>
        <time>2021-03-20T12:21:40Z</time>
      </trkpt>
      <trkpt lat="41.3521410" lon="-8.7398180">
        <ele>-20.8</ele>
        <time>2021-03-20T12:21:41Z</time>
      </trkpt>
      <trkpt lat="41.3522180" lon="-8.7398480">
        <ele>-20.8</ele>
        <time>2021-03-20T12:21:42Z</time>
      </trkpt>
      <trkpt lat="41.3522760" lon="-8.7398880">
        <ele>-20.6</ele>
        <time>2021-03-20T12:21:43Z</time>
      </trkpt>
      <trkpt lat="41.3523720" lon="-8.7399240">
        <ele>-20.8</ele>
        <time>2021-03-20T12:21:44Z</time>
      </trkpt>
      <trkpt lat="41.3524070" lon="-8.7399500">
        <ele>-20.8</ele>
        <time>2021-03-20T12:21:45Z</time>
      </trkpt>
      <trkpt lat="41.3524680" lon="-8.7399780">
        <ele>-20.8</ele>
        <time>2021-03-20T12:21:46Z</time>
      </trkpt>
      <trkpt lat="41.3525450" lon="-8.7400170">
        <ele>-20.8</ele>
        <time>2021-03-20T12:21:47Z</time>
      </trkpt>
      <trkpt lat="41.3525880" lon="-8.7400480">
        <ele>-21.0</ele>
        <time>2021-03-20T12:21:48Z</time>
      </trkpt>
      <trkpt lat="41.3526650" lon="-8.7400770">
        <ele>-21.2</ele>
        <time>2021-03-20T12:21:49Z</time>
      </trkpt>
      <trkpt lat="41.3527260" lon="-8.7401190">
        <ele>-21.4</ele>
        <time>2021-03-20T12:21:50Z</time>
      </trkpt>
      <trkpt lat="41.3527910" lon="-8.7401550">
        <ele>-21.6</ele>
        <time>2021-03-20T12:21:51Z</time>
      </trkpt>
      <trkpt lat="41.3528930" lon="-8.7401970">
        <ele>-21.8</ele>
        <time>2021-03-20T12:21:52Z</time>
      </trkpt>
      <trkpt lat="41.3529540" lon="-8.7402590">
        <ele>-21.6</ele>
        <time>2021-03-20T12:21:53Z</time>
      </trkpt>
      <trkpt lat="41.3530090" lon="-8.7403080">
        <ele>-21.6</ele>
        <time>2021-03-20T12:21:54Z</time>
      </trkpt>
      <trkpt lat="41.3530660" lon="-8.7403510">
        <ele>-21.6</ele>
        <time>2021-03-20T12:21:55Z</time>
      </trkpt>
      <trkpt lat="41.3531200" lon="-8.7404080">
        <ele>-21.6</ele>
        <time>2021-03-20T12:21:56Z</time>
      </trkpt>
      <trkpt lat="41.3531690" lon="-8.7404400">
        <ele>-21.0</ele>
        <time>2021-03-20T12:21:57Z</time>
      </trkpt>
      <trkpt lat="41.3532140" lon="-8.7404940">
        <ele>-20.8</ele>
        <time>2021-03-20T12:21:58Z</time>
      </trkpt>
      <trkpt lat="41.3532520" lon="-8.7405550">
        <ele>-21.0</ele>
        <time>2021-03-20T12:21:59Z</time>
      </trkpt>
      <trkpt lat="41.3532670" lon="-8.7406290">
        <ele>-20.6</ele>
        <time>2021-03-20T12:22:00Z</time>
      </trkpt>
      <trkpt lat="41.3532900" lon="-8.7407090">
        <ele>-20.2</ele>
        <time>2021-03-20T12:22:01Z</time>
      </trkpt>
      <trkpt lat="41.3532610" lon="-8.7407670">
        <ele>-20.2</ele>
        <time>2021-03-20T12:22:02Z</time>
      </trkpt>
      <trkpt lat="41.3532700" lon="-8.7408440">
        <ele>-20.0</ele>
        <time>2021-03-20T12:22:03Z</time>
      </trkpt>
      <trkpt lat="41.3532520" lon="-8.7409260">
        <ele>-19.8</ele>
        <time>2021-03-20T12:22:04Z</time>
      </trkpt>
      <trkpt lat="41.3532370" lon="-8.7410100">
        <ele>-19.6</ele>
        <time>2021-03-20T12:22:05Z</time>
      </trkpt>
      <trkpt lat="41.3532240" lon="-8.7410840">
        <ele>-19.2</ele>
        <time>2021-03-20T12:22:06Z</time>
      </trkpt>
      <trkpt lat="41.3532180" lon="-8.7411510">
        <ele>-19.0</ele>
        <time>2021-03-20T12:22:07Z</time>
      </trkpt>
      <trkpt lat="41.3532120" lon="-8.7411980">
        <ele>-18.8</ele>
        <time>2021-03-20T12:22:08Z</time>
      </trkpt>
      <trkpt lat="41.3532100" lon="-8.7412580">
        <ele>-18.6</ele>
        <time>2021-03-20T12:22:09Z</time>
      </trkpt>
      <trkpt lat="41.3532030" lon="-8.7413230">
        <ele>-18.4</ele>
        <time>2021-03-20T12:22:10Z</time>
      </trkpt>
      <trkpt lat="41.3532000" lon="-8.7413840">
        <ele>-18.4</ele>
        <time>2021-03-20T12:22:11Z</time>
      </trkpt>
      <trkpt lat="41.3531910" lon="-8.7414440">
        <ele>-18.4</ele>
        <time>2021-03-20T12:22:12Z</time>
      </trkpt>
      <trkpt lat="41.3531860" lon="-8.7415120">
        <ele>-18.4</ele>
        <time>2021-03-20T12:22:13Z</time>
      </trkpt>
      <trkpt lat="41.3531830" lon="-8.7415630">
        <ele>-18.2</ele>
        <time>2021-03-20T12:22:14Z</time>
      </trkpt>
      <trkpt lat="41.3531910" lon="-8.7416240">
        <ele>-18.2</ele>
        <time>2021-03-20T12:22:15Z</time>
      </trkpt>
      <trkpt lat="41.3531880" lon="-8.7416910">
        <ele>-17.0</ele>
        <time>2021-03-20T12:22:16Z</time>
      </trkpt>
      <trkpt lat="41.3531840" lon="-8.7417680">
        <ele>-17.4</ele>
        <time>2021-03-20T12:22:17Z</time>
      </trkpt>
      <trkpt lat="41.3531840" lon="-8.7418500">
        <ele>-17.4</ele>
        <time>2021-03-20T12:22:18Z</time>
      </trkpt>
      <trkpt lat="41.3531860" lon="-8.7419220">
        <ele>-17.2</ele>
        <time>2021-03-20T12:22:19Z</time>
      </trkpt>
      <trkpt lat="41.3531830" lon="-8.7419800">
        <ele>-17.0</ele>
        <time>2021-03-20T12:22:20Z</time>
      </trkpt>
      <trkpt lat="41.3531850" lon="-8.7420850">
        <ele>-17.0</ele>
        <time>2021-03-20T12:22:21Z</time>
      </trkpt>
      <trkpt lat="41.3531940" lon="-8.7421760">
        <ele>-17.0</ele>
        <time>2021-03-20T12:22:22Z</time>
      </trkpt>
      <trkpt lat="41.3531940" lon="-8.7422490">
        <ele>-17.0</ele>
        <time>2021-03-20T12:22:23Z</time>
      </trkpt>
      <trkpt lat="41.3531970" lon="-8.7423340">
        <ele>-16.8</ele>
        <time>2021-03-20T12:22:24Z</time>
      </trkpt>
      <trkpt lat="41.3531850" lon="-8.7424300">
        <ele>-16.8</ele>
        <time>2021-03-20T12:22:25Z</time>
      </trkpt>
      <trkpt lat="41.3531770" lon="-8.7425000">
        <ele>-16.4</ele>
        <time>2021-03-20T12:22:26Z</time>
      </trkpt>
      <trkpt lat="41.3531580" lon="-8.7425700">
        <ele>-15.8</ele>
        <time>2021-03-20T12:22:27Z</time>
      </trkpt>
      <trkpt lat="41.3531610" lon="-8.7426690">
        <ele>-15.6</ele>
        <time>2021-03-20T12:22:28Z</time>
      </trkpt>
      <trkpt lat="41.3531830" lon="-8.7427570">
        <ele>-15.4</ele>
        <time>2021-03-20T12:22:29Z</time>
      </trkpt>
      <trkpt lat="41.3532090" lon="-8.7428330">
        <ele>-15.0</ele>
        <time>2021-03-20T12:22:30Z</time>
      </trkpt>
      <trkpt lat="41.3532260" lon="-8.7428970">
        <ele>-14.6</ele>
        <time>2021-03-20T12:22:31Z</time>
      </trkpt>
      <trkpt lat="41.3532310" lon="-8.7429590">
        <ele>-14.6</ele>
        <time>2021-03-20T12:22:32Z</time>
      </trkpt>
      <trkpt lat="41.3533150" lon="-8.7430170">
        <ele>-14.4</ele>
        <time>2021-03-20T12:22:33Z</time>
      </trkpt>
      <trkpt lat="41.3533720" lon="-8.7430640">
        <ele>-14.2</ele>
        <time>2021-03-20T12:22:34Z</time>
      </trkpt>
      <trkpt lat="41.3533540" lon="-8.7430900">
        <ele>-14.2</ele>
        <time>2021-03-20T12:22:35Z</time>
      </trkpt>
      <trkpt lat="41.3533900" lon="-8.7431050">
        <ele>-14.4</ele>
        <time>2021-03-20T12:22:36Z</time>
      </trkpt>
      <trkpt lat="41.3533800" lon="-8.7431190">
        <ele>-14.4</ele>
        <time>2021-03-20T12:22:37Z</time>
      </trkpt>
      <trkpt lat="41.3533950" lon="-8.7431340">
        <ele>-14.4</ele>
        <time>2021-03-20T12:22:38Z</time>
      </trkpt>
      <trkpt lat="41.3533950" lon="-8.7431420">
        <ele>-14.6</ele>
        <time>2021-03-20T12:22:39Z</time>
      </trkpt>
      <trkpt lat="41.3533630" lon="-8.7431260">
        <ele>-14.8</ele>
        <time>2021-03-20T12:22:40Z</time>
      </trkpt>
      <trkpt lat="41.3533540" lon="-8.7431330">
        <ele>-14.8</ele>
        <time>2021-03-20T12:22:41Z</time>
      </trkpt>
      <trkpt lat="41.3533490" lon="-8.7431570">
        <ele>-14.8</ele>
        <time>2021-03-20T12:22:42Z</time>
      </trkpt>
      <trkpt lat="41.3533430" lon="-8.7431390">
        <ele>-14.8</ele>
        <time>2021-03-20T12:22:43Z</time>
      </trkpt>
      <trkpt lat="41.3533410" lon="-8.7431510">
        <ele>-14.8</ele>
        <time>2021-03-20T12:22:44Z</time>
      </trkpt>
      <trkpt lat="41.3533400" lon="-8.7431580">
        <ele>-14.8</ele>
        <time>2021-03-20T12:22:45Z</time>
      </trkpt>
      <trkpt lat="41.3533540" lon="-8.7431610">
        <ele>-14.8</ele>
        <time>2021-03-20T12:22:46Z</time>
      </trkpt>
      <trkpt lat="41.3533670" lon="-8.7431760">
        <ele>-14.8</ele>
        <time>2021-03-20T12:22:47Z</time>
      </trkpt>
      <trkpt lat="41.3533330" lon="-8.7431850">
        <ele>-14.8</ele>
        <time>2021-03-20T12:22:48Z</time>
      </trkpt>
      <trkpt lat="41.3533400" lon="-8.7431890">
        <ele>-14.8</ele>
        <time>2021-03-20T12:22:49Z</time>
      </trkpt>
      <trkpt lat="41.3533200" lon="-8.7431210">
        <ele>-14.0</ele>
        <time>2021-03-20T12:26:15Z</time>
      </trkpt>
      <trkpt lat="41.3533360" lon="-8.7431270">
        <ele>-13.8</ele>
        <time>2021-03-20T12:26:16Z</time>
      </trkpt>
      <trkpt lat="41.3533280" lon="-8.7431370">
        <ele>-13.4</ele>
        <time>2021-03-20T12:26:17Z</time>
      </trkpt>
      <trkpt lat="41.3533300" lon="-8.7431380">
        <ele>-13.4</ele>
        <time>2021-03-20T12:26:18Z</time>
      </trkpt>
      <trkpt lat="41.3533380" lon="-8.7431420">
        <ele>-13.2</ele>
        <time>2021-03-20T12:26:19Z</time>
      </trkpt>
      <trkpt lat="41.3533470" lon="-8.7431510">
        <ele>-12.8</ele>
        <time>2021-03-20T12:26:20Z</time>
      </trkpt>
      <trkpt lat="41.3533670" lon="-8.7431810">
        <ele>-12.4</ele>
        <time>2021-03-20T12:26:21Z</time>
      </trkpt>
      <trkpt lat="41.3533750" lon="-8.7431980">
        <ele>-12.6</ele>
        <time>2021-03-20T12:26:22Z</time>
      </trkpt>
      <trkpt lat="41.3533900" lon="-8.7432170">
        <ele>-12.6</ele>
        <time>2021-03-20T12:26:23Z</time>
      </trkpt>
      <trkpt lat="41.3534060" lon="-8.7432360">
        <ele>-12.4</ele>
        <time>2021-03-20T12:26:24Z</time>
      </trkpt>
      <trkpt lat="41.3534260" lon="-8.7432540">
        <ele>-12.0</ele>
        <time>2021-03-20T12:26:25Z</time>
      </trkpt>
      <trkpt lat="41.3534440" lon="-8.7432930">
        <ele>-12.0</ele>
        <time>2021-03-20T12:26:26Z</time>
      </trkpt>
      <trkpt lat="41.3534610" lon="-8.7433430">
        <ele>-12.2</ele>
        <time>2021-03-20T12:26:27Z</time>
      </trkpt>
      <trkpt lat="41.3534780" lon="-8.7433660">
        <ele>-12.0</ele>
        <time>2021-03-20T12:26:28Z</time>
      </trkpt>
      <trkpt lat="41.3534910" lon="-8.7434000">
        <ele>-11.8</ele>
        <time>2021-03-20T12:26:29Z</time>
      </trkpt>
      <trkpt lat="41.3535130" lon="-8.7434330">
        <ele>-11.4</ele>
        <time>2021-03-20T12:26:30Z</time>
      </trkpt>
      <trkpt lat="41.3535220" lon="-8.7434510">
        <ele>-11.4</ele>
        <time>2021-03-20T12:26:31Z</time>
      </trkpt>
      <trkpt lat="41.3535380" lon="-8.7434630">
        <ele>-11.4</ele>
        <time>2021-03-20T12:26:32Z</time>
      </trkpt>
      <trkpt lat="41.3535560" lon="-8.7434850">
        <ele>-11.2</ele>
        <time>2021-03-20T12:26:33Z</time>
      </trkpt>
      <trkpt lat="41.3535710" lon="-8.7435060">
        <ele>-11.0</ele>
        <time>2021-03-20T12:26:34Z</time>
      </trkpt>
      <trkpt lat="41.3536040" lon="-8.7435460">
        <ele>-10.6</ele>
        <time>2021-03-20T12:26:35Z</time>
      </trkpt>
      <trkpt lat="41.3536310" lon="-8.7435930">
        <ele>-10.2</ele>
        <time>2021-03-20T12:26:36Z</time>
      </trkpt>
      <trkpt lat="41.3536560" lon="-8.7436000">
        <ele>-10.0</ele>
        <time>2021-03-20T12:26:37Z</time>
      </trkpt>
      <trkpt lat="41.3536750" lon="-8.7436180">
        <ele>-10.2</ele>
        <time>2021-03-20T12:26:38Z</time>
      </trkpt>
      <trkpt lat="41.3537120" lon="-8.7436530">
        <ele>-10.4</ele>
        <time>2021-03-20T12:26:39Z</time>
      </trkpt>
      <trkpt lat="41.3537250" lon="-8.7436670">
        <ele>-10.2</ele>
        <time>2021-03-20T12:26:40Z</time>
      </trkpt>
      <trkpt lat="41.3537420" lon="-8.7436860">
        <ele>-10.0</ele>
        <time>2021-03-20T12:26:41Z</time>
      </trkpt>
      <trkpt lat="41.3537700" lon="-8.7437180">
        <ele>-9.8</ele>
        <time>2021-03-20T12:26:42Z</time>
      </trkpt>
      <trkpt lat="41.3537920" lon="-8.7437390">
        <ele>-9.6</ele>
        <time>2021-03-20T12:26:43Z</time>
      </trkpt>
      <trkpt lat="41.3538120" lon="-8.7437590">
        <ele>-9.8</ele>
        <time>2021-03-20T12:26:44Z</time>
      </trkpt>
      <trkpt lat="41.3538340" lon="-8.7437830">
        <ele>-9.2</ele>
        <time>2021-03-20T12:26:45Z</time>
      </trkpt>
      <trkpt lat="41.3538550" lon="-8.7438020">
        <ele>-9.2</ele>
        <time>2021-03-20T12:26:46Z</time>
      </trkpt>
      <trkpt lat="41.3538780" lon="-8.7438190">
        <ele>-9.2</ele>
        <time>2021-03-20T12:26:47Z</time>
      </trkpt>
      <trkpt lat="41.3539020" lon="-8.7438290">
        <ele>-9.2</ele>
        <time>2021-03-20T12:26:48Z</time>
      </trkpt>
      <trkpt lat="41.3539250" lon="-8.7438420">
        <ele>-9.2</ele>
        <time>2021-03-20T12:26:49Z</time>
      </trkpt>
      <trkpt lat="41.3539480" lon="-8.7438580">
        <ele>-9.2</ele>
        <time>2021-03-20T12:26:50Z</time>
      </trkpt>
      <trkpt lat="41.3539650" lon="-8.7438800">
        <ele>-9.2</ele>
        <time>2021-03-20T12:26:51Z</time>
      </trkpt>
      <trkpt lat="41.3539860" lon="-8.7439030">
        <ele>-9.2</ele>
        <time>2021-03-20T12:26:52Z</time>
      </trkpt>
      <trkpt lat="41.3540070" lon="-8.7439260">
        <ele>-9.2</ele>
        <time>2021-03-20T12:26:53Z</time>
      </trkpt>
      <trkpt lat="41.3540230" lon="-8.7439480">
        <ele>-9.4</ele>
        <time>2021-03-20T12:26:54Z</time>
      </trkpt>
      <trkpt lat="41.3540550" lon="-8.7439720">
        <ele>-9.2</ele>
        <time>2021-03-20T12:26:55Z</time>
      </trkpt>
      <trkpt lat="41.3540720" lon="-8.7439940">
        <ele>-9.2</ele>
        <time>2021-03-20T12:26:56Z</time>
      </trkpt>
      <trkpt lat="41.3540850" lon="-8.7440070">
        <ele>-9.2</ele>
        <time>2021-03-20T12:26:57Z</time>
      </trkpt>
      <trkpt lat="41.3541150" lon="-8.7440100">
        <ele>-9.2</ele>
        <time>2021-03-20T12:26:58Z</time>
      </trkpt>
      <trkpt lat="41.3541360" lon="-8.7440150">
        <ele>-9.4</ele>
        <time>2021-03-20T12:26:59Z</time>
      </trkpt>
      <trkpt lat="41.3542020" lon="-8.7440360">
        <ele>-9.2</ele>
        <time>2021-03-20T12:27:00Z</time>
      </trkpt>
      <trkpt lat="41.3541930" lon="-8.7440490">
        <ele>-9.2</ele>
        <time>2021-03-20T12:27:01Z</time>
      </trkpt>
      <trkpt lat="41.3542140" lon="-8.7440460">
        <ele>-9.0</ele>
        <time>2021-03-20T12:27:02Z</time>
      </trkpt>
      <trkpt lat="41.3542350" lon="-8.7440510">
        <ele>-9.2</ele>
        <time>2021-03-20T12:27:03Z</time>
      </trkpt>
      <trkpt lat="41.3542640" lon="-8.7440590">
        <ele>-9.6</ele>
        <time>2021-03-20T12:27:04Z</time>
      </trkpt>
      <trkpt lat="41.3542380" lon="-8.7440770">
        <ele>-9.6</ele>
        <time>2021-03-20T12:27:05Z</time>
      </trkpt>
      <trkpt lat="41.3542710" lon="-8.7441060">
        <ele>-9.8</ele>
        <time>2021-03-20T12:27:06Z</time>
      </trkpt>
      <trkpt lat="41.3542840" lon="-8.7441230">
        <ele>-10.2</ele>
        <time>2021-03-20T12:27:07Z</time>
      </trkpt>
      <trkpt lat="41.3543070" lon="-8.7441580">
        <ele>-10.2</ele>
        <time>2021-03-20T12:27:08Z</time>
      </trkpt>
      <trkpt lat="41.3543230" lon="-8.7441890">
        <ele>-10.2</ele>
        <time>2021-03-20T12:27:09Z</time>
      </trkpt>
      <trkpt lat="41.3543180" lon="-8.7442150">
        <ele>-10.4</ele>
        <time>2021-03-20T12:27:10Z</time>
      </trkpt>
      <trkpt lat="41.3543170" lon="-8.7442390">
        <ele>-10.4</ele>
        <time>2021-03-20T12:27:11Z</time>
      </trkpt>
      <trkpt lat="41.3543090" lon="-8.7442710">
        <ele>-10.6</ele>
        <time>2021-03-20T12:27:12Z</time>
      </trkpt>
      <trkpt lat="41.3543040" lon="-8.7442960">
        <ele>-10.6</ele>
        <time>2021-03-20T12:27:13Z</time>
      </trkpt>
      <trkpt lat="41.3543020" lon="-8.7443120">
        <ele>-10.4</ele>
        <time>2021-03-20T12:27:14Z</time>
      </trkpt>
      <trkpt lat="41.3542970" lon="-8.7443350">
        <ele>-10.2</ele>
        <time>2021-03-20T12:27:15Z</time>
      </trkpt>
      <trkpt lat="41.3542950" lon="-8.7443870">
        <ele>-10.2</ele>
        <time>2021-03-20T12:27:16Z</time>
      </trkpt>
      <trkpt lat="41.3542920" lon="-8.7444210">
        <ele>-10.0</ele>
        <time>2021-03-20T12:27:17Z</time>
      </trkpt>
      <trkpt lat="41.3542890" lon="-8.7444530">
        <ele>-10.0</ele>
        <time>2021-03-20T12:27:18Z</time>
      </trkpt>
      <trkpt lat="41.3542930" lon="-8.7444830">
        <ele>-10.0</ele>
        <time>2021-03-20T12:27:19Z</time>
      </trkpt>
      <trkpt lat="41.3542910" lon="-8.7445090">
        <ele>-10.2</ele>
        <time>2021-03-20T12:27:20Z</time>
      </trkpt>
      <trkpt lat="41.3542800" lon="-8.7445310">
        <ele>-10.4</ele>
        <time>2021-03-20T12:27:21Z</time>
      </trkpt>
      <trkpt lat="41.3542750" lon="-8.7445440">
        <ele>-10.6</ele>
        <time>2021-03-20T12:27:22Z</time>
      </trkpt>
      <trkpt lat="41.3542680" lon="-8.7445540">
        <ele>-10.6</ele>
        <time>2021-03-20T12:27:23Z</time>
      </trkpt>
      <trkpt lat="41.3542590" lon="-8.7445820">
        <ele>-10.6</ele>
        <time>2021-03-20T12:27:24Z</time>
      </trkpt>
      <trkpt lat="41.3542560" lon="-8.7445860">
        <ele>-10.8</ele>
        <time>2021-03-20T12:27:25Z</time>
      </trkpt>
      <trkpt lat="41.3542500" lon="-8.7445940">
        <ele>-10.8</ele>
        <time>2021-03-20T12:27:26Z</time>
      </trkpt>
      <trkpt lat="41.3542350" lon="-8.7446110">
        <ele>-11.0</ele>
        <time>2021-03-20T12:27:27Z</time>
      </trkpt>
      <trkpt lat="41.3542270" lon="-8.7446230">
        <ele>-11.0</ele>
        <time>2021-03-20T12:27:28Z</time>
      </trkpt>
      <trkpt lat="41.3542090" lon="-8.7446520">
        <ele>-11.0</ele>
        <time>2021-03-20T12:27:29Z</time>
      </trkpt>
      <trkpt lat="41.3541980" lon="-8.7446620">
        <ele>-11.2</ele>
        <time>2021-03-20T12:27:30Z</time>
      </trkpt>
      <trkpt lat="41.3541890" lon="-8.7446700">
        <ele>-11.2</ele>
        <time>2021-03-20T12:27:31Z</time>
      </trkpt>
      <trkpt lat="41.3541790" lon="-8.7446760">
        <ele>-11.2</ele>
        <time>2021-03-20T12:27:32Z</time>
      </trkpt>
      <trkpt lat="41.3541780" lon="-8.7446830">
        <ele>-11.2</ele>
        <time>2021-03-20T12:27:33Z</time>
      </trkpt>
      <trkpt lat="41.3541790" lon="-8.7447090">
        <ele>-11.4</ele>
        <time>2021-03-20T12:27:34Z</time>
      </trkpt>
      <trkpt lat="41.3541770" lon="-8.7447290">
        <ele>-11.2</ele>
        <time>2021-03-20T12:27:35Z</time>
      </trkpt>
      <trkpt lat="41.3541650" lon="-8.7447360">
        <ele>-11.4</ele>
        <time>2021-03-20T12:27:36Z</time>
      </trkpt>
      <trkpt lat="41.3541560" lon="-8.7447520">
        <ele>-11.6</ele>
        <time>2021-03-20T12:27:37Z</time>
      </trkpt>
      <trkpt lat="41.3541480" lon="-8.7447640">
        <ele>-11.8</ele>
        <time>2021-03-20T12:27:38Z</time>
      </trkpt>
      <trkpt lat="41.3541330" lon="-8.7447870">
        <ele>-11.8</ele>
        <time>2021-03-20T12:27:39Z</time>
      </trkpt>
      <trkpt lat="41.3541120" lon="-8.7448080">
        <ele>-12.0</ele>
        <time>2021-03-20T12:27:40Z</time>
      </trkpt>
      <trkpt lat="41.3540990" lon="-8.7448220">
        <ele>-12.0</ele>
        <time>2021-03-20T12:27:41Z</time>
      </trkpt>
      <trkpt lat="41.3540810" lon="-8.7448540">
        <ele>-12.0</ele>
        <time>2021-03-20T12:27:42Z</time>
      </trkpt>
      <trkpt lat="41.3540500" lon="-8.7448740">
        <ele>-11.8</ele>
        <time>2021-03-20T12:27:43Z</time>
      </trkpt>
      <trkpt lat="41.3540560" lon="-8.7449080">
        <ele>-12.0</ele>
        <time>2021-03-20T12:27:44Z</time>
      </trkpt>
      <trkpt lat="41.3540400" lon="-8.7449360">
        <ele>-12.6</ele>
        <time>2021-03-20T12:27:45Z</time>
      </trkpt>
      <trkpt lat="41.3540290" lon="-8.7449580">
        <ele>-12.8</ele>
        <time>2021-03-20T12:27:46Z</time>
      </trkpt>
      <trkpt lat="41.3540120" lon="-8.7449820">
        <ele>-12.8</ele>
        <time>2021-03-20T12:27:47Z</time>
      </trkpt>
      <trkpt lat="41.3540000" lon="-8.7450130">
        <ele>-12.8</ele>
        <time>2021-03-20T12:27:48Z</time>
      </trkpt>
      <trkpt lat="41.3539860" lon="-8.7450370">
        <ele>-13.0</ele>
        <time>2021-03-20T12:27:49Z</time>
      </trkpt>
      <trkpt lat="41.3539760" lon="-8.7450600">
        <ele>-13.2</ele>
        <time>2021-03-20T12:27:50Z</time>
      </trkpt>
      <trkpt lat="41.3539590" lon="-8.7450870">
        <ele>-13.0</ele>
        <time>2021-03-20T12:27:51Z</time>
      </trkpt>
      <trkpt lat="41.3539350" lon="-8.7451210">
        <ele>-13.0</ele>
        <time>2021-03-20T12:27:52Z</time>
      </trkpt>
      <trkpt lat="41.3539210" lon="-8.7451510">
        <ele>-13.2</ele>
        <time>2021-03-20T12:27:53Z</time>
      </trkpt>
      <trkpt lat="41.3538890" lon="-8.7451900">
        <ele>-13.6</ele>
        <time>2021-03-20T12:27:54Z</time>
      </trkpt>
      <trkpt lat="41.3538900" lon="-8.7452300">
        <ele>-13.8</ele>
        <time>2021-03-20T12:27:55Z</time>
      </trkpt>
      <trkpt lat="41.3538680" lon="-8.7452580">
        <ele>-13.8</ele>
        <time>2021-03-20T12:27:56Z</time>
      </trkpt>
      <trkpt lat="41.3538440" lon="-8.7452990">
        <ele>-13.8</ele>
        <time>2021-03-20T12:27:57Z</time>
      </trkpt>
      <trkpt lat="41.3538230" lon="-8.7453550">
        <ele>-13.8</ele>
        <time>2021-03-20T12:27:58Z</time>
      </trkpt>
      <trkpt lat="41.3538020" lon="-8.7454010">
        <ele>-13.8</ele>
        <time>2021-03-20T12:27:59Z</time>
      </trkpt>
      <trkpt lat="41.3537790" lon="-8.7454490">
        <ele>-13.6</ele>
        <time>2021-03-20T12:28:00Z</time>
      </trkpt>
      <trkpt lat="41.3537590" lon="-8.7455080">
        <ele>-13.4</ele>
        <time>2021-03-20T12:28:01Z</time>
      </trkpt>
      <trkpt lat="41.3537350" lon="-8.7455560">
        <ele>-13.6</ele>
        <time>2021-03-20T12:28:02Z</time>
      </trkpt>
      <trkpt lat="41.3537220" lon="-8.7456050">
        <ele>-13.8</ele>
        <time>2021-03-20T12:28:03Z</time>
      </trkpt>
      <trkpt lat="41.3536900" lon="-8.7456450">
        <ele>-13.8</ele>
        <time>2021-03-20T12:28:04Z</time>
      </trkpt>
      <trkpt lat="41.3536900" lon="-8.7456920">
        <ele>-14.0</ele>
        <time>2021-03-20T12:28:05Z</time>
      </trkpt>
      <trkpt lat="41.3536740" lon="-8.7457440">
        <ele>-14.0</ele>
        <time>2021-03-20T12:28:06Z</time>
      </trkpt>
      <trkpt lat="41.3536610" lon="-8.7458030">
        <ele>-14.0</ele>
        <time>2021-03-20T12:28:07Z</time>
      </trkpt>
      <trkpt lat="41.3536180" lon="-8.7458330">
        <ele>-14.2</ele>
        <time>2021-03-20T12:28:08Z</time>
      </trkpt>
      <trkpt lat="41.3536150" lon="-8.7458880">
        <ele>-14.4</ele>
        <time>2021-03-20T12:28:09Z</time>
      </trkpt>
      <trkpt lat="41.3535720" lon="-8.7459230">
        <ele>-14.4</ele>
        <time>2021-03-20T12:28:10Z</time>
      </trkpt>
      <trkpt lat="41.3535950" lon="-8.7460080">
        <ele>-14.4</ele>
        <time>2021-03-20T12:28:11Z</time>
      </trkpt>
      <trkpt lat="41.3535500" lon="-8.7460450">
        <ele>-14.4</ele>
        <time>2021-03-20T12:28:12Z</time>
      </trkpt>
      <trkpt lat="41.3535590" lon="-8.7460730">
        <ele>-14.2</ele>
        <time>2021-03-20T12:28:13Z</time>
      </trkpt>
      <trkpt lat="41.3535450" lon="-8.7461210">
        <ele>-14.0</ele>
        <time>2021-03-20T12:28:14Z</time>
      </trkpt>
      <trkpt lat="41.3535380" lon="-8.7461360">
        <ele>-14.0</ele>
        <time>2021-03-20T12:28:15Z</time>
      </trkpt>
      <trkpt lat="41.3535200" lon="-8.7461600">
        <ele>-14.0</ele>
        <time>2021-03-20T12:28:16Z</time>
      </trkpt>
      <trkpt lat="41.3535220" lon="-8.7461850">
        <ele>-14.0</ele>
        <time>2021-03-20T12:28:17Z</time>
      </trkpt>
      <trkpt lat="41.3535430" lon="-8.7462150">
        <ele>-14.2</ele>
        <time>2021-03-20T12:28:18Z</time>
      </trkpt>
      <trkpt lat="41.3535590" lon="-8.7462300">
        <ele>-14.2</ele>
        <time>2021-03-20T12:28:19Z</time>
      </trkpt>
      <trkpt lat="41.3535770" lon="-8.7462470">
        <ele>-14.2</ele>
        <time>2021-03-20T12:28:20Z</time>
      </trkpt>
      <trkpt lat="41.3536030" lon="-8.7462610">
        <ele>-14.2</ele>
        <time>2021-03-20T12:28:21Z</time>
      </trkpt>
      <trkpt lat="41.3536090" lon="-8.7462770">
        <ele>-14.0</ele>
        <time>2021-03-20T12:28:22Z</time>
      </trkpt>
      <trkpt lat="41.3536280" lon="-8.7462930">
        <ele>-14.0</ele>
        <time>2021-03-20T12:28:23Z</time>
      </trkpt>
      <trkpt lat="41.3537040" lon="-8.7463150">
        <ele>-14.0</ele>
        <time>2021-03-20T12:28:24Z</time>
      </trkpt>
      <trkpt lat="41.3536850" lon="-8.7463460">
        <ele>-14.0</ele>
        <time>2021-03-20T12:28:25Z</time>
      </trkpt>
      <trkpt lat="41.3537460" lon="-8.7463920">
        <ele>-14.0</ele>
        <time>2021-03-20T12:28:26Z</time>
      </trkpt>
      <trkpt lat="41.3537500" lon="-8.7464110">
        <ele>-14.2</ele>
        <time>2021-03-20T12:28:27Z</time>
      </trkpt>
      <trkpt lat="41.3537900" lon="-8.7464410">
        <ele>-13.8</ele>
        <time>2021-03-20T12:28:28Z</time>
      </trkpt>
      <trkpt lat="41.3538160" lon="-8.7464580">
        <ele>-13.6</ele>
        <time>2021-03-20T12:28:29Z</time>
      </trkpt>
      <trkpt lat="41.3538540" lon="-8.7464790">
        <ele>-13.6</ele>
        <time>2021-03-20T12:28:30Z</time>
      </trkpt>
      <trkpt lat="41.3538770" lon="-8.7464910">
        <ele>-13.6</ele>
        <time>2021-03-20T12:28:31Z</time>
      </trkpt>
      <trkpt lat="41.3539020" lon="-8.7465480">
        <ele>-13.4</ele>
        <time>2021-03-20T12:28:32Z</time>
      </trkpt>
      <trkpt lat="41.3538950" lon="-8.7465310">
        <ele>-13.4</ele>
        <time>2021-03-20T12:28:33Z</time>
      </trkpt>
      <trkpt lat="41.3539470" lon="-8.7465860">
        <ele>-13.4</ele>
        <time>2021-03-20T12:28:34Z</time>
      </trkpt>
      <trkpt lat="41.3539540" lon="-8.7465980">
        <ele>-13.6</ele>
        <time>2021-03-20T12:28:35Z</time>
      </trkpt>
      <trkpt lat="41.3539760" lon="-8.7466110">
        <ele>-13.8</ele>
        <time>2021-03-20T12:28:36Z</time>
      </trkpt>
      <trkpt lat="41.3539970" lon="-8.7466580">
        <ele>-13.8</ele>
        <time>2021-03-20T12:28:37Z</time>
      </trkpt>
      <trkpt lat="41.3539950" lon="-8.7466730">
        <ele>-13.6</ele>
        <time>2021-03-20T12:28:38Z</time>
      </trkpt>
      <trkpt lat="41.3540060" lon="-8.7467020">
        <ele>-13.6</ele>
        <time>2021-03-20T12:28:39Z</time>
      </trkpt>
      <trkpt lat="41.3540150" lon="-8.7467130">
        <ele>-13.4</ele>
        <time>2021-03-20T12:28:40Z</time>
      </trkpt>
      <trkpt lat="41.3540140" lon="-8.7467720">
        <ele>-13.4</ele>
        <time>2021-03-20T12:28:41Z</time>
      </trkpt>
      <trkpt lat="41.3540050" lon="-8.7467930">
        <ele>-13.6</ele>
        <time>2021-03-20T12:28:42Z</time>
      </trkpt>
      <trkpt lat="41.3540040" lon="-8.7468150">
        <ele>-13.6</ele>
        <time>2021-03-20T12:28:43Z</time>
      </trkpt>
      <trkpt lat="41.3539830" lon="-8.7468600">
        <ele>-13.6</ele>
        <time>2021-03-20T12:28:44Z</time>
      </trkpt>
      <trkpt lat="41.3540040" lon="-8.7468970">
        <ele>-13.8</ele>
        <time>2021-03-20T12:28:45Z</time>
      </trkpt>
      <trkpt lat="41.3540100" lon="-8.7469850">
        <ele>-14.0</ele>
        <time>2021-03-20T12:28:46Z</time>
      </trkpt>
      <trkpt lat="41.3540170" lon="-8.7469940">
        <ele>-13.8</ele>
        <time>2021-03-20T12:28:47Z</time>
      </trkpt>
      <trkpt lat="41.3540750" lon="-8.7470580">
        <ele>-13.6</ele>
        <time>2021-03-20T12:28:48Z</time>
      </trkpt>
      <trkpt lat="41.3541770" lon="-8.7471170">
        <ele>-13.6</ele>
        <time>2021-03-20T12:28:49Z</time>
      </trkpt>
      <trkpt lat="41.3541980" lon="-8.7471830">
        <ele>-13.6</ele>
        <time>2021-03-20T12:28:50Z</time>
      </trkpt>
      <trkpt lat="41.3542070" lon="-8.7472660">
        <ele>-13.6</ele>
        <time>2021-03-20T12:28:51Z</time>
      </trkpt>
      <trkpt lat="41.3541870" lon="-8.7473390">
        <ele>-13.4</ele>
        <time>2021-03-20T12:28:52Z</time>
      </trkpt>
      <trkpt lat="41.3542200" lon="-8.7474030">
        <ele>-13.0</ele>
        <time>2021-03-20T12:28:53Z</time>
      </trkpt>
      <trkpt lat="41.3541540" lon="-8.7475030">
        <ele>-12.8</ele>
        <time>2021-03-20T12:28:54Z</time>
      </trkpt>
      <trkpt lat="41.3541340" lon="-8.7475190">
        <ele>-12.6</ele>
        <time>2021-03-20T12:28:55Z</time>
      </trkpt>
      <trkpt lat="41.3541340" lon="-8.7475360">
        <ele>-12.6</ele>
        <time>2021-03-20T12:28:56Z</time>
      </trkpt>
      <trkpt lat="41.3541200" lon="-8.7476170">
        <ele>-12.4</ele>
        <time>2021-03-20T12:28:57Z</time>
      </trkpt>
      <trkpt lat="41.3541070" lon="-8.7476600">
        <ele>-12.4</ele>
        <time>2021-03-20T12:28:58Z</time>
      </trkpt>
      <trkpt lat="41.3541060" lon="-8.7476850">
        <ele>-12.2</ele>
        <time>2021-03-20T12:28:59Z</time>
      </trkpt>
      <trkpt lat="41.3541170" lon="-8.7477160">
        <ele>-12.2</ele>
        <time>2021-03-20T12:29:00Z</time>
      </trkpt>
      <trkpt lat="41.3541700" lon="-8.7477530">
        <ele>-12.4</ele>
        <time>2021-03-20T12:29:01Z</time>
      </trkpt>
      <trkpt lat="41.3541710" lon="-8.7478370">
        <ele>-12.2</ele>
        <time>2021-03-20T12:29:02Z</time>
      </trkpt>
      <trkpt lat="41.3542100" lon="-8.7478640">
        <ele>-12.2</ele>
        <time>2021-03-20T12:29:03Z</time>
      </trkpt>
      <trkpt lat="41.3541780" lon="-8.7479220">
        <ele>-12.2</ele>
        <time>2021-03-20T12:29:04Z</time>
      </trkpt>
      <trkpt lat="41.3541880" lon="-8.7479450">
        <ele>-12.4</ele>
        <time>2021-03-20T12:29:05Z</time>
      </trkpt>
      <trkpt lat="41.3541940" lon="-8.7479880">
        <ele>-12.4</ele>
        <time>2021-03-20T12:29:06Z</time>
      </trkpt>
      <trkpt lat="41.3542160" lon="-8.7480180">
        <ele>-12.2</ele>
        <time>2021-03-20T12:29:07Z</time>
      </trkpt>
      <trkpt lat="41.3542180" lon="-8.7480390">
        <ele>-11.8</ele>
        <time>2021-03-20T12:29:08Z</time>
      </trkpt>
      <trkpt lat="41.3542150" lon="-8.7480560">
        <ele>-11.2</ele>
        <time>2021-03-20T12:29:09Z</time>
      </trkpt>
      <trkpt lat="41.3542120" lon="-8.7480960">
        <ele>-11.2</ele>
        <time>2021-03-20T12:29:10Z</time>
      </trkpt>
      <trkpt lat="41.3542020" lon="-8.7481350">
        <ele>-11.2</ele>
        <time>2021-03-20T12:29:11Z</time>
      </trkpt>
      <trkpt lat="41.3541970" lon="-8.7481630">
        <ele>-11.2</ele>
        <time>2021-03-20T12:29:12Z</time>
      </trkpt>
      <trkpt lat="41.3541890" lon="-8.7481930">
        <ele>-11.2</ele>
        <time>2021-03-20T12:29:13Z</time>
      </trkpt>
      <trkpt lat="41.3541650" lon="-8.7482230">
        <ele>-11.2</ele>
        <time>2021-03-20T12:29:14Z</time>
      </trkpt>
      <trkpt lat="41.3541590" lon="-8.7482420">
        <ele>-11.0</ele>
        <time>2021-03-20T12:29:15Z</time>
      </trkpt>
      <trkpt lat="41.3541540" lon="-8.7482760">
        <ele>-11.0</ele>
        <time>2021-03-20T12:29:16Z</time>
      </trkpt>
      <trkpt lat="41.3541350" lon="-8.7483050">
        <ele>-11.0</ele>
        <time>2021-03-20T12:29:17Z</time>
      </trkpt>
      <trkpt lat="41.3541220" lon="-8.7483720">
        <ele>-11.0</ele>
        <time>2021-03-20T12:29:18Z</time>
      </trkpt>
      <trkpt lat="41.3541030" lon="-8.7483930">
        <ele>-11.0</ele>
        <time>2021-03-20T12:29:19Z</time>
      </trkpt>
      <trkpt lat="41.3540870" lon="-8.7484300">
        <ele>-10.8</ele>
        <time>2021-03-20T12:29:20Z</time>
      </trkpt>
      <trkpt lat="41.3541160" lon="-8.7484580">
        <ele>-10.8</ele>
        <time>2021-03-20T12:29:21Z</time>
      </trkpt>
      <trkpt lat="41.3541100" lon="-8.7484900">
        <ele>-10.8</ele>
        <time>2021-03-20T12:29:22Z</time>
      </trkpt>
      <trkpt lat="41.3541060" lon="-8.7485070">
        <ele>-10.8</ele>
        <time>2021-03-20T12:29:23Z</time>
      </trkpt>
      <trkpt lat="41.3541220" lon="-8.7485160">
        <ele>-11.0</ele>
        <time>2021-03-20T12:29:24Z</time>
      </trkpt>
      <trkpt lat="41.3541300" lon="-8.7485410">
        <ele>-10.8</ele>
        <time>2021-03-20T12:29:25Z</time>
      </trkpt>
      <trkpt lat="41.3541270" lon="-8.7485420">
        <ele>-10.8</ele>
        <time>2021-03-20T12:29:26Z</time>
      </trkpt>
      <trkpt lat="41.3541160" lon="-8.7485490">
        <ele>-10.8</ele>
        <time>2021-03-20T12:29:27Z</time>
      </trkpt>
      <trkpt lat="41.3541170" lon="-8.7485550">
        <ele>-10.8</ele>
        <time>2021-03-20T12:29:28Z</time>
      </trkpt>
      <trkpt lat="41.3541190" lon="-8.7485610">
        <ele>-10.8</ele>
        <time>2021-03-20T12:29:29Z</time>
      </trkpt>
      <trkpt lat="41.3541290" lon="-8.7485750">
        <ele>-10.8</ele>
        <time>2021-03-20T12:29:30Z</time>
      </trkpt>
      <trkpt lat="41.3541360" lon="-8.7485880">
        <ele>-10.8</ele>
        <time>2021-03-20T12:29:31Z</time>
      </trkpt>
      <trkpt lat="41.3541340" lon="-8.7485860">
        <ele>-10.8</ele>
        <time>2021-03-20T12:29:32Z</time>
      </trkpt>
      <trkpt lat="41.3541330" lon="-8.7485890">
        <ele>-10.8</ele>
        <time>2021-03-20T12:29:33Z</time>
      </trkpt>
      <trkpt lat="41.3541340" lon="-8.7485900">
        <ele>-10.8</ele>
        <time>2021-03-20T12:29:34Z</time>
      </trkpt>
      <trkpt lat="41.3541380" lon="-8.7486100">
        <ele>-10.8</ele>
        <time>2021-03-20T12:29:35Z</time>
      </trkpt>
      <trkpt lat="41.3541610" lon="-8.7486400">
        <ele>-10.8</ele>
        <time>2021-03-20T12:29:36Z</time>
      </trkpt>
      <trkpt lat="41.3542610" lon="-8.7487550">
        <ele>-11.2</ele>
        <time>2021-03-20T12:32:54Z</time>
      </trkpt>
      <trkpt lat="41.3542960" lon="-8.7487750">
        <ele>-11.0</ele>
        <time>2021-03-20T12:32:55Z</time>
      </trkpt>
      <trkpt lat="41.3542990" lon="-8.7487770">
        <ele>-10.8</ele>
        <time>2021-03-20T12:32:56Z</time>
      </trkpt>
      <trkpt lat="41.3542950" lon="-8.7487760">
        <ele>-10.6</ele>
        <time>2021-03-20T12:32:58Z</time>
      </trkpt>
      <trkpt lat="41.3542900" lon="-8.7487780">
        <ele>-10.6</ele>
        <time>2021-03-20T12:33:00Z</time>
      </trkpt>
      <trkpt lat="41.3542920" lon="-8.7487720">
        <ele>-11.0</ele>
        <time>2021-03-20T12:33:02Z</time>
      </trkpt>
      <trkpt lat="41.3542960" lon="-8.7487600">
        <ele>-10.8</ele>
        <time>2021-03-20T12:33:03Z</time>
      </trkpt>
      <trkpt lat="41.3542880" lon="-8.7487560">
        <ele>-10.6</ele>
        <time>2021-03-20T12:33:04Z</time>
      </trkpt>
      <trkpt lat="41.3542780" lon="-8.7487510">
        <ele>-10.6</ele>
        <time>2021-03-20T12:33:06Z</time>
      </trkpt>
      <trkpt lat="41.3542680" lon="-8.7487420">
        <ele>-10.6</ele>
        <time>2021-03-20T12:33:07Z</time>
      </trkpt>
      <trkpt lat="41.3542520" lon="-8.7487370">
        <ele>-10.6</ele>
        <time>2021-03-20T12:33:09Z</time>
      </trkpt>
      <trkpt lat="41.3542370" lon="-8.7487310">
        <ele>-10.4</ele>
        <time>2021-03-20T12:33:11Z</time>
      </trkpt>
      <trkpt lat="41.3542300" lon="-8.7487260">
        <ele>-10.2</ele>
        <time>2021-03-20T12:33:12Z</time>
      </trkpt>
      <trkpt lat="41.3542270" lon="-8.7487240">
        <ele>-10.4</ele>
        <time>2021-03-20T12:33:13Z</time>
      </trkpt>
      <trkpt lat="41.3542180" lon="-8.7487250">
        <ele>-10.2</ele>
        <time>2021-03-20T12:33:14Z</time>
      </trkpt>
      <trkpt lat="41.3542150" lon="-8.7487270">
        <ele>-10.2</ele>
        <time>2021-03-20T12:33:15Z</time>
      </trkpt>
      <trkpt lat="41.3542150" lon="-8.7487270">
        <ele>-11.6</ele>
        <time>2021-03-20T13:03:06Z</time>
      </trkpt>
      <trkpt lat="41.3542150" lon="-8.7487270">
        <ele>-11.8</ele>
        <time>2021-03-20T13:03:07Z</time>
      </trkpt>
      <trkpt lat="41.3542150" lon="-8.7487270">
        <ele>-12.0</ele>
        <time>2021-03-20T13:03:08Z</time>
      </trkpt>
      <trkpt lat="41.3542150" lon="-8.7487270">
        <ele>-11.8</ele>
        <time>2021-03-20T13:03:09Z</time>
      </trkpt>
      <trkpt lat="41.3543230" lon="-8.7487600">
        <ele>-11.8</ele>
        <time>2021-03-20T13:03:10Z</time>
      </trkpt>
      <trkpt lat="41.3543260" lon="-8.7487270">
        <ele>-11.8</ele>
        <time>2021-03-20T13:03:11Z</time>
      </trkpt>
      <trkpt lat="41.3543430" lon="-8.7487210">
        <ele>-11.8</ele>
        <time>2021-03-20T13:03:12Z</time>
      </trkpt>
      <trkpt lat="41.3543390" lon="-8.7487000">
        <ele>-11.8</ele>
        <time>2021-03-20T13:03:13Z</time>
      </trkpt>
      <trkpt lat="41.3543380" lon="-8.7487080">
        <ele>-11.6</ele>
        <time>2021-03-20T13:03:14Z</time>
      </trkpt>
      <trkpt lat="41.3543450" lon="-8.7487110">
        <ele>-11.6</ele>
        <time>2021-03-20T13:03:15Z</time>
      </trkpt>
      <trkpt lat="41.3543380" lon="-8.7487080">
        <ele>-11.8</ele>
        <time>2021-03-20T13:03:16Z</time>
      </trkpt>
      <trkpt lat="41.3543380" lon="-8.7487090">
        <ele>-11.8</ele>
        <time>2021-03-20T13:03:17Z</time>
      </trkpt>
      <trkpt lat="41.3543400" lon="-8.7487150">
        <ele>-11.8</ele>
        <time>2021-03-20T13:03:18Z</time>
      </trkpt>
      <trkpt lat="41.3543420" lon="-8.7487280">
        <ele>-11.8</ele>
        <time>2021-03-20T13:03:19Z</time>
      </trkpt>
      <trkpt lat="41.3543380" lon="-8.7487260">
        <ele>-11.8</ele>
        <time>2021-03-20T13:03:20Z</time>
      </trkpt>
      <trkpt lat="41.3543270" lon="-8.7487220">
        <ele>-12.0</ele>
        <time>2021-03-20T13:03:21Z</time>
      </trkpt>
      <trkpt lat="41.3543150" lon="-8.7487210">
        <ele>-12.0</ele>
        <time>2021-03-20T13:03:22Z</time>
      </trkpt>
      <trkpt lat="41.3543170" lon="-8.7487070">
        <ele>-11.8</ele>
        <time>2021-03-20T13:03:23Z</time>
      </trkpt>
      <trkpt lat="41.3543160" lon="-8.7487100">
        <ele>-12.0</ele>
        <time>2021-03-20T13:03:24Z</time>
      </trkpt>
      <trkpt lat="41.3543040" lon="-8.7487020">
        <ele>-12.0</ele>
        <time>2021-03-20T13:03:25Z</time>
      </trkpt>
      <trkpt lat="41.3543030" lon="-8.7486990">
        <ele>-12.0</ele>
        <time>2021-03-20T13:03:26Z</time>
      </trkpt>
      <trkpt lat="41.3543020" lon="-8.7487020">
        <ele>-12.0</ele>
        <time>2021-03-20T13:03:27Z</time>
      </trkpt>
      <trkpt lat="41.3543130" lon="-8.7487090">
        <ele>-12.0</ele>
        <time>2021-03-20T13:03:28Z</time>
      </trkpt>
      <trkpt lat="41.3543180" lon="-8.7487140">
        <ele>-12.0</ele>
        <time>2021-03-20T13:03:29Z</time>
      </trkpt>
      <trkpt lat="41.3543200" lon="-8.7487140">
        <ele>-12.0</ele>
        <time>2021-03-20T13:03:30Z</time>
      </trkpt>
      <trkpt lat="41.3543350" lon="-8.7487320">
        <ele>-12.0</ele>
        <time>2021-03-20T13:03:31Z</time>
      </trkpt>
      <trkpt lat="41.3543480" lon="-8.7487380">
        <ele>-12.0</ele>
        <time>2021-03-20T13:03:32Z</time>
      </trkpt>
      <trkpt lat="41.3543510" lon="-8.7487270">
        <ele>-12.0</ele>
        <time>2021-03-20T13:03:33Z</time>
      </trkpt>
      <trkpt lat="41.3543560" lon="-8.7487260">
        <ele>-12.0</ele>
        <time>2021-03-20T13:03:34Z</time>
      </trkpt>
      <trkpt lat="41.3543600" lon="-8.7487310">
        <ele>-12.0</ele>
        <time>2021-03-20T13:03:35Z</time>
      </trkpt>
      <trkpt lat="41.3543660" lon="-8.7487340">
        <ele>-12.0</ele>
        <time>2021-03-20T13:03:36Z</time>
      </trkpt>
      <trkpt lat="41.3543720" lon="-8.7487350">
        <ele>-12.0</ele>
        <time>2021-03-20T13:03:37Z</time>
      </trkpt>
      <trkpt lat="41.3525829836726" lon="-8.74531030654907">
        <ele>8</ele>
        <time>2021-03-20T01:06:38</time>
      </trkpt>
      <trkpt lat="41.3526034355164" lon="-8.74526303261518">
        <ele>8.6</ele>
        <time>2021-03-20T01:06:39</time>
      </trkpt>
      <trkpt lat="41.3526229653508" lon="-8.74521768651903">
        <ele>8</ele>
        <time>2021-03-20T01:06:40</time>
      </trkpt>
      <trkpt lat="41.3526507094502" lon="-8.74518206343055">
        <ele>8</ele>
        <time>2021-03-20T01:06:41</time>
      </trkpt>
      <trkpt lat="41.3526721671224" lon="-8.74514702707529">
        <ele>7.6</ele>
        <time>2021-03-20T01:06:42</time>
      </trkpt>
      <trkpt lat="41.352692451328" lon="-8.74509078450501">
        <ele>7.6</ele>
        <time>2021-03-20T01:06:43</time>
      </trkpt>
      <trkpt lat="41.3526947144419" lon="-8.74502825550735">
        <ele>7.6</ele>
        <time>2021-03-20T01:06:44</time>
      </trkpt>
      <trkpt lat="41.3527091313154" lon="-8.74496270902455">
        <ele>7.6</ele>
        <time>2021-03-20T01:06:45</time>
      </trkpt>
      <trkpt lat="41.3527097180486" lon="-8.7448788061738">
        <ele>7.6</ele>
        <time>2021-03-20T01:06:46</time>
      </trkpt>
      <trkpt lat="41.3527136575431" lon="-8.74482532963157">
        <ele>7.8</ele>
        <time>2021-03-20T01:06:47</time>
      </trkpt>
      <trkpt lat="41.3527401443571" lon="-8.74476699158549">
        <ele>8</ele>
        <time>2021-03-20T01:06:48</time>
      </trkpt>
      <trkpt lat="41.3527642842382" lon="-8.74469205737114">
        <ele>7.8</ele>
        <time>2021-03-20T01:06:49</time>
      </trkpt>
      <trkpt lat="41.3527972251177" lon="-8.74459482729435">
        <ele>7.6</ele>
        <time>2021-03-20T01:06:50</time>
      </trkpt>
      <trkpt lat="41.3528176769614" lon="-8.74453581869602">
        <ele>7.8</ele>
        <time>2021-03-20T01:06:51</time>
      </trkpt>
      <trkpt lat="41.3528442475945" lon="-8.74447328969836">
        <ele>7.6</ele>
        <time>2021-03-20T01:06:52</time>
      </trkpt>
      <trkpt lat="41.3528677169234" lon="-8.74440900050104">
        <ele>7.8</ele>
        <time>2021-03-20T01:06:53</time>
      </trkpt>
      <trkpt lat="41.3528854865581" lon="-8.74436122365296">
        <ele>8.2</ele>
        <time>2021-03-20T01:06:54</time>
      </trkpt>
      <trkpt lat="41.3528866600245" lon="-8.74428930692375">
        <ele>8.6</ele>
        <time>2021-03-20T01:06:55</time>
      </trkpt>
      <trkpt lat="41.352909123525" lon="-8.74421671964228">
        <ele>8.8</ele>
        <time>2021-03-20T01:06:56</time>
      </trkpt>
      <trkpt lat="41.3529337663204" lon="-8.74416131526232">
        <ele>8.8</ele>
        <time>2021-03-20T01:06:57</time>
      </trkpt>
      <trkpt lat="41.3529524579644" lon="-8.74410632997751">
        <ele>9</ele>
        <time>2021-03-20T01:06:58</time>
      </trkpt>
      <trkpt lat="41.3529711496085" lon="-8.7440603133291">
        <ele>8.8</ele>
        <time>2021-03-20T01:06:59</time>
      </trkpt>
      <trkpt lat="41.3529951218516" lon="-8.74398068524897">
        <ele>8.8</ele>
        <time>2021-03-20T01:07:00</time>
      </trkpt>
      <trkpt lat="41.3530217763036" lon="-8.74391279183328">
        <ele>8.8</ele>
        <time>2021-03-20T01:07:01</time>
      </trkpt>
      <trkpt lat="41.3530524540693" lon="-8.74385504052043">
        <ele>9.2</ele>
        <time>2021-03-20T01:07:02</time>
      </trkpt>
      <trkpt lat="41.3530721515417" lon="-8.74378169886768">
        <ele>9.2</ele>
        <time>2021-03-20T01:07:03</time>
      </trkpt>
      <trkpt lat="41.3530916813761" lon="-8.7437233608216">
        <ele>9.2</ele>
        <time>2021-03-20T01:07:04</time>
      </trkpt>
      <trkpt lat="41.3531202636659" lon="-8.74365923926234">
        <ele>9.2</ele>
        <time>2021-03-20T01:07:05</time>
      </trkpt>
      <trkpt lat="41.3531532883644" lon="-8.74358556233346">
        <ele>9.2</ele>
        <time>2021-03-20T01:07:06</time>
      </trkpt>
      <trkpt lat="41.3531872350723" lon="-8.74351004138589">
        <ele>9.4</ele>
        <time>2021-03-20T01:07:07</time>
      </trkpt>
      <trkpt lat="41.3532117102295" lon="-8.74344524927437">
        <ele>9.6</ele>
        <time>2021-03-20T01:07:08</time>
      </trkpt>
      <trkpt lat="41.3532377779484" lon="-8.74337433837354">
        <ele>9.4</ele>
        <time>2021-03-20T01:07:09</time>
      </trkpt>
      <trkpt lat="41.3532434776425" lon="-8.74331901781261">
        <ele>9.4</ele>
        <time>2021-03-20T01:07:10</time>
      </trkpt>
      <trkpt lat="41.353247417137" lon="-8.74324073083699">
        <ele>9</ele>
        <time>2021-03-20T01:07:11</time>
      </trkpt>
      <trkpt lat="41.353263258934" lon="-8.74315749853849">
        <ele>8.6</ele>
        <time>2021-03-20T01:07:12</time>
      </trkpt>
      <trkpt lat="41.3532847166061" lon="-8.74307049438357">
        <ele>8.4</ele>
        <time>2021-03-20T01:07:13</time>
      </trkpt>
      <trkpt lat="41.3532861415297" lon="-8.74298005364835">
        <ele>8.4</ele>
        <time>2021-03-20T01:07:14</time>
      </trkpt>
      <trkpt lat="41.3532867282629" lon="-8.74291182495654">
        <ele>8.4</ele>
        <time>2021-03-20T01:07:15</time>
      </trkpt>
      <trkpt lat="41.3532964512706" lon="-8.74282884411514">
        <ele>8.2</ele>
        <time>2021-03-20T01:07:16</time>
      </trkpt>
      <trkpt lat="41.3532981276512" lon="-8.74273370951414">
        <ele>8</ele>
        <time>2021-03-20T01:07:17</time>
      </trkpt>
      <trkpt lat="41.3532979600132" lon="-8.74262331984937">
        <ele>7.6</ele>
        <time>2021-03-20T01:07:18</time>
      </trkpt>
      <trkpt lat="41.3533031567931" lon="-8.74254419468343">
        <ele>7.4</ele>
        <time>2021-03-20T01:07:19</time>
      </trkpt>
      <trkpt lat="41.3533076830208" lon="-8.74244629405439">
        <ele>7.2</ele>
        <time>2021-03-20T01:07:20</time>
      </trkpt>
      <trkpt lat="41.3533102814108" lon="-8.74234235845506">
        <ele>7</ele>
        <time>2021-03-20T01:07:21</time>
      </trkpt>
      <trkpt lat="41.3533096108586" lon="-8.74225904233754">
        <ele>6.6</ele>
        <time>2021-03-20T01:07:22</time>
      </trkpt>
      <trkpt lat="41.3533141370863" lon="-8.74215175397694">
        <ele>6.6</ele>
        <time>2021-03-20T01:07:23</time>
      </trkpt>
      <trkpt lat="41.3533201720566" lon="-8.74205184169114">
        <ele>6.6</ele>
        <time>2021-03-20T01:07:24</time>
      </trkpt>
      <trkpt lat="41.3533156458288" lon="-8.74193583615124">
        <ele>6.4</ele>
        <time>2021-03-20T01:07:25</time>
      </trkpt>
      <trkpt lat="41.3533171545714" lon="-8.74183575622737">
        <ele>5.8</ele>
        <time>2021-03-20T01:07:26</time>
      </trkpt>
      <trkpt lat="41.3533219322562" lon="-8.74175721779466">
        <ele>5.6</ele>
        <time>2021-03-20T01:07:27</time>
      </trkpt>
      <trkpt lat="41.3533211778849" lon="-8.7416442297399">
        <ele>5.8</ele>
        <time>2021-03-20T01:07:28</time>
      </trkpt>
      <trkpt lat="41.3533156458288" lon="-8.74154783785343">
        <ele>6</ele>
        <time>2021-03-20T01:07:29</time>
      </trkpt>
      <trkpt lat="41.3533084373921" lon="-8.74147248454392">
        <ele>5.8</ele>
        <time>2021-03-20T01:07:30</time>
      </trkpt>
      <trkpt lat="41.3533074315637" lon="-8.74141305685043">
        <ele>5.4</ele>
        <time>2021-03-20T01:07:31</time>
      </trkpt>
      <trkpt lat="41.3533132150769" lon="-8.74134734272957">
        <ele>5.2</ele>
        <time>2021-03-20T01:07:32</time>
      </trkpt>
      <trkpt lat="41.3533199205995" lon="-8.74128632247448">
        <ele>5</ele>
        <time>2021-03-20T01:07:33</time>
      </trkpt>
      <trkpt lat="41.3533301465213" lon="-8.74121826142073">
        <ele>5</ele>
        <time>2021-03-20T01:07:34</time>
      </trkpt>
      <trkpt lat="41.3533321581781" lon="-8.74117249622941">
        <ele>5</ele>
        <time>2021-03-20T01:07:35</time>
      </trkpt>
      <trkpt lat="41.3533339183778" lon="-8.74112103134394">
        <ele>4.8</ele>
        <time>2021-03-20T01:07:36</time>
      </trkpt>
      <trkpt lat="41.3533219322562" lon="-8.74107719399035">
        <ele>4.8</ele>
        <time>2021-03-20T01:07:37</time>
      </trkpt>
      <trkpt lat="41.3533164840192" lon="-8.74103570356965">
        <ele>4.6</ele>
        <time>2021-03-20T01:07:38</time>
      </trkpt>
      <trkpt lat="41.3533139694482" lon="-8.74101483263075">
        <ele>4.4</ele>
        <time>2021-03-20T01:07:39</time>
      </trkpt>
      <trkpt lat="41.3533077668399" lon="-8.74098968692124">
        <ele>4.2</ele>
        <time>2021-03-20T01:07:40</time>
      </trkpt>
      <trkpt lat="41.3533052522689" lon="-8.74097200110555">
        <ele>4.2</ele>
        <time>2021-03-20T01:07:41</time>
      </trkpt>
      <trkpt lat="41.3532847166061" lon="-8.74092556536198">
        <ele>4.2</ele>
        <time>2021-03-20T01:07:42</time>
      </trkpt>
      <trkpt lat="41.3532754126936" lon="-8.74088432639837">
        <ele>4</ele>
        <time>2021-03-20T01:07:43</time>
      </trkpt>
      <trkpt lat="41.3532729819417" lon="-8.74084082432091">
        <ele>4</ele>
        <time>2021-03-20T01:07:44</time>
      </trkpt>
      <trkpt lat="41.3532637618482" lon="-8.74079254455864">
        <ele>4</ele>
        <time>2021-03-20T01:07:45</time>
      </trkpt>
      <trkpt lat="41.3532567210496" lon="-8.74073856510222">
        <ele>4</ele>
        <time>2021-03-20T01:07:46</time>
      </trkpt>
      <trkpt lat="41.3532382808626" lon="-8.74069003388286">
        <ele>4.2</ele>
        <time>2021-03-20T01:07:47</time>
      </trkpt>
      <trkpt lat="41.3532136380672" lon="-8.74066170305014">
        <ele>4.6</ele>
        <time>2021-03-20T01:07:48</time>
      </trkpt>
      <trkpt lat="41.35318916291" lon="-8.74061283655465">
        <ele>4.6</ele>
        <time>2021-03-20T01:07:49</time>
      </trkpt>
      <trkpt lat="41.3531572278589" lon="-8.74059422872961">
        <ele>4.2</ele>
        <time>2021-03-20T01:07:50</time>
      </trkpt>
      <trkpt lat="41.3531117141247" lon="-8.740552989766">
        <ele>4.2</ele>
        <time>2021-03-20T01:07:51</time>
      </trkpt>
      <trkpt lat="41.353067625314" lon="-8.74051778577268">
        <ele>4.4</ele>
        <time>2021-03-20T01:07:52</time>
      </trkpt>
      <trkpt lat="41.3530367799103" lon="-8.7405030336231">
        <ele>4.4</ele>
        <time>2021-03-20T01:07:53</time>
      </trkpt>
      <trkpt lat="41.3529894221574" lon="-8.74047880992293">
        <ele>4.2</ele>
        <time>2021-03-20T01:07:54</time>
      </trkpt>
      <trkpt lat="41.352948686108" lon="-8.7404583580792">
        <ele>4.2</ele>
        <time>2021-03-20T01:07:55</time>
      </trkpt>
      <trkpt lat="41.3529019150883" lon="-8.74042935669422">
        <ele>4.4</ele>
        <time>2021-03-20T01:07:56</time>
      </trkpt>
      <trkpt lat="41.3528511207551" lon="-8.74039649963379">
        <ele>4.2</ele>
        <time>2021-03-20T01:07:57</time>
      </trkpt>
      <trkpt lat="41.3527826406062" lon="-8.74033749103546">
        <ele>4.4</ele>
        <time>2021-03-20T01:07:58</time>
      </trkpt>
      <trkpt lat="41.3527287449688" lon="-8.74031075276434">
        <ele>4.4</ele>
        <time>2021-03-20T01:07:59</time>
      </trkpt>
      <trkpt lat="41.3526834826916" lon="-8.74027873389423">
        <ele>4.4</ele>
        <time>2021-03-20T01:08:00</time>
      </trkpt>
      <trkpt lat="41.3526349514723" lon="-8.74025484547019">
        <ele>4.8</ele>
        <time>2021-03-20T01:08:01</time>
      </trkpt>
      <trkpt lat="41.3525702431798" lon="-8.7402025423944">
        <ele>5</ele>
        <time>2021-03-20T01:08:02</time>
      </trkpt>
      <trkpt lat="41.352515257895" lon="-8.74016918241978">
        <ele>4.8</ele>
        <time>2021-03-20T01:08:03</time>
      </trkpt>
      <trkpt lat="41.3524616137147" lon="-8.74015199951828">
        <ele>4.8</ele>
        <time>2021-03-20T01:08:04</time>
      </trkpt>
      <trkpt lat="41.3524022698402" lon="-8.74011126346886">
        <ele>4.4</ele>
        <time>2021-03-20T01:08:05</time>
      </trkpt>
      <trkpt lat="41.3523654732853" lon="-8.74008025042713">
        <ele>4.4</ele>
        <time>2021-03-20T01:08:06</time>
      </trkpt>
      <trkpt lat="41.3523266650736" lon="-8.74005552381277">
        <ele>4.6</ele>
        <time>2021-03-20T01:08:07</time>
      </trkpt>
      <trkpt lat="41.3523074705154" lon="-8.74005703255534">
        <ele>4.4</ele>
        <time>2021-03-20T01:08:08</time>
      </trkpt>
      <trkpt lat="41.3522814866155" lon="-8.74003280885518">
        <ele>4.6</ele>
        <time>2021-03-20T01:08:09</time>
      </trkpt>
      <trkpt lat="41.3522564247251" lon="-8.74001830816269">
        <ele>4.6</ele>
        <time>2021-03-20T01:08:10</time>
      </trkpt>
      <trkpt lat="41.3522214721888" lon="-8.74001051299274">
        <ele>4.8</ele>
        <time>2021-03-20T01:08:11</time>
      </trkpt>
      <trkpt lat="41.3521939795464" lon="-8.73999802395701">
        <ele>4.8</ele>
        <time>2021-03-20T01:08:12</time>
      </trkpt>
      <trkpt lat="41.3521592784673" lon="-8.73998804949224">
        <ele>5</ele>
        <time>2021-03-20T01:08:13</time>
      </trkpt>
      <trkpt lat="41.352118961513" lon="-8.73996550217271">
        <ele>5</ele>
        <time>2021-03-20T01:08:14</time>
      </trkpt>
      <trkpt lat="41.3520797342062" lon="-8.73994706198573">
        <ele>5</ele>
        <time>2021-03-20T01:08:15</time>
      </trkpt>
      <trkpt lat="41.3520366512239" lon="-8.739916048944">
        <ele>5.2</ele>
        <time>2021-03-20T01:08:16</time>
      </trkpt>
      <trkpt lat="41.3519986812025" lon="-8.73988218605518">
        <ele>5.6</ele>
        <time>2021-03-20T01:08:17</time>
      </trkpt>
      <trkpt lat="41.3519586157054" lon="-8.73985829763114">
        <ele>5.8</ele>
        <time>2021-03-20T01:08:18</time>
      </trkpt>
      <trkpt lat="41.3519077375531" lon="-8.73982326127589">
        <ele>6</ele>
        <time>2021-03-20T01:08:19</time>
      </trkpt>
      <trkpt lat="41.3518556859344" lon="-8.73978881165385">
        <ele>6</ele>
        <time>2021-03-20T01:08:20</time>
      </trkpt>
      <trkpt lat="41.3518141116947" lon="-8.73976525850594">
        <ele>5.8</ele>
        <time>2021-03-20T01:08:21</time>
      </trkpt>
      <trkpt lat="41.3517596293241" lon="-8.73972955159843">
        <ele>5.8</ele>
        <time>2021-03-20T01:08:22</time>
      </trkpt>
      <trkpt lat="41.3517079129815" lon="-8.73971085995436">
        <ele>6</ele>
        <time>2021-03-20T01:08:23</time>
      </trkpt>
      <trkpt lat="41.3516449648887" lon="-8.73967154882848">
        <ele>6</ele>
        <time>2021-03-20T01:08:24</time>
      </trkpt>
      <trkpt lat="41.3516019657254" lon="-8.73965000733733">
        <ele>5.8</ele>
        <time>2021-03-20T01:08:25</time>
      </trkpt>
      <trkpt lat="41.3515421189368" lon="-8.73962628655136">
        <ele>6</ele>
        <time>2021-03-20T01:08:26</time>
      </trkpt>
      <trkpt lat="41.3514837808907" lon="-8.73959384858608">
        <ele>6</ele>
        <time>2021-03-20T01:08:27</time>
      </trkpt>
      <trkpt lat="41.3514277059585" lon="-8.73956602066755">
        <ele>6</ele>
        <time>2021-03-20T01:08:28</time>
      </trkpt>
      <trkpt lat="41.3513714633882" lon="-8.73953819274902">
        <ele>6</ele>
        <time>2021-03-20T01:08:29</time>
      </trkpt>
      <trkpt lat="41.3513187412173" lon="-8.73951480723918">
        <ele>6.2</ele>
        <time>2021-03-20T01:08:30</time>
      </trkpt>
      <trkpt lat="41.3512574695051" lon="-8.73948873952031">
        <ele>6</ele>
        <time>2021-03-20T01:08:31</time>
      </trkpt>
      <trkpt lat="41.3512051664293" lon="-8.73946032486856">
        <ele>5.6</ele>
        <time>2021-03-20T01:08:32</time>
      </trkpt>
      <trkpt lat="41.3511459063739" lon="-8.73942730017006">
        <ele>5.2</ele>
        <time>2021-03-20T01:08:33</time>
      </trkpt>
      <trkpt lat="41.3510997220874" lon="-8.73940274119377">
        <ele>5.2</ele>
        <time>2021-03-20T01:08:34</time>
      </trkpt>
      <trkpt lat="41.3510364387184" lon="-8.73937021940946">
        <ele>5.4</ele>
        <time>2021-03-20T01:08:35</time>
      </trkpt>
      <trkpt lat="41.3509661145508" lon="-8.73932822607458">
        <ele>5.4</ele>
        <time>2021-03-20T01:08:36</time>
      </trkpt>
      <trkpt lat="41.350897718221" lon="-8.739292351529">
        <ele>5.4</ele>
        <time>2021-03-20T01:08:37</time>
      </trkpt>
      <trkpt lat="41.3508411403745" lon="-8.73925924301148">
        <ele>5.6</ele>
        <time>2021-03-20T01:08:38</time>
      </trkpt>
      <trkpt lat="41.3507706485689" lon="-8.73922781087458">
        <ele>5.8</ele>
        <time>2021-03-20T01:08:39</time>
      </trkpt>
      <trkpt lat="41.3506979774684" lon="-8.73918883502484">
        <ele>6</ele>
        <time>2021-03-20T01:08:40</time>
      </trkpt>
      <trkpt lat="41.3506444171071" lon="-8.73916771262884">
        <ele>6.2</ele>
        <time>2021-03-20T01:08:41</time>
      </trkpt>
      <trkpt lat="41.3505731709302" lon="-8.73912521637976">
        <ele>6.6</ele>
        <time>2021-03-20T01:08:42</time>
      </trkpt>
      <trkpt lat="41.3505042716861" lon="-8.73909135349095">
        <ele>7.2</ele>
        <time>2021-03-20T01:08:43</time>
      </trkpt>
      <trkpt lat="41.3504489511251" lon="-8.7390647828579">
        <ele>7.4</ele>
        <time>2021-03-20T01:08:44</time>
      </trkpt>
      <trkpt lat="41.3503884337842" lon="-8.73903653584421">
        <ele>7.6</ele>
        <time>2021-03-20T01:08:45</time>
      </trkpt>
      <trkpt lat="41.3503184448928" lon="-8.73900049366057">
        <ele>8.2</ele>
        <time>2021-03-20T01:08:46</time>
      </trkpt>
      <trkpt lat="41.3502527307719" lon="-8.7389675527811">
        <ele>8.4</ele>
        <time>2021-03-20T01:08:47</time>
      </trkpt>
      <trkpt lat="41.3501959852874" lon="-8.73893729411066">
        <ele>8.8</ele>
        <time>2021-03-20T01:08:48</time>
      </trkpt>
      <trkpt lat="41.3501476217061" lon="-8.73890829272568">
        <ele>9.4</ele>
        <time>2021-03-20T01:08:49</time>
      </trkpt>
      <trkpt lat="41.3500702567399" lon="-8.73886370100081">
        <ele>9.4</ele>
        <time>2021-03-20T01:08:50</time>
      </trkpt>
      <trkpt lat="41.350007141009" lon="-8.73883025720716">
        <ele>9.8</ele>
        <time>2021-03-20T01:08:51</time>
      </trkpt>
      <trkpt lat="41.34995165281" lon="-8.73881005682051">
        <ele>10.8</ele>
        <time>2021-03-20T01:08:52</time>
      </trkpt>
      <trkpt lat="41.3498861063272" lon="-8.73877569101751">
        <ele>11</ele>
        <time>2021-03-20T01:08:53</time>
      </trkpt>
      <trkpt lat="41.3498146086931" lon="-8.73872883617878">
        <ele>11</ele>
        <time>2021-03-20T01:08:54</time>
      </trkpt>
      <trkpt lat="41.3497599586844" lon="-8.73869899660349">
        <ele>11</ele>
        <time>2021-03-20T01:08:55</time>
      </trkpt>
      <trkpt lat="41.3497151155025" lon="-8.73866831883788">
        <ele>11.4</ele>
        <time>2021-03-20T01:08:56</time>
      </trkpt>
      <trkpt lat="41.3496457133442" lon="-8.73863185755908">
        <ele>11.8</ele>
        <time>2021-03-20T01:08:57</time>
      </trkpt>
      <trkpt lat="41.3495809212327" lon="-8.73859179206192">
        <ele>12</ele>
        <time>2021-03-20T01:08:58</time>
      </trkpt>
      <trkpt lat="41.349518224597" lon="-8.73855784535408">
        <ele>12.4</ele>
        <time>2021-03-20T01:08:59</time>
      </trkpt>
      <trkpt lat="41.3494619820267" lon="-8.73852876015008">
        <ele>12.8</ele>
        <time>2021-03-20T01:09:00</time>
      </trkpt>
      <trkpt lat="41.349402135238" lon="-8.73849271796644">
        <ele>13.2</ele>
        <time>2021-03-20T01:09:01</time>
      </trkpt>
      <trkpt lat="41.3493426237255" lon="-8.73846254311502">
        <ele>13.2</ele>
        <time>2021-03-20T01:09:02</time>
      </trkpt>
      <trkpt lat="41.349280430004" lon="-8.73842675238848">
        <ele>13.6</ele>
        <time>2021-03-20T01:09:03</time>
      </trkpt>
      <trkpt lat="41.3492279592901" lon="-8.7383998464793">
        <ele>13.8</ele>
        <time>2021-03-20T01:09:04</time>
      </trkpt>
      <trkpt lat="41.3491577189416" lon="-8.7383562605828">
        <ele>13.8</ele>
        <time>2021-03-20T01:09:05</time>
      </trkpt>
      <trkpt lat="41.3491122052074" lon="-8.73834678903222">
        <ele>13.8</ele>
        <time>2021-03-20T01:09:06</time>
      </trkpt>
      <trkpt lat="41.3490471616387" lon="-8.73830873519182">
        <ele>14.2</ele>
        <time>2021-03-20T01:09:07</time>
      </trkpt>
      <trkpt lat="41.348994942382" lon="-8.73828534968197">
        <ele>14.4</ele>
        <time>2021-03-20T01:09:08</time>
      </trkpt>
      <trkpt lat="41.3489391189069" lon="-8.73826498165727">
        <ele>14.4</ele>
        <time>2021-03-20T01:09:09</time>
      </trkpt>
      <trkpt lat="41.3488871511072" lon="-8.73823774047196">
        <ele>14.4</ele>
        <time>2021-03-20T01:09:10</time>
      </trkpt>
      <trkpt lat="41.348828477785" lon="-8.73822005465627">
        <ele>14.2</ele>
        <time>2021-03-20T01:09:11</time>
      </trkpt>
      <trkpt lat="41.3487707264721" lon="-8.73820530250669">
        <ele>14</ele>
        <time>2021-03-20T01:09:12</time>
      </trkpt>
      <trkpt lat="41.348733259365" lon="-8.73820253647864">
        <ele>14.2</ele>
        <time>2021-03-20T01:09:13</time>
      </trkpt>
      <trkpt lat="41.3486719038338" lon="-8.73819775879383">
        <ele>14.2</ele>
        <time>2021-03-20T01:09:14</time>
      </trkpt>
      <trkpt lat="41.348609123379" lon="-8.73819373548031">
        <ele>14.4</ele>
        <time>2021-03-20T01:09:15</time>
      </trkpt>
      <trkpt lat="41.3485292438418" lon="-8.73821536079049">
        <ele>14.6</ele>
        <time>2021-03-20T01:09:16</time>
      </trkpt>
      <trkpt lat="41.3484646193683" lon="-8.73823505826294">
        <ele>14.4</ele>
        <time>2021-03-20T01:09:17</time>
      </trkpt>
      <trkpt lat="41.3484209496528" lon="-8.7382492236793">
        <ele>14.4</ele>
        <time>2021-03-20T01:09:18</time>
      </trkpt>
      <trkpt lat="41.3483572471887" lon="-8.73827051371336">
        <ele>14.2</ele>
        <time>2021-03-20T01:09:19</time>
      </trkpt>
      <trkpt lat="41.3482696563005" lon="-8.7382928095758">
        <ele>14.2</ele>
        <time>2021-03-20T01:09:20</time>
      </trkpt>
      <trkpt lat="41.3482162635773" lon="-8.73829825781286">
        <ele>14.6</ele>
        <time>2021-03-20T01:09:21</time>
      </trkpt>
      <trkpt lat="41.3481524772942" lon="-8.73831720091402">
        <ele>14.8</ele>
        <time>2021-03-20T01:09:22</time>
      </trkpt>
      <trkpt lat="41.3480687420815" lon="-8.73834033496678">
        <ele>15</ele>
        <time>2021-03-20T01:09:23</time>
      </trkpt>
      <trkpt lat="41.3480032794178" lon="-8.738356763497">
        <ele>14.8</ele>
        <time>2021-03-20T01:09:24</time>
      </trkpt>
      <trkpt lat="41.3479566760361" lon="-8.7383705098182">
        <ele>15</ele>
        <time>2021-03-20T01:09:25</time>
      </trkpt>
      <trkpt lat="41.3478856813163" lon="-8.73838132247329">
        <ele>15</ele>
        <time>2021-03-20T01:09:26</time>
      </trkpt>
      <trkpt lat="41.3478022813797" lon="-8.73840420506894">
        <ele>15.2</ele>
        <time>2021-03-20T01:09:27</time>
      </trkpt>
      <trkpt lat="41.3477531634271" lon="-8.73841024003923">
        <ele>15.2</ele>
        <time>2021-03-20T01:09:28</time>
      </trkpt>
      <trkpt lat="41.3476796541363" lon="-8.73841132968664">
        <ele>15.4</ele>
        <time>2021-03-20T01:09:29</time>
      </trkpt>
      <trkpt lat="41.347594158724" lon="-8.7384117487818">
        <ele>15.4</ele>
        <time>2021-03-20T01:09:30</time>
      </trkpt>
      <trkpt lat="41.3475277740508" lon="-8.73841535300016">
        <ele>15.6</ele>
        <time>2021-03-20T01:09:31</time>
      </trkpt>
      <trkpt lat="41.3474802486598" lon="-8.73841602355242">
        <ele>16.2</ele>
        <time>2021-03-20T01:09:32</time>
      </trkpt>
      <trkpt lat="41.3474129419774" lon="-8.73840923421085">
        <ele>16.2</ele>
        <time>2021-03-20T01:09:33</time>
      </trkpt>
      <trkpt lat="41.3473456352949" lon="-8.73839280568063">
        <ele>16.6</ele>
        <time>2021-03-20T01:09:34</time>
      </trkpt>
      <trkpt lat="41.347279753536" lon="-8.73837679624558">
        <ele>16.8</ele>
        <time>2021-03-20T01:09:35</time>
      </trkpt>
      <trkpt lat="41.3472129497677" lon="-8.73835785314441">
        <ele>17.2</ele>
        <time>2021-03-20T01:09:36</time>
      </trkpt>
      <trkpt lat="41.3471631612629" lon="-8.73834284953773">
        <ele>17.2</ele>
        <time>2021-03-20T01:09:37</time>
      </trkpt>
      <trkpt lat="41.3471017219126" lon="-8.73831979930401">
        <ele>17.4</ele>
        <time>2021-03-20T01:09:38</time>
      </trkpt>
      <trkpt lat="41.3470401149243" lon="-8.73828920535743">
        <ele>17.8</ele>
        <time>2021-03-20T01:09:39</time>
      </trkpt>
      <trkpt lat="41.3469576369971" lon="-8.73824721202254">
        <ele>18.6</ele>
        <time>2021-03-20T01:09:40</time>
      </trkpt>
      <trkpt lat="41.34691497311" lon="-8.73822684399784">
        <ele>19</ele>
        <time>2021-03-20T01:09:41</time>
      </trkpt>
      <trkpt lat="41.3468509353697" lon="-8.73820220120251">
        <ele>19.4</ele>
        <time>2021-03-20T01:09:42</time>
      </trkpt>
      <trkpt lat="41.3468024041504" lon="-8.73818334192038">
        <ele>19.6</ele>
        <time>2021-03-20T01:09:43</time>
      </trkpt>
      <trkpt lat="41.3467329181731" lon="-8.73815601691604">
        <ele>20</ele>
        <time>2021-03-20T01:09:44</time>
      </trkpt>
      <trkpt lat="41.3466889131814" lon="-8.73814025893807">
        <ele>20.4</ele>
        <time>2021-03-20T01:09:45</time>
      </trkpt>
      <trkpt lat="41.3466311618686" lon="-8.73811804689467">
        <ele>20.8</ele>
        <time>2021-03-20T01:09:46</time>
      </trkpt>
      <trkpt lat="41.34655572474" lon="-8.73808619566262">
        <ele>21</ele>
        <time>2021-03-20T01:09:47</time>
      </trkpt>
      <trkpt lat="41.3464937824756" lon="-8.7380613014102">
        <ele>21.2</ele>
        <time>2021-03-20T01:09:48</time>
      </trkpt>
      <trkpt lat="41.3464606739581" lon="-8.7380507402122">
        <ele>21.2</ele>
        <time>2021-03-20T01:09:49</time>
      </trkpt>
      <trkpt lat="41.3463947083801" lon="-8.7380229961127">
        <ele>21.4</ele>
        <time>2021-03-20T01:09:50</time>
      </trkpt>
      <trkpt lat="41.3463501166552" lon="-8.73801620677114">
        <ele>21.8</ele>
        <time>2021-03-20T01:09:51</time>
      </trkpt>
      <trkpt lat="41.3463087100536" lon="-8.73799935914576">
        <ele>22</ele>
        <time>2021-03-20T01:09:52</time>
      </trkpt>
      <trkpt lat="41.3462711591274" lon="-8.73798971995711">
        <ele>22.2</ele>
        <time>2021-03-20T01:09:53</time>
      </trkpt>
      <trkpt lat="41.3462029304355" lon="-8.73795870691538">
        <ele>22.6</ele>
        <time>2021-03-20T01:09:54</time>
      </trkpt>
      <trkpt lat="41.3461489509791" lon="-8.73794755898416">
        <ele>22.6</ele>
        <time>2021-03-20T01:09:55</time>
      </trkpt>
      <trkpt lat="41.346093127504" lon="-8.73790925368667">
        <ele>22.8</ele>
        <time>2021-03-20T01:09:56</time>
      </trkpt>
      <trkpt lat="41.3460422493517" lon="-8.73787606135011">
        <ele>23.4</ele>
        <time>2021-03-20T01:09:57</time>
      </trkpt>
      <trkpt lat="41.3459721766412" lon="-8.73783473856747">
        <ele>23.8</ele>
        <time>2021-03-20T01:09:58</time>
      </trkpt>
      <trkpt lat="41.3459154311568" lon="-8.73779450543225">
        <ele>23.8</ele>
        <time>2021-03-20T01:09:59</time>
      </trkpt>
      <trkpt lat="41.3458812329918" lon="-8.73777723871171">
        <ele>23.8</ele>
        <time>2021-03-20T01:10:00</time>
      </trkpt>
      <trkpt lat="41.3458091486245" lon="-8.73773348517716">
        <ele>24</ele>
        <time>2021-03-20T01:10:01</time>
      </trkpt>
      <trkpt lat="41.3457606174052" lon="-8.73769853264094">
        <ele>24.2</ele>
        <time>2021-03-20T01:10:02</time>
      </trkpt>
      <trkpt lat="41.3457176182419" lon="-8.73765922151506">
        <ele>24.4</ele>
        <time>2021-03-20T01:10:03</time>
      </trkpt>
      <trkpt lat="41.3456599507481" lon="-8.73761186376214">
        <ele>24.6</ele>
        <time>2021-03-20T01:10:04</time>
      </trkpt>
      <trkpt lat="41.3455932307988" lon="-8.73757028952241">
        <ele>24.8</ele>
        <time>2021-03-20T01:10:05</time>
      </trkpt>
      <trkpt lat="41.3455386646092" lon="-8.73752502724528">
        <ele>24.8</ele>
        <time>2021-03-20T01:10:06</time>
      </trkpt>
      <trkpt lat="41.3454994373024" lon="-8.7374997138977">
        <ele>24.8</ele>
        <time>2021-03-20T01:10:07</time>
      </trkpt>
      <trkpt lat="41.3454307056963" lon="-8.73744984157384">
        <ele>25</ele>
        <time>2021-03-20T01:10:08</time>
      </trkpt>
      <trkpt lat="41.3453917298466" lon="-8.73742268420756">
        <ele>24.8</ele>
        <time>2021-03-20T01:10:09</time>
      </trkpt>
      <trkpt lat="41.345337247476" lon="-8.73738228343427">
        <ele>24.8</ele>
        <time>2021-03-20T01:10:10</time>
      </trkpt>
      <trkpt lat="41.3452676776797" lon="-8.73733433894813">
        <ele>24.8</ele>
        <time>2021-03-20T01:10:11</time>
      </trkpt>
      <trkpt lat="41.3452274445444" lon="-8.73730584047735">
        <ele>24.4</ele>
        <time>2021-03-20T01:10:12</time>
      </trkpt>
      <trkpt lat="41.3451712857932" lon="-8.73726552352309">
        <ele>24.4</ele>
        <time>2021-03-20T01:10:13</time>
      </trkpt>
      <trkpt lat="41.3451016321778" lon="-8.73721254989505">
        <ele>24.4</ele>
        <time>2021-03-20T01:10:14</time>
      </trkpt>
      <trkpt lat="41.3450462277979" lon="-8.73716929927468">
        <ele>24.2</ele>
        <time>2021-03-20T01:10:15</time>
      </trkpt>
      <trkpt lat="41.3449999596924" lon="-8.73713585548103">
        <ele>24.4</ele>
        <time>2021-03-20T01:10:16</time>
      </trkpt>
      <trkpt lat="41.3449379336089" lon="-8.73708698898554">
        <ele>24</ele>
        <time>2021-03-20T01:10:17</time>
      </trkpt>
      <trkpt lat="41.3448596466333" lon="-8.7370284833014">
        <ele>23.8</ele>
        <time>2021-03-20T01:10:18</time>
      </trkpt>
      <trkpt lat="41.3448017276824" lon="-8.73698548413813">
        <ele>23.8</ele>
        <time>2021-03-20T01:10:19</time>
      </trkpt>
      <trkpt lat="41.3447561301291" lon="-8.73696025460958">
        <ele>24</ele>
        <time>2021-03-20T01:10:20</time>
      </trkpt>
      <trkpt lat="41.3446749094874" lon="-8.73690200038254">
        <ele>23.8</ele>
        <time>2021-03-20T01:10:21</time>
      </trkpt>
      <trkpt lat="41.34461062029" lon="-8.73686025850475">
        <ele>23.4</ele>
        <time>2021-03-20T01:10:22</time>
      </trkpt>
      <trkpt lat="41.3445442356169" lon="-8.73681533150375">
        <ele>23.4</ele>
        <time>2021-03-20T01:10:23</time>
      </trkpt>
      <trkpt lat="41.3444952853024" lon="-8.73678624629974">
        <ele>23.4</ele>
        <time>2021-03-20T01:10:24</time>
      </trkpt>
      <trkpt lat="41.3444216083735" lon="-8.73673754744232">
        <ele>23.4</ele>
        <time>2021-03-20T01:10:25</time>
      </trkpt>
      <trkpt lat="41.3443564809859" lon="-8.7366915307939">
        <ele>23.4</ele>
        <time>2021-03-20T01:10:26</time>
      </trkpt>
      <trkpt lat="41.3443116378039" lon="-8.7366640381515">
        <ele>23.4</ele>
        <time>2021-03-20T01:10:27</time>
      </trkpt>
      <trkpt lat="41.3442332670093" lon="-8.73661953024566">
        <ele>23.2</ele>
        <time>2021-03-20T01:10:28</time>
      </trkpt>
      <trkpt lat="41.3441656250507" lon="-8.73657586053014">
        <ele>23.2</ele>
        <time>2021-03-20T01:10:29</time>
      </trkpt>
      <trkpt lat="41.3440997432917" lon="-8.73653604649007">
        <ele>23</ele>
        <time>2021-03-20T01:10:30</time>
      </trkpt>
      <trkpt lat="41.3440409023315" lon="-8.73650805093348">
        <ele>23</ele>
        <time>2021-03-20T01:10:31</time>
      </trkpt>
      <trkpt lat="41.3439707458019" lon="-8.73645884916186">
        <ele>23</ele>
        <time>2021-03-20T01:10:32</time>
      </trkpt>
      <trkpt lat="41.3438981585205" lon="-8.73641023412347">
        <ele>23</ele>
        <time>2021-03-20T01:10:33</time>
      </trkpt>
      <trkpt lat="41.3438324443996" lon="-8.73636472038925">
        <ele>23.2</ele>
        <time>2021-03-20T01:10:34</time>
      </trkpt>
      <trkpt lat="41.3437639642507" lon="-8.73631903901696">
        <ele>23</ele>
        <time>2021-03-20T01:10:35</time>
      </trkpt>
      <trkpt lat="41.3436914607882" lon="-8.73627469874918">
        <ele>23</ele>
        <time>2021-03-20T01:10:36</time>
      </trkpt>
      <trkpt lat="41.3436357211322" lon="-8.73624075204134">
        <ele>23</ele>
        <time>2021-03-20T01:10:37</time>
      </trkpt>
      <trkpt lat="41.3435386586934" lon="-8.73617503792048">
        <ele>22.8</ele>
        <time>2021-03-20T01:10:38</time>
      </trkpt>
      <trkpt lat="41.3434617128223" lon="-8.73612273484468">
        <ele>22.6</ele>
        <time>2021-03-20T01:10:39</time>
      </trkpt>
      <trkpt lat="41.3433846831322" lon="-8.73606372624636">
        <ele>22.6</ele>
        <time>2021-03-20T01:10:40</time>
      </trkpt>
      <trkpt lat="41.3432991039008" lon="-8.73599801212549">
        <ele>22.6</ele>
        <time>2021-03-20T01:10:41</time>
      </trkpt>
      <trkpt lat="41.3432227447629" lon="-8.73593933880329">
        <ele>22.8</ele>
        <time>2021-03-20T01:10:42</time>
      </trkpt>
      <trkpt lat="41.3431431166828" lon="-8.73587882146239">
        <ele>22.8</ele>
        <time>2021-03-20T01:10:43</time>
      </trkpt>
      <trkpt lat="41.3430871255696" lon="-8.73583322390914">
        <ele>22.8</ele>
        <time>2021-03-20T01:10:44</time>
      </trkpt>
      <trkpt lat="41.3429832737893" lon="-8.73574253171682">
        <ele>22.6</ele>
        <time>2021-03-20T01:10:45</time>
      </trkpt>
      <trkpt lat="41.342905741185" lon="-8.73566499911249">
        <ele>22.6</ele>
        <time>2021-03-20T01:10:46</time>
      </trkpt>
      <trkpt lat="41.3428281247616" lon="-8.73558771796524">
        <ele>22.6</ele>
        <time>2021-03-20T01:10:47</time>
      </trkpt>
      <trkpt lat="41.3427784200758" lon="-8.73552904464304">
        <ele>22.6</ele>
        <time>2021-03-20T01:10:48</time>
      </trkpt>
      <trkpt lat="41.3426976185292" lon="-8.73542485758662">
        <ele>22.8</ele>
        <time>2021-03-20T01:10:49</time>
      </trkpt>
      <trkpt lat="41.3426479138434" lon="-8.73535470105708">
        <ele>23</ele>
        <time>2021-03-20T01:10:50</time>
      </trkpt>
      <trkpt lat="41.3425816129893" lon="-8.73526250012219">
        <ele>23</ele>
        <time>2021-03-20T01:10:51</time>
      </trkpt>
      <trkpt lat="41.3425116240978" lon="-8.73516225256026">
        <ele>22.8</ele>
        <time>2021-03-20T01:10:52</time>
      </trkpt>
      <trkpt lat="41.3424391206354" lon="-8.73506627976894">
        <ele>22.8</ele>
        <time>2021-03-20T01:10:53</time>
      </trkpt>
      <trkpt lat="41.3423864822835" lon="-8.73499168083072">
        <ele>22.6</ele>
        <time>2021-03-20T01:10:54</time>
      </trkpt>
      <trkpt lat="41.3423061836511" lon="-8.73487902805209">
        <ele>23</ele>
        <time>2021-03-20T01:10:55</time>
      </trkpt>
      <trkpt lat="41.3422376196831" lon="-8.73478800058365">
        <ele>23</ele>
        <time>2021-03-20T01:10:56</time>
      </trkpt>
      <trkpt lat="41.3421854842454" lon="-8.73471432365477">
        <ele>23.2</ele>
        <time>2021-03-20T01:10:57</time>
      </trkpt>
      <trkpt lat="41.3421264756471" lon="-8.73463972471654">
        <ele>22.8</ele>
        <time>2021-03-20T01:10:58</time>
      </trkpt>
      <trkpt lat="41.3420482724905" lon="-8.73453729785979">
        <ele>22.6</ele>
        <time>2021-03-20T01:10:59</time>
      </trkpt>
      <trkpt lat="41.3419647049159" lon="-8.73447300866246">
        <ele>22.8</ele>
        <time>2021-03-20T01:11:00</time>
      </trkpt>
      <trkpt lat="41.341890944168" lon="-8.73440628871322">
        <ele>23</ele>
        <time>2021-03-20T01:11:01</time>
      </trkpt>
      <trkpt lat="41.3418274093419" lon="-8.7343274988234">
        <ele>23.2</ele>
        <time>2021-03-20T01:11:02</time>
      </trkpt>
      <trkpt lat="41.3417794648558" lon="-8.73423504643142">
        <ele>23.2</ele>
        <time>2021-03-20T01:11:03</time>
      </trkpt>
      <trkpt lat="41.3417289219797" lon="-8.73412574641406">
        <ele>23.2</ele>
        <time>2021-03-20T01:11:04</time>
      </trkpt>
      <trkpt lat="41.34168474935" lon="-8.73403622768819">
        <ele>23.2</ele>
        <time>2021-03-20T01:11:05</time>
      </trkpt>
      <trkpt lat="41.3416209630668" lon="-8.73390354216099">
        <ele>23.2</ele>
        <time>2021-03-20T01:11:06</time>
      </trkpt>
      <trkpt lat="41.3415682408959" lon="-8.73381234705448">
        <ele>23.2</ele>
        <time>2021-03-20T01:11:07</time>
      </trkpt>
      <trkpt lat="41.3415229786187" lon="-8.73372601345181">
        <ele>23.2</ele>
        <time>2021-03-20T01:11:08</time>
      </trkpt>
      <trkpt lat="41.3414651434869" lon="-8.73362802900374">
        <ele>23.2</ele>
        <time>2021-03-20T01:11:09</time>
      </trkpt>
      <trkpt lat="41.3414114154875" lon="-8.73353398405016">
        <ele>23</ele>
        <time>2021-03-20T01:11:10</time>
      </trkpt>
      <trkpt lat="41.3413567654788" lon="-8.73343549668789">
        <ele>23</ele>
        <time>2021-03-20T01:11:11</time>
      </trkpt>
      <trkpt lat="41.341309659183" lon="-8.73334949836135">
        <ele>22.8</ele>
        <time>2021-03-20T01:11:12</time>
      </trkpt>
      <trkpt lat="41.3412422686815" lon="-8.73323173262179">
        <ele>23</ele>
        <time>2021-03-20T01:11:13</time>
      </trkpt>
      <trkpt lat="41.3411851041019" lon="-8.73313148505986">
        <ele>23</ele>
        <time>2021-03-20T01:11:14</time>
      </trkpt>
      <trkpt lat="41.3411436136812" lon="-8.73306149616838">
        <ele>22.8</ele>
        <time>2021-03-20T01:11:15</time>
      </trkpt>
      <trkpt lat="41.3410757202655" lon="-8.73295085504651">
        <ele>22.8</ele>
        <time>2021-03-20T01:11:16</time>
      </trkpt>
      <trkpt lat="41.3410192262381" lon="-8.73285982757807">
        <ele>22.6</ele>
        <time>2021-03-20T01:11:17</time>
      </trkpt>
      <trkpt lat="41.340976729989" lon="-8.73279302380979">
        <ele>22.6</ele>
        <time>2021-03-20T01:11:18</time>
      </trkpt>
      <trkpt lat="41.340899951756" lon="-8.73268255032599">
        <ele>22.6</ele>
        <time>2021-03-20T01:11:19</time>
      </trkpt>
      <trkpt lat="41.3408356625587" lon="-8.73258699662984">
        <ele>22.6</ele>
        <time>2021-03-20T01:11:20</time>
      </trkpt>
      <trkpt lat="41.3407789170742" lon="-8.73248934745789">
        <ele>22.6</ele>
        <time>2021-03-20T01:11:21</time>
      </trkpt>
      <trkpt lat="41.3407391030341" lon="-8.73243469744921">
        <ele>22.4</ele>
        <time>2021-03-20T01:11:22</time>
      </trkpt>
      <trkpt lat="41.3406712096184" lon="-8.73232481069863">
        <ele>22.2</ele>
        <time>2021-03-20T01:11:23</time>
      </trkpt>
      <trkpt lat="41.3406247738749" lon="-8.73225473798811">
        <ele>22.2</ele>
        <time>2021-03-20T01:11:24</time>
      </trkpt>
      <trkpt lat="41.3405744824558" lon="-8.73217536136508">
        <ele>22</ele>
        <time>2021-03-20T01:11:25</time>
      </trkpt>
      <trkpt lat="41.340508935973" lon="-8.73206606134772">
        <ele>21.8</ele>
        <time>2021-03-20T01:11:26</time>
      </trkpt>
      <trkpt lat="41.3404566328973" lon="-8.73197184875608">
        <ele>21.6</ele>
        <time>2021-03-20T01:11:27</time>
      </trkpt>
      <trkpt lat="41.3404096104205" lon="-8.73189230449498">
        <ele>21.4</ele>
        <time>2021-03-20T01:11:28</time>
      </trkpt>
      <trkpt lat="41.3403464108706" lon="-8.73177202418446">
        <ele>21.4</ele>
        <time>2021-03-20T01:11:29</time>
      </trkpt>
      <trkpt lat="41.340302741155" lon="-8.73169424012303">
        <ele>21.2</ele>
        <time>2021-03-20T01:11:30</time>
      </trkpt>
      <trkpt lat="41.340241972357" lon="-8.7315976805985">
        <ele>20.8</ele>
        <time>2021-03-20T01:11:31</time>
      </trkpt>
      <trkpt lat="41.3401846401393" lon="-8.73149625957012">
        <ele>20.8</ele>
        <time>2021-03-20T01:11:32</time>
      </trkpt>
      <trkpt lat="41.3401159085333" lon="-8.73137002810836">
        <ele>20.8</ele>
        <time>2021-03-20T01:11:33</time>
      </trkpt>
      <trkpt lat="41.340075256303" lon="-8.73129023239016">
        <ele>20.8</ele>
        <time>2021-03-20T01:11:34</time>
      </trkpt>
      <trkpt lat="41.3400187622756" lon="-8.73118780553341">
        <ele>20.8</ele>
        <time>2021-03-20T01:11:35</time>
      </trkpt>
      <trkpt lat="41.3399534672499" lon="-8.73106031678617">
        <ele>20.6</ele>
        <time>2021-03-20T01:11:36</time>
      </trkpt>
      <trkpt lat="41.3399162515998" lon="-8.73098521493375">
        <ele>20.4</ele>
        <time>2021-03-20T01:11:37</time>
      </trkpt>
      <trkpt lat="41.3398594222963" lon="-8.7308825366199">
        <ele>20.2</ele>
        <time>2021-03-20T01:11:38</time>
      </trkpt>
      <trkpt lat="41.339803179726" lon="-8.73077751137316">
        <ele>20</ele>
        <time>2021-03-20T01:11:39</time>
      </trkpt>
      <trkpt lat="41.3397349510342" lon="-8.73064851388335">
        <ele>19.8</ele>
        <time>2021-03-20T01:11:40</time>
      </trkpt>
      <trkpt lat="41.3396926224232" lon="-8.73057131655514">
        <ele>19.6</ele>
        <time>2021-03-20T01:11:41</time>
      </trkpt>
      <trkpt lat="41.3396456837654" lon="-8.73049621470272">
        <ele>19.4</ele>
        <time>2021-03-20T01:11:42</time>
      </trkpt>
      <trkpt lat="41.3395744375885" lon="-8.73036906123161">
        <ele>19.4</ele>
        <time>2021-03-20T01:11:43</time>
      </trkpt>
      <trkpt lat="41.3395144231617" lon="-8.73026931658387">
        <ele>19.2</ele>
        <time>2021-03-20T01:11:44</time>
      </trkpt>
      <trkpt lat="41.3394539058208" lon="-8.73016571626067">
        <ele>19.4</ele>
        <time>2021-03-20T01:11:45</time>
      </trkpt>
      <trkpt lat="41.3393796421587" lon="-8.7300310190767">
        <ele>19.4</ele>
        <time>2021-03-20T01:11:46</time>
      </trkpt>
      <trkpt lat="41.3393152691424" lon="-8.72993001714349">
        <ele>19.2</ele>
        <time>2021-03-20T01:11:47</time>
      </trkpt>
      <trkpt lat="41.3392676599324" lon="-8.72986782342196">
        <ele>19</ele>
        <time>2021-03-20T01:11:48</time>
      </trkpt>
      <trkpt lat="41.3391839247197" lon="-8.72979783453047">
        <ele>19</ele>
        <time>2021-03-20T01:11:49</time>
      </trkpt>
      <trkpt lat="41.3390697631985" lon="-8.72971099801362">
        <ele>19</ele>
        <time>2021-03-20T01:11:50</time>
      </trkpt>
      <trkpt lat="41.3390166219324" lon="-8.72964235022664">
        <ele>18.8</ele>
        <time>2021-03-20T01:11:51</time>
      </trkpt>
      <trkpt lat="41.3389687612653" lon="-8.72953422367573">
        <ele>18.2</ele>
        <time>2021-03-20T01:11:52</time>
      </trkpt>
      <trkpt lat="41.3389356527478" lon="-8.72937521897256">
        <ele>18.2</ele>
        <time>2021-03-20T01:11:53</time>
      </trkpt>
      <trkpt lat="41.3389029633254" lon="-8.72924479655921">
        <ele>18.2</ele>
        <time>2021-03-20T01:11:54</time>
      </trkpt>
      <trkpt lat="41.338870106265" lon="-8.72915184125304">
        <ele>18.2</ele>
        <time>2021-03-20T01:11:55</time>
      </trkpt>
      <trkpt lat="41.338796261698" lon="-8.72900499030948">
        <ele>18</ele>
        <time>2021-03-20T01:11:56</time>
      </trkpt>
      <trkpt lat="41.3387317210436" lon="-8.72889149934054">
        <ele>18</ele>
        <time>2021-03-20T01:11:57</time>
      </trkpt>
      <trkpt lat="41.3386839441955" lon="-8.72880449518561">
        <ele>17.6</ele>
        <time>2021-03-20T01:11:58</time>
      </trkpt>
      <trkpt lat="41.3386206608266" lon="-8.72868672944605">
        <ele>17.6</ele>
        <time>2021-03-20T01:11:59</time>
      </trkpt>
      <trkpt lat="41.3385421223938" lon="-8.72854398563504">
        <ele>17.4</ele>
        <time>2021-03-20T01:12:00</time>
      </trkpt>
      <trkpt lat="41.3384759053588" lon="-8.72843175195158">
        <ele>17.2</ele>
        <time>2021-03-20T01:12:01</time>
      </trkpt>
      <trkpt lat="41.3384282123297" lon="-8.72834424488246">
        <ele>17.2</ele>
        <time>2021-03-20T01:12:02</time>
      </trkpt>
      <trkpt lat="41.3383584748954" lon="-8.72820979915559">
        <ele>17.2</ele>
        <time>2021-03-20T01:12:03</time>
      </trkpt>
      <trkpt lat="41.3383079320192" lon="-8.72812421992421">
        <ele>17.4</ele>
        <time>2021-03-20T01:12:04</time>
      </trkpt>
      <trkpt lat="41.3382452353835" lon="-8.7280108127743">
        <ele>17.4</ele>
        <time>2021-03-20T01:12:05</time>
      </trkpt>
      <trkpt lat="41.3381817005575" lon="-8.72789120301604">
        <ele>17.4</ele>
        <time>2021-03-20T01:12:06</time>
      </trkpt>
      <trkpt lat="41.3381049223244" lon="-8.72774728573859">
        <ele>17.2</ele>
        <time>2021-03-20T01:12:07</time>
      </trkpt>
      <trkpt lat="41.33804298006" lon="-8.72763773426414">
        <ele>17.2</ele>
        <time>2021-03-20T01:12:08</time>
      </trkpt>
      <trkpt lat="41.3380022440106" lon="-8.72756070457399">
        <ele>17</ele>
        <time>2021-03-20T01:12:09</time>
      </trkpt>
      <trkpt lat="41.3379396311939" lon="-8.72744377702474">
        <ele>17</ele>
        <time>2021-03-20T01:12:10</time>
      </trkpt>
      <trkpt lat="41.3378574047238" lon="-8.72729952447116">
        <ele>16.6</ele>
        <time>2021-03-20T01:12:11</time>
      </trkpt>
      <trkpt lat="41.3378087058663" lon="-8.72721419669688">
        <ele>16.4</ele>
        <time>2021-03-20T01:12:12</time>
      </trkpt>
      <trkpt lat="41.337731257081" lon="-8.72708268463612">
        <ele>16.4</ele>
        <time>2021-03-20T01:12:13</time>
      </trkpt>
      <trkpt lat="41.3376657105982" lon="-8.7269642483443">
        <ele>16.4</ele>
        <time>2021-03-20T01:12:14</time>
      </trkpt>
      <trkpt lat="41.3376041036099" lon="-8.72685050591826">
        <ele>16.6</ele>
        <time>2021-03-20T01:12:15</time>
      </trkpt>
      <trkpt lat="41.337556745857" lon="-8.72676827944815">
        <ele>16.6</ele>
        <time>2021-03-20T01:12:16</time>
      </trkpt>
      <trkpt lat="41.3374679815024" lon="-8.72661799192429">
        <ele>16.6</ele>
        <time>2021-03-20T01:12:17</time>
      </trkpt>
      <trkpt lat="41.3374256528914" lon="-8.72653853148222">
        <ele>16.4</ele>
        <time>2021-03-20T01:12:18</time>
      </trkpt>
      <trkpt lat="41.3373577594757" lon="-8.72641825117171">
        <ele>16.2</ele>
        <time>2021-03-20T01:12:19</time>
      </trkpt>
      <trkpt lat="41.3372752815485" lon="-8.72627072967589">
        <ele>16</ele>
        <time>2021-03-20T01:12:20</time>
      </trkpt>
      <trkpt lat="41.3372149318457" lon="-8.72616453096271">
        <ele>15.6</ele>
        <time>2021-03-20T01:12:21</time>
      </trkpt>
      <trkpt lat="41.337165646255" lon="-8.72607828117907">
        <ele>15.4</ele>
        <time>2021-03-20T01:12:22</time>
      </trkpt>
      <trkpt lat="41.3371029496193" lon="-8.72596805915236">
        <ele>15.2</ele>
        <time>2021-03-20T01:12:23</time>
      </trkpt>
      <trkpt lat="41.3370236568153" lon="-8.72582632116974">
        <ele>15.2</ele>
        <time>2021-03-20T01:12:24</time>
      </trkpt>
      <trkpt lat="41.3369754608721" lon="-8.72574225068092">
        <ele>15.2</ele>
        <time>2021-03-20T01:12:25</time>
      </trkpt>
      <trkpt lat="41.3369116745889" lon="-8.72562029398978">
        <ele>15</ele>
        <time>2021-03-20T01:12:26</time>
      </trkpt>
      <trkpt lat="41.3368302024901" lon="-8.72547620907426">
        <ele>15</ele>
        <time>2021-03-20T01:12:27</time>
      </trkpt>
      <trkpt lat="41.3367674220353" lon="-8.7253637239337">
        <ele>14.8</ele>
        <time>2021-03-20T01:12:28</time>
      </trkpt>
      <trkpt lat="41.3366971816868" lon="-8.72524168342352">
        <ele>14.6</ele>
        <time>2021-03-20T01:12:29</time>
      </trkpt>
      <trkpt lat="41.3366507459432" lon="-8.72515199705958">
        <ele>14.6</ele>
        <time>2021-03-20T01:12:30</time>
      </trkpt>
      <trkpt lat="41.3365872111172" lon="-8.7250405177474">
        <ele>14.8</ele>
        <time>2021-03-20T01:12:31</time>
      </trkpt>
      <trkpt lat="41.336523424834" lon="-8.72492585331202">
        <ele>15</ele>
        <time>2021-03-20T01:12:32</time>
      </trkpt>
      <trkpt lat="41.3364682719111" lon="-8.72482099570334">
        <ele>14.6</ele>
        <time>2021-03-20T01:12:33</time>
      </trkpt>
      <trkpt lat="41.3363836146891" lon="-8.72466802597046">
        <ele>14.6</ele>
        <time>2021-03-20T01:12:34</time>
      </trkpt>
      <trkpt lat="41.3363236002624" lon="-8.72455772012472">
        <ele>14.2</ele>
        <time>2021-03-20T01:12:35</time>
      </trkpt>
      <trkpt lat="41.3362747337669" lon="-8.72447473928332">
        <ele>14.2</ele>
        <time>2021-03-20T01:12:36</time>
      </trkpt>
      <trkpt lat="41.3362122047693" lon="-8.72435722500086">
        <ele>14.2</ele>
        <time>2021-03-20T01:12:37</time>
      </trkpt>
      <trkpt lat="41.3361271284521" lon="-8.72420752421021">
        <ele>14.4</ele>
        <time>2021-03-20T01:12:38</time>
      </trkpt>
      <trkpt lat="41.336084716022" lon="-8.72412655502558">
        <ele>14.8</ele>
        <time>2021-03-20T01:12:39</time>
      </trkpt>
      <trkpt lat="41.3359972089529" lon="-8.72398029081524">
        <ele>14.8</ele>
        <time>2021-03-20T01:12:40</time>
      </trkpt>
      <trkpt lat="41.3359321653843" lon="-8.72386269271374">
        <ele>14.6</ele>
        <time>2021-03-20T01:12:41</time>
      </trkpt>
      <trkpt lat="41.3358634337783" lon="-8.72374232858419">
        <ele>14.6</ele>
        <time>2021-03-20T01:12:42</time>
      </trkpt>
      <trkpt lat="41.3358200993389" lon="-8.72366169467568">
        <ele>15</ele>
        <time>2021-03-20T01:12:43</time>
      </trkpt>
      <trkpt lat="41.3357554748654" lon="-8.72355155646801">
        <ele>15.2</ele>
        <time>2021-03-20T01:12:44</time>
      </trkpt>
      <trkpt lat="41.3356989808381" lon="-8.72345298528671">
        <ele>15.6</ele>
        <time>2021-03-20T01:12:45</time>
      </trkpt>
      <trkpt lat="41.3356307521462" lon="-8.72334578074515">
        <ele>16</ele>
        <time>2021-03-20T01:12:46</time>
      </trkpt>
      <trkpt lat="41.3355439156294" lon="-8.72321418486536">
        <ele>16.6</ele>
        <time>2021-03-20T01:12:47</time>
      </trkpt>
      <trkpt lat="41.3354712445289" lon="-8.72312030754984">
        <ele>17</ele>
        <time>2021-03-20T01:12:48</time>
      </trkpt>
      <trkpt lat="41.3354077097028" lon="-8.72303154319525">
        <ele>17.2</ele>
        <time>2021-03-20T01:12:49</time>
      </trkpt>
      <trkpt lat="41.3353376369923" lon="-8.7229373306036">
        <ele>18</ele>
        <time>2021-03-20T01:12:50</time>
      </trkpt>
      <trkpt lat="41.335283908993" lon="-8.72286901809275">
        <ele>18.4</ele>
        <time>2021-03-20T01:12:51</time>
      </trkpt>
      <trkpt lat="41.335212662816" lon="-8.72278301976621">
        <ele>18.8</ele>
        <time>2021-03-20T01:12:52</time>
      </trkpt>
      <trkpt lat="41.3351396564394" lon="-8.7226904835552">
        <ele>19.6</ele>
        <time>2021-03-20T01:12:53</time>
      </trkpt>
      <trkpt lat="41.3350477069616" lon="-8.72257850132883">
        <ele>20.2</ele>
        <time>2021-03-20T01:12:54</time>
      </trkpt>
      <trkpt lat="41.3349662348628" lon="-8.72248722240329">
        <ele>21.4</ele>
        <time>2021-03-20T01:12:55</time>
      </trkpt>
      <trkpt lat="41.3348899595439" lon="-8.72240851633251">
        <ele>22</ele>
        <time>2021-03-20T01:12:56</time>
      </trkpt>
      <trkpt lat="41.3348172046244" lon="-8.72232821770012">
        <ele>22.4</ele>
        <time>2021-03-20T01:12:57</time>
      </trkpt>
      <trkpt lat="41.3347577769309" lon="-8.72227197512984">
        <ele>22.8</ele>
        <time>2021-03-20T01:12:58</time>
      </trkpt>
      <trkpt lat="41.3346886262298" lon="-8.72220349498093">
        <ele>23.4</ele>
        <time>2021-03-20T01:12:59</time>
      </trkpt>
      <trkpt lat="41.334609920159" lon="-8.72212923131883">
        <ele>24</ele>
        <time>2021-03-20T01:13:00</time>
      </trkpt>
      <trkpt lat="41.3345024641603" lon="-8.72202219441533">
        <ele>24.4</ele>
        <time>2021-03-20T01:13:01</time>
      </trkpt>
      <trkpt lat="41.3344297092408" lon="-8.72195773757994">
        <ele>25.2</ele>
        <time>2021-03-20T01:13:02</time>
      </trkpt>
      <trkpt lat="41.3343496620655" lon="-8.72188774868846">
        <ele>25.8</ele>
        <time>2021-03-20T01:13:03</time>
      </trkpt>
      <trkpt lat="41.3342896476388" lon="-8.7218323443085">
        <ele>26.2</ele>
        <time>2021-03-20T01:13:04</time>
      </trkpt>
      <trkpt lat="41.3342126179486" lon="-8.72177300043404">
        <ele>26.8</ele>
        <time>2021-03-20T01:13:05</time>
      </trkpt>
      <trkpt lat="41.3341246079654" lon="-8.72169848531484">
        <ele>27.2</ele>
        <time>2021-03-20T01:13:06</time>
      </trkpt>
      <trkpt lat="41.3340272102505" lon="-8.72162271291018">
        <ele>27.4</ele>
        <time>2021-03-20T01:13:07</time>
      </trkpt>
      <trkpt lat="41.3339514378458" lon="-8.72156521305442">
        <ele>27.8</ele>
        <time>2021-03-20T01:13:08</time>
      </trkpt>
      <trkpt lat="41.3338742405176" lon="-8.72150930576026">
        <ele>28</ele>
        <time>2021-03-20T01:13:09</time>
      </trkpt>
      <trkpt lat="41.3338079396635" lon="-8.7214642111212">
        <ele>28</ele>
        <time>2021-03-20T01:13:10</time>
      </trkpt>
      <trkpt lat="41.3337504398078" lon="-8.72142422944307">
        <ele>28.2</ele>
        <time>2021-03-20T01:13:11</time>
      </trkpt>
      <trkpt lat="41.3336754217744" lon="-8.72136530466378">
        <ele>28.4</ele>
        <time>2021-03-20T01:13:12</time>
      </trkpt>
      <trkpt lat="41.3336071092635" lon="-8.72131970711052">
        <ele>28.6</ele>
        <time>2021-03-20T01:13:13</time>
      </trkpt>
      <trkpt lat="41.3335189316422" lon="-8.72125734575093">
        <ele>28.8</ele>
        <time>2021-03-20T01:13:14</time>
      </trkpt>
      <trkpt lat="41.3334564026445" lon="-8.72121225111186">
        <ele>29.2</ele>
        <time>2021-03-20T01:13:15</time>
      </trkpt>
      <trkpt lat="41.3333961367607" lon="-8.72117528691888">
        <ele>29.2</ele>
        <time>2021-03-20T01:13:16</time>
      </trkpt>
      <trkpt lat="41.3333219569176" lon="-8.72112650424242">
        <ele>29.2</ele>
        <time>2021-03-20T01:13:17</time>
      </trkpt>
      <trkpt lat="41.333264708519" lon="-8.7210949882865">
        <ele>29.4</ele>
        <time>2021-03-20T01:13:18</time>
      </trkpt>
      <trkpt lat="41.3332054484636" lon="-8.72105651535094">
        <ele>29.4</ele>
        <time>2021-03-20T01:13:19</time>
      </trkpt>
      <trkpt lat="41.3331393990666" lon="-8.72101083397865">
        <ele>29.4</ele>
        <time>2021-03-20T01:13:20</time>
      </trkpt>
      <trkpt lat="41.333055915311" lon="-8.72095023281872">
        <ele>29.2</ele>
        <time>2021-03-20T01:13:21</time>
      </trkpt>
      <trkpt lat="41.3329902011901" lon="-8.72090421617031">
        <ele>29.2</ele>
        <time>2021-03-20T01:13:22</time>
      </trkpt>
      <trkpt lat="41.3329259119928" lon="-8.72085920535028">
        <ele>29.4</ele>
        <time>2021-03-20T01:13:23</time>
      </trkpt>
      <trkpt lat="41.3328619580716" lon="-8.72081452980638">
        <ele>29.2</ele>
        <time>2021-03-20T01:13:24</time>
      </trkpt>
      <trkpt lat="41.332791717723" lon="-8.72076750732958">
        <ele>29.2</ele>
        <time>2021-03-20T01:13:25</time>
      </trkpt>
      <trkpt lat="41.3327342178673" lon="-8.72072928585112">
        <ele>29.2</ele>
        <time>2021-03-20T01:13:26</time>
      </trkpt>
      <trkpt lat="41.3326731137931" lon="-8.72069475241006">
        <ele>29.4</ele>
        <time>2021-03-20T01:13:27</time>
      </trkpt>
      <trkpt lat="41.3325862772763" lon="-8.72063079848886">
        <ele>29.2</ele>
        <time>2021-03-20T01:13:28</time>
      </trkpt>
      <trkpt lat="41.3325174618512" lon="-8.72058134526014">
        <ele>29</ele>
        <time>2021-03-20T01:13:29</time>
      </trkpt>
      <trkpt lat="41.3324522506446" lon="-8.72054153122008">
        <ele>29.2</ele>
        <time>2021-03-20T01:13:30</time>
      </trkpt>
      <trkpt lat="41.332392655313" lon="-8.72050280682743">
        <ele>29.2</ele>
        <time>2021-03-20T01:13:31</time>
      </trkpt>
      <trkpt lat="41.332326605916" lon="-8.72045905329287">
        <ele>29.2</ele>
        <time>2021-03-20T01:13:32</time>
      </trkpt>
      <trkpt lat="41.3322787452489" lon="-8.72042770497501">
        <ele>29.4</ele>
        <time>2021-03-20T01:13:33</time>
      </trkpt>
      <trkpt lat="41.332202218473" lon="-8.72038017958403">
        <ele>29.8</ele>
        <time>2021-03-20T01:13:34</time>
      </trkpt>
      <trkpt lat="41.3321314752102" lon="-8.72033575549722">
        <ele>29.6</ele>
        <time>2021-03-20T01:13:35</time>
      </trkpt>
      <trkpt lat="41.3320742268115" lon="-8.72030323371291">
        <ele>29.8</ele>
        <time>2021-03-20T01:13:36</time>
      </trkpt>
      <trkpt lat="41.3320087641478" lon="-8.72025981545448">
        <ele>29.8</ele>
        <time>2021-03-20T01:13:37</time>
      </trkpt>
      <trkpt lat="41.3319401163608" lon="-8.72021170333028">
        <ele>29.8</ele>
        <time>2021-03-20T01:13:38</time>
      </trkpt>
      <trkpt lat="41.3318846281618" lon="-8.72018203139305">
        <ele>29.8</ele>
        <time>2021-03-20T01:13:39</time>
      </trkpt>
      <trkpt lat="41.3318386115134" lon="-8.720150180161">
        <ele>30</ele>
        <time>2021-03-20T01:13:40</time>
      </trkpt>
      <trkpt lat="41.3317527808249" lon="-8.7200965359807">
        <ele>30.2</ele>
        <time>2021-03-20T01:13:41</time>
      </trkpt>
      <trkpt lat="41.3316932693124" lon="-8.72005730867386">
        <ele>30.4</ele>
        <time>2021-03-20T01:13:42</time>
      </trkpt>
      <trkpt lat="41.3316257111728" lon="-8.72001548297703">
        <ele>30.4</ele>
        <time>2021-03-20T01:13:43</time>
      </trkpt>
      <trkpt lat="41.3315576501191" lon="-8.71996829286218">
        <ele>30.4</ele>
        <time>2021-03-20T01:13:44</time>
      </trkpt>
      <trkpt lat="41.331496713683" lon="-8.71992722153664">
        <ele>30.4</ele>
        <time>2021-03-20T01:13:45</time>
      </trkpt>
      <trkpt lat="41.3314281497151" lon="-8.71988631784916">
        <ele>30.6</ele>
        <time>2021-03-20T01:13:46</time>
      </trkpt>
      <trkpt lat="41.3313877489418" lon="-8.71986075304449">
        <ele>30.6</ele>
        <time>2021-03-20T01:13:47</time>
      </trkpt>
      <trkpt lat="41.3312972243875" lon="-8.71979654766619">
        <ele>30.6</ele>
        <time>2021-03-20T01:13:48</time>
      </trkpt>
      <trkpt lat="41.331224469468" lon="-8.71974902227521">
        <ele>30.6</ele>
        <time>2021-03-20T01:13:49</time>
      </trkpt>
      <trkpt lat="41.3311607670039" lon="-8.71970971114934">
        <ele>30.8</ele>
        <time>2021-03-20T01:13:50</time>
      </trkpt>
      <trkpt lat="41.331092454493" lon="-8.71966352686286">
        <ele>30.8</ele>
        <time>2021-03-20T01:13:51</time>
      </trkpt>
      <trkpt lat="41.3310154248029" lon="-8.71961524710059">
        <ele>31</ele>
        <time>2021-03-20T01:13:52</time>
      </trkpt>
      <trkpt lat="41.3309432566166" lon="-8.71956185437739">
        <ele>31.4</ele>
        <time>2021-03-20T01:13:53</time>
      </trkpt>
      <trkpt lat="41.3308876007795" lon="-8.71952019631863">
        <ele>31.4</ele>
        <time>2021-03-20T01:13:54</time>
      </trkpt>
      <trkpt lat="41.3307924661785" lon="-8.71945833787322">
        <ele>31.4</ele>
        <time>2021-03-20T01:13:55</time>
      </trkpt>
      <trkpt lat="41.3307217229158" lon="-8.71941475197673">
        <ele>31.6</ele>
        <time>2021-03-20T01:13:56</time>
      </trkpt>
      <trkpt lat="41.3306504767388" lon="-8.71936404146254">
        <ele>31.6</ele>
        <time>2021-03-20T01:13:57</time>
      </trkpt>
      <trkpt lat="41.3305749557912" lon="-8.7193092238158">
        <ele>31.6</ele>
        <time>2021-03-20T01:13:58</time>
      </trkpt>
      <trkpt lat="41.3305011112243" lon="-8.71925817802548">
        <ele>32</ele>
        <time>2021-03-20T01:13:59</time>
      </trkpt>
      <trkpt lat="41.3304431084543" lon="-8.71922129765153">
        <ele>32</ele>
        <time>2021-03-20T01:14:00</time>
      </trkpt>
      <trkpt lat="41.330352416262" lon="-8.71915533207357">
        <ele>32</ele>
        <time>2021-03-20T01:14:01</time>
      </trkpt>
      <trkpt lat="41.3302887137979" lon="-8.71911803260446">
        <ele>32.6</ele>
        <time>2021-03-20T01:14:02</time>
      </trkpt>
      <trkpt lat="41.3302110973746" lon="-8.71907981112599">
        <ele>32.8</ele>
        <time>2021-03-20T01:14:03</time>
      </trkpt>
      <trkpt lat="41.3301311340183" lon="-8.71905852109194">
        <ele>33</ele>
        <time>2021-03-20T01:14:04</time>
      </trkpt>
      <trkpt lat="41.330056199804" lon="-8.71905349195004">
        <ele>33.2</ele>
        <time>2021-03-20T01:14:05</time>
      </trkpt>
      <trkpt lat="41.3299856241792" lon="-8.71905768290162">
        <ele>33.2</ele>
        <time>2021-03-20T01:14:06</time>
      </trkpt>
      <trkpt lat="41.3299327343702" lon="-8.71906271204352">
        <ele>33.2</ele>
        <time>2021-03-20T01:14:07</time>
      </trkpt>
      <trkpt lat="41.3298386055976" lon="-8.71905701234937">
        <ele>33.4</ele>
        <time>2021-03-20T01:14:08</time>
      </trkpt>
      <trkpt lat="41.3297771662474" lon="-8.71903454884887">
        <ele>33.6</ele>
        <time>2021-03-20T01:14:09</time>
      </trkpt>
      <trkpt lat="41.3297166489065" lon="-8.71896154247224">
        <ele>33.8</ele>
        <time>2021-03-20T01:14:10</time>
      </trkpt>
      <trkpt lat="41.329667698592" lon="-8.71888350695372">
        <ele>34</ele>
        <time>2021-03-20T01:14:11</time>
      </trkpt>
      <trkpt lat="41.3296215981245" lon="-8.71880278922618">
        <ele>34</ele>
        <time>2021-03-20T01:14:12</time>
      </trkpt>
      <trkpt lat="41.3295792695135" lon="-8.71873724274337">
        <ele>34.4</ele>
        <time>2021-03-20T01:14:13</time>
      </trkpt>
      <trkpt lat="41.3295411318541" lon="-8.71868904680014">
        <ele>34.6</ele>
        <time>2021-03-20T01:14:14</time>
      </trkpt>
      <trkpt lat="41.3294609170407" lon="-8.71862199157476">
        <ele>34.6</ele>
        <time>2021-03-20T01:14:15</time>
      </trkpt>
      <trkpt lat="41.3293989747763" lon="-8.71858921833336">
        <ele>34.6</ele>
        <time>2021-03-20T01:14:16</time>
      </trkpt>
      <trkpt lat="41.3293371163309" lon="-8.71854982338846">
        <ele>34.8</ele>
        <time>2021-03-20T01:14:17</time>
      </trkpt>
      <trkpt lat="41.3292786106467" lon="-8.71850732713938">
        <ele>35.4</ele>
        <time>2021-03-20T01:14:18</time>
      </trkpt>
      <trkpt lat="41.3292364496738" lon="-8.71848025359213">
        <ele>35.6</ele>
        <time>2021-03-20T01:14:19</time>
      </trkpt>
      <trkpt lat="41.3291754294187" lon="-8.71844069100916">
        <ele>35.6</ele>
        <time>2021-03-20T01:14:20</time>
      </trkpt>
      <trkpt lat="41.3291176781058" lon="-8.71841085143387">
        <ele>35.8</ele>
        <time>2021-03-20T01:14:21</time>
      </trkpt>
      <trkpt lat="41.3290406484157" lon="-8.71836173348129">
        <ele>36</ele>
        <time>2021-03-20T01:14:22</time>
      </trkpt>
      <trkpt lat="41.3289817236364" lon="-8.71832569129765">
        <ele>36</ele>
        <time>2021-03-20T01:14:23</time>
      </trkpt>
      <trkpt lat="41.3289276603609" lon="-8.71829073876142">
        <ele>36.2</ele>
        <time>2021-03-20T01:14:24</time>
      </trkpt>
      <trkpt lat="41.3288641255349" lon="-8.71824882924557">
        <ele>36.2</ele>
        <time>2021-03-20T01:14:25</time>
      </trkpt>
      <trkpt lat="41.3288152590394" lon="-8.71821974404156">
        <ele>36.4</ele>
        <time>2021-03-20T01:14:26</time>
      </trkpt>
      <trkpt lat="41.3287512212992" lon="-8.71817951090634">
        <ele>36.6</ele>
        <time>2021-03-20T01:14:27</time>
      </trkpt>
      <trkpt lat="41.3286676537246" lon="-8.71812527999282">
        <ele>37</ele>
        <time>2021-03-20T01:14:28</time>
      </trkpt>
      <trkpt lat="41.3286022748798" lon="-8.7180832028389">
        <ele>37.2</ele>
        <time>2021-03-20T01:14:29</time>
      </trkpt>
      <trkpt lat="41.3285326212645" lon="-8.71803852729499">
        <ele>37.4</ele>
        <time>2021-03-20T01:14:30</time>
      </trkpt>
      <trkpt lat="41.3284666556865" lon="-8.71799955144524">
        <ele>37.4</ele>
        <time>2021-03-20T01:14:31</time>
      </trkpt>
      <trkpt lat="41.3284021150321" lon="-8.71796350926161">
        <ele>37.4</ele>
        <time>2021-03-20T01:14:32</time>
      </trkpt>
      <trkpt lat="41.3283501472324" lon="-8.7179312389344">
        <ele>37.6</ele>
        <time>2021-03-20T01:14:33</time>
      </trkpt>
      <trkpt lat="41.3282774761319" lon="-8.71788153424859">
        <ele>37.6</ele>
        <time>2021-03-20T01:14:34</time>
      </trkpt>
      <trkpt lat="41.328198434785" lon="-8.71783300302923">
        <ele>37.8</ele>
        <time>2021-03-20T01:14:35</time>
      </trkpt>
      <trkpt lat="41.3281276077032" lon="-8.71778673492372">
        <ele>38.2</ele>
        <time>2021-03-20T01:14:36</time>
      </trkpt>
      <trkpt lat="41.3280623964965" lon="-8.71774951927364">
        <ele>38</ele>
        <time>2021-03-20T01:14:37</time>
      </trkpt>
      <trkpt lat="41.3279964309186" lon="-8.71771171689034">
        <ele>38.2</ele>
        <time>2021-03-20T01:14:38</time>
      </trkpt>
      <trkpt lat="41.3279322255403" lon="-8.71766754426062">
        <ele>38.2</ele>
        <time>2021-03-20T01:14:39</time>
      </trkpt>
      <trkpt lat="41.3278886396438" lon="-8.71763669885695">
        <ele>38.4</ele>
        <time>2021-03-20T01:14:40</time>
      </trkpt>
      <trkpt lat="41.3278194051236" lon="-8.71759403496981">
        <ele>38.4</ele>
        <time>2021-03-20T01:14:41</time>
      </trkpt>
      <trkpt lat="41.3277304731309" lon="-8.71752974577248">
        <ele>38.6</ele>
        <time>2021-03-20T01:14:42</time>
      </trkpt>
      <trkpt lat="41.3276621606201" lon="-8.71748532168567">
        <ele>38.4</ele>
        <time>2021-03-20T01:14:43</time>
      </trkpt>
      <trkpt lat="41.3275924231857" lon="-8.7174372933805">
        <ele>38.6</ele>
        <time>2021-03-20T01:14:44</time>
      </trkpt>
      <trkpt lat="41.3275254517794" lon="-8.71739571914077">
        <ele>39</ele>
        <time>2021-03-20T01:14:45</time>
      </trkpt>
      <trkpt lat="41.3274577260017" lon="-8.71735372580588">
        <ele>39</ele>
        <time>2021-03-20T01:14:46</time>
      </trkpt>
      <trkpt lat="41.3274067640305" lon="-8.71731818653643">
        <ele>39</ele>
        <time>2021-03-20T01:14:47</time>
      </trkpt>
      <trkpt lat="41.3273331709206" lon="-8.71726521290839">
        <ele>39</ele>
        <time>2021-03-20T01:14:48</time>
      </trkpt>
      <trkpt lat="41.327241724357" lon="-8.71719681657851">
        <ele>39</ele>
        <time>2021-03-20T01:14:49</time>
      </trkpt>
      <trkpt lat="41.3271706458181" lon="-8.71714627370238">
        <ele>39</ele>
        <time>2021-03-20T01:14:50</time>
      </trkpt>
      <trkpt lat="41.3271004054695" lon="-8.71710478328168">
        <ele>39</ele>
        <time>2021-03-20T01:14:51</time>
      </trkpt>
      <trkpt lat="41.3270324282348" lon="-8.71706002391875">
        <ele>39</ele>
        <time>2021-03-20T01:14:52</time>
      </trkpt>
      <trkpt lat="41.3269701506942" lon="-8.71701727621257">
        <ele>39.2</ele>
        <time>2021-03-20T01:14:53</time>
      </trkpt>
      <trkpt lat="41.3269256427884" lon="-8.71698969975114">
        <ele>39.2</ele>
        <time>2021-03-20T01:14:54</time>
      </trkpt>
      <trkpt lat="41.3268394768238" lon="-8.71693203225732">
        <ele>39.2</ele>
        <time>2021-03-20T01:14:55</time>
      </trkpt>
      <trkpt lat="41.3267609383911" lon="-8.71687729842961">
        <ele>39.2</ele>
        <time>2021-03-20T01:14:56</time>
      </trkpt>
      <trkpt lat="41.3266886025667" lon="-8.71682449243963">
        <ele>39.4</ele>
        <time>2021-03-20T01:14:57</time>
      </trkpt>
      <trkpt lat="41.3266167696565" lon="-8.71678501367569">
        <ele>39.4</ele>
        <time>2021-03-20T01:14:58</time>
      </trkpt>
      <trkpt lat="41.3265435956418" lon="-8.71673723682761">
        <ele>39.4</ele>
        <time>2021-03-20T01:14:59</time>
      </trkpt>
      <trkpt lat="41.3264754507691" lon="-8.71669105254114">
        <ele>39.4</ele>
        <time>2021-03-20T01:15:00</time>
      </trkpt>
      <trkpt lat="41.3264204654843" lon="-8.7166568543762">
        <ele>39.2</ele>
        <time>2021-03-20T01:15:01</time>
      </trkpt>
      <trkpt lat="41.3263339642435" lon="-8.71660153381526">
        <ele>38.8</ele>
        <time>2021-03-20T01:15:02</time>
      </trkpt>
      <trkpt lat="41.3262632209808" lon="-8.71655534952879">
        <ele>39</ele>
        <time>2021-03-20T01:15:03</time>
      </trkpt>
      <trkpt lat="41.3261866103858" lon="-8.71650522574782">
        <ele>39.2</ele>
        <time>2021-03-20T01:15:04</time>
      </trkpt>
      <trkpt lat="41.3261096645147" lon="-8.71645719744265">
        <ele>39.4</ele>
        <time>2021-03-20T01:15:05</time>
      </trkpt>
      <trkpt lat="41.3260279409587" lon="-8.71639248915017">
        <ele>39.4</ele>
        <time>2021-03-20T01:15:06</time>
      </trkpt>
      <trkpt lat="41.325975637883" lon="-8.7163582071662">
        <ele>39.4</ele>
        <time>2021-03-20T01:15:07</time>
      </trkpt>
      <trkpt lat="41.3259047269821" lon="-8.71631520800292">
        <ele>39.4</ele>
        <time>2021-03-20T01:15:08</time>
      </trkpt>
      <trkpt lat="41.3258204050362" lon="-8.71625569649041">
        <ele>39.4</ele>
        <time>2021-03-20T01:15:09</time>
      </trkpt>
      <trkpt lat="41.3257584627718" lon="-8.7162147089839">
        <ele>39.4</ele>
        <time>2021-03-20T01:15:10</time>
      </trkpt>
      <trkpt lat="41.3256986998022" lon="-8.71618369594216">
        <ele>39.8</ele>
        <time>2021-03-20T01:15:11</time>
      </trkpt>
      <trkpt lat="41.3256212510169" lon="-8.71613767929375">
        <ele>40</ele>
        <time>2021-03-20T01:15:12</time>
      </trkpt>
      <trkpt lat="41.3255462329835" lon="-8.71608797460794">
        <ele>40</ele>
        <time>2021-03-20T01:15:13</time>
      </trkpt>
      <trkpt lat="41.3254979532212" lon="-8.71605897322297">
        <ele>39.8</ele>
        <time>2021-03-20T01:15:14</time>
      </trkpt>
      <trkpt lat="41.3254321552813" lon="-8.7160125374794">
        <ele>40</ele>
        <time>2021-03-20T01:15:15</time>
      </trkpt>
      <trkpt lat="41.3253556285054" lon="-8.7159575521946">
        <ele>39.8</ele>
        <time>2021-03-20T01:15:16</time>
      </trkpt>
      <trkpt lat="41.3253062590957" lon="-8.71592947281897">
        <ele>39.8</ele>
        <time>2021-03-20T01:15:17</time>
      </trkpt>
      <trkpt lat="41.325248926878" lon="-8.71589619666338">
        <ele>40</ele>
        <time>2021-03-20T01:15:18</time>
      </trkpt>
      <trkpt lat="41.3251884095371" lon="-8.71584850363434">
        <ele>40.2</ele>
        <time>2021-03-20T01:15:19</time>
      </trkpt>
      <trkpt lat="41.3251374475658" lon="-8.71582134626806">
        <ele>40.2</ele>
        <time>2021-03-20T01:15:20</time>
      </trkpt>
      <trkpt lat="41.3250996451825" lon="-8.7157950270921">
        <ele>40.2</ele>
        <time>2021-03-20T01:15:21</time>
      </trkpt>
      <trkpt lat="41.3250309135765" lon="-8.71575403958559">
        <ele>40.6</ele>
        <time>2021-03-20T01:15:22</time>
      </trkpt>
      <trkpt lat="41.3249706476927" lon="-8.71571933850646">
        <ele>40.8</ele>
        <time>2021-03-20T01:15:23</time>
      </trkpt>
      <trkpt lat="41.3249116390944" lon="-8.71567625552416">
        <ele>40.8</ele>
        <time>2021-03-20T01:15:24</time>
      </trkpt>
      <trkpt lat="41.3248586654663" lon="-8.715636190027">
        <ele>40.6</ele>
        <time>2021-03-20T01:15:25</time>
      </trkpt>
      <trkpt lat="41.324802422896" lon="-8.71560048311949">
        <ele>40.6</ele>
        <time>2021-03-20T01:15:26</time>
      </trkpt>
      <trkpt lat="41.3247532211244" lon="-8.71556628495455">
        <ele>40.6</ele>
        <time>2021-03-20T01:15:27</time>
      </trkpt>
      <trkpt lat="41.3247141614556" lon="-8.71554004959762">
        <ele>40.8</ele>
        <time>2021-03-20T01:15:28</time>
      </trkpt>
      <trkpt lat="41.3246497046202" lon="-8.71549922972918">
        <ele>40.6</ele>
        <time>2021-03-20T01:15:29</time>
      </trkpt>
      <trkpt lat="41.3245979044586" lon="-8.71546578593552">
        <ele>40.8</ele>
        <time>2021-03-20T01:15:30</time>
      </trkpt>
      <trkpt lat="41.3245450984687" lon="-8.7154377065599">
        <ele>40.8</ele>
        <time>2021-03-20T01:15:31</time>
      </trkpt>
      <trkpt lat="41.3244856707752" lon="-8.71539319865406">
        <ele>41</ele>
        <time>2021-03-20T01:15:32</time>
      </trkpt>
      <trkpt lat="41.3244317751378" lon="-8.71535497717559">
        <ele>40.8</ele>
        <time>2021-03-20T01:15:33</time>
      </trkpt>
      <trkpt lat="41.3243924640119" lon="-8.71532572433352">
        <ele>40.8</ele>
        <time>2021-03-20T01:15:34</time>
      </trkpt>
      <trkpt lat="41.3243364728987" lon="-8.71528674848378">
        <ele>40.8</ele>
        <time>2021-03-20T01:15:35</time>
      </trkpt>
      <trkpt lat="41.3242671545595" lon="-8.71524198912084">
        <ele>40.6</ele>
        <time>2021-03-20T01:15:36</time>
      </trkpt>
      <trkpt lat="41.3242191262543" lon="-8.71520728804171">
        <ele>40.4</ele>
        <time>2021-03-20T01:15:37</time>
      </trkpt>
      <trkpt lat="41.3241676613688" lon="-8.71517074294388">
        <ele>40.6</ele>
        <time>2021-03-20T01:15:38</time>
      </trkpt>
      <trkpt lat="41.3241092395037" lon="-8.71512548066676">
        <ele>40.6</ele>
        <time>2021-03-20T01:15:39</time>
      </trkpt>
      <trkpt lat="41.324054421857" lon="-8.71508524753153">
        <ele>40.6</ele>
        <time>2021-03-20T01:15:40</time>
      </trkpt>
      <trkpt lat="41.3240127637982" lon="-8.71505985036492">
        <ele>40.6</ele>
        <time>2021-03-20T01:15:41</time>
      </trkpt>
      <trkpt lat="41.3239522464573" lon="-8.71501827612519">
        <ele>40.6</ele>
        <time>2021-03-20T01:15:42</time>
      </trkpt>
      <trkpt lat="41.3238866999745" lon="-8.71497334912419">
        <ele>40.6</ele>
        <time>2021-03-20T01:15:43</time>
      </trkpt>
      <trkpt lat="41.3238339778036" lon="-8.71493998914957">
        <ele>40.8</ele>
        <time>2021-03-20T01:15:44</time>
      </trkpt>
      <trkpt lat="41.3237854465842" lon="-8.71490931138396">
        <ele>41</ele>
        <time>2021-03-20T01:15:45</time>
      </trkpt>
      <trkpt lat="41.3237276114523" lon="-8.71486723423004">
        <ele>41</ele>
        <time>2021-03-20T01:15:46</time>
      </trkpt>
      <trkpt lat="41.3236727099866" lon="-8.71483068913221">
        <ele>41</ele>
        <time>2021-03-20T01:15:47</time>
      </trkpt>
      <trkpt lat="41.3236384280026" lon="-8.71481199748814">
        <ele>41.2</ele>
        <time>2021-03-20T01:15:48</time>
      </trkpt>
      <trkpt lat="41.323573468253" lon="-8.71477201581001">
        <ele>41</ele>
        <time>2021-03-20T01:15:49</time>
      </trkpt>
      <trkpt lat="41.3235261105001" lon="-8.71474519371986">
        <ele>40.8</ele>
        <time>2021-03-20T01:15:50</time>
      </trkpt>
      <trkpt lat="41.3234736397862" lon="-8.71471879072487">
        <ele>40.8</ele>
        <time>2021-03-20T01:15:51</time>
      </trkpt>
      <trkpt lat="41.3234204147011" lon="-8.7146813236177">
        <ele>41</ele>
        <time>2021-03-20T01:15:52</time>
      </trkpt>
      <trkpt lat="41.3233664352447" lon="-8.71464377269149">
        <ele>41.2</ele>
        <time>2021-03-20T01:15:53</time>
      </trkpt>
      <trkpt lat="41.3233166467398" lon="-8.71460119262338">
        <ele>41.4</ele>
        <time>2021-03-20T01:15:54</time>
      </trkpt>
      <trkpt lat="41.3232726417482" lon="-8.71456523425877">
        <ele>41.6</ele>
        <time>2021-03-20T01:15:55</time>
      </trkpt>
      <trkpt lat="41.3231939356774" lon="-8.71451083570719">
        <ele>41.8</ele>
        <time>2021-03-20T01:15:56</time>
      </trkpt>
      <trkpt lat="41.3231236953288" lon="-8.7144633103162">
        <ele>42</ele>
        <time>2021-03-20T01:15:57</time>
      </trkpt>
      <trkpt lat="41.3230459112674" lon="-8.71442383155227">
        <ele>42.2</ele>
        <time>2021-03-20T01:15:58</time>
      </trkpt>
      <trkpt lat="41.3229436520487" lon="-8.71436079964042">
        <ele>42.2</ele>
        <time>2021-03-20T01:15:59</time>
      </trkpt>
      <trkpt lat="41.3228511158377" lon="-8.71430723927915">
        <ele>42.2</ele>
        <time>2021-03-20T01:16:00</time>
      </trkpt>
      <trkpt lat="41.3227581605315" lon="-8.71424881741404">
        <ele>42.2</ele>
        <time>2021-03-20T01:16:01</time>
      </trkpt>
      <trkpt lat="41.3226731680334" lon="-8.71419634670019">
        <ele>42.4</ele>
        <time>2021-03-20T01:16:02</time>
      </trkpt>
      <trkpt lat="41.3225494511426" lon="-8.71411797590554">
        <ele>42.8</ele>
        <time>2021-03-20T01:16:03</time>
      </trkpt>
      <trkpt lat="41.3224507123232" lon="-8.71405779384076">
        <ele>42.8</ele>
        <time>2021-03-20T01:16:04</time>
      </trkpt>
      <trkpt lat="41.3223571702838" lon="-8.71399534866214">
        <ele>43</ele>
        <time>2021-03-20T01:16:05</time>
      </trkpt>
      <trkpt lat="41.3222606945783" lon="-8.71393005363643">
        <ele>43.2</ele>
        <time>2021-03-20T01:16:06</time>
      </trkpt>
      <trkpt lat="41.322162123397" lon="-8.71386350132525">
        <ele>43.2</ele>
        <time>2021-03-20T01:16:07</time>
      </trkpt>
      <trkpt lat="41.3220677431673" lon="-8.71380851604044">
        <ele>43</ele>
        <time>2021-03-20T01:16:08</time>
      </trkpt>
      <trkpt lat="41.3219712674618" lon="-8.7137365154922">
        <ele>43</ele>
        <time>2021-03-20T01:16:09</time>
      </trkpt>
      <trkpt lat="41.3218761328608" lon="-8.71366485022008">
        <ele>43</ele>
        <time>2021-03-20T01:16:10</time>
      </trkpt>
      <trkpt lat="41.3217704370618" lon="-8.71358069591224">
        <ele>43.2</ele>
        <time>2021-03-20T01:16:11</time>
      </trkpt>
      <trkpt lat="41.321673123166" lon="-8.71351598761976">
        <ele>43.2</ele>
        <time>2021-03-20T01:16:12</time>
      </trkpt>
      <trkpt lat="41.3215734623373" lon="-8.7134463340044">
        <ele>43</ele>
        <time>2021-03-20T01:16:13</time>
      </trkpt>
      <trkpt lat="41.3214763998985" lon="-8.71338271535933">
        <ele>43</ele>
        <time>2021-03-20T01:16:14</time>
      </trkpt>
      <trkpt lat="41.321406243369" lon="-8.7133377045393">
        <ele>42.8</ele>
        <time>2021-03-20T01:16:15</time>
      </trkpt>
      <trkpt lat="41.3212954346091" lon="-8.71326427906752">
        <ele>43</ele>
        <time>2021-03-20T01:16:16</time>
      </trkpt>
      <trkpt lat="41.3212082628161" lon="-8.71321549639106">
        <ele>43.2</ele>
        <time>2021-03-20T01:16:17</time>
      </trkpt>
      <trkpt lat="41.321120923385" lon="-8.71315833181143">
        <ele>43.4</ele>
        <time>2021-03-20T01:16:18</time>
      </trkpt>
      <trkpt lat="41.3210267107934" lon="-8.71309848502278">
        <ele>43.6</ele>
        <time>2021-03-20T01:16:19</time>
      </trkpt>
      <trkpt lat="41.3209372758865" lon="-8.71304073370993">
        <ele>43.6</ele>
        <time>2021-03-20T01:16:20</time>
      </trkpt>
      <trkpt lat="41.3208437338471" lon="-8.7129817251116">
        <ele>44</ele>
        <time>2021-03-20T01:16:21</time>
      </trkpt>
      <trkpt lat="41.3207774329931" lon="-8.71293604373932">
        <ele>43.8</ele>
        <time>2021-03-20T01:16:22</time>
      </trkpt>
      <trkpt lat="41.3206669595093" lon="-8.7128627859056">
        <ele>44</ele>
        <time>2021-03-20T01:16:23</time>
      </trkpt>
      <trkpt lat="41.320586912334" lon="-8.71280721388757">
        <ele>44.2</ele>
        <time>2021-03-20T01:16:24</time>
      </trkpt>
      <trkpt lat="41.3204836472869" lon="-8.71273454278708">
        <ele>44.2</ele>
        <time>2021-03-20T01:16:25</time>
      </trkpt>
      <trkpt lat="41.320399241522" lon="-8.7126590218395">
        <ele>44.2</ele>
        <time>2021-03-20T01:16:26</time>
      </trkpt>
      <trkpt lat="41.3203271571547" lon="-8.71262532658875">
        <ele>44.2</ele>
        <time>2021-03-20T01:16:27</time>
      </trkpt>
      <trkpt lat="41.3202502112836" lon="-8.71260269545019">
        <ele>44.4</ele>
        <time>2021-03-20T01:16:28</time>
      </trkpt>
      <trkpt lat="41.3201629556716" lon="-8.71254905126989">
        <ele>45</ele>
        <time>2021-03-20T01:16:29</time>
      </trkpt>
      <trkpt lat="41.3200594391674" lon="-8.71247353032231">
        <ele>45.4</ele>
        <time>2021-03-20T01:16:30</time>
      </trkpt>
      <trkpt lat="41.3199986703694" lon="-8.71243581175804">
        <ele>46</ele>
        <time>2021-03-20T01:16:31</time>
      </trkpt>
      <trkpt lat="41.3199214730412" lon="-8.71239423751831">
        <ele>46.6</ele>
        <time>2021-03-20T01:16:32</time>
      </trkpt>
      <trkpt lat="41.3198294397444" lon="-8.7123310379684">
        <ele>47.2</ele>
        <time>2021-03-20T01:16:33</time>
      </trkpt>
      <trkpt lat="41.3197452016175" lon="-8.71228368021548">
        <ele>47.4</ele>
        <time>2021-03-20T01:16:34</time>
      </trkpt>
      <trkpt lat="41.3196584489197" lon="-8.71220421977341">
        <ele>47.4</ele>
        <time>2021-03-20T01:16:35</time>
      </trkpt>
      <trkpt lat="41.3195864483714" lon="-8.71213154867291">
        <ele>47.6</ele>
        <time>2021-03-20T01:16:36</time>
      </trkpt>
      <trkpt lat="41.3195172138512" lon="-8.71204605326056">
        <ele>48</ele>
        <time>2021-03-20T01:16:37</time>
      </trkpt>
      <trkpt lat="41.3194552715868" lon="-8.71195854619146">
        <ele>48.2</ele>
        <time>2021-03-20T01:16:38</time>
      </trkpt>
      <trkpt lat="41.3193837739527" lon="-8.71186735108495">
        <ele>48</ele>
        <time>2021-03-20T01:16:39</time>
      </trkpt>
      <trkpt lat="41.3193081691861" lon="-8.71178152039647">
        <ele>47.8</ele>
        <time>2021-03-20T01:16:40</time>
      </trkpt>
      <trkpt lat="41.3192149624228" lon="-8.71171429753304">
        <ele>47.6</ele>
        <time>2021-03-20T01:16:41</time>
      </trkpt>
      <trkpt lat="41.319130724296" lon="-8.71166702359915">
        <ele>47.2</ele>
        <time>2021-03-20T01:16:42</time>
      </trkpt>
      <trkpt lat="41.3190469052643" lon="-8.71160348877311">
        <ele>46.6</ele>
        <time>2021-03-20T01:16:43</time>
      </trkpt>
      <trkpt lat="41.3189764134586" lon="-8.71152780018747">
        <ele>46.6</ele>
        <time>2021-03-20T01:16:44</time>
      </trkpt>
      <trkpt lat="41.3189039099962" lon="-8.71142554096878">
        <ele>46.6</ele>
        <time>2021-03-20T01:16:45</time>
      </trkpt>
      <trkpt lat="41.3188222702593" lon="-8.71133250184357">
        <ele>46.4</ele>
        <time>2021-03-20T01:16:46</time>
      </trkpt>
      <trkpt lat="41.3187381159514" lon="-8.71126351878047">
        <ele>46.2</ele>
        <time>2021-03-20T01:16:47</time>
      </trkpt>
      <trkpt lat="41.3186474237591" lon="-8.71120249852538">
        <ele>45.8</ele>
        <time>2021-03-20T01:16:48</time>
      </trkpt>
      <trkpt lat="41.3185582403094" lon="-8.71115698479116">
        <ele>45.8</ele>
        <time>2021-03-20T01:16:49</time>
      </trkpt>
      <trkpt lat="41.3184707332402" lon="-8.71112572029233">
        <ele>46</ele>
        <time>2021-03-20T01:16:50</time>
      </trkpt>
      <trkpt lat="41.3183691445738" lon="-8.71107903309166">
        <ele>46</ele>
        <time>2021-03-20T01:16:51</time>
      </trkpt>
      <trkpt lat="41.3182712439448" lon="-8.71104022487998">
        <ele>45.8</ele>
        <time>2021-03-20T01:16:52</time>
      </trkpt>
      <trkpt lat="41.3181696552783" lon="-8.71100502088666">
        <ele>46</ele>
        <time>2021-03-20T01:16:53</time>
      </trkpt>
      <trkpt lat="41.3180717546493" lon="-8.71096721850336">
        <ele>45.6</ele>
        <time>2021-03-20T01:16:54</time>
      </trkpt>
      <trkpt lat="41.3179764524102" lon="-8.71093285270035">
        <ele>46</ele>
        <time>2021-03-20T01:16:55</time>
      </trkpt>
      <trkpt lat="41.3178844191134" lon="-8.71089354157448">
        <ele>46.2</ele>
        <time>2021-03-20T01:16:56</time>
      </trkpt>
      <trkpt lat="41.3177972473204" lon="-8.71085699647665">
        <ele>45.6</ele>
        <time>2021-03-20T01:16:57</time>
      </trkpt>
      <trkpt lat="41.3177121710032" lon="-8.71081248857081">
        <ele>45.4</ele>
        <time>2021-03-20T01:16:58</time>
      </trkpt>
      <trkpt lat="41.3176229037344" lon="-8.71077024377882">
        <ele>45.2</ele>
        <time>2021-03-20T01:16:59</time>
      </trkpt>
      <trkpt lat="41.3175309542567" lon="-8.71072255074978">
        <ele>45.2</ele>
        <time>2021-03-20T01:17:00</time>
      </trkpt>
      <trkpt lat="41.3174469675869" lon="-8.71067904867232">
        <ele>45.2</ele>
        <time>2021-03-20T01:17:01</time>
      </trkpt>
      <trkpt lat="41.3173830974847" lon="-8.71064149774611">
        <ele>45.4</ele>
        <time>2021-03-20T01:17:02</time>
      </trkpt>
      <trkpt lat="41.3172964286059" lon="-8.71059380471706">
        <ele>45.2</ele>
        <time>2021-03-20T01:17:03</time>
      </trkpt>
      <trkpt lat="41.3171921577305" lon="-8.71053253300488">
        <ele>45.2</ele>
        <time>2021-03-20T01:17:04</time>
      </trkpt>
      <trkpt lat="41.3171059079468" lon="-8.71046748943627">
        <ele>45.2</ele>
        <time>2021-03-20T01:17:05</time>
      </trkpt>
      <trkpt lat="41.3170202448964" lon="-8.71040378697216">
        <ele>45.2</ele>
        <time>2021-03-20T01:17:06</time>
      </trkpt>
      <trkpt lat="41.3169367611408" lon="-8.71035047806799">
        <ele>45</ele>
        <time>2021-03-20T01:17:07</time>
      </trkpt>
      <trkpt lat="41.3168519362807" lon="-8.71030404232442">
        <ele>45.2</ele>
        <time>2021-03-20T01:17:08</time>
      </trkpt>
      <trkpt lat="41.3167873956263" lon="-8.71026422828436">
        <ele>45</ele>
        <time>2021-03-20T01:17:09</time>
      </trkpt>
      <trkpt lat="41.3166827056557" lon="-8.71019499376416">
        <ele>44.8</ele>
        <time>2021-03-20T01:17:10</time>
      </trkpt>
      <trkpt lat="41.3165949471295" lon="-8.71013917028904">
        <ele>45.2</ele>
        <time>2021-03-20T01:17:11</time>
      </trkpt>
      <trkpt lat="41.3165086973458" lon="-8.71008879505098">
        <ele>45.6</ele>
        <time>2021-03-20T01:17:12</time>
      </trkpt>
      <trkpt lat="41.316427141428" lon="-8.71003967709839">
        <ele>45.2</ele>
        <time>2021-03-20T01:17:13</time>
      </trkpt>
      <trkpt lat="41.3163386285305" lon="-8.70998251251876">
        <ele>45.2</ele>
        <time>2021-03-20T01:17:14</time>
      </trkpt>
      <trkpt lat="41.3162610959262" lon="-8.70993071235716">
        <ele>45.2</ele>
        <time>2021-03-20T01:17:15</time>
      </trkpt>
      <trkpt lat="41.3161969743669" lon="-8.70988553389907">
        <ele>44.8</ele>
        <time>2021-03-20T01:17:16</time>
      </trkpt>
      <trkpt lat="41.3160924520344" lon="-8.7098182272166">
        <ele>44.6</ele>
        <time>2021-03-20T01:17:17</time>
      </trkpt>
      <trkpt lat="41.3160081300884" lon="-8.70976248756051">
        <ele>44.4</ele>
        <time>2021-03-20T01:17:18</time>
      </trkpt>
      <trkpt lat="41.31592489779" lon="-8.70969727635384">
        <ele>44.2</ele>
        <time>2021-03-20T01:17:19</time>
      </trkpt>
      <trkpt lat="41.3158489577472" lon="-8.7096353340894">
        <ele>43.8</ele>
        <time>2021-03-20T01:17:20</time>
      </trkpt>
      <trkpt lat="41.315763713792" lon="-8.7095785047859">
        <ele>43.2</ele>
        <time>2021-03-20T01:17:21</time>
      </trkpt>
      <trkpt lat="41.3156811520457" lon="-8.709512706846">
        <ele>43.2</ele>
        <time>2021-03-20T01:17:22</time>
      </trkpt>
      <trkpt lat="41.3155906274915" lon="-8.70945051312446">
        <ele>42.8</ele>
        <time>2021-03-20T01:17:23</time>
      </trkpt>
      <trkpt lat="41.315502198413" lon="-8.70939083397388">
        <ele>42.6</ele>
        <time>2021-03-20T01:17:24</time>
      </trkpt>
      <trkpt lat="41.3154132664204" lon="-8.70932721532881">
        <ele>42.4</ele>
        <time>2021-03-20T01:17:25</time>
      </trkpt>
      <trkpt lat="41.31531720981" lon="-8.70925630442798">
        <ele>42</ele>
        <time>2021-03-20T01:17:26</time>
      </trkpt>
      <trkpt lat="41.3152255956084" lon="-8.70919805020094">
        <ele>42</ele>
        <time>2021-03-20T01:17:27</time>
      </trkpt>
      <trkpt lat="41.3151302095503" lon="-8.70914281345904">
        <ele>41.8</ele>
        <time>2021-03-20T01:17:28</time>
      </trkpt>
      <trkpt lat="41.3150571193546" lon="-8.70909947901964">
        <ele>41.8</ele>
        <time>2021-03-20T01:17:29</time>
      </trkpt>
      <trkpt lat="41.3149494118988" lon="-8.70903921313584">
        <ele>41.4</ele>
        <time>2021-03-20T01:17:30</time>
      </trkpt>
      <trkpt lat="41.3148559536785" lon="-8.70897182263434">
        <ele>41.4</ele>
        <time>2021-03-20T01:17:31</time>
      </trkpt>
      <trkpt lat="41.3147587236017" lon="-8.70891004800796">
        <ele>41.2</ele>
        <time>2021-03-20T01:17:32</time>
      </trkpt>
      <trkpt lat="41.3146562129259" lon="-8.70884072966874">
        <ele>41.6</ele>
        <time>2021-03-20T01:17:33</time>
      </trkpt>
      <trkpt lat="41.3145564682782" lon="-8.70877099223435">
        <ele>41.6</ele>
        <time>2021-03-20T01:17:34</time>
      </trkpt>
      <trkpt lat="41.314487401396" lon="-8.70872371830046">
        <ele>41.6</ele>
        <time>2021-03-20T01:17:35</time>
      </trkpt>
      <trkpt lat="41.3143979664892" lon="-8.70866630226374">
        <ele>41.6</ele>
        <time>2021-03-20T01:17:36</time>
      </trkpt>
      <trkpt lat="41.3142744172364" lon="-8.70857980102301">
        <ele>41.6</ele>
        <time>2021-03-20T01:17:37</time>
      </trkpt>
      <trkpt lat="41.3141760975122" lon="-8.7085094768554">
        <ele>41.8</ele>
        <time>2021-03-20T01:17:38</time>
      </trkpt>
      <trkpt lat="41.3140736706555" lon="-8.70843898504972">
        <ele>42</ele>
        <time>2021-03-20T01:17:39</time>
      </trkpt>
      <trkpt lat="41.3139776978642" lon="-8.70837251655758">
        <ele>42</ele>
        <time>2021-03-20T01:17:40</time>
      </trkpt>
      <trkpt lat="41.3138911128044" lon="-8.70831551961601">
        <ele>42.2</ele>
        <time>2021-03-20T01:17:41</time>
      </trkpt>
      <trkpt lat="41.3138167653233" lon="-8.70826221071184">
        <ele>42.4</ele>
        <time>2021-03-20T01:17:42</time>
      </trkpt>
      <trkpt lat="41.3137302640826" lon="-8.70820127427578">
        <ele>42.8</ele>
        <time>2021-03-20T01:17:43</time>
      </trkpt>
      <trkpt lat="41.3136144261807" lon="-8.70812650769949">
        <ele>43</ele>
        <time>2021-03-20T01:17:44</time>
      </trkpt>
      <trkpt lat="41.3135256618261" lon="-8.70806104503572">
        <ele>43</ele>
        <time>2021-03-20T01:17:45</time>
      </trkpt>
      <trkpt lat="41.3134096562862" lon="-8.70797923766076">
        <ele>43.2</ele>
        <time>2021-03-20T01:17:46</time>
      </trkpt>
      <trkpt lat="41.3133412599564" lon="-8.70793221518397">
        <ele>43.4</ele>
        <time>2021-03-20T01:17:47</time>
      </trkpt>
      <trkpt lat="41.3132581114769" lon="-8.70787899009884">
        <ele>43.6</ele>
        <time>2021-03-20T01:17:48</time>
      </trkpt>
      <trkpt lat="41.3131792377681" lon="-8.70782727375626">
        <ele>43.8</ele>
        <time>2021-03-20T01:17:49</time>
      </trkpt>
      <trkpt lat="41.3130913954228" lon="-8.70776399038732">
        <ele>44</ele>
        <time>2021-03-20T01:17:50</time>
      </trkpt>
      <trkpt lat="41.3130096718669" lon="-8.70770833455026">
        <ele>44</ele>
        <time>2021-03-20T01:17:51</time>
      </trkpt>
      <trkpt lat="41.31292543374" lon="-8.70765368454158">
        <ele>44.4</ele>
        <time>2021-03-20T01:17:52</time>
      </trkpt>
      <trkpt lat="41.3128527626395" lon="-8.70760523714125">
        <ele>44.6</ele>
        <time>2021-03-20T01:17:53</time>
      </trkpt>
      <trkpt lat="41.3127761520445" lon="-8.70755519717932">
        <ele>44.6</ele>
        <time>2021-03-20T01:17:54</time>
      </trkpt>
      <trkpt lat="41.3126992061734" lon="-8.70750524103642">
        <ele>44.8</ele>
        <time>2021-03-20T01:17:55</time>
      </trkpt>
      <trkpt lat="41.3126299716532" lon="-8.70746123604476">
        <ele>44.8</ele>
        <time>2021-03-20T01:17:56</time>
      </trkpt>
      <trkpt lat="41.3125706277788" lon="-8.70741647668183">
        <ele>45</ele>
        <time>2021-03-20T01:17:57</time>
      </trkpt>
      <trkpt lat="41.3124732300639" lon="-8.70735352858901">
        <ele>45.2</ele>
        <time>2021-03-20T01:17:58</time>
      </trkpt>
      <trkpt lat="41.3123962003738" lon="-8.70730575174093">
        <ele>45.4</ele>
        <time>2021-03-20T01:17:59</time>
      </trkpt>
      <trkpt lat="41.3123124651611" lon="-8.70725604705512">
        <ele>45.8</ele>
        <time>2021-03-20T01:18:00</time>
      </trkpt>
      <trkpt lat="41.3122374471277" lon="-8.70720667764544">
        <ele>46.2</ele>
        <time>2021-03-20T01:18:01</time>
      </trkpt>
      <trkpt lat="41.3121601659805" lon="-8.70715470984578">
        <ele>46.2</ele>
        <time>2021-03-20T01:18:02</time>
      </trkpt>
      <trkpt lat="41.3120892550796" lon="-8.70710768736899">
        <ele>46.2</ele>
        <time>2021-03-20T01:18:03</time>
      </trkpt>
      <trkpt lat="41.3120126444846" lon="-8.70705328881741">
        <ele>46.4</ele>
        <time>2021-03-20T01:18:04</time>
      </trkpt>
      <trkpt lat="41.3119381293654" lon="-8.70700324885547">
        <ele>46.6</ele>
        <time>2021-03-20T01:18:05</time>
      </trkpt>
      <trkpt lat="41.3118688948452" lon="-8.70695823803544">
        <ele>46.6</ele>
        <time>2021-03-20T01:18:06</time>
      </trkpt>
      <trkpt lat="41.311796894297" lon="-8.70691280812025">
        <ele>46.8</ele>
        <time>2021-03-20T01:18:07</time>
      </trkpt>
      <trkpt lat="41.3117209542543" lon="-8.70686117559671">
        <ele>47.4</ele>
        <time>2021-03-20T01:18:08</time>
      </trkpt>
      <trkpt lat="41.311640907079" lon="-8.70680535212159">
        <ele>47.4</ele>
        <time>2021-03-20T01:18:09</time>
      </trkpt>
      <trkpt lat="41.3115872628987" lon="-8.7067718245089">
        <ele>47.4</ele>
        <time>2021-03-20T01:18:10</time>
      </trkpt>
      <trkpt lat="41.3114939723164" lon="-8.70670979842544">
        <ele>47.4</ele>
        <time>2021-03-20T01:18:11</time>
      </trkpt>
      <trkpt lat="41.3114204630256" lon="-8.70666177012026">
        <ele>47.8</ele>
        <time>2021-03-20T01:18:12</time>
      </trkpt>
      <trkpt lat="41.3113539107144" lon="-8.70661801658571">
        <ele>48</ele>
        <time>2021-03-20T01:18:13</time>
      </trkpt>
      <trkpt lat="41.3112864363939" lon="-8.70657878927886">
        <ele>48</ele>
        <time>2021-03-20T01:18:14</time>
      </trkpt>
      <trkpt lat="41.3112151063979" lon="-8.70653704740107">
        <ele>48.2</ele>
        <time>2021-03-20T01:18:15</time>
      </trkpt>
      <trkpt lat="41.3111379090697" lon="-8.70648122392595">
        <ele>48</ele>
        <time>2021-03-20T01:18:16</time>
      </trkpt>
      <trkpt lat="41.3110761344433" lon="-8.70643931441009">
        <ele>48.2</ele>
        <time>2021-03-20T01:18:17</time>
      </trkpt>
      <trkpt lat="41.3109626434743" lon="-8.70636697858572">
        <ele>48.4</ele>
        <time>2021-03-20T01:18:18</time>
      </trkpt>
      <trkpt lat="41.3109057303518" lon="-8.70632951147854">
        <ele>48.6</ele>
        <time>2021-03-20T01:18:19</time>
      </trkpt>
      <trkpt lat="41.3108276948333" lon="-8.70627402327955">
        <ele>48.8</ele>
        <time>2021-03-20T01:18:20</time>
      </trkpt>
      <trkpt lat="41.3107574544847" lon="-8.70623119175434">
        <ele>48.8</ele>
        <time>2021-03-20T01:18:21</time>
      </trkpt>
      <trkpt lat="41.3106887228787" lon="-8.70618567802012">
        <ele>48.8</ele>
        <time>2021-03-20T01:18:22</time>
      </trkpt>
      <trkpt lat="41.3106191530824" lon="-8.7061383202672">
        <ele>49</ele>
        <time>2021-03-20T01:18:23</time>
      </trkpt>
      <trkpt lat="41.3105391059071" lon="-8.70608350262046">
        <ele>49.2</ele>
        <time>2021-03-20T01:18:24</time>
      </trkpt>
      <trkpt lat="41.3104676920921" lon="-8.70603673160076">
        <ele>49.6</ele>
        <time>2021-03-20T01:18:25</time>
      </trkpt>
      <trkpt lat="41.3103972002864" lon="-8.70598970912397">
        <ele>50</ele>
        <time>2021-03-20T01:18:26</time>
      </trkpt>
      <trkpt lat="41.3103293906897" lon="-8.70594805106521">
        <ele>50</ele>
        <time>2021-03-20T01:18:27</time>
      </trkpt>
      <trkpt lat="41.3102495949715" lon="-8.70589935220778">
        <ele>50</ele>
        <time>2021-03-20T01:18:28</time>
      </trkpt>
      <trkpt lat="41.3101701345295" lon="-8.70584554038942">
        <ele>50</ele>
        <time>2021-03-20T01:18:29</time>
      </trkpt>
      <trkpt lat="41.3101032469422" lon="-8.70580027811229">
        <ele>50</ele>
        <time>2021-03-20T01:18:30</time>
      </trkpt>
      <trkpt lat="41.3100326713175" lon="-8.70575401000679">
        <ele>49.8</ele>
        <time>2021-03-20T01:18:31</time>
      </trkpt>
      <trkpt lat="41.3099553901702" lon="-8.70571000501514">
        <ele>50</ele>
        <time>2021-03-20T01:18:32</time>
      </trkpt>
      <trkpt lat="41.3098797015846" lon="-8.70566273108125">
        <ele>49.8</ele>
        <time>2021-03-20T01:18:33</time>
      </trkpt>
      <trkpt lat="41.3098112214357" lon="-8.7056203186512">
        <ele>49.8</ele>
        <time>2021-03-20T01:18:34</time>
      </trkpt>
      <trkpt lat="41.3097421545535" lon="-8.70557530783117">
        <ele>50.2</ele>
        <time>2021-03-20T01:18:35</time>
      </trkpt>
      <trkpt lat="41.3096704054624" lon="-8.70553272776306">
        <ele>50.4</ele>
        <time>2021-03-20T01:18:36</time>
      </trkpt>
      <trkpt lat="41.3096071220934" lon="-8.70549350045621">
        <ele>50.4</ele>
        <time>2021-03-20T01:18:37</time>
      </trkpt>
      <trkpt lat="41.3095326907933" lon="-8.7054442986846">
        <ele>50.4</ele>
        <time>2021-03-20T01:18:38</time>
      </trkpt>
      <trkpt lat="41.3094556611031" lon="-8.70539199560881">
        <ele>50.8</ele>
        <time>2021-03-20T01:18:39</time>
      </trkpt>
      <trkpt lat="41.309389108792" lon="-8.70534631423652">
        <ele>50.8</ele>
        <time>2021-03-20T01:18:40</time>
      </trkpt>
      <trkpt lat="41.3093157671392" lon="-8.70529283769429">
        <ele>51</ele>
        <time>2021-03-20T01:18:41</time>
      </trkpt>
      <trkpt lat="41.309243934229" lon="-8.70525478385389">
        <ele>51.2</ele>
        <time>2021-03-20T01:18:42</time>
      </trkpt>
      <trkpt lat="41.3091802317649" lon="-8.70521631091833">
        <ele>51.4</ele>
        <time>2021-03-20T01:18:43</time>
      </trkpt>
      <trkpt lat="41.3091083988547" lon="-8.70518018491566">
        <ele>51.4</ele>
        <time>2021-03-20T01:18:44</time>
      </trkpt>
      <trkpt lat="41.3090281002224" lon="-8.70512000285089">
        <ele>51.2</ele>
        <time>2021-03-20T01:18:45</time>
      </trkpt>
      <trkpt lat="41.3089472148567" lon="-8.70506484992802">
        <ele>51.4</ele>
        <time>2021-03-20T01:18:46</time>
      </trkpt>
      <trkpt lat="41.3088731188327" lon="-8.70501950383186">
        <ele>51.6</ele>
        <time>2021-03-20T01:18:47</time>
      </trkpt>
      <trkpt lat="41.3087952509522" lon="-8.7049677874893">
        <ele>51.4</ele>
        <time>2021-03-20T01:18:48</time>
      </trkpt>
      <trkpt lat="41.3087156228721" lon="-8.70491422712803">
        <ele>51.4</ele>
        <time>2021-03-20T01:18:49</time>
      </trkpt>
      <trkpt lat="41.3086372520775" lon="-8.70486401952803">
        <ele>51.6</ele>
        <time>2021-03-20T01:18:50</time>
      </trkpt>
      <trkpt lat="41.3085579592735" lon="-8.70481280609965">
        <ele>51.6</ele>
        <time>2021-03-20T01:18:51</time>
      </trkpt>
      <trkpt lat="41.3084691110998" lon="-8.70475069619715">
        <ele>51.2</ele>
        <time>2021-03-20T01:18:52</time>
      </trkpt>
      <trkpt lat="41.3083907403052" lon="-8.70469872839749">
        <ele>51.4</ele>
        <time>2021-03-20T01:18:53</time>
      </trkpt>
      <trkpt lat="41.3083062507212" lon="-8.70464147999883">
        <ele>51.6</ele>
        <time>2021-03-20T01:18:54</time>
      </trkpt>
      <trkpt lat="41.3082337472588" lon="-8.70459320023656">
        <ele>51.4</ele>
        <time>2021-03-20T01:18:55</time>
      </trkpt>
      <trkpt lat="41.3081544544548" lon="-8.70454248972237">
        <ele>51.6</ele>
        <time>2021-03-20T01:18:56</time>
      </trkpt>
      <trkpt lat="41.3080734014511" lon="-8.70449169538915">
        <ele>51.6</ele>
        <time>2021-03-20T01:18:57</time>
      </trkpt>
      <trkpt lat="41.3079917617142" lon="-8.70443620719016">
        <ele>51.6</ele>
        <time>2021-03-20T01:18:58</time>
      </trkpt>
      <trkpt lat="41.3079086132348" lon="-8.70438222773373">
        <ele>51.6</ele>
        <time>2021-03-20T01:18:59</time>
      </trkpt>
      <trkpt lat="41.3078301586211" lon="-8.70432648807764">
        <ele>51.4</ele>
        <time>2021-03-20T01:19:00</time>
      </trkpt>
      <trkpt lat="41.307747932151" lon="-8.70426882058382">
        <ele>51.4</ele>
        <time>2021-03-20T01:19:01</time>
      </trkpt>
      <trkpt lat="41.3076605927199" lon="-8.70420721359551">
        <ele>51.6</ele>
        <time>2021-03-20T01:19:02</time>
      </trkpt>
      <trkpt lat="41.307573588565" lon="-8.70415583252907">
        <ele>51.2</ele>
        <time>2021-03-20T01:19:03</time>
      </trkpt>
      <trkpt lat="41.3074926193804" lon="-8.70410453528166">
        <ele>51</ele>
        <time>2021-03-20T01:19:04</time>
      </trkpt>
      <trkpt lat="41.3074108958244" lon="-8.70404602959752">
        <ele>51</ele>
        <time>2021-03-20T01:19:05</time>
      </trkpt>
      <trkpt lat="41.3073281664401" lon="-8.70398920029402">
        <ele>50.8</ele>
        <time>2021-03-20T01:19:06</time>
      </trkpt>
      <trkpt lat="41.3072447665036" lon="-8.70393731631339">
        <ele>51</ele>
        <time>2021-03-20T01:19:07</time>
      </trkpt>
      <trkpt lat="41.3071632105857" lon="-8.7038794811815">
        <ele>51</ele>
        <time>2021-03-20T01:19:08</time>
      </trkpt>
      <trkpt lat="41.3070806488395" lon="-8.70382902212441">
        <ele>51</ele>
        <time>2021-03-20T01:19:09</time>
      </trkpt>
      <trkpt lat="41.3069987576455" lon="-8.70377252809703">
        <ele>51</ele>
        <time>2021-03-20T01:19:10</time>
      </trkpt>
      <trkpt lat="41.3069166988134" lon="-8.70371921919286">
        <ele>51</ele>
        <time>2021-03-20T01:19:11</time>
      </trkpt>
      <trkpt lat="41.3068296108395" lon="-8.70366347953677">
        <ele>51</ele>
        <time>2021-03-20T01:19:12</time>
      </trkpt>
      <trkpt lat="41.306754425168" lon="-8.70361804962158">
        <ele>51</ele>
        <time>2021-03-20T01:19:13</time>
      </trkpt>
      <trkpt lat="41.3066729530692" lon="-8.70356381870806">
        <ele>51.4</ele>
        <time>2021-03-20T01:19:14</time>
      </trkpt>
      <trkpt lat="41.3065876252949" lon="-8.70350170880556">
        <ele>51.2</ele>
        <time>2021-03-20T01:19:15</time>
      </trkpt>
      <trkpt lat="41.3065021298826" lon="-8.70344747789204">
        <ele>51.4</ele>
        <time>2021-03-20T01:19:16</time>
      </trkpt>
      <trkpt lat="41.3064431212842" lon="-8.70340674184263">
        <ele>51.2</ele>
        <time>2021-03-20T01:19:17</time>
      </trkpt>
      <trkpt lat="41.3063646666706" lon="-8.70335351675749">
        <ele>51</ele>
        <time>2021-03-20T01:19:18</time>
      </trkpt>
      <trkpt lat="41.3062672689557" lon="-8.70328830555081">
        <ele>51.2</ele>
        <time>2021-03-20T01:19:19</time>
      </trkpt>
      <trkpt lat="41.306188646704" lon="-8.70323449373245">
        <ele>51.2</ele>
        <time>2021-03-20T01:19:20</time>
      </trkpt>
      <trkpt lat="41.3061089348048" lon="-8.70317900553346">
        <ele>51.2</ele>
        <time>2021-03-20T01:19:21</time>
      </trkpt>
      <trkpt lat="41.3060226012021" lon="-8.70311899110675">
        <ele>51.4</ele>
        <time>2021-03-20T01:19:22</time>
      </trkpt>
      <trkpt lat="41.3059691246599" lon="-8.70308621786535">
        <ele>51.6</ele>
        <time>2021-03-20T01:19:23</time>
      </trkpt>
      <trkpt lat="41.3058826234192" lon="-8.70302570052445">
        <ele>51.6</ele>
        <time>2021-03-20T01:19:24</time>
      </trkpt>
      <trkpt lat="41.3057853933424" lon="-8.7029608245939">
        <ele>51.4</ele>
        <time>2021-03-20T01:19:25</time>
      </trkpt>
      <trkpt lat="41.3057049270719" lon="-8.70290474966168">
        <ele>51.6</ele>
        <time>2021-03-20T01:19:26</time>
      </trkpt>
      <trkpt lat="41.3056229520589" lon="-8.70285470969975">
        <ele>51.6</ele>
        <time>2021-03-20T01:19:27</time>
      </trkpt>
      <trkpt lat="41.3055389653891" lon="-8.70279754512012">
        <ele>51.8</ele>
        <time>2021-03-20T01:19:28</time>
      </trkpt>
      <trkpt lat="41.3054532185197" lon="-8.70274230837822">
        <ele>51.8</ele>
        <time>2021-03-20T01:19:29</time>
      </trkpt>
      <trkpt lat="41.3053664658219" lon="-8.70268933475018">
        <ele>52</ele>
        <time>2021-03-20T01:19:30</time>
      </trkpt>
      <trkpt lat="41.3053067028522" lon="-8.70265404693782">
        <ele>52</ele>
        <time>2021-03-20T01:19:31</time>
      </trkpt>
      <trkpt lat="41.3052059523761" lon="-8.7026035040617">
        <ele>52.2</ele>
        <time>2021-03-20T01:19:32</time>
      </trkpt>
      <trkpt lat="41.3051186967641" lon="-8.70257332921028">
        <ele>51.8</ele>
        <time>2021-03-20T01:19:33</time>
      </trkpt>
      <trkpt lat="41.3050351291895" lon="-8.70256578549743">
        <ele>51.4</ele>
        <time>2021-03-20T01:19:34</time>
      </trkpt>
      <trkpt lat="41.3049476221204" lon="-8.70255975052714">
        <ele>51.2</ele>
        <time>2021-03-20T01:19:35</time>
      </trkpt>
      <trkpt lat="41.3048581033945" lon="-8.70253778994084">
        <ele>51.4</ele>
        <time>2021-03-20T01:19:36</time>
      </trkpt>
      <trkpt lat="41.3047964125872" lon="-8.70250904001296">
        <ele>51.8</ele>
        <time>2021-03-20T01:19:37</time>
      </trkpt>
      <trkpt lat="41.3047267589718" lon="-8.70244148187339">
        <ele>51.8</ele>
        <time>2021-03-20T01:19:38</time>
      </trkpt>
      <trkpt lat="41.3046606257558" lon="-8.70235699228942">
        <ele>51.6</ele>
        <time>2021-03-20T01:19:39</time>
      </trkpt>
      <trkpt lat="41.3045829255134" lon="-8.70225699618459">
        <ele>51.2</ele>
        <time>2021-03-20T01:19:40</time>
      </trkpt>
      <trkpt lat="41.3045161217451" lon="-8.70218046940863">
        <ele>51.2</ele>
        <time>2021-03-20T01:19:41</time>
      </trkpt>
      <trkpt lat="41.3044434506446" lon="-8.70212372392416">
        <ele>51.4</ele>
        <time>2021-03-20T01:19:42</time>
      </trkpt>
      <trkpt lat="41.3043631520122" lon="-8.70206630788744">
        <ele>51.6</ele>
        <time>2021-03-20T01:19:43</time>
      </trkpt>
      <trkpt lat="41.3043004553765" lon="-8.70202330872416">
        <ele>51.6</ele>
        <time>2021-03-20T01:19:44</time>
      </trkpt>
      <trkpt lat="41.3042137026787" lon="-8.7019591871649">
        <ele>51.6</ele>
        <time>2021-03-20T01:19:45</time>
      </trkpt>
      <trkpt lat="41.3041206635535" lon="-8.70188375003636">
        <ele>52.2</ele>
        <time>2021-03-20T01:19:46</time>
      </trkpt>
      <trkpt lat="41.3040381018072" lon="-8.70182432234287">
        <ele>51.8</ele>
        <time>2021-03-20T01:19:47</time>
      </trkpt>
      <trkpt lat="41.3039547018707" lon="-8.70178199373186">
        <ele>52</ele>
        <time>2021-03-20T01:19:48</time>
      </trkpt>
      <trkpt lat="41.303873648867" lon="-8.70173597708344">
        <ele>52.2</ele>
        <time>2021-03-20T01:19:49</time>
      </trkpt>
      <trkpt lat="41.3038002233952" lon="-8.70169716887176">
        <ele>52.4</ele>
        <time>2021-03-20T01:19:50</time>
      </trkpt>
      <trkpt lat="41.3037350960076" lon="-8.70165534317494">
        <ele>52.4</ele>
        <time>2021-03-20T01:19:51</time>
      </trkpt>
      <trkpt lat="41.3036259636283" lon="-8.70158501900732">
        <ele>52.6</ele>
        <time>2021-03-20T01:19:52</time>
      </trkpt>
      <trkpt lat="41.3035413902253" lon="-8.70153053663671">
        <ele>52.4</ele>
        <time>2021-03-20T01:19:53</time>
      </trkpt>
      <trkpt lat="41.3034562300891" lon="-8.70144747197628">
        <ele>52.2</ele>
        <time>2021-03-20T01:19:54</time>
      </trkpt>
      <trkpt lat="41.3033737521619" lon="-8.70137672871351">
        <ele>52.2</ele>
        <time>2021-03-20T01:19:55</time>
      </trkpt>
      <trkpt lat="41.3032904360443" lon="-8.70132484473288">
        <ele>52.2</ele>
        <time>2021-03-20T01:19:56</time>
      </trkpt>
      <trkpt lat="41.3032107241452" lon="-8.70127874426544">
        <ele>52.2</ele>
        <time>2021-03-20T01:19:57</time>
      </trkpt>
      <trkpt lat="41.3031497038901" lon="-8.70124530047178">
        <ele>52.2</ele>
        <time>2021-03-20T01:19:58</time>
      </trkpt>
      <trkpt lat="41.3030346203595" lon="-8.70117623358965">
        <ele>52</ele>
        <time>2021-03-20T01:19:59</time>
      </trkpt>
      <trkpt lat="41.3029474485666" lon="-8.70112476870418">
        <ele>51.6</ele>
        <time>2021-03-20T01:20:00</time>
      </trkpt>
      <trkpt lat="41.302864132449" lon="-8.70108420029282">
        <ele>51.6</ele>
        <time>2021-03-20T01:20:01</time>
      </trkpt>
      <trkpt lat="41.302776960656" lon="-8.70102871209383">
        <ele>51.8</ele>
        <time>2021-03-20T01:20:02</time>
      </trkpt>
      <trkpt lat="41.3026916328818" lon="-8.70097322389484">
        <ele>51.8</ele>
        <time>2021-03-20T01:20:03</time>
      </trkpt>
      <trkpt lat="41.3026332110167" lon="-8.70093927718699">
        <ele>51</ele>
        <time>2021-03-20T01:20:04</time>
      </trkpt>
      <trkpt lat="41.3025436084718" lon="-8.70088370516896">
        <ele>51.2</ele>
        <time>2021-03-20T01:20:05</time>
      </trkpt>
      <trkpt lat="41.3024399243295" lon="-8.70081899687648">
        <ele>51.2</ele>
        <time>2021-03-20T01:20:06</time>
      </trkpt>
      <trkpt lat="41.3023597095162" lon="-8.70076501742005">
        <ele>51.6</ele>
        <time>2021-03-20T01:20:07</time>
      </trkpt>
      <trkpt lat="41.3022776506841" lon="-8.70071221143007">
        <ele>51.4</ele>
        <time>2021-03-20T01:20:08</time>
      </trkpt>
      <trkpt lat="41.3021892216057" lon="-8.70065278373659">
        <ele>51.2</ele>
        <time>2021-03-20T01:20:09</time>
      </trkpt>
      <trkpt lat="41.3020994514227" lon="-8.70059167966246">
        <ele>51.4</ele>
        <time>2021-03-20T01:20:10</time>
      </trkpt>
      <trkpt lat="41.3020321447402" lon="-8.70054624974728">
        <ele>52</ele>
        <time>2021-03-20T01:20:11</time>
      </trkpt>
      <trkpt lat="41.3019467331469" lon="-8.70048648677766">
        <ele>52.2</ele>
        <time>2021-03-20T01:20:12</time>
      </trkpt>
      <trkpt lat="41.301835924387" lon="-8.70041767135262">
        <ele>52</ele>
        <time>2021-03-20T01:20:13</time>
      </trkpt>
      <trkpt lat="41.3017531111836" lon="-8.70036880485714">
        <ele>51.4</ele>
        <time>2021-03-20T01:20:14</time>
      </trkpt>
      <trkpt lat="41.3016770873219" lon="-8.70032354258001">
        <ele>51.4</ele>
        <time>2021-03-20T01:20:15</time>
      </trkpt>
      <trkpt lat="41.3015572261065" lon="-8.70025053620338">
        <ele>51.2</ele>
        <time>2021-03-20T01:20:16</time>
      </trkpt>
      <trkpt lat="41.301352204755" lon="-8.70012103579938">
        <ele>51.2</ele>
        <time>2021-03-20T01:20:17</time>
      </trkpt>
      <trkpt lat="41.3012469280511" lon="-8.7000547349453">
        <ele>50.8</ele>
        <time>2021-03-20T01:20:18</time>
      </trkpt>
      <trkpt lat="41.3011562358588" lon="-8.69998717680574">
        <ele>50.4</ele>
        <time>2021-03-20T01:20:19</time>
      </trkpt>
      <trkpt lat="41.3010706566274" lon="-8.69993504136801">
        <ele>50.6</ele>
        <time>2021-03-20T01:20:20</time>
      </trkpt>
      <trkpt lat="41.3009821437299" lon="-8.69987351819873">
        <ele>50.8</ele>
        <time>2021-03-20T01:20:21</time>
      </trkpt>
      <trkpt lat="41.3009086344391" lon="-8.69981702417135">
        <ele>50.8</ele>
        <time>2021-03-20T01:20:22</time>
      </trkpt>
      <trkpt lat="41.300826407969" lon="-8.69976446963847">
        <ele>50.6</ele>
        <time>2021-03-20T01:20:23</time>
      </trkpt>
      <trkpt lat="41.3007427565753" lon="-8.69971367530525">
        <ele>50.4</ele>
        <time>2021-03-20T01:20:24</time>
      </trkpt>
      <trkpt lat="41.3006801437587" lon="-8.6996659822762">
        <ele>50.8</ele>
        <time>2021-03-20T01:20:25</time>
      </trkpt>
      <trkpt lat="41.3005941454321" lon="-8.69960680603981">
        <ele>50.8</ele>
        <time>2021-03-20T01:20:26</time>
      </trkpt>
      <trkpt lat="41.300514433533" lon="-8.69955274276435">
        <ele>51</ele>
        <time>2021-03-20T01:20:27</time>
      </trkpt>
      <trkpt lat="41.300430111587" lon="-8.69949054904282">
        <ele>51.2</ele>
        <time>2021-03-20T01:20:28</time>
      </trkpt>
      <trkpt lat="41.3003497291356" lon="-8.69943204335868">
        <ele>51</ele>
        <time>2021-03-20T01:20:29</time>
      </trkpt>
      <trkpt lat="41.3002844341099" lon="-8.69937982410192">
        <ele>50.6</ele>
        <time>2021-03-20T01:20:30</time>
      </trkpt>
      <trkpt lat="41.3002056442201" lon="-8.69930983521044">
        <ele>50.6</ele>
        <time>2021-03-20T01:20:31</time>
      </trkpt>
      <trkpt lat="41.3001276087016" lon="-8.69923766702414">
        <ele>50.6</ele>
        <time>2021-03-20T01:20:32</time>
      </trkpt>
      <trkpt lat="41.3000507466495" lon="-8.69917522184551">
        <ele>50.6</ele>
        <time>2021-03-20T01:20:33</time>
      </trkpt>
      <trkpt lat="41.2999871280044" lon="-8.69912669062614">
        <ele>50.2</ele>
        <time>2021-03-20T01:20:34</time>
      </trkpt>
      <trkpt lat="41.2999047338963" lon="-8.69906080886722">
        <ele>50.2</ele>
        <time>2021-03-20T01:20:35</time>
      </trkpt>
      <trkpt lat="41.2998291291296" lon="-8.69899668730795">
        <ele>50.2</ele>
        <time>2021-03-20T01:20:36</time>
      </trkpt>
      <trkpt lat="41.299761403352" lon="-8.6989354994148">
        <ele>50.2</ele>
        <time>2021-03-20T01:20:37</time>
      </trkpt>
      <trkpt lat="41.2996949348599" lon="-8.69887104257941">
        <ele>50.4</ele>
        <time>2021-03-20T01:20:38</time>
      </trkpt>
      <trkpt lat="41.2996262032539" lon="-8.69880080223084">
        <ele>50.2</ele>
        <time>2021-03-20T01:20:39</time>
      </trkpt>
      <trkpt lat="41.2995671946555" lon="-8.69873450137675">
        <ele>49.8</ele>
        <time>2021-03-20T01:20:40</time>
      </trkpt>
      <trkpt lat="41.2995007261634" lon="-8.69865319691598">
        <ele>49.6</ele>
        <time>2021-03-20T01:20:41</time>
      </trkpt>
      <trkpt lat="41.2994369398802" lon="-8.69856527075171">
        <ele>49.6</ele>
        <time>2021-03-20T01:20:42</time>
      </trkpt>
      <trkpt lat="41.2993722315878" lon="-8.69846971705556">
        <ele>49.6</ele>
        <time>2021-03-20T01:20:43</time>
      </trkpt>
      <trkpt lat="41.2993257120252" lon="-8.6983984708786">
        <ele>49.6</ele>
        <time>2021-03-20T01:20:44</time>
      </trkpt>
      <trkpt lat="41.299264607951" lon="-8.69830224663019">
        <ele>49.4</ele>
        <time>2021-03-20T01:20:45</time>
      </trkpt>
      <trkpt lat="41.2992079462856" lon="-8.69821700267494">
        <ele>49.4</ele>
        <time>2021-03-20T01:20:46</time>
      </trkpt>
      <trkpt lat="41.299148099497" lon="-8.69812371209264">
        <ele>49.2</ele>
        <time>2021-03-20T01:20:47</time>
      </trkpt>
      <trkpt lat="41.2990887556225" lon="-8.69802581146359">
        <ele>49.2</ele>
        <time>2021-03-20T01:20:48</time>
      </trkpt>
      <trkpt lat="41.2990457564592" lon="-8.69794702157378">
        <ele>49</ele>
        <time>2021-03-20T01:20:49</time>
      </trkpt>
      <trkpt lat="41.2989784497768" lon="-8.69784501381218">
        <ele>48.8</ele>
        <time>2021-03-20T01:20:50</time>
      </trkpt>
      <trkpt lat="41.2989151664078" lon="-8.69774149730802">
        <ele>48.6</ele>
        <time>2021-03-20T01:20:51</time>
      </trkpt>
      <trkpt lat="41.2988471053541" lon="-8.69763068854809">
        <ele>48.6</ele>
        <time>2021-03-20T01:20:52</time>
      </trkpt>
      <trkpt lat="41.2988031003624" lon="-8.69756204076111">
        <ele>48.4</ele>
        <time>2021-03-20T01:20:53</time>
      </trkpt>
      <trkpt lat="41.2987383920699" lon="-8.69745877571404">
        <ele>48.2</ele>
        <time>2021-03-20T01:20:54</time>
      </trkpt>
      <trkpt lat="41.2986782100052" lon="-8.69737453758716">
        <ele>48.2</ele>
        <time>2021-03-20T01:20:55</time>
      </trkpt>
      <trkpt lat="41.2986081372946" lon="-8.69727370329201">
        <ele>48</ele>
        <time>2021-03-20T01:20:56</time>
      </trkpt>
      <trkpt lat="41.298535130918" lon="-8.69717320427299">
        <ele>47.8</ele>
        <time>2021-03-20T01:20:57</time>
      </trkpt>
      <trkpt lat="41.2984855938703" lon="-8.69709927588701">
        <ele>47.6</ele>
        <time>2021-03-20T01:20:58</time>
      </trkpt>
      <trkpt lat="41.2984222266823" lon="-8.69701000861824">
        <ele>47.6</ele>
        <time>2021-03-20T01:20:59</time>
      </trkpt>
      <trkpt lat="41.2983567640185" lon="-8.69690934196114">
        <ele>47.8</ele>
        <time>2021-03-20T01:21:00</time>
      </trkpt>
      <trkpt lat="41.2982936482877" lon="-8.69680699892342">
        <ele>48</ele>
        <time>2021-03-20T01:21:01</time>
      </trkpt>
      <trkpt lat="41.298247128725" lon="-8.69673701003194">
        <ele>48</ele>
        <time>2021-03-20T01:21:02</time>
      </trkpt>
      <trkpt lat="41.2981772236526" lon="-8.69664497673512">
        <ele>48</ele>
        <time>2021-03-20T01:21:03</time>
      </trkpt>
      <trkpt lat="41.2980991881341" lon="-8.69656132534146">
        <ele>47.6</ele>
        <time>2021-03-20T01:21:04</time>
      </trkpt>
      <trkpt lat="41.2979926541448" lon="-8.69651480577886">
        <ele>47.6</ele>
        <time>2021-03-20T01:21:05</time>
      </trkpt>
      <trkpt lat="41.2979347351938" lon="-8.69651271030307">
        <ele>47.4</ele>
        <time>2021-03-20T01:21:06</time>
      </trkpt>
      <trkpt lat="41.2978514190763" lon="-8.6964609939605">
        <ele>47.2</ele>
        <time>2021-03-20T01:21:07</time>
      </trkpt>
      <trkpt lat="41.2977746408433" lon="-8.69638371281326">
        <ele>46.8</ele>
        <time>2021-03-20T01:21:08</time>
      </trkpt>
      <trkpt lat="41.2977377604693" lon="-8.69629980996251">
        <ele>46.6</ele>
        <time>2021-03-20T01:21:09</time>
      </trkpt>
      <trkpt lat="41.2977049034089" lon="-8.69620576500893">
        <ele>46.6</ele>
        <time>2021-03-20T01:21:10</time>
      </trkpt>
      <trkpt lat="41.2976904027164" lon="-8.69610568508506">
        <ele>46.6</ele>
        <time>2021-03-20T01:21:11</time>
      </trkpt>
      <trkpt lat="41.2976679392159" lon="-8.69600032456219">
        <ele>46.6</ele>
        <time>2021-03-20T01:21:12</time>
      </trkpt>
      <trkpt lat="41.2976566236466" lon="-8.69590418413281">
        <ele>46.2</ele>
        <time>2021-03-20T01:21:13</time>
      </trkpt>
      <trkpt lat="41.297620665282" lon="-8.69580368511379">
        <ele>45.8</ele>
        <time>2021-03-20T01:21:14</time>
      </trkpt>
      <trkpt lat="41.2975684460252" lon="-8.69571383111179">
        <ele>45.6</ele>
        <time>2021-03-20T01:21:15</time>
      </trkpt>
      <trkpt lat="41.2975101079792" lon="-8.69563898071647">
        <ele>45.4</ele>
        <time>2021-03-20T01:21:16</time>
      </trkpt>
      <trkpt lat="41.297443639487" lon="-8.69556278921664">
        <ele>45.2</ele>
        <time>2021-03-20T01:21:17</time>
      </trkpt>
      <trkpt lat="41.2973857205361" lon="-8.69547628797591">
        <ele>45</ele>
        <time>2021-03-20T01:21:18</time>
      </trkpt>
      <trkpt lat="41.2973013985902" lon="-8.69535684585571">
        <ele>44.4</ele>
        <time>2021-03-20T01:21:19</time>
      </trkpt>
      <trkpt lat="41.2972531188279" lon="-8.69528434239328">
        <ele>44.4</ele>
        <time>2021-03-20T01:21:20</time>
      </trkpt>
      <trkpt lat="41.2971791066229" lon="-8.69517646729946">
        <ele>44.2</ele>
        <time>2021-03-20T01:21:21</time>
      </trkpt>
      <trkpt lat="41.2971149012446" lon="-8.6950793210417">
        <ele>43.6</ele>
        <time>2021-03-20T01:21:22</time>
      </trkpt>
      <trkpt lat="41.2970359437168" lon="-8.69496029801667">
        <ele>43.4</ele>
        <time>2021-03-20T01:21:23</time>
      </trkpt>
      <trkpt lat="41.2969796173274" lon="-8.6948826815933">
        <ele>43.4</ele>
        <time>2021-03-20T01:21:24</time>
      </trkpt>
      <trkpt lat="41.2969128973782" lon="-8.69479299522936">
        <ele>43.6</ele>
        <time>2021-03-20T01:21:25</time>
      </trkpt>
      <trkpt lat="41.2968403939158" lon="-8.69469182565808">
        <ele>43.4</ele>
        <time>2021-03-20T01:21:26</time>
      </trkpt>
      <trkpt lat="41.2967702373862" lon="-8.69459350593388">
        <ele>43</ele>
        <time>2021-03-20T01:21:27</time>
      </trkpt>
      <trkpt lat="41.2966968957335" lon="-8.69448822923005">
        <ele>43</ele>
        <time>2021-03-20T01:21:28</time>
      </trkpt>
      <trkpt lat="41.2966101430356" lon="-8.69435470551252">
        <ele>42.6</ele>
        <time>2021-03-20T01:21:29</time>
      </trkpt>
      <trkpt lat="41.2965521402657" lon="-8.69427197612822">
        <ele>42.4</ele>
        <time>2021-03-20T01:21:30</time>
      </trkpt>
      <trkpt lat="41.296484163031" lon="-8.69416829198599">
        <ele>42.6</ele>
        <time>2021-03-20T01:21:31</time>
      </trkpt>
      <trkpt lat="41.2963037006557" lon="-8.69390199892223">
        <ele>42.6</ele>
        <time>2021-03-20T01:21:32</time>
      </trkpt>
      <trkpt lat="41.2962285988033" lon="-8.69378867559135">
        <ele>42.4</ele>
        <time>2021-03-20T01:21:33</time>
      </trkpt>
      <trkpt lat="41.2961534131318" lon="-8.69367334060371">
        <ele>42.2</ele>
        <time>2021-03-20T01:21:34</time>
      </trkpt>
      <trkpt lat="41.2960970867425" lon="-8.69359170086682">
        <ele>42</ele>
        <time>2021-03-20T01:21:35</time>
      </trkpt>
      <trkpt lat="41.2960352282971" lon="-8.69349304586649">
        <ele>41.6</ele>
        <time>2021-03-20T01:21:36</time>
      </trkpt>
      <trkpt lat="41.2959646526724" lon="-8.69338726624846">
        <ele>41.6</ele>
        <time>2021-03-20T01:21:37</time>
      </trkpt>
      <trkpt lat="41.2958898860961" lon="-8.69327654130757">
        <ele>42</ele>
        <time>2021-03-20T01:21:38</time>
      </trkpt>
      <trkpt lat="41.2958276923746" lon="-8.69318266399205">
        <ele>41.8</ele>
        <time>2021-03-20T01:21:39</time>
      </trkpt>
      <trkpt lat="41.295770611614" lon="-8.69310253299773">
        <ele>41.6</ele>
        <time>2021-03-20T01:21:40</time>
      </trkpt>
      <trkpt lat="41.2956996168941" lon="-8.69300270453096">
        <ele>41.2</ele>
        <time>2021-03-20T01:21:41</time>
      </trkpt>
      <trkpt lat="41.2956242635846" lon="-8.69290522299707">
        <ele>41</ele>
        <time>2021-03-20T01:21:42</time>
      </trkpt>
      <trkpt lat="41.295548658818" lon="-8.69280078448355">
        <ele>40.8</ele>
        <time>2021-03-20T01:21:43</time>
      </trkpt>
      <trkpt lat="41.2954892311245" lon="-8.69271277450025">
        <ele>40.8</ele>
        <time>2021-03-20T01:21:44</time>
      </trkpt>
      <trkpt lat="41.2954151351005" lon="-8.69261001236737">
        <ele>40.4</ele>
        <time>2021-03-20T01:21:45</time>
      </trkpt>
      <trkpt lat="41.2953481636941" lon="-8.69251169264316">
        <ele>39.6</ele>
        <time>2021-03-20T01:21:46</time>
      </trkpt>
      <trkpt lat="41.2952731456608" lon="-8.69240432046354">
        <ele>39.2</ele>
        <time>2021-03-20T01:21:47</time>
      </trkpt>
      <trkpt lat="41.2952091917396" lon="-8.69229828938842">
        <ele>38.6</ele>
        <time>2021-03-20T01:21:48</time>
      </trkpt>
      <trkpt lat="41.2951576430351" lon="-8.69221379980445">
        <ele>38.2</ele>
        <time>2021-03-20T01:21:49</time>
      </trkpt>
      <trkpt lat="41.2950812000781" lon="-8.69209804572165">
        <ele>37.6</ele>
        <time>2021-03-20T01:21:50</time>
      </trkpt>
      <trkpt lat="41.2950055953115" lon="-8.69198019616306">
        <ele>37.2</ele>
        <time>2021-03-20T01:21:51</time>
      </trkpt>
      <trkpt lat="41.2949267216027" lon="-8.6918677110225">
        <ele>37</ele>
        <time>2021-03-20T01:21:52</time>
      </trkpt>
      <trkpt lat="41.2948651984334" lon="-8.6917810421437">
        <ele>36.4</ele>
        <time>2021-03-20T01:21:53</time>
      </trkpt>
      <trkpt lat="41.2947872467339" lon="-8.69166671298444">
        <ele>35.8</ele>
        <time>2021-03-20T01:21:54</time>
      </trkpt>
      <trkpt lat="41.2947144079953" lon="-8.69155816733837">
        <ele>35</ele>
        <time>2021-03-20T01:21:55</time>
      </trkpt>
      <trkpt lat="41.2946322653443" lon="-8.69143269024789">
        <ele>34.2</ele>
        <time>2021-03-20T01:21:56</time>
      </trkpt>
      <trkpt lat="41.2945662159473" lon="-8.69133596308529">
        <ele>33.6</ele>
        <time>2021-03-20T01:21:57</time>
      </trkpt>
      <trkpt lat="41.2944896053523" lon="-8.69121903553605">
        <ele>33</ele>
        <time>2021-03-20T01:21:58</time>
      </trkpt>
      <trkpt lat="41.2943941354752" lon="-8.69106933474541">
        <ele>32.6</ele>
        <time>2021-03-20T01:21:59</time>
      </trkpt>
      <trkpt lat="41.2942916247994" lon="-8.69091854430735">
        <ele>32.2</ele>
        <time>2021-03-20T01:22:00</time>
      </trkpt>
      <trkpt lat="41.294161118567" lon="-8.69070832617581">
        <ele>31.2</ele>
        <time>2021-03-20T01:22:01</time>
      </trkpt>
      <trkpt lat="41.2940801493824" lon="-8.69057329371572">
        <ele>30.4</ele>
        <time>2021-03-20T01:22:02</time>
      </trkpt>
      <trkpt lat="41.2939942348748" lon="-8.69044404476881">
        <ele>29.6</ele>
        <time>2021-03-20T01:22:03</time>
      </trkpt>
      <trkpt lat="41.2939068954438" lon="-8.69030850939453">
        <ele>29.2</ele>
        <time>2021-03-20T01:22:04</time>
      </trkpt>
      <trkpt lat="41.293844114989" lon="-8.69021404534578">
        <ele>28.8</ele>
        <time>2021-03-20T01:22:05</time>
      </trkpt>
      <trkpt lat="41.2937511596829" lon="-8.69008027017116">
        <ele>28.8</ele>
        <time>2021-03-20T01:22:06</time>
      </trkpt>
      <trkpt lat="41.2936587072909" lon="-8.6899521946907">
        <ele>28.4</ele>
        <time>2021-03-20T01:22:07</time>
      </trkpt>
      <trkpt lat="41.2935829348862" lon="-8.68983778171241">
        <ele>28</ele>
        <time>2021-03-20T01:22:08</time>
      </trkpt>
      <trkpt lat="41.2935221660882" lon="-8.68974767625332">
        <ele>28</ele>
        <time>2021-03-20T01:22:09</time>
      </trkpt>
      <trkpt lat="41.2934461422265" lon="-8.68961976841092">
        <ele>27.8</ele>
        <time>2021-03-20T01:22:10</time>
      </trkpt>
      <trkpt lat="41.2933626584709" lon="-8.68948750197887">
        <ele>27.6</ele>
        <time>2021-03-20T01:22:11</time>
      </trkpt>
      <trkpt lat="41.2932794261724" lon="-8.6893567442894">
        <ele>27.4</ele>
        <time>2021-03-20T01:22:12</time>
      </trkpt>
      <trkpt lat="41.2932197470218" lon="-8.68926228024066">
        <ele>27.4</ele>
        <time>2021-03-20T01:22:13</time>
      </trkpt>
      <trkpt lat="41.2931314017624" lon="-8.68912934325636">
        <ele>27.6</ele>
        <time>2021-03-20T01:22:14</time>
      </trkpt>
      <trkpt lat="41.2930412124842" lon="-8.68899749591946">
        <ele>27.4</ele>
        <time>2021-03-20T01:22:15</time>
      </trkpt>
      <trkpt lat="41.2929578963667" lon="-8.68887696415186">
        <ele>27.6</ele>
        <time>2021-03-20T01:22:16</time>
      </trkpt>
      <trkpt lat="41.2928964570165" lon="-8.68878032080829">
        <ele>27.8</ele>
        <time>2021-03-20T01:22:17</time>
      </trkpt>
      <trkpt lat="41.2928177509457" lon="-8.68866481818259">
        <ele>28.2</ele>
        <time>2021-03-20T01:22:18</time>
      </trkpt>
      <trkpt lat="41.2927356082946" lon="-8.6885430291295">
        <ele>28.4</ele>
        <time>2021-03-20T01:22:19</time>
      </trkpt>
      <trkpt lat="41.2926524598151" lon="-8.68842082098126">
        <ele>28.6</ele>
        <time>2021-03-20T01:22:20</time>
      </trkpt>
      <trkpt lat="41.2925906851888" lon="-8.68832602165639">
        <ele>29</ele>
        <time>2021-03-20T01:22:21</time>
      </trkpt>
      <trkpt lat="41.2925084587187" lon="-8.68820180185139">
        <ele>29.6</ele>
        <time>2021-03-20T01:22:22</time>
      </trkpt>
      <trkpt lat="41.2924286630005" lon="-8.68808001279831">
        <ele>29.6</ele>
        <time>2021-03-20T01:22:23</time>
      </trkpt>
      <trkpt lat="41.2923522200435" lon="-8.68796417489648">
        <ele>30</ele>
        <time>2021-03-20T01:22:24</time>
      </trkpt>
      <trkpt lat="41.292274100706" lon="-8.68784498423338">
        <ele>30.6</ele>
        <time>2021-03-20T01:22:25</time>
      </trkpt>
      <trkpt lat="41.2922024354339" lon="-8.68773819878697">
        <ele>30.6</ele>
        <time>2021-03-20T01:22:26</time>
      </trkpt>
      <trkpt lat="41.2921264115721" lon="-8.68762454017997">
        <ele>30.8</ele>
        <time>2021-03-20T01:22:27</time>
      </trkpt>
      <trkpt lat="41.292052231729" lon="-8.68751029483974">
        <ele>31.2</ele>
        <time>2021-03-20T01:22:28</time>
      </trkpt>
      <trkpt lat="41.2919792253524" lon="-8.68739898316562">
        <ele>31.4</ele>
        <time>2021-03-20T01:22:29</time>
      </trkpt>
      <trkpt lat="41.2919082306325" lon="-8.68729571811855">
        <ele>31.6</ele>
        <time>2021-03-20T01:22:30</time>
      </trkpt>
      <trkpt lat="41.2918322067708" lon="-8.68717770092189">
        <ele>31.6</ele>
        <time>2021-03-20T01:22:31</time>
      </trkpt>
      <trkpt lat="41.2917584460229" lon="-8.6870667245239">
        <ele>31.6</ele>
        <time>2021-03-20T01:22:32</time>
      </trkpt>
      <trkpt lat="41.2916819192469" lon="-8.68696304038167">
        <ele>32</ele>
        <time>2021-03-20T01:22:33</time>
      </trkpt>
      <trkpt lat="41.2916119303554" lon="-8.68686203844845">
        <ele>32</ele>
        <time>2021-03-20T01:22:34</time>
      </trkpt>
      <trkpt lat="41.2915402650833" lon="-8.68675852194428">
        <ele>32</ele>
        <time>2021-03-20T01:22:35</time>
      </trkpt>
      <trkpt lat="41.2914372514933" lon="-8.68660354055464">
        <ele>31.8</ele>
        <time>2021-03-20T01:22:36</time>
      </trkpt>
      <trkpt lat="41.2913426198065" lon="-8.68646079674363">
        <ele>31.6</ele>
        <time>2021-03-20T01:22:37</time>
      </trkpt>
      <trkpt lat="41.2912736367434" lon="-8.68636121973395">
        <ele>31.6</ele>
        <time>2021-03-20T01:22:38</time>
      </trkpt>
      <trkpt lat="41.2912096828222" lon="-8.68627681396902">
        <ele>31.8</ele>
        <time>2021-03-20T01:22:39</time>
      </trkpt>
      <trkpt lat="41.2911394424736" lon="-8.68617866188288">
        <ele>31.8</ele>
        <time>2021-03-20T01:22:40</time>
      </trkpt>
      <trkpt lat="41.2910912465304" lon="-8.68611571379006">
        <ele>32</ele>
        <time>2021-03-20T01:22:41</time>
      </trkpt>
      <trkpt lat="41.291024107486" lon="-8.68602351285517">
        <ele>32</ele>
        <time>2021-03-20T01:22:42</time>
      </trkpt>
      <trkpt lat="41.2909596506506" lon="-8.68593282066286">
        <ele>32.2</ele>
        <time>2021-03-20T01:22:43</time>
      </trkpt>
      <trkpt lat="41.2908969540149" lon="-8.68584481067956">
        <ele>32.2</ele>
        <time>2021-03-20T01:22:44</time>
      </trkpt>
      <trkpt lat="41.2908536195755" lon="-8.68577683344484">
        <ele>32.6</ele>
        <time>2021-03-20T01:22:45</time>
      </trkpt>
      <trkpt lat="41.2907877378166" lon="-8.68568278849125">
        <ele>33</ele>
        <time>2021-03-20T01:22:46</time>
      </trkpt>
      <trkpt lat="41.2907304055989" lon="-8.68559318594634">
        <ele>33.6</ele>
        <time>2021-03-20T01:22:47</time>
      </trkpt>
      <trkpt lat="41.2906755879521" lon="-8.68550517596304">
        <ele>34</ele>
        <time>2021-03-20T01:22:48</time>
      </trkpt>
      <trkpt lat="41.2906344328076" lon="-8.68543879128992">
        <ele>34.4</ele>
        <time>2021-03-20T01:22:49</time>
      </trkpt>
      <trkpt lat="41.2905804533511" lon="-8.68535396642983">
        <ele>34.8</ele>
        <time>2021-03-20T01:22:50</time>
      </trkpt>
      <trkpt lat="41.2905209418386" lon="-8.68526520207524">
        <ele>35</ele>
        <time>2021-03-20T01:22:51</time>
      </trkpt>
      <trkpt lat="41.2904577422887" lon="-8.68517727591097">
        <ele>35</ele>
        <time>2021-03-20T01:22:52</time>
      </trkpt>
      <trkpt lat="41.2904160842299" lon="-8.68511533364654">
        <ele>35.2</ele>
        <time>2021-03-20T01:22:53</time>
      </trkpt>
      <trkpt lat="41.2903577461839" lon="-8.68503696285188">
        <ele>35.4</ele>
        <time>2021-03-20T01:22:54</time>
      </trkpt>
      <trkpt lat="41.2902875896543" lon="-8.68493746966124">
        <ele>35.8</ele>
        <time>2021-03-20T01:22:55</time>
      </trkpt>
      <trkpt lat="41.2902371305972" lon="-8.6848596855998">
        <ele>36</ele>
        <time>2021-03-20T01:22:56</time>
      </trkpt>
      <trkpt lat="41.2902015913278" lon="-8.68479833006859">
        <ele>36.4</ele>
        <time>2021-03-20T01:22:57</time>
      </trkpt>
      <trkpt lat="41.2901512160897" lon="-8.68469984270632">
        <ele>36.8</ele>
        <time>2021-03-20T01:22:58</time>
      </trkpt>
      <trkpt lat="41.2900821492076" lon="-8.68458568118513">
        <ele>36.8</ele>
        <time>2021-03-20T01:22:59</time>
      </trkpt>
      <trkpt lat="41.2900481186807" lon="-8.68452901951969">
        <ele>37.4</ele>
        <time>2021-03-20T01:23:00</time>
      </trkpt>
      <trkpt lat="41.2899967376143" lon="-8.68444452993572">
        <ele>37.8</ele>
        <time>2021-03-20T01:23:01</time>
      </trkpt>
      <trkpt lat="41.289927419275" lon="-8.68433380499482">
        <ele>37.8</ele>
        <time>2021-03-20T01:23:02</time>
      </trkpt>
      <trkpt lat="41.2898802291602" lon="-8.68425627239048">
        <ele>37.8</ele>
        <time>2021-03-20T01:23:03</time>
      </trkpt>
      <trkpt lat="41.2898493837565" lon="-8.68420229293406">
        <ele>38.2</ele>
        <time>2021-03-20T01:23:04</time>
      </trkpt>
      <trkpt lat="41.2897974159569" lon="-8.68412568233907">
        <ele>38.6</ele>
        <time>2021-03-20T01:23:05</time>
      </trkpt>
      <trkpt lat="41.2897519022226" lon="-8.68405451998114">
        <ele>39</ele>
        <time>2021-03-20T01:23:06</time>
      </trkpt>
      <trkpt lat="41.2896931450814" lon="-8.68397799320519">
        <ele>39.2</ele>
        <time>2021-03-20T01:23:07</time>
      </trkpt>
      <trkpt lat="41.2896469607949" lon="-8.68391630239785">
        <ele>39.4</ele>
        <time>2021-03-20T01:23:08</time>
      </trkpt>
      <trkpt lat="41.2895827554166" lon="-8.68383516557515">
        <ele>39.4</ele>
        <time>2021-03-20T01:23:09</time>
      </trkpt>
      <trkpt lat="41.2895269319415" lon="-8.68376467376947">
        <ele>39.8</ele>
        <time>2021-03-20T01:23:10</time>
      </trkpt>
      <trkpt lat="41.2894907221198" lon="-8.68371916003525">
        <ele>40</ele>
        <time>2021-03-20T01:23:11</time>
      </trkpt>
      <trkpt lat="41.2894446216524" lon="-8.683668281883">
        <ele>40.4</ele>
        <time>2021-03-20T01:23:12</time>
      </trkpt>
      <trkpt lat="41.2893932405859" lon="-8.6836027354002">
        <ele>40.6</ele>
        <time>2021-03-20T01:23:13</time>
      </trkpt>
      <trkpt lat="41.2893401831388" lon="-8.68354129604995">
        <ele>40.8</ele>
        <time>2021-03-20T01:23:14</time>
      </trkpt>
      <trkpt lat="41.2892841082066" lon="-8.68347600102425">
        <ele>41</ele>
        <time>2021-03-20T01:23:15</time>
      </trkpt>
      <trkpt lat="41.2892139516771" lon="-8.68339880369604">
        <ele>41.4</ele>
        <time>2021-03-20T01:23:16</time>
      </trkpt>
      <trkpt lat="41.2891691923142" lon="-8.68335002101958">
        <ele>41.6</ele>
        <time>2021-03-20T01:23:17</time>
      </trkpt>
      <trkpt lat="41.2891126982868" lon="-8.68329629302025">
        <ele>42</ele>
        <time>2021-03-20T01:23:18</time>
      </trkpt>
      <trkpt lat="41.2890576291829" lon="-8.68324633687734">
        <ele>42.4</ele>
        <time>2021-03-20T01:23:19</time>
      </trkpt>
      <trkpt lat="41.2890061642975" lon="-8.68320149369538">
        <ele>42.8</ele>
        <time>2021-03-20T01:23:20</time>
      </trkpt>
      <trkpt lat="41.2889516819268" lon="-8.68314952589571">
        <ele>43</ele>
        <time>2021-03-20T01:23:21</time>
      </trkpt>
      <trkpt lat="41.2888851296157" lon="-8.68309118784964">
        <ele>43.4</ele>
        <time>2021-03-20T01:23:22</time>
      </trkpt>
      <trkpt lat="41.2888432200998" lon="-8.6830519605428">
        <ele>43.4</ele>
        <time>2021-03-20T01:23:23</time>
      </trkpt>
      <trkpt lat="41.2887876480818" lon="-8.68300921283662">
        <ele>43.8</ele>
        <time>2021-03-20T01:23:24</time>
      </trkpt>
      <trkpt lat="41.2887312378734" lon="-8.68296998552978">
        <ele>44.2</ele>
        <time>2021-03-20T01:23:25</time>
      </trkpt>
      <trkpt lat="41.2886713910848" lon="-8.68292497470975">
        <ele>44.4</ele>
        <time>2021-03-20T01:23:26</time>
      </trkpt>
      <trkpt lat="41.2886133883148" lon="-8.68288172408938">
        <ele>44.6</ele>
        <time>2021-03-20T01:23:27</time>
      </trkpt>
      <trkpt lat="41.2885573972017" lon="-8.6828426644206">
        <ele>44.8</ele>
        <time>2021-03-20T01:23:28</time>
      </trkpt>
      <trkpt lat="41.2884959578514" lon="-8.68280176073313">
        <ele>45</ele>
        <time>2021-03-20T01:23:29</time>
      </trkpt>
      <trkpt lat="41.2884294055402" lon="-8.68275524117052">
        <ele>45.2</ele>
        <time>2021-03-20T01:23:30</time>
      </trkpt>
      <trkpt lat="41.2883641943336" lon="-8.68270947597921">
        <ele>45.6</ele>
        <time>2021-03-20T01:23:31</time>
      </trkpt>
      <trkpt lat="41.2883051019162" lon="-8.68267276324332">
        <ele>45.6</ele>
        <time>2021-03-20T01:23:32</time>
      </trkpt>
      <trkpt lat="41.2882489431649" lon="-8.68263898417354">
        <ele>45.8</ele>
        <time>2021-03-20T01:23:33</time>
      </trkpt>
      <trkpt lat="41.2881774455309" lon="-8.68258877657354">
        <ele>46</ele>
        <time>2021-03-20T01:23:34</time>
      </trkpt>
      <trkpt lat="41.2881152518094" lon="-8.68254820816219">
        <ele>46.6</ele>
        <time>2021-03-20T01:23:35</time>
      </trkpt>
      <trkpt lat="41.2880516331643" lon="-8.68250302970409">
        <ele>46.6</ele>
        <time>2021-03-20T01:23:36</time>
      </trkpt>
      <trkpt lat="41.2879914510995" lon="-8.6824649758637">
        <ele>46.8</ele>
        <time>2021-03-20T01:23:37</time>
      </trkpt>
      <trkpt lat="41.2879295926541" lon="-8.68242583237588">
        <ele>47.2</ele>
        <time>2021-03-20T01:23:38</time>
      </trkpt>
      <trkpt lat="41.2878777086735" lon="-8.68239347822964">
        <ele>47.6</ele>
        <time>2021-03-20T01:23:39</time>
      </trkpt>
      <trkpt lat="41.2878197059035" lon="-8.68235869333148">
        <ele>47.8</ele>
        <time>2021-03-20T01:23:40</time>
      </trkpt>
      <trkpt lat="41.2877567578107" lon="-8.68231971748173">
        <ele>48</ele>
        <time>2021-03-20T01:23:41</time>
      </trkpt>
      <trkpt lat="41.2877101544291" lon="-8.68229079991579">
        <ele>48.4</ele>
        <time>2021-03-20T01:23:42</time>
      </trkpt>
      <trkpt lat="41.2876334600151" lon="-8.68224201723933">
        <ele>48.4</ele>
        <time>2021-03-20T01:23:43</time>
      </trkpt>
      <trkpt lat="41.2875714339316" lon="-8.68220278993249">
        <ele>48.4</ele>
        <time>2021-03-20T01:23:44</time>
      </trkpt>
      <trkpt lat="41.2875094078481" lon="-8.68216574192047">
        <ele>48.6</ele>
        <time>2021-03-20T01:23:45</time>
      </trkpt>
      <trkpt lat="41.2874488905072" lon="-8.68213347159326">
        <ele>48.8</ele>
        <time>2021-03-20T01:23:46</time>
      </trkpt>
      <trkpt lat="41.2873887084424" lon="-8.68209650740028">
        <ele>49</ele>
        <time>2021-03-20T01:23:47</time>
      </trkpt>
      <trkpt lat="41.287329448387" lon="-8.68206230923534">
        <ele>49.2</ele>
        <time>2021-03-20T01:23:48</time>
      </trkpt>
      <trkpt lat="41.2872820906341" lon="-8.68203070946038">
        <ele>49.4</ele>
        <time>2021-03-20T01:23:49</time>
      </trkpt>
      <trkpt lat="41.2872047256678" lon="-8.68197899311781">
        <ele>49.6</ele>
        <time>2021-03-20T01:23:50</time>
      </trkpt>
      <trkpt lat="41.2871406041086" lon="-8.6819361615926">
        <ele>49.6</ele>
        <time>2021-03-20T01:23:51</time>
      </trkpt>
      <trkpt lat="41.2870794162154" lon="-8.68189852684736">
        <ele>49.6</ele>
        <time>2021-03-20T01:23:52</time>
      </trkpt>
      <trkpt lat="41.2870192341506" lon="-8.6818603053689">
        <ele>49.8</ele>
        <time>2021-03-20T01:23:53</time>
      </trkpt>
      <trkpt lat="41.2869546096772" lon="-8.68181831203401">
        <ele>49.8</ele>
        <time>2021-03-20T01:23:54</time>
      </trkpt>
      <trkpt lat="41.2869072519243" lon="-8.68178822100162">
        <ele>49.8</ele>
        <time>2021-03-20T01:23:55</time>
      </trkpt>
      <trkpt lat="41.2868345808238" lon="-8.68174019269645">
        <ele>50</ele>
        <time>2021-03-20T01:23:56</time>
      </trkpt>
      <trkpt lat="41.2867737282068" lon="-8.68170029483736">
        <ele>50</ele>
        <time>2021-03-20T01:23:57</time>
      </trkpt>
      <trkpt lat="41.2867153901607" lon="-8.68166383355856">
        <ele>49.8</ele>
        <time>2021-03-20T01:23:58</time>
      </trkpt>
      <trkpt lat="41.2866531964392" lon="-8.68161966092884">
        <ele>49.6</ele>
        <time>2021-03-20T01:23:59</time>
      </trkpt>
      <trkpt lat="41.2865891586989" lon="-8.68157523684204">
        <ele>49.4</ele>
        <time>2021-03-20T01:24:00</time>
      </trkpt>
      <trkpt lat="41.2865249533206" lon="-8.68152745999396">
        <ele>49.6</ele>
        <time>2021-03-20T01:24:01</time>
      </trkpt>
      <trkpt lat="41.2864767573774" lon="-8.6814942676574">
        <ele>49.4</ele>
        <time>2021-03-20T01:24:02</time>
      </trkpt>
      <trkpt lat="41.286404253915" lon="-8.68144850246608">
        <ele>49.2</ele>
        <time>2021-03-20T01:24:03</time>
      </trkpt>
      <trkpt lat="41.2863387074322" lon="-8.68140332400799">
        <ele>49</ele>
        <time>2021-03-20T01:24:04</time>
      </trkpt>
      <trkpt lat="41.2862727418542" lon="-8.68135672062636">
        <ele>48.6</ele>
        <time>2021-03-20T01:24:05</time>
      </trkpt>
      <trkpt lat="41.2862118892372" lon="-8.68131472729146">
        <ele>48.6</ele>
        <time>2021-03-20T01:24:06</time>
      </trkpt>
      <trkpt lat="41.2861486896872" lon="-8.68127868510783">
        <ele>48.4</ele>
        <time>2021-03-20T01:24:07</time>
      </trkpt>
      <trkpt lat="41.2860828917474" lon="-8.68123677559197">
        <ele>48.4</ele>
        <time>2021-03-20T01:24:08</time>
      </trkpt>
      <trkpt lat="41.2860121484846" lon="-8.681197213009">
        <ele>48.2</ele>
        <time>2021-03-20T01:24:09</time>
      </trkpt>
      <trkpt lat="41.2859412375838" lon="-8.68115270510316">
        <ele>47.6</ele>
        <time>2021-03-20T01:24:10</time>
      </trkpt>
      <trkpt lat="41.2858725897968" lon="-8.68111347779632">
        <ele>47.4</ele>
        <time>2021-03-20T01:24:11</time>
      </trkpt>
      <trkpt lat="41.2858002539724" lon="-8.68106922134757">
        <ele>47</ele>
        <time>2021-03-20T01:24:12</time>
      </trkpt>
      <trkpt lat="41.2857201229781" lon="-8.68101482279599">
        <ele>46.4</ele>
        <time>2021-03-20T01:24:13</time>
      </trkpt>
      <trkpt lat="41.2856451887637" lon="-8.68096478283405">
        <ele>46.2</ele>
        <time>2021-03-20T01:24:14</time>
      </trkpt>
      <trkpt lat="41.2855778820813" lon="-8.68093552999198">
        <ele>45.8</ele>
        <time>2021-03-20T01:24:15</time>
      </trkpt>
      <trkpt lat="41.2855062168092" lon="-8.68089873343706">
        <ele>45.2</ele>
        <time>2021-03-20T01:24:16</time>
      </trkpt>
      <trkpt lat="41.2854274269193" lon="-8.68084626272321">
        <ele>44.6</ele>
        <time>2021-03-20T01:24:17</time>
      </trkpt>
      <trkpt lat="41.2853336334228" lon="-8.68078683502972">
        <ele>44.2</ele>
        <time>2021-03-20T01:24:18</time>
      </trkpt>
      <trkpt lat="41.2852694280446" lon="-8.68074928410351">
        <ele>43.4</ele>
        <time>2021-03-20T01:24:19</time>
      </trkpt>
      <trkpt lat="41.2851981818676" lon="-8.68071072734892">
        <ele>43</ele>
        <time>2021-03-20T01:24:20</time>
      </trkpt>
      <trkpt lat="41.2851187214255" lon="-8.6806517187506">
        <ele>42.4</ele>
        <time>2021-03-20T01:24:21</time>
      </trkpt>
      <trkpt lat="41.2850357405841" lon="-8.68060318753123">
        <ele>41.8</ele>
        <time>2021-03-20T01:24:22</time>
      </trkpt>
      <trkpt lat="41.28492962569" lon="-8.68054149672389">
        <ele>41</ele>
        <time>2021-03-20T01:24:23</time>
      </trkpt>
      <trkpt lat="41.2848401907831" lon="-8.68048223666847">
        <ele>40.8</ele>
        <time>2021-03-20T01:24:24</time>
      </trkpt>
      <trkpt lat="41.2847438827157" lon="-8.68041618727148">
        <ele>40</ele>
        <time>2021-03-20T01:24:25</time>
      </trkpt>
      <trkpt lat="41.2846586387604" lon="-8.68036522530019">
        <ele>39.6</ele>
        <time>2021-03-20T01:24:26</time>
      </trkpt>
      <trkpt lat="41.284594098106" lon="-8.68032432161272">
        <ele>38.6</ele>
        <time>2021-03-20T01:24:27</time>
      </trkpt>
      <trkpt lat="41.2845022324473" lon="-8.68025827221572">
        <ele>38.2</ele>
        <time>2021-03-20T01:24:28</time>
      </trkpt>
      <trkpt lat="41.2844050861895" lon="-8.68019448593259">
        <ele>37.4</ele>
        <time>2021-03-20T01:24:29</time>
      </trkpt>
      <trkpt lat="41.2842781841755" lon="-8.68011251091957">
        <ele>36.6</ele>
        <time>2021-03-20T01:24:30</time>
      </trkpt>
      <trkpt lat="41.2842047587037" lon="-8.68006523698568">
        <ele>35.6</ele>
        <time>2021-03-20T01:24:31</time>
      </trkpt>
      <trkpt lat="41.2841069418937" lon="-8.67999927140772">
        <ele>34.6</ele>
        <time>2021-03-20T01:24:32</time>
      </trkpt>
      <trkpt lat="41.2840014137328" lon="-8.67992852814496">
        <ele>34</ele>
        <time>2021-03-20T01:24:33</time>
      </trkpt>
      <trkpt lat="41.2838994059712" lon="-8.67986348457634">
        <ele>32.8</ele>
        <time>2021-03-20T01:24:34</time>
      </trkpt>
      <trkpt lat="41.2837914470583" lon="-8.67979927919805">
        <ele>32.4</ele>
        <time>2021-03-20T01:24:35</time>
      </trkpt>
      <trkpt lat="41.2836865894496" lon="-8.67973272688687">
        <ele>32</ele>
        <time>2021-03-20T01:24:36</time>
      </trkpt>
      <trkpt lat="41.2835531495512" lon="-8.67965033277869">
        <ele>31</ele>
        <time>2021-03-20T01:24:37</time>
      </trkpt>
      <trkpt lat="41.283470755443" lon="-8.67960473522544">
        <ele>31</ele>
        <time>2021-03-20T01:24:38</time>
      </trkpt>
      <trkpt lat="41.2833459489048" lon="-8.67952980101109">
        <ele>30.6</ele>
        <time>2021-03-20T01:24:39</time>
      </trkpt>
      <trkpt lat="41.2832612078637" lon="-8.67949023842812">
        <ele>29.8</ele>
        <time>2021-03-20T01:24:40</time>
      </trkpt>
      <trkpt lat="41.2831461243331" lon="-8.6794304754585">
        <ele>29.4</ele>
        <time>2021-03-20T01:24:41</time>
      </trkpt>
      <trkpt lat="41.2830376625061" lon="-8.67937901057303">
        <ele>29.4</ele>
        <time>2021-03-20T01:24:42</time>
      </trkpt>
      <trkpt lat="41.2829222436994" lon="-8.67932268418372">
        <ele>29.6</ele>
        <time>2021-03-20T01:24:43</time>
      </trkpt>
      <trkpt lat="41.282799616456" lon="-8.67926627397537">
        <ele>29.8</ele>
        <time>2021-03-20T01:24:44</time>
      </trkpt>
      <trkpt lat="41.2826854549348" lon="-8.67921698838472">
        <ele>29.6</ele>
        <time>2021-03-20T01:24:45</time>
      </trkpt>
      <trkpt lat="41.2825694493949" lon="-8.67917323485017">
        <ele>29.2</ele>
        <time>2021-03-20T01:24:46</time>
      </trkpt>
      <trkpt lat="41.2824509292841" lon="-8.67912872694433">
        <ele>29.2</ele>
        <time>2021-03-20T01:24:47</time>
      </trkpt>
      <trkpt lat="41.2823314033449" lon="-8.67908329702914">
        <ele>29.2</ele>
        <time>2021-03-20T01:24:48</time>
      </trkpt>
      <trkpt lat="41.2822169065475" lon="-8.67904733866453">
        <ele>29.2</ele>
        <time>2021-03-20T01:24:49</time>
      </trkpt>
      <trkpt lat="41.2820981349796" lon="-8.67900526151061">
        <ele>29.2</ele>
        <time>2021-03-20T01:24:50</time>
      </trkpt>
      <trkpt lat="41.2819887511432" lon="-8.67897248826921">
        <ele>29.2</ele>
        <time>2021-03-20T01:24:51</time>
      </trkpt>
      <trkpt lat="41.2818732485175" lon="-8.67893326096237">
        <ele>29.4</ele>
        <time>2021-03-20T01:24:52</time>
      </trkpt>
      <trkpt lat="41.2817587517202" lon="-8.67890551686287">
        <ele>29.4</ele>
        <time>2021-03-20T01:24:53</time>
      </trkpt>
      <trkpt lat="41.2816460989416" lon="-8.67887249216437">
        <ele>29.6</ele>
        <time>2021-03-20T01:24:54</time>
      </trkpt>
      <trkpt lat="41.2815425824374" lon="-8.67884751409292">
        <ele>29.8</ele>
        <time>2021-03-20T01:24:55</time>
      </trkpt>
      <trkpt lat="41.2814699113369" lon="-8.67883217521012">
        <ele>30.2</ele>
        <time>2021-03-20T01:24:56</time>
      </trkpt>
      <trkpt lat="41.2813489604741" lon="-8.67881080135703">
        <ele>30.8</ele>
        <time>2021-03-20T01:24:57</time>
      </trkpt>
      <trkpt lat="41.2812493834645" lon="-8.67879219353199">
        <ele>31.2</ele>
        <time>2021-03-20T01:24:58</time>
      </trkpt>
      <trkpt lat="41.2811469566077" lon="-8.67877216078341">
        <ele>31.8</ele>
        <time>2021-03-20T01:24:59</time>
      </trkpt>
      <trkpt lat="41.2810451164842" lon="-8.67874416522682">
        <ele>32</ele>
        <time>2021-03-20T01:25:00</time>
      </trkpt>
      <trkpt lat="41.2809487245977" lon="-8.67872002534568">
        <ele>32.4</ele>
        <time>2021-03-20T01:25:01</time>
      </trkpt>
      <trkpt lat="41.2808576971292" lon="-8.67870116606355">
        <ele>32.4</ele>
        <time>2021-03-20T01:25:02</time>
      </trkpt>
      <trkpt lat="41.2807641550899" lon="-8.67867451161146">
        <ele>33</ele>
        <time>2021-03-20T01:25:03</time>
      </trkpt>
      <trkpt lat="41.2806729599834" lon="-8.67864978499711">
        <ele>33</ele>
        <time>2021-03-20T01:25:04</time>
      </trkpt>
      <trkpt lat="41.2805916555226" lon="-8.67863201536238">
        <ele>33.8</ele>
        <time>2021-03-20T01:25:05</time>
      </trkpt>
      <trkpt lat="41.2805070821196" lon="-8.6786138266325">
        <ele>34.2</ele>
        <time>2021-03-20T01:25:06</time>
      </trkpt>
      <trkpt lat="41.2804401945323" lon="-8.67861131206155">
        <ele>34.4</ele>
        <time>2021-03-20T01:25:07</time>
      </trkpt>
      <trkpt lat="41.2803634162992" lon="-8.67859052494168">
        <ele>34.8</ele>
        <time>2021-03-20T01:25:08</time>
      </trkpt>
      <trkpt lat="41.2803070899099" lon="-8.67857501842082">
        <ele>35.2</ele>
        <time>2021-03-20T01:25:09</time>
      </trkpt>
      <trkpt lat="41.2802091892809" lon="-8.67854283191264">
        <ele>35.6</ele>
        <time>2021-03-20T01:25:10</time>
      </trkpt>
      <trkpt lat="41.2801340874284" lon="-8.67852120660246">
        <ele>35.8</ele>
        <time>2021-03-20T01:25:11</time>
      </trkpt>
      <trkpt lat="41.2800656910986" lon="-8.67850628681481">
        <ele>36</ele>
        <time>2021-03-20T01:25:12</time>
      </trkpt>
      <trkpt lat="41.2799946125597" lon="-8.67848700843751">
        <ele>36.6</ele>
        <time>2021-03-20T01:25:13</time>
      </trkpt>
      <trkpt lat="41.2799229472876" lon="-8.67846622131765">
        <ele>36.8</ele>
        <time>2021-03-20T01:25:14</time>
      </trkpt>
      <trkpt lat="41.279855389148" lon="-8.67844719439745">
        <ele>37.2</ele>
        <time>2021-03-20T01:25:15</time>
      </trkpt>
      <trkpt lat="41.2797897588462" lon="-8.67842623963952">
        <ele>37.4</ele>
        <time>2021-03-20T01:25:16</time>
      </trkpt>
      <trkpt lat="41.2797222007066" lon="-8.67840553633869">
        <ele>38</ele>
        <time>2021-03-20T01:25:17</time>
      </trkpt>
      <trkpt lat="41.2796657066792" lon="-8.67839246056974">
        <ele>38.4</ele>
        <time>2021-03-20T01:25:18</time>
      </trkpt>
      <trkpt lat="41.2796112243086" lon="-8.67838500067592">
        <ele>38.8</ele>
        <time>2021-03-20T01:25:19</time>
      </trkpt>
      <trkpt lat="41.2795547302812" lon="-8.67837276309729">
        <ele>39</ele>
        <time>2021-03-20T01:25:20</time>
      </trkpt>
      <trkpt lat="41.2794997449964" lon="-8.67836077697575">
        <ele>39.4</ele>
        <time>2021-03-20T01:25:21</time>
      </trkpt>
      <trkpt lat="41.2794361263514" lon="-8.6783394869417">
        <ele>39.6</ele>
        <time>2021-03-20T01:25:22</time>
      </trkpt>
      <trkpt lat="41.2793781235814" lon="-8.67832683026791">
        <ele>40</ele>
        <time>2021-03-20T01:25:23</time>
      </trkpt>
      <trkpt lat="41.2793218810111" lon="-8.6783133354038">
        <ele>40.4</ele>
        <time>2021-03-20T01:25:24</time>
      </trkpt>
      <trkpt lat="41.2792782112956" lon="-8.67830595932901">
        <ele>40.8</ele>
        <time>2021-03-20T01:25:25</time>
      </trkpt>
      <trkpt lat="41.279218448326" lon="-8.6782839987427">
        <ele>41</ele>
        <time>2021-03-20T01:25:26</time>
      </trkpt>
      <trkpt lat="41.2791545782238" lon="-8.67825801484287">
        <ele>41.2</ele>
        <time>2021-03-20T01:25:27</time>
      </trkpt>
      <trkpt lat="41.2790962401778" lon="-8.6782337911427">
        <ele>41.4</ele>
        <time>2021-03-20T01:25:28</time>
      </trkpt>
      <trkpt lat="41.2790382374078" lon="-8.67821367457509">
        <ele>41.6</ele>
        <time>2021-03-20T01:25:29</time>
      </trkpt>
      <trkpt lat="41.2789854314178" lon="-8.67819498293102">
        <ele>41.8</ele>
        <time>2021-03-20T01:25:30</time>
      </trkpt>
      <trkpt lat="41.2789353914559" lon="-8.67818232625723">
        <ele>42</ele>
        <time>2021-03-20T01:25:31</time>
      </trkpt>
      <trkpt lat="41.2788894586265" lon="-8.67817017249763">
        <ele>42.4</ele>
        <time>2021-03-20T01:25:32</time>
      </trkpt>
      <trkpt lat="41.2788407597691" lon="-8.67815298959613">
        <ele>42.6</ele>
        <time>2021-03-20T01:25:33</time>
      </trkpt>
      <trkpt lat="41.278792899102" lon="-8.67813899181783">
        <ele>42.8</ele>
        <time>2021-03-20T01:25:34</time>
      </trkpt>
      <trkpt lat="41.2787476368248" lon="-8.67812667042017">
        <ele>43</ele>
        <time>2021-03-20T01:25:35</time>
      </trkpt>
      <trkpt lat="41.2786939088255" lon="-8.6781093198806">
        <ele>43.2</ele>
        <time>2021-03-20T01:25:36</time>
      </trkpt>
      <trkpt lat="41.2786539271474" lon="-8.67809649556875">
        <ele>43.4</ele>
        <time>2021-03-20T01:25:37</time>
      </trkpt>
      <trkpt lat="41.2785945832729" lon="-8.67807880975306">
        <ele>43.8</ele>
        <time>2021-03-20T01:25:38</time>
      </trkpt>
      <trkpt lat="41.2785434536636" lon="-8.678062800318">
        <ele>44</ele>
        <time>2021-03-20T01:25:39</time>
      </trkpt>
      <trkpt lat="41.2784939166158" lon="-8.67805282585323">
        <ele>44.4</ele>
        <time>2021-03-20T01:25:40</time>
      </trkpt>
      <trkpt lat="41.2784385960549" lon="-8.67802918888628">
        <ele>44.6</ele>
        <time>2021-03-20T01:25:41</time>
      </trkpt>
      <trkpt lat="41.2783857062459" lon="-8.67801217362285">
        <ele>44.8</ele>
        <time>2021-03-20T01:25:42</time>
      </trkpt>
      <trkpt lat="41.2783334031701" lon="-8.67799515835941">
        <ele>44.8</ele>
        <time>2021-03-20T01:25:43</time>
      </trkpt>
      <trkpt lat="41.2782814353704" lon="-8.67797872982919">
        <ele>45</ele>
        <time>2021-03-20T01:25:44</time>
      </trkpt>
      <trkpt lat="41.2782261148095" lon="-8.67795802652836">
        <ele>45.6</ele>
        <time>2021-03-20T01:25:45</time>
      </trkpt>
      <trkpt lat="41.2781742308289" lon="-8.67794469930232">
        <ele>45.8</ele>
        <time>2021-03-20T01:25:46</time>
      </trkpt>
      <trkpt lat="41.2781200837344" lon="-8.67792516946793">
        <ele>46.2</ele>
        <time>2021-03-20T01:25:47</time>
      </trkpt>
      <trkpt lat="41.2780640926212" lon="-8.67790379561484">
        <ele>46.4</ele>
        <time>2021-03-20T01:25:48</time>
      </trkpt>
      <trkpt lat="41.2780065927654" lon="-8.67788376286626">
        <ele>46.8</ele>
        <time>2021-03-20T01:25:49</time>
      </trkpt>
      <trkpt lat="41.2779558822513" lon="-8.67786901071668">
        <ele>47.2</ele>
        <time>2021-03-20T01:25:50</time>
      </trkpt>
      <trkpt lat="41.2778992205858" lon="-8.67785249836743">
        <ele>47.4</ele>
        <time>2021-03-20T01:25:51</time>
      </trkpt>
      <trkpt lat="41.2778407149017" lon="-8.67782869376242">
        <ele>47.8</ele>
        <time>2021-03-20T01:25:52</time>
      </trkpt>
      <trkpt lat="41.2777936086059" lon="-8.67781930603087">
        <ele>48</ele>
        <time>2021-03-20T01:25:53</time>
      </trkpt>
      <trkpt lat="41.2777397129685" lon="-8.6778072360903">
        <ele>48.4</ele>
        <time>2021-03-20T01:25:54</time>
      </trkpt>
      <trkpt lat="41.2776916008443" lon="-8.67779977619648">
        <ele>48.8</ele>
        <time>2021-03-20T01:25:55</time>
      </trkpt>
      <trkpt lat="41.2776413932443" lon="-8.67778418585658">
        <ele>49</ele>
        <time>2021-03-20T01:25:56</time>
      </trkpt>
      <trkpt lat="41.277590431273" lon="-8.67776717059314">
        <ele>49.2</ele>
        <time>2021-03-20T01:25:57</time>
      </trkpt>
      <trkpt lat="41.2775383796543" lon="-8.67775166407228">
        <ele>49.4</ele>
        <time>2021-03-20T01:25:58</time>
      </trkpt>
      <trkpt lat="41.2774776946753" lon="-8.67773079313338">
        <ele>49.8</ele>
        <time>2021-03-20T01:25:59</time>
      </trkpt>
      <trkpt lat="41.2774211168289" lon="-8.67770967073739">
        <ele>50.2</ele>
        <time>2021-03-20T01:26:00</time>
      </trkpt>
      <trkpt lat="41.2773732561618" lon="-8.6777017917484">
        <ele>50.6</ele>
        <time>2021-03-20T01:26:01</time>
      </trkpt>
      <trkpt lat="41.2773211207241" lon="-8.67768569849432">
        <ele>50.8</ele>
        <time>2021-03-20T01:26:02</time>
      </trkpt>
      <trkpt lat="41.2772704102099" lon="-8.67766683921218">
        <ele>51.2</ele>
        <time>2021-03-20T01:26:03</time>
      </trkpt>
      <trkpt lat="41.277231182903" lon="-8.6776518356055">
        <ele>51.4</ele>
        <time>2021-03-20T01:26:04</time>
      </trkpt>
      <trkpt lat="41.277167648077" lon="-8.67763322778046">
        <ele>51.6</ele>
        <time>2021-03-20T01:26:05</time>
      </trkpt>
      <trkpt lat="41.2771149259061" lon="-8.67761730216444">
        <ele>52.2</ele>
        <time>2021-03-20T01:26:06</time>
      </trkpt>
      <trkpt lat="41.2770668976009" lon="-8.67760380730033">
        <ele>52.2</ele>
        <time>2021-03-20T01:26:07</time>
      </trkpt>
      <trkpt lat="41.277019707486" lon="-8.67758922278881">
        <ele>52.6</ele>
        <time>2021-03-20T01:26:08</time>
      </trkpt>
      <trkpt lat="41.2769714277238" lon="-8.67757371626794">
        <ele>53</ele>
        <time>2021-03-20T01:26:09</time>
      </trkpt>
      <trkpt lat="41.2769254110754" lon="-8.67756072431803">
        <ele>53.2</ele>
        <time>2021-03-20T01:26:10</time>
      </trkpt>
      <trkpt lat="41.2768781371415" lon="-8.67754018865526">
        <ele>53.4</ele>
        <time>2021-03-20T01:26:11</time>
      </trkpt>
      <trkpt lat="41.2768281809986" lon="-8.67751579731703">
        <ele>53.6</ele>
        <time>2021-03-20T01:26:12</time>
      </trkpt>
      <trkpt lat="41.2767742015421" lon="-8.67748319171369">
        <ele>53.8</ele>
        <time>2021-03-20T01:26:13</time>
      </trkpt>
      <trkpt lat="41.2767259217799" lon="-8.67745603434742">
        <ele>53.8</ele>
        <time>2021-03-20T01:26:14</time>
      </trkpt>
      <trkpt lat="41.2766879517585" lon="-8.6774377617985">
        <ele>54.4</ele>
        <time>2021-03-20T01:26:15</time>
      </trkpt>
      <trkpt lat="41.2766397558153" lon="-8.67740666493774">
        <ele>54.6</ele>
        <time>2021-03-20T01:26:16</time>
      </trkpt>
      <trkpt lat="41.2766067311168" lon="-8.6773946788162">
        <ele>54.8</ele>
        <time>2021-03-20T01:26:17</time>
      </trkpt>
      <trkpt lat="41.2765617202967" lon="-8.67735830135644">
        <ele>55</ele>
        <time>2021-03-20T01:26:18</time>
      </trkpt>
      <trkpt lat="41.276525426656" lon="-8.6773309763521">
        <ele>55.4</ele>
        <time>2021-03-20T01:26:19</time>
      </trkpt>
      <trkpt lat="41.2764746323228" lon="-8.6772945150733">
        <ele>55.8</ele>
        <time>2021-03-20T01:26:20</time>
      </trkpt>
      <trkpt lat="41.276419730857" lon="-8.67724816314876">
        <ele>55.8</ele>
        <time>2021-03-20T01:26:21</time>
      </trkpt>
      <trkpt lat="41.2763762287796" lon="-8.67720776237547">
        <ele>55.8</ele>
        <time>2021-03-20T01:26:22</time>
      </trkpt>
      <trkpt lat="41.2763471435756" lon="-8.67718001827598">
        <ele>56</ele>
        <time>2021-03-20T01:26:23</time>
      </trkpt>
      <trkpt lat="41.2763043958694" lon="-8.67714028805494">
        <ele>56.2</ele>
        <time>2021-03-20T01:26:24</time>
      </trkpt>
      <trkpt lat="41.2762607261538" lon="-8.67709720507264">
        <ele>56.4</ele>
        <time>2021-03-20T01:26:25</time>
      </trkpt>
      <trkpt lat="41.2762217503041" lon="-8.677061162889">
        <ele>56.4</ele>
        <time>2021-03-20T01:26:26</time>
      </trkpt>
      <trkpt lat="41.2761562038213" lon="-8.67698480375111">
        <ele>56.6</ele>
        <time>2021-03-20T01:26:27</time>
      </trkpt>
      <trkpt lat="41.276113204658" lon="-8.6769419722259">
        <ele>56.8</ele>
        <time>2021-03-20T01:26:28</time>
      </trkpt>
      <trkpt lat="41.2760780844837" lon="-8.67690333165228">
        <ele>56.6</ele>
        <time>2021-03-20T01:26:29</time>
      </trkpt>
      <trkpt lat="41.2760302238166" lon="-8.67684817872942">
        <ele>56.8</ele>
        <time>2021-03-20T01:26:30</time>
      </trkpt>
      <trkpt lat="41.2759795971215" lon="-8.67678531445563">
        <ele>57.2</ele>
        <time>2021-03-20T01:26:31</time>
      </trkpt>
      <trkpt lat="41.2759499251842" lon="-8.67674482986331">
        <ele>57.2</ele>
        <time>2021-03-20T01:26:32</time>
      </trkpt>
      <trkpt lat="41.275904243812" lon="-8.67668397724628">
        <ele>57.4</ele>
        <time>2021-03-20T01:26:33</time>
      </trkpt>
      <trkpt lat="41.2758599035442" lon="-8.67663033306599">
        <ele>57.4</ele>
        <time>2021-03-20T01:26:34</time>
      </trkpt>
      <trkpt lat="41.2758126296103" lon="-8.67657417431474">
        <ele>57.6</ele>
        <time>2021-03-20T01:26:35</time>
      </trkpt>
      <trkpt lat="41.27576418221" lon="-8.6765156686306">
        <ele>58</ele>
        <time>2021-03-20T01:26:36</time>
      </trkpt>
      <trkpt lat="41.2757132202387" lon="-8.67645523510873">
        <ele>58</ele>
        <time>2021-03-20T01:26:37</time>
      </trkpt>
      <trkpt lat="41.2756571453065" lon="-8.67637979798019">
        <ele>58.2</ele>
        <time>2021-03-20T01:26:38</time>
      </trkpt>
      <trkpt lat="41.2756122183055" lon="-8.67632322013378">
        <ele>58.2</ele>
        <time>2021-03-20T01:26:39</time>
      </trkpt>
      <trkpt lat="41.2755760923028" lon="-8.67627779021859">
        <ele>58.2</ele>
        <time>2021-03-20T01:26:40</time>
      </trkpt>
      <trkpt lat="41.2755297403783" lon="-8.67622221820056">
        <ele>58.2</ele>
        <time>2021-03-20T01:26:41</time>
      </trkpt>
      <trkpt lat="41.2754924409092" lon="-8.67618299089372">
        <ele>58.6</ele>
        <time>2021-03-20T01:26:42</time>
      </trkpt>
      <trkpt lat="41.275447094813" lon="-8.67614099755883">
        <ele>58.8</ele>
        <time>2021-03-20T01:26:43</time>
      </trkpt>
      <trkpt lat="41.2754001561552" lon="-8.67609179578722">
        <ele>58.8</ele>
        <time>2021-03-20T01:26:44</time>
      </trkpt>
      <trkpt lat="41.2753447517753" lon="-8.67602298036218">
        <ele>59.2</ele>
        <time>2021-03-20T01:26:45</time>
      </trkpt>
      <trkpt lat="41.2752916105092" lon="-8.67596170864999">
        <ele>59.6</ele>
        <time>2021-03-20T01:26:46</time>
      </trkpt>
      <trkpt lat="41.2752411514521" lon="-8.67590328678489">
        <ele>59.6</ele>
        <time>2021-03-20T01:26:47</time>
      </trkpt>
      <trkpt lat="41.2751948833466" lon="-8.67584645748138">
        <ele>59.6</ele>
        <time>2021-03-20T01:26:48</time>
      </trkpt>
      <trkpt lat="41.275153644383" lon="-8.67580496706069">
        <ele>59.6</ele>
        <time>2021-03-20T01:26:49</time>
      </trkpt>
      <trkpt lat="41.2751256488264" lon="-8.67576976306736">
        <ele>59.6</ele>
        <time>2021-03-20T01:26:50</time>
      </trkpt>
      <trkpt lat="41.2750924564898" lon="-8.67573380470276">
        <ele>59.6</ele>
        <time>2021-03-20T01:26:51</time>
      </trkpt>
      <trkpt lat="41.2750381417572" lon="-8.67567328736186">
        <ele>60</ele>
        <time>2021-03-20T01:26:52</time>
      </trkpt>
      <trkpt lat="41.2749864254147" lon="-8.67561880499124">
        <ele>60</ele>
        <time>2021-03-20T01:26:53</time>
      </trkpt>
      <trkpt lat="41.2749394029379" lon="-8.67557077668607">
        <ele>60.2</ele>
        <time>2021-03-20T01:26:54</time>
      </trkpt>
      <trkpt lat="41.2748961523175" lon="-8.6755261849612">
        <ele>60.4</ele>
        <time>2021-03-20T01:26:55</time>
      </trkpt>
      <trkpt lat="41.2748616188765" lon="-8.6754862871021">
        <ele>60.4</ele>
        <time>2021-03-20T01:26:56</time>
      </trkpt>
      <trkpt lat="41.2748279236257" lon="-8.67544580250978">
        <ele>60.4</ele>
        <time>2021-03-20T01:26:57</time>
      </trkpt>
      <trkpt lat="41.2748031131923" lon="-8.67542216554284">
        <ele>60.4</ele>
        <time>2021-03-20T01:26:58</time>
      </trkpt>
      <trkpt lat="41.2747579347342" lon="-8.67537220939994">
        <ele>60.2</ele>
        <time>2021-03-20T01:26:59</time>
      </trkpt>
      <trkpt lat="41.2747346330434" lon="-8.67535896599293">
        <ele>60.2</ele>
        <time>2021-03-20T01:27:00</time>
      </trkpt>
      <trkpt lat="41.2747191265225" lon="-8.67534421384334">
        <ele>60.2</ele>
        <time>2021-03-20T01:27:01</time>
      </trkpt>
      <trkpt lat="41.274709654972" lon="-8.67532527074218">
        <ele>60</ele>
        <time>2021-03-20T01:27:02</time>
      </trkpt>
      <trkpt lat="41.2746962439269" lon="-8.67531177587807">
        <ele>60</ele>
        <time>2021-03-20T01:27:03</time>
      </trkpt>
      <trkpt lat="41.2746908795088" lon="-8.67530398070812">
        <ele>60</ele>
        <time>2021-03-20T01:27:04</time>
      </trkpt>
      <trkpt lat="41.2746771331876" lon="-8.67528168484569">
        <ele>60.2</ele>
        <time>2021-03-20T01:27:05</time>
      </trkpt>
      <trkpt lat="41.2746651470661" lon="-8.67526626214385">
        <ele>60.4</ele>
        <time>2021-03-20T01:27:06</time>
      </trkpt>
      <trkpt lat="41.2746565975249" lon="-8.67526433430612">
        <ele>60.4</ele>
        <time>2021-03-20T01:27:07</time>
      </trkpt>
      <trkpt lat="41.2746483832598" lon="-8.67526265792549">
        <ele>60.4</ele>
        <time>2021-03-20T01:27:08</time>
      </trkpt>
      <trkpt lat="41.2746482156217" lon="-8.67526416666806">
        <ele>60.6</ele>
        <time>2021-03-20T01:27:09</time>
      </trkpt>
      <trkpt lat="41.2746213935316" lon="-8.67523499764502">
        <ele>60.6</ele>
        <time>2021-03-20T01:27:10</time>
      </trkpt>
      <trkpt lat="41.2745931465179" lon="-8.67519970983267">
        <ele>60.8</ele>
        <time>2021-03-20T01:27:11</time>
      </trkpt>
      <trkpt lat="41.2745607085526" lon="-8.67514723911881">
        <ele>60.8</ele>
        <time>2021-03-20T01:27:12</time>
      </trkpt>
      <trkpt lat="41.2745312042534" lon="-8.67510097101331">
        <ele>61</ele>
        <time>2021-03-20T01:27:13</time>
      </trkpt>
      <trkpt lat="41.2744891270995" lon="-8.6750618275255">
        <ele>61.2</ele>
        <time>2021-03-20T01:27:14</time>
      </trkpt>
      <trkpt lat="41.2744550965726" lon="-8.67502846755087">
        <ele>61.6</ele>
        <time>2021-03-20T01:27:15</time>
      </trkpt>
      <trkpt lat="41.2744116783142" lon="-8.67498898878694">
        <ele>61.8</ele>
        <time>2021-03-20T01:27:16</time>
      </trkpt>
      <trkpt lat="41.2743736244738" lon="-8.67494783364236">
        <ele>62</ele>
        <time>2021-03-20T01:27:17</time>
      </trkpt>
      <trkpt lat="41.2743321340531" lon="-8.67490231990814">
        <ele>62</ele>
        <time>2021-03-20T01:27:18</time>
      </trkpt>
      <trkpt lat="41.274297600612" lon="-8.67486217059195">
        <ele>62.4</ele>
        <time>2021-03-20T01:27:19</time>
      </trkpt>
      <trkpt lat="41.2742401007563" lon="-8.67480182088912">
        <ele>62.4</ele>
        <time>2021-03-20T01:27:20</time>
      </trkpt>
      <trkpt lat="41.2741902284324" lon="-8.67474700324237">
        <ele>62.6</ele>
        <time>2021-03-20T01:27:21</time>
      </trkpt>
      <trkpt lat="41.2741491571069" lon="-8.67470433935523">
        <ele>62.8</ele>
        <time>2021-03-20T01:27:22</time>
      </trkpt>
      <trkpt lat="41.2741214130074" lon="-8.67467433214188">
        <ele>62.8</ele>
        <time>2021-03-20T01:27:23</time>
      </trkpt>
      <trkpt lat="41.2740717083216" lon="-8.67461951449514">
        <ele>62.8</ele>
        <time>2021-03-20T01:27:24</time>
      </trkpt>
      <trkpt lat="41.2740215845406" lon="-8.67455832660198">
        <ele>63</ele>
        <time>2021-03-20T01:27:25</time>
      </trkpt>
      <trkpt lat="41.273967185989" lon="-8.67451298050582">
        <ele>63</ele>
        <time>2021-03-20T01:27:26</time>
      </trkpt>
      <trkpt lat="41.2739167269319" lon="-8.67446017451584">
        <ele>63</ele>
        <time>2021-03-20T01:27:27</time>
      </trkpt>
      <trkpt lat="41.27387188375" lon="-8.67440803907812">
        <ele>63</ele>
        <time>2021-03-20T01:27:28</time>
      </trkpt>
      <trkpt lat="41.2738389428705" lon="-8.674376020208">
        <ele>63.2</ele>
        <time>2021-03-20T01:27:29</time>
      </trkpt>
      <trkpt lat="41.2737891543657" lon="-8.67432723753154">
        <ele>63.2</ele>
        <time>2021-03-20T01:27:30</time>
      </trkpt>
      <trkpt lat="41.2737401202321" lon="-8.67426596581936">
        <ele>63.2</ele>
        <time>2021-03-20T01:27:31</time>
      </trkpt>
      <trkpt lat="41.2736614141613" lon="-8.67416873574257">
        <ele>63.2</ele>
        <time>2021-03-20T01:27:32</time>
      </trkpt>
      <trkpt lat="41.2735630944371" lon="-8.67405767552554">
        <ele>63.2</ele>
        <time>2021-03-20T01:27:33</time>
      </trkpt>
      <trkpt lat="41.2735216878355" lon="-8.6740067973733">
        <ele>63.2</ele>
        <time>2021-03-20T01:27:34</time>
      </trkpt>
      <trkpt lat="41.2734636012465" lon="-8.67393580265343">
        <ele>62.8</ele>
        <time>2021-03-20T01:27:35</time>
      </trkpt>
      <trkpt lat="41.2734001502395" lon="-8.67386321537196">
        <ele>63</ele>
        <time>2021-03-20T01:27:36</time>
      </trkpt>
      <trkpt lat="41.2733396328986" lon="-8.67379766888916">
        <ele>62.8</ele>
        <time>2021-03-20T01:27:37</time>
      </trkpt>
      <trkpt lat="41.2732869107276" lon="-8.67373773828149">
        <ele>62.6</ele>
        <time>2021-03-20T01:27:38</time>
      </trkpt>
      <trkpt lat="41.2732314225286" lon="-8.67367152124643">
        <ele>62.8</ele>
        <time>2021-03-20T01:27:39</time>
      </trkpt>
      <trkpt lat="41.2731737550348" lon="-8.67360052652657">
        <ele>62.4</ele>
        <time>2021-03-20T01:27:40</time>
      </trkpt>
      <trkpt lat="41.2731106393039" lon="-8.6735281907022">
        <ele>62.4</ele>
        <time>2021-03-20T01:27:41</time>
      </trkpt>
      <trkpt lat="41.2730481941253" lon="-8.6734592076391">
        <ele>62.2</ele>
        <time>2021-03-20T01:27:42</time>
      </trkpt>
      <trkpt lat="41.2730056140572" lon="-8.67341025732458">
        <ele>62.2</ele>
        <time>2021-03-20T01:27:43</time>
      </trkpt>
      <trkpt lat="41.2729506287724" lon="-8.67334445938468">
        <ele>62.2</ele>
        <time>2021-03-20T01:27:44</time>
      </trkpt>
      <trkpt lat="41.272878209129" lon="-8.6732691898942">
        <ele>62</ele>
        <time>2021-03-20T01:27:45</time>
      </trkpt>
      <trkpt lat="41.2728241458535" lon="-8.67321403697133">
        <ele>62</ele>
        <time>2021-03-20T01:27:46</time>
      </trkpt>
      <trkpt lat="41.2727596890181" lon="-8.67313927039504">
        <ele>61.8</ele>
        <time>2021-03-20T01:27:47</time>
      </trkpt>
      <trkpt lat="41.2726874370128" lon="-8.67305821739137">
        <ele>61.6</ele>
        <time>2021-03-20T01:27:48</time>
      </trkpt>
      <trkpt lat="41.2726198788732" lon="-8.67298646830022">
        <ele>61.6</ele>
        <time>2021-03-20T01:27:49</time>
      </trkpt>
      <trkpt lat="41.2725524045527" lon="-8.67291270755231">
        <ele>61.4</ele>
        <time>2021-03-20T01:27:50</time>
      </trkpt>
      <trkpt lat="41.2724994309247" lon="-8.67285151965916">
        <ele>61.4</ele>
        <time>2021-03-20T01:27:51</time>
      </trkpt>
      <trkpt lat="41.2724102474749" lon="-8.67275319993496">
        <ele>61.4</ele>
        <time>2021-03-20T01:27:52</time>
      </trkpt>
      <trkpt lat="41.2723597045988" lon="-8.6726972926408">
        <ele>61.4</ele>
        <time>2021-03-20T01:27:53</time>
      </trkpt>
      <trkpt lat="41.2722641509026" lon="-8.67259670980275">
        <ele>61.2</ele>
        <time>2021-03-20T01:27:54</time>
      </trkpt>
      <trkpt lat="41.2722058966756" lon="-8.67253627628088">
        <ele>61.2</ele>
        <time>2021-03-20T01:27:55</time>
      </trkpt>
      <trkpt lat="41.2721347343177" lon="-8.67246083915234">
        <ele>62.4</ele>
        <time>2021-03-20T01:27:56</time>
      </trkpt>
      <trkpt lat="41.2720572017133" lon="-8.67237869650126">
        <ele>62.4</ele>
        <time>2021-03-20T01:27:57</time>
      </trkpt>
      <trkpt lat="41.271963911131" lon="-8.67227316834032">
        <ele>62.4</ele>
        <time>2021-03-20T01:27:58</time>
      </trkpt>
      <trkpt lat="41.2718937546015" lon="-8.67219471372664">
        <ele>62.4</ele>
        <time>2021-03-20T01:27:59</time>
      </trkpt>
      <trkpt lat="41.2718376796693" lon="-8.67213377729058">
        <ele>62.4</ele>
        <time>2021-03-20T01:28:00</time>
      </trkpt>
      <trkpt lat="41.2717697024345" lon="-8.67205297574401">
        <ele>62.4</ele>
        <time>2021-03-20T01:28:01</time>
      </trkpt>
      <trkpt lat="41.2716940976679" lon="-8.67197150364518">
        <ele>62.6</ele>
        <time>2021-03-20T01:28:02</time>
      </trkpt>
      <trkpt lat="41.2716340832412" lon="-8.6719052027911">
        <ele>62.6</ele>
        <time>2021-03-20T01:28:03</time>
      </trkpt>
      <trkpt lat="41.2715298961848" lon="-8.67179129272699">
        <ele>62.6</ele>
        <time>2021-03-20T01:28:04</time>
      </trkpt>
      <trkpt lat="41.2714164052159" lon="-8.67166765965521">
        <ele>62.4</ele>
        <time>2021-03-20T01:28:05</time>
      </trkpt>
      <trkpt lat="41.2713589053601" lon="-8.6716044601053">
        <ele>62.4</ele>
        <time>2021-03-20T01:28:06</time>
      </trkpt>
      <trkpt lat="41.2712904252112" lon="-8.67152751423419">
        <ele>62.6</ele>
        <time>2021-03-20T01:28:07</time>
      </trkpt>
      <trkpt lat="41.2712339311838" lon="-8.67145668715239">
        <ele>62.6</ele>
        <time>2021-03-20T01:28:08</time>
      </trkpt>
      <trkpt lat="41.2711664568633" lon="-8.6713784839958">
        <ele>62.8</ele>
        <time>2021-03-20T01:28:09</time>
      </trkpt>
      <trkpt lat="41.2710991501808" lon="-8.67130430415273">
        <ele>63.2</ele>
        <time>2021-03-20T01:28:10</time>
      </trkpt>
      <trkpt lat="41.2710457574576" lon="-8.67124076932669">
        <ele>63.2</ele>
        <time>2021-03-20T01:28:11</time>
      </trkpt>
      <trkpt lat="41.2709784507751" lon="-8.67116566747427">
        <ele>63.6</ele>
        <time>2021-03-20T01:28:12</time>
      </trkpt>
      <trkpt lat="41.270914580673" lon="-8.6710970196873">
        <ele>63.6</ele>
        <time>2021-03-20T01:28:13</time>
      </trkpt>
      <trkpt lat="41.2708516325802" lon="-8.6710225045681">
        <ele>63.6</ele>
        <time>2021-03-20T01:28:14</time>
      </trkpt>
      <trkpt lat="41.2707981560379" lon="-8.67096525616944">
        <ele>63.6</ele>
        <time>2021-03-20T01:28:15</time>
      </trkpt>
      <trkpt lat="41.2707279156894" lon="-8.67089375853538">
        <ele>63.8</ele>
        <time>2021-03-20T01:28:16</time>
      </trkpt>
      <trkpt lat="41.270668739453" lon="-8.67082829587162">
        <ele>64.2</ele>
        <time>2021-03-20T01:28:17</time>
      </trkpt>
      <trkpt lat="41.2706039473414" lon="-8.67075629532337">
        <ele>64.2</ele>
        <time>2021-03-20T01:28:18</time>
      </trkpt>
      <trkpt lat="41.2705536559224" lon="-8.670699801296">
        <ele>64</ele>
        <time>2021-03-20T01:28:19</time>
      </trkpt>
      <trkpt lat="41.2704834155738" lon="-8.67061698809266">
        <ele>64</ele>
        <time>2021-03-20T01:28:20</time>
      </trkpt>
      <trkpt lat="41.2704146839678" lon="-8.67053719237447">
        <ele>64.6</ele>
        <time>2021-03-20T01:28:21</time>
      </trkpt>
      <trkpt lat="41.2703487183899" lon="-8.67045915685594">
        <ele>64.8</ele>
        <time>2021-03-20T01:28:22</time>
      </trkpt>
      <trkpt lat="41.2702794000506" lon="-8.67037869058549">
        <ele>64.6</ele>
        <time>2021-03-20T01:28:23</time>
      </trkpt>
      <trkpt lat="41.2702141050249" lon="-8.67030669003725">
        <ele>64.6</ele>
        <time>2021-03-20T01:28:24</time>
      </trkpt>
      <trkpt lat="41.2701618857682" lon="-8.67024927400052">
        <ele>64.8</ele>
        <time>2021-03-20T01:28:25</time>
      </trkpt>
      <trkpt lat="41.2700817547739" lon="-8.67016118019819">
        <ele>64.8</ele>
        <time>2021-03-20T01:28:26</time>
      </trkpt>
      <trkpt lat="41.2700089160353" lon="-8.67008171975613">
        <ele>65</ele>
        <time>2021-03-20T01:28:27</time>
      </trkpt>
      <trkpt lat="41.2699546851218" lon="-8.67001969367266">
        <ele>65.2</ele>
        <time>2021-03-20T01:28:28</time>
      </trkpt>
      <trkpt lat="41.2698792479932" lon="-8.66993847303092">
        <ele>65</ele>
        <time>2021-03-20T01:28:29</time>
      </trkpt>
      <trkpt lat="41.2697925791144" lon="-8.66984501481056">
        <ele>65</ele>
        <time>2021-03-20T01:28:30</time>
      </trkpt>
      <trkpt lat="41.2697229254991" lon="-8.66976672783494">
        <ele>65.2</ele>
        <time>2021-03-20T01:28:31</time>
      </trkpt>
      <trkpt lat="41.2696691136807" lon="-8.66970679722726">
        <ele>65.4</ele>
        <time>2021-03-20T01:28:32</time>
      </trkpt>
      <trkpt lat="41.2695976160467" lon="-8.66962976753712">
        <ele>65.4</ele>
        <time>2021-03-20T01:28:33</time>
      </trkpt>
      <trkpt lat="41.2695277109742" lon="-8.6695509776473">
        <ele>65.6</ele>
        <time>2021-03-20T01:28:34</time>
      </trkpt>
      <trkpt lat="41.2694551236928" lon="-8.66947319358587">
        <ele>65.6</ele>
        <time>2021-03-20T01:28:35</time>
      </trkpt>
      <trkpt lat="41.2693863920867" lon="-8.66939616389573">
        <ele>66</ele>
        <time>2021-03-20T01:28:36</time>
      </trkpt>
      <trkpt lat="41.2693179119378" lon="-8.66931796073914">
        <ele>66</ele>
        <time>2021-03-20T01:28:37</time>
      </trkpt>
      <trkpt lat="41.2692464143038" lon="-8.66924478672445">
        <ele>65.8</ele>
        <time>2021-03-20T01:28:38</time>
      </trkpt>
      <trkpt lat="41.2691759224981" lon="-8.6691677570343">
        <ele>66</ele>
        <time>2021-03-20T01:28:39</time>
      </trkpt>
      <trkpt lat="41.2691061850637" lon="-8.66909399628639">
        <ele>66</ele>
        <time>2021-03-20T01:28:40</time>
      </trkpt>
      <trkpt lat="41.2690369505435" lon="-8.66901596076786">
        <ele>65.8</ele>
        <time>2021-03-20T01:28:41</time>
      </trkpt>
      <trkpt lat="41.2689631897956" lon="-8.6689346563071">
        <ele>65.6</ele>
        <time>2021-03-20T01:28:42</time>
      </trkpt>
      <trkpt lat="41.2688880879432" lon="-8.66885251365602">
        <ele>65.6</ele>
        <time>2021-03-20T01:28:43</time>
      </trkpt>
      <trkpt lat="41.2688174284995" lon="-8.66877229884267">
        <ele>65.6</ele>
        <time>2021-03-20T01:28:44</time>
      </trkpt>
      <trkpt lat="41.2687460985035" lon="-8.66869669407606">
        <ele>65.6</ele>
        <time>2021-03-20T01:28:45</time>
      </trkpt>
      <trkpt lat="41.2686714157462" lon="-8.668617233634">
        <ele>65.6</ele>
        <time>2021-03-20T01:28:46</time>
      </trkpt>
      <trkpt lat="41.2686007563025" lon="-8.66853701882064">
        <ele>65.8</ele>
        <time>2021-03-20T01:28:47</time>
      </trkpt>
      <trkpt lat="41.2685285881162" lon="-8.6684547085315">
        <ele>65.8</ele>
        <time>2021-03-20T01:28:48</time>
      </trkpt>
      <trkpt lat="41.2684557493776" lon="-8.66837382316589">
        <ele>65.6</ele>
        <time>2021-03-20T01:28:49</time>
      </trkpt>
      <trkpt lat="41.2683646380901" lon="-8.66827349178493">
        <ele>65.6</ele>
        <time>2021-03-20T01:28:50</time>
      </trkpt>
      <trkpt lat="41.2682943977416" lon="-8.66819579154253">
        <ele>65.6</ele>
        <time>2021-03-20T01:28:51</time>
      </trkpt>
      <trkpt lat="41.2682358920574" lon="-8.66813820786774">
        <ele>65.6</ele>
        <time>2021-03-20T01:28:52</time>
      </trkpt>
      <trkpt lat="41.2681472115219" lon="-8.66804072633386">
        <ele>66</ele>
        <time>2021-03-20T01:28:53</time>
      </trkpt>
      <trkpt lat="41.2680936511606" lon="-8.66798331029713">
        <ele>65.8</ele>
        <time>2021-03-20T01:28:54</time>
      </trkpt>
      <trkpt lat="41.2680192198604" lon="-8.66790301166475">
        <ele>65.6</ele>
        <time>2021-03-20T01:28:55</time>
      </trkpt>
      <trkpt lat="41.2679396755993" lon="-8.6678124871105">
        <ele>65.4</ele>
        <time>2021-03-20T01:28:56</time>
      </trkpt>
      <trkpt lat="41.2678519170731" lon="-8.66771383211017">
        <ele>65.4</ele>
        <time>2021-03-20T01:28:57</time>
      </trkpt>
      <trkpt lat="41.2677876278758" lon="-8.6676462739706">
        <ele>65.2</ele>
        <time>2021-03-20T01:28:58</time>
      </trkpt>
      <trkpt lat="41.2677157111466" lon="-8.66756471805274">
        <ele>65</ele>
        <time>2021-03-20T01:28:59</time>
      </trkpt>
      <trkpt lat="41.2676384299994" lon="-8.66748349741101">
        <ele>64.6</ele>
        <time>2021-03-20T01:29:00</time>
      </trkpt>
      <trkpt lat="41.267579253763" lon="-8.66741325706244">
        <ele>64.6</ele>
        <time>2021-03-20T01:29:01</time>
      </trkpt>
      <trkpt lat="41.2675041519105" lon="-8.66732751019299">
        <ele>64.4</ele>
        <time>2021-03-20T01:29:02</time>
      </trkpt>
      <trkpt lat="41.2674354203045" lon="-8.6672442778945">
        <ele>64.2</ele>
        <time>2021-03-20T01:29:03</time>
      </trkpt>
      <trkpt lat="41.2673438899219" lon="-8.66714579053223">
        <ele>63.8</ele>
        <time>2021-03-20T01:29:04</time>
      </trkpt>
      <trkpt lat="41.2672624178231" lon="-8.66705677472055">
        <ele>63.6</ele>
        <time>2021-03-20T01:29:05</time>
      </trkpt>
      <trkpt lat="41.2671847175807" lon="-8.66697672754526">
        <ele>63.2</ele>
        <time>2021-03-20T01:29:06</time>
      </trkpt>
      <trkpt lat="41.2671118788421" lon="-8.66688796319068">
        <ele>63.4</ele>
        <time>2021-03-20T01:29:07</time>
      </trkpt>
      <trkpt lat="41.2670541275293" lon="-8.66682023741305">
        <ele>63.4</ele>
        <time>2021-03-20T01:29:08</time>
      </trkpt>
      <trkpt lat="41.266976678744" lon="-8.66673080250621">
        <ele>63.2</ele>
        <time>2021-03-20T01:29:09</time>
      </trkpt>
      <trkpt lat="41.2668678816408" lon="-8.66660976782441">
        <ele>62.8</ele>
        <time>2021-03-20T01:29:10</time>
      </trkpt>
      <trkpt lat="41.2667886726558" lon="-8.66652418859303">
        <ele>62.8</ele>
        <time>2021-03-20T01:29:11</time>
      </trkpt>
      <trkpt lat="41.2667112238705" lon="-8.66643450222909">
        <ele>62.6</ele>
        <time>2021-03-20T01:29:12</time>
      </trkpt>
      <trkpt lat="41.2666302546859" lon="-8.6663409601897">
        <ele>62.4</ele>
        <time>2021-03-20T01:29:13</time>
      </trkpt>
      <trkpt lat="41.2665531411767" lon="-8.66625999100506">
        <ele>62.2</ele>
        <time>2021-03-20T01:29:14</time>
      </trkpt>
      <trkpt lat="41.2664962280542" lon="-8.66619821637869">
        <ele>61.8</ele>
        <time>2021-03-20T01:29:15</time>
      </trkpt>
      <trkpt lat="41.266421712935" lon="-8.66611565463245">
        <ele>61.6</ele>
        <time>2021-03-20T01:29:16</time>
      </trkpt>
      <trkpt lat="41.2663290929049" lon="-8.66601071320474">
        <ele>61.4</ele>
        <time>2021-03-20T01:29:17</time>
      </trkpt>
      <trkpt lat="41.2662491295487" lon="-8.66593569517136">
        <ele>61.4</ele>
        <time>2021-03-20T01:29:18</time>
      </trkpt>
      <trkpt lat="41.2661664001644" lon="-8.66585279814899">
        <ele>61.2</ele>
        <time>2021-03-20T01:29:19</time>
      </trkpt>
      <trkpt lat="41.266091382131" lon="-8.66576872766018">
        <ele>61</ele>
        <time>2021-03-20T01:29:20</time>
      </trkpt>
      <trkpt lat="41.2660326249898" lon="-8.66570577956736">
        <ele>60.8</ele>
        <time>2021-03-20T01:29:21</time>
      </trkpt>
      <trkpt lat="41.2659436091781" lon="-8.66561525501311">
        <ele>60.8</ele>
        <time>2021-03-20T01:29:22</time>
      </trkpt>
      <trkpt lat="41.2658608797938" lon="-8.66552447900176">
        <ele>60.6</ele>
        <time>2021-03-20T01:29:23</time>
      </trkpt>
      <trkpt lat="41.2657519150525" lon="-8.66540679708123">
        <ele>60.4</ele>
        <time>2021-03-20T01:29:24</time>
      </trkpt>
      <trkpt lat="41.2656691018492" lon="-8.66532272659242">
        <ele>60</ele>
        <time>2021-03-20T01:29:25</time>
      </trkpt>
      <trkpt lat="41.2655939161778" lon="-8.66524452343583">
        <ele>59.8</ele>
        <time>2021-03-20T01:29:26</time>
      </trkpt>
      <trkpt lat="41.2655217479914" lon="-8.66516766138375">
        <ele>59.6</ele>
        <time>2021-03-20T01:29:27</time>
      </trkpt>
      <trkpt lat="41.2654457241297" lon="-8.6650924757123">
        <ele>59.6</ele>
        <time>2021-03-20T01:29:28</time>
      </trkpt>
      <trkpt lat="41.2653789203614" lon="-8.66502768360078">
        <ele>60</ele>
        <time>2021-03-20T01:29:29</time>
      </trkpt>
      <trkpt lat="41.2652883958072" lon="-8.66493799723685">
        <ele>60</ele>
        <time>2021-03-20T01:29:30</time>
      </trkpt>
      <trkpt lat="41.2651784252375" lon="-8.66484001278877">
        <ele>60</ele>
        <time>2021-03-20T01:29:31</time>
      </trkpt>
      <trkpt lat="41.2650861404836" lon="-8.66476147435606">
        <ele>60.4</ele>
        <time>2021-03-20T01:29:32</time>
      </trkpt>
      <trkpt lat="41.2650071829557" lon="-8.66469131782651">
        <ele>61</ele>
        <time>2021-03-20T01:29:33</time>
      </trkpt>
      <trkpt lat="41.2649177480489" lon="-8.66462233476341">
        <ele>61.4</ele>
        <time>2021-03-20T01:29:34</time>
      </trkpt>
      <trkpt lat="41.2648268882185" lon="-8.66453968919814">
        <ele>61.4</ele>
        <time>2021-03-20T01:29:35</time>
      </trkpt>
      <trkpt lat="41.2647631857544" lon="-8.66448545828462">
        <ele>62</ele>
        <time>2021-03-20T01:29:36</time>
      </trkpt>
      <trkpt lat="41.2646739184856" lon="-8.66440633311868">
        <ele>63</ele>
        <time>2021-03-20T01:29:37</time>
      </trkpt>
      <trkpt lat="41.2645741738379" lon="-8.66432226262987">
        <ele>63.4</ele>
        <time>2021-03-20T01:29:38</time>
      </trkpt>
      <trkpt lat="41.2644946295768" lon="-8.66426233202219">
        <ele>63.6</ele>
        <time>2021-03-20T01:29:39</time>
      </trkpt>
      <trkpt lat="41.2644170969725" lon="-8.66420022211969">
        <ele>63.8</ele>
        <time>2021-03-20T01:29:40</time>
      </trkpt>
      <trkpt lat="41.2643446773291" lon="-8.66414146497846">
        <ele>64.4</ele>
        <time>2021-03-20T01:29:41</time>
      </trkpt>
      <trkpt lat="41.2642951402813" lon="-8.66409779526293">
        <ele>64.6</ele>
        <time>2021-03-20T01:29:42</time>
      </trkpt>
      <trkpt lat="41.2642300967127" lon="-8.66404482163489">
        <ele>65.4</ele>
        <time>2021-03-20T01:29:43</time>
      </trkpt>
      <trkpt lat="41.2641321122646" lon="-8.6639594938606">
        <ele>65.8</ele>
        <time>2021-03-20T01:29:44</time>
      </trkpt>
      <trkpt lat="41.2640741933137" lon="-8.6639180034399">
        <ele>66</ele>
        <time>2021-03-20T01:29:45</time>
      </trkpt>
      <trkpt lat="41.2640129216015" lon="-8.66387601010501">
        <ele>66.2</ele>
        <time>2021-03-20T01:29:46</time>
      </trkpt>
      <trkpt lat="41.2639419268817" lon="-8.66383032873273">
        <ele>66.6</ele>
        <time>2021-03-20T01:29:47</time>
      </trkpt>
      <trkpt lat="41.2638931442052" lon="-8.66379202343524">
        <ele>66.8</ele>
        <time>2021-03-20T01:29:48</time>
      </trkpt>
      <trkpt lat="41.2638332135975" lon="-8.66374751552939">
        <ele>67.2</ele>
        <time>2021-03-20T01:29:49</time>
      </trkpt>
      <trkpt lat="41.2637716904283" lon="-8.6637060251087">
        <ele>67.4</ele>
        <time>2021-03-20T01:29:50</time>
      </trkpt>
      <trkpt lat="41.2636898830533" lon="-8.66364517249167">
        <ele>67.8</ele>
        <time>2021-03-20T01:29:51</time>
      </trkpt>
      <trkpt lat="41.2636271025986" lon="-8.66359647363424">
        <ele>68.2</ele>
        <time>2021-03-20T01:29:52</time>
      </trkpt>
      <trkpt lat="41.2635654117912" lon="-8.66355448029935">
        <ele>68.4</ele>
        <time>2021-03-20T01:29:53</time>
      </trkpt>
      <trkpt lat="41.2635032180697" lon="-8.66350846365094">
        <ele>68.8</ele>
        <time>2021-03-20T01:29:54</time>
      </trkpt>
      <trkpt lat="41.2634421139956" lon="-8.66346571594477">
        <ele>68.8</ele>
        <time>2021-03-20T01:29:55</time>
      </trkpt>
      <trkpt lat="41.2633929122239" lon="-8.6634261533618">
        <ele>69.2</ele>
        <time>2021-03-20T01:29:56</time>
      </trkpt>
      <trkpt lat="41.2633316405118" lon="-8.66337846033275">
        <ele>69.4</ele>
        <time>2021-03-20T01:29:57</time>
      </trkpt>
      <trkpt lat="41.2632593885064" lon="-8.66332548670471">
        <ele>69.6</ele>
        <time>2021-03-20T01:29:58</time>
      </trkpt>
      <trkpt lat="41.2631981167942" lon="-8.66327527910471">
        <ele>70</ele>
        <time>2021-03-20T01:29:59</time>
      </trkpt>
      <trkpt lat="41.2631413713098" lon="-8.66323730908334">
        <ele>70.2</ele>
        <time>2021-03-20T01:30:00</time>
      </trkpt>
      <trkpt lat="41.2630837038159" lon="-8.66319615393877">
        <ele>70.4</ele>
        <time>2021-03-20T01:30:01</time>
      </trkpt>
      <trkpt lat="41.263041626662" lon="-8.66316547617316">
        <ele>70.8</ele>
        <time>2021-03-20T01:30:02</time>
      </trkpt>
      <trkpt lat="41.262986222282" lon="-8.6631219740957">
        <ele>71</ele>
        <time>2021-03-20T01:30:03</time>
      </trkpt>
      <trkpt lat="41.2629339192063" lon="-8.66308316588402">
        <ele>71.2</ele>
        <time>2021-03-20T01:30:04</time>
      </trkpt>
      <trkpt lat="41.2628393713385" lon="-8.66301929578185">
        <ele>71.4</ele>
        <time>2021-03-20T01:30:05</time>
      </trkpt>
      <trkpt lat="41.2627765908837" lon="-8.66297931410372">
        <ele>71.8</ele>
        <time>2021-03-20T01:30:06</time>
      </trkpt>
      <trkpt lat="41.2627160735428" lon="-8.66294100880623">
        <ele>72</ele>
        <time>2021-03-20T01:30:07</time>
      </trkpt>
      <trkpt lat="41.2626708950847" lon="-8.66291427053511">
        <ele>72</ele>
        <time>2021-03-20T01:30:08</time>
      </trkpt>
      <trkpt lat="41.26261071302" lon="-8.66287747398019">
        <ele>72.2</ele>
        <time>2021-03-20T01:30:09</time>
      </trkpt>
      <trkpt lat="41.2623962201178" lon="-8.66274680010974">
        <ele>72.4</ele>
        <time>2021-03-20T01:30:10</time>
      </trkpt>
      <trkpt lat="41.2621521390974" lon="-8.66260472685099">
        <ele>72.4</ele>
        <time>2021-03-20T01:30:11</time>
      </trkpt>
      <trkpt lat="41.2620296794921" lon="-8.66253431886434">
        <ele>72.8</ele>
        <time>2021-03-20T01:30:12</time>
      </trkpt>
      <trkpt lat="41.2620296794921" lon="-8.66253431886434">
        <ele>73</ele>
        <time>2021-03-20T01:30:13</time>
      </trkpt>
      <trkpt lat="41.2619057111442" lon="-8.66246701218188">
        <ele>73.2</ele>
        <time>2021-03-20T01:30:14</time>
      </trkpt>
      <trkpt lat="41.2618425954133" lon="-8.66243197582662">
        <ele>73.4</ele>
        <time>2021-03-20T01:30:15</time>
      </trkpt>
      <trkpt lat="41.2618425954133" lon="-8.66243197582662">
        <ele>73.6</ele>
        <time>2021-03-20T01:30:16</time>
      </trkpt>
      <trkpt lat="41.2617164477706" lon="-8.66236332803965">
        <ele>73.8</ele>
        <time>2021-03-20T01:30:17</time>
      </trkpt>
      <trkpt lat="41.2616535834968" lon="-8.66232946515083">
        <ele>74</ele>
        <time>2021-03-20T01:30:18</time>
      </trkpt>
      <trkpt lat="41.2615913897753" lon="-8.66229300387204">
        <ele>74.2</ele>
        <time>2021-03-20T01:30:19</time>
      </trkpt>
      <trkpt lat="41.2615286931396" lon="-8.66225771605968">
        <ele>74.2</ele>
        <time>2021-03-20T01:30:20</time>
      </trkpt>
      <trkpt lat="41.2615286931396" lon="-8.66225771605968">
        <ele>74.6</ele>
        <time>2021-03-20T01:30:21</time>
      </trkpt>
      <trkpt lat="41.2614018749446" lon="-8.6621879786253">
        <ele>75</ele>
        <time>2021-03-20T01:30:22</time>
      </trkpt>
      <trkpt lat="41.2614018749446" lon="-8.6621879786253">
        <ele>75.2</ele>
        <time>2021-03-20T01:30:23</time>
      </trkpt>
      <trkpt lat="41.2613379210234" lon="-8.66215269081294">
        <ele>75.4</ele>
        <time>2021-03-20T01:30:24</time>
      </trkpt>
      <trkpt lat="41.261210180819" lon="-8.66208345629275">
        <ele>75.6</ele>
        <time>2021-03-20T01:30:25</time>
      </trkpt>
      <trkpt lat="41.2611461430788" lon="-8.66204783320427">
        <ele>76</ele>
        <time>2021-03-20T01:30:26</time>
      </trkpt>
      <trkpt lat="41.2610819377005" lon="-8.66201296448708">
        <ele>76.2</ele>
        <time>2021-03-20T01:30:27</time>
      </trkpt>
      <trkpt lat="41.2610178999603" lon="-8.66197750903666">
        <ele>76.4</ele>
        <time>2021-03-20T01:30:28</time>
      </trkpt>
      <trkpt lat="41.2609544489533" lon="-8.66194331087172">
        <ele>76.6</ele>
        <time>2021-03-20T01:30:29</time>
      </trkpt>
      <trkpt lat="41.2608910817653" lon="-8.66190978325904">
        <ele>76.8</ele>
        <time>2021-03-20T01:30:30</time>
      </trkpt>
      <trkpt lat="41.2608291395009" lon="-8.6618771776557">
        <ele>77.2</ele>
        <time>2021-03-20T01:30:31</time>
      </trkpt>
      <trkpt lat="41.2607659399509" lon="-8.66184197366238">
        <ele>77.4</ele>
        <time>2021-03-20T01:30:32</time>
      </trkpt>
      <trkpt lat="41.2607017345726" lon="-8.66180517710745">
        <ele>77.6</ele>
        <time>2021-03-20T01:30:33</time>
      </trkpt>
      <trkpt lat="41.2606376130134" lon="-8.66176771000028">
        <ele>77.8</ele>
        <time>2021-03-20T01:30:34</time>
      </trkpt>
      <trkpt lat="41.2606376130134" lon="-8.66176771000028">
        <ele>78</ele>
        <time>2021-03-20T01:30:35</time>
      </trkpt>
      <trkpt lat="41.2605074420571" lon="-8.6616890039295">
        <ele>78.6</ele>
        <time>2021-03-20T01:30:36</time>
      </trkpt>
      <trkpt lat="41.2604427337646" lon="-8.66165195591748">
        <ele>78.8</ele>
        <time>2021-03-20T01:30:37</time>
      </trkpt>
      <trkpt lat="41.2604427337646" lon="-8.66165195591748">
        <ele>78.8</ele>
        <time>2021-03-20T01:30:38</time>
      </trkpt>
      <trkpt lat="41.2603136524558" lon="-8.66156822070479">
        <ele>78.8</ele>
        <time>2021-03-20T01:30:39</time>
      </trkpt>
      <trkpt lat="41.2602683901787" lon="-8.66153578273952">
        <ele>79.4</ele>
        <time>2021-03-20T01:30:40</time>
      </trkpt>
      <trkpt lat="41.2602046877146" lon="-8.66148968227208">
        <ele>80</ele>
        <time>2021-03-20T01:30:41</time>
      </trkpt>
      <trkpt lat="41.2601516302675" lon="-8.66144475527108">
        <ele>80.2</ele>
        <time>2021-03-20T01:30:42</time>
      </trkpt>
      <trkpt lat="41.2601011712104" lon="-8.66140175610781">
        <ele>80.6</ele>
        <time>2021-03-20T01:30:43</time>
      </trkpt>
      <trkpt lat="41.2600596807897" lon="-8.66136671975255">
        <ele>80.8</ele>
        <time>2021-03-20T01:30:44</time>
      </trkpt>
      <trkpt lat="41.2600019294769" lon="-8.66131416521966">
        <ele>81.2</ele>
        <time>2021-03-20T01:30:45</time>
      </trkpt>
      <trkpt lat="41.2599482014775" lon="-8.66125951521099">
        <ele>81.2</ele>
        <time>2021-03-20T01:30:46</time>
      </trkpt>
      <trkpt lat="41.2598884385079" lon="-8.66119782440364">
        <ele>81.4</ele>
        <time>2021-03-20T01:30:47</time>
      </trkpt>
      <trkpt lat="41.2598394043744" lon="-8.66114250384271">
        <ele>81.8</ele>
        <time>2021-03-20T01:30:48</time>
      </trkpt>
      <trkpt lat="41.2598053738475" lon="-8.66109766066074">
        <ele>82.2</ele>
        <time>2021-03-20T01:30:49</time>
      </trkpt>
      <trkpt lat="41.2597569264472" lon="-8.66103420965374">
        <ele>82.4</ele>
        <time>2021-03-20T01:30:50</time>
      </trkpt>
      <trkpt lat="41.2597047071904" lon="-8.66096053272486">
        <ele>82.6</ele>
        <time>2021-03-20T01:30:51</time>
      </trkpt>
      <trkpt lat="41.2596576847136" lon="-8.66089121438563">
        <ele>82.8</ele>
        <time>2021-03-20T01:30:52</time>
      </trkpt>
      <trkpt lat="41.2596124224365" lon="-8.66083329543471">
        <ele>83</ele>
        <time>2021-03-20T01:30:53</time>
      </trkpt>
      <trkpt lat="41.2595680821687" lon="-8.66076431237161">
        <ele>83.2</ele>
        <time>2021-03-20T01:30:54</time>
      </trkpt>
      <trkpt lat="41.2595182098448" lon="-8.66068569011986">
        <ele>83.4</ele>
        <time>2021-03-20T01:30:55</time>
      </trkpt>
      <trkpt lat="41.2594623863697" lon="-8.66059432737529">
        <ele>83.6</ele>
        <time>2021-03-20T01:30:56</time>
      </trkpt>
      <trkpt lat="41.2594405934215" lon="-8.66054747253656">
        <ele>83.8</ele>
        <time>2021-03-20T01:30:57</time>
      </trkpt>
      <trkpt lat="41.2593907210976" lon="-8.66045979782939">
        <ele>84</ele>
        <time>2021-03-20T01:30:58</time>
      </trkpt>
      <trkpt lat="41.2593613844365" lon="-8.66039852611721">
        <ele>83.8</ele>
        <time>2021-03-20T01:30:59</time>
      </trkpt>
      <trkpt lat="41.2593202292919" lon="-8.66032551974058">
        <ele>84.2</ele>
        <time>2021-03-20T01:31:00</time>
      </trkpt>
      <trkpt lat="41.2592964246869" lon="-8.66027472540736">
        <ele>84.4</ele>
        <time>2021-03-20T01:31:01</time>
      </trkpt>
      <trkpt lat="41.2592644058168" lon="-8.66021496243775">
        <ele>84.6</ele>
        <time>2021-03-20T01:31:02</time>
      </trkpt>
      <trkpt lat="41.2592294532806" lon="-8.66014027968049">
        <ele>84.6</ele>
        <time>2021-03-20T01:31:03</time>
      </trkpt>
      <trkpt lat="41.2592012062669" lon="-8.66006903350353">
        <ele>84.8</ele>
        <time>2021-03-20T01:31:04</time>
      </trkpt>
      <trkpt lat="41.2591721210629" lon="-8.66000767797232">
        <ele>84.8</ele>
        <time>2021-03-20T01:31:05</time>
      </trkpt>
      <trkpt lat="41.2591429520398" lon="-8.65994330495596">
        <ele>85</ele>
        <time>2021-03-20T01:31:06</time>
      </trkpt>
      <trkpt lat="41.259108921513" lon="-8.65986929275096">
        <ele>85</ele>
        <time>2021-03-20T01:31:07</time>
      </trkpt>
      <trkpt lat="41.2590762320906" lon="-8.65979745984078">
        <ele>85.6</ele>
        <time>2021-03-20T01:31:08</time>
      </trkpt>
      <trkpt lat="41.2590389326215" lon="-8.65972001105547">
        <ele>85.6</ele>
        <time>2021-03-20T01:31:09</time>
      </trkpt>
      <trkpt lat="41.2590016331524" lon="-8.659652704373">
        <ele>86</ele>
        <time>2021-03-20T01:31:10</time>
      </trkpt>
      <trkpt lat="41.2589620705694" lon="-8.65957349538803">
        <ele>86.2</ele>
        <time>2021-03-20T01:31:11</time>
      </trkpt>
      <trkpt lat="41.2589261122048" lon="-8.65950317122042">
        <ele>86.4</ele>
        <time>2021-03-20T01:31:12</time>
      </trkpt>
      <trkpt lat="41.2588834483176" lon="-8.65942019037902">
        <ele>86.4</ele>
        <time>2021-03-20T01:31:13</time>
      </trkpt>
      <trkpt lat="41.2588614039123" lon="-8.65937350317836">
        <ele>87</ele>
        <time>2021-03-20T01:31:14</time>
      </trkpt>
      <trkpt lat="41.2588268704712" lon="-8.65930418483913">
        <ele>87.2</ele>
        <time>2021-03-20T01:31:15</time>
      </trkpt>
      <trkpt lat="41.2587852124125" lon="-8.65922765806317">
        <ele>87.2</ele>
        <time>2021-03-20T01:31:16</time>
      </trkpt>
      <trkpt lat="41.2587534449995" lon="-8.65916227921844">
        <ele>87.4</ele>
        <time>2021-03-20T01:31:17</time>
      </trkpt>
      <trkpt lat="41.2587278801948" lon="-8.65911098197102">
        <ele>87.6</ele>
        <time>2021-03-20T01:31:18</time>
      </trkpt>
      <trkpt lat="41.2586921732873" lon="-8.65904426202178">
        <ele>87.6</ele>
        <time>2021-03-20T01:31:19</time>
      </trkpt>
      <trkpt lat="41.2586614117026" lon="-8.65898181684315">
        <ele>87.8</ele>
        <time>2021-03-20T01:31:20</time>
      </trkpt>
      <trkpt lat="41.2586241122335" lon="-8.65891576744616">
        <ele>88.2</ele>
        <time>2021-03-20T01:31:21</time>
      </trkpt>
      <trkpt lat="41.2586011458188" lon="-8.65886321291328">
        <ele>88.2</ele>
        <time>2021-03-20T01:31:22</time>
      </trkpt>
      <trkpt lat="41.2585677020252" lon="-8.65879967808724">
        <ele>88.4</ele>
        <time>2021-03-20T01:31:23</time>
      </trkpt>
      <trkpt lat="41.2585336714983" lon="-8.65873480215669">
        <ele>88.4</ele>
        <time>2021-03-20T01:31:24</time>
      </trkpt>
      <trkpt lat="41.2584983836859" lon="-8.6586666572839">
        <ele>88.6</ele>
        <time>2021-03-20T01:31:25</time>
      </trkpt>
      <trkpt lat="41.2584587372839" lon="-8.65860152989626">
        <ele>88.6</ele>
        <time>2021-03-20T01:31:26</time>
      </trkpt>
      <trkpt lat="41.2584283947945" lon="-8.65855467505753">
        <ele>89</ele>
        <time>2021-03-20T01:31:27</time>
      </trkpt>
      <trkpt lat="41.2583931908011" lon="-8.65848468616605">
        <ele>89.2</ele>
        <time>2021-03-20T01:31:28</time>
      </trkpt>
      <trkpt lat="41.2583576515317" lon="-8.65841620601714">
        <ele>89.4</ele>
        <time>2021-03-20T01:31:29</time>
      </trkpt>
      <trkpt lat="41.2583309132606" lon="-8.65836532786489">
        <ele>89.6</ele>
        <time>2021-03-20T01:31:30</time>
      </trkpt>
      <trkpt lat="41.258300403133" lon="-8.65829952992499">
        <ele>89.8</ele>
        <time>2021-03-20T01:31:31</time>
      </trkpt>
      <trkpt lat="41.2582641094923" lon="-8.65823448635638">
        <ele>90</ele>
        <time>2021-03-20T01:31:32</time>
      </trkpt>
      <trkpt lat="41.2582284025848" lon="-8.65816868841648">
        <ele>90</ele>
        <time>2021-03-20T01:31:33</time>
      </trkpt>
      <trkpt lat="41.2582002393901" lon="-8.65812350995839">
        <ele>90.2</ele>
        <time>2021-03-20T01:31:34</time>
      </trkpt>
      <trkpt lat="41.2581677176058" lon="-8.65806098096073">
        <ele>90.2</ele>
        <time>2021-03-20T01:31:35</time>
      </trkpt>
      <trkpt lat="41.2581331003457" lon="-8.65800130181014">
        <ele>90.6</ele>
        <time>2021-03-20T01:31:36</time>
      </trkpt>
      <trkpt lat="41.2581054400653" lon="-8.65795218385756">
        <ele>90.6</ele>
        <time>2021-03-20T01:31:37</time>
      </trkpt>
      <trkpt lat="41.2580673862249" lon="-8.65787800401449">
        <ele>90.8</ele>
        <time>2021-03-20T01:31:38</time>
      </trkpt>
      <trkpt lat="41.2580290809274" lon="-8.65781622938812">
        <ele>91.2</ele>
        <time>2021-03-20T01:31:39</time>
      </trkpt>
      <trkpt lat="41.2579931225628" lon="-8.65774733014405">
        <ele>91.4</ele>
        <time>2021-03-20T01:31:40</time>
      </trkpt>
      <trkpt lat="41.2579651270062" lon="-8.65770181640983">
        <ele>91.6</ele>
        <time>2021-03-20T01:31:41</time>
      </trkpt>
      <trkpt lat="41.2579289171845" lon="-8.65763518027961">
        <ele>91.6</ele>
        <time>2021-03-20T01:31:42</time>
      </trkpt>
      <trkpt lat="41.2578994128853" lon="-8.65758103318512">
        <ele>91.8</ele>
        <time>2021-03-20T01:31:43</time>
      </trkpt>
      <trkpt lat="41.2578782066703" lon="-8.65753317251802">
        <ele>92</ele>
        <time>2021-03-20T01:31:44</time>
      </trkpt>
      <trkpt lat="41.2578397337347" lon="-8.65746896713972">
        <ele>92.2</ele>
        <time>2021-03-20T01:31:45</time>
      </trkpt>
      <trkpt lat="41.2578031886369" lon="-8.65739746950567">
        <ele>92.4</ele>
        <time>2021-03-20T01:31:46</time>
      </trkpt>
      <trkpt lat="41.2577720917761" lon="-8.65733116865158">
        <ele>92.6</ele>
        <time>2021-03-20T01:31:47</time>
      </trkpt>
      <trkpt lat="41.257745185867" lon="-8.65727819502354">
        <ele>92.8</ele>
        <time>2021-03-20T01:31:48</time>
      </trkpt>
      <trkpt lat="41.2577086407691" lon="-8.65720527246594">
        <ele>92.8</ele>
        <time>2021-03-20T01:31:49</time>
      </trkpt>
      <trkpt lat="41.25767393969" lon="-8.65713796578348">
        <ele>93.2</ele>
        <time>2021-03-20T01:31:50</time>
      </trkpt>
      <trkpt lat="41.2576389033347" lon="-8.65707149729133">
        <ele>93.2</ele>
        <time>2021-03-20T01:31:51</time>
      </trkpt>
      <trkpt lat="41.2576119136065" lon="-8.65701978094876">
        <ele>93.2</ele>
        <time>2021-03-20T01:31:52</time>
      </trkpt>
      <trkpt lat="41.2575771287084" lon="-8.65695297718048">
        <ele>93.6</ele>
        <time>2021-03-20T01:31:53</time>
      </trkpt>
      <trkpt lat="41.2575372308493" lon="-8.65688097663224">
        <ele>93.8</ele>
        <time>2021-03-20T01:31:54</time>
      </trkpt>
      <trkpt lat="41.2575041223317" lon="-8.65681551396847">
        <ele>94</ele>
        <time>2021-03-20T01:31:55</time>
      </trkpt>
      <trkpt lat="41.2574798986316" lon="-8.65676673129201">
        <ele>94.2</ele>
        <time>2021-03-20T01:31:56</time>
      </trkpt>
      <trkpt lat="41.2574436049908" lon="-8.65669975988567">
        <ele>94</ele>
        <time>2021-03-20T01:31:57</time>
      </trkpt>
      <trkpt lat="41.2574006896466" lon="-8.65662130527198">
        <ele>94.2</ele>
        <time>2021-03-20T01:31:58</time>
      </trkpt>
      <trkpt lat="41.2573782261461" lon="-8.65657126531005">
        <ele>94.2</ele>
        <time>2021-03-20T01:31:59</time>
      </trkpt>
      <trkpt lat="41.2573336344212" lon="-8.65648367442191">
        <ele>95</ele>
        <time>2021-03-20T01:32:00</time>
      </trkpt>
      <trkpt lat="41.2573115900159" lon="-8.6564376577735">
        <ele>95.6</ele>
        <time>2021-03-20T01:32:01</time>
      </trkpt>
      <trkpt lat="41.2572665791959" lon="-8.65635719150305">
        <ele>94.8</ele>
        <time>2021-03-20T01:32:02</time>
      </trkpt>
      <trkpt lat="41.2572242505848" lon="-8.6562783177942">
        <ele>94.8</ele>
        <time>2021-03-20T01:32:03</time>
      </trkpt>
      <trkpt lat="41.2571861967444" lon="-8.65620715543628">
        <ele>95.2</ele>
        <time>2021-03-20T01:32:04</time>
      </trkpt>
      <trkpt lat="41.2571462150663" lon="-8.65614051930606">
        <ele>95.6</ele>
        <time>2021-03-20T01:32:05</time>
      </trkpt>
      <trkpt lat="41.2571157049388" lon="-8.65609299391508">
        <ele>95.6</ele>
        <time>2021-03-20T01:32:06</time>
      </trkpt>
      <trkpt lat="41.2570782378316" lon="-8.65602719597518">
        <ele>96</ele>
        <time>2021-03-20T01:32:07</time>
      </trkpt>
      <trkpt lat="41.2570318859071" lon="-8.65594153292477">
        <ele>96</ele>
        <time>2021-03-20T01:32:08</time>
      </trkpt>
      <trkpt lat="41.2569915689528" lon="-8.65587028674781">
        <ele>96.2</ele>
        <time>2021-03-20T01:32:09</time>
      </trkpt>
      <trkpt lat="41.2569650821388" lon="-8.65581681020558">
        <ele>96.2</ele>
        <time>2021-03-20T01:32:10</time>
      </trkpt>
      <trkpt lat="41.2569443788379" lon="-8.65577515214682">
        <ele>96.4</ele>
        <time>2021-03-20T01:32:11</time>
      </trkpt>
      <trkpt lat="41.2569051515311" lon="-8.65570466034114">
        <ele>96.6</ele>
        <time>2021-03-20T01:32:12</time>
      </trkpt>
      <trkpt lat="41.2568617332727" lon="-8.65563601255417">
        <ele>96.4</ele>
        <time>2021-03-20T01:32:13</time>
      </trkpt>
      <trkpt lat="41.2568200752139" lon="-8.65557775832713">
        <ele>96.6</ele>
        <time>2021-03-20T01:32:14</time>
      </trkpt>
      <trkpt lat="41.2567966897041" lon="-8.65555169060826">
        <ele>96.8</ele>
        <time>2021-03-20T01:32:15</time>
      </trkpt>
      <trkpt lat="41.2567601446062" lon="-8.65551020018756">
        <ele>97</ele>
        <time>2021-03-20T01:32:16</time>
      </trkpt>
      <trkpt lat="41.2567178998142" lon="-8.65544431842864">
        <ele>97</ele>
        <time>2021-03-20T01:32:17</time>
      </trkpt>
      <trkpt lat="41.2566738948226" lon="-8.65538329817355">
        <ele>97</ele>
        <time>2021-03-20T01:32:18</time>
      </trkpt>
      <trkpt lat="41.25663257204" lon="-8.65532948635519">
        <ele>97</ele>
        <time>2021-03-20T01:32:19</time>
      </trkpt>
      <trkpt lat="41.2565838731825" lon="-8.65528330206871">
        <ele>97</ele>
        <time>2021-03-20T01:32:20</time>
      </trkpt>
      <trkpt lat="41.2565271276981" lon="-8.65521968342364">
        <ele>97.2</ele>
        <time>2021-03-20T01:32:21</time>
      </trkpt>
      <trkpt lat="41.2564973719418" lon="-8.65517970174551">
        <ele>97.2</ele>
        <time>2021-03-20T01:32:22</time>
      </trkpt>
      <trkpt lat="41.2564506009221" lon="-8.65512932650745">
        <ele>97.4</ele>
        <time>2021-03-20T01:32:23</time>
      </trkpt>
      <trkpt lat="41.2563961185515" lon="-8.65506378002465">
        <ele>97.4</ele>
        <time>2021-03-20T01:32:24</time>
      </trkpt>
      <trkpt lat="41.2563350982964" lon="-8.65499446168542">
        <ele>97.8</ele>
        <time>2021-03-20T01:32:25</time>
      </trkpt>
      <trkpt lat="41.256278436631" lon="-8.65494048222899">
        <ele>98.2</ele>
        <time>2021-03-20T01:32:26</time>
      </trkpt>
      <trkpt lat="41.2562381196767" lon="-8.65490117110312">
        <ele>98.2</ele>
        <time>2021-03-20T01:32:27</time>
      </trkpt>
      <trkpt lat="41.2561882473528" lon="-8.65485532209277">
        <ele>98.2</ele>
        <time>2021-03-20T01:32:28</time>
      </trkpt>
      <trkpt lat="41.2561407219619" lon="-8.65481777116656">
        <ele>98.4</ele>
        <time>2021-03-20T01:32:29</time>
      </trkpt>
      <trkpt lat="41.2560931127518" lon="-8.6547777056694">
        <ele>98.6</ele>
        <time>2021-03-20T01:32:30</time>
      </trkpt>
      <trkpt lat="41.2560416478664" lon="-8.65473772399128">
        <ele>98.8</ele>
        <time>2021-03-20T01:32:31</time>
      </trkpt>
      <trkpt lat="41.2559802085161" lon="-8.65470595657826">
        <ele>98.8</ele>
        <time>2021-03-20T01:32:32</time>
      </trkpt>
      <trkpt lat="41.2559334374964" lon="-8.65468231961131">
        <ele>98.8</ele>
        <time>2021-03-20T01:32:33</time>
      </trkpt>
      <trkpt lat="41.2558984011412" lon="-8.65467024967074">
        <ele>98.8</ele>
        <time>2021-03-20T01:32:34</time>
      </trkpt>
      <trkpt lat="41.2558494508266" lon="-8.65464468486607">
        <ele>98.8</ele>
        <time>2021-03-20T01:32:35</time>
      </trkpt>
      <trkpt lat="41.255792370066" lon="-8.65459950640798">
        <ele>99</ele>
        <time>2021-03-20T01:32:36</time>
      </trkpt>
      <trkpt lat="41.2557378876954" lon="-8.65458182059228">
        <ele>99</ele>
        <time>2021-03-20T01:32:37</time>
      </trkpt>
      <trkpt lat="41.2555906176567" lon="-8.65451317280531">
        <ele>99.2</ele>
        <time>2021-03-20T01:32:38</time>
      </trkpt>
      <trkpt lat="41.255541248247" lon="-8.65448232740164">
        <ele>99.2</ele>
        <time>2021-03-20T01:32:39</time>
      </trkpt>
      <trkpt lat="41.2554850894958" lon="-8.65444578230381">
        <ele>99.2</ele>
        <time>2021-03-20T01:32:40</time>
      </trkpt>
      <trkpt lat="41.2554271705449" lon="-8.65442072041333">
        <ele>99.4</ele>
        <time>2021-03-20T01:32:41</time>
      </trkpt>
      <trkpt lat="41.2553665693849" lon="-8.6543912999332">
        <ele>99.6</ele>
        <time>2021-03-20T01:32:42</time>
      </trkpt>
      <trkpt lat="41.2553073931485" lon="-8.654366992414">
        <ele>100</ele>
        <time>2021-03-20T01:32:43</time>
      </trkpt>
      <trkpt lat="41.2551709357649" lon="-8.65429549477994">
        <ele>100.2</ele>
        <time>2021-03-20T01:32:44</time>
      </trkpt>
      <trkpt lat="41.2551217339933" lon="-8.6542546749115">
        <ele>100.2</ele>
        <time>2021-03-20T01:32:45</time>
      </trkpt>
      <trkpt lat="41.2550384178758" lon="-8.65418376401067">
        <ele>100.4</ele>
        <time>2021-03-20T01:32:46</time>
      </trkpt>
      <trkpt lat="41.254975637421" lon="-8.6541183013469">
        <ele>100.4</ele>
        <time>2021-03-20T01:32:47</time>
      </trkpt>
      <trkpt lat="41.254898943007" lon="-8.65410329774022">
        <ele>100.2</ele>
        <time>2021-03-20T01:32:48</time>
      </trkpt>
      <trkpt lat="41.2548362463713" lon="-8.65408125333488">
        <ele>100.2</ele>
        <time>2021-03-20T01:32:49</time>
      </trkpt>
      <trkpt lat="41.2547681014985" lon="-8.6540506593883">
        <ele>100.2</ele>
        <time>2021-03-20T01:32:50</time>
      </trkpt>
      <trkpt lat="41.2546893954277" lon="-8.6540527548641">
        <ele>100.2</ele>
        <time>2021-03-20T01:32:51</time>
      </trkpt>
      <trkpt lat="41.2546011339873" lon="-8.65408301353454">
        <ele>100.4</ele>
        <time>2021-03-20T01:32:52</time>
      </trkpt>
      <trkpt lat="41.2545311450958" lon="-8.65408125333488">
        <ele>100.6</ele>
        <time>2021-03-20T01:32:53</time>
      </trkpt>
      <trkpt lat="41.2544754054397" lon="-8.65406180731952">
        <ele>100.6</ele>
        <time>2021-03-20T01:32:54</time>
      </trkpt>
      <trkpt lat="41.2544573843479" lon="-8.65404521115124">
        <ele>101</ele>
        <time>2021-03-20T01:32:55</time>
      </trkpt>
      <trkpt lat="41.254412708804" lon="-8.65398427471519">
        <ele>101</ele>
        <time>2021-03-20T01:32:56</time>
      </trkpt>
      <trkpt lat="41.2543661892414" lon="-8.65391596220434">
        <ele>101.4</ele>
        <time>2021-03-20T01:32:57</time>
      </trkpt>
      <trkpt lat="41.2543521076441" lon="-8.65388746373355">
        <ele>101.6</ele>
        <time>2021-03-20T01:32:58</time>
      </trkpt>
      <trkpt lat="41.2543354276568" lon="-8.65384194999933">
        <ele>101.6</ele>
        <time>2021-03-20T01:32:59</time>
      </trkpt>
      <trkpt lat="41.2542833760381" lon="-8.65377321839333">
        <ele>101.6</ele>
        <time>2021-03-20T01:33:00</time>
      </trkpt>
      <trkpt lat="41.2542379461229" lon="-8.6537004634738">
        <ele>101.6</ele>
        <time>2021-03-20T01:33:01</time>
      </trkpt>
      <trkpt lat="41.2542050890624" lon="-8.65370465442538">
        <ele>101.6</ele>
        <time>2021-03-20T01:33:02</time>
      </trkpt>
      <trkpt lat="41.254150941968" lon="-8.65364279597998">
        <ele>101.6</ele>
        <time>2021-03-20T01:33:03</time>
      </trkpt>
      <trkpt lat="41.2541224434972" lon="-8.65361832082272">
        <ele>101.6</ele>
        <time>2021-03-20T01:33:04</time>
      </trkpt>
      <trkpt lat="41.2540711462498" lon="-8.65358219482005">
        <ele>101.6</ele>
        <time>2021-03-20T01:33:05</time>
      </trkpt>
      <trkpt lat="41.2540304102004" lon="-8.6535535287112">
        <ele>101.8</ele>
        <time>2021-03-20T01:33:06</time>
      </trkpt>
      <trkpt lat="41.2539651989937" lon="-8.65349519066513">
        <ele>101.6</ele>
        <time>2021-03-20T01:33:07</time>
      </trkpt>
      <trkpt lat="41.2539171706885" lon="-8.65345881320536">
        <ele>101.6</ele>
        <time>2021-03-20T01:33:08</time>
      </trkpt>
      <trkpt lat="41.2538585811853" lon="-8.65340081043541">
        <ele>101.4</ele>
        <time>2021-03-20T01:33:09</time>
      </trkpt>
      <trkpt lat="41.2538169231266" lon="-8.65335722453892">
        <ele>101.2</ele>
        <time>2021-03-20T01:33:10</time>
      </trkpt>
      <trkpt lat="41.2537636142224" lon="-8.65331430919468">
        <ele>101.2</ele>
        <time>2021-03-20T01:33:11</time>
      </trkpt>
      <trkpt lat="41.2537103891373" lon="-8.65326577797532">
        <ele>101.2</ele>
        <time>2021-03-20T01:33:12</time>
      </trkpt>
      <trkpt lat="41.2536702398211" lon="-8.65322914905846">
        <ele>101</ele>
        <time>2021-03-20T01:33:13</time>
      </trkpt>
      <trkpt lat="41.253614667803" lon="-8.6531787738204">
        <ele>101</ele>
        <time>2021-03-20T01:33:14</time>
      </trkpt>
      <trkpt lat="41.2535549048334" lon="-8.65312420763075">
        <ele>101</ele>
        <time>2021-03-20T01:33:15</time>
      </trkpt>
      <trkpt lat="41.2535039428622" lon="-8.65307726897299">
        <ele>101</ele>
        <time>2021-03-20T01:33:16</time>
      </trkpt>
      <trkpt lat="41.2534596864134" lon="-8.65303720347583">
        <ele>101</ele>
        <time>2021-03-20T01:33:17</time>
      </trkpt>
      <trkpt lat="41.2534026894718" lon="-8.65299152210355">
        <ele>101</ele>
        <time>2021-03-20T01:33:18</time>
      </trkpt>
      <trkpt lat="41.2533459439874" lon="-8.65294517017901">
        <ele>101.2</ele>
        <time>2021-03-20T01:33:19</time>
      </trkpt>
      <trkpt lat="41.2532907072455" lon="-8.65289881825447">
        <ele>101.2</ele>
        <time>2021-03-20T01:33:20</time>
      </trkpt>
      <trkpt lat="41.2532476242632" lon="-8.65285045467317">
        <ele>101</ele>
        <time>2021-03-20T01:33:21</time>
      </trkpt>
      <trkpt lat="41.2532124202698" lon="-8.65280921570957">
        <ele>100.8</ele>
        <time>2021-03-20T01:33:22</time>
      </trkpt>
      <trkpt lat="41.253165230155" lon="-8.65277250297368">
        <ele>100.6</ele>
        <time>2021-03-20T01:33:23</time>
      </trkpt>
      <trkpt lat="41.2531021982431" lon="-8.65271802060306">
        <ele>100.4</ele>
        <time>2021-03-20T01:33:24</time>
      </trkpt>
      <trkpt lat="41.2530446983874" lon="-8.65267175249755">
        <ele>100</ele>
        <time>2021-03-20T01:33:25</time>
      </trkpt>
      <trkpt lat="41.2529831752181" lon="-8.65261525847018">
        <ele>99.8</ele>
        <time>2021-03-20T01:33:26</time>
      </trkpt>
      <trkpt lat="41.2529436126351" lon="-8.6525814794004">
        <ele>99.6</ele>
        <time>2021-03-20T01:33:27</time>
      </trkpt>
      <trkpt lat="41.2528809159994" lon="-8.65252800285816">
        <ele>99.4</ele>
        <time>2021-03-20T01:33:28</time>
      </trkpt>
      <trkpt lat="41.2528178840876" lon="-8.65246865898371">
        <ele>99</ele>
        <time>2021-03-20T01:33:29</time>
      </trkpt>
      <trkpt lat="41.2527473922819" lon="-8.65241115912795">
        <ele>98.6</ele>
        <time>2021-03-20T01:33:30</time>
      </trkpt>
      <trkpt lat="41.2526741344482" lon="-8.65234779193997">
        <ele>98.6</ele>
        <time>2021-03-20T01:33:31</time>
      </trkpt>
      <trkpt lat="41.2526111025363" lon="-8.65228652022779">
        <ele>98.2</ele>
        <time>2021-03-20T01:33:32</time>
      </trkpt>
      <trkpt lat="41.2525438796729" lon="-8.65223220549524">
        <ele>98</ele>
        <time>2021-03-20T01:33:33</time>
      </trkpt>
      <trkpt lat="41.252480680123" lon="-8.65217428654432">
        <ele>98</ele>
        <time>2021-03-20T01:33:34</time>
      </trkpt>
      <trkpt lat="41.2524189054966" lon="-8.65212265402079">
        <ele>97.8</ele>
        <time>2021-03-20T01:33:35</time>
      </trkpt>
      <trkpt lat="41.2523462343961" lon="-8.65206020884216">
        <ele>97.2</ele>
        <time>2021-03-20T01:33:36</time>
      </trkpt>
      <trkpt lat="41.2522785924375" lon="-8.65199818275869">
        <ele>97.2</ele>
        <time>2021-03-20T01:33:37</time>
      </trkpt>
      <trkpt lat="41.2522141356021" lon="-8.65193774923682">
        <ele>97</ele>
        <time>2021-03-20T01:33:38</time>
      </trkpt>
      <trkpt lat="41.2521386984736" lon="-8.65186868235469">
        <ele>96.4</ele>
        <time>2021-03-20T01:33:39</time>
      </trkpt>
      <trkpt lat="41.2520730681717" lon="-8.65180875174701">
        <ele>96.2</ele>
        <time>2021-03-20T01:33:40</time>
      </trkpt>
      <trkpt lat="41.251997128129" lon="-8.65174278616905">
        <ele>95.8</ele>
        <time>2021-03-20T01:33:41</time>
      </trkpt>
      <trkpt lat="41.251928396523" lon="-8.65168830379844">
        <ele>95.6</ele>
        <time>2021-03-20T01:33:42</time>
      </trkpt>
      <trkpt lat="41.2518521212041" lon="-8.65161471068859">
        <ele>95.4</ele>
        <time>2021-03-20T01:33:43</time>
      </trkpt>
      <trkpt lat="41.2517791986465" lon="-8.65155679173768">
        <ele>95.4</ele>
        <time>2021-03-20T01:33:44</time>
      </trkpt>
      <trkpt lat="41.2517081201076" lon="-8.65149099379778">
        <ele>95</ele>
        <time>2021-03-20T01:33:45</time>
      </trkpt>
      <trkpt lat="41.2516314256936" lon="-8.6514207534492">
        <ele>94.6</ele>
        <time>2021-03-20T01:33:46</time>
      </trkpt>
      <trkpt lat="41.2515606824309" lon="-8.65135830827057">
        <ele>94.4</ele>
        <time>2021-03-20T01:33:47</time>
      </trkpt>
      <trkpt lat="41.2514938786626" lon="-8.6512912530452">
        <ele>93.8</ele>
        <time>2021-03-20T01:33:48</time>
      </trkpt>
      <trkpt lat="41.2514191120863" lon="-8.65122981369496">
        <ele>93.4</ele>
        <time>2021-03-20T01:33:49</time>
      </trkpt>
      <trkpt lat="41.251344429329" lon="-8.65116267465055">
        <ele>93</ele>
        <time>2021-03-20T01:33:50</time>
      </trkpt>
      <trkpt lat="41.2512684054673" lon="-8.65109997801483">
        <ele>92.6</ele>
        <time>2021-03-20T01:33:51</time>
      </trkpt>
      <trkpt lat="41.2511896155775" lon="-8.65102395415306">
        <ele>92.6</ele>
        <time>2021-03-20T01:33:52</time>
      </trkpt>
      <trkpt lat="41.2511166092008" lon="-8.65096016786992">
        <ele>92.4</ele>
        <time>2021-03-20T01:33:53</time>
      </trkpt>
      <trkpt lat="41.2510402500629" lon="-8.65087249316275">
        <ele>92</ele>
        <time>2021-03-20T01:33:54</time>
      </trkpt>
      <trkpt lat="41.2509503960609" lon="-8.65078582428396">
        <ele>92.2</ele>
        <time>2021-03-20T01:33:55</time>
      </trkpt>
      <trkpt lat="41.250858111307" lon="-8.65070351399481">
        <ele>92.2</ele>
        <time>2021-03-20T01:33:56</time>
      </trkpt>
      <trkpt lat="41.2507726997137" lon="-8.65062598139048">
        <ele>92.2</ele>
        <time>2021-03-20T01:33:57</time>
      </trkpt>
      <trkpt lat="41.2506816722453" lon="-8.65054769441486">
        <ele>92</ele>
        <time>2021-03-20T01:33:58</time>
      </trkpt>
      <trkpt lat="41.2505925726146" lon="-8.65047502331436">
        <ele>91.6</ele>
        <time>2021-03-20T01:33:59</time>
      </trkpt>
      <trkpt lat="41.250517135486" lon="-8.65040402859449">
        <ele>91.6</ele>
        <time>2021-03-20T01:34:00</time>
      </trkpt>
      <trkpt lat="41.2504411116242" lon="-8.65032968111336">
        <ele>91.4</ele>
        <time>2021-03-20T01:34:01</time>
      </trkpt>
      <trkpt lat="41.2503396067768" lon="-8.65024745464325">
        <ele>91.6</ele>
        <time>2021-03-20T01:34:02</time>
      </trkpt>
      <trkpt lat="41.2502676900476" lon="-8.65018350072205">
        <ele>91.6</ele>
        <time>2021-03-20T01:34:03</time>
      </trkpt>
      <trkpt lat="41.2501837033778" lon="-8.65012222900987">
        <ele>91.6</ele>
        <time>2021-03-20T01:34:04</time>
      </trkpt>
      <trkpt lat="41.2500951904804" lon="-8.65006749518216">
        <ele>91.6</ele>
        <time>2021-03-20T01:34:05</time>
      </trkpt>
      <trkpt lat="41.2500045821071" lon="-8.65001569502056">
        <ele>91.4</ele>
        <time>2021-03-20T01:34:06</time>
      </trkpt>
      <trkpt lat="41.2499169073999" lon="-8.6499632243067">
        <ele>91.4</ele>
        <time>2021-03-20T01:34:07</time>
      </trkpt>
      <trkpt lat="41.2498330883682" lon="-8.64990966394544">
        <ele>92</ele>
        <time>2021-03-20T01:34:08</time>
      </trkpt>
      <trkpt lat="41.2497523706406" lon="-8.64985752850771">
        <ele>92.2</ele>
        <time>2021-03-20T01:34:09</time>
      </trkpt>
      <trkpt lat="41.2496626842767" lon="-8.64981201477349">
        <ele>92.2</ele>
        <time>2021-03-20T01:34:10</time>
      </trkpt>
      <trkpt lat="41.2495648674667" lon="-8.64974831230938">
        <ele>92.4</ele>
        <time>2021-03-20T01:34:11</time>
      </trkpt>
      <trkpt lat="41.2494874186814" lon="-8.64970095455646">
        <ele>92.4</ele>
        <time>2021-03-20T01:34:12</time>
      </trkpt>
      <trkpt lat="41.2493923678994" lon="-8.64964722655714">
        <ele>92.8</ele>
        <time>2021-03-20T01:34:13</time>
      </trkpt>
      <trkpt lat="41.2493112310767" lon="-8.64960632286966">
        <ele>93</ele>
        <time>2021-03-20T01:34:14</time>
      </trkpt>
      <trkpt lat="41.2492341175675" lon="-8.64956650882959">
        <ele>93</ele>
        <time>2021-03-20T01:34:15</time>
      </trkpt>
      <trkpt lat="41.2491702474654" lon="-8.64953122101724">
        <ele>92.8</ele>
        <time>2021-03-20T01:34:16</time>
      </trkpt>
      <trkpt lat="41.249095145613" lon="-8.6494867131114">
        <ele>93</ele>
        <time>2021-03-20T01:34:17</time>
      </trkpt>
      <trkpt lat="41.2490284256637" lon="-8.64945217967034">
        <ele>93</ele>
        <time>2021-03-20T01:34:18</time>
      </trkpt>
      <trkpt lat="41.2489429302514" lon="-8.64940515719354">
        <ele>92.6</ele>
        <time>2021-03-20T01:34:19</time>
      </trkpt>
      <trkpt lat="41.2488690856844" lon="-8.64937699399888">
        <ele>92.6</ele>
        <time>2021-03-20T01:34:20</time>
      </trkpt>
      <trkpt lat="41.2487897090614" lon="-8.6493432149291">
        <ele>92.8</ele>
        <time>2021-03-20T01:34:21</time>
      </trkpt>
      <trkpt lat="41.2487071473151" lon="-8.64931480027735">
        <ele>92.6</ele>
        <time>2021-03-20T01:34:22</time>
      </trkpt>
      <trkpt lat="41.2486202269793" lon="-8.64928429014981">
        <ele>92.6</ele>
        <time>2021-03-20T01:34:23</time>
      </trkpt>
      <trkpt lat="41.248550741002" lon="-8.64926702342928">
        <ele>92.6</ele>
        <time>2021-03-20T01:34:24</time>
      </trkpt>
      <trkpt lat="41.2484805844724" lon="-8.6492414586246">
        <ele>92.6</ele>
        <time>2021-03-20T01:34:25</time>
      </trkpt>
      <trkpt lat="41.2484157085419" lon="-8.64921664819121">
        <ele>92.6</ele>
        <time>2021-03-20T01:34:26</time>
      </trkpt>
      <trkpt lat="41.2483365833759" lon="-8.64919368177652">
        <ele>92.4</ele>
        <time>2021-03-20T01:34:27</time>
      </trkpt>
      <trkpt lat="41.2482676841319" lon="-8.64917666651309">
        <ele>92</ele>
        <time>2021-03-20T01:34:28</time>
      </trkpt>
      <trkpt lat="41.2481931690127" lon="-8.64916048943996">
        <ele>92.2</ele>
        <time>2021-03-20T01:34:29</time>
      </trkpt>
      <trkpt lat="41.2481157202274" lon="-8.6491346731782">
        <ele>92.4</ele>
        <time>2021-03-20T01:34:30</time>
      </trkpt>
      <trkpt lat="41.2480515986681" lon="-8.64911665208638">
        <ele>92.2</ele>
        <time>2021-03-20T01:34:31</time>
      </trkpt>
      <trkpt lat="41.2479824479669" lon="-8.64910433068872">
        <ele>92</ele>
        <time>2021-03-20T01:34:32</time>
      </trkpt>
      <trkpt lat="41.2479200866073" lon="-8.64909351803362">
        <ele>91.6</ele>
        <time>2021-03-20T01:34:33</time>
      </trkpt>
      <trkpt lat="41.2478484213352" lon="-8.6490807775408">
        <ele>91.4</ele>
        <time>2021-03-20T01:34:34</time>
      </trkpt>
      <trkpt lat="41.2477983813733" lon="-8.6490651872009">
        <ele>91.2</ele>
        <time>2021-03-20T01:34:35</time>
      </trkpt>
      <trkpt lat="41.2477271351963" lon="-8.64905077032745">
        <ele>91.4</ele>
        <time>2021-03-20T01:34:36</time>
      </trkpt>
      <trkpt lat="41.2476624269038" lon="-8.64902872592211">
        <ele>91.2</ele>
        <time>2021-03-20T01:34:37</time>
      </trkpt>
      <trkpt lat="41.2475926056504" lon="-8.64902528934181">
        <ele>91</ele>
        <time>2021-03-20T01:34:38</time>
      </trkpt>
      <trkpt lat="41.2475266400725" lon="-8.6490207631141">
        <ele>90.8</ele>
        <time>2021-03-20T01:34:39</time>
      </trkpt>
      <trkpt lat="41.2474527116865" lon="-8.64900098182261">
        <ele>90.4</ele>
        <time>2021-03-20T01:34:40</time>
      </trkpt>
      <trkpt lat="41.2473741732538" lon="-8.64898329600692">
        <ele>90.2</ele>
        <time>2021-03-20T01:34:41</time>
      </trkpt>
      <trkpt lat="41.2473036814481" lon="-8.64896980114281">
        <ele>90</ele>
        <time>2021-03-20T01:34:42</time>
      </trkpt>
      <trkpt lat="41.2472341954708" lon="-8.64895630627871">
        <ele>89.8</ele>
        <time>2021-03-20T01:34:43</time>
      </trkpt>
      <trkpt lat="41.2471616081893" lon="-8.648941218853">
        <ele>89.6</ele>
        <time>2021-03-20T01:34:44</time>
      </trkpt>
      <trkpt lat="41.247092122212" lon="-8.64892797544599">
        <ele>89.2</ele>
        <time>2021-03-20T01:34:45</time>
      </trkpt>
      <trkpt lat="41.2470122426748" lon="-8.64889981225133">
        <ele>88.8</ele>
        <time>2021-03-20T01:34:46</time>
      </trkpt>
      <trkpt lat="41.2469392362982" lon="-8.64888371899724">
        <ele>88.4</ele>
        <time>2021-03-20T01:34:47</time>
      </trkpt>
      <trkpt lat="41.2468667328358" lon="-8.64886217750609">
        <ele>88.2</ele>
        <time>2021-03-20T01:34:48</time>
      </trkpt>
      <trkpt lat="41.246793223545" lon="-8.64884432405234">
        <ele>88</ele>
        <time>2021-03-20T01:34:49</time>
      </trkpt>
      <trkpt lat="41.2467222288251" lon="-8.64883694797754">
        <ele>87.6</ele>
        <time>2021-03-20T01:34:50</time>
      </trkpt>
      <trkpt lat="41.2466409243643" lon="-8.64881875924766">
        <ele>87.2</ele>
        <time>2021-03-20T01:34:51</time>
      </trkpt>
      <trkpt lat="41.2465616315603" lon="-8.64880467765033">
        <ele>87.2</ele>
        <time>2021-03-20T01:34:52</time>
      </trkpt>
      <trkpt lat="41.2464757170528" lon="-8.64878850057721">
        <ele>87.2</ele>
        <time>2021-03-20T01:34:53</time>
      </trkpt>
      <trkpt lat="41.2463955860585" lon="-8.64877349697054">
        <ele>86.8</ele>
        <time>2021-03-20T01:34:54</time>
      </trkpt>
      <trkpt lat="41.2462984398007" lon="-8.64874726161361">
        <ele>86.6</ele>
        <time>2021-03-20T01:34:55</time>
      </trkpt>
      <trkpt lat="41.246235743165" lon="-8.64873644895852">
        <ele>86.4</ele>
        <time>2021-03-20T01:34:56</time>
      </trkpt>
      <trkpt lat="41.2461551930755" lon="-8.64872647449374">
        <ele>86.4</ele>
        <time>2021-03-20T01:34:57</time>
      </trkpt>
      <trkpt lat="41.2460671830922" lon="-8.64871247671544">
        <ele>86.2</ele>
        <time>2021-03-20T01:34:58</time>
      </trkpt>
      <trkpt lat="41.2459826935083" lon="-8.64870669320226">
        <ele>86</ele>
        <time>2021-03-20T01:34:59</time>
      </trkpt>
      <trkpt lat="41.2459076754749" lon="-8.64869629964232">
        <ele>85.8</ele>
        <time>2021-03-20T01:35:00</time>
      </trkpt>
      <trkpt lat="41.245847074315" lon="-8.64870082587004">
        <ele>85.8</ele>
        <time>2021-03-20T01:35:01</time>
      </trkpt>
      <trkpt lat="41.245775911957" lon="-8.64868045784533">
        <ele>85.8</ele>
        <time>2021-03-20T01:35:02</time>
      </trkpt>
      <trkpt lat="41.2457273807377" lon="-8.64868121221662">
        <ele>85.6</ele>
        <time>2021-03-20T01:35:03</time>
      </trkpt>
      <trkpt lat="41.2456961162388" lon="-8.64868900738656">
        <ele>85.6</ele>
        <time>2021-03-20T01:35:04</time>
      </trkpt>
      <trkpt lat="41.2456528656185" lon="-8.64866998046636">
        <ele>85.4</ele>
        <time>2021-03-20T01:35:05</time>
      </trkpt>
      <trkpt lat="41.2456307373941" lon="-8.64866872318089">
        <ele>85.4</ele>
        <time>2021-03-20T01:35:06</time>
      </trkpt>
      <trkpt lat="41.2456074357033" lon="-8.64865547977388">
        <ele>85.6</ele>
        <time>2021-03-20T01:35:07</time>
      </trkpt>
      <trkpt lat="41.2455900851637" lon="-8.64865547977388">
        <ele>85.8</ele>
        <time>2021-03-20T01:35:08</time>
      </trkpt>
      <trkpt lat="41.2455764226615" lon="-8.64865564741194">
        <ele>85.6</ele>
        <time>2021-03-20T01:35:09</time>
      </trkpt>
      <trkpt lat="41.2455578986555" lon="-8.6486460082233">
        <ele>85.6</ele>
        <time>2021-03-20T01:35:10</time>
      </trkpt>
      <trkpt lat="41.2455480918288" lon="-8.64863452501595">
        <ele>85.6</ele>
        <time>2021-03-20T01:35:11</time>
      </trkpt>
      <trkpt lat="41.2455447390676" lon="-8.648637291044">
        <ele>85.6</ele>
        <time>2021-03-20T01:35:12</time>
      </trkpt>
      <trkpt lat="41.2455435656011" lon="-8.648632010445">
        <ele>85.4</ele>
        <time>2021-03-20T01:35:13</time>
      </trkpt>
      <trkpt lat="41.2455516122282" lon="-8.64863418973982">
        <ele>85</ele>
        <time>2021-03-20T01:35:14</time>
      </trkpt>
      <trkpt lat="41.245548678562" lon="-8.64863217808306">
        <ele>84.8</ele>
        <time>2021-03-20T01:35:15</time>
      </trkpt>
      <trkpt lat="41.2455479241908" lon="-8.6486269813031">
        <ele>85</ele>
        <time>2021-03-20T01:35:16</time>
      </trkpt>
      <trkpt lat="41.2455359380692" lon="-8.64862103015184">
        <ele>85.2</ele>
        <time>2021-03-20T01:35:17</time>
      </trkpt>
      <trkpt lat="41.2455292325467" lon="-8.64862396381796">
        <ele>84.8</ele>
        <time>2021-03-20T01:35:18</time>
      </trkpt>
      <trkpt lat="41.245503667742" lon="-8.64861876703799">
        <ele>84.8</ele>
        <time>2021-03-20T01:35:19</time>
      </trkpt>
      <trkpt lat="41.2454732414335" lon="-8.64861030131578">
        <ele>84.6</ele>
        <time>2021-03-20T01:35:20</time>
      </trkpt>
      <trkpt lat="41.2454417254776" lon="-8.64860828965902">
        <ele>84.4</ele>
        <time>2021-03-20T01:35:21</time>
      </trkpt>
      <trkpt lat="41.2454098742455" lon="-8.64860518835485">
        <ele>84.2</ele>
        <time>2021-03-20T01:35:22</time>
      </trkpt>
      <trkpt lat="41.2453751731664" lon="-8.64859152585268">
        <ele>83.8</ele>
        <time>2021-03-20T01:35:23</time>
      </trkpt>
      <trkpt lat="41.2453314196318" lon="-8.64857476204634">
        <ele>83.2</ele>
        <time>2021-03-20T01:35:24</time>
      </trkpt>
      <trkpt lat="41.2452870793641" lon="-8.64856570959091">
        <ele>83.4</ele>
        <time>2021-03-20T01:35:25</time>
      </trkpt>
      <trkpt lat="41.2452378775924" lon="-8.64856000989676">
        <ele>82.8</ele>
        <time>2021-03-20T01:35:26</time>
      </trkpt>
      <trkpt lat="41.2451821379364" lon="-8.64854550920427">
        <ele>82.4</ele>
        <time>2021-03-20T01:35:27</time>
      </trkpt>
      <trkpt lat="41.2451166752726" lon="-8.64854115061462">
        <ele>82.2</ele>
        <time>2021-03-20T01:35:28</time>
      </trkpt>
      <trkpt lat="41.245054230094" lon="-8.64853922277689">
        <ele>81.6</ele>
        <time>2021-03-20T01:35:29</time>
      </trkpt>
      <trkpt lat="41.2449852470309" lon="-8.64852447062731">
        <ele>81</ele>
        <time>2021-03-20T01:35:30</time>
      </trkpt>
      <trkpt lat="41.2449144199491" lon="-8.6485162563622">
        <ele>80.8</ele>
        <time>2021-03-20T01:35:31</time>
      </trkpt>
      <trkpt lat="41.244834875688" lon="-8.64850418642163">
        <ele>80.6</ele>
        <time>2021-03-20T01:35:32</time>
      </trkpt>
      <trkpt lat="41.2447539065033" lon="-8.64848298020661">
        <ele>80.2</ele>
        <time>2021-03-20T01:35:33</time>
      </trkpt>
      <trkpt lat="41.2446756195277" lon="-8.64847149699926">
        <ele>79.4</ele>
        <time>2021-03-20T01:35:34</time>
      </trkpt>
      <trkpt lat="41.244597081095" lon="-8.64845565520227">
        <ele>79</ele>
        <time>2021-03-20T01:35:35</time>
      </trkpt>
      <trkpt lat="41.2445154413581" lon="-8.64844266325235">
        <ele>78.6</ele>
        <time>2021-03-20T01:35:36</time>
      </trkpt>
      <trkpt lat="41.2444234080613" lon="-8.64844132214785">
        <ele>78.2</ele>
        <time>2021-03-20T01:35:37</time>
      </trkpt>
      <trkpt lat="41.2443316262215" lon="-8.64844324998558">
        <ele>78.2</ele>
        <time>2021-03-20T01:35:38</time>
      </trkpt>
      <trkpt lat="41.2442421913147" lon="-8.64845280535519">
        <ele>78</ele>
        <time>2021-03-20T01:35:39</time>
      </trkpt>
      <trkpt lat="41.2441482301801" lon="-8.64846881479025">
        <ele>78</ele>
        <time>2021-03-20T01:35:40</time>
      </trkpt>
      <trkpt lat="41.2440504133701" lon="-8.64848499186337">
        <ele>77.8</ele>
        <time>2021-03-20T01:35:41</time>
      </trkpt>
      <trkpt lat="41.2439619004726" lon="-8.64852120168507">
        <ele>78</ele>
        <time>2021-03-20T01:35:42</time>
      </trkpt>
      <trkpt lat="41.2438843678683" lon="-8.64858448505402">
        <ele>77.8</ele>
        <time>2021-03-20T01:35:43</time>
      </trkpt>
      <trkpt lat="41.2438224256039" lon="-8.64866629242897">
        <ele>77.4</ele>
        <time>2021-03-20T01:35:44</time>
      </trkpt>
      <trkpt lat="41.2437696196139" lon="-8.64874818362296">
        <ele>77.8</ele>
        <time>2021-03-20T01:35:45</time>
      </trkpt>
      <trkpt lat="41.2437094375491" lon="-8.64882269874215">
        <ele>77.6</ele>
        <time>2021-03-20T01:35:46</time>
      </trkpt>
      <trkpt lat="41.243640370667" lon="-8.64888698793948">
        <ele>77</ele>
        <time>2021-03-20T01:35:47</time>
      </trkpt>
      <trkpt lat="41.2435669451952" lon="-8.64893032237887">
        <ele>77</ele>
        <time>2021-03-20T01:35:48</time>
      </trkpt>
      <trkpt lat="41.2434915918857" lon="-8.64894700236619">
        <ele>76.8</ele>
        <time>2021-03-20T01:35:49</time>
      </trkpt>
      <trkpt lat="41.2434146460146" lon="-8.64893149584532">
        <ele>76.4</ele>
        <time>2021-03-20T01:35:50</time>
      </trkpt>
      <trkpt lat="41.2433479260653" lon="-8.64890182390809">
        <ele>75.6</ele>
        <time>2021-03-20T01:35:51</time>
      </trkpt>
      <trkpt lat="41.2432776857168" lon="-8.64884574897587">
        <ele>75.2</ele>
        <time>2021-03-20T01:35:52</time>
      </trkpt>
      <trkpt lat="41.2432030867785" lon="-8.64882898516953">
        <ele>74.8</ele>
        <time>2021-03-20T01:35:53</time>
      </trkpt>
      <trkpt lat="41.2431241292506" lon="-8.64881917834282">
        <ele>74.6</ele>
        <time>2021-03-20T01:35:54</time>
      </trkpt>
      <trkpt lat="41.2430412322283" lon="-8.64881297573447">
        <ele>74.4</ele>
        <time>2021-03-20T01:35:55</time>
      </trkpt>
      <trkpt lat="41.2429550662637" lon="-8.64879118278623">
        <ele>74.6</ele>
        <time>2021-03-20T01:35:56</time>
      </trkpt>
      <trkpt lat="41.2428746838123" lon="-8.64876930601895">
        <ele>74</ele>
        <time>2021-03-20T01:35:57</time>
      </trkpt>
      <trkpt lat="41.2427917029709" lon="-8.64872965961695">
        <ele>73.8</ele>
        <time>2021-03-20T01:35:58</time>
      </trkpt>
      <trkpt lat="41.2427151761949" lon="-8.64868825301528">
        <ele>73.8</ele>
        <time>2021-03-20T01:35:59</time>
      </trkpt>
      <trkpt lat="41.2426286749542" lon="-8.64864198490977">
        <ele>73.6</ele>
        <time>2021-03-20T01:36:00</time>
      </trkpt>
      <trkpt lat="41.2425406649709" lon="-8.64860367961228">
        <ele>73.2</ele>
        <time>2021-03-20T01:36:01</time>
      </trkpt>
      <trkpt lat="41.242451230064" lon="-8.64857199601829">
        <ele>73</ele>
        <time>2021-03-20T01:36:02</time>
      </trkpt>
      <trkpt lat="41.2423670757562" lon="-8.64856202155352">
        <ele>72.8</ele>
        <time>2021-03-20T01:36:03</time>
      </trkpt>
      <trkpt lat="41.2422831729054" lon="-8.6485524661839">
        <ele>72.6</ele>
        <time>2021-03-20T01:36:04</time>
      </trkpt>
      <trkpt lat="41.2421970907599" lon="-8.64856394939124">
        <ele>72.4</ele>
        <time>2021-03-20T01:36:05</time>
      </trkpt>
      <trkpt lat="41.2421079073101" lon="-8.64857895299792">
        <ele>72.2</ele>
        <time>2021-03-20T01:36:06</time>
      </trkpt>
      <trkpt lat="41.2420147005469" lon="-8.64859177730978">
        <ele>71.8</ele>
        <time>2021-03-20T01:36:07</time>
      </trkpt>
      <trkpt lat="41.2419187277555" lon="-8.64860778674483">
        <ele>71.2</ele>
        <time>2021-03-20T01:36:08</time>
      </trkpt>
      <trkpt lat="41.2418244313449" lon="-8.64862572401762">
        <ele>70.8</ele>
        <time>2021-03-20T01:36:09</time>
      </trkpt>
      <trkpt lat="41.2417292129248" lon="-8.6486423201859">
        <ele>70.2</ele>
        <time>2021-03-20T01:36:10</time>
      </trkpt>
      <trkpt lat="41.2416573800147" lon="-8.64866017363966">
        <ele>69.8</ele>
        <time>2021-03-20T01:36:11</time>
      </trkpt>
      <trkpt lat="41.2415491696447" lon="-8.64870828576386">
        <ele>69.8</ele>
        <time>2021-03-20T01:36:12</time>
      </trkpt>
      <trkpt lat="41.2414639256895" lon="-8.64875799044967">
        <ele>69.6</ele>
        <time>2021-03-20T01:36:13</time>
      </trkpt>
      <trkpt lat="41.2413776759058" lon="-8.64881046116352">
        <ele>69.6</ele>
        <time>2021-03-20T01:36:14</time>
      </trkpt>
      <trkpt lat="41.2412874028087" lon="-8.6488579865545">
        <ele>69.8</ele>
        <time>2021-03-20T01:36:15</time>
      </trkpt>
      <trkpt lat="41.2411998957396" lon="-8.64888346754014">
        <ele>69.8</ele>
        <time>2021-03-20T01:36:16</time>
      </trkpt>
      <trkpt lat="41.2411204352975" lon="-8.64887868985534">
        <ele>69.8</ele>
        <time>2021-03-20T01:36:17</time>
      </trkpt>
      <trkpt lat="41.2410366162658" lon="-8.64884097129106">
        <ele>69.4</ele>
        <time>2021-03-20T01:36:18</time>
      </trkpt>
      <trkpt lat="41.2409801222384" lon="-8.64878498017788">
        <ele>68.6</ele>
        <time>2021-03-20T01:36:19</time>
      </trkpt>
      <trkpt lat="41.240910384804" lon="-8.64872965961695">
        <ele>68.2</ele>
        <time>2021-03-20T01:36:20</time>
      </trkpt>
      <trkpt lat="41.2408405635506" lon="-8.64867777563632">
        <ele>67.4</ele>
        <time>2021-03-20T01:36:21</time>
      </trkpt>
      <trkpt lat="41.2407600972801" lon="-8.6486180126667">
        <ele>66.8</ele>
        <time>2021-03-20T01:36:22</time>
      </trkpt>
      <trkpt lat="41.24068566598" lon="-8.64857316948474">
        <ele>66</ele>
        <time>2021-03-20T01:36:23</time>
      </trkpt>
      <trkpt lat="41.2406058702618" lon="-8.64852078258991">
        <ele>65.4</ele>
        <time>2021-03-20T01:36:24</time>
      </trkpt>
      <trkpt lat="41.2405208777636" lon="-8.6484591756016">
        <ele>64.4</ele>
        <time>2021-03-20T01:36:25</time>
      </trkpt>
      <trkpt lat="41.2404301855713" lon="-8.64839832298458">
        <ele>63.6</ele>
        <time>2021-03-20T01:36:26</time>
      </trkpt>
      <trkpt lat="41.2403380684555" lon="-8.64833830855787">
        <ele>62</ele>
        <time>2021-03-20T01:36:27</time>
      </trkpt>
      <trkpt lat="41.2402456160635" lon="-8.64827821031213">
        <ele>60</ele>
        <time>2021-03-20T01:36:28</time>
      </trkpt>
      <trkpt lat="41.2401382438838" lon="-8.64822498522699">
        <ele>59</ele>
        <time>2021-03-20T01:36:29</time>
      </trkpt>
      <trkpt lat="41.2400255911052" lon="-8.64819045178592">
        <ele>57.2</ele>
        <time>2021-03-20T01:36:30</time>
      </trkpt>
      <trkpt lat="41.2399095855653" lon="-8.64817201159894">
        <ele>56</ele>
        <time>2021-03-20T01:36:31</time>
      </trkpt>
      <trkpt lat="41.2397867068648" lon="-8.6481602769345">
        <ele>54.4</ele>
        <time>2021-03-20T01:36:32</time>
      </trkpt>
      <trkpt lat="41.2396617326885" lon="-8.64815482869744">
        <ele>53.6</ele>
        <time>2021-03-20T01:36:33</time>
      </trkpt>
      <trkpt lat="41.2395133730024" lon="-8.64814116619527">
        <ele>52.4</ele>
        <time>2021-03-20T01:36:34</time>
      </trkpt>
      <trkpt lat="41.2393956072628" lon="-8.64814418368042">
        <ele>51.6</ele>
        <time>2021-03-20T01:36:35</time>
      </trkpt>
      <trkpt lat="41.2392514385283" lon="-8.64815818145871">
        <ele>50.8</ele>
        <time>2021-03-20T01:36:36</time>
      </trkpt>
      <trkpt lat="41.239102743566" lon="-8.64816497080028">
        <ele>50</ele>
        <time>2021-03-20T01:36:37</time>
      </trkpt>
      <trkpt lat="41.2389595806599" lon="-8.64816966466606">
        <ele>49.4</ele>
        <time>2021-03-20T01:36:38</time>
      </trkpt>
      <trkpt lat="41.2388181779534" lon="-8.64818181842566">
        <ele>49</ele>
        <time>2021-03-20T01:36:39</time>
      </trkpt>
      <trkpt lat="41.2386656273156" lon="-8.64817326888442">
        <ele>48.2</ele>
        <time>2021-03-20T01:36:40</time>
      </trkpt>
      <trkpt lat="41.238518441096" lon="-8.64817075431347">
        <ele>47.4</ele>
        <time>2021-03-20T01:36:41</time>
      </trkpt>
      <trkpt lat="41.238378630951" lon="-8.6481639649719">
        <ele>47</ele>
        <time>2021-03-20T01:36:42</time>
      </trkpt>
      <trkpt lat="41.2382392399013" lon="-8.64815566688776">
        <ele>46.6</ele>
        <time>2021-03-20T01:36:43</time>
      </trkpt>
      <trkpt lat="41.2381028663367" lon="-8.64813068881631">
        <ele>46</ele>
        <time>2021-03-20T01:36:44</time>
      </trkpt>
      <trkpt lat="41.2379724439234" lon="-8.64808081649244">
        <ele>45.4</ele>
        <time>2021-03-20T01:36:45</time>
      </trkpt>
      <trkpt lat="41.2378370761871" lon="-8.64803429692984">
        <ele>45</ele>
        <time>2021-03-20T01:36:46</time>
      </trkpt>
      <trkpt lat="41.2377136107534" lon="-8.64798869937658">
        <ele>44.2</ele>
        <time>2021-03-20T01:36:47</time>
      </trkpt>
      <trkpt lat="41.2375836912543" lon="-8.64793648011982">
        <ele>43.8</ele>
        <time>2021-03-20T01:36:48</time>
      </trkpt>
      <trkpt lat="41.2374596390873" lon="-8.64788895472884">
        <ele>43</ele>
        <time>2021-03-20T01:36:49</time>
      </trkpt>
      <trkpt lat="41.2373355869204" lon="-8.64785031415522">
        <ele>42.4</ele>
        <time>2021-03-20T01:36:50</time>
      </trkpt>
      <trkpt lat="41.2372060865164" lon="-8.64779281429946">
        <ele>41.8</ele>
        <time>2021-03-20T01:36:51</time>
      </trkpt>
      <trkpt lat="41.2370842136443" lon="-8.64774780347943">
        <ele>41</ele>
        <time>2021-03-20T01:36:52</time>
      </trkpt>
      <trkpt lat="41.2369615864009" lon="-8.64768946543336">
        <ele>40.2</ele>
        <time>2021-03-20T01:36:53</time>
      </trkpt>
      <trkpt lat="41.2368346005678" lon="-8.64762869663536">
        <ele>39.8</ele>
        <time>2021-03-20T01:36:54</time>
      </trkpt>
      <trkpt lat="41.2367253843695" lon="-8.64756717346609">
        <ele>39.2</ele>
        <time>2021-03-20T01:36:55</time>
      </trkpt>
      <trkpt lat="41.2365985661745" lon="-8.64746977575123">
        <ele>39.4</ele>
        <time>2021-03-20T01:36:56</time>
      </trkpt>
      <trkpt lat="41.2365135736764" lon="-8.64738771691918">
        <ele>39.4</ele>
        <time>2021-03-20T01:36:57</time>
      </trkpt>
      <trkpt lat="41.2364098895341" lon="-8.64728847518563">
        <ele>39.4</ele>
        <time>2021-03-20T01:36:58</time>
      </trkpt>
      <trkpt lat="41.2363216280937" lon="-8.6471932567656">
        <ele>39.4</ele>
        <time>2021-03-20T01:36:59</time>
      </trkpt>
      <trkpt lat="41.2362227216363" lon="-8.64709225483239">
        <ele>39.2</ele>
        <time>2021-03-20T01:37:00</time>
      </trkpt>
      <trkpt lat="41.2361353822052" lon="-8.64699795842171">
        <ele>39</ele>
        <time>2021-03-20T01:37:01</time>
      </trkpt>
      <trkpt lat="41.2360546644777" lon="-8.64690827205777">
        <ele>39</ele>
        <time>2021-03-20T01:37:02</time>
      </trkpt>
      <trkpt lat="41.2359729409218" lon="-8.64680576138198">
        <ele>39</ele>
        <time>2021-03-20T01:37:03</time>
      </trkpt>
      <trkpt lat="41.2358816619962" lon="-8.64670995622873">
        <ele>39.2</ele>
        <time>2021-03-20T01:37:04</time>
      </trkpt>
      <trkpt lat="41.23579390347" lon="-8.64661775529385">
        <ele>39.2</ele>
        <time>2021-03-20T01:37:05</time>
      </trkpt>
      <trkpt lat="41.2357131019235" lon="-8.64651549607515">
        <ele>39</ele>
        <time>2021-03-20T01:37:06</time>
      </trkpt>
      <trkpt lat="41.2356400955468" lon="-8.64638297818601">
        <ele>39.2</ele>
        <time>2021-03-20T01:37:07</time>
      </trkpt>
      <trkpt lat="41.235574381426" lon="-8.64624501205981">
        <ele>40</ele>
        <time>2021-03-20T01:37:08</time>
      </trkpt>
      <trkpt lat="41.2355287000537" lon="-8.64611676894128">
        <ele>40.2</ele>
        <time>2021-03-20T01:37:09</time>
      </trkpt>
      <trkpt lat="41.2354966811836" lon="-8.64598676562309">
        <ele>40.6</ele>
        <time>2021-03-20T01:37:10</time>
      </trkpt>
      <trkpt lat="41.2354701943696" lon="-8.645857013762">
        <ele>40.8</ele>
        <time>2021-03-20T01:37:11</time>
      </trkpt>
      <trkpt lat="41.2354485690594" lon="-8.64572466351092">
        <ele>41.2</ele>
        <time>2021-03-20T01:37:12</time>
      </trkpt>
      <trkpt lat="41.2354301288724" lon="-8.64559231325984">
        <ele>41.6</ele>
        <time>2021-03-20T01:37:13</time>
      </trkpt>
      <trkpt lat="41.2354181427509" lon="-8.64547471515834">
        <ele>41.8</ele>
        <time>2021-03-20T01:37:14</time>
      </trkpt>
      <trkpt lat="41.2353956792504" lon="-8.6453525070101">
        <ele>42</ele>
        <time>2021-03-20T01:37:15</time>
      </trkpt>
      <trkpt lat="41.2353790830821" lon="-8.64523951895535">
        <ele>42.4</ele>
        <time>2021-03-20T01:37:16</time>
      </trkpt>
      <trkpt lat="41.2353689409792" lon="-8.64512527361512">
        <ele>42.6</ele>
        <time>2021-03-20T01:37:17</time>
      </trkpt>
      <trkpt lat="41.2353581283242" lon="-8.64501748234034">
        <ele>42.8</ele>
        <time>2021-03-20T01:37:18</time>
      </trkpt>
      <trkpt lat="41.2353457231075" lon="-8.64491547457874">
        <ele>43</ele>
        <time>2021-03-20T01:37:19</time>
      </trkpt>
      <trkpt lat="41.2353394366801" lon="-8.64481078460812">
        <ele>43.6</ele>
        <time>2021-03-20T01:37:20</time>
      </trkpt>
      <trkpt lat="41.2353349104524" lon="-8.64471070468426">
        <ele>43.8</ele>
        <time>2021-03-20T01:37:21</time>
      </trkpt>
      <trkpt lat="41.2353282049298" lon="-8.64461322315037">
        <ele>44</ele>
        <time>2021-03-20T01:37:22</time>
      </trkpt>
      <trkpt lat="41.2353204097599" lon="-8.64451549015939">
        <ele>44.4</ele>
        <time>2021-03-20T01:37:23</time>
      </trkpt>
      <trkpt lat="41.2353091780096" lon="-8.64441876299679">
        <ele>44.8</ele>
        <time>2021-03-20T01:37:24</time>
      </trkpt>
      <trkpt lat="41.2352956831455" lon="-8.64433729089796">
        <ele>45</ele>
        <time>2021-03-20T01:37:25</time>
      </trkpt>
      <trkpt lat="41.2352737225592" lon="-8.64425380714238">
        <ele>45.4</ele>
        <time>2021-03-20T01:37:26</time>
      </trkpt>
      <trkpt lat="41.2352408654988" lon="-8.64417979493737">
        <ele>45.6</ele>
        <time>2021-03-20T01:37:27</time>
      </trkpt>
      <trkpt lat="41.2351973634213" lon="-8.64410276524722">
        <ele>46</ele>
        <time>2021-03-20T01:37:28</time>
      </trkpt>
      <trkpt lat="41.2351562082768" lon="-8.6440437566489">
        <ele>46.4</ele>
        <time>2021-03-20T01:37:29</time>
      </trkpt>
      <trkpt lat="41.2351070903242" lon="-8.64399178884924">
        <ele>46.8</ele>
        <time>2021-03-20T01:37:30</time>
      </trkpt>
      <trkpt lat="41.2350588943809" lon="-8.6439414974302">
        <ele>47</ele>
        <time>2021-03-20T01:37:31</time>
      </trkpt>
      <trkpt lat="41.2350069265813" lon="-8.6438896972686">
        <ele>47</ele>
        <time>2021-03-20T01:37:32</time>
      </trkpt>
      <trkpt lat="41.2349516060203" lon="-8.64383001811802">
        <ele>47.2</ele>
        <time>2021-03-20T01:37:33</time>
      </trkpt>
      <trkpt lat="41.2348988838494" lon="-8.64376648329198">
        <ele>47.8</ele>
        <time>2021-03-20T01:37:34</time>
      </trkpt>
      <trkpt lat="41.2348438985646" lon="-8.64370915107429">
        <ele>48.2</ele>
        <time>2021-03-20T01:37:35</time>
      </trkpt>
      <trkpt lat="41.2347896676511" lon="-8.64365676417947">
        <ele>48.6</ele>
        <time>2021-03-20T01:37:36</time>
      </trkpt>
      <trkpt lat="41.2347378674895" lon="-8.64361066371202">
        <ele>48.8</ele>
        <time>2021-03-20T01:37:37</time>
      </trkpt>
      <trkpt lat="41.2346924375743" lon="-8.64356347359717">
        <ele>49</ele>
        <time>2021-03-20T01:37:38</time>
      </trkpt>
      <trkpt lat="41.2346403859556" lon="-8.6435202229768">
        <ele>49.4</ele>
        <time>2021-03-20T01:37:39</time>
      </trkpt>
      <trkpt lat="41.2345869094133" lon="-8.64347420632839">
        <ele>49.6</ele>
        <time>2021-03-20T01:37:40</time>
      </trkpt>
      <trkpt lat="41.2345306668431" lon="-8.64343196153641">
        <ele>49.8</ele>
        <time>2021-03-20T01:37:41</time>
      </trkpt>
      <trkpt lat="41.2344801239669" lon="-8.64338644780219">
        <ele>50</ele>
        <time>2021-03-20T01:37:42</time>
      </trkpt>
      <trkpt lat="41.2344251386821" lon="-8.64333531819284">
        <ele>50.2</ele>
        <time>2021-03-20T01:37:43</time>
      </trkpt>
      <trkpt lat="41.234369231388" lon="-8.64328871481121">
        <ele>50.4</ele>
        <time>2021-03-20T01:37:44</time>
      </trkpt>
      <trkpt lat="41.234327070415" lon="-8.64326180890202">
        <ele>50.8</ele>
        <time>2021-03-20T01:37:45</time>
      </trkpt>
      <trkpt lat="41.234276695177" lon="-8.64321746863425">
        <ele>51</ele>
        <time>2021-03-20T01:37:46</time>
      </trkpt>
      <trkpt lat="41.2342170998454" lon="-8.64316164515912">
        <ele>51</ele>
        <time>2021-03-20T01:37:47</time>
      </trkpt>
      <trkpt lat="41.2341627012938" lon="-8.64311722107232">
        <ele>51.2</ele>
        <time>2021-03-20T01:37:48</time>
      </trkpt>
      <trkpt lat="41.2340328656137" lon="-8.64305318333209">
        <ele>51.2</ele>
        <time>2021-03-20T01:37:49</time>
      </trkpt>
      <trkpt lat="41.2339704204351" lon="-8.64301747642458">
        <ele>51.2</ele>
        <time>2021-03-20T01:37:50</time>
      </trkpt>
      <trkpt lat="41.2338979169726" lon="-8.64298746921122">
        <ele>51.4</ele>
        <time>2021-03-20T01:37:51</time>
      </trkpt>
      <trkpt lat="41.2338451109827" lon="-8.64297120831907">
        <ele>51.4</ele>
        <time>2021-03-20T01:37:52</time>
      </trkpt>
      <trkpt lat="41.2337733618915" lon="-8.64295268431306">
        <ele>51.6</ele>
        <time>2021-03-20T01:37:53</time>
      </trkpt>
      <trkpt lat="41.2337004393339" lon="-8.64294396713376">
        <ele>51.8</ele>
        <time>2021-03-20T01:37:54</time>
      </trkpt>
      <trkpt lat="41.2336481362581" lon="-8.64293617196381">
        <ele>52</ele>
        <time>2021-03-20T01:37:55</time>
      </trkpt>
      <trkpt lat="41.2335825897753" lon="-8.6429334897548">
        <ele>52.2</ele>
        <time>2021-03-20T01:37:56</time>
      </trkpt>
      <trkpt lat="41.2335119303316" lon="-8.64292720332742">
        <ele>52.4</ele>
        <time>2021-03-20T01:37:57</time>
      </trkpt>
      <trkpt lat="41.2334616389126" lon="-8.64292879588902">
        <ele>52.4</ele>
        <time>2021-03-20T01:37:58</time>
      </trkpt>
      <trkpt lat="41.2333898898214" lon="-8.64292720332742">
        <ele>52.4</ele>
        <time>2021-03-20T01:37:59</time>
      </trkpt>
      <trkpt lat="41.2333205714822" lon="-8.64292695187032">
        <ele>52.4</ele>
        <time>2021-03-20T01:38:00</time>
      </trkpt>
      <trkpt lat="41.2332499120384" lon="-8.6429279576987">
        <ele>52.8</ele>
        <time>2021-03-20T01:38:01</time>
      </trkpt>
      <trkpt lat="41.2331988662481" lon="-8.64292829297483">
        <ele>53</ele>
        <time>2021-03-20T01:38:02</time>
      </trkpt>
      <trkpt lat="41.2331281229854" lon="-8.64292628131807">
        <ele>53.2</ele>
        <time>2021-03-20T01:38:03</time>
      </trkpt>
      <trkpt lat="41.2330617383122" lon="-8.64292619749904">
        <ele>53.4</ele>
        <time>2021-03-20T01:38:04</time>
      </trkpt>
      <trkpt lat="41.2329895701259" lon="-8.6429231800139">
        <ele>53.6</ele>
        <time>2021-03-20T01:38:05</time>
      </trkpt>
      <trkpt lat="41.2329344172031" lon="-8.64291672594845">
        <ele>53.6</ele>
        <time>2021-03-20T01:38:06</time>
      </trkpt>
      <trkpt lat="41.2328693736345" lon="-8.64291999489069">
        <ele>53.6</ele>
        <time>2021-03-20T01:38:07</time>
      </trkpt>
      <trkpt lat="41.2327988818288" lon="-8.64292217418551">
        <ele>53.8</ele>
        <time>2021-03-20T01:38:08</time>
      </trkpt>
      <trkpt lat="41.232725372538" lon="-8.64292871206999">
        <ele>54</ele>
        <time>2021-03-20T01:38:09</time>
      </trkpt>
      <trkpt lat="41.2326532043517" lon="-8.64292946644127">
        <ele>54.4</ele>
        <time>2021-03-20T01:38:10</time>
      </trkpt>
      <trkpt lat="41.2326002307236" lon="-8.642941955477">
        <ele>54.6</ele>
        <time>2021-03-20T01:38:11</time>
      </trkpt>
      <trkpt lat="41.232529906556" lon="-8.64295519888401">
        <ele>54.4</ele>
        <time>2021-03-20T01:38:12</time>
      </trkpt>
      <trkpt lat="41.2324625998735" lon="-8.64296869374812">
        <ele>54.8</ele>
        <time>2021-03-20T01:38:13</time>
      </trkpt>
      <trkpt lat="41.2323926109821" lon="-8.64298478700221">
        <ele>55</ele>
        <time>2021-03-20T01:38:14</time>
      </trkpt>
      <trkpt lat="41.2323232088238" lon="-8.64300649613142">
        <ele>55</ele>
        <time>2021-03-20T01:38:15</time>
      </trkpt>
      <trkpt lat="41.2322503700852" lon="-8.6430267803371">
        <ele>55.2</ele>
        <time>2021-03-20T01:38:16</time>
      </trkpt>
      <trkpt lat="41.232181135565" lon="-8.64305477589369">
        <ele>55.4</ele>
        <time>2021-03-20T01:38:17</time>
      </trkpt>
      <trkpt lat="41.2321088835597" lon="-8.64307950250804">
        <ele>55.4</ele>
        <time>2021-03-20T01:38:18</time>
      </trkpt>
      <trkpt lat="41.2320426665246" lon="-8.64311152137816">
        <ele>55.4</ele>
        <time>2021-03-20T01:38:19</time>
      </trkpt>
      <trkpt lat="41.231974940747" lon="-8.64314245060086">
        <ele>55.6</ele>
        <time>2021-03-20T01:38:20</time>
      </trkpt>
      <trkpt lat="41.2319048680365" lon="-8.64317296072841">
        <ele>55.8</ele>
        <time>2021-03-20T01:38:21</time>
      </trkpt>
      <trkpt lat="41.2318356335163" lon="-8.64320246502757">
        <ele>56</ele>
        <time>2021-03-20T01:38:22</time>
      </trkpt>
      <trkpt lat="41.2317669019103" lon="-8.64323171786964">
        <ele>56.2</ele>
        <time>2021-03-20T01:38:23</time>
      </trkpt>
      <trkpt lat="41.2316971644759" lon="-8.64325971342623">
        <ele>56.4</ele>
        <time>2021-03-20T01:38:24</time>
      </trkpt>
      <trkpt lat="41.2316239066422" lon="-8.64327471703291">
        <ele>56.6</ele>
        <time>2021-03-20T01:38:25</time>
      </trkpt>
      <trkpt lat="41.2315505649894" lon="-8.6432857811451">
        <ele>56.8</ele>
        <time>2021-03-20T01:38:26</time>
      </trkpt>
      <trkpt lat="41.231478061527" lon="-8.64329852163792">
        <ele>57</ele>
        <time>2021-03-20T01:38:27</time>
      </trkpt>
      <trkpt lat="41.2314038816839" lon="-8.64330665208399">
        <ele>57.4</ele>
        <time>2021-03-20T01:38:28</time>
      </trkpt>
      <trkpt lat="41.2313259299844" lon="-8.64331201650202">
        <ele>57.6</ele>
        <time>2021-03-20T01:38:29</time>
      </trkpt>
      <trkpt lat="41.2312531750649" lon="-8.64331277087331">
        <ele>58</ele>
        <time>2021-03-20T01:38:30</time>
      </trkpt>
      <trkpt lat="41.2311809230596" lon="-8.64331402815878">
        <ele>58.2</ele>
        <time>2021-03-20T01:38:31</time>
      </trkpt>
      <trkpt lat="41.2311050668359" lon="-8.64331050775945">
        <ele>58.4</ele>
        <time>2021-03-20T01:38:32</time>
      </trkpt>
      <trkpt lat="41.2310369219631" lon="-8.64331226795912">
        <ele>58.8</ele>
        <time>2021-03-20T01:38:33</time>
      </trkpt>
      <trkpt lat="41.2309686932713" lon="-8.64330472424626">
        <ele>58.8</ele>
        <time>2021-03-20T01:38:34</time>
      </trkpt>
      <trkpt lat="41.2309023924172" lon="-8.64329625852406">
        <ele>59</ele>
        <time>2021-03-20T01:38:35</time>
      </trkpt>
      <trkpt lat="41.2308366782963" lon="-8.64328469149768">
        <ele>59.2</ele>
        <time>2021-03-20T01:38:36</time>
      </trkpt>
      <trkpt lat="41.2307718861848" lon="-8.64326180890202">
        <ele>59.6</ele>
        <time>2021-03-20T01:38:37</time>
      </trkpt>
      <trkpt lat="41.2307075969875" lon="-8.64323121495545">
        <ele>60</ele>
        <time>2021-03-20T01:38:38</time>
      </trkpt>
      <trkpt lat="41.2306485883892" lon="-8.64320422522724">
        <ele>60.2</ele>
        <time>2021-03-20T01:38:39</time>
      </trkpt>
      <trkpt lat="41.2305817008018" lon="-8.64316516555846">
        <ele>60.2</ele>
        <time>2021-03-20T01:38:40</time>
      </trkpt>
      <trkpt lat="41.2305199261755" lon="-8.64312677644193">
        <ele>60.8</ele>
        <time>2021-03-20T01:38:41</time>
      </trkpt>
      <trkpt lat="41.2304587382823" lon="-8.64309031516314">
        <ele>60.8</ele>
        <time>2021-03-20T01:38:42</time>
      </trkpt>
      <trkpt lat="41.2303946167231" lon="-8.64304295741022">
        <ele>61.2</ele>
        <time>2021-03-20T01:38:43</time>
      </trkpt>
      <trkpt lat="41.2303354404867" lon="-8.6430022213608">
        <ele>61.6</ele>
        <time>2021-03-20T01:38:44</time>
      </trkpt>
      <trkpt lat="41.2302803713828" lon="-8.6429559532553">
        <ele>61.8</ele>
        <time>2021-03-20T01:38:45</time>
      </trkpt>
      <trkpt lat="41.2302290741354" lon="-8.64291815087199">
        <ele>62.2</ele>
        <time>2021-03-20T01:38:46</time>
      </trkpt>
      <trkpt lat="41.2301761843264" lon="-8.64287230186164">
        <ele>62.6</ele>
        <time>2021-03-20T01:38:47</time>
      </trkpt>
      <trkpt lat="41.2301257252693" lon="-8.64283399656415">
        <ele>62.6</ele>
        <time>2021-03-20T01:38:48</time>
      </trkpt>
      <trkpt lat="41.230071913451" lon="-8.64279217086732">
        <ele>63.2</ele>
        <time>2021-03-20T01:38:49</time>
      </trkpt>
      <trkpt lat="41.2300247233361" lon="-8.64275797270238">
        <ele>63.6</ele>
        <time>2021-03-20T01:38:50</time>
      </trkpt>
      <trkpt lat="41.2299837358296" lon="-8.64273701794446">
        <ele>64</ele>
        <time>2021-03-20T01:38:51</time>
      </trkpt>
      <trkpt lat="41.2299361266196" lon="-8.64270231686532">
        <ele>64.4</ele>
        <time>2021-03-20T01:38:52</time>
      </trkpt>
      <trkpt lat="41.2299021799117" lon="-8.64267750643194">
        <ele>64.6</ele>
        <time>2021-03-20T01:38:53</time>
      </trkpt>
      <trkpt lat="41.2298545707017" lon="-8.642643308267">
        <ele>64.8</ele>
        <time>2021-03-20T01:38:54</time>
      </trkpt>
      <trkpt lat="41.2298197019845" lon="-8.64261279813945">
        <ele>65.2</ele>
        <time>2021-03-20T01:38:55</time>
      </trkpt>
      <trkpt lat="41.2297741044313" lon="-8.64257868379354">
        <ele>65.4</ele>
        <time>2021-03-20T01:38:56</time>
      </trkpt>
      <trkpt lat="41.2297306861728" lon="-8.64254398271441">
        <ele>65.8</ele>
        <time>2021-03-20T01:38:57</time>
      </trkpt>
      <trkpt lat="41.2296820711344" lon="-8.64250500686467">
        <ele>66.2</ele>
        <time>2021-03-20T01:38:58</time>
      </trkpt>
      <trkpt lat="41.2296384014189" lon="-8.64247449673712">
        <ele>66.6</ele>
        <time>2021-03-20T01:38:59</time>
      </trkpt>
      <trkpt lat="41.2295940611512" lon="-8.64245027303696">
        <ele>66.8</ele>
        <time>2021-03-20T01:39:00</time>
      </trkpt>
      <trkpt lat="41.2295746989548" lon="-8.64244130440056">
        <ele>67.2</ele>
        <time>2021-03-20T01:39:01</time>
      </trkpt>
      <trkpt lat="41.229477385059" lon="-8.64235371351242">
        <ele>67.4</ele>
        <time>2021-03-20T01:39:02</time>
      </trkpt>
      <trkpt lat="41.2294337153435" lon="-8.64232077263296">
        <ele>67.6</ele>
        <time>2021-03-20T01:39:03</time>
      </trkpt>
      <trkpt lat="41.2293726950884" lon="-8.64228221587837">
        <ele>68</ele>
        <time>2021-03-20T01:39:04</time>
      </trkpt>
      <trkpt lat="41.2293235771358" lon="-8.64224231801927">
        <ele>68</ele>
        <time>2021-03-20T01:39:05</time>
      </trkpt>
      <trkpt lat="41.2292618863285" lon="-8.64219118840992">
        <ele>68.4</ele>
        <time>2021-03-20T01:39:06</time>
      </trkpt>
      <trkpt lat="41.2292163725942" lon="-8.64216168411076">
        <ele>68.6</ele>
        <time>2021-03-20T01:39:07</time>
      </trkpt>
      <trkpt lat="41.2291504070163" lon="-8.64210368134081">
        <ele>69</ele>
        <time>2021-03-20T01:39:08</time>
      </trkpt>
      <trkpt lat="41.2290905602276" lon="-8.64205271936953">
        <ele>69.2</ele>
        <time>2021-03-20T01:39:09</time>
      </trkpt>
      <trkpt lat="41.2290380895138" lon="-8.64201399497688">
        <ele>69.4</ele>
        <time>2021-03-20T01:39:10</time>
      </trkpt>
      <trkpt lat="41.2290071602911" lon="-8.64199069328606">
        <ele>69.6</ele>
        <time>2021-03-20T01:39:11</time>
      </trkpt>
      <trkpt lat="41.2289728783071" lon="-8.64197015762329">
        <ele>69.8</ele>
        <time>2021-03-20T01:39:12</time>
      </trkpt>
      <trkpt lat="41.2289099302143" lon="-8.64192447625101">
        <ele>70</ele>
        <time>2021-03-20T01:39:13</time>
      </trkpt>
      <trkpt lat="41.2288956809789" lon="-8.64189019426704">
        <ele>70.4</ele>
        <time>2021-03-20T01:39:14</time>
      </trkpt>
      <trkpt lat="41.2288494128734" lon="-8.64187720231712">
        <ele>70.8</ele>
        <time>2021-03-20T01:39:15</time>
      </trkpt>
      <trkpt lat="41.2287959363312" lon="-8.64184602163732">
        <ele>71</ele>
        <time>2021-03-20T01:39:16</time>
      </trkpt>
      <trkpt lat="41.228742627427" lon="-8.64181375131011">
        <ele>71.2</ele>
        <time>2021-03-20T01:39:17</time>
      </trkpt>
      <trkpt lat="41.2286954373121" lon="-8.64176899194717">
        <ele>71.4</ele>
        <time>2021-03-20T01:39:18</time>
      </trkpt>
      <trkpt lat="41.2286312319338" lon="-8.64169749431312">
        <ele>72</ele>
        <time>2021-03-20T01:39:19</time>
      </trkpt>
      <trkpt lat="41.2286049127579" lon="-8.64170277491212">
        <ele>72.2</ele>
        <time>2021-03-20T01:39:20</time>
      </trkpt>
      <trkpt lat="41.2285742349923" lon="-8.64170000888407">
        <ele>72.4</ele>
        <time>2021-03-20T01:39:21</time>
      </trkpt>
      <trkpt lat="41.2285236082971" lon="-8.64165776409209">
        <ele>72.4</ele>
        <time>2021-03-20T01:39:22</time>
      </trkpt>
      <trkpt lat="41.2284961156547" lon="-8.64164200611412">
        <ele>72.4</ele>
        <time>2021-03-20T01:39:23</time>
      </trkpt>
      <trkpt lat="41.2284381967038" lon="-8.64158065058291">
        <ele>72.6</ele>
        <time>2021-03-20T01:39:24</time>
      </trkpt>
      <trkpt lat="41.2283682078123" lon="-8.64151426590979">
        <ele>72.6</ele>
        <time>2021-03-20T01:39:25</time>
      </trkpt>
      <trkpt lat="41.2283010687679" lon="-8.64146925508976">
        <ele>73</ele>
        <time>2021-03-20T01:39:26</time>
      </trkpt>
      <trkpt lat="41.2282807007432" lon="-8.64143245853484">
        <ele>73.2</ele>
        <time>2021-03-20T01:39:27</time>
      </trkpt>
      <trkpt lat="41.2282376177609" lon="-8.64142131060362">
        <ele>73.6</ele>
        <time>2021-03-20T01:39:28</time>
      </trkpt>
      <trkpt lat="41.2281720712781" lon="-8.64135668613016">
        <ele>73.8</ele>
        <time>2021-03-20T01:39:29</time>
      </trkpt>
      <trkpt lat="41.2281253840774" lon="-8.64131066948176">
        <ele>73.6</ele>
        <time>2021-03-20T01:39:30</time>
      </trkpt>
      <trkpt lat="41.2280786968768" lon="-8.64127052016556">
        <ele>73.8</ele>
        <time>2021-03-20T01:39:31</time>
      </trkpt>
      <trkpt lat="41.2280171737075" lon="-8.64121922291815">
        <ele>74</ele>
        <time>2021-03-20T01:39:32</time>
      </trkpt>
      <trkpt lat="41.2279584165662" lon="-8.64116725511849">
        <ele>74</ele>
        <time>2021-03-20T01:39:33</time>
      </trkpt>
      <trkpt lat="41.2279082089663" lon="-8.64114118739962">
        <ele>74.2</ele>
        <time>2021-03-20T01:39:34</time>
      </trkpt>
      <trkpt lat="41.2278697360307" lon="-8.64112199284136">
        <ele>74.4</ele>
        <time>2021-03-20T01:39:35</time>
      </trkpt>
      <trkpt lat="41.2278486974537" lon="-8.64111721515656">
        <ele>74.8</ele>
        <time>2021-03-20T01:39:36</time>
      </trkpt>
      <trkpt lat="41.227828161791" lon="-8.6411561910063">
        <ele>74.8</ele>
        <time>2021-03-20T01:39:37</time>
      </trkpt>
      <trkpt lat="41.2277903594077" lon="-8.64114881493151">
        <ele>75</ele>
        <time>2021-03-20T01:39:38</time>
      </trkpt>
      <trkpt lat="41.2277393974364" lon="-8.64112752489746">
        <ele>75.4</ele>
        <time>2021-03-20T01:39:39</time>
      </trkpt>
      <trkpt lat="41.2277216278017" lon="-8.64110170863569">
        <ele>75.8</ele>
        <time>2021-03-20T01:39:40</time>
      </trkpt>
      <trkpt lat="41.2276648823172" lon="-8.64105795510113">
        <ele>75.8</ele>
        <time>2021-03-20T01:39:41</time>
      </trkpt>
      <trkpt lat="41.2276257388294" lon="-8.6410287860781">
        <ele>76</ele>
        <time>2021-03-20T01:39:42</time>
      </trkpt>
      <trkpt lat="41.2275819014758" lon="-8.64099500700831">
        <ele>76.2</ele>
        <time>2021-03-20T01:39:43</time>
      </trkpt>
      <trkpt lat="41.2275265809149" lon="-8.64095879718661">
        <ele>76.4</ele>
        <time>2021-03-20T01:39:44</time>
      </trkpt>
      <trkpt lat="41.2274831626564" lon="-8.6409318074584">
        <ele>76.6</ele>
        <time>2021-03-20T01:39:45</time>
      </trkpt>
      <trkpt lat="41.2274453602731" lon="-8.64091177470982">
        <ele>77</ele>
        <time>2021-03-20T01:39:46</time>
      </trkpt>
      <trkpt lat="41.227397415787" lon="-8.64088570699096">
        <ele>77</ele>
        <time>2021-03-20T01:39:47</time>
      </trkpt>
      <trkpt lat="41.2273505609482" lon="-8.64085117354989">
        <ele>77</ele>
        <time>2021-03-20T01:39:48</time>
      </trkpt>
      <trkpt lat="41.2273006048054" lon="-8.64081328734756">
        <ele>77.2</ele>
        <time>2021-03-20T01:39:49</time>
      </trkpt>
      <trkpt lat="41.2272456195205" lon="-8.64076626487076">
        <ele>77.6</ele>
        <time>2021-03-20T01:39:50</time>
      </trkpt>
      <trkpt lat="41.2272057216614" lon="-8.64073500037193">
        <ele>78</ele>
        <time>2021-03-20T01:39:51</time>
      </trkpt>
      <trkpt lat="41.2271598726511" lon="-8.64070851355791">
        <ele>78.2</ele>
        <time>2021-03-20T01:39:52</time>
      </trkpt>
      <trkpt lat="41.2271183822304" lon="-8.64068202674389">
        <ele>78.4</ele>
        <time>2021-03-20T01:39:53</time>
      </trkpt>
      <trkpt lat="41.2270761374384" lon="-8.64065419882536">
        <ele>78.8</ele>
        <time>2021-03-20T01:39:54</time>
      </trkpt>
      <trkpt lat="41.227032886818" lon="-8.64062779583037">
        <ele>79.2</ele>
        <time>2021-03-20T01:39:55</time>
      </trkpt>
      <trkpt lat="41.2270023766905" lon="-8.64062896929681">
        <ele>79.2</ele>
        <time>2021-03-20T01:39:56</time>
      </trkpt>
      <trkpt lat="41.2269583716989" lon="-8.64061145111918">
        <ele>79.4</ele>
        <time>2021-03-20T01:39:57</time>
      </trkpt>
      <trkpt lat="41.2269079126418" lon="-8.64058270119131">
        <ele>79.6</ele>
        <time>2021-03-20T01:39:58</time>
      </trkpt>
      <trkpt lat="41.2268650811166" lon="-8.64055428653956">
        <ele>79.6</ele>
        <time>2021-03-20T01:39:59</time>
      </trkpt>
      <trkpt lat="41.2268057372421" lon="-8.64051665179431">
        <ele>79.6</ele>
        <time>2021-03-20T01:40:00</time>
      </trkpt>
      <trkpt lat="41.2266904022545" lon="-8.64045429043472">
        <ele>79.4</ele>
        <time>2021-03-20T01:40:01</time>
      </trkpt>
      <trkpt lat="41.2266370933503" lon="-8.64042478613556">
        <ele>79.6</ele>
        <time>2021-03-20T01:40:02</time>
      </trkpt>
      <trkpt lat="41.2265748996288" lon="-8.64038379862904">
        <ele>79.4</ele>
        <time>2021-03-20T01:40:03</time>
      </trkpt>
      <trkpt lat="41.2265489157289" lon="-8.6403707228601">
        <ele>79.6</ele>
        <time>2021-03-20T01:40:04</time>
      </trkpt>
      <trkpt lat="41.2265075929463" lon="-8.64035052247346">
        <ele>79.8</ele>
        <time>2021-03-20T01:40:05</time>
      </trkpt>
      <trkpt lat="41.2264571338892" lon="-8.64032445475459">
        <ele>79.6</ele>
        <time>2021-03-20T01:40:06</time>
      </trkpt>
      <trkpt lat="41.2264191638678" lon="-8.64030425436795">
        <ele>79.8</ele>
        <time>2021-03-20T01:40:07</time>
      </trkpt>
      <trkpt lat="41.2263692077249" lon="-8.64027516916394">
        <ele>79.8</ele>
        <time>2021-03-20T01:40:08</time>
      </trkpt>
      <trkpt lat="41.2263196706772" lon="-8.64024030044675">
        <ele>80.2</ele>
        <time>2021-03-20T01:40:09</time>
      </trkpt>
      <trkpt lat="41.2262730672956" lon="-8.64021582528949">
        <ele>80.2</ele>
        <time>2021-03-20T01:40:10</time>
      </trkpt>
      <trkpt lat="41.2262263800949" lon="-8.64019394852221">
        <ele>80</ele>
        <time>2021-03-20T01:40:11</time>
      </trkpt>
      <trkpt lat="41.2261919304728" lon="-8.6401756759733">
        <ele>80</ele>
        <time>2021-03-20T01:40:12</time>
      </trkpt>
      <trkpt lat="41.2261465843767" lon="-8.64015270955861">
        <ele>80</ele>
        <time>2021-03-20T01:40:13</time>
      </trkpt>
      <trkpt lat="41.2260803673416" lon="-8.64012622274458">
        <ele>80</ele>
        <time>2021-03-20T01:40:14</time>
      </trkpt>
      <trkpt lat="41.2260329257697" lon="-8.64010199904442">
        <ele>80</ele>
        <time>2021-03-20T01:40:15</time>
      </trkpt>
      <trkpt lat="41.2259931117296" lon="-8.64008548669517">
        <ele>80</ele>
        <time>2021-03-20T01:40:16</time>
      </trkpt>
      <trkpt lat="41.2259376235306" lon="-8.6400667950511">
        <ele>80</ele>
        <time>2021-03-20T01:40:17</time>
      </trkpt>
      <trkpt lat="41.2258786149323" lon="-8.6400393024087">
        <ele>79.8</ele>
        <time>2021-03-20T01:40:18</time>
      </trkpt>
      <trkpt lat="41.2258191034198" lon="-8.64001968875527">
        <ele>79.8</ele>
        <time>2021-03-20T01:40:19</time>
      </trkpt>
      <trkpt lat="41.2257671356201" lon="-8.6399959679693">
        <ele>79.6</ele>
        <time>2021-03-20T01:40:20</time>
      </trkpt>
      <trkpt lat="41.2257051933557" lon="-8.63995875231922">
        <ele>79.4</ele>
        <time>2021-03-20T01:40:21</time>
      </trkpt>
      <trkpt lat="41.2256301753223" lon="-8.6399217043072">
        <ele>79.4</ele>
        <time>2021-03-20T01:40:22</time>
      </trkpt>
      <trkpt lat="41.2255508825183" lon="-8.63988071680069">
        <ele>78.8</ele>
        <time>2021-03-20T01:40:23</time>
      </trkpt>
      <trkpt lat="41.2254751939326" lon="-8.63984148949385">
        <ele>78.8</ele>
        <time>2021-03-20T01:40:24</time>
      </trkpt>
      <trkpt lat="41.2254217173904" lon="-8.63981525413692">
        <ele>78.6</ele>
        <time>2021-03-20T01:40:25</time>
      </trkpt>
      <trkpt lat="41.2253581825644" lon="-8.63980025053024">
        <ele>78.4</ele>
        <time>2021-03-20T01:40:26</time>
      </trkpt>
      <trkpt lat="41.2252866011113" lon="-8.63977049477398">
        <ele>78</ele>
        <time>2021-03-20T01:40:27</time>
      </trkpt>
      <trkpt lat="41.2252178695053" lon="-8.63973847590387">
        <ele>77.8</ele>
        <time>2021-03-20T01:40:28</time>
      </trkpt>
      <trkpt lat="41.2251495569944" lon="-8.63970846869051">
        <ele>77.6</ele>
        <time>2021-03-20T01:40:29</time>
      </trkpt>
      <trkpt lat="41.2250696774572" lon="-8.63967745564878">
        <ele>77.4</ele>
        <time>2021-03-20T01:40:30</time>
      </trkpt>
      <trkpt lat="41.2250126805156" lon="-8.63965750671923">
        <ele>77.2</ele>
        <time>2021-03-20T01:40:31</time>
      </trkpt>
      <trkpt lat="41.2249433621764" lon="-8.63963278010488">
        <ele>77.2</ele>
        <time>2021-03-20T01:40:32</time>
      </trkpt>
      <trkpt lat="41.2248357385397" lon="-8.63958994857967">
        <ele>77.2</ele>
        <time>2021-03-20T01:40:33</time>
      </trkpt>
      <trkpt lat="41.2247354071587" lon="-8.63956446759403">
        <ele>77</ele>
        <time>2021-03-20T01:40:34</time>
      </trkpt>
      <trkpt lat="41.2246453855187" lon="-8.63951970823109">
        <ele>76.6</ele>
        <time>2021-03-20T01:40:35</time>
      </trkpt>
      <trkpt lat="41.2245790846646" lon="-8.63952917978168">
        <ele>76.6</ele>
        <time>2021-03-20T01:40:36</time>
      </trkpt>
      <trkpt lat="41.2244738917798" lon="-8.63947696052492">
        <ele>76.4</ele>
        <time>2021-03-20T01:40:37</time>
      </trkpt>
      <trkpt lat="41.2244002148509" lon="-8.63944821059704">
        <ele>76.2</ele>
        <time>2021-03-20T01:40:38</time>
      </trkpt>
      <trkpt lat="41.2242592312396" lon="-8.63936481066048">
        <ele>76.2</ele>
        <time>2021-03-20T01:40:39</time>
      </trkpt>
      <trkpt lat="41.2241580616683" lon="-8.63931996747851">
        <ele>76.2</ele>
        <time>2021-03-20T01:40:40</time>
      </trkpt>
      <trkpt lat="41.224078182131" lon="-8.63928845152259">
        <ele>76</ele>
        <time>2021-03-20T01:40:41</time>
      </trkpt>
      <trkpt lat="41.2239619251341" lon="-8.63923849537969">
        <ele>75.8</ele>
        <time>2021-03-20T01:40:42</time>
      </trkpt>
      <trkpt lat="41.2238646112382" lon="-8.63919918425381">
        <ele>76</ele>
        <time>2021-03-20T01:40:43</time>
      </trkpt>
      <trkpt lat="41.223782133311" lon="-8.63917118869722">
        <ele>76.2</ele>
        <time>2021-03-20T01:40:44</time>
      </trkpt>
      <trkpt lat="41.223716083914" lon="-8.63916649483144">
        <ele>76</ele>
        <time>2021-03-20T01:40:45</time>
      </trkpt>
      <trkpt lat="41.2236496992409" lon="-8.63914730027318">
        <ele>76</ele>
        <time>2021-03-20T01:40:46</time>
      </trkpt>
      <trkpt lat="41.2235844042152" lon="-8.63918049260974">
        <ele>76.2</ele>
        <time>2021-03-20T01:40:47</time>
      </trkpt>
      <trkpt lat="41.2235280778259" lon="-8.63917395472526">
        <ele>76</ele>
        <time>2021-03-20T01:40:48</time>
      </trkpt>
      <trkpt lat="41.2234787084162" lon="-8.63918828777969">
        <ele>76.2</ele>
        <time>2021-03-20T01:40:49</time>
      </trkpt>
      <trkpt lat="41.223406707868" lon="-8.63917076960206">
        <ele>76.4</ele>
        <time>2021-03-20T01:40:50</time>
      </trkpt>
      <trkpt lat="41.2233026884496" lon="-8.63912668079138">
        <ele>76.6</ele>
        <time>2021-03-20T01:40:51</time>
      </trkpt>
      <trkpt lat="41.2232230603695" lon="-8.6390908062458">
        <ele>76.4</ele>
        <time>2021-03-20T01:40:52</time>
      </trkpt>
      <trkpt lat="41.223142594099" lon="-8.63906121812761">
        <ele>76.2</ele>
        <time>2021-03-20T01:40:53</time>
      </trkpt>
      <trkpt lat="41.2230621278286" lon="-8.639025259763">
        <ele>76.4</ele>
        <time>2021-03-20T01:40:54</time>
      </trkpt>
      <trkpt lat="41.2229512352496" lon="-8.63898351788521">
        <ele>76.8</ele>
        <time>2021-03-20T01:40:55</time>
      </trkpt>
      <trkpt lat="41.2228536698967" lon="-8.6389338131994">
        <ele>76.6</ele>
        <time>2021-03-20T01:40:56</time>
      </trkpt>
      <trkpt lat="41.2227611336857" lon="-8.63888796418905">
        <ele>76.8</ele>
        <time>2021-03-20T01:40:57</time>
      </trkpt>
      <trkpt lat="41.2226871214807" lon="-8.63885879516602">
        <ele>76.8</ele>
        <time>2021-03-20T01:40:58</time>
      </trkpt>
      <trkpt lat="41.2226105947048" lon="-8.63881881348789">
        <ele>76.6</ele>
        <time>2021-03-20T01:40:59</time>
      </trkpt>
      <trkpt lat="41.2225322239101" lon="-8.6388043127954">
        <ele>76.4</ele>
        <time>2021-03-20T01:41:00</time>
      </trkpt>
      <trkpt lat="41.2224479019642" lon="-8.63877078518271">
        <ele>76</ele>
        <time>2021-03-20T01:41:01</time>
      </trkpt>
      <trkpt lat="41.2223987001926" lon="-8.63875871524215">
        <ele>76.4</ele>
        <time>2021-03-20T01:41:02</time>
      </trkpt>
      <trkpt lat="41.2222837004811" lon="-8.6387023050338">
        <ele>77.4</ele>
        <time>2021-03-20T01:41:03</time>
      </trkpt>
      <trkpt lat="41.2222302239388" lon="-8.63867900334299">
        <ele>77.4</ele>
        <time>2021-03-20T01:41:04</time>
      </trkpt>
      <trkpt lat="41.2221314013004" lon="-8.638631477952">
        <ele>77</ele>
        <time>2021-03-20T01:41:05</time>
      </trkpt>
      <trkpt lat="41.2220914196223" lon="-8.63861546851694">
        <ele>77</ele>
        <time>2021-03-20T01:41:06</time>
      </trkpt>
      <trkpt lat="41.2220180779696" lon="-8.63857766613364">
        <ele>77.4</ele>
        <time>2021-03-20T01:41:07</time>
      </trkpt>
      <trkpt lat="41.221924116835" lon="-8.63854170776904">
        <ele>77.4</ele>
        <time>2021-03-20T01:41:08</time>
      </trkpt>
      <trkpt lat="41.2218615878373" lon="-8.63851220346987">
        <ele>77.6</ele>
        <time>2021-03-20T01:41:09</time>
      </trkpt>
      <trkpt lat="41.2217610888183" lon="-8.63847414962947">
        <ele>77.6</ele>
        <time>2021-03-20T01:41:10</time>
      </trkpt>
      <trkpt lat="41.2217035889626" lon="-8.6384522728622">
        <ele>77.8</ele>
        <time>2021-03-20T01:41:11</time>
      </trkpt>
      <trkpt lat="41.221607113257" lon="-8.63841631449759">
        <ele>78</ele>
        <time>2021-03-20T01:41:12</time>
      </trkpt>
      <trkpt lat="41.2215483561158" lon="-8.63838764838874">
        <ele>78</ele>
        <time>2021-03-20T01:41:13</time>
      </trkpt>
      <trkpt lat="41.2214527186006" lon="-8.63835051655769">
        <ele>78.2</ele>
        <time>2021-03-20T01:41:14</time>
      </trkpt>
      <trkpt lat="41.2213968951255" lon="-8.63833115436137">
        <ele>78.4</ele>
        <time>2021-03-20T01:41:15</time>
      </trkpt>
      <trkpt lat="41.2213058676571" lon="-8.63829452544451">
        <ele>78.4</ele>
        <time>2021-03-20T01:41:16</time>
      </trkpt>
      <trkpt lat="41.2212461046874" lon="-8.63826552405954">
        <ele>78.4</ele>
        <time>2021-03-20T01:41:17</time>
      </trkpt>
      <trkpt lat="41.2211782112718" lon="-8.63823719322681">
        <ele>78.4</ele>
        <time>2021-03-20T01:41:18</time>
      </trkpt>
      <trkpt lat="41.2211052048951" lon="-8.63820400089026">
        <ele>78.4</ele>
        <time>2021-03-20T01:41:19</time>
      </trkpt>
      <trkpt lat="41.2210348807275" lon="-8.63816728815436">
        <ele>78.6</ele>
        <time>2021-03-20T01:41:20</time>
      </trkpt>
      <trkpt lat="41.2209679093212" lon="-8.63812495954335">
        <ele>79</ele>
        <time>2021-03-20T01:41:21</time>
      </trkpt>
      <trkpt lat="41.2208984233439" lon="-8.63808380439878">
        <ele>79.2</ele>
        <time>2021-03-20T01:41:22</time>
      </trkpt>
      <trkpt lat="41.220835391432" lon="-8.63804751075804">
        <ele>79.4</ele>
        <time>2021-03-20T01:41:23</time>
      </trkpt>
      <trkpt lat="41.2207705993205" lon="-8.63800920546055">
        <ele>79.6</ele>
        <time>2021-03-20T01:41:24</time>
      </trkpt>
      <trkpt lat="41.2207062263042" lon="-8.63796880468726">
        <ele>80</ele>
        <time>2021-03-20T01:41:25</time>
      </trkpt>
      <trkpt lat="41.2206431943923" lon="-8.63792999647558">
        <ele>80.2</ele>
        <time>2021-03-20T01:41:26</time>
      </trkpt>
      <trkpt lat="41.2205746304244" lon="-8.63789202645421">
        <ele>80.4</ele>
        <time>2021-03-20T01:41:27</time>
      </trkpt>
      <trkpt lat="41.2205281108618" lon="-8.63786428235471">
        <ele>80.6</ele>
        <time>2021-03-20T01:41:28</time>
      </trkpt>
      <trkpt lat="41.2204659171402" lon="-8.63781952299178">
        <ele>80.6</ele>
        <time>2021-03-20T01:41:29</time>
      </trkpt>
      <trkpt lat="41.2204161286354" lon="-8.63778850995004">
        <ele>81</ele>
        <time>2021-03-20T01:41:30</time>
      </trkpt>
      <trkpt lat="41.220348905772" lon="-8.63775565288961">
        <ele>81.2</ele>
        <time>2021-03-20T01:41:31</time>
      </trkpt>
      <trkpt lat="41.2202966026962" lon="-8.63772422075272">
        <ele>82</ele>
        <time>2021-03-20T01:41:32</time>
      </trkpt>
      <trkpt lat="41.2202366720885" lon="-8.63768968731165">
        <ele>82.2</ele>
        <time>2021-03-20T01:41:33</time>
      </trkpt>
      <trkpt lat="41.2201910745352" lon="-8.63767376169562">
        <ele>82.4</ele>
        <time>2021-03-20T01:41:34</time>
      </trkpt>
      <trkpt lat="41.2201355863363" lon="-8.63764970563352">
        <ele>82.4</ele>
        <time>2021-03-20T01:41:35</time>
      </trkpt>
      <trkpt lat="41.2200895696878" lon="-8.63761617802084">
        <ele>82.6</ele>
        <time>2021-03-20T01:41:36</time>
      </trkpt>
      <trkpt lat="41.2200471572578" lon="-8.63758818246424">
        <ele>82.8</ele>
        <time>2021-03-20T01:41:37</time>
      </trkpt>
      <trkpt lat="41.2200034037232" lon="-8.63754828460514">
        <ele>83</ele>
        <time>2021-03-20T01:41:38</time>
      </trkpt>
      <trkpt lat="41.2199381925166" lon="-8.63750796765089">
        <ele>83.2</ele>
        <time>2021-03-20T01:41:39</time>
      </trkpt>
      <trkpt lat="41.2198791000992" lon="-8.63747301511466">
        <ele>83.4</ele>
        <time>2021-03-20T01:41:40</time>
      </trkpt>
      <trkpt lat="41.2198184151202" lon="-8.63744451664388">
        <ele>83.6</ele>
        <time>2021-03-20T01:41:41</time>
      </trkpt>
      <trkpt lat="41.2197413854301" lon="-8.63740126602352">
        <ele>83.6</ele>
        <time>2021-03-20T01:41:42</time>
      </trkpt>
      <trkpt lat="41.2197031639516" lon="-8.63738265819848">
        <ele>83.8</ele>
        <time>2021-03-20T01:41:43</time>
      </trkpt>
      <trkpt lat="41.2196417246014" lon="-8.63734846003354">
        <ele>84.2</ele>
        <time>2021-03-20T01:41:44</time>
      </trkpt>
      <trkpt lat="41.219569388777" lon="-8.63732364960015">
        <ele>84.2</ele>
        <time>2021-03-20T01:41:45</time>
      </trkpt>
      <trkpt lat="41.2195285689086" lon="-8.63729749806225">
        <ele>85</ele>
        <time>2021-03-20T01:41:46</time>
      </trkpt>
      <trkpt lat="41.2194776907563" lon="-8.63726430572569">
        <ele>85.2</ele>
        <time>2021-03-20T01:41:47</time>
      </trkpt>
      <trkpt lat="41.2194221187383" lon="-8.63722901791334">
        <ele>85.4</ele>
        <time>2021-03-20T01:41:48</time>
      </trkpt>
      <trkpt lat="41.2193648703396" lon="-8.63719381392002">
        <ele>85.4</ele>
        <time>2021-03-20T01:41:49</time>
      </trkpt>
      <trkpt lat="41.2193031795323" lon="-8.63715651445091">
        <ele>85.4</ele>
        <time>2021-03-20T01:41:50</time>
      </trkpt>
      <trkpt lat="41.2192471046001" lon="-8.63712365739048">
        <ele>85.8</ele>
        <time>2021-03-20T01:41:51</time>
      </trkpt>
      <trkpt lat="41.2191942147911" lon="-8.63708526827395">
        <ele>85.6</ele>
        <time>2021-03-20T01:41:52</time>
      </trkpt>
      <trkpt lat="41.2191478628665" lon="-8.63707319833338">
        <ele>85.8</ele>
        <time>2021-03-20T01:41:53</time>
      </trkpt>
      <trkpt lat="41.2190844118595" lon="-8.63705618306994">
        <ele>85.8</ele>
        <time>2021-03-20T01:41:54</time>
      </trkpt>
      <trkpt lat="41.2190149258822" lon="-8.63702265545726">
        <ele>86</ele>
        <time>2021-03-20T01:41:55</time>
      </trkpt>
      <trkpt lat="41.2189637124538" lon="-8.6369944922626">
        <ele>86.2</ele>
        <time>2021-03-20T01:41:56</time>
      </trkpt>
      <trkpt lat="41.2189004290849" lon="-8.63696247339249">
        <ele>86.2</ele>
        <time>2021-03-20T01:41:57</time>
      </trkpt>
      <trkpt lat="41.2188237346709" lon="-8.63692752085626">
        <ele>86</ele>
        <time>2021-03-20T01:41:58</time>
      </trkpt>
      <trkpt lat="41.2187709286809" lon="-8.63688980229199">
        <ele>86.2</ele>
        <time>2021-03-20T01:41:59</time>
      </trkpt>
      <trkpt lat="41.2187266722322" lon="-8.63686826080084">
        <ele>86.4</ele>
        <time>2021-03-20T01:42:00</time>
      </trkpt>
      <trkpt lat="41.21866020374" lon="-8.63682400435209">
        <ele>86.6</ele>
        <time>2021-03-20T01:42:01</time>
      </trkpt>
      <trkpt lat="41.2185785640031" lon="-8.63677421584725">
        <ele>87</ele>
        <time>2021-03-20T01:42:02</time>
      </trkpt>
      <trkpt lat="41.2185079045594" lon="-8.63673079758882">
        <ele>87</ele>
        <time>2021-03-20T01:42:03</time>
      </trkpt>
      <trkpt lat="41.2184509076178" lon="-8.63670372404158">
        <ele>87</ele>
        <time>2021-03-20T01:42:04</time>
      </trkpt>
      <trkpt lat="41.2183829303831" lon="-8.6366614792496">
        <ele>87</ele>
        <time>2021-03-20T01:42:05</time>
      </trkpt>
      <trkpt lat="41.2183182220906" lon="-8.63662116229534">
        <ele>87.4</ele>
        <time>2021-03-20T01:42:06</time>
      </trkpt>
      <trkpt lat="41.2182825990021" lon="-8.6365975253284">
        <ele>87.4</ele>
        <time>2021-03-20T01:42:07</time>
      </trkpt>
      <trkpt lat="41.2182235904038" lon="-8.63657045178115">
        <ele>87.4</ele>
        <time>2021-03-20T01:42:08</time>
      </trkpt>
      <trkpt lat="41.2181602232158" lon="-8.63653650507331">
        <ele>87.4</ele>
        <time>2021-03-20T01:42:09</time>
      </trkpt>
      <trkpt lat="41.2180828582495" lon="-8.63648470491171">
        <ele>87.6</ele>
        <time>2021-03-20T01:42:10</time>
      </trkpt>
      <trkpt lat="41.2180307228118" lon="-8.63644547760486">
        <ele>87.6</ele>
        <time>2021-03-20T01:42:11</time>
      </trkpt>
      <trkpt lat="41.2179510947317" lon="-8.63639946095646">
        <ele>87.8</ele>
        <time>2021-03-20T01:42:12</time>
      </trkpt>
      <trkpt lat="41.2178976181895" lon="-8.63636928610504">
        <ele>87.8</ele>
        <time>2021-03-20T01:42:13</time>
      </trkpt>
      <trkpt lat="41.2178266234696" lon="-8.63632947206497">
        <ele>87.8</ele>
        <time>2021-03-20T01:42:14</time>
      </trkpt>
      <trkpt lat="41.2177553772926" lon="-8.63628848455846">
        <ele>88.2</ele>
        <time>2021-03-20T01:42:15</time>
      </trkpt>
      <trkpt lat="41.2177181616426" lon="-8.63627649843693">
        <ele>88.6</ele>
        <time>2021-03-20T01:42:16</time>
      </trkpt>
      <trkpt lat="41.2176252063364" lon="-8.63625152036548">
        <ele>88.6</ele>
        <time>2021-03-20T01:42:17</time>
      </trkpt>
      <trkpt lat="41.2175651080906" lon="-8.63622427918017">
        <ele>88.6</ele>
        <time>2021-03-20T01:42:18</time>
      </trkpt>
      <trkpt lat="41.2174916826189" lon="-8.63618371076882">
        <ele>88.4</ele>
        <time>2021-03-20T01:42:19</time>
      </trkpt>
      <trkpt lat="41.2174341827631" lon="-8.63618069328368">
        <ele>88.6</ele>
        <time>2021-03-20T01:42:20</time>
      </trkpt>
      <trkpt lat="41.2173681333661" lon="-8.63614699803293">
        <ele>88.8</ele>
        <time>2021-03-20T01:42:21</time>
      </trkpt>
      <trkpt lat="41.2172875832766" lon="-8.6360930185765">
        <ele>89.2</ele>
        <time>2021-03-20T01:42:22</time>
      </trkpt>
      <trkpt lat="41.2172201927751" lon="-8.63606401719153">
        <ele>89.2</ele>
        <time>2021-03-20T01:42:23</time>
      </trkpt>
      <trkpt lat="41.2171600945294" lon="-8.63603015430272">
        <ele>89.4</ele>
        <time>2021-03-20T01:42:24</time>
      </trkpt>
      <trkpt lat="41.2170623615384" lon="-8.6359775159508">
        <ele>89.6</ele>
        <time>2021-03-20T01:42:25</time>
      </trkpt>
      <trkpt lat="41.2170171830803" lon="-8.63595547154546">
        <ele>89.8</ele>
        <time>2021-03-20T01:42:26</time>
      </trkpt>
      <trkpt lat="41.2169522233307" lon="-8.63591766916216">
        <ele>90</ele>
        <time>2021-03-20T01:42:27</time>
      </trkpt>
      <trkpt lat="41.2168871797621" lon="-8.63587819039822">
        <ele>90</ele>
        <time>2021-03-20T01:42:28</time>
      </trkpt>
      <trkpt lat="41.216815430671" lon="-8.63584726117551">
        <ele>90</ele>
        <time>2021-03-20T01:42:29</time>
      </trkpt>
      <trkpt lat="41.2167539075017" lon="-8.63581398501992">
        <ele>90</ele>
        <time>2021-03-20T01:42:30</time>
      </trkpt>
      <trkpt lat="41.2166964076459" lon="-8.63578515127301">
        <ele>90.6</ele>
        <time>2021-03-20T01:42:31</time>
      </trkpt>
      <trkpt lat="41.2166210543364" lon="-8.63575648516416">
        <ele>91</ele>
        <time>2021-03-20T01:42:32</time>
      </trkpt>
      <trkpt lat="41.216577719897" lon="-8.63574567250907">
        <ele>91.2</ele>
        <time>2021-03-20T01:42:33</time>
      </trkpt>
      <trkpt lat="41.2164841778576" lon="-8.63568515516818">
        <ele>91.6</ele>
        <time>2021-03-20T01:42:34</time>
      </trkpt>
      <trkpt lat="41.2164225708693" lon="-8.63569672219455">
        <ele>91.6</ele>
        <time>2021-03-20T01:42:35</time>
      </trkpt>
      <trkpt lat="41.2163597065955" lon="-8.63569001667202">
        <ele>91.6</ele>
        <time>2021-03-20T01:42:36</time>
      </trkpt>
      <trkpt lat="41.2162871193141" lon="-8.63567425869405">
        <ele>91.8</ele>
        <time>2021-03-20T01:42:37</time>
      </trkpt>
      <trkpt lat="41.2162141129374" lon="-8.63567618653178">
        <ele>92</ele>
        <time>2021-03-20T01:42:38</time>
      </trkpt>
      <trkpt lat="41.2161421123892" lon="-8.63563075661659">
        <ele>92.2</ele>
        <time>2021-03-20T01:42:39</time>
      </trkpt>
      <trkpt lat="41.2160760629922" lon="-8.63562270998955">
        <ele>92.6</ele>
        <time>2021-03-20T01:42:40</time>
      </trkpt>
      <trkpt lat="41.216012109071" lon="-8.63560929894447">
        <ele>92.8</ele>
        <time>2021-03-20T01:42:41</time>
      </trkpt>
      <trkpt lat="41.2159586325288" lon="-8.63563419319689">
        <ele>93</ele>
        <time>2021-03-20T01:42:42</time>
      </trkpt>
      <trkpt lat="41.2159080896527" lon="-8.63564701750874">
        <ele>93</ele>
        <time>2021-03-20T01:42:43</time>
      </trkpt>
      <trkpt lat="41.2158421240747" lon="-8.63563796505332">
        <ele>93.2</ele>
        <time>2021-03-20T01:42:44</time>
      </trkpt>
      <trkpt lat="41.2157976999879" lon="-8.63565246574581">
        <ele>93.4</ele>
        <time>2021-03-20T01:42:45</time>
      </trkpt>
      <trkpt lat="41.2157374341041" lon="-8.63564131781459">
        <ele>93.6</ele>
        <time>2021-03-20T01:42:46</time>
      </trkpt>
      <trkpt lat="41.2156634218991" lon="-8.635592199862">
        <ele>93.8</ele>
        <time>2021-03-20T01:42:47</time>
      </trkpt>
      <trkpt lat="41.215597204864" lon="-8.6355924513191">
        <ele>94</ele>
        <time>2021-03-20T01:42:48</time>
      </trkpt>
      <trkpt lat="41.2155435606837" lon="-8.6355610191822">
        <ele>94</ele>
        <time>2021-03-20T01:42:49</time>
      </trkpt>
      <trkpt lat="41.2154547125101" lon="-8.63551500253379">
        <ele>94.2</ele>
        <time>2021-03-20T01:42:50</time>
      </trkpt>
      <trkpt lat="41.2153953686357" lon="-8.63547594286501">
        <ele>94.6</ele>
        <time>2021-03-20T01:42:51</time>
      </trkpt>
      <trkpt lat="41.215316914022" lon="-8.63542774692178">
        <ele>94.8</ele>
        <time>2021-03-20T01:42:52</time>
      </trkpt>
      <trkpt lat="41.2152600847185" lon="-8.63543101586401">
        <ele>94.8</ele>
        <time>2021-03-20T01:42:53</time>
      </trkpt>
      <trkpt lat="41.2151827197522" lon="-8.63538768142462">
        <ele>95</ele>
        <time>2021-03-20T01:42:54</time>
      </trkpt>
      <trkpt lat="41.2151191849262" lon="-8.63534945994616">
        <ele>95.2</ele>
        <time>2021-03-20T01:42:55</time>
      </trkpt>
      <trkpt lat="41.2150193564594" lon="-8.63530101254582">
        <ele>95.2</ele>
        <time>2021-03-20T01:42:56</time>
      </trkpt>
      <trkpt lat="41.2149421591312" lon="-8.63525725901127">
        <ele>95.6</ele>
        <time>2021-03-20T01:42:57</time>
      </trkpt>
      <trkpt lat="41.2148741818964" lon="-8.63522121682763">
        <ele>95.8</ele>
        <time>2021-03-20T01:42:58</time>
      </trkpt>
      <trkpt lat="41.2148156762123" lon="-8.63520830869675">
        <ele>95.8</ele>
        <time>2021-03-20T01:42:59</time>
      </trkpt>
      <trkpt lat="41.2147651333362" lon="-8.63519875332713">
        <ele>95.8</ele>
        <time>2021-03-20T01:43:00</time>
      </trkpt>
      <trkpt lat="41.214693216607" lon="-8.6351727694273">
        <ele>96</ele>
        <time>2021-03-20T01:43:01</time>
      </trkpt>
      <trkpt lat="41.2146451883018" lon="-8.63516732119024">
        <ele>96.2</ele>
        <time>2021-03-20T01:43:02</time>
      </trkpt>
      <trkpt lat="41.2145839165896" lon="-8.63514829427004">
        <ele>96.2</ele>
        <time>2021-03-20T01:43:03</time>
      </trkpt>
      <trkpt lat="41.2145296018571" lon="-8.6351484619081">
        <ele>96.6</ele>
        <time>2021-03-20T01:43:04</time>
      </trkpt>
      <trkpt lat="41.2144588585943" lon="-8.63507528789341">
        <ele>96.8</ele>
        <time>2021-03-20T01:43:05</time>
      </trkpt>
      <trkpt lat="41.2143854331225" lon="-8.63504268229008">
        <ele>96.6</ele>
        <time>2021-03-20T01:43:06</time>
      </trkpt>
      <trkpt lat="41.2143041286618" lon="-8.63500731065869">
        <ele>96.6</ele>
        <time>2021-03-20T01:43:07</time>
      </trkpt>
      <trkpt lat="41.2142525799572" lon="-8.63500747829676">
        <ele>96.8</ele>
        <time>2021-03-20T01:43:08</time>
      </trkpt>
      <trkpt lat="41.2142018694431" lon="-8.63498602062464">
        <ele>97</ele>
        <time>2021-03-20T01:43:09</time>
      </trkpt>
      <trkpt lat="41.214122409001" lon="-8.63496749661863">
        <ele>97.2</ele>
        <time>2021-03-20T01:43:10</time>
      </trkpt>
      <trkpt lat="41.2140603829175" lon="-8.63491619937122">
        <ele>97.2</ele>
        <time>2021-03-20T01:43:11</time>
      </trkpt>
      <trkpt lat="41.2139726243913" lon="-8.63485970534384">
        <ele>97</ele>
        <time>2021-03-20T01:43:12</time>
      </trkpt>
      <trkpt lat="41.2139126099646" lon="-8.63485216163099">
        <ele>97.2</ele>
        <time>2021-03-20T01:43:13</time>
      </trkpt>
      <trkpt lat="41.2138086743653" lon="-8.6347877047956">
        <ele>97</ele>
        <time>2021-03-20T01:43:14</time>
      </trkpt>
      <trkpt lat="41.213757628575" lon="-8.63475878722966">
        <ele>97.4</ele>
        <time>2021-03-20T01:43:15</time>
      </trkpt>
      <trkpt lat="41.2136489152908" lon="-8.63468821160495">
        <ele>97.2</ele>
        <time>2021-03-20T01:43:16</time>
      </trkpt>
      <trkpt lat="41.2136030662805" lon="-8.63467597402632">
        <ele>97.4</ele>
        <time>2021-03-20T01:43:17</time>
      </trkpt>
      <trkpt lat="41.2135233543813" lon="-8.63463867455721">
        <ele>97.4</ele>
        <time>2021-03-20T01:43:18</time>
      </trkpt>
      <trkpt lat="41.2134456541389" lon="-8.6345805041492">
        <ele>97.6</ele>
        <time>2021-03-20T01:43:19</time>
      </trkpt>
      <trkpt lat="41.2133838795126" lon="-8.63455829210579">
        <ele>97.4</ele>
        <time>2021-03-20T01:43:20</time>
      </trkpt>
      <trkpt lat="41.2133406288922" lon="-8.63454144448042">
        <ele>97.4</ele>
        <time>2021-03-20T01:43:21</time>
      </trkpt>
      <trkpt lat="41.2132722325623" lon="-8.63448796793818">
        <ele>97.2</ele>
        <time>2021-03-20T01:43:22</time>
      </trkpt>
      <trkpt lat="41.2131909281015" lon="-8.6344338208437">
        <ele>97.2</ele>
        <time>2021-03-20T01:43:23</time>
      </trkpt>
      <trkpt lat="41.2131290696561" lon="-8.63435829989612">
        <ele>97.4</ele>
        <time>2021-03-20T01:43:24</time>
      </trkpt>
      <trkpt lat="41.2130698934197" lon="-8.63433097489178">
        <ele>97.4</ele>
        <time>2021-03-20T01:43:25</time>
      </trkpt>
      <trkpt lat="41.2130118906498" lon="-8.63430381752551">
        <ele>97.4</ele>
        <time>2021-03-20T01:43:26</time>
      </trkpt>
      <trkpt lat="41.2129547260702" lon="-8.63427397795022">
        <ele>97.2</ele>
        <time>2021-03-20T01:43:27</time>
      </trkpt>
      <trkpt lat="41.2128493655473" lon="-8.63420952111483">
        <ele>97.4</ele>
        <time>2021-03-20T01:43:28</time>
      </trkpt>
      <trkpt lat="41.2127685640007" lon="-8.63416065461934">
        <ele>97.4</ele>
        <time>2021-03-20T01:43:29</time>
      </trkpt>
      <trkpt lat="41.2127309292555" lon="-8.63413718529046">
        <ele>97.4</ele>
        <time>2021-03-20T01:43:30</time>
      </trkpt>
      <trkpt lat="41.2126672267914" lon="-8.63408228382468">
        <ele>97.6</ele>
        <time>2021-03-20T01:43:31</time>
      </trkpt>
      <trkpt lat="41.2126196175814" lon="-8.63405370153487">
        <ele>97.4</ele>
        <time>2021-03-20T01:43:32</time>
      </trkpt>
      <trkpt lat="41.2125291768461" lon="-8.63400927744806">
        <ele>97.6</ele>
        <time>2021-03-20T01:43:33</time>
      </trkpt>
      <trkpt lat="41.212470587343" lon="-8.63397818058729">
        <ele>97.6</ele>
        <time>2021-03-20T01:43:34</time>
      </trkpt>
      <trkpt lat="41.2123883608729" lon="-8.6339361872524">
        <ele>97.6</ele>
        <time>2021-03-20T01:43:35</time>
      </trkpt>
      <trkpt lat="41.2123196292669" lon="-8.63389595411718">
        <ele>98</ele>
        <time>2021-03-20T01:43:36</time>
      </trkpt>
      <trkpt lat="41.2122545856982" lon="-8.633863767609">
        <ele>98.2</ele>
        <time>2021-03-20T01:43:37</time>
      </trkpt>
      <trkpt lat="41.2121949065477" lon="-8.63382864743471">
        <ele>97.8</ele>
        <time>2021-03-20T01:43:38</time>
      </trkpt>
      <trkpt lat="41.2121415976435" lon="-8.63381121307611">
        <ele>97.8</ele>
        <time>2021-03-20T01:43:39</time>
      </trkpt>
      <trkpt lat="41.2120654061437" lon="-8.63376980647445">
        <ele>97.8</ele>
        <time>2021-03-20T01:43:40</time>
      </trkpt>
      <trkpt lat="41.2119746301323" lon="-8.63370417617261">
        <ele>98</ele>
        <time>2021-03-20T01:43:41</time>
      </trkpt>
      <trkpt lat="41.2119048926979" lon="-8.63368296995759">
        <ele>98.2</ele>
        <time>2021-03-20T01:43:42</time>
      </trkpt>
      <trkpt lat="41.211844375357" lon="-8.63365422002971">
        <ele>98.2</ele>
        <time>2021-03-20T01:43:43</time>
      </trkpt>
      <trkpt lat="41.2117912340909" lon="-8.63358867354691">
        <ele>98.4</ele>
        <time>2021-03-20T01:43:44</time>
      </trkpt>
      <trkpt lat="41.2117205746472" lon="-8.63356017507613">
        <ele>98.4</ele>
        <time>2021-03-20T01:43:45</time>
      </trkpt>
      <trkpt lat="41.2116490770131" lon="-8.63351365551352">
        <ele>98.6</ele>
        <time>2021-03-20T01:43:46</time>
      </trkpt>
      <trkpt lat="41.2115707062185" lon="-8.63346026279032">
        <ele>98.6</ele>
        <time>2021-03-20T01:43:47</time>
      </trkpt>
      <trkpt lat="41.2114958558232" lon="-8.6334422416985">
        <ele>98.6</ele>
        <time>2021-03-20T01:43:48</time>
      </trkpt>
      <trkpt lat="41.2114229332656" lon="-8.6334113124758">
        <ele>98.8</ele>
        <time>2021-03-20T01:43:49</time>
      </trkpt>
      <trkpt lat="41.2113504298031" lon="-8.63337845541537">
        <ele>99</ele>
        <time>2021-03-20T01:43:50</time>
      </trkpt>
      <trkpt lat="41.2112706340849" lon="-8.63327267579734">
        <ele>99</ele>
        <time>2021-03-20T01:43:51</time>
      </trkpt>
      <trkpt lat="41.211196705699" lon="-8.63322699442506">
        <ele>99</ele>
        <time>2021-03-20T01:43:52</time>
      </trkpt>
      <trkpt lat="41.2111501861364" lon="-8.63319916650653">
        <ele>99.2</ele>
        <time>2021-03-20T01:43:53</time>
      </trkpt>
      <trkpt lat="41.2110703904182" lon="-8.63316731527448">
        <ele>99.4</ele>
        <time>2021-03-20T01:43:54</time>
      </trkpt>
      <trkpt lat="41.2109946180135" lon="-8.63314594142139">
        <ele>99.6</ele>
        <time>2021-03-20T01:43:55</time>
      </trkpt>
      <trkpt lat="41.2109164148569" lon="-8.63313077017665">
        <ele>99.6</ele>
        <time>2021-03-20T01:43:56</time>
      </trkpt>
      <trkpt lat="41.2108460906893" lon="-8.6331002600491">
        <ele>99.6</ele>
        <time>2021-03-20T01:43:57</time>
      </trkpt>
      <trkpt lat="41.2107761017978" lon="-8.6330782994628">
        <ele>99.6</ele>
        <time>2021-03-20T01:43:58</time>
      </trkpt>
      <trkpt lat="41.2107110582292" lon="-8.63306044600904">
        <ele>99.8</ele>
        <time>2021-03-20T01:43:59</time>
      </trkpt>
      <trkpt lat="41.2106596771628" lon="-8.63305365666747">
        <ele>99.6</ele>
        <time>2021-03-20T01:44:00</time>
      </trkpt>
      <trkpt lat="41.2105927057564" lon="-8.63305072300136">
        <ele>99.6</ele>
        <time>2021-03-20T01:44:01</time>
      </trkpt>
      <trkpt lat="41.2105188611895" lon="-8.63305080682039">
        <ele>99.4</ele>
        <time>2021-03-20T01:44:02</time>
      </trkpt>
      <trkpt lat="41.2104338686913" lon="-8.63305751234293">
        <ele>99</ele>
        <time>2021-03-20T01:44:03</time>
      </trkpt>
      <trkpt lat="41.2103846669197" lon="-8.63306069746614">
        <ele>99</ele>
        <time>2021-03-20T01:44:04</time>
      </trkpt>
      <trkpt lat="41.2103125825524" lon="-8.63306321203709">
        <ele>99</ele>
        <time>2021-03-20T01:44:05</time>
      </trkpt>
      <trkpt lat="41.2102316971868" lon="-8.63306480459869">
        <ele>99</ele>
        <time>2021-03-20T01:44:06</time>
      </trkpt>
      <trkpt lat="41.2101372331381" lon="-8.63305265083909">
        <ele>98.8</ele>
        <time>2021-03-20T01:44:07</time>
      </trkpt>
      <trkpt lat="41.2100751232356" lon="-8.63305826671422">
        <ele>99</ele>
        <time>2021-03-20T01:44:08</time>
      </trkpt>
      <trkpt lat="41.2099856883287" lon="-8.63306145183742">
        <ele>98.6</ele>
        <time>2021-03-20T01:44:09</time>
      </trkpt>
      <trkpt lat="41.2098949123174" lon="-8.63304644823074">
        <ele>98.6</ele>
        <time>2021-03-20T01:44:10</time>
      </trkpt>
      <trkpt lat="41.2098361551762" lon="-8.63308802247048">
        <ele>98.8</ele>
        <time>2021-03-20T01:44:11</time>
      </trkpt>
      <trkpt lat="41.2097689323127" lon="-8.6330968234688">
        <ele>98.4</ele>
        <time>2021-03-20T01:44:12</time>
      </trkpt>
      <trkpt lat="41.2096965964884" lon="-8.63310445100069">
        <ele>98.2</ele>
        <time>2021-03-20T01:44:13</time>
      </trkpt>
      <trkpt lat="41.2096307147294" lon="-8.63311702385545">
        <ele>98.4</ele>
        <time>2021-03-20T01:44:14</time>
      </trkpt>
      <trkpt lat="41.2095320597291" lon="-8.63306664861739">
        <ele>98.4</ele>
        <time>2021-03-20T01:44:15</time>
      </trkpt>
      <trkpt lat="41.2094506714493" lon="-8.63309414125979">
        <ele>98</ele>
        <time>2021-03-20T01:44:16</time>
      </trkpt>
      <trkpt lat="41.2093656789511" lon="-8.63308726809919">
        <ele>97.8</ele>
        <time>2021-03-20T01:44:17</time>
      </trkpt>
      <trkpt lat="41.2092811055481" lon="-8.63308047875762">
        <ele>97.6</ele>
        <time>2021-03-20T01:44:18</time>
      </trkpt>
      <trkpt lat="41.2092039082199" lon="-8.63308374769986">
        <ele>97.2</ele>
        <time>2021-03-20T01:44:19</time>
      </trkpt>
      <trkpt lat="41.2091253697872" lon="-8.63308877684176">
        <ele>97.2</ele>
        <time>2021-03-20T01:44:20</time>
      </trkpt>
      <trkpt lat="41.2090470828116" lon="-8.63309280015528">
        <ele>97.2</ele>
        <time>2021-03-20T01:44:21</time>
      </trkpt>
      <trkpt lat="41.2089718971401" lon="-8.63309598527849">
        <ele>97</ele>
        <time>2021-03-20T01:44:22</time>
      </trkpt>
      <trkpt lat="41.2088941968977" lon="-8.63309824839234">
        <ele>96.6</ele>
        <time>2021-03-20T01:44:23</time>
      </trkpt>
      <trkpt lat="41.2088145688176" lon="-8.63309565000236">
        <ele>96.6</ele>
        <time>2021-03-20T01:44:24</time>
      </trkpt>
      <trkpt lat="41.2087398860604" lon="-8.63309095613658">
        <ele>96.6</ele>
        <time>2021-03-20T01:44:25</time>
      </trkpt>
      <trkpt lat="41.2086641974747" lon="-8.63310319371521">
        <ele>96.2</ele>
        <time>2021-03-20T01:44:26</time>
      </trkpt>
      <trkpt lat="41.2085870839655" lon="-8.63310621120036">
        <ele>95.8</ele>
        <time>2021-03-20T01:44:27</time>
      </trkpt>
      <trkpt lat="41.2085135746747" lon="-8.63310880959034">
        <ele>95.6</ele>
        <time>2021-03-20T01:44:28</time>
      </trkpt>
      <trkpt lat="41.2084371317178" lon="-8.63311870023608">
        <ele>95</ele>
        <time>2021-03-20T01:44:29</time>
      </trkpt>
      <trkpt lat="41.2083488702774" lon="-8.63312347792089">
        <ele>94.6</ele>
        <time>2021-03-20T01:44:30</time>
      </trkpt>
      <trkpt lat="41.2082901969552" lon="-8.63313127309084">
        <ele>94.4</ele>
        <time>2021-03-20T01:44:31</time>
      </trkpt>
      <trkpt lat="41.2081966549158" lon="-8.63312766887248">
        <ele>93.6</ele>
        <time>2021-03-20T01:44:32</time>
      </trkpt>
      <trkpt lat="41.2080989219248" lon="-8.63314275629818">
        <ele>93.4</ele>
        <time>2021-03-20T01:44:33</time>
      </trkpt>
      <trkpt lat="41.2080260831863" lon="-8.63313529640436">
        <ele>93</ele>
        <time>2021-03-20T01:44:34</time>
      </trkpt>
      <trkpt lat="41.2079376541078" lon="-8.6331367213279">
        <ele>92.6</ele>
        <time>2021-03-20T01:44:35</time>
      </trkpt>
      <trkpt lat="41.2078306172043" lon="-8.63314250484109">
        <ele>92.4</ele>
        <time>2021-03-20T01:44:36</time>
      </trkpt>
      <trkpt lat="41.2077443674207" lon="-8.63315130583942">
        <ele>92.4</ele>
        <time>2021-03-20T01:44:37</time>
      </trkpt>
      <trkpt lat="41.2076588720083" lon="-8.63315516151488">
        <ele>92.4</ele>
        <time>2021-03-20T01:44:38</time>
      </trkpt>
      <trkpt lat="41.2075556907803" lon="-8.6331504676491">
        <ele>92</ele>
        <time>2021-03-20T01:44:39</time>
      </trkpt>
      <trkpt lat="41.2074620649219" lon="-8.63315817900002">
        <ele>91.8</ele>
        <time>2021-03-20T01:44:40</time>
      </trkpt>
      <trkpt lat="41.2074038945138" lon="-8.63317267969251">
        <ele>91.2</ele>
        <time>2021-03-20T01:44:41</time>
      </trkpt>
      <trkpt lat="41.207314375788" lon="-8.63317670300603">
        <ele>90.2</ele>
        <time>2021-03-20T01:44:42</time>
      </trkpt>
      <trkpt lat="41.2072261981666" lon="-8.63318424671888">
        <ele>89.4</ele>
        <time>2021-03-20T01:44:43</time>
      </trkpt>
      <trkpt lat="41.2071297224611" lon="-8.63320101052523">
        <ele>89.4</ele>
        <time>2021-03-20T01:44:44</time>
      </trkpt>
      <trkpt lat="41.2070383597165" lon="-8.63319598138332">
        <ele>88.8</ele>
        <time>2021-03-20T01:44:45</time>
      </trkpt>
      <trkpt lat="41.2067536264658" lon="-8.63318701274693">
        <ele>88.6</ele>
        <time>2021-03-20T01:44:46</time>
      </trkpt>
      <trkpt lat="41.2066476792097" lon="-8.63319296389818">
        <ele>88.4</ele>
        <time>2021-03-20T01:44:47</time>
      </trkpt>
      <trkpt lat="41.2065272312611" lon="-8.63317770883441">
        <ele>88</ele>
        <time>2021-03-20T01:44:48</time>
      </trkpt>
      <trkpt lat="41.2064257264137" lon="-8.63317930139601">
        <ele>87.2</ele>
        <time>2021-03-20T01:44:49</time>
      </trkpt>
      <trkpt lat="41.2063481938094" lon="-8.63318114541471">
        <ele>86.6</ele>
        <time>2021-03-20T01:44:50</time>
      </trkpt>
      <trkpt lat="41.20625465177" lon="-8.6332025192678">
        <ele>86</ele>
        <time>2021-03-20T01:44:51</time>
      </trkpt>
      <trkpt lat="41.2061483692378" lon="-8.63320721313357">
        <ele>85.8</ele>
        <time>2021-03-20T01:44:52</time>
      </trkpt>
      <trkpt lat="41.2060434278101" lon="-8.63321995362639">
        <ele>85.4</ele>
        <time>2021-03-20T01:44:53</time>
      </trkpt>
      <trkpt lat="41.2059653922915" lon="-8.63322598859668">
        <ele>85.2</ele>
        <time>2021-03-20T01:44:54</time>
      </trkpt>
      <trkpt lat="41.2058684136718" lon="-8.63324065692723">
        <ele>84.6</ele>
        <time>2021-03-20T01:44:55</time>
      </trkpt>
      <trkpt lat="41.2057650648057" lon="-8.63324669189751">
        <ele>84.4</ele>
        <time>2021-03-20T01:44:56</time>
      </trkpt>
      <trkpt lat="41.2056549265981" lon="-8.6332524754107">
        <ele>84.2</ele>
        <time>2021-03-20T01:44:57</time>
      </trkpt>
      <trkpt lat="41.2055732030422" lon="-8.63325666636229">
        <ele>84.2</ele>
        <time>2021-03-20T01:44:58</time>
      </trkpt>
      <trkpt lat="41.2054681777954" lon="-8.63326320424676">
        <ele>84</ele>
        <time>2021-03-20T01:44:59</time>
      </trkpt>
      <trkpt lat="41.2053577043116" lon="-8.63326370716095">
        <ele>83.8</ele>
        <time>2021-03-20T01:45:00</time>
      </trkpt>
      <trkpt lat="41.2052524276078" lon="-8.63327016122639">
        <ele>83.6</ele>
        <time>2021-03-20T01:45:01</time>
      </trkpt>
      <trkpt lat="41.205171123147" lon="-8.63327376544476">
        <ele>83.4</ele>
        <time>2021-03-20T01:45:02</time>
      </trkpt>
      <trkpt lat="41.205065427348" lon="-8.63327728584409">
        <ele>83.2</ele>
        <time>2021-03-20T01:45:03</time>
      </trkpt>
      <trkpt lat="41.2049609050155" lon="-8.63328047096729">
        <ele>83</ele>
        <time>2021-03-20T01:45:04</time>
      </trkpt>
      <trkpt lat="41.2048552092165" lon="-8.63328449428082">
        <ele>82.8</ele>
        <time>2021-03-20T01:45:05</time>
      </trkpt>
      <trkpt lat="41.2047780957073" lon="-8.63329078070819">
        <ele>82.8</ele>
        <time>2021-03-20T01:45:06</time>
      </trkpt>
      <trkpt lat="41.2046823743731" lon="-8.63330880180001">
        <ele>83</ele>
        <time>2021-03-20T01:45:07</time>
      </trkpt>
      <trkpt lat="41.2045786064118" lon="-8.63331718370318">
        <ele>83</ele>
        <time>2021-03-20T01:45:08</time>
      </trkpt>
      <trkpt lat="41.2044751737267" lon="-8.63332045264542">
        <ele>82.8</ele>
        <time>2021-03-20T01:45:09</time>
      </trkpt>
      <trkpt lat="41.2043936178088" lon="-8.63332120701671">
        <ele>82.6</ele>
        <time>2021-03-20T01:45:10</time>
      </trkpt>
      <trkpt lat="41.2042906880379" lon="-8.6333301756531">
        <ele>82.6</ele>
        <time>2021-03-20T01:45:11</time>
      </trkpt>
      <trkpt lat="41.2041802145541" lon="-8.63332682289183">
        <ele>83</ele>
        <time>2021-03-20T01:45:12</time>
      </trkpt>
      <trkpt lat="41.204071668908" lon="-8.63332824781537">
        <ele>82.8</ele>
        <time>2021-03-20T01:45:13</time>
      </trkpt>
      <trkpt lat="41.2039655540138" lon="-8.63333118148148">
        <ele>83.2</ele>
        <time>2021-03-20T01:45:14</time>
      </trkpt>
      <trkpt lat="41.2038891110569" lon="-8.63333721645176">
        <ele>83.4</ele>
        <time>2021-03-20T01:45:15</time>
      </trkpt>
      <trkpt lat="41.2037839181721" lon="-8.63334098830819">
        <ele>83.6</ele>
        <time>2021-03-20T01:45:16</time>
      </trkpt>
      <trkpt lat="41.2036775518209" lon="-8.6333455145359">
        <ele>84</ele>
        <time>2021-03-20T01:45:17</time>
      </trkpt>
      <trkpt lat="41.2035751249641" lon="-8.63335364498198">
        <ele>84.2</ele>
        <time>2021-03-20T01:45:18</time>
      </trkpt>
      <trkpt lat="41.203498179093" lon="-8.63335875794292">
        <ele>84.6</ele>
        <time>2021-03-20T01:45:19</time>
      </trkpt>
      <trkpt lat="41.2033970933408" lon="-8.63336697220802">
        <ele>85</ele>
        <time>2021-03-20T01:45:20</time>
      </trkpt>
      <trkpt lat="41.2032959237695" lon="-8.63337677903474">
        <ele>85</ele>
        <time>2021-03-20T01:45:21</time>
      </trkpt>
      <trkpt lat="41.2031945865601" lon="-8.63337895832956">
        <ele>85.2</ele>
        <time>2021-03-20T01:45:22</time>
      </trkpt>
      <trkpt lat="41.2030997034162" lon="-8.63337920978665">
        <ele>85.6</ele>
        <time>2021-03-20T01:45:23</time>
      </trkpt>
      <trkpt lat="41.2030054070056" lon="-8.63337644375861">
        <ele>85.8</ele>
        <time>2021-03-20T01:45:24</time>
      </trkpt>
      <trkpt lat="41.2029153853655" lon="-8.63337677903474">
        <ele>86.2</ele>
        <time>2021-03-20T01:45:25</time>
      </trkpt>
      <trkpt lat="41.2028283812106" lon="-8.6333838198334">
        <ele>86.4</ele>
        <time>2021-03-20T01:45:26</time>
      </trkpt>
      <trkpt lat="41.2027464061976" lon="-8.63340226002038">
        <ele>86.6</ele>
        <time>2021-03-20T01:45:27</time>
      </trkpt>
      <trkpt lat="41.2026653531939" lon="-8.63340921700001">
        <ele>86.8</ele>
        <time>2021-03-20T01:45:28</time>
      </trkpt>
      <trkpt lat="41.2025769241154" lon="-8.63341399468482">
        <ele>86.8</ele>
        <time>2021-03-20T01:45:29</time>
      </trkpt>
      <trkpt lat="41.2024958711118" lon="-8.63341877236962">
        <ele>86.8</ele>
        <time>2021-03-20T01:45:30</time>
      </trkpt>
      <trkpt lat="41.2024073582143" lon="-8.63342329859734">
        <ele>87.2</ele>
        <time>2021-03-20T01:45:31</time>
      </trkpt>
      <trkpt lat="41.2023190967739" lon="-8.63342824392021">
        <ele>87.2</ele>
        <time>2021-03-20T01:45:32</time>
      </trkpt>
      <trkpt lat="41.2022425699979" lon="-8.63343779928982">
        <ele>87.2</ele>
        <time>2021-03-20T01:45:33</time>
      </trkpt>
      <trkpt lat="41.2021599244326" lon="-8.63344215787947">
        <ele>87.4</ele>
        <time>2021-03-20T01:45:34</time>
      </trkpt>
      <trkpt lat="41.2020699027926" lon="-8.63344366662204">
        <ele>87.8</ele>
        <time>2021-03-20T01:45:35</time>
      </trkpt>
      <trkpt lat="41.2019936274737" lon="-8.63345665857196">
        <ele>88.2</ele>
        <time>2021-03-20T01:45:36</time>
      </trkpt>
      <trkpt lat="41.2019103951752" lon="-8.63345850259066">
        <ele>88.4</ele>
        <time>2021-03-20T01:45:37</time>
      </trkpt>
      <trkpt lat="41.201835712418" lon="-8.63347518257797">
        <ele>88.6</ele>
        <time>2021-03-20T01:45:38</time>
      </trkpt>
      <trkpt lat="41.2017616163939" lon="-8.63348599523306">
        <ele>88.8</ele>
        <time>2021-03-20T01:45:39</time>
      </trkpt>
      <trkpt lat="41.2016901187599" lon="-8.63349228166044">
        <ele>89</ele>
        <time>2021-03-20T01:45:40</time>
      </trkpt>
      <trkpt lat="41.2016109097749" lon="-8.63350200466812">
        <ele>89.2</ele>
        <time>2021-03-20T01:45:41</time>
      </trkpt>
      <trkpt lat="41.2015347182751" lon="-8.63349680788815">
        <ele>89.4</ele>
        <time>2021-03-20T01:45:42</time>
      </trkpt>
      <trkpt lat="41.2014573533088" lon="-8.63349781371653">
        <ele>89.6</ele>
        <time>2021-03-20T01:45:43</time>
      </trkpt>
      <trkpt lat="41.2013810779899" lon="-8.63349228166044">
        <ele>89.8</ele>
        <time>2021-03-20T01:45:44</time>
      </trkpt>
      <trkpt lat="41.2012959178537" lon="-8.63347727805376">
        <ele>90</ele>
        <time>2021-03-20T01:45:45</time>
      </trkpt>
      <trkpt lat="41.2010892201215" lon="-8.63347828388214">
        <ele>90.2</ele>
        <time>2021-03-20T01:45:46</time>
      </trkpt>
      <trkpt lat="41.2010258529335" lon="-8.63347048871219">
        <ele>90.4</ele>
        <time>2021-03-20T01:45:47</time>
      </trkpt>
      <trkpt lat="41.2009386811405" lon="-8.63344651646912">
        <ele>90.6</ele>
        <time>2021-03-20T01:45:48</time>
      </trkpt>
      <trkpt lat="41.2008543591946" lon="-8.6334150005132">
        <ele>90.6</ele>
        <time>2021-03-20T01:45:49</time>
      </trkpt>
      <trkpt lat="41.2007712107152" lon="-8.63343771547079">
        <ele>90.8</ele>
        <time>2021-03-20T01:45:50</time>
      </trkpt>
      <trkpt lat="41.2007209192961" lon="-8.6334993224591">
        <ele>91</ele>
        <time>2021-03-20T01:45:51</time>
      </trkpt>
      <trkpt lat="41.2006616592407" lon="-8.63351667299867">
        <ele>91.4</ele>
        <time>2021-03-20T01:45:53</time>
      </trkpt>
      <trkpt lat="41.2005096115172" lon="-8.6335077881813">
        <ele>91.4</ele>
        <time>2021-03-20T01:45:55</time>
      </trkpt>
      <trkpt lat="41.200366364792" lon="-8.63348264247179">
        <ele>92.2</ele>
        <time>2021-03-20T01:45:56</time>
      </trkpt>
      <trkpt lat="41.2002936936915" lon="-8.63350594416261">
        <ele>92.4</ele>
        <time>2021-03-20T01:45:58</time>
      </trkpt>
      <trkpt lat="41.2001429032534" lon="-8.63350418396294">
        <ele>92.6</ele>
        <time>2021-03-20T01:46:00</time>
      </trkpt>
      <trkpt lat="41.1999661289156" lon="-8.63349001854658">
        <ele>93</ele>
        <time>2021-03-20T01:46:02</time>
      </trkpt>
      <trkpt lat="41.1997642088681" lon="-8.63350267522037">
        <ele>93.6</ele>
        <time>2021-03-20T01:46:03</time>
      </trkpt>
      <trkpt lat="41.1996694095433" lon="-8.63346965052188">
        <ele>93.8</ele>
        <time>2021-03-20T01:46:05</time>
      </trkpt>
      <trkpt lat="41.1995328683406" lon="-8.63344576209784">
        <ele>94.2</ele>
        <time>2021-03-20T01:46:07</time>
      </trkpt>
      <trkpt lat="41.1993863526732" lon="-8.63347250036895">
        <ele>94.8</ele>
        <time>2021-03-20T01:46:09</time>
      </trkpt>
      <trkpt lat="41.1992898769677" lon="-8.63353000022471">
        <ele>95</ele>
        <time>2021-03-20T01:46:10</time>
      </trkpt>
      <trkpt lat="41.1992022022605" lon="-8.63350099883974">
        <ele>95.2</ele>
        <time>2021-03-20T01:46:12</time>
      </trkpt>
      <trkpt lat="41.1990545969456" lon="-8.6335077881813">
        <ele>95.6</ele>
        <time>2021-03-20T01:46:14</time>
      </trkpt>
      <trkpt lat="41.198939178139" lon="-8.63351868465543">
        <ele>96.2</ele>
        <time>2021-03-20T01:46:15</time>
      </trkpt>
      <trkpt lat="41.1988623999059" lon="-8.63352128304541">
        <ele>96.4</ele>
        <time>2021-03-20T01:46:17</time>
      </trkpt>
      <trkpt lat="41.1987393535674" lon="-8.63352279178798">
        <ele>96.8</ele>
        <time>2021-03-20T01:46:18</time>
      </trkpt>
      <trkpt lat="41.1986681912094" lon="-8.63352899439633">
        <ele>97</ele>
        <time>2021-03-20T01:46:20</time>
      </trkpt>
      <trkpt lat="41.1985319014639" lon="-8.63353880122304">
        <ele>97.4</ele>
        <time>2021-03-20T01:46:21</time>
      </trkpt>
      <trkpt lat="41.1984775867313" lon="-8.6335426568985">
        <ele>97.8</ele>
        <time>2021-03-20T01:46:23</time>
      </trkpt>
      <trkpt lat="41.198342051357" lon="-8.63354299217462">
        <ele>98.2</ele>
        <time>2021-03-20T01:46:25</time>
      </trkpt>
      <trkpt lat="41.1982161551714" lon="-8.63355648703873">
        <ele>98.4</ele>
        <time>2021-03-20T01:46:27</time>
      </trkpt>
      <trkpt lat="41.1981081962585" lon="-8.63356981426478">
        <ele>99</ele>
        <time>2021-03-20T01:46:29</time>
      </trkpt>
      <trkpt lat="41.1979768518358" lon="-8.63357501104474">
        <ele>99.6</ele>
        <time>2021-03-20T01:46:31</time>
      </trkpt>
      <trkpt lat="41.197863696143" lon="-8.6335841473192">
        <ele>99.8</ele>
        <time>2021-03-20T01:46:32</time>
      </trkpt>
      <trkpt lat="41.1978077050298" lon="-8.63359495997429">
        <ele>100</ele>
        <time>2021-03-20T01:46:34</time>
      </trkpt>
      <trkpt lat="41.1977073736489" lon="-8.63363477401435">
        <ele>100.2</ele>
        <time>2021-03-20T01:46:35</time>
      </trkpt>
      <trkpt lat="41.1976532265544" lon="-8.63365245983004">
        <ele>100.4</ele>
        <time>2021-03-20T01:46:37</time>
      </trkpt>
      <trkpt lat="41.1975673958659" lon="-8.63369730301201">
        <ele>101</ele>
        <time>2021-03-20T01:46:38</time>
      </trkpt>
      <trkpt lat="41.1974684055895" lon="-8.63369076512754">
        <ele>101.2</ele>
        <time>2021-03-20T01:46:40</time>
      </trkpt>
      <trkpt lat="41.1973531544208" lon="-8.63366947509348">
        <ele>101.4</ele>
        <time>2021-03-20T01:46:41</time>
      </trkpt>
      <trkpt lat="41.1972922179848" lon="-8.63365648314357">
        <ele>101.8</ele>
        <time>2021-03-20T01:46:43</time>
      </trkpt>
      <trkpt lat="41.1971821635962" lon="-8.63366620615125">
        <ele>102.2</ele>
        <time>2021-03-20T01:46:44</time>
      </trkpt>
      <trkpt lat="41.1971293576062" lon="-8.63367500714958">
        <ele>102.4</ele>
        <time>2021-03-20T01:46:46</time>
      </trkpt>
      <trkpt lat="41.1969866976142" lon="-8.63364516757429">
        <ele>103</ele>
        <time>2021-03-20T01:46:48</time>
      </trkpt>
      <trkpt lat="41.196875218302" lon="-8.63364977762103">
        <ele>103</ele>
        <time>2021-03-20T01:46:49</time>
      </trkpt>
      <trkpt lat="41.1968315485865" lon="-8.63365614786744">
        <ele>103.2</ele>
        <time>2021-03-20T01:46:50</time>
      </trkpt>
      <trkpt lat="41.1967885494232" lon="-8.63367299549282">
        <ele>103.4</ele>
        <time>2021-03-20T01:46:51</time>
      </trkpt>
      <trkpt lat="41.1967401858419" lon="-8.63369897939265">
        <ele>103.4</ele>
        <time>2021-03-20T01:46:52</time>
      </trkpt>
      <trkpt lat="41.1966898944229" lon="-8.63370769657195">
        <ele>103.8</ele>
        <time>2021-03-20T01:46:53</time>
      </trkpt>
      <trkpt lat="41.1966463923454" lon="-8.6337136477232">
        <ele>104</ele>
        <time>2021-03-20T01:46:55</time>
      </trkpt>
      <trkpt lat="41.1965453904122" lon="-8.63370300270617">
        <ele>104.2</ele>
        <time>2021-03-20T01:46:56</time>
      </trkpt>
      <trkpt lat="41.1965035647154" lon="-8.63370300270617">
        <ele>104.4</ele>
        <time>2021-03-20T01:46:58</time>
      </trkpt>
      <trkpt lat="41.1964224278927" lon="-8.6337065231055">
        <ele>104.8</ele>
        <time>2021-03-20T01:47:00</time>
      </trkpt>
      <trkpt lat="41.196259399876" lon="-8.63371096551418">
        <ele>104.8</ele>
        <time>2021-03-20T01:47:02</time>
      </trkpt>
      <trkpt lat="41.1962164007127" lon="-8.63370166160166">
        <ele>105</ele>
        <time>2021-03-20T01:47:03</time>
      </trkpt>
      <trkpt lat="41.1961920931935" lon="-8.63370476290584">
        <ele>105.2</ele>
        <time>2021-03-20T01:47:04</time>
      </trkpt>
      <trkpt lat="41.1961451545358" lon="-8.63371901214123">
        <ele>105.2</ele>
        <time>2021-03-20T01:47:05</time>
      </trkpt>
      <trkpt lat="41.1960936896503" lon="-8.63372077234089">
        <ele>105.6</ele>
        <time>2021-03-20T01:47:06</time>
      </trkpt>
      <trkpt lat="41.1960545461625" lon="-8.63373074680567">
        <ele>105.8</ele>
        <time>2021-03-20T01:47:07</time>
      </trkpt>
      <trkpt lat="41.196002913639" lon="-8.63372831605375">
        <ele>106</ele>
        <time>2021-03-20T01:47:08</time>
      </trkpt>
      <trkpt lat="41.1959636025131" lon="-8.63369369879365">
        <ele>106</ele>
        <time>2021-03-20T01:47:09</time>
      </trkpt>
      <trkpt lat="41.1959096230566" lon="-8.63369897939265">
        <ele>106.2</ele>
        <time>2021-03-20T01:47:10</time>
      </trkpt>
      <trkpt lat="41.195870898664" lon="-8.6337118037045">
        <ele>106</ele>
        <time>2021-03-20T01:47:11</time>
      </trkpt>
      <trkpt lat="41.195826055482" lon="-8.63369571045041">
        <ele>106.4</ele>
        <time>2021-03-20T01:47:12</time>
      </trkpt>
      <trkpt lat="41.1957938689738" lon="-8.63370819948614">
        <ele>106.8</ele>
        <time>2021-03-20T01:47:13</time>
      </trkpt>
      <trkpt lat="41.1957528814673" lon="-8.63373996689916">
        <ele>106.8</ele>
        <time>2021-03-20T01:47:14</time>
      </trkpt>
      <trkpt lat="41.1957056913525" lon="-8.6337514501065">
        <ele>106.8</ele>
        <time>2021-03-20T01:47:15</time>
      </trkpt>
      <trkpt lat="41.1955523863435" lon="-8.63373728469014">
        <ele>107</ele>
        <time>2021-03-20T01:47:16</time>
      </trkpt>
      <trkpt lat="41.1954584252089" lon="-8.63370878621936">
        <ele>107.2</ele>
        <time>2021-03-20T01:47:17</time>
      </trkpt>
      <trkpt lat="41.1953990813345" lon="-8.63372119143605">
        <ele>107.4</ele>
        <time>2021-03-20T01:47:18</time>
      </trkpt>
      <trkpt lat="41.1953621171415" lon="-8.63375446759164">
        <ele>107.6</ele>
        <time>2021-03-20T01:47:19</time>
      </trkpt>
      <trkpt lat="41.1953146755695" lon="-8.63375178538263">
        <ele>107.8</ele>
        <time>2021-03-20T01:47:20</time>
      </trkpt>
      <trkpt lat="41.1952795553952" lon="-8.63375999964774">
        <ele>108.4</ele>
        <time>2021-03-20T01:47:21</time>
      </trkpt>
      <trkpt lat="41.1952333711088" lon="-8.63377198576927">
        <ele>108.4</ele>
        <time>2021-03-20T01:47:22</time>
      </trkpt>
      <trkpt lat="41.195202190429" lon="-8.63379579037428">
        <ele>108.6</ele>
        <time>2021-03-20T01:47:23</time>
      </trkpt>
      <trkpt lat="41.1951618734747" lon="-8.63379931077361">
        <ele>109</ele>
        <time>2021-03-20T01:47:24</time>
      </trkpt>
      <trkpt lat="41.1950638890266" lon="-8.63376075401902">
        <ele>109.2</ele>
        <time>2021-03-20T01:47:25</time>
      </trkpt>
      <trkpt lat="41.1950461193919" lon="-8.63384725525975">
        <ele>109.4</ele>
        <time>2021-03-20T01:47:26</time>
      </trkpt>
      <trkpt lat="41.194937909022" lon="-8.63386267796159">
        <ele>109.6</ele>
        <time>2021-03-20T01:47:27</time>
      </trkpt>
      <trkpt lat="41.1949441954494" lon="-8.63393031992018">
        <ele>109.8</ele>
        <time>2021-03-20T01:47:28</time>
      </trkpt>
      <trkpt lat="41.1948786489666" lon="-8.63389100879431">
        <ele>110</ele>
        <time>2021-03-20T01:47:29</time>
      </trkpt>
      <trkpt lat="41.1948374100029" lon="-8.63387097604573">
        <ele>110.2</ele>
        <time>2021-03-20T01:47:30</time>
      </trkpt>
      <trkpt lat="41.1947949137539" lon="-8.63387022167444">
        <ele>110.6</ele>
        <time>2021-03-20T01:47:31</time>
      </trkpt>
      <trkpt lat="41.1947251763195" lon="-8.63388480618596">
        <ele>110.8</ele>
        <time>2021-03-20T01:47:32</time>
      </trkpt>
      <trkpt lat="41.1946452129632" lon="-8.63387298770249">
        <ele>111.2</ele>
        <time>2021-03-20T01:47:33</time>
      </trkpt>
      <trkpt lat="41.1945418640971" lon="-8.63380014896393">
        <ele>111.8</ele>
        <time>2021-03-20T01:47:34</time>
      </trkpt>
      <trkpt lat="41.1944790836424" lon="-8.63375019282103">
        <ele>112</ele>
        <time>2021-03-20T01:47:35</time>
      </trkpt>
      <trkpt lat="41.1944101005793" lon="-8.63368581980467">
        <ele>112.2</ele>
        <time>2021-03-20T01:47:36</time>
      </trkpt>
      <trkpt lat="41.1943631619215" lon="-8.63372982479632">
        <ele>112.4</ele>
        <time>2021-03-20T01:47:37</time>
      </trkpt>
      <trkpt lat="41.1943030636758" lon="-8.63375321030617">
        <ele>112.6</ele>
        <time>2021-03-20T01:47:38</time>
      </trkpt>
      <trkpt lat="41.1942241899669" lon="-8.63374466076493">
        <ele>112.8</ele>
        <time>2021-03-20T01:47:39</time>
      </trkpt>
      <trkpt lat="41.1941746529192" lon="-8.63375597633421">
        <ele>113</ele>
        <time>2021-03-20T01:47:40</time>
      </trkpt>
      <trkpt lat="41.1941091064364" lon="-8.63374030217528">
        <ele>113.6</ele>
        <time>2021-03-20T01:47:41</time>
      </trkpt>
      <trkpt lat="41.194036854431" lon="-8.63371415063739">
        <ele>113.8</ele>
        <time>2021-03-20T01:47:42</time>
      </trkpt>
      <trkpt lat="41.1939741577953" lon="-8.63371448591352">
        <ele>114.2</ele>
        <time>2021-03-20T01:47:43</time>
      </trkpt>
      <trkpt lat="41.1938926856965" lon="-8.6336827185005">
        <ele>114.6</ele>
        <time>2021-03-20T01:47:44</time>
      </trkpt>
      <trkpt lat="41.1938625946641" lon="-8.63370618782938">
        <ele>114.8</ele>
        <time>2021-03-20T01:47:45</time>
      </trkpt>
      <trkpt lat="41.1937870737165" lon="-8.63365380093455">
        <ele>114.8</ele>
        <time>2021-03-20T01:47:46</time>
      </trkpt>
      <trkpt lat="41.1937311664224" lon="-8.63364231772721">
        <ele>115</ele>
        <time>2021-03-20T01:47:47</time>
      </trkpt>
      <trkpt lat="41.1936735827476" lon="-8.63364852033556">
        <ele>115.2</ele>
        <time>2021-03-20T01:47:48</time>
      </trkpt>
      <trkpt lat="41.1936140712351" lon="-8.63365296274424">
        <ele>115.4</ele>
        <time>2021-03-20T01:47:49</time>
      </trkpt>
      <trkpt lat="41.1935711558908" lon="-8.63367944955826">
        <ele>115.4</ele>
        <time>2021-03-20T01:47:50</time>
      </trkpt>
      <trkpt lat="41.1934866663069" lon="-8.63368581980467">
        <ele>115.6</ele>
        <time>2021-03-20T01:47:51</time>
      </trkpt>
      <trkpt lat="41.1934300884604" lon="-8.63370350562036">
        <ele>115.8</ele>
        <time>2021-03-20T01:47:52</time>
      </trkpt>
      <trkpt lat="41.1933879274875" lon="-8.63373728469014">
        <ele>115.6</ele>
        <time>2021-03-20T01:47:53</time>
      </trkpt>
      <trkpt lat="41.1933451797813" lon="-8.63377969712019">
        <ele>115.8</ele>
        <time>2021-03-20T01:47:54</time>
      </trkpt>
      <trkpt lat="41.1932989116758" lon="-8.63377768546343">
        <ele>115.8</ele>
        <time>2021-03-20T01:47:55</time>
      </trkpt>
      <trkpt lat="41.1932476144284" lon="-8.63378397189081">
        <ele>116.2</ele>
        <time>2021-03-20T01:47:56</time>
      </trkpt>
      <trkpt lat="41.1931873485446" lon="-8.63374499604106">
        <ele>116.2</ele>
        <time>2021-03-20T01:47:57</time>
      </trkpt>
      <trkpt lat="41.1931425891817" lon="-8.63374566659331">
        <ele>116.4</ele>
        <time>2021-03-20T01:47:58</time>
      </trkpt>
      <trkpt lat="41.1930953990668" lon="-8.63372177816928">
        <ele>116.4</ele>
        <time>2021-03-20T01:47:59</time>
      </trkpt>
      <trkpt lat="41.1930652242154" lon="-8.6337258014828">
        <ele>116.2</ele>
        <time>2021-03-20T01:48:00</time>
      </trkpt>
      <trkpt lat="41.1930021084845" lon="-8.63368799909949">
        <ele>116</ele>
        <time>2021-03-20T01:48:01</time>
      </trkpt>
      <trkpt lat="41.192969167605" lon="-8.63369495607912">
        <ele>115.8</ele>
        <time>2021-03-20T01:48:02</time>
      </trkpt>
      <trkpt lat="41.192955924198" lon="-8.63371876068413">
        <ele>116</ele>
        <time>2021-03-20T01:48:03</time>
      </trkpt>
      <trkpt lat="41.1929094046354" lon="-8.63369680009782">
        <ele>116</ele>
        <time>2021-03-20T01:48:04</time>
      </trkpt>
      <trkpt lat="41.1928661540151" lon="-8.63370576873422">
        <ele>115.8</ele>
        <time>2021-03-20T01:48:05</time>
      </trkpt>
      <trkpt lat="41.192834386602" lon="-8.63370082341134">
        <ele>115.8</ele>
        <time>2021-03-20T01:48:06</time>
      </trkpt>
      <trkpt lat="41.1928340513259" lon="-8.63376997411251">
        <ele>115.8</ele>
        <time>2021-03-20T01:48:07</time>
      </trkpt>
      <trkpt lat="41.1927961651236" lon="-8.63375077955425">
        <ele>116</ele>
        <time>2021-03-20T01:48:08</time>
      </trkpt>
      <trkpt lat="41.1927156150341" lon="-8.63366922363639">
        <ele>116</ele>
        <time>2021-03-20T01:48:09</time>
      </trkpt>
      <trkpt lat="41.1926477216184" lon="-8.63361625000834">
        <ele>116.2</ele>
        <time>2021-03-20T01:48:10</time>
      </trkpt>
      <trkpt lat="41.1925881262869" lon="-8.63357844762504">
        <ele>116</ele>
        <time>2021-03-20T01:48:11</time>
      </trkpt>
      <trkpt lat="41.192524926737" lon="-8.63357274793088">
        <ele>116.4</ele>
        <time>2021-03-20T01:48:12</time>
      </trkpt>
      <trkpt lat="41.1924940813333" lon="-8.63357501104474">
        <ele>116.6</ele>
        <time>2021-03-20T01:48:13</time>
      </trkpt>
      <trkpt lat="41.1924081668258" lon="-8.63353494554758">
        <ele>116.6</ele>
        <time>2021-03-20T01:48:14</time>
      </trkpt>
      <trkpt lat="41.1923553608358" lon="-8.63354466855526">
        <ele>116.6</ele>
        <time>2021-03-20T01:48:15</time>
      </trkpt>
      <trkpt lat="41.1922801751643" lon="-8.6335011664778">
        <ele>116.4</ele>
        <time>2021-03-20T01:48:16</time>
      </trkpt>
      <trkpt lat="41.1922201607376" lon="-8.6334681417793">
        <ele>116.6</ele>
        <time>2021-03-20T01:48:17</time>
      </trkpt>
      <trkpt lat="41.1921771615744" lon="-8.6334839835763">
        <ele>116.6</ele>
        <time>2021-03-20T01:48:18</time>
      </trkpt>
      <trkpt lat="41.1920945998281" lon="-8.63339245319366">
        <ele>116.2</ele>
        <time>2021-03-20T01:48:19</time>
      </trkpt>
      <trkpt lat="41.1920336633921" lon="-8.63338625058532">
        <ele>116</ele>
        <time>2021-03-20T01:48:20</time>
      </trkpt>
      <trkpt lat="41.1919641774148" lon="-8.63331517204642">
        <ele>115.8</ele>
        <time>2021-03-20T01:48:21</time>
      </trkpt>
      <trkpt lat="41.1918769218028" lon="-8.63325901329517">
        <ele>115.8</ele>
        <time>2021-03-20T01:48:22</time>
      </trkpt>
      <trkpt lat="41.1918305698782" lon="-8.63324820064008">
        <ele>115.6</ele>
        <time>2021-03-20T01:48:23</time>
      </trkpt>
      <trkpt lat="41.191779691726" lon="-8.63330779597163">
        <ele>115.8</ele>
        <time>2021-03-20T01:48:24</time>
      </trkpt>
      <trkpt lat="41.1917698848993" lon="-8.633340485394">
        <ele>115.4</ele>
        <time>2021-03-20T01:48:25</time>
      </trkpt>
      <trkpt lat="41.1917301546782" lon="-8.63337744958699">
        <ele>115.4</ele>
        <time>2021-03-20T01:48:26</time>
      </trkpt>
      <trkpt lat="41.1916933581233" lon="-8.63336001522839">
        <ele>115</ele>
        <time>2021-03-20T01:48:27</time>
      </trkpt>
      <trkpt lat="41.1916206870228" lon="-8.63332179374993">
        <ele>114.6</ele>
        <time>2021-03-20T01:48:28</time>
      </trkpt>
      <trkpt lat="41.1915599182248" lon="-8.63336169160902">
        <ele>114.2</ele>
        <time>2021-03-20T01:48:29</time>
      </trkpt>
      <trkpt lat="41.1914963833988" lon="-8.63334501162171">
        <ele>114.2</ele>
        <time>2021-03-20T01:48:30</time>
      </trkpt>
      <trkpt lat="41.1914356146008" lon="-8.63332397304475">
        <ele>114.2</ele>
        <time>2021-03-20T01:48:31</time>
      </trkpt>
      <trkpt lat="41.1913575790822" lon="-8.63331366330385">
        <ele>114.2</ele>
        <time>2021-03-20T01:48:32</time>
      </trkpt>
      <trkpt lat="41.191288176924" lon="-8.6333129927516">
        <ele>114</ele>
        <time>2021-03-20T01:48:33</time>
      </trkpt>
      <trkpt lat="41.1912181880325" lon="-8.63330150954425">
        <ele>114</ele>
        <time>2021-03-20T01:48:34</time>
      </trkpt>
      <trkpt lat="41.191132189706" lon="-8.63321567885578">
        <ele>114</ele>
        <time>2021-03-20T01:48:35</time>
      </trkpt>
      <trkpt lat="41.1910478677601" lon="-8.63317879848182">
        <ele>114</ele>
        <time>2021-03-20T01:48:36</time>
      </trkpt>
      <trkpt lat="41.1909588519484" lon="-8.63313521258533">
        <ele>113.8</ele>
        <time>2021-03-20T01:48:37</time>
      </trkpt>
      <trkpt lat="41.1908606160432" lon="-8.63309699110687">
        <ele>113.4</ele>
        <time>2021-03-20T01:48:38</time>
      </trkpt>
      <trkpt lat="41.1906886193901" lon="-8.6330296844244">
        <ele>113.2</ele>
        <time>2021-03-20T01:48:39</time>
      </trkpt>
      <trkpt lat="41.1906762141734" lon="-8.6330851726234">
        <ele>113.2</ele>
        <time>2021-03-20T01:48:40</time>
      </trkpt>
      <trkpt lat="41.1906105838716" lon="-8.63308668136597">
        <ele>113.2</ele>
        <time>2021-03-20T01:48:41</time>
      </trkpt>
      <trkpt lat="41.1905696801841" lon="-8.6330674868077">
        <ele>113</ele>
        <time>2021-03-20T01:48:42</time>
      </trkpt>
      <trkpt lat="41.190455602482" lon="-8.63301794975996">
        <ele>112.8</ele>
        <time>2021-03-20T01:48:43</time>
      </trkpt>
      <trkpt lat="41.1903623957187" lon="-8.63297268748284">
        <ele>112.4</ele>
        <time>2021-03-20T01:48:44</time>
      </trkpt>
      <trkpt lat="41.1902612261474" lon="-8.6329329572618">
        <ele>112.4</ele>
        <time>2021-03-20T01:48:45</time>
      </trkpt>
      <trkpt lat="41.1901818495244" lon="-8.63292021676898">
        <ele>112.4</ele>
        <time>2021-03-20T01:48:46</time>
      </trkpt>
      <trkpt lat="41.1900877207518" lon="-8.63290965557098">
        <ele>112.4</ele>
        <time>2021-03-20T01:48:47</time>
      </trkpt>
      <trkpt lat="41.1900108586997" lon="-8.63290881738067">
        <ele>111.8</ele>
        <time>2021-03-20T01:48:48</time>
      </trkpt>
      <trkpt lat="41.1899541132152" lon="-8.63288316875696">
        <ele>111.8</ele>
        <time>2021-03-20T01:48:49</time>
      </trkpt>
      <trkpt lat="41.1898929253221" lon="-8.63289096392691">
        <ele>112</ele>
        <time>2021-03-20T01:48:50</time>
      </trkpt>
      <trkpt lat="41.1898176558316" lon="-8.63288568332791">
        <ele>112</ele>
        <time>2021-03-20T01:48:51</time>
      </trkpt>
      <trkpt lat="41.1897496785969" lon="-8.63286120817065">
        <ele>111.8</ele>
        <time>2021-03-20T01:48:52</time>
      </trkpt>
      <trkpt lat="41.1897160671651" lon="-8.63285232335329">
        <ele>111.4</ele>
        <time>2021-03-20T01:48:53</time>
      </trkpt>
      <trkpt lat="41.1895710602403" lon="-8.63279750570655">
        <ele>111</ele>
        <time>2021-03-20T01:48:54</time>
      </trkpt>
      <trkpt lat="41.1894921027124" lon="-8.63276716321707">
        <ele>111</ele>
        <time>2021-03-20T01:48:55</time>
      </trkpt>
      <trkpt lat="41.1894161626697" lon="-8.63275450654328">
        <ele>111</ele>
        <time>2021-03-20T01:48:56</time>
      </trkpt>
      <trkpt lat="41.1893290746957" lon="-8.63271980546415">
        <ele>111</ele>
        <time>2021-03-20T01:48:58</time>
      </trkpt>
      <trkpt lat="41.1892667133361" lon="-8.63270899280906">
        <ele>111</ele>
        <time>2021-03-20T01:48:59</time>
      </trkpt>
      <trkpt lat="41.1891835648566" lon="-8.63264470361173">
        <ele>110.8</ele>
        <time>2021-03-20T01:49:00</time>
      </trkpt>
      <trkpt lat="41.1891398951411" lon="-8.63267194479704">
        <ele>110.8</ele>
        <time>2021-03-20T01:49:01</time>
      </trkpt>
      <trkpt lat="41.1890518851578" lon="-8.63260631449521">
        <ele>110.4</ele>
        <time>2021-03-20T01:49:02</time>
      </trkpt>
      <trkpt lat="41.1889935471118" lon="-8.63257647491992">
        <ele>110.4</ele>
        <time>2021-03-20T01:49:03</time>
      </trkpt>
      <trkpt lat="41.1889215465635" lon="-8.63255300559104">
        <ele>110</ele>
        <time>2021-03-20T01:49:04</time>
      </trkpt>
      <trkpt lat="41.1888451874256" lon="-8.63256365060806">
        <ele>109.8</ele>
        <time>2021-03-20T01:49:05</time>
      </trkpt>
      <trkpt lat="41.1887731030583" lon="-8.63255065865815">
        <ele>109.6</ele>
        <time>2021-03-20T01:49:06</time>
      </trkpt>
      <trkpt lat="41.1886866856366" lon="-8.6325217410922">
        <ele>109.6</ele>
        <time>2021-03-20T01:49:07</time>
      </trkpt>
      <trkpt lat="41.1886223964393" lon="-8.63250514492392">
        <ele>109.2</ele>
        <time>2021-03-20T01:49:08</time>
      </trkpt>
      <trkpt lat="41.188558191061" lon="-8.6324892193079">
        <ele>109</ele>
        <time>2021-03-20T01:49:09</time>
      </trkpt>
      <trkpt lat="41.1884881183505" lon="-8.63243624567986">
        <ele>108.8</ele>
        <time>2021-03-20T01:49:10</time>
      </trkpt>
      <trkpt lat="41.188394408673" lon="-8.6324186436832">
        <ele>108.6</ele>
        <time>2021-03-20T01:49:11</time>
      </trkpt>
      <trkpt lat="41.1883486434817" lon="-8.63242400810122">
        <ele>108.2</ele>
        <time>2021-03-20T01:49:12</time>
      </trkpt>
      <trkpt lat="41.1882529221475" lon="-8.63237924873829">
        <ele>108</ele>
        <time>2021-03-20T01:49:13</time>
      </trkpt>
      <trkpt lat="41.1881656665355" lon="-8.63235225901008">
        <ele>107.6</ele>
        <time>2021-03-20T01:49:14</time>
      </trkpt>
      <trkpt lat="41.1880853679031" lon="-8.63234429620206">
        <ele>107.2</ele>
        <time>2021-03-20T01:49:15</time>
      </trkpt>
      <trkpt lat="41.1880045663565" lon="-8.63228746689856">
        <ele>107.2</ele>
        <time>2021-03-20T01:49:16</time>
      </trkpt>
      <trkpt lat="41.1879461444914" lon="-8.63228796981275">
        <ele>107</ele>
        <time>2021-03-20T01:49:17</time>
      </trkpt>
      <trkpt lat="41.1878518480808" lon="-8.63224471919239">
        <ele>106.6</ele>
        <time>2021-03-20T01:49:18</time>
      </trkpt>
      <trkpt lat="41.1878059152514" lon="-8.63226232118904">
        <ele>106.2</ele>
        <time>2021-03-20T01:49:19</time>
      </trkpt>
      <trkpt lat="41.1877459008247" lon="-8.63228796981275">
        <ele>106</ele>
        <time>2021-03-20T01:49:20</time>
      </trkpt>
      <trkpt lat="41.1876518558711" lon="-8.63225125707686">
        <ele>105.8</ele>
        <time>2021-03-20T01:49:21</time>
      </trkpt>
      <trkpt lat="41.1875698808581" lon="-8.6322354990989">
        <ele>105.6</ele>
        <time>2021-03-20T01:49:22</time>
      </trkpt>
      <trkpt lat="41.1875140573829" lon="-8.63222870975733">
        <ele>105.4</ele>
        <time>2021-03-20T01:49:23</time>
      </trkpt>
      <trkpt lat="41.1874175816774" lon="-8.63220876082778">
        <ele>105</ele>
        <time>2021-03-20T01:49:24</time>
      </trkpt>
      <trkpt lat="41.1873278953135" lon="-8.63220297731459">
        <ele>104.6</ele>
        <time>2021-03-20T01:49:25</time>
      </trkpt>
      <trkpt lat="41.1872501950711" lon="-8.63218914717436">
        <ele>104</ele>
        <time>2021-03-20T01:49:26</time>
      </trkpt>
      <trkpt lat="41.1871818825603" lon="-8.63220297731459">
        <ele>103.8</ele>
        <time>2021-03-20T01:49:27</time>
      </trkpt>
      <trkpt lat="41.1870901845396" lon="-8.63217615522444">
        <ele>103.6</ele>
        <time>2021-03-20T01:49:28</time>
      </trkpt>
      <trkpt lat="41.187025392428" lon="-8.63221596926451">
        <ele>103.4</ele>
        <time>2021-03-20T01:49:29</time>
      </trkpt>
      <trkpt lat="41.1869456805289" lon="-8.63217649050057">
        <ele>103.2</ele>
        <time>2021-03-20T01:49:30</time>
      </trkpt>
      <trkpt lat="41.1868580896407" lon="-8.63216517493129">
        <ele>102.6</ele>
        <time>2021-03-20T01:49:31</time>
      </trkpt>
      <trkpt lat="41.1867576744407" lon="-8.63213198259473">
        <ele>102.6</ele>
        <time>2021-03-20T01:49:32</time>
      </trkpt>
      <trkpt lat="41.1866731010377" lon="-8.63210465759039">
        <ele>102.2</ele>
        <time>2021-03-20T01:49:33</time>
      </trkpt>
      <trkpt lat="41.1865650583059" lon="-8.6320679448545">
        <ele>102</ele>
        <time>2021-03-20T01:49:34</time>
      </trkpt>
      <trkpt lat="41.1864883638918" lon="-8.63206350244582">
        <ele>101.6</ele>
        <time>2021-03-20T01:49:35</time>
      </trkpt>
      <trkpt lat="41.1863866075873" lon="-8.63202125765383">
        <ele>101.4</ele>
        <time>2021-03-20T01:49:36</time>
      </trkpt>
      <trkpt lat="41.1863052193075" lon="-8.63201815634966">
        <ele>101.4</ele>
        <time>2021-03-20T01:49:37</time>
      </trkpt>
      <trkpt lat="41.1862156167626" lon="-8.63200114108622">
        <ele>100.8</ele>
        <time>2021-03-20T01:49:38</time>
      </trkpt>
      <trkpt lat="41.1861136928201" lon="-8.63197381608188">
        <ele>100.4</ele>
        <time>2021-03-20T01:49:39</time>
      </trkpt>
      <trkpt lat="41.1860298737884" lon="-8.63196350634098">
        <ele>100.2</ele>
        <time>2021-03-20T01:49:40</time>
      </trkpt>
      <trkpt lat="41.185896685347" lon="-8.63182151690126">
        <ele>100</ele>
        <time>2021-03-20T01:49:41</time>
      </trkpt>
      <trkpt lat="41.1858050711453" lon="-8.63183869980276">
        <ele>100</ele>
        <time>2021-03-20T01:49:42</time>
      </trkpt>
      <trkpt lat="41.1857251916081" lon="-8.63184649497271">
        <ele>99.4</ele>
        <time>2021-03-20T01:49:43</time>
      </trkpt>
      <trkpt lat="41.1856288835406" lon="-8.63183048553765">
        <ele>99.4</ele>
        <time>2021-03-20T01:49:44</time>
      </trkpt>
      <trkpt lat="41.1855355929583" lon="-8.63180575892329">
        <ele>99.6</ele>
        <time>2021-03-20T01:49:45</time>
      </trkpt>
      <trkpt lat="41.1854371894151" lon="-8.63178044557571">
        <ele>99.2</ele>
        <time>2021-03-20T01:49:46</time>
      </trkpt>
      <trkpt lat="41.1853591538966" lon="-8.63177449442446">
        <ele>98.6</ele>
        <time>2021-03-20T01:49:47</time>
      </trkpt>
      <trkpt lat="41.1852729041129" lon="-8.63176577724516">
        <ele>98.4</ele>
        <time>2021-03-20T01:49:48</time>
      </trkpt>
      <trkpt lat="41.1851710639894" lon="-8.63174071535468">
        <ele>98.2</ele>
        <time>2021-03-20T01:49:49</time>
      </trkpt>
      <trkpt lat="41.1850884184241" lon="-8.63173451274634">
        <ele>98</ele>
        <time>2021-03-20T01:49:50</time>
      </trkpt>
      <trkpt lat="41.1849985644221" lon="-8.63171582110226">
        <ele>98</ele>
        <time>2021-03-20T01:49:51</time>
      </trkpt>
      <trkpt lat="41.1849026754498" lon="-8.63168371841311">
        <ele>97.8</ele>
        <time>2021-03-20T01:49:52</time>
      </trkpt>
      <trkpt lat="41.184810642153" lon="-8.63165429793298">
        <ele>97.8</ele>
        <time>2021-03-20T01:49:53</time>
      </trkpt>
      <trkpt lat="41.1847196985036" lon="-8.63162647001445">
        <ele>97.6</ele>
        <time>2021-03-20T01:49:54</time>
      </trkpt>
      <trkpt lat="41.1846323590726" lon="-8.63160115666688">
        <ele>97.4</ele>
        <time>2021-03-20T01:49:55</time>
      </trkpt>
      <trkpt lat="41.1845443490893" lon="-8.6315827164799">
        <ele>97.2</ele>
        <time>2021-03-20T01:49:56</time>
      </trkpt>
      <trkpt lat="41.1844443529844" lon="-8.63155170343816">
        <ele>97.2</ele>
        <time>2021-03-20T01:49:57</time>
      </trkpt>
      <trkpt lat="41.1843607015908" lon="-8.6315359454602">
        <ele>97</ele>
        <time>2021-03-20T01:49:58</time>
      </trkpt>
      <trkpt lat="41.184290042147" lon="-8.63153695128858">
        <ele>97</ele>
        <time>2021-03-20T01:49:59</time>
      </trkpt>
      <trkpt lat="41.1842183768749" lon="-8.63152831792831">
        <ele>97</ele>
        <time>2021-03-20T01:50:00</time>
      </trkpt>
      <trkpt lat="41.184155093506" lon="-8.63151297904551">
        <ele>96.6</ele>
        <time>2021-03-20T01:50:01</time>
      </trkpt>
      <trkpt lat="41.1840918939561" lon="-8.63150124438107">
        <ele>96.2</ele>
        <time>2021-03-20T01:50:02</time>
      </trkpt>
      <trkpt lat="41.1840110924095" lon="-8.63149219192564">
        <ele>96.2</ele>
        <time>2021-03-20T01:50:03</time>
      </trkpt>
      <trkpt lat="41.1839271895587" lon="-8.63148875534534">
        <ele>96.2</ele>
        <time>2021-03-20T01:50:04</time>
      </trkpt>
      <trkpt lat="41.1838371679187" lon="-8.63146117888391">
        <ele>96.2</ele>
        <time>2021-03-20T01:50:05</time>
      </trkpt>
      <trkpt lat="41.1837523430586" lon="-8.63144030794501">
        <ele>96.2</ele>
        <time>2021-03-20T01:50:06</time>
      </trkpt>
      <trkpt lat="41.1836600583047" lon="-8.63141030073166">
        <ele>96</ele>
        <time>2021-03-20T01:50:07</time>
      </trkpt>
      <trkpt lat="41.1835775803775" lon="-8.63138331100345">
        <ele>95.8</ele>
        <time>2021-03-20T01:50:08</time>
      </trkpt>
      <trkpt lat="41.1834915820509" lon="-8.63134928047657">
        <ele>95.6</ele>
        <time>2021-03-20T01:50:09</time>
      </trkpt>
      <trkpt lat="41.1834030691534" lon="-8.63132195547223">
        <ele>95.4</ele>
        <time>2021-03-20T01:50:10</time>
      </trkpt>
      <trkpt lat="41.1833220999688" lon="-8.63128918223083">
        <ele>95.2</ele>
        <time>2021-03-20T01:50:11</time>
      </trkpt>
      <trkpt lat="41.1832449026406" lon="-8.63125297240913">
        <ele>95</ele>
        <time>2021-03-20T01:50:12</time>
      </trkpt>
      <trkpt lat="41.1831606645137" lon="-8.63121718168259">
        <ele>94.6</ele>
        <time>2021-03-20T01:50:13</time>
      </trkpt>
      <trkpt lat="41.1830766778439" lon="-8.63118097186089">
        <ele>94.8</ele>
        <time>2021-03-20T01:50:14</time>
      </trkpt>
      <trkpt lat="41.1829875782132" lon="-8.63113830797374">
        <ele>94.4</ele>
        <time>2021-03-20T01:50:15</time>
      </trkpt>
      <trkpt lat="41.1828975565732" lon="-8.63110419362784">
        <ele>94.2</ele>
        <time>2021-03-20T01:50:16</time>
      </trkpt>
      <trkpt lat="41.1828095465898" lon="-8.6310663074255">
        <ele>94</ele>
        <time>2021-03-20T01:50:17</time>
      </trkpt>
      <trkpt lat="41.1827341932803" lon="-8.6310266610235">
        <ele>94</ele>
        <time>2021-03-20T01:50:18</time>
      </trkpt>
      <trkpt lat="41.1826662160456" lon="-8.63099564798176">
        <ele>93.8</ele>
        <time>2021-03-20T01:50:19</time>
      </trkpt>
      <trkpt lat="41.1825738474727" lon="-8.63094745203853">
        <ele>93.4</ele>
        <time>2021-03-20T01:50:20</time>
      </trkpt>
      <trkpt lat="41.1824846640229" lon="-8.63090529106557">
        <ele>93.4</ele>
        <time>2021-03-20T01:50:21</time>
      </trkpt>
      <trkpt lat="41.1823829077184" lon="-8.63086849451065">
        <ele>93.4</ele>
        <time>2021-03-20T01:50:22</time>
      </trkpt>
      <trkpt lat="41.1823171097785" lon="-8.63084577955306">
        <ele>93.2</ele>
        <time>2021-03-20T01:50:23</time>
      </trkpt>
      <trkpt lat="41.1822308599949" lon="-8.63081929273904">
        <ele>93</ele>
        <time>2021-03-20T01:50:24</time>
      </trkpt>
      <trkpt lat="41.1821241583675" lon="-8.63074419088662">
        <ele>93</ele>
        <time>2021-03-20T01:50:25</time>
      </trkpt>
      <trkpt lat="41.1820322088897" lon="-8.63070831634104">
        <ele>93</ele>
        <time>2021-03-20T01:50:26</time>
      </trkpt>
      <trkpt lat="41.1819651536644" lon="-8.63068501465022">
        <ele>93</ele>
        <time>2021-03-20T01:50:27</time>
      </trkpt>
      <trkpt lat="41.1818900518119" lon="-8.6306587792933">
        <ele>92.8</ele>
        <time>2021-03-20T01:50:28</time>
      </trkpt>
      <trkpt lat="41.1817828472704" lon="-8.63061494193971">
        <ele>92.8</ele>
        <time>2021-03-20T01:50:29</time>
      </trkpt>
      <trkpt lat="41.18168938905" lon="-8.63058501854539">
        <ele>92.8</ele>
        <time>2021-03-20T01:50:30</time>
      </trkpt>
      <trkpt lat="41.1814676877111" lon="-8.63050027750432">
        <ele>92.8</ele>
        <time>2021-03-20T01:50:31</time>
      </trkpt>
      <trkpt lat="41.181382862851" lon="-8.63049130886793">
        <ele>92.8</ele>
        <time>2021-03-20T01:50:32</time>
      </trkpt>
      <trkpt lat="41.1812833696604" lon="-8.63047429360449">
        <ele>92.8</ele>
        <time>2021-03-20T01:50:33</time>
      </trkpt>
      <trkpt lat="41.1812205892056" lon="-8.63042316399515">
        <ele>93</ele>
        <time>2021-03-20T01:50:34</time>
      </trkpt>
      <trkpt lat="41.1811583954841" lon="-8.63038728944957">
        <ele>93</ele>
        <time>2021-03-20T01:50:35</time>
      </trkpt>
      <trkpt lat="41.1810386180878" lon="-8.63031671382487">
        <ele>93.2</ele>
        <time>2021-03-20T01:50:36</time>
      </trkpt>
      <trkpt lat="41.1809262167662" lon="-8.63023297861218">
        <ele>93.4</ele>
        <time>2021-03-20T01:50:37</time>
      </trkpt>
      <trkpt lat="41.1808481812477" lon="-8.63021495752036">
        <ele>93.4</ele>
        <time>2021-03-20T01:50:38</time>
      </trkpt>
      <trkpt lat="41.180788166821" lon="-8.63020431250334">
        <ele>93.6</ele>
        <time>2021-03-20T01:50:39</time>
      </trkpt>
      <trkpt lat="41.180656068027" lon="-8.63008730113506">
        <ele>93.8</ele>
        <time>2021-03-20T01:50:40</time>
      </trkpt>
      <trkpt lat="41.1805426608771" lon="-8.62996743991971">
        <ele>93.8</ele>
        <time>2021-03-20T01:50:41</time>
      </trkpt>
      <trkpt lat="41.1804751865566" lon="-8.62997070886195">
        <ele>94.2</ele>
        <time>2021-03-20T01:50:42</time>
      </trkpt>
      <trkpt lat="41.1803788784891" lon="-8.62988026812673">
        <ele>94.4</ele>
        <time>2021-03-20T01:50:43</time>
      </trkpt>
      <trkpt lat="41.1803380586207" lon="-8.62989921122789">
        <ele>94.4</ele>
        <time>2021-03-20T01:50:44</time>
      </trkpt>
      <trkpt lat="41.1802381463349" lon="-8.62983047962189">
        <ele>94.4</ele>
        <time>2021-03-20T01:50:45</time>
      </trkpt>
      <trkpt lat="41.1801868490875" lon="-8.62980902194977">
        <ele>94.6</ele>
        <time>2021-03-20T01:50:46</time>
      </trkpt>
      <trkpt lat="41.1801293492317" lon="-8.629793766886">
        <ele>95</ele>
        <time>2021-03-20T01:50:47</time>
      </trkpt>
      <trkpt lat="41.1800311971456" lon="-8.62972947768867">
        <ele>95.6</ele>
        <time>2021-03-20T01:50:48</time>
      </trkpt>
      <trkpt lat="41.179847382009" lon="-8.62960928119719">
        <ele>96.2</ele>
        <time>2021-03-20T01:50:49</time>
      </trkpt>
      <trkpt lat="41.1797253414988" lon="-8.62945647910237">
        <ele>96.2</ele>
        <time>2021-03-20T01:50:50</time>
      </trkpt>
      <trkpt lat="41.1796816717833" lon="-8.6294517852366">
        <ele>96.2</ele>
        <time>2021-03-20T01:50:51</time>
      </trkpt>
      <trkpt lat="41.1796317156404" lon="-8.62945815548301">
        <ele>96.2</ele>
        <time>2021-03-20T01:50:52</time>
      </trkpt>
      <trkpt lat="41.1796032171696" lon="-8.62944516353309">
        <ele>96.2</ele>
        <time>2021-03-20T01:50:53</time>
      </trkpt>
      <trkpt lat="41.1796116828918" lon="-8.62952378578484">
        <ele>96.2</ele>
        <time>2021-03-20T01:50:54</time>
      </trkpt>
      <trkpt lat="41.1796133592725" lon="-8.62955546937883">
        <ele>96.2</ele>
        <time>2021-03-20T01:50:55</time>
      </trkpt>
      <trkpt lat="41.1796011216938" lon="-8.62957625649869">
        <ele>96.4</ele>
        <time>2021-03-20T01:50:56</time>
      </trkpt>
      <trkpt lat="41.1795872077346" lon="-8.6295760050416">
        <ele>96.4</ele>
        <time>2021-03-20T01:50:57</time>
      </trkpt>
      <trkpt lat="41.1796028818935" lon="-8.62962394952774">
        <ele>96.4</ele>
        <time>2021-03-20T01:50:58</time>
      </trkpt>
      <trkpt lat="41.179588213563" lon="-8.629579693079">
        <ele>96.4</ele>
        <time>2021-03-20T01:50:59</time>
      </trkpt>
      <trkpt lat="41.1796074081212" lon="-8.62965630367398">
        <ele>96.4</ele>
        <time>2021-03-20T01:51:00</time>
      </trkpt>
      <trkpt lat="41.179580418393" lon="-8.62961866892874">
        <ele>96.4</ele>
        <time>2021-03-20T01:51:01</time>
      </trkpt>
      <trkpt lat="41.1795825976878" lon="-8.62960626371205">
        <ele>96.4</ele>
        <time>2021-03-20T01:51:02</time>
      </trkpt>
      <trkpt lat="41.1795711982995" lon="-8.62954499199986">
        <ele>96.2</ele>
        <time>2021-03-20T01:51:03</time>
      </trkpt>
      <trkpt lat="41.1795868724585" lon="-8.62957726232708">
        <ele>96.2</ele>
        <time>2021-03-20T01:51:04</time>
      </trkpt>
      <trkpt lat="41.1795875430107" lon="-8.62957994453609">
        <ele>96.2</ele>
        <time>2021-03-20T01:51:05</time>
      </trkpt>
      <trkpt lat="41.1795794125646" lon="-8.6295760050416">
        <ele>96.2</ele>
        <time>2021-03-20T01:51:06</time>
      </trkpt>
      <trkpt lat="41.1795701086521" lon="-8.62960550934076">
        <ele>96</ele>
        <time>2021-03-20T01:51:07</time>
      </trkpt>
      <trkpt lat="41.1795393470675" lon="-8.62957399338484">
        <ele>96.2</ele>
        <time>2021-03-20T01:51:08</time>
      </trkpt>
      <trkpt lat="41.1795219127089" lon="-8.62961179576814">
        <ele>96.2</ele>
        <time>2021-03-20T01:51:09</time>
      </trkpt>
      <trkpt lat="41.179485199973" lon="-8.62959729507566">
        <ele>96.6</ele>
        <time>2021-03-20T01:51:10</time>
      </trkpt>
      <trkpt lat="41.179458880797" lon="-8.62955345772207">
        <ele>96.8</ele>
        <time>2021-03-20T01:51:11</time>
      </trkpt>
      <trkpt lat="41.1794505827129" lon="-8.62950601615012">
        <ele>96.8</ele>
        <time>2021-03-20T01:51:12</time>
      </trkpt>
      <trkpt lat="41.1794336512685" lon="-8.62943569198251">
        <ele>96.8</ele>
        <time>2021-03-20T01:51:13</time>
      </trkpt>
      <trkpt lat="41.1794276162982" lon="-8.62938246689737">
        <ele>97</ele>
        <time>2021-03-20T01:51:14</time>
      </trkpt>
      <trkpt lat="41.1794273648411" lon="-8.62932764925063">
        <ele>97.4</ele>
        <time>2021-03-20T01:51:15</time>
      </trkpt>
      <trkpt lat="41.1794176418334" lon="-8.62925430759788">
        <ele>97.8</ele>
        <time>2021-03-20T01:51:16</time>
      </trkpt>
      <trkpt lat="41.1794176418334" lon="-8.62920368090272">
        <ele>97.8</ele>
        <time>2021-03-20T01:51:17</time>
      </trkpt>
      <trkpt lat="41.1794137023389" lon="-8.62913696095347">
        <ele>98</ele>
        <time>2021-03-20T01:51:18</time>
      </trkpt>
      <trkpt lat="41.1794172227383" lon="-8.62907024100423">
        <ele>98.2</ele>
        <time>2021-03-20T01:51:19</time>
      </trkpt>
      <trkpt lat="41.1794158816338" lon="-8.62900645472109">
        <ele>98.2</ele>
        <time>2021-03-20T01:51:20</time>
      </trkpt>
      <trkpt lat="41.1794205754995" lon="-8.62895524129272">
        <ele>98.2</ele>
        <time>2021-03-20T01:51:21</time>
      </trkpt>
      <trkpt lat="41.1794167198241" lon="-8.62888131290674">
        <ele>98.2</ele>
        <time>2021-03-20T01:51:22</time>
      </trkpt>
      <trkpt lat="41.1794141214341" lon="-8.62881367094815">
        <ele>98.2</ele>
        <time>2021-03-20T01:51:23</time>
      </trkpt>
      <trkpt lat="41.179416384548" lon="-8.62874845974147">
        <ele>98.4</ele>
        <time>2021-03-20T01:51:24</time>
      </trkpt>
      <trkpt lat="41.1794195696712" lon="-8.62866966985166">
        <ele>98.6</ele>
        <time>2021-03-20T01:51:25</time>
      </trkpt>
      <trkpt lat="41.1794236768037" lon="-8.62859766930342">
        <ele>98.6</ele>
        <time>2021-03-20T01:51:26</time>
      </trkpt>
      <trkpt lat="41.1794248502702" lon="-8.62854494713247">
        <ele>98.8</ele>
        <time>2021-03-20T01:51:27</time>
      </trkpt>
      <trkpt lat="41.1794155463576" lon="-8.62845350056887">
        <ele>99</ele>
        <time>2021-03-20T01:51:28</time>
      </trkpt>
      <trkpt lat="41.1794276162982" lon="-8.62837580032647">
        <ele>99.2</ele>
        <time>2021-03-20T01:51:29</time>
      </trkpt>
      <trkpt lat="41.179445721209" lon="-8.62831327132881">
        <ele>99.4</ele>
        <time>2021-03-20T01:51:30</time>
      </trkpt>
      <trkpt lat="41.1794453859329" lon="-8.62824864685536">
        <ele>99.4</ele>
        <time>2021-03-20T01:51:31</time>
      </trkpt>
      <trkpt lat="41.1794411949813" lon="-8.62809148617089">
        <ele>99.6</ele>
        <time>2021-03-20T01:51:33</time>
      </trkpt>
      <trkpt lat="41.1794526781887" lon="-8.62801621668041">
        <ele>99.8</ele>
        <time>2021-03-20T01:51:34</time>
      </trkpt>
      <trkpt lat="41.1794706992805" lon="-8.62794874235988">
        <ele>100</ele>
        <time>2021-03-20T01:51:35</time>
      </trkpt>
      <trkpt lat="41.179474722594" lon="-8.62789778038859">
        <ele>100</ele>
        <time>2021-03-20T01:51:36</time>
      </trkpt>
      <trkpt lat="41.1794858705252" lon="-8.6278179846704">
        <ele>100.2</ele>
        <time>2021-03-20T01:51:37</time>
      </trkpt>
      <trkpt lat="41.1794748902321" lon="-8.62772352062166">
        <ele>100.4</ele>
        <time>2021-03-20T01:51:38</time>
      </trkpt>
      <trkpt lat="41.1794868763536" lon="-8.62765965051949">
        <ele>100.2</ele>
        <time>2021-03-20T01:51:39</time>
      </trkpt>
      <trkpt lat="41.1794960964471" lon="-8.62759418785572">
        <ele>100.2</ele>
        <time>2021-03-20T01:51:40</time>
      </trkpt>
      <trkpt lat="41.1794991977513" lon="-8.62752579152584">
        <ele>100.4</ele>
        <time>2021-03-20T01:51:41</time>
      </trkpt>
      <trkpt lat="41.1794986110181" lon="-8.62747164443135">
        <ele>100.4</ele>
        <time>2021-03-20T01:51:42</time>
      </trkpt>
      <trkpt lat="41.1795046459883" lon="-8.62738765776157">
        <ele>100.6</ele>
        <time>2021-03-20T01:51:43</time>
      </trkpt>
      <trkpt lat="41.1795128602535" lon="-8.62731565721333">
        <ele>100.8</ele>
        <time>2021-03-20T01:51:44</time>
      </trkpt>
      <trkpt lat="41.1795191466808" lon="-8.62723678350449">
        <ele>100.8</ele>
        <time>2021-03-20T01:51:45</time>
      </trkpt>
      <trkpt lat="41.1795268580318" lon="-8.62717769108713">
        <ele>100.8</ele>
        <time>2021-03-20T01:51:46</time>
      </trkpt>
      <trkpt lat="41.179532893002" lon="-8.62709051929414">
        <ele>101</ele>
        <time>2021-03-20T01:51:47</time>
      </trkpt>
      <trkpt lat="41.1795398499817" lon="-8.62700846046209">
        <ele>101.2</ele>
        <time>2021-03-20T01:51:48</time>
      </trkpt>
      <trkpt lat="41.1795533448458" lon="-8.62691701389849">
        <ele>101.4</ele>
        <time>2021-03-20T01:51:49</time>
      </trkpt>
      <trkpt lat="41.1795623973012" lon="-8.62683948129416">
        <ele>101.4</ele>
        <time>2021-03-20T01:51:50</time>
      </trkpt>
      <trkpt lat="41.1795743834227" lon="-8.62676831893623">
        <ele>101.4</ele>
        <time>2021-03-20T01:51:51</time>
      </trkpt>
      <trkpt lat="41.1795897223055" lon="-8.62670327536762">
        <ele>101.6</ele>
        <time>2021-03-20T01:51:52</time>
      </trkpt>
      <trkpt lat="41.1796066537499" lon="-8.6266231443733">
        <ele>101.6</ele>
        <time>2021-03-20T01:51:53</time>
      </trkpt>
      <trkpt lat="41.1796178855002" lon="-8.62654879689216">
        <ele>101.4</ele>
        <time>2021-03-20T01:51:54</time>
      </trkpt>
      <trkpt lat="41.1796266864985" lon="-8.62647000700235">
        <ele>101.2</ele>
        <time>2021-03-20T01:51:55</time>
      </trkpt>
      <trkpt lat="41.1796369124204" lon="-8.62638551741838">
        <ele>101.2</ele>
        <time>2021-03-20T01:51:56</time>
      </trkpt>
      <trkpt lat="41.1796458810568" lon="-8.62630974501371">
        <ele>101.8</ele>
        <time>2021-03-20T01:51:57</time>
      </trkpt>
      <trkpt lat="41.1796626448631" lon="-8.62622299231589">
        <ele>102.2</ele>
        <time>2021-03-20T01:51:58</time>
      </trkpt>
      <trkpt lat="41.1796745471656" lon="-8.6261395085603">
        <ele>102.4</ele>
        <time>2021-03-20T01:51:59</time>
      </trkpt>
      <trkpt lat="41.179686198011" lon="-8.62605568952858">
        <ele>102.4</ele>
        <time>2021-03-20T01:52:00</time>
      </trkpt>
      <trkpt lat="41.1796981003135" lon="-8.62597279250622">
        <ele>102.4</ele>
        <time>2021-03-20T01:52:01</time>
      </trkpt>
      <trkpt lat="41.1797030456364" lon="-8.62588545307517">
        <ele>102.4</ele>
        <time>2021-03-20T01:52:02</time>
      </trkpt>
      <trkpt lat="41.179717713967" lon="-8.6258064955473">
        <ele>102.4</ele>
        <time>2021-03-20T01:52:03</time>
      </trkpt>
      <trkpt lat="41.1797298677266" lon="-8.62572468817234">
        <ele>102.4</ele>
        <time>2021-03-20T01:52:04</time>
      </trkpt>
      <trkpt lat="41.1797423567623" lon="-8.62565897405148">
        <ele>102.6</ele>
        <time>2021-03-20T01:52:05</time>
      </trkpt>
      <trkpt lat="41.1797501519322" lon="-8.6255712993443">
        <ele>103</ele>
        <time>2021-03-20T01:52:06</time>
      </trkpt>
      <trkpt lat="41.1797605454922" lon="-8.62549267709255">
        <ele>103</ele>
        <time>2021-03-20T01:52:07</time>
      </trkpt>
      <trkpt lat="41.1797690950334" lon="-8.62540843896568">
        <ele>103.2</ele>
        <time>2021-03-20T01:52:08</time>
      </trkpt>
      <trkpt lat="41.179775884375" lon="-8.62531171180308">
        <ele>103.2</ele>
        <time>2021-03-20T01:52:09</time>
      </trkpt>
      <trkpt lat="41.179778566584" lon="-8.62522915005684">
        <ele>103</ele>
        <time>2021-03-20T01:52:10</time>
      </trkpt>
      <trkpt lat="41.1797868646681" lon="-8.62514801323414">
        <ele>103.2</ele>
        <time>2021-03-20T01:52:11</time>
      </trkpt>
      <trkpt lat="41.1797941569239" lon="-8.62506444565952">
        <ele>103.6</ele>
        <time>2021-03-20T01:52:12</time>
      </trkpt>
      <trkpt lat="41.1798100825399" lon="-8.62498020753264">
        <ele>103.6</ele>
        <time>2021-03-20T01:52:13</time>
      </trkpt>
      <trkpt lat="41.1798148602247" lon="-8.62489496357739">
        <ele>103.6</ele>
        <time>2021-03-20T01:52:14</time>
      </trkpt>
      <trkpt lat="41.1798281036317" lon="-8.62481349147856">
        <ele>103.8</ele>
        <time>2021-03-20T01:52:15</time>
      </trkpt>
      <trkpt lat="41.1798408441246" lon="-8.62472900189459">
        <ele>103.8</ele>
        <time>2021-03-20T01:52:16</time>
      </trkpt>
      <trkpt lat="41.1798478849232" lon="-8.6246404889971">
        <ele>104.2</ele>
        <time>2021-03-20T01:52:17</time>
      </trkpt>
      <trkpt lat="41.179860541597" lon="-8.62455298192799">
        <ele>104.4</ele>
        <time>2021-03-20T01:52:18</time>
      </trkpt>
      <trkpt lat="41.1798698455095" lon="-8.62446128390729">
        <ele>104.4</ele>
        <time>2021-03-20T01:52:19</time>
      </trkpt>
      <trkpt lat="41.179879065603" lon="-8.62437218427658">
        <ele>104.6</ele>
        <time>2021-03-20T01:52:20</time>
      </trkpt>
      <trkpt lat="41.17988971062" lon="-8.62428073771298">
        <ele>104.6</ele>
        <time>2021-03-20T01:52:21</time>
      </trkpt>
      <trkpt lat="41.1799013614655" lon="-8.6241964995861">
        <ele>105</ele>
        <time>2021-03-20T01:52:22</time>
      </trkpt>
      <trkpt lat="41.1799111682922" lon="-8.62410765141249">
        <ele>105</ele>
        <time>2021-03-20T01:52:23</time>
      </trkpt>
      <trkpt lat="41.1799235735089" lon="-8.62400631420314">
        <ele>105</ele>
        <time>2021-03-20T01:52:24</time>
      </trkpt>
      <trkpt lat="41.1799420975149" lon="-8.62390900030732">
        <ele>104.6</ele>
        <time>2021-03-20T01:52:25</time>
      </trkpt>
      <trkpt lat="41.1799561791122" lon="-8.62382048740983">
        <ele>104.6</ele>
        <time>2021-03-20T01:52:26</time>
      </trkpt>
      <trkpt lat="41.1799681652337" lon="-8.62373348325491">
        <ele>104.8</ele>
        <time>2021-03-20T01:52:27</time>
      </trkpt>
      <trkpt lat="41.1799851804972" lon="-8.62364664673805">
        <ele>105.4</ele>
        <time>2021-03-20T01:52:28</time>
      </trkpt>
      <trkpt lat="41.1799991782755" lon="-8.62355394288898">
        <ele>105.4</ele>
        <time>2021-03-20T01:52:29</time>
      </trkpt>
      <trkpt lat="41.1800182051957" lon="-8.6234591435641">
        <ele>105.2</ele>
        <time>2021-03-20T01:52:30</time>
      </trkpt>
      <trkpt lat="41.1800426803529" lon="-8.62337121739984">
        <ele>105.2</ele>
        <time>2021-03-20T01:52:31</time>
      </trkpt>
      <trkpt lat="41.180066568777" lon="-8.62328018993139">
        <ele>105.2</ele>
        <time>2021-03-20T01:52:32</time>
      </trkpt>
      <trkpt lat="41.1800888646394" lon="-8.62318899482489">
        <ele>105.4</ele>
        <time>2021-03-20T01:52:33</time>
      </trkpt>
      <trkpt lat="41.1801100708544" lon="-8.62309981137514">
        <ele>105.2</ele>
        <time>2021-03-20T01:52:34</time>
      </trkpt>
      <trkpt lat="41.1801288463175" lon="-8.62300844863057">
        <ele>105.4</ele>
        <time>2021-03-20T01:52:35</time>
      </trkpt>
      <trkpt lat="41.1801531538367" lon="-8.62291700206697">
        <ele>105.4</ele>
        <time>2021-03-20T01:52:36</time>
      </trkpt>
      <trkpt lat="41.1801826581359" lon="-8.62282781861722">
        <ele>105.4</ele>
        <time>2021-03-20T01:52:37</time>
      </trkpt>
      <trkpt lat="41.1802046187222" lon="-8.62273477949202">
        <ele>105.4</ele>
        <time>2021-03-20T01:52:38</time>
      </trkpt>
      <trkpt lat="41.1802235618234" lon="-8.62264014780521">
        <ele>105.2</ele>
        <time>2021-03-20T01:52:39</time>
      </trkpt>
      <trkpt lat="41.1802451871336" lon="-8.62254643812776">
        <ele>105.2</ele>
        <time>2021-03-20T01:52:40</time>
      </trkpt>
      <trkpt lat="41.1802699137479" lon="-8.62245826050639">
        <ele>105.4</ele>
        <time>2021-03-20T01:52:41</time>
      </trkpt>
      <trkpt lat="41.1802850849926" lon="-8.62236245535314">
        <ele>105.2</ele>
        <time>2021-03-20T01:52:42</time>
      </trkpt>
      <trkpt lat="41.1802976578474" lon="-8.62227519974112">
        <ele>104.8</ele>
        <time>2021-03-20T01:52:43</time>
      </trkpt>
      <trkpt lat="41.1803103983402" lon="-8.62219481728971">
        <ele>105</ele>
        <time>2021-03-20T01:52:44</time>
      </trkpt>
      <trkpt lat="41.1803443450481" lon="-8.62212667241692">
        <ele>105</ele>
        <time>2021-03-20T01:52:45</time>
      </trkpt>
      <trkpt lat="41.1803866736591" lon="-8.62205416895449">
        <ele>105.2</ele>
        <time>2021-03-20T01:52:46</time>
      </trkpt>
      <trkpt lat="41.1804196145386" lon="-8.6219571903348">
        <ele>105</ele>
        <time>2021-03-20T01:52:47</time>
      </trkpt>
      <trkpt lat="41.1804436706006" lon="-8.62186146900058">
        <ele>105.2</ele>
        <time>2021-03-20T01:52:48</time>
      </trkpt>
      <trkpt lat="41.1804756056517" lon="-8.62176725640893">
        <ele>105.8</ele>
        <time>2021-03-20T01:52:49</time>
      </trkpt>
      <trkpt lat="41.1805092170835" lon="-8.62167773768306">
        <ele>105.8</ele>
        <time>2021-03-20T01:52:50</time>
      </trkpt>
      <trkpt lat="41.1805448401719" lon="-8.6215734668076">
        <ele>105.8</ele>
        <time>2021-03-20T01:52:51</time>
      </trkpt>
      <trkpt lat="41.1805761046708" lon="-8.6214806791395">
        <ele>105.6</ele>
        <time>2021-03-20T01:52:52</time>
      </trkpt>
      <trkpt lat="41.1806072015315" lon="-8.62139015458524">
        <ele>105.4</ele>
        <time>2021-03-20T01:52:53</time>
      </trkpt>
      <trkpt lat="41.180642908439" lon="-8.62130298279226">
        <ele>105.4</ele>
        <time>2021-03-20T01:52:54</time>
      </trkpt>
      <trkpt lat="41.1806710716337" lon="-8.62121128477156">
        <ele>105.2</ele>
        <time>2021-03-20T01:52:55</time>
      </trkpt>
      <trkpt lat="41.1807031743228" lon="-8.62111665308476">
        <ele>105.2</ele>
        <time>2021-03-20T01:52:56</time>
      </trkpt>
      <trkpt lat="41.180737875402" lon="-8.62102545797825">
        <ele>105.2</ele>
        <time>2021-03-20T01:52:57</time>
      </trkpt>
      <trkpt lat="41.1807756777853" lon="-8.62093417905271">
        <ele>105</ele>
        <time>2021-03-20T01:52:58</time>
      </trkpt>
      <trkpt lat="41.1808107141405" lon="-8.6208379548043">
        <ele>105</ele>
        <time>2021-03-20T01:52:59</time>
      </trkpt>
      <trkpt lat="41.1808449123055" lon="-8.62074273638427">
        <ele>104.8</ele>
        <time>2021-03-20T01:53:00</time>
      </trkpt>
      <trkpt lat="41.1808840557933" lon="-8.62064768560231">
        <ele>104.6</ele>
        <time>2021-03-20T01:53:01</time>
      </trkpt>
      <trkpt lat="41.1809179186821" lon="-8.62055481411517">
        <ele>104.8</ele>
        <time>2021-03-20T01:53:02</time>
      </trkpt>
      <trkpt lat="41.1809619236738" lon="-8.62046521157026">
        <ele>105</ele>
        <time>2021-03-20T01:53:03</time>
      </trkpt>
      <trkpt lat="41.1810071859509" lon="-8.62037845887244">
        <ele>105</ele>
        <time>2021-03-20T01:53:04</time>
      </trkpt>
      <trkpt lat="41.181044569239" lon="-8.62029229290784">
        <ele>105.2</ele>
        <time>2021-03-20T01:53:05</time>
      </trkpt>
      <trkpt lat="41.1810886580497" lon="-8.6202007625252">
        <ele>105</ele>
        <time>2021-03-20T01:53:06</time>
      </trkpt>
      <trkpt lat="41.1811336688697" lon="-8.62011669203639">
        <ele>105</ele>
        <time>2021-03-20T01:53:07</time>
      </trkpt>
      <trkpt lat="41.1811712197959" lon="-8.62003329209983">
        <ele>105.2</ele>
        <time>2021-03-20T01:53:08</time>
      </trkpt>
      <trkpt lat="41.1812049150467" lon="-8.61994670704007">
        <ele>105.4</ele>
        <time>2021-03-20T01:53:09</time>
      </trkpt>
    </trkseg>
  </trk>
</gpx>
